<?xml version="1.0" encoding="UTF-8" standalone="no" ?>
<gpx xmlns="http://www.topografix.com/GPX/1/1" xmlns:xsi="http://www.w3.org/2001/XMLSchema-instance" xsi:schemaLocation="http://www.topografix.com/GPX/1/1 http://www.topografix.com/GPX/1/1/gpx.xsd" version="1.1" creator="VisuGPX - https://www.visugpx.com">
  <metadata>
    <name>Col de Sarenne/Croix de Cassini </name>
  </metadata>
  <trk>
    <name><![CDATA[Col de Sarenne/Croix de Cassini _1]]></name>
    <trkseg>
      <trkpt lat="45.0801" lon="6.13091">
        <ele>1839.6</ele>
        <time>2024-07-09T08:03:32Z</time>
      </trkpt>
      <trkpt lat="45.08009" lon="6.13095">
        <ele>1839.8</ele>
        <time>2024-07-09T08:03:33Z</time>
      </trkpt>
      <trkpt lat="45.0801" lon="6.13096">
        <ele>1839.8</ele>
        <time>2024-07-09T08:03:34Z</time>
      </trkpt>
      <trkpt lat="45.08009" lon="6.13096">
        <ele>1839.9</ele>
        <time>2024-07-09T08:03:35Z</time>
      </trkpt>
      <trkpt lat="45.08009" lon="6.13095">
        <ele>1839.9</ele>
        <time>2024-07-09T08:03:36Z</time>
      </trkpt>
      <trkpt lat="45.08009" lon="6.13094">
        <ele>1840</ele>
        <time>2024-07-09T08:03:37Z</time>
      </trkpt>
      <trkpt lat="45.08009" lon="6.13093">
        <ele>1840</ele>
        <time>2024-07-09T08:03:38Z</time>
      </trkpt>
      <trkpt lat="45.08009" lon="6.13092">
        <ele>1840.1</ele>
        <time>2024-07-09T08:03:39Z</time>
      </trkpt>
      <trkpt lat="45.08008" lon="6.13091">
        <ele>1840.1</ele>
        <time>2024-07-09T08:03:40Z</time>
      </trkpt>
      <trkpt lat="45.08008" lon="6.1309">
        <ele>1840.2</ele>
        <time>2024-07-09T08:03:41Z</time>
      </trkpt>
      <trkpt lat="45.08007" lon="6.1309">
        <ele>1840.3</ele>
        <time>2024-07-09T08:03:42Z</time>
      </trkpt>
      <trkpt lat="45.08005" lon="6.13089">
        <ele>1840.4</ele>
        <time>2024-07-09T08:03:43Z</time>
      </trkpt>
      <trkpt lat="45.08004" lon="6.13088">
        <ele>1840.5</ele>
        <time>2024-07-09T08:03:44Z</time>
      </trkpt>
      <trkpt lat="45.08003" lon="6.13086">
        <ele>1840.6</ele>
        <time>2024-07-09T08:03:46Z</time>
      </trkpt>
      <trkpt lat="45.08002" lon="6.13084">
        <ele>1840.7</ele>
        <time>2024-07-09T08:03:47Z</time>
      </trkpt>
      <trkpt lat="45.08001" lon="6.13084">
        <ele>1840.8</ele>
        <time>2024-07-09T08:03:48Z</time>
      </trkpt>
      <trkpt lat="45.08" lon="6.13083">
        <ele>1840.9</ele>
        <time>2024-07-09T08:03:49Z</time>
      </trkpt>
      <trkpt lat="45.07999" lon="6.13083">
        <ele>1841</ele>
        <time>2024-07-09T08:03:50Z</time>
      </trkpt>
      <trkpt lat="45.07998" lon="6.13082">
        <ele>1841</ele>
        <time>2024-07-09T08:03:51Z</time>
      </trkpt>
      <trkpt lat="45.07997" lon="6.13082">
        <ele>1841.1</ele>
        <time>2024-07-09T08:03:52Z</time>
      </trkpt>
      <trkpt lat="45.07996" lon="6.13082">
        <ele>1841.2</ele>
        <time>2024-07-09T08:03:53Z</time>
      </trkpt>
      <trkpt lat="45.07994" lon="6.13084">
        <ele>1841.3</ele>
        <time>2024-07-09T08:03:54Z</time>
      </trkpt>
      <trkpt lat="45.07993" lon="6.13087">
        <ele>1841.5</ele>
        <time>2024-07-09T08:03:56Z</time>
      </trkpt>
      <trkpt lat="45.07992" lon="6.13089">
        <ele>1841.6</ele>
        <time>2024-07-09T08:03:58Z</time>
      </trkpt>
      <trkpt lat="45.07992" lon="6.13091">
        <ele>1841.7</ele>
        <time>2024-07-09T08:04:00Z</time>
      </trkpt>
      <trkpt lat="45.07992" lon="6.13094">
        <ele>1841.8</ele>
        <time>2024-07-09T08:04:01Z</time>
      </trkpt>
      <trkpt lat="45.07991" lon="6.13095">
        <ele>1841.9</ele>
        <time>2024-07-09T08:04:03Z</time>
      </trkpt>
      <trkpt lat="45.07991" lon="6.13096">
        <ele>1842</ele>
        <time>2024-07-09T08:04:04Z</time>
      </trkpt>
      <trkpt lat="45.07991" lon="6.13098">
        <ele>1842</ele>
        <time>2024-07-09T08:04:05Z</time>
      </trkpt>
      <trkpt lat="45.07991" lon="6.131">
        <ele>1842.2</ele>
        <time>2024-07-09T08:04:06Z</time>
      </trkpt>
      <trkpt lat="45.0799" lon="6.13102">
        <ele>1842.3</ele>
        <time>2024-07-09T08:04:08Z</time>
      </trkpt>
      <trkpt lat="45.07989" lon="6.13103">
        <ele>1842.3</ele>
        <time>2024-07-09T08:04:09Z</time>
      </trkpt>
      <trkpt lat="45.07989" lon="6.13104">
        <ele>1842.4</ele>
        <time>2024-07-09T08:04:10Z</time>
      </trkpt>
      <trkpt lat="45.07988" lon="6.13105">
        <ele>1842.4</ele>
        <time>2024-07-09T08:04:11Z</time>
      </trkpt>
      <trkpt lat="45.07988" lon="6.13106">
        <ele>1842.5</ele>
        <time>2024-07-09T08:04:12Z</time>
      </trkpt>
      <trkpt lat="45.07988" lon="6.13109">
        <ele>1842.6</ele>
        <time>2024-07-09T08:04:13Z</time>
      </trkpt>
      <trkpt lat="45.07987" lon="6.1311">
        <ele>1842.7</ele>
        <time>2024-07-09T08:04:15Z</time>
      </trkpt>
      <trkpt lat="45.07987" lon="6.13111">
        <ele>1842.8</ele>
        <time>2024-07-09T08:04:16Z</time>
      </trkpt>
      <trkpt lat="45.07987" lon="6.13112">
        <ele>1842.8</ele>
        <time>2024-07-09T08:04:17Z</time>
      </trkpt>
      <trkpt lat="45.07986" lon="6.13114">
        <ele>1842.9</ele>
        <time>2024-07-09T08:04:18Z</time>
      </trkpt>
      <trkpt lat="45.07986" lon="6.13115">
        <ele>1843</ele>
        <time>2024-07-09T08:04:19Z</time>
      </trkpt>
      <trkpt lat="45.07985" lon="6.13116">
        <ele>1843</ele>
        <time>2024-07-09T08:04:20Z</time>
      </trkpt>
      <trkpt lat="45.07985" lon="6.13117">
        <ele>1843.1</ele>
        <time>2024-07-09T08:04:21Z</time>
      </trkpt>
      <trkpt lat="45.07985" lon="6.13118">
        <ele>1843.1</ele>
        <time>2024-07-09T08:04:22Z</time>
      </trkpt>
      <trkpt lat="45.07984" lon="6.1312">
        <ele>1843.2</ele>
        <time>2024-07-09T08:04:23Z</time>
      </trkpt>
      <trkpt lat="45.07984" lon="6.13121">
        <ele>1843.3</ele>
        <time>2024-07-09T08:04:24Z</time>
      </trkpt>
      <trkpt lat="45.07983" lon="6.13122">
        <ele>1843.4</ele>
        <time>2024-07-09T08:04:25Z</time>
      </trkpt>
      <trkpt lat="45.07983" lon="6.13125">
        <ele>1843.5</ele>
        <time>2024-07-09T08:04:26Z</time>
      </trkpt>
      <trkpt lat="45.07982" lon="6.13126">
        <ele>1843.6</ele>
        <time>2024-07-09T08:04:27Z</time>
      </trkpt>
      <trkpt lat="45.07982" lon="6.13127">
        <ele>1843.6</ele>
        <time>2024-07-09T08:04:28Z</time>
      </trkpt>
      <trkpt lat="45.07982" lon="6.13128">
        <ele>1843.7</ele>
        <time>2024-07-09T08:04:29Z</time>
      </trkpt>
      <trkpt lat="45.07981" lon="6.1313">
        <ele>1843.8</ele>
        <time>2024-07-09T08:04:30Z</time>
      </trkpt>
      <trkpt lat="45.0798" lon="6.13134">
        <ele>1844</ele>
        <time>2024-07-09T08:04:32Z</time>
      </trkpt>
      <trkpt lat="45.0798" lon="6.13135">
        <ele>1844</ele>
        <time>2024-07-09T08:04:34Z</time>
      </trkpt>
      <trkpt lat="45.0798" lon="6.13136">
        <ele>1844.1</ele>
        <time>2024-07-09T08:04:35Z</time>
      </trkpt>
      <trkpt lat="45.07979" lon="6.13139">
        <ele>1844.3</ele>
        <time>2024-07-09T08:04:36Z</time>
      </trkpt>
      <trkpt lat="45.07979" lon="6.13141">
        <ele>1844.4</ele>
        <time>2024-07-09T08:04:37Z</time>
      </trkpt>
      <trkpt lat="45.07978" lon="6.13144">
        <ele>1844.5</ele>
        <time>2024-07-09T08:04:39Z</time>
      </trkpt>
      <trkpt lat="45.07978" lon="6.13145">
        <ele>1844.6</ele>
        <time>2024-07-09T08:04:40Z</time>
      </trkpt>
      <trkpt lat="45.07978" lon="6.13147">
        <ele>1844.7</ele>
        <time>2024-07-09T08:04:41Z</time>
      </trkpt>
      <trkpt lat="45.07977" lon="6.13149">
        <ele>1844.8</ele>
        <time>2024-07-09T08:04:42Z</time>
      </trkpt>
      <trkpt lat="45.07977" lon="6.1315">
        <ele>1844.9</ele>
        <time>2024-07-09T08:04:44Z</time>
      </trkpt>
      <trkpt lat="45.07976" lon="6.13152">
        <ele>1845</ele>
        <time>2024-07-09T08:04:46Z</time>
      </trkpt>
      <trkpt lat="45.07975" lon="6.13154">
        <ele>1845.1</ele>
        <time>2024-07-09T08:04:47Z</time>
      </trkpt>
      <trkpt lat="45.07975" lon="6.13155">
        <ele>1845.1</ele>
        <time>2024-07-09T08:04:49Z</time>
      </trkpt>
      <trkpt lat="45.07974" lon="6.13156">
        <ele>1845.2</ele>
        <time>2024-07-09T08:04:50Z</time>
      </trkpt>
      <trkpt lat="45.07974" lon="6.13158">
        <ele>1845.3</ele>
        <time>2024-07-09T08:04:51Z</time>
      </trkpt>
      <trkpt lat="45.07974" lon="6.13161">
        <ele>1845.5</ele>
        <time>2024-07-09T08:04:52Z</time>
      </trkpt>
      <trkpt lat="45.07974" lon="6.13162">
        <ele>1845.5</ele>
        <time>2024-07-09T08:04:54Z</time>
      </trkpt>
      <trkpt lat="45.07974" lon="6.13163">
        <ele>1845.6</ele>
        <time>2024-07-09T08:04:55Z</time>
      </trkpt>
      <trkpt lat="45.07973" lon="6.13167">
        <ele>1845.8</ele>
        <time>2024-07-09T08:04:56Z</time>
      </trkpt>
      <trkpt lat="45.07973" lon="6.13168">
        <ele>1845.9</ele>
        <time>2024-07-09T08:04:57Z</time>
      </trkpt>
      <trkpt lat="45.07972" lon="6.13169">
        <ele>1845.9</ele>
        <time>2024-07-09T08:04:59Z</time>
      </trkpt>
      <trkpt lat="45.07972" lon="6.13172">
        <ele>1846.1</ele>
        <time>2024-07-09T08:05:00Z</time>
      </trkpt>
      <trkpt lat="45.07972" lon="6.13173">
        <ele>1846.1</ele>
        <time>2024-07-09T08:05:02Z</time>
      </trkpt>
      <trkpt lat="45.07971" lon="6.13175">
        <ele>1846.2</ele>
        <time>2024-07-09T08:05:03Z</time>
      </trkpt>
      <trkpt lat="45.07971" lon="6.13177">
        <ele>1846.3</ele>
        <time>2024-07-09T08:05:04Z</time>
      </trkpt>
      <trkpt lat="45.07971" lon="6.13178">
        <ele>1846.4</ele>
        <time>2024-07-09T08:05:05Z</time>
      </trkpt>
      <trkpt lat="45.0797" lon="6.13181">
        <ele>1846.5</ele>
        <time>2024-07-09T08:05:06Z</time>
      </trkpt>
      <trkpt lat="45.07969" lon="6.13183">
        <ele>1846.7</ele>
        <time>2024-07-09T08:05:08Z</time>
      </trkpt>
      <trkpt lat="45.07969" lon="6.13184">
        <ele>1846.7</ele>
        <time>2024-07-09T08:05:10Z</time>
      </trkpt>
      <trkpt lat="45.07969" lon="6.13187">
        <ele>1846.9</ele>
        <time>2024-07-09T08:05:11Z</time>
      </trkpt>
      <trkpt lat="45.07968" lon="6.13188">
        <ele>1847</ele>
        <time>2024-07-09T08:05:13Z</time>
      </trkpt>
      <trkpt lat="45.07968" lon="6.13189">
        <ele>1847</ele>
        <time>2024-07-09T08:05:14Z</time>
      </trkpt>
      <trkpt lat="45.07968" lon="6.1319">
        <ele>1847.1</ele>
        <time>2024-07-09T08:05:15Z</time>
      </trkpt>
      <trkpt lat="45.07968" lon="6.13192">
        <ele>1847.2</ele>
        <time>2024-07-09T08:05:16Z</time>
      </trkpt>
      <trkpt lat="45.07967" lon="6.13194">
        <ele>1847.3</ele>
        <time>2024-07-09T08:05:18Z</time>
      </trkpt>
      <trkpt lat="45.07967" lon="6.13195">
        <ele>1847.4</ele>
        <time>2024-07-09T08:05:19Z</time>
      </trkpt>
      <trkpt lat="45.07967" lon="6.13195">
        <ele>1847.4</ele>
        <time>2024-07-09T08:05:20Z</time>
      </trkpt>
      <trkpt lat="45.07967" lon="6.13196">
        <ele>1847.5</ele>
        <time>2024-07-09T08:05:21Z</time>
      </trkpt>
      <trkpt lat="45.07966" lon="6.13198">
        <ele>1847.6</ele>
        <time>2024-07-09T08:05:22Z</time>
      </trkpt>
      <trkpt lat="45.07966" lon="6.13199">
        <ele>1847.7</ele>
        <time>2024-07-09T08:05:23Z</time>
      </trkpt>
      <trkpt lat="45.07966" lon="6.13201">
        <ele>1847.8</ele>
        <time>2024-07-09T08:05:24Z</time>
      </trkpt>
      <trkpt lat="45.07966" lon="6.13202">
        <ele>1847.9</ele>
        <time>2024-07-09T08:05:25Z</time>
      </trkpt>
      <trkpt lat="45.07966" lon="6.13203">
        <ele>1847.9</ele>
        <time>2024-07-09T08:05:26Z</time>
      </trkpt>
      <trkpt lat="45.07966" lon="6.13204">
        <ele>1848</ele>
        <time>2024-07-09T08:05:27Z</time>
      </trkpt>
      <trkpt lat="45.07966" lon="6.13208">
        <ele>1848.2</ele>
        <time>2024-07-09T08:05:28Z</time>
      </trkpt>
      <trkpt lat="45.07966" lon="6.1321">
        <ele>1848.4</ele>
        <time>2024-07-09T08:05:30Z</time>
      </trkpt>
      <trkpt lat="45.07965" lon="6.13213">
        <ele>1848.5</ele>
        <time>2024-07-09T08:05:32Z</time>
      </trkpt>
      <trkpt lat="45.07964" lon="6.13215">
        <ele>1848.7</ele>
        <time>2024-07-09T08:05:34Z</time>
      </trkpt>
      <trkpt lat="45.07964" lon="6.13217">
        <ele>1848.8</ele>
        <time>2024-07-09T08:05:36Z</time>
      </trkpt>
      <trkpt lat="45.07963" lon="6.13219">
        <ele>1848.9</ele>
        <time>2024-07-09T08:05:37Z</time>
      </trkpt>
      <trkpt lat="45.07963" lon="6.13221">
        <ele>1849</ele>
        <time>2024-07-09T08:05:38Z</time>
      </trkpt>
      <trkpt lat="45.07962" lon="6.13222">
        <ele>1849.1</ele>
        <time>2024-07-09T08:05:39Z</time>
      </trkpt>
      <trkpt lat="45.07962" lon="6.13223">
        <ele>1849.2</ele>
        <time>2024-07-09T08:05:40Z</time>
      </trkpt>
      <trkpt lat="45.07961" lon="6.13224">
        <ele>1849.3</ele>
        <time>2024-07-09T08:05:41Z</time>
      </trkpt>
      <trkpt lat="45.07961" lon="6.13226">
        <ele>1849.4</ele>
        <time>2024-07-09T08:05:42Z</time>
      </trkpt>
      <trkpt lat="45.07961" lon="6.13225">
        <ele>1849.4</ele>
        <time>2024-07-09T08:05:44Z</time>
      </trkpt>
      <trkpt lat="45.07961" lon="6.13225">
        <ele>1849.5</ele>
        <time>2024-07-09T08:05:45Z</time>
      </trkpt>
      <trkpt lat="45.07962" lon="6.13225">
        <ele>1849.5</ele>
        <time>2024-07-09T08:05:46Z</time>
      </trkpt>
      <trkpt lat="45.07962" lon="6.13225">
        <ele>1849.6</ele>
        <time>2024-07-09T08:05:47Z</time>
      </trkpt>
      <trkpt lat="45.07962" lon="6.13224">
        <ele>1849.6</ele>
        <time>2024-07-09T08:05:48Z</time>
      </trkpt>
      <trkpt lat="45.07963" lon="6.13224">
        <ele>1849.6</ele>
        <time>2024-07-09T08:05:49Z</time>
      </trkpt>
      <trkpt lat="45.07963" lon="6.13224">
        <ele>1849.7</ele>
        <time>2024-07-09T08:05:50Z</time>
      </trkpt>
      <trkpt lat="45.07963" lon="6.13224">
        <ele>1849.7</ele>
        <time>2024-07-09T08:05:51Z</time>
      </trkpt>
      <trkpt lat="45.07963" lon="6.13224">
        <ele>1849.7</ele>
        <time>2024-07-09T08:05:52Z</time>
      </trkpt>
      <trkpt lat="45.07963" lon="6.13223">
        <ele>1849.7</ele>
        <time>2024-07-09T08:05:53Z</time>
      </trkpt>
      <trkpt lat="45.07963" lon="6.13223">
        <ele>1849.7</ele>
        <time>2024-07-09T08:05:54Z</time>
      </trkpt>
      <trkpt lat="45.07963" lon="6.13223">
        <ele>1849.7</ele>
        <time>2024-07-09T08:05:55Z</time>
      </trkpt>
      <trkpt lat="45.07963" lon="6.13223">
        <ele>1849.7</ele>
        <time>2024-07-09T08:05:56Z</time>
      </trkpt>
      <trkpt lat="45.07963" lon="6.13224">
        <ele>1849.8</ele>
        <time>2024-07-09T08:05:57Z</time>
      </trkpt>
      <trkpt lat="45.07964" lon="6.13225">
        <ele>1849.8</ele>
        <time>2024-07-09T08:05:59Z</time>
      </trkpt>
      <trkpt lat="45.07964" lon="6.13226">
        <ele>1849.9</ele>
        <time>2024-07-09T08:06:00Z</time>
      </trkpt>
      <trkpt lat="45.07965" lon="6.13228">
        <ele>1850.1</ele>
        <time>2024-07-09T08:06:01Z</time>
      </trkpt>
      <trkpt lat="45.07965" lon="6.1323">
        <ele>1850.2</ele>
        <time>2024-07-09T08:06:02Z</time>
      </trkpt>
      <trkpt lat="45.07965" lon="6.13233">
        <ele>1850.4</ele>
        <time>2024-07-09T08:06:03Z</time>
      </trkpt>
      <trkpt lat="45.07965" lon="6.13235">
        <ele>1850.5</ele>
        <time>2024-07-09T08:06:05Z</time>
      </trkpt>
      <trkpt lat="45.07965" lon="6.13239">
        <ele>1850.8</ele>
        <time>2024-07-09T08:06:06Z</time>
      </trkpt>
      <trkpt lat="45.07965" lon="6.13241">
        <ele>1850.9</ele>
        <time>2024-07-09T08:06:08Z</time>
      </trkpt>
      <trkpt lat="45.07965" lon="6.13243">
        <ele>1851</ele>
        <time>2024-07-09T08:06:09Z</time>
      </trkpt>
      <trkpt lat="45.07965" lon="6.13244">
        <ele>1851.1</ele>
        <time>2024-07-09T08:06:10Z</time>
      </trkpt>
      <trkpt lat="45.07965" lon="6.13246">
        <ele>1851.2</ele>
        <time>2024-07-09T08:06:11Z</time>
      </trkpt>
      <trkpt lat="45.07966" lon="6.13248">
        <ele>1851.3</ele>
        <time>2024-07-09T08:06:12Z</time>
      </trkpt>
      <trkpt lat="45.07966" lon="6.13249">
        <ele>1851.4</ele>
        <time>2024-07-09T08:06:14Z</time>
      </trkpt>
      <trkpt lat="45.07967" lon="6.13252">
        <ele>1851.6</ele>
        <time>2024-07-09T08:06:15Z</time>
      </trkpt>
      <trkpt lat="45.07967" lon="6.13255">
        <ele>1851.8</ele>
        <time>2024-07-09T08:06:17Z</time>
      </trkpt>
      <trkpt lat="45.07968" lon="6.13256">
        <ele>1851.9</ele>
        <time>2024-07-09T08:06:18Z</time>
      </trkpt>
      <trkpt lat="45.07969" lon="6.13259">
        <ele>1852.1</ele>
        <time>2024-07-09T08:06:20Z</time>
      </trkpt>
      <trkpt lat="45.07969" lon="6.1326">
        <ele>1852.1</ele>
        <time>2024-07-09T08:06:22Z</time>
      </trkpt>
      <trkpt lat="45.0797" lon="6.13261">
        <ele>1852.2</ele>
        <time>2024-07-09T08:06:23Z</time>
      </trkpt>
      <trkpt lat="45.0797" lon="6.13262">
        <ele>1852.3</ele>
        <time>2024-07-09T08:06:24Z</time>
      </trkpt>
      <trkpt lat="45.07971" lon="6.13263">
        <ele>1852.4</ele>
        <time>2024-07-09T08:06:25Z</time>
      </trkpt>
      <trkpt lat="45.07971" lon="6.13265">
        <ele>1852.5</ele>
        <time>2024-07-09T08:06:26Z</time>
      </trkpt>
      <trkpt lat="45.07972" lon="6.13267">
        <ele>1852.7</ele>
        <time>2024-07-09T08:06:27Z</time>
      </trkpt>
      <trkpt lat="45.07972" lon="6.13268">
        <ele>1852.8</ele>
        <time>2024-07-09T08:06:28Z</time>
      </trkpt>
      <trkpt lat="45.07973" lon="6.13269">
        <ele>1852.8</ele>
        <time>2024-07-09T08:06:30Z</time>
      </trkpt>
      <trkpt lat="45.07973" lon="6.13271">
        <ele>1852.9</ele>
        <time>2024-07-09T08:06:31Z</time>
      </trkpt>
      <trkpt lat="45.07973" lon="6.13272">
        <ele>1853</ele>
        <time>2024-07-09T08:06:32Z</time>
      </trkpt>
      <trkpt lat="45.07974" lon="6.13273">
        <ele>1853.1</ele>
        <time>2024-07-09T08:06:33Z</time>
      </trkpt>
      <trkpt lat="45.07974" lon="6.13275">
        <ele>1853.2</ele>
        <time>2024-07-09T08:06:34Z</time>
      </trkpt>
      <trkpt lat="45.07974" lon="6.13276">
        <ele>1853.3</ele>
        <time>2024-07-09T08:06:35Z</time>
      </trkpt>
      <trkpt lat="45.07974" lon="6.13277">
        <ele>1853.4</ele>
        <time>2024-07-09T08:06:36Z</time>
      </trkpt>
      <trkpt lat="45.07974" lon="6.13278">
        <ele>1853.4</ele>
        <time>2024-07-09T08:06:37Z</time>
      </trkpt>
      <trkpt lat="45.07974" lon="6.1328">
        <ele>1853.5</ele>
        <time>2024-07-09T08:06:38Z</time>
      </trkpt>
      <trkpt lat="45.07975" lon="6.13281">
        <ele>1853.6</ele>
        <time>2024-07-09T08:06:39Z</time>
      </trkpt>
      <trkpt lat="45.07975" lon="6.13282">
        <ele>1853.7</ele>
        <time>2024-07-09T08:06:40Z</time>
      </trkpt>
      <trkpt lat="45.07975" lon="6.13283">
        <ele>1853.7</ele>
        <time>2024-07-09T08:06:41Z</time>
      </trkpt>
      <trkpt lat="45.07976" lon="6.13283">
        <ele>1853.7</ele>
        <time>2024-07-09T08:06:42Z</time>
      </trkpt>
      <trkpt lat="45.07976" lon="6.13283">
        <ele>1853.8</ele>
        <time>2024-07-09T08:06:43Z</time>
      </trkpt>
      <trkpt lat="45.07976" lon="6.13284">
        <ele>1853.8</ele>
        <time>2024-07-09T08:06:44Z</time>
      </trkpt>
      <trkpt lat="45.07976" lon="6.13284">
        <ele>1853.8</ele>
        <time>2024-07-09T08:06:45Z</time>
      </trkpt>
      <trkpt lat="45.07977" lon="6.13285">
        <ele>1853.9</ele>
        <time>2024-07-09T08:06:46Z</time>
      </trkpt>
      <trkpt lat="45.07977" lon="6.13285">
        <ele>1853.9</ele>
        <time>2024-07-09T08:06:47Z</time>
      </trkpt>
      <trkpt lat="45.07977" lon="6.13285">
        <ele>1853.9</ele>
        <time>2024-07-09T08:06:48Z</time>
      </trkpt>
      <trkpt lat="45.07978" lon="6.13287">
        <ele>1854.1</ele>
        <time>2024-07-09T08:06:49Z</time>
      </trkpt>
      <trkpt lat="45.0798" lon="6.13287">
        <ele>1854.2</ele>
        <time>2024-07-09T08:06:50Z</time>
      </trkpt>
      <trkpt lat="45.07981" lon="6.13288">
        <ele>1854.3</ele>
        <time>2024-07-09T08:06:51Z</time>
      </trkpt>
      <trkpt lat="45.07982" lon="6.13288">
        <ele>1854.4</ele>
        <time>2024-07-09T08:06:52Z</time>
      </trkpt>
      <trkpt lat="45.07983" lon="6.13292">
        <ele>1854.6</ele>
        <time>2024-07-09T08:06:53Z</time>
      </trkpt>
      <trkpt lat="45.07985" lon="6.13295">
        <ele>1854.9</ele>
        <time>2024-07-09T08:06:55Z</time>
      </trkpt>
      <trkpt lat="45.07986" lon="6.13297">
        <ele>1855</ele>
        <time>2024-07-09T08:06:56Z</time>
      </trkpt>
      <trkpt lat="45.07986" lon="6.13298">
        <ele>1855</ele>
        <time>2024-07-09T08:06:58Z</time>
      </trkpt>
      <trkpt lat="45.07987" lon="6.13299">
        <ele>1855.1</ele>
        <time>2024-07-09T08:06:59Z</time>
      </trkpt>
      <trkpt lat="45.07988" lon="6.133">
        <ele>1855.2</ele>
        <time>2024-07-09T08:07:01Z</time>
      </trkpt>
      <trkpt lat="45.07988" lon="6.13301">
        <ele>1855.3</ele>
        <time>2024-07-09T08:07:02Z</time>
      </trkpt>
      <trkpt lat="45.07989" lon="6.13302">
        <ele>1855.4</ele>
        <time>2024-07-09T08:07:03Z</time>
      </trkpt>
      <trkpt lat="45.0799" lon="6.13304">
        <ele>1855.5</ele>
        <time>2024-07-09T08:07:04Z</time>
      </trkpt>
      <trkpt lat="45.07991" lon="6.13306">
        <ele>1855.7</ele>
        <time>2024-07-09T08:07:06Z</time>
      </trkpt>
      <trkpt lat="45.07992" lon="6.13307">
        <ele>1855.7</ele>
        <time>2024-07-09T08:07:07Z</time>
      </trkpt>
      <trkpt lat="45.07992" lon="6.13308">
        <ele>1855.8</ele>
        <time>2024-07-09T08:07:08Z</time>
      </trkpt>
      <trkpt lat="45.07993" lon="6.13309">
        <ele>1855.8</ele>
        <time>2024-07-09T08:07:09Z</time>
      </trkpt>
      <trkpt lat="45.07994" lon="6.13311">
        <ele>1856</ele>
        <time>2024-07-09T08:07:10Z</time>
      </trkpt>
      <trkpt lat="45.07994" lon="6.13312">
        <ele>1856</ele>
        <time>2024-07-09T08:07:12Z</time>
      </trkpt>
      <trkpt lat="45.07995" lon="6.13315">
        <ele>1856.2</ele>
        <time>2024-07-09T08:07:13Z</time>
      </trkpt>
      <trkpt lat="45.07995" lon="6.13316">
        <ele>1856.3</ele>
        <time>2024-07-09T08:07:15Z</time>
      </trkpt>
      <trkpt lat="45.07995" lon="6.13318">
        <ele>1856.4</ele>
        <time>2024-07-09T08:07:16Z</time>
      </trkpt>
      <trkpt lat="45.07996" lon="6.1332">
        <ele>1856.5</ele>
        <time>2024-07-09T08:07:17Z</time>
      </trkpt>
      <trkpt lat="45.07996" lon="6.13322">
        <ele>1856.6</ele>
        <time>2024-07-09T08:07:18Z</time>
      </trkpt>
      <trkpt lat="45.07996" lon="6.13323">
        <ele>1856.7</ele>
        <time>2024-07-09T08:07:19Z</time>
      </trkpt>
      <trkpt lat="45.07997" lon="6.13324">
        <ele>1856.7</ele>
        <time>2024-07-09T08:07:20Z</time>
      </trkpt>
      <trkpt lat="45.07997" lon="6.13325">
        <ele>1856.8</ele>
        <time>2024-07-09T08:07:21Z</time>
      </trkpt>
      <trkpt lat="45.07997" lon="6.13326">
        <ele>1856.9</ele>
        <time>2024-07-09T08:07:22Z</time>
      </trkpt>
      <trkpt lat="45.07998" lon="6.13327">
        <ele>1856.9</ele>
        <time>2024-07-09T08:07:23Z</time>
      </trkpt>
      <trkpt lat="45.07998" lon="6.13329">
        <ele>1857</ele>
        <time>2024-07-09T08:07:24Z</time>
      </trkpt>
      <trkpt lat="45.07998" lon="6.13329">
        <ele>1857</ele>
        <time>2024-07-09T08:07:25Z</time>
      </trkpt>
      <trkpt lat="45.07999" lon="6.1333">
        <ele>1857.1</ele>
        <time>2024-07-09T08:07:26Z</time>
      </trkpt>
      <trkpt lat="45.07999" lon="6.13332">
        <ele>1857.2</ele>
        <time>2024-07-09T08:07:27Z</time>
      </trkpt>
      <trkpt lat="45.08" lon="6.13333">
        <ele>1857.2</ele>
        <time>2024-07-09T08:07:28Z</time>
      </trkpt>
      <trkpt lat="45.08" lon="6.13336">
        <ele>1857.4</ele>
        <time>2024-07-09T08:07:29Z</time>
      </trkpt>
      <trkpt lat="45.08001" lon="6.13337">
        <ele>1857.4</ele>
        <time>2024-07-09T08:07:31Z</time>
      </trkpt>
      <trkpt lat="45.08001" lon="6.13338">
        <ele>1857.5</ele>
        <time>2024-07-09T08:07:32Z</time>
      </trkpt>
      <trkpt lat="45.08001" lon="6.13339">
        <ele>1857.6</ele>
        <time>2024-07-09T08:07:33Z</time>
      </trkpt>
      <trkpt lat="45.08001" lon="6.13341">
        <ele>1857.7</ele>
        <time>2024-07-09T08:07:34Z</time>
      </trkpt>
      <trkpt lat="45.08002" lon="6.13342">
        <ele>1857.7</ele>
        <time>2024-07-09T08:07:35Z</time>
      </trkpt>
      <trkpt lat="45.08002" lon="6.13344">
        <ele>1857.8</ele>
        <time>2024-07-09T08:07:36Z</time>
      </trkpt>
      <trkpt lat="45.08002" lon="6.13345">
        <ele>1857.9</ele>
        <time>2024-07-09T08:07:37Z</time>
      </trkpt>
      <trkpt lat="45.08002" lon="6.13346">
        <ele>1858</ele>
        <time>2024-07-09T08:07:38Z</time>
      </trkpt>
      <trkpt lat="45.08003" lon="6.13348">
        <ele>1858</ele>
        <time>2024-07-09T08:07:39Z</time>
      </trkpt>
      <trkpt lat="45.08003" lon="6.13348">
        <ele>1858.1</ele>
        <time>2024-07-09T08:07:40Z</time>
      </trkpt>
      <trkpt lat="45.08004" lon="6.1335">
        <ele>1858.1</ele>
        <time>2024-07-09T08:07:41Z</time>
      </trkpt>
      <trkpt lat="45.08004" lon="6.13351">
        <ele>1858.2</ele>
        <time>2024-07-09T08:07:42Z</time>
      </trkpt>
      <trkpt lat="45.08003" lon="6.13354">
        <ele>1858.4</ele>
        <time>2024-07-09T08:07:43Z</time>
      </trkpt>
      <trkpt lat="45.08003" lon="6.13356">
        <ele>1858.5</ele>
        <time>2024-07-09T08:07:44Z</time>
      </trkpt>
      <trkpt lat="45.08005" lon="6.13358">
        <ele>1858.6</ele>
        <time>2024-07-09T08:07:45Z</time>
      </trkpt>
      <trkpt lat="45.08005" lon="6.13359">
        <ele>1858.7</ele>
        <time>2024-07-09T08:07:47Z</time>
      </trkpt>
      <trkpt lat="45.08007" lon="6.13361">
        <ele>1858.9</ele>
        <time>2024-07-09T08:07:48Z</time>
      </trkpt>
      <trkpt lat="45.08008" lon="6.13362">
        <ele>1858.9</ele>
        <time>2024-07-09T08:07:50Z</time>
      </trkpt>
      <trkpt lat="45.08008" lon="6.13363">
        <ele>1859</ele>
        <time>2024-07-09T08:07:51Z</time>
      </trkpt>
      <trkpt lat="45.08009" lon="6.13365">
        <ele>1859.1</ele>
        <time>2024-07-09T08:07:52Z</time>
      </trkpt>
      <trkpt lat="45.0801" lon="6.13366">
        <ele>1859.2</ele>
        <time>2024-07-09T08:07:53Z</time>
      </trkpt>
      <trkpt lat="45.0801" lon="6.13368">
        <ele>1859.3</ele>
        <time>2024-07-09T08:07:54Z</time>
      </trkpt>
      <trkpt lat="45.0801" lon="6.13369">
        <ele>1859.4</ele>
        <time>2024-07-09T08:07:55Z</time>
      </trkpt>
      <trkpt lat="45.0801" lon="6.13371">
        <ele>1859.4</ele>
        <time>2024-07-09T08:07:56Z</time>
      </trkpt>
      <trkpt lat="45.08011" lon="6.13372">
        <ele>1859.5</ele>
        <time>2024-07-09T08:07:57Z</time>
      </trkpt>
      <trkpt lat="45.08011" lon="6.13373">
        <ele>1859.6</ele>
        <time>2024-07-09T08:07:58Z</time>
      </trkpt>
      <trkpt lat="45.08011" lon="6.13375">
        <ele>1859.7</ele>
        <time>2024-07-09T08:07:59Z</time>
      </trkpt>
      <trkpt lat="45.08012" lon="6.13376">
        <ele>1859.7</ele>
        <time>2024-07-09T08:08:00Z</time>
      </trkpt>
      <trkpt lat="45.08012" lon="6.13377">
        <ele>1859.8</ele>
        <time>2024-07-09T08:08:01Z</time>
      </trkpt>
      <trkpt lat="45.08013" lon="6.1338">
        <ele>1860</ele>
        <time>2024-07-09T08:08:02Z</time>
      </trkpt>
      <trkpt lat="45.08013" lon="6.13381">
        <ele>1860</ele>
        <time>2024-07-09T08:08:03Z</time>
      </trkpt>
      <trkpt lat="45.08014" lon="6.13382">
        <ele>1860.1</ele>
        <time>2024-07-09T08:08:04Z</time>
      </trkpt>
      <trkpt lat="45.08014" lon="6.13384">
        <ele>1860.2</ele>
        <time>2024-07-09T08:08:05Z</time>
      </trkpt>
      <trkpt lat="45.08014" lon="6.13385">
        <ele>1860.2</ele>
        <time>2024-07-09T08:08:06Z</time>
      </trkpt>
      <trkpt lat="45.08015" lon="6.13386">
        <ele>1860.3</ele>
        <time>2024-07-09T08:08:07Z</time>
      </trkpt>
      <trkpt lat="45.08015" lon="6.13388">
        <ele>1860.4</ele>
        <time>2024-07-09T08:08:08Z</time>
      </trkpt>
      <trkpt lat="45.08016" lon="6.13389">
        <ele>1860.5</ele>
        <time>2024-07-09T08:08:09Z</time>
      </trkpt>
      <trkpt lat="45.08017" lon="6.1339">
        <ele>1860.5</ele>
        <time>2024-07-09T08:08:10Z</time>
      </trkpt>
      <trkpt lat="45.08018" lon="6.13394">
        <ele>1860.7</ele>
        <time>2024-07-09T08:08:11Z</time>
      </trkpt>
      <trkpt lat="45.08018" lon="6.13395">
        <ele>1860.8</ele>
        <time>2024-07-09T08:08:13Z</time>
      </trkpt>
      <trkpt lat="45.08018" lon="6.13397">
        <ele>1860.9</ele>
        <time>2024-07-09T08:08:15Z</time>
      </trkpt>
      <trkpt lat="45.08018" lon="6.13398">
        <ele>1861</ele>
        <time>2024-07-09T08:08:16Z</time>
      </trkpt>
      <trkpt lat="45.08019" lon="6.13401">
        <ele>1861.2</ele>
        <time>2024-07-09T08:08:18Z</time>
      </trkpt>
      <trkpt lat="45.0802" lon="6.13402">
        <ele>1861.2</ele>
        <time>2024-07-09T08:08:19Z</time>
      </trkpt>
      <trkpt lat="45.0802" lon="6.13404">
        <ele>1861.3</ele>
        <time>2024-07-09T08:08:20Z</time>
      </trkpt>
      <trkpt lat="45.0802" lon="6.13405">
        <ele>1861.4</ele>
        <time>2024-07-09T08:08:21Z</time>
      </trkpt>
      <trkpt lat="45.08021" lon="6.13406">
        <ele>1861.4</ele>
        <time>2024-07-09T08:08:23Z</time>
      </trkpt>
      <trkpt lat="45.08022" lon="6.13408">
        <ele>1861.6</ele>
        <time>2024-07-09T08:08:24Z</time>
      </trkpt>
      <trkpt lat="45.08022" lon="6.13409">
        <ele>1861.7</ele>
        <time>2024-07-09T08:08:26Z</time>
      </trkpt>
      <trkpt lat="45.08023" lon="6.13412">
        <ele>1861.8</ele>
        <time>2024-07-09T08:08:27Z</time>
      </trkpt>
      <trkpt lat="45.08024" lon="6.13414">
        <ele>1861.9</ele>
        <time>2024-07-09T08:08:29Z</time>
      </trkpt>
      <trkpt lat="45.08024" lon="6.13415">
        <ele>1862</ele>
        <time>2024-07-09T08:08:30Z</time>
      </trkpt>
      <trkpt lat="45.08025" lon="6.13418">
        <ele>1862.2</ele>
        <time>2024-07-09T08:08:32Z</time>
      </trkpt>
      <trkpt lat="45.08025" lon="6.13419">
        <ele>1862.2</ele>
        <time>2024-07-09T08:08:34Z</time>
      </trkpt>
      <trkpt lat="45.08025" lon="6.13423">
        <ele>1862.4</ele>
        <time>2024-07-09T08:08:35Z</time>
      </trkpt>
      <trkpt lat="45.08025" lon="6.13425">
        <ele>1862.6</ele>
        <time>2024-07-09T08:08:37Z</time>
      </trkpt>
      <trkpt lat="45.08026" lon="6.13427">
        <ele>1862.6</ele>
        <time>2024-07-09T08:08:39Z</time>
      </trkpt>
      <trkpt lat="45.08026" lon="6.13428">
        <ele>1862.7</ele>
        <time>2024-07-09T08:08:40Z</time>
      </trkpt>
      <trkpt lat="45.08026" lon="6.1343">
        <ele>1862.8</ele>
        <time>2024-07-09T08:08:41Z</time>
      </trkpt>
      <trkpt lat="45.08026" lon="6.13431">
        <ele>1862.9</ele>
        <time>2024-07-09T08:08:42Z</time>
      </trkpt>
      <trkpt lat="45.08027" lon="6.13432">
        <ele>1862.9</ele>
        <time>2024-07-09T08:08:43Z</time>
      </trkpt>
      <trkpt lat="45.08027" lon="6.13433">
        <ele>1863</ele>
        <time>2024-07-09T08:08:44Z</time>
      </trkpt>
      <trkpt lat="45.08027" lon="6.13434">
        <ele>1863.1</ele>
        <time>2024-07-09T08:08:45Z</time>
      </trkpt>
      <trkpt lat="45.08028" lon="6.13438">
        <ele>1863.3</ele>
        <time>2024-07-09T08:08:46Z</time>
      </trkpt>
      <trkpt lat="45.08028" lon="6.13438">
        <ele>1863.3</ele>
        <time>2024-07-09T08:08:47Z</time>
      </trkpt>
      <trkpt lat="45.08029" lon="6.13438">
        <ele>1863.4</ele>
        <time>2024-07-09T08:08:49Z</time>
      </trkpt>
      <trkpt lat="45.08028" lon="6.13436">
        <ele>1863.5</ele>
        <time>2024-07-09T08:08:50Z</time>
      </trkpt>
      <trkpt lat="45.08028" lon="6.13434">
        <ele>1863.5</ele>
        <time>2024-07-09T08:08:51Z</time>
      </trkpt>
      <trkpt lat="45.08029" lon="6.13434">
        <ele>1863.6</ele>
        <time>2024-07-09T08:08:52Z</time>
      </trkpt>
      <trkpt lat="45.0803" lon="6.13437">
        <ele>1863.8</ele>
        <time>2024-07-09T08:08:53Z</time>
      </trkpt>
      <trkpt lat="45.0803" lon="6.13438">
        <ele>1863.8</ele>
        <time>2024-07-09T08:08:54Z</time>
      </trkpt>
      <trkpt lat="45.0803" lon="6.1344">
        <ele>1863.9</ele>
        <time>2024-07-09T08:08:55Z</time>
      </trkpt>
      <trkpt lat="45.0803" lon="6.13444">
        <ele>1864.1</ele>
        <time>2024-07-09T08:08:56Z</time>
      </trkpt>
      <trkpt lat="45.0803" lon="6.13445">
        <ele>1864.2</ele>
        <time>2024-07-09T08:08:57Z</time>
      </trkpt>
      <trkpt lat="45.08031" lon="6.13448">
        <ele>1864.4</ele>
        <time>2024-07-09T08:08:58Z</time>
      </trkpt>
      <trkpt lat="45.08032" lon="6.13449">
        <ele>1864.5</ele>
        <time>2024-07-09T08:08:59Z</time>
      </trkpt>
      <trkpt lat="45.08033" lon="6.13451">
        <ele>1864.6</ele>
        <time>2024-07-09T08:09:00Z</time>
      </trkpt>
      <trkpt lat="45.08035" lon="6.13453">
        <ele>1864.7</ele>
        <time>2024-07-09T08:09:02Z</time>
      </trkpt>
      <trkpt lat="45.08035" lon="6.13453">
        <ele>1864.8</ele>
        <time>2024-07-09T08:09:03Z</time>
      </trkpt>
      <trkpt lat="45.08037" lon="6.13455">
        <ele>1865</ele>
        <time>2024-07-09T08:09:04Z</time>
      </trkpt>
      <trkpt lat="45.08037" lon="6.13457">
        <ele>1865.1</ele>
        <time>2024-07-09T08:09:06Z</time>
      </trkpt>
      <trkpt lat="45.08038" lon="6.13458">
        <ele>1865.1</ele>
        <time>2024-07-09T08:09:07Z</time>
      </trkpt>
      <trkpt lat="45.08038" lon="6.13459">
        <ele>1865.2</ele>
        <time>2024-07-09T08:09:08Z</time>
      </trkpt>
      <trkpt lat="45.08039" lon="6.1346">
        <ele>1865.3</ele>
        <time>2024-07-09T08:09:09Z</time>
      </trkpt>
      <trkpt lat="45.0804" lon="6.13463">
        <ele>1865.5</ele>
        <time>2024-07-09T08:09:10Z</time>
      </trkpt>
      <trkpt lat="45.08042" lon="6.13464">
        <ele>1865.6</ele>
        <time>2024-07-09T08:09:12Z</time>
      </trkpt>
      <trkpt lat="45.08043" lon="6.13464">
        <ele>1865.7</ele>
        <time>2024-07-09T08:09:13Z</time>
      </trkpt>
      <trkpt lat="45.08043" lon="6.13463">
        <ele>1865.7</ele>
        <time>2024-07-09T08:09:15Z</time>
      </trkpt>
      <trkpt lat="45.08046" lon="6.13466">
        <ele>1866</ele>
        <time>2024-07-09T08:09:16Z</time>
      </trkpt>
      <trkpt lat="45.08046" lon="6.13468">
        <ele>1866.1</ele>
        <time>2024-07-09T08:09:18Z</time>
      </trkpt>
      <trkpt lat="45.08046" lon="6.13473">
        <ele>1866.4</ele>
        <time>2024-07-09T08:09:19Z</time>
      </trkpt>
      <trkpt lat="45.08046" lon="6.13476">
        <ele>1866.6</ele>
        <time>2024-07-09T08:09:21Z</time>
      </trkpt>
      <trkpt lat="45.08046" lon="6.13477">
        <ele>1866.6</ele>
        <time>2024-07-09T08:09:22Z</time>
      </trkpt>
      <trkpt lat="45.08046" lon="6.13479">
        <ele>1866.7</ele>
        <time>2024-07-09T08:09:23Z</time>
      </trkpt>
      <trkpt lat="45.08046" lon="6.1348">
        <ele>1866.8</ele>
        <time>2024-07-09T08:09:24Z</time>
      </trkpt>
      <trkpt lat="45.08046" lon="6.13481">
        <ele>1866.9</ele>
        <time>2024-07-09T08:09:25Z</time>
      </trkpt>
      <trkpt lat="45.08046" lon="6.13482">
        <ele>1866.9</ele>
        <time>2024-07-09T08:09:26Z</time>
      </trkpt>
      <trkpt lat="45.08047" lon="6.13485">
        <ele>1867.1</ele>
        <time>2024-07-09T08:09:27Z</time>
      </trkpt>
      <trkpt lat="45.08047" lon="6.13485">
        <ele>1867.1</ele>
        <time>2024-07-09T08:09:28Z</time>
      </trkpt>
      <trkpt lat="45.08048" lon="6.13487">
        <ele>1867.2</ele>
        <time>2024-07-09T08:09:29Z</time>
      </trkpt>
      <trkpt lat="45.08048" lon="6.13489">
        <ele>1867.3</ele>
        <time>2024-07-09T08:09:30Z</time>
      </trkpt>
      <trkpt lat="45.08049" lon="6.1349">
        <ele>1867.4</ele>
        <time>2024-07-09T08:09:31Z</time>
      </trkpt>
      <trkpt lat="45.0805" lon="6.13492">
        <ele>1867.6</ele>
        <time>2024-07-09T08:09:32Z</time>
      </trkpt>
      <trkpt lat="45.0805" lon="6.13493">
        <ele>1867.7</ele>
        <time>2024-07-09T08:09:34Z</time>
      </trkpt>
      <trkpt lat="45.0805" lon="6.13495">
        <ele>1867.8</ele>
        <time>2024-07-09T08:09:35Z</time>
      </trkpt>
      <trkpt lat="45.08051" lon="6.13496">
        <ele>1867.8</ele>
        <time>2024-07-09T08:09:36Z</time>
      </trkpt>
      <trkpt lat="45.08051" lon="6.13497">
        <ele>1867.9</ele>
        <time>2024-07-09T08:09:37Z</time>
      </trkpt>
      <trkpt lat="45.08052" lon="6.135">
        <ele>1868.1</ele>
        <time>2024-07-09T08:09:38Z</time>
      </trkpt>
      <trkpt lat="45.08053" lon="6.13503">
        <ele>1868.3</ele>
        <time>2024-07-09T08:09:40Z</time>
      </trkpt>
      <trkpt lat="45.08053" lon="6.13504">
        <ele>1868.4</ele>
        <time>2024-07-09T08:09:42Z</time>
      </trkpt>
      <trkpt lat="45.08055" lon="6.13506">
        <ele>1868.6</ele>
        <time>2024-07-09T08:09:43Z</time>
      </trkpt>
      <trkpt lat="45.08056" lon="6.13507">
        <ele>1868.7</ele>
        <time>2024-07-09T08:09:45Z</time>
      </trkpt>
      <trkpt lat="45.08056" lon="6.13508">
        <ele>1868.8</ele>
        <time>2024-07-09T08:09:46Z</time>
      </trkpt>
      <trkpt lat="45.08057" lon="6.1351">
        <ele>1868.9</ele>
        <time>2024-07-09T08:09:47Z</time>
      </trkpt>
      <trkpt lat="45.08057" lon="6.13511">
        <ele>1869</ele>
        <time>2024-07-09T08:09:48Z</time>
      </trkpt>
      <trkpt lat="45.08057" lon="6.13513">
        <ele>1869.1</ele>
        <time>2024-07-09T08:09:49Z</time>
      </trkpt>
      <trkpt lat="45.08057" lon="6.13515">
        <ele>1869.2</ele>
        <time>2024-07-09T08:09:50Z</time>
      </trkpt>
      <trkpt lat="45.08057" lon="6.13517">
        <ele>1869.3</ele>
        <time>2024-07-09T08:09:51Z</time>
      </trkpt>
      <trkpt lat="45.08057" lon="6.13521">
        <ele>1869.6</ele>
        <time>2024-07-09T08:09:52Z</time>
      </trkpt>
      <trkpt lat="45.08057" lon="6.13524">
        <ele>1869.8</ele>
        <time>2024-07-09T08:09:54Z</time>
      </trkpt>
      <trkpt lat="45.08057" lon="6.13525">
        <ele>1869.9</ele>
        <time>2024-07-09T08:09:56Z</time>
      </trkpt>
      <trkpt lat="45.08057" lon="6.13527">
        <ele>1870</ele>
        <time>2024-07-09T08:09:57Z</time>
      </trkpt>
      <trkpt lat="45.08057" lon="6.13529">
        <ele>1870.1</ele>
        <time>2024-07-09T08:09:58Z</time>
      </trkpt>
      <trkpt lat="45.08057" lon="6.13531">
        <ele>1870.2</ele>
        <time>2024-07-09T08:09:59Z</time>
      </trkpt>
      <trkpt lat="45.08058" lon="6.13532">
        <ele>1870.3</ele>
        <time>2024-07-09T08:10:01Z</time>
      </trkpt>
      <trkpt lat="45.08058" lon="6.13533">
        <ele>1870.3</ele>
        <time>2024-07-09T08:10:02Z</time>
      </trkpt>
      <trkpt lat="45.08059" lon="6.13535">
        <ele>1870.5</ele>
        <time>2024-07-09T08:10:03Z</time>
      </trkpt>
      <trkpt lat="45.08059" lon="6.13537">
        <ele>1870.6</ele>
        <time>2024-07-09T08:10:04Z</time>
      </trkpt>
      <trkpt lat="45.0806" lon="6.13538">
        <ele>1870.7</ele>
        <time>2024-07-09T08:10:06Z</time>
      </trkpt>
      <trkpt lat="45.0806" lon="6.1354">
        <ele>1870.8</ele>
        <time>2024-07-09T08:10:07Z</time>
      </trkpt>
      <trkpt lat="45.08061" lon="6.13541">
        <ele>1870.9</ele>
        <time>2024-07-09T08:10:08Z</time>
      </trkpt>
      <trkpt lat="45.08061" lon="6.13542">
        <ele>1871</ele>
        <time>2024-07-09T08:10:09Z</time>
      </trkpt>
      <trkpt lat="45.08061" lon="6.13543">
        <ele>1871.1</ele>
        <time>2024-07-09T08:10:10Z</time>
      </trkpt>
      <trkpt lat="45.08062" lon="6.13545">
        <ele>1871.2</ele>
        <time>2024-07-09T08:10:11Z</time>
      </trkpt>
      <trkpt lat="45.08062" lon="6.13546">
        <ele>1871.3</ele>
        <time>2024-07-09T08:10:12Z</time>
      </trkpt>
      <trkpt lat="45.08063" lon="6.13548">
        <ele>1871.4</ele>
        <time>2024-07-09T08:10:13Z</time>
      </trkpt>
      <trkpt lat="45.08063" lon="6.13549">
        <ele>1871.5</ele>
        <time>2024-07-09T08:10:14Z</time>
      </trkpt>
      <trkpt lat="45.08063" lon="6.13551">
        <ele>1871.6</ele>
        <time>2024-07-09T08:10:15Z</time>
      </trkpt>
      <trkpt lat="45.08063" lon="6.13552">
        <ele>1871.7</ele>
        <time>2024-07-09T08:10:16Z</time>
      </trkpt>
      <trkpt lat="45.08063" lon="6.13553">
        <ele>1871.8</ele>
        <time>2024-07-09T08:10:17Z</time>
      </trkpt>
      <trkpt lat="45.08063" lon="6.13554">
        <ele>1871.8</ele>
        <time>2024-07-09T08:10:18Z</time>
      </trkpt>
      <trkpt lat="45.08064" lon="6.13555">
        <ele>1871.9</ele>
        <time>2024-07-09T08:10:19Z</time>
      </trkpt>
      <trkpt lat="45.08064" lon="6.13556">
        <ele>1872</ele>
        <time>2024-07-09T08:10:20Z</time>
      </trkpt>
      <trkpt lat="45.08064" lon="6.13557">
        <ele>1872.1</ele>
        <time>2024-07-09T08:10:21Z</time>
      </trkpt>
      <trkpt lat="45.08064" lon="6.13558">
        <ele>1872.1</ele>
        <time>2024-07-09T08:10:22Z</time>
      </trkpt>
      <trkpt lat="45.08064" lon="6.13559">
        <ele>1872.2</ele>
        <time>2024-07-09T08:10:23Z</time>
      </trkpt>
      <trkpt lat="45.08065" lon="6.13561">
        <ele>1872.3</ele>
        <time>2024-07-09T08:10:24Z</time>
      </trkpt>
      <trkpt lat="45.08065" lon="6.13562">
        <ele>1872.4</ele>
        <time>2024-07-09T08:10:25Z</time>
      </trkpt>
      <trkpt lat="45.08065" lon="6.13563">
        <ele>1872.5</ele>
        <time>2024-07-09T08:10:26Z</time>
      </trkpt>
      <trkpt lat="45.08066" lon="6.13565">
        <ele>1872.7</ele>
        <time>2024-07-09T08:10:27Z</time>
      </trkpt>
      <trkpt lat="45.08066" lon="6.13566">
        <ele>1872.7</ele>
        <time>2024-07-09T08:10:29Z</time>
      </trkpt>
      <trkpt lat="45.08067" lon="6.13568">
        <ele>1872.8</ele>
        <time>2024-07-09T08:10:30Z</time>
      </trkpt>
      <trkpt lat="45.08067" lon="6.13569">
        <ele>1873</ele>
        <time>2024-07-09T08:10:31Z</time>
      </trkpt>
      <trkpt lat="45.08067" lon="6.13571">
        <ele>1873.1</ele>
        <time>2024-07-09T08:10:32Z</time>
      </trkpt>
      <trkpt lat="45.08067" lon="6.13572">
        <ele>1873.2</ele>
        <time>2024-07-09T08:10:33Z</time>
      </trkpt>
      <trkpt lat="45.08067" lon="6.13574">
        <ele>1873.3</ele>
        <time>2024-07-09T08:10:34Z</time>
      </trkpt>
      <trkpt lat="45.08067" lon="6.13575">
        <ele>1873.4</ele>
        <time>2024-07-09T08:10:35Z</time>
      </trkpt>
      <trkpt lat="45.08066" lon="6.13577">
        <ele>1873.5</ele>
        <time>2024-07-09T08:10:36Z</time>
      </trkpt>
      <trkpt lat="45.08066" lon="6.1358">
        <ele>1873.7</ele>
        <time>2024-07-09T08:10:37Z</time>
      </trkpt>
      <trkpt lat="45.08067" lon="6.13582">
        <ele>1873.9</ele>
        <time>2024-07-09T08:10:39Z</time>
      </trkpt>
      <trkpt lat="45.08067" lon="6.13583">
        <ele>1874</ele>
        <time>2024-07-09T08:10:40Z</time>
      </trkpt>
      <trkpt lat="45.08068" lon="6.13582">
        <ele>1874.1</ele>
        <time>2024-07-09T08:10:41Z</time>
      </trkpt>
      <trkpt lat="45.08069" lon="6.13581">
        <ele>1874.2</ele>
        <time>2024-07-09T08:10:42Z</time>
      </trkpt>
      <trkpt lat="45.08069" lon="6.1358">
        <ele>1874.3</ele>
        <time>2024-07-09T08:10:43Z</time>
      </trkpt>
      <trkpt lat="45.08069" lon="6.13581">
        <ele>1874.4</ele>
        <time>2024-07-09T08:10:45Z</time>
      </trkpt>
      <trkpt lat="45.0807" lon="6.13581">
        <ele>1874.4</ele>
        <time>2024-07-09T08:10:46Z</time>
      </trkpt>
      <trkpt lat="45.0807" lon="6.13582">
        <ele>1874.5</ele>
        <time>2024-07-09T08:10:47Z</time>
      </trkpt>
      <trkpt lat="45.0807" lon="6.13585">
        <ele>1874.7</ele>
        <time>2024-07-09T08:10:49Z</time>
      </trkpt>
      <trkpt lat="45.08069" lon="6.13588">
        <ele>1874.9</ele>
        <time>2024-07-09T08:10:50Z</time>
      </trkpt>
      <trkpt lat="45.0807" lon="6.1359">
        <ele>1875.1</ele>
        <time>2024-07-09T08:10:51Z</time>
      </trkpt>
      <trkpt lat="45.0807" lon="6.13591">
        <ele>1875.1</ele>
        <time>2024-07-09T08:10:52Z</time>
      </trkpt>
      <trkpt lat="45.08071" lon="6.1359">
        <ele>1875.2</ele>
        <time>2024-07-09T08:10:53Z</time>
      </trkpt>
      <trkpt lat="45.08071" lon="6.1359">
        <ele>1875.3</ele>
        <time>2024-07-09T08:10:54Z</time>
      </trkpt>
      <trkpt lat="45.08071" lon="6.1359">
        <ele>1875.3</ele>
        <time>2024-07-09T08:10:55Z</time>
      </trkpt>
      <trkpt lat="45.08071" lon="6.1359">
        <ele>1875.3</ele>
        <time>2024-07-09T08:10:56Z</time>
      </trkpt>
      <trkpt lat="45.08071" lon="6.1359">
        <ele>1875.3</ele>
        <time>2024-07-09T08:10:57Z</time>
      </trkpt>
      <trkpt lat="45.08071" lon="6.13591">
        <ele>1875.4</ele>
        <time>2024-07-09T08:10:58Z</time>
      </trkpt>
      <trkpt lat="45.08071" lon="6.13592">
        <ele>1875.4</ele>
        <time>2024-07-09T08:10:59Z</time>
      </trkpt>
      <trkpt lat="45.08071" lon="6.13592">
        <ele>1875.4</ele>
        <time>2024-07-09T08:11:00Z</time>
      </trkpt>
      <trkpt lat="45.08071" lon="6.13593">
        <ele>1875.5</ele>
        <time>2024-07-09T08:11:01Z</time>
      </trkpt>
      <trkpt lat="45.0807" lon="6.13596">
        <ele>1875.8</ele>
        <time>2024-07-09T08:11:02Z</time>
      </trkpt>
      <trkpt lat="45.08069" lon="6.13599">
        <ele>1876</ele>
        <time>2024-07-09T08:11:04Z</time>
      </trkpt>
      <trkpt lat="45.08069" lon="6.13603">
        <ele>1876.3</ele>
        <time>2024-07-09T08:11:05Z</time>
      </trkpt>
      <trkpt lat="45.08069" lon="6.13605">
        <ele>1876.4</ele>
        <time>2024-07-09T08:11:06Z</time>
      </trkpt>
      <trkpt lat="45.08069" lon="6.13607">
        <ele>1876.6</ele>
        <time>2024-07-09T08:11:07Z</time>
      </trkpt>
      <trkpt lat="45.08069" lon="6.13609">
        <ele>1876.7</ele>
        <time>2024-07-09T08:11:08Z</time>
      </trkpt>
      <trkpt lat="45.08069" lon="6.13611">
        <ele>1876.9</ele>
        <time>2024-07-09T08:11:09Z</time>
      </trkpt>
      <trkpt lat="45.08068" lon="6.13613">
        <ele>1877.1</ele>
        <time>2024-07-09T08:11:10Z</time>
      </trkpt>
      <trkpt lat="45.08068" lon="6.13615">
        <ele>1877.2</ele>
        <time>2024-07-09T08:11:11Z</time>
      </trkpt>
      <trkpt lat="45.08068" lon="6.13617">
        <ele>1877.3</ele>
        <time>2024-07-09T08:11:12Z</time>
      </trkpt>
      <trkpt lat="45.08068" lon="6.13618">
        <ele>1877.4</ele>
        <time>2024-07-09T08:11:13Z</time>
      </trkpt>
      <trkpt lat="45.08067" lon="6.13619">
        <ele>1877.5</ele>
        <time>2024-07-09T08:11:14Z</time>
      </trkpt>
      <trkpt lat="45.08067" lon="6.13621">
        <ele>1877.6</ele>
        <time>2024-07-09T08:11:15Z</time>
      </trkpt>
      <trkpt lat="45.08067" lon="6.13621">
        <ele>1877.7</ele>
        <time>2024-07-09T08:11:16Z</time>
      </trkpt>
      <trkpt lat="45.08067" lon="6.13622">
        <ele>1877.8</ele>
        <time>2024-07-09T08:11:17Z</time>
      </trkpt>
      <trkpt lat="45.08067" lon="6.13625">
        <ele>1877.9</ele>
        <time>2024-07-09T08:11:18Z</time>
      </trkpt>
      <trkpt lat="45.08067" lon="6.13626">
        <ele>1878</ele>
        <time>2024-07-09T08:11:20Z</time>
      </trkpt>
      <trkpt lat="45.08067" lon="6.13627">
        <ele>1878.1</ele>
        <time>2024-07-09T08:11:21Z</time>
      </trkpt>
      <trkpt lat="45.08068" lon="6.13628">
        <ele>1878.2</ele>
        <time>2024-07-09T08:11:22Z</time>
      </trkpt>
      <trkpt lat="45.08068" lon="6.1363">
        <ele>1878.3</ele>
        <time>2024-07-09T08:11:23Z</time>
      </trkpt>
      <trkpt lat="45.08069" lon="6.13631">
        <ele>1878.4</ele>
        <time>2024-07-09T08:11:24Z</time>
      </trkpt>
      <trkpt lat="45.08069" lon="6.13632">
        <ele>1878.6</ele>
        <time>2024-07-09T08:11:25Z</time>
      </trkpt>
      <trkpt lat="45.08069" lon="6.13634">
        <ele>1878.6</ele>
        <time>2024-07-09T08:11:26Z</time>
      </trkpt>
      <trkpt lat="45.08069" lon="6.13635">
        <ele>1878.7</ele>
        <time>2024-07-09T08:11:27Z</time>
      </trkpt>
      <trkpt lat="45.08069" lon="6.13637">
        <ele>1878.9</ele>
        <time>2024-07-09T08:11:28Z</time>
      </trkpt>
      <trkpt lat="45.08069" lon="6.13638">
        <ele>1879</ele>
        <time>2024-07-09T08:11:29Z</time>
      </trkpt>
      <trkpt lat="45.0807" lon="6.13639">
        <ele>1879.1</ele>
        <time>2024-07-09T08:11:30Z</time>
      </trkpt>
      <trkpt lat="45.08069" lon="6.13641">
        <ele>1879.2</ele>
        <time>2024-07-09T08:11:31Z</time>
      </trkpt>
      <trkpt lat="45.0807" lon="6.13644">
        <ele>1879.4</ele>
        <time>2024-07-09T08:11:32Z</time>
      </trkpt>
      <trkpt lat="45.08069" lon="6.13646">
        <ele>1879.5</ele>
        <time>2024-07-09T08:11:34Z</time>
      </trkpt>
      <trkpt lat="45.08069" lon="6.13649">
        <ele>1879.8</ele>
        <time>2024-07-09T08:11:35Z</time>
      </trkpt>
      <trkpt lat="45.0807" lon="6.1365">
        <ele>1879.9</ele>
        <time>2024-07-09T08:11:37Z</time>
      </trkpt>
      <trkpt lat="45.0807" lon="6.13653">
        <ele>1880.1</ele>
        <time>2024-07-09T08:11:38Z</time>
      </trkpt>
      <trkpt lat="45.0807" lon="6.13656">
        <ele>1880.3</ele>
        <time>2024-07-09T08:11:40Z</time>
      </trkpt>
      <trkpt lat="45.0807" lon="6.13658">
        <ele>1880.4</ele>
        <time>2024-07-09T08:11:41Z</time>
      </trkpt>
      <trkpt lat="45.0807" lon="6.1366">
        <ele>1880.6</ele>
        <time>2024-07-09T08:11:43Z</time>
      </trkpt>
      <trkpt lat="45.0807" lon="6.13663">
        <ele>1880.8</ele>
        <time>2024-07-09T08:11:44Z</time>
      </trkpt>
      <trkpt lat="45.0807" lon="6.13665">
        <ele>1880.9</ele>
        <time>2024-07-09T08:11:46Z</time>
      </trkpt>
      <trkpt lat="45.0807" lon="6.13666">
        <ele>1881</ele>
        <time>2024-07-09T08:11:47Z</time>
      </trkpt>
      <trkpt lat="45.0807" lon="6.13668">
        <ele>1881.1</ele>
        <time>2024-07-09T08:11:48Z</time>
      </trkpt>
      <trkpt lat="45.0807" lon="6.13669">
        <ele>1881.2</ele>
        <time>2024-07-09T08:11:49Z</time>
      </trkpt>
      <trkpt lat="45.0807" lon="6.13673">
        <ele>1881.5</ele>
        <time>2024-07-09T08:11:50Z</time>
      </trkpt>
      <trkpt lat="45.08069" lon="6.13674">
        <ele>1881.6</ele>
        <time>2024-07-09T08:11:52Z</time>
      </trkpt>
      <trkpt lat="45.08069" lon="6.13676">
        <ele>1881.7</ele>
        <time>2024-07-09T08:11:53Z</time>
      </trkpt>
      <trkpt lat="45.08069" lon="6.13677">
        <ele>1881.8</ele>
        <time>2024-07-09T08:11:54Z</time>
      </trkpt>
      <trkpt lat="45.08069" lon="6.13679">
        <ele>1881.9</ele>
        <time>2024-07-09T08:11:55Z</time>
      </trkpt>
      <trkpt lat="45.08069" lon="6.13681">
        <ele>1882</ele>
        <time>2024-07-09T08:11:56Z</time>
      </trkpt>
      <trkpt lat="45.0807" lon="6.13682">
        <ele>1882.1</ele>
        <time>2024-07-09T08:11:57Z</time>
      </trkpt>
      <trkpt lat="45.0807" lon="6.13685">
        <ele>1882.3</ele>
        <time>2024-07-09T08:11:58Z</time>
      </trkpt>
      <trkpt lat="45.0807" lon="6.13686">
        <ele>1882.4</ele>
        <time>2024-07-09T08:11:59Z</time>
      </trkpt>
      <trkpt lat="45.08071" lon="6.13687">
        <ele>1882.5</ele>
        <time>2024-07-09T08:12:01Z</time>
      </trkpt>
      <trkpt lat="45.08071" lon="6.13688">
        <ele>1882.6</ele>
        <time>2024-07-09T08:12:02Z</time>
      </trkpt>
      <trkpt lat="45.08071" lon="6.1369">
        <ele>1882.7</ele>
        <time>2024-07-09T08:12:03Z</time>
      </trkpt>
      <trkpt lat="45.08071" lon="6.13692">
        <ele>1882.8</ele>
        <time>2024-07-09T08:12:04Z</time>
      </trkpt>
      <trkpt lat="45.08071" lon="6.13695">
        <ele>1883</ele>
        <time>2024-07-09T08:12:05Z</time>
      </trkpt>
      <trkpt lat="45.0807" lon="6.13698">
        <ele>1883.2</ele>
        <time>2024-07-09T08:12:07Z</time>
      </trkpt>
      <trkpt lat="45.0807" lon="6.13698">
        <ele>1883.3</ele>
        <time>2024-07-09T08:12:08Z</time>
      </trkpt>
      <trkpt lat="45.0807" lon="6.137">
        <ele>1883.4</ele>
        <time>2024-07-09T08:12:09Z</time>
      </trkpt>
      <trkpt lat="45.08069" lon="6.13702">
        <ele>1883.5</ele>
        <time>2024-07-09T08:12:10Z</time>
      </trkpt>
      <trkpt lat="45.08069" lon="6.13703">
        <ele>1883.7</ele>
        <time>2024-07-09T08:12:11Z</time>
      </trkpt>
      <trkpt lat="45.08069" lon="6.13707">
        <ele>1883.9</ele>
        <time>2024-07-09T08:12:12Z</time>
      </trkpt>
      <trkpt lat="45.08069" lon="6.13708">
        <ele>1884</ele>
        <time>2024-07-09T08:12:13Z</time>
      </trkpt>
      <trkpt lat="45.08069" lon="6.1371">
        <ele>1884.2</ele>
        <time>2024-07-09T08:12:14Z</time>
      </trkpt>
      <trkpt lat="45.08069" lon="6.13712">
        <ele>1884.3</ele>
        <time>2024-07-09T08:12:16Z</time>
      </trkpt>
      <trkpt lat="45.08069" lon="6.13715">
        <ele>1884.5</ele>
        <time>2024-07-09T08:12:17Z</time>
      </trkpt>
      <trkpt lat="45.08069" lon="6.13717">
        <ele>1884.6</ele>
        <time>2024-07-09T08:12:19Z</time>
      </trkpt>
      <trkpt lat="45.0807" lon="6.1372">
        <ele>1884.9</ele>
        <time>2024-07-09T08:12:20Z</time>
      </trkpt>
      <trkpt lat="45.08071" lon="6.13722">
        <ele>1885.1</ele>
        <time>2024-07-09T08:12:22Z</time>
      </trkpt>
      <trkpt lat="45.08071" lon="6.13724">
        <ele>1885.2</ele>
        <time>2024-07-09T08:12:23Z</time>
      </trkpt>
      <trkpt lat="45.08072" lon="6.13725">
        <ele>1885.3</ele>
        <time>2024-07-09T08:12:25Z</time>
      </trkpt>
      <trkpt lat="45.08072" lon="6.13726">
        <ele>1885.4</ele>
        <time>2024-07-09T08:12:26Z</time>
      </trkpt>
      <trkpt lat="45.08072" lon="6.13728">
        <ele>1885.5</ele>
        <time>2024-07-09T08:12:27Z</time>
      </trkpt>
      <trkpt lat="45.08073" lon="6.13729">
        <ele>1885.5</ele>
        <time>2024-07-09T08:12:28Z</time>
      </trkpt>
      <trkpt lat="45.08073" lon="6.1373">
        <ele>1885.7</ele>
        <time>2024-07-09T08:12:29Z</time>
      </trkpt>
      <trkpt lat="45.08074" lon="6.13731">
        <ele>1885.8</ele>
        <time>2024-07-09T08:12:30Z</time>
      </trkpt>
      <trkpt lat="45.08075" lon="6.13731">
        <ele>1885.9</ele>
        <time>2024-07-09T08:12:31Z</time>
      </trkpt>
      <trkpt lat="45.08075" lon="6.13733">
        <ele>1886</ele>
        <time>2024-07-09T08:12:32Z</time>
      </trkpt>
      <trkpt lat="45.08075" lon="6.13734">
        <ele>1886.1</ele>
        <time>2024-07-09T08:12:33Z</time>
      </trkpt>
      <trkpt lat="45.08075" lon="6.13736">
        <ele>1886.2</ele>
        <time>2024-07-09T08:12:34Z</time>
      </trkpt>
      <trkpt lat="45.08076" lon="6.13737">
        <ele>1886.3</ele>
        <time>2024-07-09T08:12:35Z</time>
      </trkpt>
      <trkpt lat="45.08077" lon="6.1374">
        <ele>1886.5</ele>
        <time>2024-07-09T08:12:36Z</time>
      </trkpt>
      <trkpt lat="45.08077" lon="6.13742">
        <ele>1886.7</ele>
        <time>2024-07-09T08:12:37Z</time>
      </trkpt>
      <trkpt lat="45.08077" lon="6.13744">
        <ele>1886.8</ele>
        <time>2024-07-09T08:12:38Z</time>
      </trkpt>
      <trkpt lat="45.08077" lon="6.13745">
        <ele>1886.9</ele>
        <time>2024-07-09T08:12:40Z</time>
      </trkpt>
      <trkpt lat="45.08078" lon="6.13746">
        <ele>1887</ele>
        <time>2024-07-09T08:12:41Z</time>
      </trkpt>
      <trkpt lat="45.08078" lon="6.13748">
        <ele>1887.1</ele>
        <time>2024-07-09T08:12:42Z</time>
      </trkpt>
      <trkpt lat="45.08078" lon="6.13749">
        <ele>1887.2</ele>
        <time>2024-07-09T08:12:43Z</time>
      </trkpt>
      <trkpt lat="45.08079" lon="6.13753">
        <ele>1887.5</ele>
        <time>2024-07-09T08:12:44Z</time>
      </trkpt>
      <trkpt lat="45.08078" lon="6.13754">
        <ele>1887.5</ele>
        <time>2024-07-09T08:12:46Z</time>
      </trkpt>
      <trkpt lat="45.08078" lon="6.13756">
        <ele>1887.7</ele>
        <time>2024-07-09T08:12:47Z</time>
      </trkpt>
      <trkpt lat="45.08078" lon="6.13757">
        <ele>1887.8</ele>
        <time>2024-07-09T08:12:48Z</time>
      </trkpt>
      <trkpt lat="45.08078" lon="6.13759">
        <ele>1887.9</ele>
        <time>2024-07-09T08:12:49Z</time>
      </trkpt>
      <trkpt lat="45.08078" lon="6.13762">
        <ele>1888.1</ele>
        <time>2024-07-09T08:12:50Z</time>
      </trkpt>
      <trkpt lat="45.08078" lon="6.13764">
        <ele>1888.2</ele>
        <time>2024-07-09T08:12:52Z</time>
      </trkpt>
      <trkpt lat="45.08078" lon="6.13765">
        <ele>1888.3</ele>
        <time>2024-07-09T08:12:53Z</time>
      </trkpt>
      <trkpt lat="45.08078" lon="6.13766">
        <ele>1888.4</ele>
        <time>2024-07-09T08:12:54Z</time>
      </trkpt>
      <trkpt lat="45.08079" lon="6.13768">
        <ele>1888.5</ele>
        <time>2024-07-09T08:12:55Z</time>
      </trkpt>
      <trkpt lat="45.08078" lon="6.13769">
        <ele>1888.6</ele>
        <time>2024-07-09T08:12:56Z</time>
      </trkpt>
      <trkpt lat="45.08078" lon="6.13771">
        <ele>1888.7</ele>
        <time>2024-07-09T08:12:57Z</time>
      </trkpt>
      <trkpt lat="45.08078" lon="6.13772">
        <ele>1888.8</ele>
        <time>2024-07-09T08:12:58Z</time>
      </trkpt>
      <trkpt lat="45.08079" lon="6.13773">
        <ele>1888.9</ele>
        <time>2024-07-09T08:12:59Z</time>
      </trkpt>
      <trkpt lat="45.08079" lon="6.13775">
        <ele>1889</ele>
        <time>2024-07-09T08:13:00Z</time>
      </trkpt>
      <trkpt lat="45.0808" lon="6.13775">
        <ele>1889.1</ele>
        <time>2024-07-09T08:13:01Z</time>
      </trkpt>
      <trkpt lat="45.0808" lon="6.13776">
        <ele>1889.2</ele>
        <time>2024-07-09T08:13:02Z</time>
      </trkpt>
      <trkpt lat="45.08081" lon="6.13778">
        <ele>1889.3</ele>
        <time>2024-07-09T08:13:03Z</time>
      </trkpt>
      <trkpt lat="45.08081" lon="6.13779">
        <ele>1889.4</ele>
        <time>2024-07-09T08:13:04Z</time>
      </trkpt>
      <trkpt lat="45.08081" lon="6.1378">
        <ele>1889.4</ele>
        <time>2024-07-09T08:13:05Z</time>
      </trkpt>
      <trkpt lat="45.08081" lon="6.13782">
        <ele>1889.6</ele>
        <time>2024-07-09T08:13:06Z</time>
      </trkpt>
      <trkpt lat="45.08081" lon="6.13784">
        <ele>1889.7</ele>
        <time>2024-07-09T08:13:08Z</time>
      </trkpt>
      <trkpt lat="45.08082" lon="6.13787">
        <ele>1889.9</ele>
        <time>2024-07-09T08:13:09Z</time>
      </trkpt>
      <trkpt lat="45.08082" lon="6.13789">
        <ele>1890.1</ele>
        <time>2024-07-09T08:13:11Z</time>
      </trkpt>
      <trkpt lat="45.08082" lon="6.1379">
        <ele>1890.2</ele>
        <time>2024-07-09T08:13:12Z</time>
      </trkpt>
      <trkpt lat="45.08083" lon="6.13791">
        <ele>1890.2</ele>
        <time>2024-07-09T08:13:14Z</time>
      </trkpt>
      <trkpt lat="45.08083" lon="6.13792">
        <ele>1890.3</ele>
        <time>2024-07-09T08:13:15Z</time>
      </trkpt>
      <trkpt lat="45.08084" lon="6.13793">
        <ele>1890.4</ele>
        <time>2024-07-09T08:13:16Z</time>
      </trkpt>
      <trkpt lat="45.08085" lon="6.13795">
        <ele>1890.6</ele>
        <time>2024-07-09T08:13:17Z</time>
      </trkpt>
      <trkpt lat="45.08085" lon="6.13796">
        <ele>1890.7</ele>
        <time>2024-07-09T08:13:18Z</time>
      </trkpt>
      <trkpt lat="45.08086" lon="6.13797">
        <ele>1890.8</ele>
        <time>2024-07-09T08:13:19Z</time>
      </trkpt>
      <trkpt lat="45.08086" lon="6.13799">
        <ele>1890.9</ele>
        <time>2024-07-09T08:13:20Z</time>
      </trkpt>
      <trkpt lat="45.08086" lon="6.138">
        <ele>1891</ele>
        <time>2024-07-09T08:13:21Z</time>
      </trkpt>
      <trkpt lat="45.08086" lon="6.13802">
        <ele>1891.1</ele>
        <time>2024-07-09T08:13:22Z</time>
      </trkpt>
      <trkpt lat="45.08087" lon="6.13805">
        <ele>1891.3</ele>
        <time>2024-07-09T08:13:23Z</time>
      </trkpt>
      <trkpt lat="45.08087" lon="6.13806">
        <ele>1891.4</ele>
        <time>2024-07-09T08:13:24Z</time>
      </trkpt>
      <trkpt lat="45.08087" lon="6.13807">
        <ele>1891.4</ele>
        <time>2024-07-09T08:13:25Z</time>
      </trkpt>
      <trkpt lat="45.08087" lon="6.1381">
        <ele>1891.7</ele>
        <time>2024-07-09T08:13:26Z</time>
      </trkpt>
      <trkpt lat="45.08088" lon="6.13812">
        <ele>1891.8</ele>
        <time>2024-07-09T08:13:28Z</time>
      </trkpt>
      <trkpt lat="45.08088" lon="6.13813">
        <ele>1891.9</ele>
        <time>2024-07-09T08:13:29Z</time>
      </trkpt>
      <trkpt lat="45.08089" lon="6.13814">
        <ele>1892</ele>
        <time>2024-07-09T08:13:30Z</time>
      </trkpt>
      <trkpt lat="45.08089" lon="6.13815">
        <ele>1892.1</ele>
        <time>2024-07-09T08:13:31Z</time>
      </trkpt>
      <trkpt lat="45.08089" lon="6.13818">
        <ele>1892.3</ele>
        <time>2024-07-09T08:13:32Z</time>
      </trkpt>
      <trkpt lat="45.08089" lon="6.13819">
        <ele>1892.4</ele>
        <time>2024-07-09T08:13:34Z</time>
      </trkpt>
      <trkpt lat="45.08089" lon="6.13821">
        <ele>1892.5</ele>
        <time>2024-07-09T08:13:35Z</time>
      </trkpt>
      <trkpt lat="45.0809" lon="6.13822">
        <ele>1892.6</ele>
        <time>2024-07-09T08:13:36Z</time>
      </trkpt>
      <trkpt lat="45.0809" lon="6.13823">
        <ele>1892.7</ele>
        <time>2024-07-09T08:13:37Z</time>
      </trkpt>
      <trkpt lat="45.0809" lon="6.13826">
        <ele>1892.9</ele>
        <time>2024-07-09T08:13:38Z</time>
      </trkpt>
      <trkpt lat="45.0809" lon="6.13828">
        <ele>1893</ele>
        <time>2024-07-09T08:13:40Z</time>
      </trkpt>
      <trkpt lat="45.0809" lon="6.1383">
        <ele>1893.1</ele>
        <time>2024-07-09T08:13:41Z</time>
      </trkpt>
      <trkpt lat="45.08091" lon="6.13831">
        <ele>1893.2</ele>
        <time>2024-07-09T08:13:42Z</time>
      </trkpt>
      <trkpt lat="45.08091" lon="6.13832">
        <ele>1893.3</ele>
        <time>2024-07-09T08:13:43Z</time>
      </trkpt>
      <trkpt lat="45.08091" lon="6.13835">
        <ele>1893.5</ele>
        <time>2024-07-09T08:13:44Z</time>
      </trkpt>
      <trkpt lat="45.08091" lon="6.13837">
        <ele>1893.6</ele>
        <time>2024-07-09T08:13:46Z</time>
      </trkpt>
      <trkpt lat="45.08091" lon="6.13837">
        <ele>1893.7</ele>
        <time>2024-07-09T08:13:47Z</time>
      </trkpt>
      <trkpt lat="45.08091" lon="6.13838">
        <ele>1893.8</ele>
        <time>2024-07-09T08:13:48Z</time>
      </trkpt>
      <trkpt lat="45.08091" lon="6.13841">
        <ele>1894</ele>
        <time>2024-07-09T08:13:49Z</time>
      </trkpt>
      <trkpt lat="45.08092" lon="6.13842">
        <ele>1894.1</ele>
        <time>2024-07-09T08:13:50Z</time>
      </trkpt>
      <trkpt lat="45.08092" lon="6.13843">
        <ele>1894.2</ele>
        <time>2024-07-09T08:13:52Z</time>
      </trkpt>
      <trkpt lat="45.08093" lon="6.13846">
        <ele>1894.4</ele>
        <time>2024-07-09T08:13:53Z</time>
      </trkpt>
      <trkpt lat="45.08093" lon="6.13848">
        <ele>1894.5</ele>
        <time>2024-07-09T08:13:55Z</time>
      </trkpt>
      <trkpt lat="45.08093" lon="6.13849">
        <ele>1894.6</ele>
        <time>2024-07-09T08:13:56Z</time>
      </trkpt>
      <trkpt lat="45.08093" lon="6.13851">
        <ele>1894.7</ele>
        <time>2024-07-09T08:13:57Z</time>
      </trkpt>
      <trkpt lat="45.08093" lon="6.13852">
        <ele>1894.8</ele>
        <time>2024-07-09T08:13:58Z</time>
      </trkpt>
      <trkpt lat="45.08094" lon="6.13854">
        <ele>1895</ele>
        <time>2024-07-09T08:13:59Z</time>
      </trkpt>
      <trkpt lat="45.08094" lon="6.13856">
        <ele>1895.1</ele>
        <time>2024-07-09T08:14:00Z</time>
      </trkpt>
      <trkpt lat="45.08094" lon="6.13857">
        <ele>1895.2</ele>
        <time>2024-07-09T08:14:01Z</time>
      </trkpt>
      <trkpt lat="45.08094" lon="6.13859">
        <ele>1895.3</ele>
        <time>2024-07-09T08:14:02Z</time>
      </trkpt>
      <trkpt lat="45.08094" lon="6.13861">
        <ele>1895.4</ele>
        <time>2024-07-09T08:14:03Z</time>
      </trkpt>
      <trkpt lat="45.08095" lon="6.13862">
        <ele>1895.6</ele>
        <time>2024-07-09T08:14:04Z</time>
      </trkpt>
      <trkpt lat="45.08095" lon="6.13864">
        <ele>1895.7</ele>
        <time>2024-07-09T08:14:05Z</time>
      </trkpt>
      <trkpt lat="45.08095" lon="6.13866">
        <ele>1895.8</ele>
        <time>2024-07-09T08:14:06Z</time>
      </trkpt>
      <trkpt lat="45.08095" lon="6.13867">
        <ele>1896</ele>
        <time>2024-07-09T08:14:07Z</time>
      </trkpt>
      <trkpt lat="45.08095" lon="6.13868">
        <ele>1896</ele>
        <time>2024-07-09T08:14:08Z</time>
      </trkpt>
      <trkpt lat="45.08096" lon="6.1387">
        <ele>1896.2</ele>
        <time>2024-07-09T08:14:09Z</time>
      </trkpt>
      <trkpt lat="45.08096" lon="6.13871">
        <ele>1896.3</ele>
        <time>2024-07-09T08:14:10Z</time>
      </trkpt>
      <trkpt lat="45.08097" lon="6.13873">
        <ele>1896.4</ele>
        <time>2024-07-09T08:14:11Z</time>
      </trkpt>
      <trkpt lat="45.08097" lon="6.13875">
        <ele>1896.6</ele>
        <time>2024-07-09T08:14:13Z</time>
      </trkpt>
      <trkpt lat="45.08098" lon="6.13877">
        <ele>1896.7</ele>
        <time>2024-07-09T08:14:14Z</time>
      </trkpt>
      <trkpt lat="45.08098" lon="6.13878">
        <ele>1896.9</ele>
        <time>2024-07-09T08:14:16Z</time>
      </trkpt>
      <trkpt lat="45.08098" lon="6.1388">
        <ele>1897</ele>
        <time>2024-07-09T08:14:17Z</time>
      </trkpt>
      <trkpt lat="45.08098" lon="6.13881">
        <ele>1897.1</ele>
        <time>2024-07-09T08:14:18Z</time>
      </trkpt>
      <trkpt lat="45.08099" lon="6.13882">
        <ele>1897.2</ele>
        <time>2024-07-09T08:14:19Z</time>
      </trkpt>
      <trkpt lat="45.08099" lon="6.13884">
        <ele>1897.3</ele>
        <time>2024-07-09T08:14:20Z</time>
      </trkpt>
      <trkpt lat="45.081" lon="6.13885">
        <ele>1897.4</ele>
        <time>2024-07-09T08:14:21Z</time>
      </trkpt>
      <trkpt lat="45.081" lon="6.13887">
        <ele>1897.6</ele>
        <time>2024-07-09T08:14:22Z</time>
      </trkpt>
      <trkpt lat="45.081" lon="6.13888">
        <ele>1897.7</ele>
        <time>2024-07-09T08:14:23Z</time>
      </trkpt>
      <trkpt lat="45.081" lon="6.1389">
        <ele>1897.8</ele>
        <time>2024-07-09T08:14:24Z</time>
      </trkpt>
      <trkpt lat="45.08101" lon="6.13891">
        <ele>1897.9</ele>
        <time>2024-07-09T08:14:25Z</time>
      </trkpt>
      <trkpt lat="45.08101" lon="6.13892">
        <ele>1898</ele>
        <time>2024-07-09T08:14:26Z</time>
      </trkpt>
      <trkpt lat="45.08101" lon="6.13894">
        <ele>1898.1</ele>
        <time>2024-07-09T08:14:27Z</time>
      </trkpt>
      <trkpt lat="45.08102" lon="6.13896">
        <ele>1898.3</ele>
        <time>2024-07-09T08:14:28Z</time>
      </trkpt>
      <trkpt lat="45.08102" lon="6.13898">
        <ele>1898.4</ele>
        <time>2024-07-09T08:14:30Z</time>
      </trkpt>
      <trkpt lat="45.08103" lon="6.139">
        <ele>1898.6</ele>
        <time>2024-07-09T08:14:31Z</time>
      </trkpt>
      <trkpt lat="45.08104" lon="6.13901">
        <ele>1898.7</ele>
        <time>2024-07-09T08:14:33Z</time>
      </trkpt>
      <trkpt lat="45.08104" lon="6.13902">
        <ele>1898.8</ele>
        <time>2024-07-09T08:14:34Z</time>
      </trkpt>
      <trkpt lat="45.08105" lon="6.13903">
        <ele>1899</ele>
        <time>2024-07-09T08:14:35Z</time>
      </trkpt>
      <trkpt lat="45.08106" lon="6.13904">
        <ele>1899.1</ele>
        <time>2024-07-09T08:14:36Z</time>
      </trkpt>
      <trkpt lat="45.08106" lon="6.13905">
        <ele>1899.2</ele>
        <time>2024-07-09T08:14:37Z</time>
      </trkpt>
      <trkpt lat="45.08107" lon="6.13907">
        <ele>1899.4</ele>
        <time>2024-07-09T08:14:38Z</time>
      </trkpt>
      <trkpt lat="45.08107" lon="6.13908">
        <ele>1899.5</ele>
        <time>2024-07-09T08:14:39Z</time>
      </trkpt>
      <trkpt lat="45.08108" lon="6.13909">
        <ele>1899.6</ele>
        <time>2024-07-09T08:14:40Z</time>
      </trkpt>
      <trkpt lat="45.08108" lon="6.1391">
        <ele>1899.7</ele>
        <time>2024-07-09T08:14:41Z</time>
      </trkpt>
      <trkpt lat="45.08108" lon="6.13912">
        <ele>1899.8</ele>
        <time>2024-07-09T08:14:42Z</time>
      </trkpt>
      <trkpt lat="45.08109" lon="6.13914">
        <ele>1900</ele>
        <time>2024-07-09T08:14:43Z</time>
      </trkpt>
      <trkpt lat="45.08109" lon="6.13916">
        <ele>1900.1</ele>
        <time>2024-07-09T08:14:45Z</time>
      </trkpt>
      <trkpt lat="45.08109" lon="6.13916">
        <ele>1900.2</ele>
        <time>2024-07-09T08:14:46Z</time>
      </trkpt>
      <trkpt lat="45.08109" lon="6.13917">
        <ele>1900.3</ele>
        <time>2024-07-09T08:14:47Z</time>
      </trkpt>
      <trkpt lat="45.0811" lon="6.13919">
        <ele>1900.4</ele>
        <time>2024-07-09T08:14:48Z</time>
      </trkpt>
      <trkpt lat="45.08111" lon="6.13921">
        <ele>1900.6</ele>
        <time>2024-07-09T08:14:49Z</time>
      </trkpt>
      <trkpt lat="45.08111" lon="6.13922">
        <ele>1900.7</ele>
        <time>2024-07-09T08:14:51Z</time>
      </trkpt>
      <trkpt lat="45.08111" lon="6.13924">
        <ele>1900.8</ele>
        <time>2024-07-09T08:14:52Z</time>
      </trkpt>
      <trkpt lat="45.08112" lon="6.13926">
        <ele>1901</ele>
        <time>2024-07-09T08:14:53Z</time>
      </trkpt>
      <trkpt lat="45.08112" lon="6.13927">
        <ele>1901.1</ele>
        <time>2024-07-09T08:14:54Z</time>
      </trkpt>
      <trkpt lat="45.08113" lon="6.1393">
        <ele>1901.4</ele>
        <time>2024-07-09T08:14:55Z</time>
      </trkpt>
      <trkpt lat="45.08113" lon="6.13931">
        <ele>1901.4</ele>
        <time>2024-07-09T08:14:57Z</time>
      </trkpt>
      <trkpt lat="45.08114" lon="6.13934">
        <ele>1901.7</ele>
        <time>2024-07-09T08:14:58Z</time>
      </trkpt>
      <trkpt lat="45.08114" lon="6.13935">
        <ele>1901.8</ele>
        <time>2024-07-09T08:14:59Z</time>
      </trkpt>
      <trkpt lat="45.08115" lon="6.13937">
        <ele>1902</ele>
        <time>2024-07-09T08:15:01Z</time>
      </trkpt>
      <trkpt lat="45.08115" lon="6.13938">
        <ele>1902.1</ele>
        <time>2024-07-09T08:15:02Z</time>
      </trkpt>
      <trkpt lat="45.08116" lon="6.13939">
        <ele>1902.2</ele>
        <time>2024-07-09T08:15:03Z</time>
      </trkpt>
      <trkpt lat="45.08116" lon="6.13943">
        <ele>1902.5</ele>
        <time>2024-07-09T08:15:04Z</time>
      </trkpt>
      <trkpt lat="45.08117" lon="6.13944">
        <ele>1902.6</ele>
        <time>2024-07-09T08:15:05Z</time>
      </trkpt>
      <trkpt lat="45.08117" lon="6.13947">
        <ele>1902.8</ele>
        <time>2024-07-09T08:15:07Z</time>
      </trkpt>
      <trkpt lat="45.08118" lon="6.13949">
        <ele>1902.9</ele>
        <time>2024-07-09T08:15:08Z</time>
      </trkpt>
      <trkpt lat="45.08118" lon="6.1395">
        <ele>1903</ele>
        <time>2024-07-09T08:15:09Z</time>
      </trkpt>
      <trkpt lat="45.08119" lon="6.13953">
        <ele>1903.3</ele>
        <time>2024-07-09T08:15:10Z</time>
      </trkpt>
      <trkpt lat="45.08119" lon="6.13954">
        <ele>1903.3</ele>
        <time>2024-07-09T08:15:11Z</time>
      </trkpt>
      <trkpt lat="45.08119" lon="6.13955">
        <ele>1903.4</ele>
        <time>2024-07-09T08:15:12Z</time>
      </trkpt>
      <trkpt lat="45.0812" lon="6.13957">
        <ele>1903.6</ele>
        <time>2024-07-09T08:15:13Z</time>
      </trkpt>
      <trkpt lat="45.0812" lon="6.13959">
        <ele>1903.7</ele>
        <time>2024-07-09T08:15:14Z</time>
      </trkpt>
      <trkpt lat="45.0812" lon="6.1396">
        <ele>1903.8</ele>
        <time>2024-07-09T08:15:15Z</time>
      </trkpt>
      <trkpt lat="45.08121" lon="6.13964">
        <ele>1904.1</ele>
        <time>2024-07-09T08:15:16Z</time>
      </trkpt>
      <trkpt lat="45.08121" lon="6.13965">
        <ele>1904.2</ele>
        <time>2024-07-09T08:15:17Z</time>
      </trkpt>
      <trkpt lat="45.08122" lon="6.13968">
        <ele>1904.5</ele>
        <time>2024-07-09T08:15:19Z</time>
      </trkpt>
      <trkpt lat="45.08121" lon="6.1397">
        <ele>1904.6</ele>
        <time>2024-07-09T08:15:20Z</time>
      </trkpt>
      <trkpt lat="45.08121" lon="6.13972">
        <ele>1904.7</ele>
        <time>2024-07-09T08:15:22Z</time>
      </trkpt>
      <trkpt lat="45.08122" lon="6.13973">
        <ele>1904.8</ele>
        <time>2024-07-09T08:15:23Z</time>
      </trkpt>
      <trkpt lat="45.08123" lon="6.13976">
        <ele>1905.1</ele>
        <time>2024-07-09T08:15:24Z</time>
      </trkpt>
      <trkpt lat="45.08124" lon="6.13976">
        <ele>1905.2</ele>
        <time>2024-07-09T08:15:26Z</time>
      </trkpt>
      <trkpt lat="45.08125" lon="6.13977">
        <ele>1905.2</ele>
        <time>2024-07-09T08:15:27Z</time>
      </trkpt>
      <trkpt lat="45.08125" lon="6.13978">
        <ele>1905.4</ele>
        <time>2024-07-09T08:15:28Z</time>
      </trkpt>
      <trkpt lat="45.08126" lon="6.13979">
        <ele>1905.5</ele>
        <time>2024-07-09T08:15:29Z</time>
      </trkpt>
      <trkpt lat="45.08127" lon="6.13979">
        <ele>1905.5</ele>
        <time>2024-07-09T08:15:30Z</time>
      </trkpt>
      <trkpt lat="45.08128" lon="6.1398">
        <ele>1905.6</ele>
        <time>2024-07-09T08:15:31Z</time>
      </trkpt>
      <trkpt lat="45.08129" lon="6.1398">
        <ele>1905.7</ele>
        <time>2024-07-09T08:15:32Z</time>
      </trkpt>
      <trkpt lat="45.08129" lon="6.13981">
        <ele>1905.8</ele>
        <time>2024-07-09T08:15:33Z</time>
      </trkpt>
      <trkpt lat="45.0813" lon="6.13982">
        <ele>1906</ele>
        <time>2024-07-09T08:15:34Z</time>
      </trkpt>
      <trkpt lat="45.08131" lon="6.13984">
        <ele>1906</ele>
        <time>2024-07-09T08:15:35Z</time>
      </trkpt>
      <trkpt lat="45.08131" lon="6.13985">
        <ele>1906.2</ele>
        <time>2024-07-09T08:15:36Z</time>
      </trkpt>
      <trkpt lat="45.08131" lon="6.13986">
        <ele>1906.2</ele>
        <time>2024-07-09T08:15:37Z</time>
      </trkpt>
      <trkpt lat="45.08132" lon="6.13989">
        <ele>1906.4</ele>
        <time>2024-07-09T08:15:38Z</time>
      </trkpt>
      <trkpt lat="45.08133" lon="6.1399">
        <ele>1906.6</ele>
        <time>2024-07-09T08:15:40Z</time>
      </trkpt>
      <trkpt lat="45.08134" lon="6.13993">
        <ele>1906.8</ele>
        <time>2024-07-09T08:15:41Z</time>
      </trkpt>
      <trkpt lat="45.08135" lon="6.13995">
        <ele>1907</ele>
        <time>2024-07-09T08:15:43Z</time>
      </trkpt>
      <trkpt lat="45.08135" lon="6.13996">
        <ele>1907.1</ele>
        <time>2024-07-09T08:15:44Z</time>
      </trkpt>
      <trkpt lat="45.08136" lon="6.13997">
        <ele>1907.1</ele>
        <time>2024-07-09T08:15:45Z</time>
      </trkpt>
      <trkpt lat="45.08136" lon="6.13999">
        <ele>1907.2</ele>
        <time>2024-07-09T08:15:46Z</time>
      </trkpt>
      <trkpt lat="45.08136" lon="6.14">
        <ele>1907.4</ele>
        <time>2024-07-09T08:15:47Z</time>
      </trkpt>
      <trkpt lat="45.08137" lon="6.14002">
        <ele>1907.5</ele>
        <time>2024-07-09T08:15:48Z</time>
      </trkpt>
      <trkpt lat="45.08137" lon="6.14003">
        <ele>1907.6</ele>
        <time>2024-07-09T08:15:49Z</time>
      </trkpt>
      <trkpt lat="45.08138" lon="6.14004">
        <ele>1907.7</ele>
        <time>2024-07-09T08:15:50Z</time>
      </trkpt>
      <trkpt lat="45.08139" lon="6.14007">
        <ele>1907.9</ele>
        <time>2024-07-09T08:15:51Z</time>
      </trkpt>
      <trkpt lat="45.0814" lon="6.14009">
        <ele>1908</ele>
        <time>2024-07-09T08:15:52Z</time>
      </trkpt>
      <trkpt lat="45.0814" lon="6.1401">
        <ele>1908.1</ele>
        <time>2024-07-09T08:15:54Z</time>
      </trkpt>
      <trkpt lat="45.08141" lon="6.14013">
        <ele>1908.3</ele>
        <time>2024-07-09T08:15:55Z</time>
      </trkpt>
      <trkpt lat="45.08141" lon="6.14014">
        <ele>1908.4</ele>
        <time>2024-07-09T08:15:56Z</time>
      </trkpt>
      <trkpt lat="45.08141" lon="6.14017">
        <ele>1908.6</ele>
        <time>2024-07-09T08:15:58Z</time>
      </trkpt>
      <trkpt lat="45.08141" lon="6.14018">
        <ele>1908.7</ele>
        <time>2024-07-09T08:15:59Z</time>
      </trkpt>
      <trkpt lat="45.08142" lon="6.14019">
        <ele>1908.8</ele>
        <time>2024-07-09T08:16:00Z</time>
      </trkpt>
      <trkpt lat="45.08142" lon="6.14021">
        <ele>1908.9</ele>
        <time>2024-07-09T08:16:01Z</time>
      </trkpt>
      <trkpt lat="45.08142" lon="6.14022">
        <ele>1909</ele>
        <time>2024-07-09T08:16:02Z</time>
      </trkpt>
      <trkpt lat="45.08143" lon="6.14025">
        <ele>1909.2</ele>
        <time>2024-07-09T08:16:03Z</time>
      </trkpt>
      <trkpt lat="45.08143" lon="6.14026">
        <ele>1909.3</ele>
        <time>2024-07-09T08:16:04Z</time>
      </trkpt>
      <trkpt lat="45.08143" lon="6.14027">
        <ele>1909.4</ele>
        <time>2024-07-09T08:16:06Z</time>
      </trkpt>
      <trkpt lat="45.08143" lon="6.14029">
        <ele>1909.5</ele>
        <time>2024-07-09T08:16:07Z</time>
      </trkpt>
      <trkpt lat="45.08144" lon="6.1403">
        <ele>1909.6</ele>
        <time>2024-07-09T08:16:08Z</time>
      </trkpt>
      <trkpt lat="45.08144" lon="6.14032">
        <ele>1909.7</ele>
        <time>2024-07-09T08:16:09Z</time>
      </trkpt>
      <trkpt lat="45.08145" lon="6.14035">
        <ele>1909.9</ele>
        <time>2024-07-09T08:16:10Z</time>
      </trkpt>
      <trkpt lat="45.08146" lon="6.14036">
        <ele>1910</ele>
        <time>2024-07-09T08:16:12Z</time>
      </trkpt>
      <trkpt lat="45.08147" lon="6.14039">
        <ele>1910.3</ele>
        <time>2024-07-09T08:16:13Z</time>
      </trkpt>
      <trkpt lat="45.08148" lon="6.14041">
        <ele>1910.4</ele>
        <time>2024-07-09T08:16:14Z</time>
      </trkpt>
      <trkpt lat="45.08148" lon="6.14042">
        <ele>1910.5</ele>
        <time>2024-07-09T08:16:15Z</time>
      </trkpt>
      <trkpt lat="45.08149" lon="6.14043">
        <ele>1910.6</ele>
        <time>2024-07-09T08:16:17Z</time>
      </trkpt>
      <trkpt lat="45.0815" lon="6.14044">
        <ele>1910.7</ele>
        <time>2024-07-09T08:16:18Z</time>
      </trkpt>
      <trkpt lat="45.0815" lon="6.14046">
        <ele>1910.8</ele>
        <time>2024-07-09T08:16:19Z</time>
      </trkpt>
      <trkpt lat="45.08151" lon="6.14047">
        <ele>1910.9</ele>
        <time>2024-07-09T08:16:20Z</time>
      </trkpt>
      <trkpt lat="45.08152" lon="6.1405">
        <ele>1911.1</ele>
        <time>2024-07-09T08:16:21Z</time>
      </trkpt>
      <trkpt lat="45.08152" lon="6.14051">
        <ele>1911.3</ele>
        <time>2024-07-09T08:16:22Z</time>
      </trkpt>
      <trkpt lat="45.08153" lon="6.14052">
        <ele>1911.4</ele>
        <time>2024-07-09T08:16:24Z</time>
      </trkpt>
      <trkpt lat="45.08153" lon="6.14053">
        <ele>1911.5</ele>
        <time>2024-07-09T08:16:25Z</time>
      </trkpt>
      <trkpt lat="45.08154" lon="6.14054">
        <ele>1911.6</ele>
        <time>2024-07-09T08:16:26Z</time>
      </trkpt>
      <trkpt lat="45.08154" lon="6.14055">
        <ele>1911.6</ele>
        <time>2024-07-09T08:16:27Z</time>
      </trkpt>
      <trkpt lat="45.08155" lon="6.14056">
        <ele>1911.8</ele>
        <time>2024-07-09T08:16:28Z</time>
      </trkpt>
      <trkpt lat="45.08154" lon="6.14056">
        <ele>1911.8</ele>
        <time>2024-07-09T08:16:29Z</time>
      </trkpt>
      <trkpt lat="45.08154" lon="6.14056">
        <ele>1911.9</ele>
        <time>2024-07-09T08:16:30Z</time>
      </trkpt>
      <trkpt lat="45.08154" lon="6.14055">
        <ele>1911.9</ele>
        <time>2024-07-09T08:16:31Z</time>
      </trkpt>
      <trkpt lat="45.08154" lon="6.14054">
        <ele>1912</ele>
        <time>2024-07-09T08:16:32Z</time>
      </trkpt>
      <trkpt lat="45.08153" lon="6.14055">
        <ele>1912</ele>
        <time>2024-07-09T08:16:33Z</time>
      </trkpt>
      <trkpt lat="45.08154" lon="6.14054">
        <ele>1912.1</ele>
        <time>2024-07-09T08:16:34Z</time>
      </trkpt>
      <trkpt lat="45.08155" lon="6.14055">
        <ele>1912.2</ele>
        <time>2024-07-09T08:16:36Z</time>
      </trkpt>
      <trkpt lat="45.08156" lon="6.14056">
        <ele>1912.3</ele>
        <time>2024-07-09T08:16:37Z</time>
      </trkpt>
      <trkpt lat="45.08156" lon="6.14056">
        <ele>1912.4</ele>
        <time>2024-07-09T08:16:38Z</time>
      </trkpt>
      <trkpt lat="45.08157" lon="6.14057">
        <ele>1912.5</ele>
        <time>2024-07-09T08:16:39Z</time>
      </trkpt>
      <trkpt lat="45.08158" lon="6.14058">
        <ele>1912.6</ele>
        <time>2024-07-09T08:16:40Z</time>
      </trkpt>
      <trkpt lat="45.08159" lon="6.14059">
        <ele>1912.8</ele>
        <time>2024-07-09T08:16:41Z</time>
      </trkpt>
      <trkpt lat="45.08159" lon="6.1406">
        <ele>1912.9</ele>
        <time>2024-07-09T08:16:42Z</time>
      </trkpt>
      <trkpt lat="45.08161" lon="6.14063">
        <ele>1913.1</ele>
        <time>2024-07-09T08:16:43Z</time>
      </trkpt>
      <trkpt lat="45.08162" lon="6.14063">
        <ele>1913.2</ele>
        <time>2024-07-09T08:16:45Z</time>
      </trkpt>
      <trkpt lat="45.08162" lon="6.14064">
        <ele>1913.3</ele>
        <time>2024-07-09T08:16:46Z</time>
      </trkpt>
      <trkpt lat="45.08163" lon="6.14067">
        <ele>1913.5</ele>
        <time>2024-07-09T08:16:47Z</time>
      </trkpt>
      <trkpt lat="45.08163" lon="6.14069">
        <ele>1913.7</ele>
        <time>2024-07-09T08:16:49Z</time>
      </trkpt>
      <trkpt lat="45.08164" lon="6.1407">
        <ele>1913.8</ele>
        <time>2024-07-09T08:16:50Z</time>
      </trkpt>
      <trkpt lat="45.08165" lon="6.14071">
        <ele>1913.9</ele>
        <time>2024-07-09T08:16:51Z</time>
      </trkpt>
      <trkpt lat="45.08165" lon="6.14072">
        <ele>1914</ele>
        <time>2024-07-09T08:16:52Z</time>
      </trkpt>
      <trkpt lat="45.08165" lon="6.14074">
        <ele>1914.2</ele>
        <time>2024-07-09T08:16:53Z</time>
      </trkpt>
      <trkpt lat="45.08166" lon="6.14077">
        <ele>1914.4</ele>
        <time>2024-07-09T08:16:54Z</time>
      </trkpt>
      <trkpt lat="45.08167" lon="6.14081">
        <ele>1914.7</ele>
        <time>2024-07-09T08:16:56Z</time>
      </trkpt>
      <trkpt lat="45.08167" lon="6.14082">
        <ele>1914.8</ele>
        <time>2024-07-09T08:16:57Z</time>
      </trkpt>
      <trkpt lat="45.08167" lon="6.14084">
        <ele>1915</ele>
        <time>2024-07-09T08:16:58Z</time>
      </trkpt>
      <trkpt lat="45.08168" lon="6.14087">
        <ele>1915.2</ele>
        <time>2024-07-09T08:17:00Z</time>
      </trkpt>
      <trkpt lat="45.08168" lon="6.14089">
        <ele>1915.4</ele>
        <time>2024-07-09T08:17:01Z</time>
      </trkpt>
      <trkpt lat="45.08169" lon="6.1409">
        <ele>1915.5</ele>
        <time>2024-07-09T08:17:03Z</time>
      </trkpt>
      <trkpt lat="45.08169" lon="6.14093">
        <ele>1915.7</ele>
        <time>2024-07-09T08:17:04Z</time>
      </trkpt>
      <trkpt lat="45.0817" lon="6.14095">
        <ele>1915.8</ele>
        <time>2024-07-09T08:17:06Z</time>
      </trkpt>
      <trkpt lat="45.0817" lon="6.14096">
        <ele>1915.9</ele>
        <time>2024-07-09T08:17:07Z</time>
      </trkpt>
      <trkpt lat="45.08171" lon="6.14099">
        <ele>1916.1</ele>
        <time>2024-07-09T08:17:08Z</time>
      </trkpt>
      <trkpt lat="45.08171" lon="6.141">
        <ele>1916.2</ele>
        <time>2024-07-09T08:17:10Z</time>
      </trkpt>
      <trkpt lat="45.08171" lon="6.14102">
        <ele>1916.3</ele>
        <time>2024-07-09T08:17:11Z</time>
      </trkpt>
      <trkpt lat="45.08171" lon="6.14103">
        <ele>1916.4</ele>
        <time>2024-07-09T08:17:12Z</time>
      </trkpt>
      <trkpt lat="45.08172" lon="6.14104">
        <ele>1916.5</ele>
        <time>2024-07-09T08:17:13Z</time>
      </trkpt>
      <trkpt lat="45.08172" lon="6.14106">
        <ele>1916.6</ele>
        <time>2024-07-09T08:17:14Z</time>
      </trkpt>
      <trkpt lat="45.08173" lon="6.14109">
        <ele>1916.8</ele>
        <time>2024-07-09T08:17:15Z</time>
      </trkpt>
      <trkpt lat="45.08173" lon="6.1411">
        <ele>1917</ele>
        <time>2024-07-09T08:17:16Z</time>
      </trkpt>
      <trkpt lat="45.08174" lon="6.14113">
        <ele>1917.1</ele>
        <time>2024-07-09T08:17:18Z</time>
      </trkpt>
      <trkpt lat="45.08174" lon="6.14114">
        <ele>1917.2</ele>
        <time>2024-07-09T08:17:19Z</time>
      </trkpt>
      <trkpt lat="45.08174" lon="6.14115">
        <ele>1917.3</ele>
        <time>2024-07-09T08:17:21Z</time>
      </trkpt>
      <trkpt lat="45.08175" lon="6.14118">
        <ele>1917.6</ele>
        <time>2024-07-09T08:17:22Z</time>
      </trkpt>
      <trkpt lat="45.08175" lon="6.1412">
        <ele>1917.7</ele>
        <time>2024-07-09T08:17:24Z</time>
      </trkpt>
      <trkpt lat="45.08175" lon="6.14123">
        <ele>1917.9</ele>
        <time>2024-07-09T08:17:25Z</time>
      </trkpt>
      <trkpt lat="45.08175" lon="6.14125">
        <ele>1918</ele>
        <time>2024-07-09T08:17:27Z</time>
      </trkpt>
      <trkpt lat="45.08176" lon="6.14126">
        <ele>1918.1</ele>
        <time>2024-07-09T08:17:28Z</time>
      </trkpt>
      <trkpt lat="45.08176" lon="6.14128">
        <ele>1918.2</ele>
        <time>2024-07-09T08:17:29Z</time>
      </trkpt>
      <trkpt lat="45.08176" lon="6.1413">
        <ele>1918.4</ele>
        <time>2024-07-09T08:17:30Z</time>
      </trkpt>
      <trkpt lat="45.08177" lon="6.14131">
        <ele>1918.5</ele>
        <time>2024-07-09T08:17:32Z</time>
      </trkpt>
      <trkpt lat="45.08177" lon="6.14133">
        <ele>1918.6</ele>
        <time>2024-07-09T08:17:33Z</time>
      </trkpt>
      <trkpt lat="45.08177" lon="6.14134">
        <ele>1918.7</ele>
        <time>2024-07-09T08:17:35Z</time>
      </trkpt>
      <trkpt lat="45.08177" lon="6.14135">
        <ele>1918.8</ele>
        <time>2024-07-09T08:17:36Z</time>
      </trkpt>
      <trkpt lat="45.08178" lon="6.14138">
        <ele>1919</ele>
        <time>2024-07-09T08:17:37Z</time>
      </trkpt>
      <trkpt lat="45.08178" lon="6.14139">
        <ele>1919.1</ele>
        <time>2024-07-09T08:17:39Z</time>
      </trkpt>
      <trkpt lat="45.08179" lon="6.1414">
        <ele>1919.2</ele>
        <time>2024-07-09T08:17:40Z</time>
      </trkpt>
      <trkpt lat="45.08179" lon="6.14142">
        <ele>1919.3</ele>
        <time>2024-07-09T08:17:41Z</time>
      </trkpt>
      <trkpt lat="45.0818" lon="6.14144">
        <ele>1919.5</ele>
        <time>2024-07-09T08:17:42Z</time>
      </trkpt>
      <trkpt lat="45.08181" lon="6.14146">
        <ele>1919.6</ele>
        <time>2024-07-09T08:17:44Z</time>
      </trkpt>
      <trkpt lat="45.08181" lon="6.14148">
        <ele>1919.7</ele>
        <time>2024-07-09T08:17:45Z</time>
      </trkpt>
      <trkpt lat="45.08181" lon="6.14149">
        <ele>1919.8</ele>
        <time>2024-07-09T08:17:46Z</time>
      </trkpt>
      <trkpt lat="45.08181" lon="6.14152">
        <ele>1920.1</ele>
        <time>2024-07-09T08:17:47Z</time>
      </trkpt>
      <trkpt lat="45.08181" lon="6.14154">
        <ele>1920.2</ele>
        <time>2024-07-09T08:17:48Z</time>
      </trkpt>
      <trkpt lat="45.08181" lon="6.14156">
        <ele>1920.3</ele>
        <time>2024-07-09T08:17:50Z</time>
      </trkpt>
      <trkpt lat="45.08182" lon="6.14157">
        <ele>1920.4</ele>
        <time>2024-07-09T08:17:51Z</time>
      </trkpt>
      <trkpt lat="45.08182" lon="6.14159">
        <ele>1920.6</ele>
        <time>2024-07-09T08:17:52Z</time>
      </trkpt>
      <trkpt lat="45.08182" lon="6.1416">
        <ele>1920.7</ele>
        <time>2024-07-09T08:17:53Z</time>
      </trkpt>
      <trkpt lat="45.08183" lon="6.14162">
        <ele>1920.8</ele>
        <time>2024-07-09T08:17:54Z</time>
      </trkpt>
      <trkpt lat="45.08183" lon="6.14165">
        <ele>1921</ele>
        <time>2024-07-09T08:17:55Z</time>
      </trkpt>
      <trkpt lat="45.08183" lon="6.14166">
        <ele>1921.1</ele>
        <time>2024-07-09T08:17:57Z</time>
      </trkpt>
      <trkpt lat="45.08184" lon="6.14168">
        <ele>1921.3</ele>
        <time>2024-07-09T08:17:58Z</time>
      </trkpt>
      <trkpt lat="45.08185" lon="6.14171">
        <ele>1921.5</ele>
        <time>2024-07-09T08:17:59Z</time>
      </trkpt>
      <trkpt lat="45.08185" lon="6.14172">
        <ele>1921.5</ele>
        <time>2024-07-09T08:18:01Z</time>
      </trkpt>
      <trkpt lat="45.08185" lon="6.14173">
        <ele>1921.6</ele>
        <time>2024-07-09T08:18:02Z</time>
      </trkpt>
      <trkpt lat="45.08186" lon="6.14175">
        <ele>1921.8</ele>
        <time>2024-07-09T08:18:03Z</time>
      </trkpt>
      <trkpt lat="45.08186" lon="6.14177">
        <ele>1921.9</ele>
        <time>2024-07-09T08:18:04Z</time>
      </trkpt>
      <trkpt lat="45.08186" lon="6.14178">
        <ele>1922</ele>
        <time>2024-07-09T08:18:05Z</time>
      </trkpt>
      <trkpt lat="45.08186" lon="6.14181">
        <ele>1922.2</ele>
        <time>2024-07-09T08:18:06Z</time>
      </trkpt>
      <trkpt lat="45.08187" lon="6.14183">
        <ele>1922.4</ele>
        <time>2024-07-09T08:18:07Z</time>
      </trkpt>
      <trkpt lat="45.08187" lon="6.14184">
        <ele>1922.5</ele>
        <time>2024-07-09T08:18:09Z</time>
      </trkpt>
      <trkpt lat="45.08187" lon="6.14187">
        <ele>1922.7</ele>
        <time>2024-07-09T08:18:10Z</time>
      </trkpt>
      <trkpt lat="45.08187" lon="6.14189">
        <ele>1922.9</ele>
        <time>2024-07-09T08:18:12Z</time>
      </trkpt>
      <trkpt lat="45.08188" lon="6.1419">
        <ele>1922.9</ele>
        <time>2024-07-09T08:18:13Z</time>
      </trkpt>
      <trkpt lat="45.08188" lon="6.14191">
        <ele>1923</ele>
        <time>2024-07-09T08:18:14Z</time>
      </trkpt>
      <trkpt lat="45.08188" lon="6.14192">
        <ele>1923.1</ele>
        <time>2024-07-09T08:18:15Z</time>
      </trkpt>
      <trkpt lat="45.08189" lon="6.14194">
        <ele>1923.2</ele>
        <time>2024-07-09T08:18:16Z</time>
      </trkpt>
      <trkpt lat="45.08189" lon="6.14195">
        <ele>1923.3</ele>
        <time>2024-07-09T08:18:17Z</time>
      </trkpt>
      <trkpt lat="45.0819" lon="6.14196">
        <ele>1923.4</ele>
        <time>2024-07-09T08:18:18Z</time>
      </trkpt>
      <trkpt lat="45.08191" lon="6.14198">
        <ele>1923.7</ele>
        <time>2024-07-09T08:18:19Z</time>
      </trkpt>
      <trkpt lat="45.08192" lon="6.14199">
        <ele>1923.8</ele>
        <time>2024-07-09T08:18:21Z</time>
      </trkpt>
      <trkpt lat="45.08192" lon="6.142">
        <ele>1923.9</ele>
        <time>2024-07-09T08:18:22Z</time>
      </trkpt>
      <trkpt lat="45.08193" lon="6.14201">
        <ele>1924</ele>
        <time>2024-07-09T08:18:23Z</time>
      </trkpt>
      <trkpt lat="45.08193" lon="6.14202">
        <ele>1924.1</ele>
        <time>2024-07-09T08:18:24Z</time>
      </trkpt>
      <trkpt lat="45.08194" lon="6.14203">
        <ele>1924.2</ele>
        <time>2024-07-09T08:18:25Z</time>
      </trkpt>
      <trkpt lat="45.08195" lon="6.14204">
        <ele>1924.3</ele>
        <time>2024-07-09T08:18:26Z</time>
      </trkpt>
      <trkpt lat="45.08196" lon="6.14206">
        <ele>1924.5</ele>
        <time>2024-07-09T08:18:27Z</time>
      </trkpt>
      <trkpt lat="45.08197" lon="6.14209">
        <ele>1924.8</ele>
        <time>2024-07-09T08:18:29Z</time>
      </trkpt>
      <trkpt lat="45.08197" lon="6.14211">
        <ele>1924.9</ele>
        <time>2024-07-09T08:18:30Z</time>
      </trkpt>
      <trkpt lat="45.08198" lon="6.14213">
        <ele>1925.1</ele>
        <time>2024-07-09T08:18:32Z</time>
      </trkpt>
      <trkpt lat="45.08198" lon="6.14213">
        <ele>1925.2</ele>
        <time>2024-07-09T08:18:33Z</time>
      </trkpt>
      <trkpt lat="45.08199" lon="6.14214">
        <ele>1925.3</ele>
        <time>2024-07-09T08:18:34Z</time>
      </trkpt>
      <trkpt lat="45.08201" lon="6.14217">
        <ele>1925.6</ele>
        <time>2024-07-09T08:18:35Z</time>
      </trkpt>
      <trkpt lat="45.08201" lon="6.14218">
        <ele>1925.7</ele>
        <time>2024-07-09T08:18:36Z</time>
      </trkpt>
      <trkpt lat="45.08202" lon="6.14219">
        <ele>1925.8</ele>
        <time>2024-07-09T08:18:37Z</time>
      </trkpt>
      <trkpt lat="45.08204" lon="6.14222">
        <ele>1926.2</ele>
        <time>2024-07-09T08:18:38Z</time>
      </trkpt>
      <trkpt lat="45.08205" lon="6.14223">
        <ele>1926.3</ele>
        <time>2024-07-09T08:18:39Z</time>
      </trkpt>
      <trkpt lat="45.08205" lon="6.14224">
        <ele>1926.4</ele>
        <time>2024-07-09T08:18:41Z</time>
      </trkpt>
      <trkpt lat="45.08206" lon="6.14225">
        <ele>1926.5</ele>
        <time>2024-07-09T08:18:42Z</time>
      </trkpt>
      <trkpt lat="45.08207" lon="6.14226">
        <ele>1926.6</ele>
        <time>2024-07-09T08:18:43Z</time>
      </trkpt>
      <trkpt lat="45.08208" lon="6.14227">
        <ele>1926.7</ele>
        <time>2024-07-09T08:18:44Z</time>
      </trkpt>
      <trkpt lat="45.08208" lon="6.14229">
        <ele>1926.9</ele>
        <time>2024-07-09T08:18:45Z</time>
      </trkpt>
      <trkpt lat="45.08208" lon="6.14231">
        <ele>1927.1</ele>
        <time>2024-07-09T08:18:46Z</time>
      </trkpt>
      <trkpt lat="45.08208" lon="6.14232">
        <ele>1927.2</ele>
        <time>2024-07-09T08:18:47Z</time>
      </trkpt>
      <trkpt lat="45.08208" lon="6.14233">
        <ele>1927.3</ele>
        <time>2024-07-09T08:18:48Z</time>
      </trkpt>
      <trkpt lat="45.08209" lon="6.14234">
        <ele>1927.4</ele>
        <time>2024-07-09T08:18:49Z</time>
      </trkpt>
      <trkpt lat="45.0821" lon="6.14235">
        <ele>1927.5</ele>
        <time>2024-07-09T08:18:50Z</time>
      </trkpt>
      <trkpt lat="45.08211" lon="6.14236">
        <ele>1927.6</ele>
        <time>2024-07-09T08:18:51Z</time>
      </trkpt>
      <trkpt lat="45.08211" lon="6.14237">
        <ele>1927.7</ele>
        <time>2024-07-09T08:18:52Z</time>
      </trkpt>
      <trkpt lat="45.08212" lon="6.14238">
        <ele>1927.9</ele>
        <time>2024-07-09T08:18:53Z</time>
      </trkpt>
      <trkpt lat="45.08213" lon="6.14239">
        <ele>1928</ele>
        <time>2024-07-09T08:18:54Z</time>
      </trkpt>
      <trkpt lat="45.08215" lon="6.14242">
        <ele>1928.3</ele>
        <time>2024-07-09T08:18:55Z</time>
      </trkpt>
      <trkpt lat="45.08215" lon="6.14244">
        <ele>1928.4</ele>
        <time>2024-07-09T08:18:57Z</time>
      </trkpt>
      <trkpt lat="45.08217" lon="6.14247">
        <ele>1928.8</ele>
        <time>2024-07-09T08:18:58Z</time>
      </trkpt>
      <trkpt lat="45.08218" lon="6.14248">
        <ele>1928.9</ele>
        <time>2024-07-09T08:19:00Z</time>
      </trkpt>
      <trkpt lat="45.08218" lon="6.14249">
        <ele>1929</ele>
        <time>2024-07-09T08:19:01Z</time>
      </trkpt>
      <trkpt lat="45.08219" lon="6.1425">
        <ele>1929.1</ele>
        <time>2024-07-09T08:19:02Z</time>
      </trkpt>
      <trkpt lat="45.0822" lon="6.14251">
        <ele>1929.2</ele>
        <time>2024-07-09T08:19:03Z</time>
      </trkpt>
      <trkpt lat="45.0822" lon="6.14253">
        <ele>1929.4</ele>
        <time>2024-07-09T08:19:04Z</time>
      </trkpt>
      <trkpt lat="45.08221" lon="6.14253">
        <ele>1929.4</ele>
        <time>2024-07-09T08:19:05Z</time>
      </trkpt>
      <trkpt lat="45.08221" lon="6.14254">
        <ele>1929.5</ele>
        <time>2024-07-09T08:19:06Z</time>
      </trkpt>
      <trkpt lat="45.08223" lon="6.14257">
        <ele>1929.9</ele>
        <time>2024-07-09T08:19:07Z</time>
      </trkpt>
      <trkpt lat="45.08224" lon="6.14258">
        <ele>1930</ele>
        <time>2024-07-09T08:19:09Z</time>
      </trkpt>
      <trkpt lat="45.08225" lon="6.14259">
        <ele>1930.1</ele>
        <time>2024-07-09T08:19:10Z</time>
      </trkpt>
      <trkpt lat="45.08225" lon="6.1426">
        <ele>1930.2</ele>
        <time>2024-07-09T08:19:11Z</time>
      </trkpt>
      <trkpt lat="45.08226" lon="6.14261">
        <ele>1930.3</ele>
        <time>2024-07-09T08:19:12Z</time>
      </trkpt>
      <trkpt lat="45.08227" lon="6.14263">
        <ele>1930.5</ele>
        <time>2024-07-09T08:19:13Z</time>
      </trkpt>
      <trkpt lat="45.08227" lon="6.14263">
        <ele>1930.5</ele>
        <time>2024-07-09T08:19:14Z</time>
      </trkpt>
      <trkpt lat="45.08228" lon="6.14265">
        <ele>1930.8</ele>
        <time>2024-07-09T08:19:15Z</time>
      </trkpt>
      <trkpt lat="45.08229" lon="6.14267">
        <ele>1930.9</ele>
        <time>2024-07-09T08:19:17Z</time>
      </trkpt>
      <trkpt lat="45.0823" lon="6.14268">
        <ele>1931</ele>
        <time>2024-07-09T08:19:18Z</time>
      </trkpt>
      <trkpt lat="45.08232" lon="6.14271">
        <ele>1931.4</ele>
        <time>2024-07-09T08:19:19Z</time>
      </trkpt>
      <trkpt lat="45.08232" lon="6.14272">
        <ele>1931.4</ele>
        <time>2024-07-09T08:19:20Z</time>
      </trkpt>
      <trkpt lat="45.08233" lon="6.14273">
        <ele>1931.6</ele>
        <time>2024-07-09T08:19:22Z</time>
      </trkpt>
      <trkpt lat="45.08233" lon="6.14274">
        <ele>1931.7</ele>
        <time>2024-07-09T08:19:23Z</time>
      </trkpt>
      <trkpt lat="45.08235" lon="6.14277">
        <ele>1932</ele>
        <time>2024-07-09T08:19:24Z</time>
      </trkpt>
      <trkpt lat="45.08235" lon="6.14278">
        <ele>1932.1</ele>
        <time>2024-07-09T08:19:26Z</time>
      </trkpt>
      <trkpt lat="45.08236" lon="6.1428">
        <ele>1932.2</ele>
        <time>2024-07-09T08:19:27Z</time>
      </trkpt>
      <trkpt lat="45.08237" lon="6.14281">
        <ele>1932.3</ele>
        <time>2024-07-09T08:19:28Z</time>
      </trkpt>
      <trkpt lat="45.08237" lon="6.14282">
        <ele>1932.5</ele>
        <time>2024-07-09T08:19:29Z</time>
      </trkpt>
      <trkpt lat="45.08237" lon="6.14284">
        <ele>1932.6</ele>
        <time>2024-07-09T08:19:30Z</time>
      </trkpt>
      <trkpt lat="45.08237" lon="6.14286">
        <ele>1932.7</ele>
        <time>2024-07-09T08:19:31Z</time>
      </trkpt>
      <trkpt lat="45.08238" lon="6.14286">
        <ele>1932.9</ele>
        <time>2024-07-09T08:19:32Z</time>
      </trkpt>
      <trkpt lat="45.08238" lon="6.14288">
        <ele>1933</ele>
        <time>2024-07-09T08:19:33Z</time>
      </trkpt>
      <trkpt lat="45.08239" lon="6.14289">
        <ele>1933.2</ele>
        <time>2024-07-09T08:19:34Z</time>
      </trkpt>
      <trkpt lat="45.0824" lon="6.14291">
        <ele>1933.3</ele>
        <time>2024-07-09T08:19:35Z</time>
      </trkpt>
      <trkpt lat="45.08241" lon="6.14293">
        <ele>1933.5</ele>
        <time>2024-07-09T08:19:36Z</time>
      </trkpt>
      <trkpt lat="45.08243" lon="6.14296">
        <ele>1933.8</ele>
        <time>2024-07-09T08:19:37Z</time>
      </trkpt>
      <trkpt lat="45.08244" lon="6.14298">
        <ele>1934.1</ele>
        <time>2024-07-09T08:19:39Z</time>
      </trkpt>
      <trkpt lat="45.08245" lon="6.14299">
        <ele>1934.2</ele>
        <time>2024-07-09T08:19:40Z</time>
      </trkpt>
      <trkpt lat="45.08246" lon="6.143">
        <ele>1934.3</ele>
        <time>2024-07-09T08:19:42Z</time>
      </trkpt>
      <trkpt lat="45.08246" lon="6.14301">
        <ele>1934.5</ele>
        <time>2024-07-09T08:19:43Z</time>
      </trkpt>
      <trkpt lat="45.08247" lon="6.14302">
        <ele>1934.5</ele>
        <time>2024-07-09T08:19:44Z</time>
      </trkpt>
      <trkpt lat="45.08248" lon="6.14304">
        <ele>1934.8</ele>
        <time>2024-07-09T08:19:45Z</time>
      </trkpt>
      <trkpt lat="45.08249" lon="6.14305">
        <ele>1934.9</ele>
        <time>2024-07-09T08:19:47Z</time>
      </trkpt>
      <trkpt lat="45.0825" lon="6.14307">
        <ele>1935.1</ele>
        <time>2024-07-09T08:19:48Z</time>
      </trkpt>
      <trkpt lat="45.08251" lon="6.14309">
        <ele>1935.2</ele>
        <time>2024-07-09T08:19:49Z</time>
      </trkpt>
      <trkpt lat="45.08252" lon="6.14311">
        <ele>1935.5</ele>
        <time>2024-07-09T08:19:51Z</time>
      </trkpt>
      <trkpt lat="45.08252" lon="6.14313">
        <ele>1935.6</ele>
        <time>2024-07-09T08:19:52Z</time>
      </trkpt>
      <trkpt lat="45.08253" lon="6.14314">
        <ele>1935.7</ele>
        <time>2024-07-09T08:19:53Z</time>
      </trkpt>
      <trkpt lat="45.08253" lon="6.14315">
        <ele>1935.8</ele>
        <time>2024-07-09T08:19:54Z</time>
      </trkpt>
      <trkpt lat="45.08254" lon="6.14316">
        <ele>1936</ele>
        <time>2024-07-09T08:19:55Z</time>
      </trkpt>
      <trkpt lat="45.08255" lon="6.14317">
        <ele>1936.1</ele>
        <time>2024-07-09T08:19:56Z</time>
      </trkpt>
      <trkpt lat="45.08257" lon="6.1432">
        <ele>1936.5</ele>
        <time>2024-07-09T08:19:57Z</time>
      </trkpt>
      <trkpt lat="45.08258" lon="6.14321">
        <ele>1936.5</ele>
        <time>2024-07-09T08:19:58Z</time>
      </trkpt>
      <trkpt lat="45.08258" lon="6.14322">
        <ele>1936.7</ele>
        <time>2024-07-09T08:20:00Z</time>
      </trkpt>
      <trkpt lat="45.08259" lon="6.14323">
        <ele>1936.8</ele>
        <time>2024-07-09T08:20:01Z</time>
      </trkpt>
      <trkpt lat="45.0826" lon="6.14324">
        <ele>1936.9</ele>
        <time>2024-07-09T08:20:02Z</time>
      </trkpt>
      <trkpt lat="45.08261" lon="6.14325">
        <ele>1937</ele>
        <time>2024-07-09T08:20:03Z</time>
      </trkpt>
      <trkpt lat="45.08262" lon="6.14326">
        <ele>1937.2</ele>
        <time>2024-07-09T08:20:04Z</time>
      </trkpt>
      <trkpt lat="45.08264" lon="6.14328">
        <ele>1937.5</ele>
        <time>2024-07-09T08:20:05Z</time>
      </trkpt>
      <trkpt lat="45.08265" lon="6.14329">
        <ele>1937.7</ele>
        <time>2024-07-09T08:20:07Z</time>
      </trkpt>
      <trkpt lat="45.08265" lon="6.1433">
        <ele>1937.7</ele>
        <time>2024-07-09T08:20:08Z</time>
      </trkpt>
      <trkpt lat="45.08267" lon="6.14332">
        <ele>1938</ele>
        <time>2024-07-09T08:20:09Z</time>
      </trkpt>
      <trkpt lat="45.08267" lon="6.14333">
        <ele>1938.1</ele>
        <time>2024-07-09T08:20:10Z</time>
      </trkpt>
      <trkpt lat="45.08268" lon="6.14334">
        <ele>1938.2</ele>
        <time>2024-07-09T08:20:11Z</time>
      </trkpt>
      <trkpt lat="45.08268" lon="6.14335">
        <ele>1938.3</ele>
        <time>2024-07-09T08:20:12Z</time>
      </trkpt>
      <trkpt lat="45.08269" lon="6.14338">
        <ele>1938.5</ele>
        <time>2024-07-09T08:20:13Z</time>
      </trkpt>
      <trkpt lat="45.0827" lon="6.1434">
        <ele>1938.8</ele>
        <time>2024-07-09T08:20:15Z</time>
      </trkpt>
      <trkpt lat="45.08271" lon="6.14342">
        <ele>1938.9</ele>
        <time>2024-07-09T08:20:16Z</time>
      </trkpt>
      <trkpt lat="45.08271" lon="6.14343">
        <ele>1939</ele>
        <time>2024-07-09T08:20:17Z</time>
      </trkpt>
      <trkpt lat="45.08273" lon="6.14345">
        <ele>1939.2</ele>
        <time>2024-07-09T08:20:18Z</time>
      </trkpt>
      <trkpt lat="45.08273" lon="6.14346">
        <ele>1939.3</ele>
        <time>2024-07-09T08:20:20Z</time>
      </trkpt>
      <trkpt lat="45.08274" lon="6.14347">
        <ele>1939.4</ele>
        <time>2024-07-09T08:20:21Z</time>
      </trkpt>
      <trkpt lat="45.08276" lon="6.14348">
        <ele>1939.6</ele>
        <time>2024-07-09T08:20:22Z</time>
      </trkpt>
      <trkpt lat="45.08276" lon="6.14349">
        <ele>1939.8</ele>
        <time>2024-07-09T08:20:24Z</time>
      </trkpt>
      <trkpt lat="45.08277" lon="6.14349">
        <ele>1939.9</ele>
        <time>2024-07-09T08:20:25Z</time>
      </trkpt>
      <trkpt lat="45.08278" lon="6.1435">
        <ele>1940</ele>
        <time>2024-07-09T08:20:26Z</time>
      </trkpt>
      <trkpt lat="45.08279" lon="6.14351">
        <ele>1940.1</ele>
        <time>2024-07-09T08:20:27Z</time>
      </trkpt>
      <trkpt lat="45.08279" lon="6.14352">
        <ele>1940.2</ele>
        <time>2024-07-09T08:20:28Z</time>
      </trkpt>
      <trkpt lat="45.0828" lon="6.14354">
        <ele>1940.4</ele>
        <time>2024-07-09T08:20:29Z</time>
      </trkpt>
      <trkpt lat="45.08282" lon="6.14356">
        <ele>1940.6</ele>
        <time>2024-07-09T08:20:30Z</time>
      </trkpt>
      <trkpt lat="45.08282" lon="6.14357">
        <ele>1940.7</ele>
        <time>2024-07-09T08:20:32Z</time>
      </trkpt>
      <trkpt lat="45.08282" lon="6.14359">
        <ele>1940.9</ele>
        <time>2024-07-09T08:20:33Z</time>
      </trkpt>
      <trkpt lat="45.08284" lon="6.14362">
        <ele>1941.2</ele>
        <time>2024-07-09T08:20:34Z</time>
      </trkpt>
      <trkpt lat="45.08285" lon="6.14363">
        <ele>1941.3</ele>
        <time>2024-07-09T08:20:36Z</time>
      </trkpt>
      <trkpt lat="45.08285" lon="6.14363">
        <ele>1941.4</ele>
        <time>2024-07-09T08:20:37Z</time>
      </trkpt>
      <trkpt lat="45.08286" lon="6.14364">
        <ele>1941.4</ele>
        <time>2024-07-09T08:20:38Z</time>
      </trkpt>
      <trkpt lat="45.08287" lon="6.14365">
        <ele>1941.6</ele>
        <time>2024-07-09T08:20:39Z</time>
      </trkpt>
      <trkpt lat="45.08288" lon="6.14365">
        <ele>1941.7</ele>
        <time>2024-07-09T08:20:40Z</time>
      </trkpt>
      <trkpt lat="45.08288" lon="6.14366">
        <ele>1941.8</ele>
        <time>2024-07-09T08:20:41Z</time>
      </trkpt>
      <trkpt lat="45.08289" lon="6.14368">
        <ele>1941.9</ele>
        <time>2024-07-09T08:20:42Z</time>
      </trkpt>
      <trkpt lat="45.08289" lon="6.14369">
        <ele>1942</ele>
        <time>2024-07-09T08:20:43Z</time>
      </trkpt>
      <trkpt lat="45.0829" lon="6.1437">
        <ele>1942.2</ele>
        <time>2024-07-09T08:20:44Z</time>
      </trkpt>
      <trkpt lat="45.08291" lon="6.1437">
        <ele>1942.2</ele>
        <time>2024-07-09T08:20:45Z</time>
      </trkpt>
      <trkpt lat="45.08291" lon="6.14371">
        <ele>1942.4</ele>
        <time>2024-07-09T08:20:46Z</time>
      </trkpt>
      <trkpt lat="45.08292" lon="6.14372">
        <ele>1942.5</ele>
        <time>2024-07-09T08:20:47Z</time>
      </trkpt>
      <trkpt lat="45.08293" lon="6.14373">
        <ele>1942.6</ele>
        <time>2024-07-09T08:20:48Z</time>
      </trkpt>
      <trkpt lat="45.08294" lon="6.14374">
        <ele>1942.7</ele>
        <time>2024-07-09T08:20:49Z</time>
      </trkpt>
      <trkpt lat="45.08296" lon="6.14376">
        <ele>1943</ele>
        <time>2024-07-09T08:20:50Z</time>
      </trkpt>
      <trkpt lat="45.08296" lon="6.14378">
        <ele>1943.1</ele>
        <time>2024-07-09T08:20:52Z</time>
      </trkpt>
      <trkpt lat="45.08296" lon="6.14379">
        <ele>1943.2</ele>
        <time>2024-07-09T08:20:53Z</time>
      </trkpt>
      <trkpt lat="45.08297" lon="6.1438">
        <ele>1943.4</ele>
        <time>2024-07-09T08:20:54Z</time>
      </trkpt>
      <trkpt lat="45.08298" lon="6.14382">
        <ele>1943.5</ele>
        <time>2024-07-09T08:20:55Z</time>
      </trkpt>
      <trkpt lat="45.08298" lon="6.14383">
        <ele>1943.6</ele>
        <time>2024-07-09T08:20:56Z</time>
      </trkpt>
      <trkpt lat="45.08299" lon="6.14384">
        <ele>1943.7</ele>
        <time>2024-07-09T08:20:57Z</time>
      </trkpt>
      <trkpt lat="45.083" lon="6.14385">
        <ele>1943.9</ele>
        <time>2024-07-09T08:20:58Z</time>
      </trkpt>
      <trkpt lat="45.08301" lon="6.14386">
        <ele>1944</ele>
        <time>2024-07-09T08:21:00Z</time>
      </trkpt>
      <trkpt lat="45.08302" lon="6.14389">
        <ele>1944.3</ele>
        <time>2024-07-09T08:21:01Z</time>
      </trkpt>
      <trkpt lat="45.08303" lon="6.1439">
        <ele>1944.4</ele>
        <time>2024-07-09T08:21:03Z</time>
      </trkpt>
      <trkpt lat="45.08304" lon="6.14391">
        <ele>1944.5</ele>
        <time>2024-07-09T08:21:04Z</time>
      </trkpt>
      <trkpt lat="45.08305" lon="6.14392">
        <ele>1944.7</ele>
        <time>2024-07-09T08:21:05Z</time>
      </trkpt>
      <trkpt lat="45.08307" lon="6.14393">
        <ele>1944.9</ele>
        <time>2024-07-09T08:21:06Z</time>
      </trkpt>
      <trkpt lat="45.08308" lon="6.14394">
        <ele>1945</ele>
        <time>2024-07-09T08:21:08Z</time>
      </trkpt>
      <trkpt lat="45.08308" lon="6.14395">
        <ele>1945.1</ele>
        <time>2024-07-09T08:21:09Z</time>
      </trkpt>
      <trkpt lat="45.08309" lon="6.14395">
        <ele>1945.2</ele>
        <time>2024-07-09T08:21:10Z</time>
      </trkpt>
      <trkpt lat="45.0831" lon="6.14396">
        <ele>1945.3</ele>
        <time>2024-07-09T08:21:11Z</time>
      </trkpt>
      <trkpt lat="45.0831" lon="6.14397">
        <ele>1945.4</ele>
        <time>2024-07-09T08:21:12Z</time>
      </trkpt>
      <trkpt lat="45.08311" lon="6.14398">
        <ele>1945.5</ele>
        <time>2024-07-09T08:21:13Z</time>
      </trkpt>
      <trkpt lat="45.08312" lon="6.14399">
        <ele>1945.6</ele>
        <time>2024-07-09T08:21:14Z</time>
      </trkpt>
      <trkpt lat="45.08313" lon="6.144">
        <ele>1945.8</ele>
        <time>2024-07-09T08:21:15Z</time>
      </trkpt>
      <trkpt lat="45.08314" lon="6.14402">
        <ele>1945.9</ele>
        <time>2024-07-09T08:21:16Z</time>
      </trkpt>
      <trkpt lat="45.08315" lon="6.14405">
        <ele>1946.2</ele>
        <time>2024-07-09T08:21:18Z</time>
      </trkpt>
      <trkpt lat="45.08316" lon="6.14406">
        <ele>1946.3</ele>
        <time>2024-07-09T08:21:20Z</time>
      </trkpt>
      <trkpt lat="45.08316" lon="6.14407">
        <ele>1946.4</ele>
        <time>2024-07-09T08:21:21Z</time>
      </trkpt>
      <trkpt lat="45.08318" lon="6.14409">
        <ele>1946.6</ele>
        <time>2024-07-09T08:21:22Z</time>
      </trkpt>
      <trkpt lat="45.08319" lon="6.14409">
        <ele>1946.7</ele>
        <time>2024-07-09T08:21:24Z</time>
      </trkpt>
      <trkpt lat="45.08321" lon="6.1441">
        <ele>1946.9</ele>
        <time>2024-07-09T08:21:25Z</time>
      </trkpt>
      <trkpt lat="45.08322" lon="6.14411">
        <ele>1947</ele>
        <time>2024-07-09T08:21:26Z</time>
      </trkpt>
      <trkpt lat="45.08323" lon="6.14413">
        <ele>1947.1</ele>
        <time>2024-07-09T08:21:28Z</time>
      </trkpt>
      <trkpt lat="45.08323" lon="6.14414">
        <ele>1947.2</ele>
        <time>2024-07-09T08:21:29Z</time>
      </trkpt>
      <trkpt lat="45.08324" lon="6.14416">
        <ele>1947.4</ele>
        <time>2024-07-09T08:21:30Z</time>
      </trkpt>
      <trkpt lat="45.08325" lon="6.14417">
        <ele>1947.5</ele>
        <time>2024-07-09T08:21:32Z</time>
      </trkpt>
      <trkpt lat="45.08326" lon="6.14417">
        <ele>1947.6</ele>
        <time>2024-07-09T08:21:33Z</time>
      </trkpt>
      <trkpt lat="45.08327" lon="6.14418">
        <ele>1947.7</ele>
        <time>2024-07-09T08:21:34Z</time>
      </trkpt>
      <trkpt lat="45.08327" lon="6.14419">
        <ele>1947.8</ele>
        <time>2024-07-09T08:21:35Z</time>
      </trkpt>
      <trkpt lat="45.08328" lon="6.1442">
        <ele>1947.9</ele>
        <time>2024-07-09T08:21:36Z</time>
      </trkpt>
      <trkpt lat="45.08329" lon="6.14422">
        <ele>1948.1</ele>
        <time>2024-07-09T08:21:37Z</time>
      </trkpt>
      <trkpt lat="45.08331" lon="6.14424">
        <ele>1948.3</ele>
        <time>2024-07-09T08:21:38Z</time>
      </trkpt>
      <trkpt lat="45.08332" lon="6.14425">
        <ele>1948.4</ele>
        <time>2024-07-09T08:21:40Z</time>
      </trkpt>
      <trkpt lat="45.08333" lon="6.14427">
        <ele>1948.6</ele>
        <time>2024-07-09T08:21:41Z</time>
      </trkpt>
      <trkpt lat="45.08335" lon="6.14429">
        <ele>1948.8</ele>
        <time>2024-07-09T08:21:42Z</time>
      </trkpt>
      <trkpt lat="45.08335" lon="6.1443">
        <ele>1948.9</ele>
        <time>2024-07-09T08:21:44Z</time>
      </trkpt>
      <trkpt lat="45.08336" lon="6.14431">
        <ele>1949</ele>
        <time>2024-07-09T08:21:45Z</time>
      </trkpt>
      <trkpt lat="45.08337" lon="6.14432">
        <ele>1949.2</ele>
        <time>2024-07-09T08:21:46Z</time>
      </trkpt>
      <trkpt lat="45.08339" lon="6.14435">
        <ele>1949.4</ele>
        <time>2024-07-09T08:21:47Z</time>
      </trkpt>
      <trkpt lat="45.0834" lon="6.14437">
        <ele>1949.6</ele>
        <time>2024-07-09T08:21:49Z</time>
      </trkpt>
      <trkpt lat="45.0834" lon="6.14438">
        <ele>1949.7</ele>
        <time>2024-07-09T08:21:50Z</time>
      </trkpt>
      <trkpt lat="45.08341" lon="6.14441">
        <ele>1949.9</ele>
        <time>2024-07-09T08:21:51Z</time>
      </trkpt>
      <trkpt lat="45.08342" lon="6.14442">
        <ele>1950</ele>
        <time>2024-07-09T08:21:52Z</time>
      </trkpt>
      <trkpt lat="45.08342" lon="6.14445">
        <ele>1950.2</ele>
        <time>2024-07-09T08:21:54Z</time>
      </trkpt>
      <trkpt lat="45.08342" lon="6.14447">
        <ele>1950.3</ele>
        <time>2024-07-09T08:21:55Z</time>
      </trkpt>
      <trkpt lat="45.08342" lon="6.14449">
        <ele>1950.5</ele>
        <time>2024-07-09T08:21:56Z</time>
      </trkpt>
      <trkpt lat="45.08343" lon="6.14451">
        <ele>1950.7</ele>
        <time>2024-07-09T08:21:58Z</time>
      </trkpt>
      <trkpt lat="45.08345" lon="6.14454">
        <ele>1950.9</ele>
        <time>2024-07-09T08:22:00Z</time>
      </trkpt>
      <trkpt lat="45.08345" lon="6.14455">
        <ele>1951</ele>
        <time>2024-07-09T08:22:02Z</time>
      </trkpt>
      <trkpt lat="45.08346" lon="6.14456">
        <ele>1951.1</ele>
        <time>2024-07-09T08:22:03Z</time>
      </trkpt>
      <trkpt lat="45.08347" lon="6.14457">
        <ele>1951.2</ele>
        <time>2024-07-09T08:22:04Z</time>
      </trkpt>
      <trkpt lat="45.08348" lon="6.14458">
        <ele>1951.3</ele>
        <time>2024-07-09T08:22:05Z</time>
      </trkpt>
      <trkpt lat="45.08349" lon="6.14459">
        <ele>1951.4</ele>
        <time>2024-07-09T08:22:06Z</time>
      </trkpt>
      <trkpt lat="45.08351" lon="6.1446">
        <ele>1951.6</ele>
        <time>2024-07-09T08:22:07Z</time>
      </trkpt>
      <trkpt lat="45.08351" lon="6.14461">
        <ele>1951.7</ele>
        <time>2024-07-09T08:22:09Z</time>
      </trkpt>
      <trkpt lat="45.08352" lon="6.14462">
        <ele>1951.8</ele>
        <time>2024-07-09T08:22:10Z</time>
      </trkpt>
      <trkpt lat="45.08353" lon="6.14463">
        <ele>1951.9</ele>
        <time>2024-07-09T08:22:11Z</time>
      </trkpt>
      <trkpt lat="45.08355" lon="6.14465">
        <ele>1952.1</ele>
        <time>2024-07-09T08:22:12Z</time>
      </trkpt>
      <trkpt lat="45.08355" lon="6.14467">
        <ele>1952.2</ele>
        <time>2024-07-09T08:22:14Z</time>
      </trkpt>
      <trkpt lat="45.08355" lon="6.14468">
        <ele>1952.3</ele>
        <time>2024-07-09T08:22:15Z</time>
      </trkpt>
      <trkpt lat="45.08356" lon="6.1447">
        <ele>1952.5</ele>
        <time>2024-07-09T08:22:16Z</time>
      </trkpt>
      <trkpt lat="45.08357" lon="6.14472">
        <ele>1952.7</ele>
        <time>2024-07-09T08:22:18Z</time>
      </trkpt>
      <trkpt lat="45.08358" lon="6.14473">
        <ele>1952.7</ele>
        <time>2024-07-09T08:22:19Z</time>
      </trkpt>
      <trkpt lat="45.08358" lon="6.14473">
        <ele>1952.8</ele>
        <time>2024-07-09T08:22:20Z</time>
      </trkpt>
      <trkpt lat="45.08359" lon="6.14474">
        <ele>1952.9</ele>
        <time>2024-07-09T08:22:21Z</time>
      </trkpt>
      <trkpt lat="45.0836" lon="6.14475">
        <ele>1953</ele>
        <time>2024-07-09T08:22:22Z</time>
      </trkpt>
      <trkpt lat="45.0836" lon="6.14476">
        <ele>1953.1</ele>
        <time>2024-07-09T08:22:23Z</time>
      </trkpt>
      <trkpt lat="45.08362" lon="6.14478">
        <ele>1953.3</ele>
        <time>2024-07-09T08:22:24Z</time>
      </trkpt>
      <trkpt lat="45.08363" lon="6.14479">
        <ele>1953.4</ele>
        <time>2024-07-09T08:22:25Z</time>
      </trkpt>
      <trkpt lat="45.08364" lon="6.1448">
        <ele>1953.5</ele>
        <time>2024-07-09T08:22:27Z</time>
      </trkpt>
      <trkpt lat="45.08366" lon="6.14483">
        <ele>1953.7</ele>
        <time>2024-07-09T08:22:28Z</time>
      </trkpt>
      <trkpt lat="45.08367" lon="6.14484">
        <ele>1953.8</ele>
        <time>2024-07-09T08:22:29Z</time>
      </trkpt>
      <trkpt lat="45.08367" lon="6.14485">
        <ele>1953.9</ele>
        <time>2024-07-09T08:22:31Z</time>
      </trkpt>
      <trkpt lat="45.08368" lon="6.14487">
        <ele>1954.1</ele>
        <time>2024-07-09T08:22:32Z</time>
      </trkpt>
      <trkpt lat="45.0837" lon="6.14489">
        <ele>1954.3</ele>
        <time>2024-07-09T08:22:33Z</time>
      </trkpt>
      <trkpt lat="45.08371" lon="6.1449">
        <ele>1954.3</ele>
        <time>2024-07-09T08:22:34Z</time>
      </trkpt>
      <trkpt lat="45.08372" lon="6.1449">
        <ele>1954.4</ele>
        <time>2024-07-09T08:22:36Z</time>
      </trkpt>
      <trkpt lat="45.08373" lon="6.14492">
        <ele>1954.5</ele>
        <time>2024-07-09T08:22:37Z</time>
      </trkpt>
      <trkpt lat="45.08374" lon="6.14494">
        <ele>1954.7</ele>
        <time>2024-07-09T08:22:38Z</time>
      </trkpt>
      <trkpt lat="45.08375" lon="6.14495">
        <ele>1954.8</ele>
        <time>2024-07-09T08:22:40Z</time>
      </trkpt>
      <trkpt lat="45.08375" lon="6.14496">
        <ele>1954.9</ele>
        <time>2024-07-09T08:22:41Z</time>
      </trkpt>
      <trkpt lat="45.08377" lon="6.14498">
        <ele>1955.1</ele>
        <time>2024-07-09T08:22:42Z</time>
      </trkpt>
      <trkpt lat="45.08377" lon="6.14498">
        <ele>1955.1</ele>
        <time>2024-07-09T08:22:44Z</time>
      </trkpt>
      <trkpt lat="45.08378" lon="6.145">
        <ele>1955.2</ele>
        <time>2024-07-09T08:22:45Z</time>
      </trkpt>
      <trkpt lat="45.08379" lon="6.145">
        <ele>1955.3</ele>
        <time>2024-07-09T08:22:46Z</time>
      </trkpt>
      <trkpt lat="45.0838" lon="6.14503">
        <ele>1955.5</ele>
        <time>2024-07-09T08:22:47Z</time>
      </trkpt>
      <trkpt lat="45.08381" lon="6.14504">
        <ele>1955.6</ele>
        <time>2024-07-09T08:22:49Z</time>
      </trkpt>
      <trkpt lat="45.08381" lon="6.14505">
        <ele>1955.7</ele>
        <time>2024-07-09T08:22:50Z</time>
      </trkpt>
      <trkpt lat="45.08382" lon="6.14507">
        <ele>1955.8</ele>
        <time>2024-07-09T08:22:51Z</time>
      </trkpt>
      <trkpt lat="45.08383" lon="6.14509">
        <ele>1955.9</ele>
        <time>2024-07-09T08:22:52Z</time>
      </trkpt>
      <trkpt lat="45.08384" lon="6.14511">
        <ele>1956.1</ele>
        <time>2024-07-09T08:22:53Z</time>
      </trkpt>
      <trkpt lat="45.08384" lon="6.14512">
        <ele>1956.1</ele>
        <time>2024-07-09T08:22:54Z</time>
      </trkpt>
      <trkpt lat="45.08385" lon="6.14514">
        <ele>1956.3</ele>
        <time>2024-07-09T08:22:55Z</time>
      </trkpt>
      <trkpt lat="45.08385" lon="6.14516">
        <ele>1956.4</ele>
        <time>2024-07-09T08:22:57Z</time>
      </trkpt>
      <trkpt lat="45.08386" lon="6.14517">
        <ele>1956.5</ele>
        <time>2024-07-09T08:22:58Z</time>
      </trkpt>
      <trkpt lat="45.08387" lon="6.1452">
        <ele>1956.6</ele>
        <time>2024-07-09T08:22:59Z</time>
      </trkpt>
      <trkpt lat="45.08386" lon="6.14522">
        <ele>1956.8</ele>
        <time>2024-07-09T08:23:01Z</time>
      </trkpt>
      <trkpt lat="45.08386" lon="6.14524">
        <ele>1956.9</ele>
        <time>2024-07-09T08:23:02Z</time>
      </trkpt>
      <trkpt lat="45.08388" lon="6.14527">
        <ele>1957.1</ele>
        <time>2024-07-09T08:23:03Z</time>
      </trkpt>
      <trkpt lat="45.08389" lon="6.14529">
        <ele>1957.2</ele>
        <time>2024-07-09T08:23:04Z</time>
      </trkpt>
      <trkpt lat="45.08389" lon="6.1453">
        <ele>1957.3</ele>
        <time>2024-07-09T08:23:05Z</time>
      </trkpt>
      <trkpt lat="45.08391" lon="6.14532">
        <ele>1957.4</ele>
        <time>2024-07-09T08:23:07Z</time>
      </trkpt>
      <trkpt lat="45.08391" lon="6.14533">
        <ele>1957.5</ele>
        <time>2024-07-09T08:23:08Z</time>
      </trkpt>
      <trkpt lat="45.08393" lon="6.14534">
        <ele>1957.6</ele>
        <time>2024-07-09T08:23:09Z</time>
      </trkpt>
      <trkpt lat="45.08394" lon="6.14534">
        <ele>1957.7</ele>
        <time>2024-07-09T08:23:10Z</time>
      </trkpt>
      <trkpt lat="45.08395" lon="6.14535">
        <ele>1957.8</ele>
        <time>2024-07-09T08:23:11Z</time>
      </trkpt>
      <trkpt lat="45.08397" lon="6.14536">
        <ele>1957.9</ele>
        <time>2024-07-09T08:23:12Z</time>
      </trkpt>
      <trkpt lat="45.08398" lon="6.14537">
        <ele>1958</ele>
        <time>2024-07-09T08:23:13Z</time>
      </trkpt>
      <trkpt lat="45.08399" lon="6.14538">
        <ele>1958.1</ele>
        <time>2024-07-09T08:23:14Z</time>
      </trkpt>
      <trkpt lat="45.08402" lon="6.14542">
        <ele>1958.4</ele>
        <time>2024-07-09T08:23:16Z</time>
      </trkpt>
      <trkpt lat="45.08402" lon="6.14544">
        <ele>1958.5</ele>
        <time>2024-07-09T08:23:18Z</time>
      </trkpt>
      <trkpt lat="45.08403" lon="6.14546">
        <ele>1958.6</ele>
        <time>2024-07-09T08:23:19Z</time>
      </trkpt>
      <trkpt lat="45.08404" lon="6.14547">
        <ele>1958.7</ele>
        <time>2024-07-09T08:23:20Z</time>
      </trkpt>
      <trkpt lat="45.08404" lon="6.1455">
        <ele>1958.8</ele>
        <time>2024-07-09T08:23:22Z</time>
      </trkpt>
      <trkpt lat="45.08405" lon="6.14551">
        <ele>1958.9</ele>
        <time>2024-07-09T08:23:23Z</time>
      </trkpt>
      <trkpt lat="45.08405" lon="6.14552">
        <ele>1958.9</ele>
        <time>2024-07-09T08:23:24Z</time>
      </trkpt>
      <trkpt lat="45.08407" lon="6.14555">
        <ele>1959.1</ele>
        <time>2024-07-09T08:23:25Z</time>
      </trkpt>
      <trkpt lat="45.08407" lon="6.14556">
        <ele>1959.2</ele>
        <time>2024-07-09T08:23:26Z</time>
      </trkpt>
      <trkpt lat="45.08408" lon="6.14557">
        <ele>1959.2</ele>
        <time>2024-07-09T08:23:28Z</time>
      </trkpt>
      <trkpt lat="45.0841" lon="6.14559">
        <ele>1959.4</ele>
        <time>2024-07-09T08:23:29Z</time>
      </trkpt>
      <trkpt lat="45.08411" lon="6.1456">
        <ele>1959.5</ele>
        <time>2024-07-09T08:23:30Z</time>
      </trkpt>
      <trkpt lat="45.08412" lon="6.14561">
        <ele>1959.6</ele>
        <time>2024-07-09T08:23:31Z</time>
      </trkpt>
      <trkpt lat="45.08413" lon="6.14563">
        <ele>1959.7</ele>
        <time>2024-07-09T08:23:33Z</time>
      </trkpt>
      <trkpt lat="45.08414" lon="6.14564">
        <ele>1959.8</ele>
        <time>2024-07-09T08:23:34Z</time>
      </trkpt>
      <trkpt lat="45.08415" lon="6.14565">
        <ele>1959.8</ele>
        <time>2024-07-09T08:23:35Z</time>
      </trkpt>
      <trkpt lat="45.08416" lon="6.14566">
        <ele>1959.9</ele>
        <time>2024-07-09T08:23:37Z</time>
      </trkpt>
      <trkpt lat="45.08417" lon="6.14567">
        <ele>1960</ele>
        <time>2024-07-09T08:23:38Z</time>
      </trkpt>
      <trkpt lat="45.08419" lon="6.14568">
        <ele>1960.1</ele>
        <time>2024-07-09T08:23:39Z</time>
      </trkpt>
      <trkpt lat="45.0842" lon="6.14569">
        <ele>1960.2</ele>
        <time>2024-07-09T08:23:41Z</time>
      </trkpt>
      <trkpt lat="45.0842" lon="6.14571">
        <ele>1960.3</ele>
        <time>2024-07-09T08:23:42Z</time>
      </trkpt>
      <trkpt lat="45.08422" lon="6.14573">
        <ele>1960.4</ele>
        <time>2024-07-09T08:23:43Z</time>
      </trkpt>
      <trkpt lat="45.08423" lon="6.14574">
        <ele>1960.5</ele>
        <time>2024-07-09T08:23:44Z</time>
      </trkpt>
      <trkpt lat="45.08423" lon="6.14575">
        <ele>1960.6</ele>
        <time>2024-07-09T08:23:46Z</time>
      </trkpt>
      <trkpt lat="45.08424" lon="6.14576">
        <ele>1960.6</ele>
        <time>2024-07-09T08:23:47Z</time>
      </trkpt>
      <trkpt lat="45.08425" lon="6.14577">
        <ele>1960.7</ele>
        <time>2024-07-09T08:23:48Z</time>
      </trkpt>
      <trkpt lat="45.08426" lon="6.14579">
        <ele>1960.8</ele>
        <time>2024-07-09T08:23:49Z</time>
      </trkpt>
      <trkpt lat="45.08426" lon="6.1458">
        <ele>1960.9</ele>
        <time>2024-07-09T08:23:50Z</time>
      </trkpt>
      <trkpt lat="45.08427" lon="6.14581">
        <ele>1960.9</ele>
        <time>2024-07-09T08:23:51Z</time>
      </trkpt>
      <trkpt lat="45.08428" lon="6.14582">
        <ele>1961</ele>
        <time>2024-07-09T08:23:52Z</time>
      </trkpt>
      <trkpt lat="45.08429" lon="6.14583">
        <ele>1961.1</ele>
        <time>2024-07-09T08:23:53Z</time>
      </trkpt>
      <trkpt lat="45.0843" lon="6.14585">
        <ele>1961.2</ele>
        <time>2024-07-09T08:23:54Z</time>
      </trkpt>
      <trkpt lat="45.0843" lon="6.14587">
        <ele>1961.2</ele>
        <time>2024-07-09T08:23:56Z</time>
      </trkpt>
      <trkpt lat="45.08431" lon="6.14588">
        <ele>1961.3</ele>
        <time>2024-07-09T08:23:57Z</time>
      </trkpt>
      <trkpt lat="45.08431" lon="6.14589">
        <ele>1961.4</ele>
        <time>2024-07-09T08:23:58Z</time>
      </trkpt>
      <trkpt lat="45.08432" lon="6.1459">
        <ele>1961.4</ele>
        <time>2024-07-09T08:23:59Z</time>
      </trkpt>
      <trkpt lat="45.08432" lon="6.14592">
        <ele>1961.5</ele>
        <time>2024-07-09T08:24:00Z</time>
      </trkpt>
      <trkpt lat="45.08433" lon="6.14593">
        <ele>1961.6</ele>
        <time>2024-07-09T08:24:01Z</time>
      </trkpt>
      <trkpt lat="45.08434" lon="6.14594">
        <ele>1961.7</ele>
        <time>2024-07-09T08:24:02Z</time>
      </trkpt>
      <trkpt lat="45.08435" lon="6.14596">
        <ele>1961.7</ele>
        <time>2024-07-09T08:24:03Z</time>
      </trkpt>
      <trkpt lat="45.08436" lon="6.14598">
        <ele>1961.9</ele>
        <time>2024-07-09T08:24:04Z</time>
      </trkpt>
      <trkpt lat="45.08437" lon="6.146">
        <ele>1962</ele>
        <time>2024-07-09T08:24:05Z</time>
      </trkpt>
      <trkpt lat="45.08439" lon="6.146">
        <ele>1962.1</ele>
        <time>2024-07-09T08:24:07Z</time>
      </trkpt>
      <trkpt lat="45.0844" lon="6.14601">
        <ele>1962.1</ele>
        <time>2024-07-09T08:24:08Z</time>
      </trkpt>
      <trkpt lat="45.08441" lon="6.14601">
        <ele>1962.2</ele>
        <time>2024-07-09T08:24:09Z</time>
      </trkpt>
      <trkpt lat="45.08442" lon="6.14603">
        <ele>1962.3</ele>
        <time>2024-07-09T08:24:11Z</time>
      </trkpt>
      <trkpt lat="45.08443" lon="6.14603">
        <ele>1962.4</ele>
        <time>2024-07-09T08:24:12Z</time>
      </trkpt>
      <trkpt lat="45.08444" lon="6.14604">
        <ele>1962.4</ele>
        <time>2024-07-09T08:24:13Z</time>
      </trkpt>
      <trkpt lat="45.08444" lon="6.14609">
        <ele>1962.6</ele>
        <time>2024-07-09T08:24:14Z</time>
      </trkpt>
      <trkpt lat="45.08445" lon="6.14611">
        <ele>1962.7</ele>
        <time>2024-07-09T08:24:15Z</time>
      </trkpt>
      <trkpt lat="45.08446" lon="6.14611">
        <ele>1962.8</ele>
        <time>2024-07-09T08:24:17Z</time>
      </trkpt>
      <trkpt lat="45.08447" lon="6.14612">
        <ele>1962.9</ele>
        <time>2024-07-09T08:24:18Z</time>
      </trkpt>
      <trkpt lat="45.08448" lon="6.14612">
        <ele>1962.9</ele>
        <time>2024-07-09T08:24:19Z</time>
      </trkpt>
      <trkpt lat="45.08449" lon="6.14612">
        <ele>1963</ele>
        <time>2024-07-09T08:24:20Z</time>
      </trkpt>
      <trkpt lat="45.0845" lon="6.14612">
        <ele>1963.1</ele>
        <time>2024-07-09T08:24:21Z</time>
      </trkpt>
      <trkpt lat="45.08451" lon="6.14613">
        <ele>1963.1</ele>
        <time>2024-07-09T08:24:22Z</time>
      </trkpt>
      <trkpt lat="45.08453" lon="6.14615">
        <ele>1963.3</ele>
        <time>2024-07-09T08:24:23Z</time>
      </trkpt>
      <trkpt lat="45.08454" lon="6.14617">
        <ele>1963.4</ele>
        <time>2024-07-09T08:24:25Z</time>
      </trkpt>
      <trkpt lat="45.08455" lon="6.14618">
        <ele>1963.5</ele>
        <time>2024-07-09T08:24:26Z</time>
      </trkpt>
      <trkpt lat="45.08455" lon="6.14619">
        <ele>1963.6</ele>
        <time>2024-07-09T08:24:27Z</time>
      </trkpt>
      <trkpt lat="45.08457" lon="6.14621">
        <ele>1963.7</ele>
        <time>2024-07-09T08:24:28Z</time>
      </trkpt>
      <trkpt lat="45.08457" lon="6.14622">
        <ele>1963.7</ele>
        <time>2024-07-09T08:24:29Z</time>
      </trkpt>
      <trkpt lat="45.08458" lon="6.14623">
        <ele>1963.8</ele>
        <time>2024-07-09T08:24:30Z</time>
      </trkpt>
      <trkpt lat="45.08459" lon="6.14624">
        <ele>1963.9</ele>
        <time>2024-07-09T08:24:31Z</time>
      </trkpt>
      <trkpt lat="45.0846" lon="6.14626">
        <ele>1964</ele>
        <time>2024-07-09T08:24:32Z</time>
      </trkpt>
      <trkpt lat="45.0846" lon="6.14631">
        <ele>1964.2</ele>
        <time>2024-07-09T08:24:33Z</time>
      </trkpt>
      <trkpt lat="45.0846" lon="6.14632">
        <ele>1964.3</ele>
        <time>2024-07-09T08:24:35Z</time>
      </trkpt>
      <trkpt lat="45.08461" lon="6.14633">
        <ele>1964.4</ele>
        <time>2024-07-09T08:24:36Z</time>
      </trkpt>
      <trkpt lat="45.08463" lon="6.14636">
        <ele>1964.5</ele>
        <time>2024-07-09T08:24:37Z</time>
      </trkpt>
      <trkpt lat="45.08464" lon="6.14636">
        <ele>1964.6</ele>
        <time>2024-07-09T08:24:39Z</time>
      </trkpt>
      <trkpt lat="45.08466" lon="6.14638">
        <ele>1964.8</ele>
        <time>2024-07-09T08:24:40Z</time>
      </trkpt>
      <trkpt lat="45.08467" lon="6.14639">
        <ele>1964.8</ele>
        <time>2024-07-09T08:24:41Z</time>
      </trkpt>
      <trkpt lat="45.08468" lon="6.14641">
        <ele>1964.9</ele>
        <time>2024-07-09T08:24:43Z</time>
      </trkpt>
      <trkpt lat="45.08468" lon="6.14642">
        <ele>1965</ele>
        <time>2024-07-09T08:24:44Z</time>
      </trkpt>
      <trkpt lat="45.08469" lon="6.14644">
        <ele>1965.1</ele>
        <time>2024-07-09T08:24:45Z</time>
      </trkpt>
      <trkpt lat="45.08471" lon="6.14646">
        <ele>1965.3</ele>
        <time>2024-07-09T08:24:46Z</time>
      </trkpt>
      <trkpt lat="45.08472" lon="6.14646">
        <ele>1965.3</ele>
        <time>2024-07-09T08:24:48Z</time>
      </trkpt>
      <trkpt lat="45.08474" lon="6.14648">
        <ele>1965.5</ele>
        <time>2024-07-09T08:24:49Z</time>
      </trkpt>
      <trkpt lat="45.08475" lon="6.14649">
        <ele>1965.6</ele>
        <time>2024-07-09T08:24:51Z</time>
      </trkpt>
      <trkpt lat="45.08475" lon="6.14651">
        <ele>1965.6</ele>
        <time>2024-07-09T08:24:52Z</time>
      </trkpt>
      <trkpt lat="45.08477" lon="6.14655">
        <ele>1965.9</ele>
        <time>2024-07-09T08:24:53Z</time>
      </trkpt>
      <trkpt lat="45.08478" lon="6.14656">
        <ele>1965.9</ele>
        <time>2024-07-09T08:24:55Z</time>
      </trkpt>
      <trkpt lat="45.08478" lon="6.14658">
        <ele>1966</ele>
        <time>2024-07-09T08:24:56Z</time>
      </trkpt>
      <trkpt lat="45.08479" lon="6.14659">
        <ele>1966.1</ele>
        <time>2024-07-09T08:24:57Z</time>
      </trkpt>
      <trkpt lat="45.08479" lon="6.1466">
        <ele>1966.2</ele>
        <time>2024-07-09T08:24:58Z</time>
      </trkpt>
      <trkpt lat="45.0848" lon="6.14662">
        <ele>1966.2</ele>
        <time>2024-07-09T08:25:00Z</time>
      </trkpt>
      <trkpt lat="45.08481" lon="6.14663">
        <ele>1966.3</ele>
        <time>2024-07-09T08:25:01Z</time>
      </trkpt>
      <trkpt lat="45.08482" lon="6.14664">
        <ele>1966.4</ele>
        <time>2024-07-09T08:25:02Z</time>
      </trkpt>
      <trkpt lat="45.08482" lon="6.14665">
        <ele>1966.5</ele>
        <time>2024-07-09T08:25:03Z</time>
      </trkpt>
      <trkpt lat="45.08483" lon="6.14666">
        <ele>1966.5</ele>
        <time>2024-07-09T08:25:04Z</time>
      </trkpt>
      <trkpt lat="45.08484" lon="6.14666">
        <ele>1966.6</ele>
        <time>2024-07-09T08:25:05Z</time>
      </trkpt>
      <trkpt lat="45.08485" lon="6.14668">
        <ele>1966.7</ele>
        <time>2024-07-09T08:25:06Z</time>
      </trkpt>
      <trkpt lat="45.08486" lon="6.14669">
        <ele>1966.8</ele>
        <time>2024-07-09T08:25:08Z</time>
      </trkpt>
      <trkpt lat="45.08487" lon="6.14669">
        <ele>1966.8</ele>
        <time>2024-07-09T08:25:09Z</time>
      </trkpt>
      <trkpt lat="45.08489" lon="6.14671">
        <ele>1967</ele>
        <time>2024-07-09T08:25:10Z</time>
      </trkpt>
      <trkpt lat="45.0849" lon="6.14674">
        <ele>1967.1</ele>
        <time>2024-07-09T08:25:12Z</time>
      </trkpt>
      <trkpt lat="45.0849" lon="6.14675">
        <ele>1967.1</ele>
        <time>2024-07-09T08:25:13Z</time>
      </trkpt>
      <trkpt lat="45.0849" lon="6.14676">
        <ele>1967.2</ele>
        <time>2024-07-09T08:25:14Z</time>
      </trkpt>
      <trkpt lat="45.08491" lon="6.14678">
        <ele>1967.3</ele>
        <time>2024-07-09T08:25:15Z</time>
      </trkpt>
      <trkpt lat="45.08492" lon="6.14679">
        <ele>1967.4</ele>
        <time>2024-07-09T08:25:16Z</time>
      </trkpt>
      <trkpt lat="45.08493" lon="6.1468">
        <ele>1967.4</ele>
        <time>2024-07-09T08:25:17Z</time>
      </trkpt>
      <trkpt lat="45.08494" lon="6.14682">
        <ele>1967.6</ele>
        <time>2024-07-09T08:25:18Z</time>
      </trkpt>
      <trkpt lat="45.08495" lon="6.14684">
        <ele>1967.7</ele>
        <time>2024-07-09T08:25:20Z</time>
      </trkpt>
      <trkpt lat="45.08495" lon="6.14684">
        <ele>1967.7</ele>
        <time>2024-07-09T08:25:21Z</time>
      </trkpt>
      <trkpt lat="45.08495" lon="6.14684">
        <ele>1967.7</ele>
        <time>2024-07-09T08:25:23Z</time>
      </trkpt>
      <trkpt lat="45.08494" lon="6.14684">
        <ele>1967.7</ele>
        <time>2024-07-09T08:25:24Z</time>
      </trkpt>
      <trkpt lat="45.08495" lon="6.14682">
        <ele>1967.8</ele>
        <time>2024-07-09T08:25:26Z</time>
      </trkpt>
      <trkpt lat="45.08495" lon="6.14682">
        <ele>1967.8</ele>
        <time>2024-07-09T08:25:27Z</time>
      </trkpt>
      <trkpt lat="45.08495" lon="6.14681">
        <ele>1967.9</ele>
        <time>2024-07-09T08:25:28Z</time>
      </trkpt>
      <trkpt lat="45.08495" lon="6.14681">
        <ele>1967.9</ele>
        <time>2024-07-09T08:25:29Z</time>
      </trkpt>
      <trkpt lat="45.08495" lon="6.14681">
        <ele>1967.9</ele>
        <time>2024-07-09T08:25:30Z</time>
      </trkpt>
      <trkpt lat="45.08495" lon="6.1468">
        <ele>1967.9</ele>
        <time>2024-07-09T08:25:31Z</time>
      </trkpt>
      <trkpt lat="45.08495" lon="6.1468">
        <ele>1967.9</ele>
        <time>2024-07-09T08:25:32Z</time>
      </trkpt>
      <trkpt lat="45.08495" lon="6.1468">
        <ele>1967.9</ele>
        <time>2024-07-09T08:25:33Z</time>
      </trkpt>
      <trkpt lat="45.08495" lon="6.1468">
        <ele>1967.9</ele>
        <time>2024-07-09T08:25:34Z</time>
      </trkpt>
      <trkpt lat="45.08496" lon="6.1468">
        <ele>1967.9</ele>
        <time>2024-07-09T08:25:35Z</time>
      </trkpt>
      <trkpt lat="45.08496" lon="6.14681">
        <ele>1967.9</ele>
        <time>2024-07-09T08:25:36Z</time>
      </trkpt>
      <trkpt lat="45.08496" lon="6.14681">
        <ele>1967.9</ele>
        <time>2024-07-09T08:25:37Z</time>
      </trkpt>
      <trkpt lat="45.08496" lon="6.14681">
        <ele>1967.9</ele>
        <time>2024-07-09T08:25:38Z</time>
      </trkpt>
      <trkpt lat="45.08496" lon="6.14681">
        <ele>1968</ele>
        <time>2024-07-09T08:25:39Z</time>
      </trkpt>
      <trkpt lat="45.08496" lon="6.14681">
        <ele>1968</ele>
        <time>2024-07-09T08:25:40Z</time>
      </trkpt>
      <trkpt lat="45.08496" lon="6.14681">
        <ele>1968</ele>
        <time>2024-07-09T08:25:41Z</time>
      </trkpt>
      <trkpt lat="45.08496" lon="6.14681">
        <ele>1968</ele>
        <time>2024-07-09T08:25:42Z</time>
      </trkpt>
      <trkpt lat="45.08496" lon="6.14681">
        <ele>1968</ele>
        <time>2024-07-09T08:25:43Z</time>
      </trkpt>
      <trkpt lat="45.08496" lon="6.14681">
        <ele>1968</ele>
        <time>2024-07-09T08:25:44Z</time>
      </trkpt>
      <trkpt lat="45.08496" lon="6.14681">
        <ele>1968</ele>
        <time>2024-07-09T08:25:45Z</time>
      </trkpt>
      <trkpt lat="45.08496" lon="6.14681">
        <ele>1968</ele>
        <time>2024-07-09T08:25:46Z</time>
      </trkpt>
      <trkpt lat="45.08497" lon="6.14681">
        <ele>1968</ele>
        <time>2024-07-09T08:25:47Z</time>
      </trkpt>
      <trkpt lat="45.08497" lon="6.14681">
        <ele>1968</ele>
        <time>2024-07-09T08:25:48Z</time>
      </trkpt>
      <trkpt lat="45.08497" lon="6.14681">
        <ele>1968</ele>
        <time>2024-07-09T08:25:49Z</time>
      </trkpt>
      <trkpt lat="45.08497" lon="6.14681">
        <ele>1968</ele>
        <time>2024-07-09T08:25:50Z</time>
      </trkpt>
      <trkpt lat="45.08497" lon="6.14681">
        <ele>1968</ele>
        <time>2024-07-09T08:25:51Z</time>
      </trkpt>
      <trkpt lat="45.08497" lon="6.14681">
        <ele>1968</ele>
        <time>2024-07-09T08:25:52Z</time>
      </trkpt>
      <trkpt lat="45.08497" lon="6.14681">
        <ele>1968</ele>
        <time>2024-07-09T08:25:54Z</time>
      </trkpt>
      <trkpt lat="45.08497" lon="6.14681">
        <ele>1968</ele>
        <time>2024-07-09T08:25:55Z</time>
      </trkpt>
      <trkpt lat="45.08497" lon="6.14681">
        <ele>1968</ele>
        <time>2024-07-09T08:25:56Z</time>
      </trkpt>
      <trkpt lat="45.08496" lon="6.14682">
        <ele>1968</ele>
        <time>2024-07-09T08:25:57Z</time>
      </trkpt>
      <trkpt lat="45.08496" lon="6.14682">
        <ele>1968.1</ele>
        <time>2024-07-09T08:25:58Z</time>
      </trkpt>
      <trkpt lat="45.08496" lon="6.14683">
        <ele>1968.1</ele>
        <time>2024-07-09T08:25:59Z</time>
      </trkpt>
      <trkpt lat="45.08495" lon="6.14683">
        <ele>1968.1</ele>
        <time>2024-07-09T08:26:00Z</time>
      </trkpt>
      <trkpt lat="45.08495" lon="6.14682">
        <ele>1968.2</ele>
        <time>2024-07-09T08:26:01Z</time>
      </trkpt>
      <trkpt lat="45.08495" lon="6.14682">
        <ele>1968.2</ele>
        <time>2024-07-09T08:26:02Z</time>
      </trkpt>
      <trkpt lat="45.08495" lon="6.14682">
        <ele>1968.2</ele>
        <time>2024-07-09T08:26:03Z</time>
      </trkpt>
      <trkpt lat="45.08495" lon="6.14682">
        <ele>1968.2</ele>
        <time>2024-07-09T08:26:04Z</time>
      </trkpt>
      <trkpt lat="45.08495" lon="6.14682">
        <ele>1968.2</ele>
        <time>2024-07-09T08:26:05Z</time>
      </trkpt>
      <trkpt lat="45.08495" lon="6.14682">
        <ele>1968.2</ele>
        <time>2024-07-09T08:26:06Z</time>
      </trkpt>
      <trkpt lat="45.08495" lon="6.14682">
        <ele>1968.2</ele>
        <time>2024-07-09T08:26:07Z</time>
      </trkpt>
      <trkpt lat="45.08495" lon="6.14682">
        <ele>1968.3</ele>
        <time>2024-07-09T08:26:08Z</time>
      </trkpt>
      <trkpt lat="45.08494" lon="6.14681">
        <ele>1968.3</ele>
        <time>2024-07-09T08:26:09Z</time>
      </trkpt>
      <trkpt lat="45.08494" lon="6.14682">
        <ele>1968.3</ele>
        <time>2024-07-09T08:26:10Z</time>
      </trkpt>
      <trkpt lat="45.08494" lon="6.14682">
        <ele>1968.3</ele>
        <time>2024-07-09T08:26:11Z</time>
      </trkpt>
      <trkpt lat="45.08494" lon="6.14682">
        <ele>1968.3</ele>
        <time>2024-07-09T08:26:12Z</time>
      </trkpt>
      <trkpt lat="45.08494" lon="6.14682">
        <ele>1968.3</ele>
        <time>2024-07-09T08:26:13Z</time>
      </trkpt>
      <trkpt lat="45.08495" lon="6.14682">
        <ele>1968.4</ele>
        <time>2024-07-09T08:26:14Z</time>
      </trkpt>
      <trkpt lat="45.08495" lon="6.14682">
        <ele>1968.4</ele>
        <time>2024-07-09T08:26:15Z</time>
      </trkpt>
      <trkpt lat="45.08495" lon="6.14682">
        <ele>1968.4</ele>
        <time>2024-07-09T08:26:16Z</time>
      </trkpt>
      <trkpt lat="45.08495" lon="6.14682">
        <ele>1968.4</ele>
        <time>2024-07-09T08:26:17Z</time>
      </trkpt>
      <trkpt lat="45.08495" lon="6.14682">
        <ele>1968.4</ele>
        <time>2024-07-09T08:26:18Z</time>
      </trkpt>
      <trkpt lat="45.08495" lon="6.14682">
        <ele>1968.4</ele>
        <time>2024-07-09T08:26:19Z</time>
      </trkpt>
      <trkpt lat="45.08496" lon="6.14682">
        <ele>1968.4</ele>
        <time>2024-07-09T08:26:21Z</time>
      </trkpt>
      <trkpt lat="45.08496" lon="6.14682">
        <ele>1968.4</ele>
        <time>2024-07-09T08:26:22Z</time>
      </trkpt>
      <trkpt lat="45.08496" lon="6.14682">
        <ele>1968.5</ele>
        <time>2024-07-09T08:26:23Z</time>
      </trkpt>
      <trkpt lat="45.08496" lon="6.14682">
        <ele>1968.5</ele>
        <time>2024-07-09T08:26:24Z</time>
      </trkpt>
      <trkpt lat="45.08496" lon="6.14682">
        <ele>1968.5</ele>
        <time>2024-07-09T08:26:25Z</time>
      </trkpt>
      <trkpt lat="45.08497" lon="6.14682">
        <ele>1968.5</ele>
        <time>2024-07-09T08:26:26Z</time>
      </trkpt>
      <trkpt lat="45.08497" lon="6.14682">
        <ele>1968.5</ele>
        <time>2024-07-09T08:26:27Z</time>
      </trkpt>
      <trkpt lat="45.08497" lon="6.14682">
        <ele>1968.5</ele>
        <time>2024-07-09T08:26:28Z</time>
      </trkpt>
      <trkpt lat="45.08497" lon="6.14682">
        <ele>1968.5</ele>
        <time>2024-07-09T08:26:29Z</time>
      </trkpt>
      <trkpt lat="45.08497" lon="6.14682">
        <ele>1968.5</ele>
        <time>2024-07-09T08:26:30Z</time>
      </trkpt>
      <trkpt lat="45.08498" lon="6.14682">
        <ele>1968.5</ele>
        <time>2024-07-09T08:26:31Z</time>
      </trkpt>
      <trkpt lat="45.08498" lon="6.14682">
        <ele>1968.6</ele>
        <time>2024-07-09T08:26:32Z</time>
      </trkpt>
      <trkpt lat="45.08498" lon="6.14682">
        <ele>1968.6</ele>
        <time>2024-07-09T08:26:33Z</time>
      </trkpt>
      <trkpt lat="45.08498" lon="6.14682">
        <ele>1968.6</ele>
        <time>2024-07-09T08:26:34Z</time>
      </trkpt>
      <trkpt lat="45.08498" lon="6.14683">
        <ele>1968.6</ele>
        <time>2024-07-09T08:26:35Z</time>
      </trkpt>
      <trkpt lat="45.08498" lon="6.14683">
        <ele>1968.6</ele>
        <time>2024-07-09T08:26:36Z</time>
      </trkpt>
      <trkpt lat="45.08499" lon="6.14683">
        <ele>1968.6</ele>
        <time>2024-07-09T08:27:46Z</time>
      </trkpt>
      <trkpt lat="45.08499" lon="6.14683">
        <ele>1968.6</ele>
        <time>2024-07-09T08:27:47Z</time>
      </trkpt>
      <trkpt lat="45.08499" lon="6.14683">
        <ele>1968.6</ele>
        <time>2024-07-09T08:27:48Z</time>
      </trkpt>
      <trkpt lat="45.08499" lon="6.14684">
        <ele>1968.7</ele>
        <time>2024-07-09T08:27:49Z</time>
      </trkpt>
      <trkpt lat="45.085" lon="6.14686">
        <ele>1968.8</ele>
        <time>2024-07-09T08:27:50Z</time>
      </trkpt>
      <trkpt lat="45.08501" lon="6.14687">
        <ele>1968.9</ele>
        <time>2024-07-09T08:27:51Z</time>
      </trkpt>
      <trkpt lat="45.08502" lon="6.14688">
        <ele>1968.9</ele>
        <time>2024-07-09T08:27:52Z</time>
      </trkpt>
      <trkpt lat="45.08502" lon="6.14689">
        <ele>1969</ele>
        <time>2024-07-09T08:27:53Z</time>
      </trkpt>
      <trkpt lat="45.08502" lon="6.1469">
        <ele>1969</ele>
        <time>2024-07-09T08:27:54Z</time>
      </trkpt>
      <trkpt lat="45.08503" lon="6.14691">
        <ele>1969.1</ele>
        <time>2024-07-09T08:27:55Z</time>
      </trkpt>
      <trkpt lat="45.08503" lon="6.14692">
        <ele>1969.1</ele>
        <time>2024-07-09T08:27:56Z</time>
      </trkpt>
      <trkpt lat="45.08504" lon="6.14694">
        <ele>1969.3</ele>
        <time>2024-07-09T08:27:57Z</time>
      </trkpt>
      <trkpt lat="45.08506" lon="6.14695">
        <ele>1969.4</ele>
        <time>2024-07-09T08:27:59Z</time>
      </trkpt>
      <trkpt lat="45.08507" lon="6.14696">
        <ele>1969.5</ele>
        <time>2024-07-09T08:28:00Z</time>
      </trkpt>
      <trkpt lat="45.08508" lon="6.14697">
        <ele>1969.6</ele>
        <time>2024-07-09T08:28:01Z</time>
      </trkpt>
      <trkpt lat="45.0851" lon="6.14698">
        <ele>1969.7</ele>
        <time>2024-07-09T08:28:02Z</time>
      </trkpt>
      <trkpt lat="45.08512" lon="6.14699">
        <ele>1969.8</ele>
        <time>2024-07-09T08:28:03Z</time>
      </trkpt>
      <trkpt lat="45.08513" lon="6.14701">
        <ele>1969.9</ele>
        <time>2024-07-09T08:28:05Z</time>
      </trkpt>
      <trkpt lat="45.08514" lon="6.14703">
        <ele>1970</ele>
        <time>2024-07-09T08:28:06Z</time>
      </trkpt>
      <trkpt lat="45.08515" lon="6.14704">
        <ele>1970.1</ele>
        <time>2024-07-09T08:28:07Z</time>
      </trkpt>
      <trkpt lat="45.08516" lon="6.14707">
        <ele>1970.3</ele>
        <time>2024-07-09T08:28:08Z</time>
      </trkpt>
      <trkpt lat="45.08517" lon="6.14708">
        <ele>1970.3</ele>
        <time>2024-07-09T08:28:09Z</time>
      </trkpt>
      <trkpt lat="45.08517" lon="6.14709">
        <ele>1970.4</ele>
        <time>2024-07-09T08:28:10Z</time>
      </trkpt>
      <trkpt lat="45.08517" lon="6.1471">
        <ele>1970.4</ele>
        <time>2024-07-09T08:28:11Z</time>
      </trkpt>
      <trkpt lat="45.08518" lon="6.14712">
        <ele>1970.5</ele>
        <time>2024-07-09T08:28:12Z</time>
      </trkpt>
      <trkpt lat="45.08518" lon="6.14713">
        <ele>1970.6</ele>
        <time>2024-07-09T08:28:13Z</time>
      </trkpt>
      <trkpt lat="45.0852" lon="6.14715">
        <ele>1970.7</ele>
        <time>2024-07-09T08:28:14Z</time>
      </trkpt>
      <trkpt lat="45.0852" lon="6.14715">
        <ele>1970.7</ele>
        <time>2024-07-09T08:28:15Z</time>
      </trkpt>
      <trkpt lat="45.08521" lon="6.14716">
        <ele>1970.8</ele>
        <time>2024-07-09T08:28:16Z</time>
      </trkpt>
      <trkpt lat="45.08521" lon="6.14716">
        <ele>1970.8</ele>
        <time>2024-07-09T08:28:17Z</time>
      </trkpt>
      <trkpt lat="45.08522" lon="6.14717">
        <ele>1970.9</ele>
        <time>2024-07-09T08:28:18Z</time>
      </trkpt>
      <trkpt lat="45.08523" lon="6.14718">
        <ele>1971</ele>
        <time>2024-07-09T08:28:19Z</time>
      </trkpt>
      <trkpt lat="45.08524" lon="6.14719">
        <ele>1971</ele>
        <time>2024-07-09T08:28:20Z</time>
      </trkpt>
      <trkpt lat="45.08525" lon="6.1472">
        <ele>1971.1</ele>
        <time>2024-07-09T08:28:21Z</time>
      </trkpt>
      <trkpt lat="45.08526" lon="6.1472">
        <ele>1971.2</ele>
        <time>2024-07-09T08:28:22Z</time>
      </trkpt>
      <trkpt lat="45.08526" lon="6.14721">
        <ele>1971.2</ele>
        <time>2024-07-09T08:28:23Z</time>
      </trkpt>
      <trkpt lat="45.08527" lon="6.14722">
        <ele>1971.3</ele>
        <time>2024-07-09T08:28:24Z</time>
      </trkpt>
      <trkpt lat="45.08529" lon="6.14724">
        <ele>1971.4</ele>
        <time>2024-07-09T08:28:25Z</time>
      </trkpt>
      <trkpt lat="45.08529" lon="6.14725">
        <ele>1971.5</ele>
        <time>2024-07-09T08:28:27Z</time>
      </trkpt>
      <trkpt lat="45.0853" lon="6.14727">
        <ele>1971.6</ele>
        <time>2024-07-09T08:28:28Z</time>
      </trkpt>
      <trkpt lat="45.08531" lon="6.14728">
        <ele>1971.7</ele>
        <time>2024-07-09T08:28:29Z</time>
      </trkpt>
      <trkpt lat="45.08531" lon="6.14729">
        <ele>1971.7</ele>
        <time>2024-07-09T08:28:30Z</time>
      </trkpt>
      <trkpt lat="45.08532" lon="6.1473">
        <ele>1971.8</ele>
        <time>2024-07-09T08:28:31Z</time>
      </trkpt>
      <trkpt lat="45.08533" lon="6.14731">
        <ele>1971.8</ele>
        <time>2024-07-09T08:28:32Z</time>
      </trkpt>
      <trkpt lat="45.08534" lon="6.14732">
        <ele>1971.9</ele>
        <time>2024-07-09T08:28:33Z</time>
      </trkpt>
      <trkpt lat="45.08535" lon="6.14732">
        <ele>1972</ele>
        <time>2024-07-09T08:28:34Z</time>
      </trkpt>
      <trkpt lat="45.08536" lon="6.14733">
        <ele>1972</ele>
        <time>2024-07-09T08:28:35Z</time>
      </trkpt>
      <trkpt lat="45.08537" lon="6.14734">
        <ele>1972.1</ele>
        <time>2024-07-09T08:28:36Z</time>
      </trkpt>
      <trkpt lat="45.08538" lon="6.14735">
        <ele>1972.2</ele>
        <time>2024-07-09T08:28:37Z</time>
      </trkpt>
      <trkpt lat="45.08538" lon="6.14735">
        <ele>1972.3</ele>
        <time>2024-07-09T08:28:38Z</time>
      </trkpt>
      <trkpt lat="45.08539" lon="6.14735">
        <ele>1972.3</ele>
        <time>2024-07-09T08:28:39Z</time>
      </trkpt>
      <trkpt lat="45.0854" lon="6.14735">
        <ele>1972.4</ele>
        <time>2024-07-09T08:28:40Z</time>
      </trkpt>
      <trkpt lat="45.08541" lon="6.14735">
        <ele>1972.5</ele>
        <time>2024-07-09T08:28:41Z</time>
      </trkpt>
      <trkpt lat="45.08542" lon="6.14735">
        <ele>1972.5</ele>
        <time>2024-07-09T08:28:42Z</time>
      </trkpt>
      <trkpt lat="45.08544" lon="6.14737">
        <ele>1972.7</ele>
        <time>2024-07-09T08:28:43Z</time>
      </trkpt>
      <trkpt lat="45.08545" lon="6.14737">
        <ele>1972.7</ele>
        <time>2024-07-09T08:28:45Z</time>
      </trkpt>
      <trkpt lat="45.08546" lon="6.14738">
        <ele>1972.8</ele>
        <time>2024-07-09T08:28:46Z</time>
      </trkpt>
      <trkpt lat="45.08546" lon="6.14739">
        <ele>1972.9</ele>
        <time>2024-07-09T08:28:47Z</time>
      </trkpt>
      <trkpt lat="45.08547" lon="6.1474">
        <ele>1972.9</ele>
        <time>2024-07-09T08:28:48Z</time>
      </trkpt>
      <trkpt lat="45.08548" lon="6.1474">
        <ele>1973</ele>
        <time>2024-07-09T08:28:49Z</time>
      </trkpt>
      <trkpt lat="45.08549" lon="6.14742">
        <ele>1973.1</ele>
        <time>2024-07-09T08:28:50Z</time>
      </trkpt>
      <trkpt lat="45.0855" lon="6.14743">
        <ele>1973.2</ele>
        <time>2024-07-09T08:28:52Z</time>
      </trkpt>
      <trkpt lat="45.08552" lon="6.14744">
        <ele>1973.4</ele>
        <time>2024-07-09T08:28:53Z</time>
      </trkpt>
      <trkpt lat="45.08554" lon="6.14746">
        <ele>1973.5</ele>
        <time>2024-07-09T08:28:55Z</time>
      </trkpt>
      <trkpt lat="45.08555" lon="6.14748">
        <ele>1973.6</ele>
        <time>2024-07-09T08:28:56Z</time>
      </trkpt>
      <trkpt lat="45.08556" lon="6.14749">
        <ele>1973.7</ele>
        <time>2024-07-09T08:28:57Z</time>
      </trkpt>
      <trkpt lat="45.08558" lon="6.1475">
        <ele>1973.8</ele>
        <time>2024-07-09T08:28:59Z</time>
      </trkpt>
      <trkpt lat="45.08558" lon="6.14751">
        <ele>1973.9</ele>
        <time>2024-07-09T08:29:00Z</time>
      </trkpt>
      <trkpt lat="45.0856" lon="6.14753">
        <ele>1974</ele>
        <time>2024-07-09T08:29:01Z</time>
      </trkpt>
      <trkpt lat="45.08561" lon="6.14754">
        <ele>1974.1</ele>
        <time>2024-07-09T08:29:03Z</time>
      </trkpt>
      <trkpt lat="45.08562" lon="6.14755">
        <ele>1974.2</ele>
        <time>2024-07-09T08:29:04Z</time>
      </trkpt>
      <trkpt lat="45.08562" lon="6.14755">
        <ele>1974.2</ele>
        <time>2024-07-09T08:29:05Z</time>
      </trkpt>
      <trkpt lat="45.08563" lon="6.14756">
        <ele>1974.3</ele>
        <time>2024-07-09T08:29:06Z</time>
      </trkpt>
      <trkpt lat="45.08564" lon="6.14758">
        <ele>1974.5</ele>
        <time>2024-07-09T08:29:07Z</time>
      </trkpt>
      <trkpt lat="45.08565" lon="6.1476">
        <ele>1974.5</ele>
        <time>2024-07-09T08:29:09Z</time>
      </trkpt>
      <trkpt lat="45.08565" lon="6.14761">
        <ele>1974.6</ele>
        <time>2024-07-09T08:29:10Z</time>
      </trkpt>
      <trkpt lat="45.08566" lon="6.14762">
        <ele>1974.7</ele>
        <time>2024-07-09T08:29:11Z</time>
      </trkpt>
      <trkpt lat="45.08567" lon="6.14763">
        <ele>1974.8</ele>
        <time>2024-07-09T08:29:12Z</time>
      </trkpt>
      <trkpt lat="45.08568" lon="6.14765">
        <ele>1974.9</ele>
        <time>2024-07-09T08:29:13Z</time>
      </trkpt>
      <trkpt lat="45.08569" lon="6.14766">
        <ele>1975</ele>
        <time>2024-07-09T08:29:14Z</time>
      </trkpt>
      <trkpt lat="45.08569" lon="6.14767">
        <ele>1975</ele>
        <time>2024-07-09T08:29:15Z</time>
      </trkpt>
      <trkpt lat="45.0857" lon="6.14768">
        <ele>1975.1</ele>
        <time>2024-07-09T08:29:17Z</time>
      </trkpt>
      <trkpt lat="45.08572" lon="6.14771">
        <ele>1975.3</ele>
        <time>2024-07-09T08:29:18Z</time>
      </trkpt>
      <trkpt lat="45.08573" lon="6.14772">
        <ele>1975.4</ele>
        <time>2024-07-09T08:29:20Z</time>
      </trkpt>
      <trkpt lat="45.08574" lon="6.14774">
        <ele>1975.5</ele>
        <time>2024-07-09T08:29:21Z</time>
      </trkpt>
      <trkpt lat="45.08575" lon="6.14775">
        <ele>1975.6</ele>
        <time>2024-07-09T08:29:22Z</time>
      </trkpt>
      <trkpt lat="45.08576" lon="6.14776">
        <ele>1975.6</ele>
        <time>2024-07-09T08:29:24Z</time>
      </trkpt>
      <trkpt lat="45.08577" lon="6.14777">
        <ele>1975.7</ele>
        <time>2024-07-09T08:29:25Z</time>
      </trkpt>
      <trkpt lat="45.08578" lon="6.14779">
        <ele>1975.9</ele>
        <time>2024-07-09T08:29:26Z</time>
      </trkpt>
      <trkpt lat="45.08579" lon="6.1478">
        <ele>1975.9</ele>
        <time>2024-07-09T08:29:28Z</time>
      </trkpt>
      <trkpt lat="45.08579" lon="6.14781">
        <ele>1976</ele>
        <time>2024-07-09T08:29:29Z</time>
      </trkpt>
      <trkpt lat="45.0858" lon="6.14783">
        <ele>1976.1</ele>
        <time>2024-07-09T08:29:30Z</time>
      </trkpt>
      <trkpt lat="45.08581" lon="6.14784">
        <ele>1976.1</ele>
        <time>2024-07-09T08:29:31Z</time>
      </trkpt>
      <trkpt lat="45.08582" lon="6.14784">
        <ele>1976.2</ele>
        <time>2024-07-09T08:29:32Z</time>
      </trkpt>
      <trkpt lat="45.08582" lon="6.14784">
        <ele>1976.2</ele>
        <time>2024-07-09T08:29:33Z</time>
      </trkpt>
      <trkpt lat="45.08583" lon="6.14785">
        <ele>1976.3</ele>
        <time>2024-07-09T08:29:34Z</time>
      </trkpt>
      <trkpt lat="45.08584" lon="6.14786">
        <ele>1976.4</ele>
        <time>2024-07-09T08:29:35Z</time>
      </trkpt>
      <trkpt lat="45.08584" lon="6.14787">
        <ele>1976.4</ele>
        <time>2024-07-09T08:29:36Z</time>
      </trkpt>
      <trkpt lat="45.08585" lon="6.14788">
        <ele>1976.5</ele>
        <time>2024-07-09T08:29:37Z</time>
      </trkpt>
      <trkpt lat="45.08586" lon="6.14789">
        <ele>1976.5</ele>
        <time>2024-07-09T08:29:38Z</time>
      </trkpt>
      <trkpt lat="45.08587" lon="6.1479">
        <ele>1976.6</ele>
        <time>2024-07-09T08:29:39Z</time>
      </trkpt>
      <trkpt lat="45.08588" lon="6.14791">
        <ele>1976.7</ele>
        <time>2024-07-09T08:29:41Z</time>
      </trkpt>
      <trkpt lat="45.08588" lon="6.14792">
        <ele>1976.7</ele>
        <time>2024-07-09T08:29:42Z</time>
      </trkpt>
      <trkpt lat="45.08589" lon="6.14793">
        <ele>1976.8</ele>
        <time>2024-07-09T08:29:43Z</time>
      </trkpt>
      <trkpt lat="45.0859" lon="6.14794">
        <ele>1976.9</ele>
        <time>2024-07-09T08:29:44Z</time>
      </trkpt>
      <trkpt lat="45.08591" lon="6.14795">
        <ele>1976.9</ele>
        <time>2024-07-09T08:29:45Z</time>
      </trkpt>
      <trkpt lat="45.08591" lon="6.14796">
        <ele>1977</ele>
        <time>2024-07-09T08:29:46Z</time>
      </trkpt>
      <trkpt lat="45.08592" lon="6.14798">
        <ele>1977.1</ele>
        <time>2024-07-09T08:29:47Z</time>
      </trkpt>
      <trkpt lat="45.08593" lon="6.14799">
        <ele>1977.1</ele>
        <time>2024-07-09T08:29:49Z</time>
      </trkpt>
      <trkpt lat="45.08594" lon="6.14801">
        <ele>1977.3</ele>
        <time>2024-07-09T08:29:50Z</time>
      </trkpt>
      <trkpt lat="45.08595" lon="6.14803">
        <ele>1977.3</ele>
        <time>2024-07-09T08:29:52Z</time>
      </trkpt>
      <trkpt lat="45.08596" lon="6.14803">
        <ele>1977.4</ele>
        <time>2024-07-09T08:29:53Z</time>
      </trkpt>
      <trkpt lat="45.08598" lon="6.14804">
        <ele>1977.5</ele>
        <time>2024-07-09T08:29:55Z</time>
      </trkpt>
      <trkpt lat="45.08599" lon="6.14805">
        <ele>1977.6</ele>
        <time>2024-07-09T08:29:56Z</time>
      </trkpt>
      <trkpt lat="45.08599" lon="6.14806">
        <ele>1977.7</ele>
        <time>2024-07-09T08:29:58Z</time>
      </trkpt>
      <trkpt lat="45.086" lon="6.14807">
        <ele>1977.7</ele>
        <time>2024-07-09T08:29:59Z</time>
      </trkpt>
      <trkpt lat="45.08601" lon="6.14807">
        <ele>1977.8</ele>
        <time>2024-07-09T08:30:00Z</time>
      </trkpt>
      <trkpt lat="45.08601" lon="6.14808">
        <ele>1977.8</ele>
        <time>2024-07-09T08:30:01Z</time>
      </trkpt>
      <trkpt lat="45.08602" lon="6.14809">
        <ele>1977.9</ele>
        <time>2024-07-09T08:30:02Z</time>
      </trkpt>
      <trkpt lat="45.08603" lon="6.14811">
        <ele>1978</ele>
        <time>2024-07-09T08:30:03Z</time>
      </trkpt>
      <trkpt lat="45.08603" lon="6.14812">
        <ele>1978.1</ele>
        <time>2024-07-09T08:30:04Z</time>
      </trkpt>
      <trkpt lat="45.08603" lon="6.14813">
        <ele>1978.1</ele>
        <time>2024-07-09T08:30:05Z</time>
      </trkpt>
      <trkpt lat="45.08602" lon="6.14814">
        <ele>1978.2</ele>
        <time>2024-07-09T08:30:06Z</time>
      </trkpt>
      <trkpt lat="45.08602" lon="6.14813">
        <ele>1978.2</ele>
        <time>2024-07-09T08:30:07Z</time>
      </trkpt>
      <trkpt lat="45.08603" lon="6.14813">
        <ele>1978.3</ele>
        <time>2024-07-09T08:30:08Z</time>
      </trkpt>
      <trkpt lat="45.08603" lon="6.14813">
        <ele>1978.3</ele>
        <time>2024-07-09T08:30:09Z</time>
      </trkpt>
      <trkpt lat="45.08603" lon="6.14813">
        <ele>1978.3</ele>
        <time>2024-07-09T08:30:10Z</time>
      </trkpt>
      <trkpt lat="45.08603" lon="6.14812">
        <ele>1978.4</ele>
        <time>2024-07-09T08:30:11Z</time>
      </trkpt>
      <trkpt lat="45.08604" lon="6.14812">
        <ele>1978.4</ele>
        <time>2024-07-09T08:30:12Z</time>
      </trkpt>
      <trkpt lat="45.08604" lon="6.14812">
        <ele>1978.4</ele>
        <time>2024-07-09T08:30:13Z</time>
      </trkpt>
      <trkpt lat="45.08604" lon="6.14812">
        <ele>1978.4</ele>
        <time>2024-07-09T08:30:15Z</time>
      </trkpt>
      <trkpt lat="45.08605" lon="6.14813">
        <ele>1978.5</ele>
        <time>2024-07-09T08:30:16Z</time>
      </trkpt>
      <trkpt lat="45.08606" lon="6.14814">
        <ele>1978.6</ele>
        <time>2024-07-09T08:30:17Z</time>
      </trkpt>
      <trkpt lat="45.08607" lon="6.14817">
        <ele>1978.8</ele>
        <time>2024-07-09T08:30:18Z</time>
      </trkpt>
      <trkpt lat="45.08608" lon="6.14818">
        <ele>1978.8</ele>
        <time>2024-07-09T08:30:19Z</time>
      </trkpt>
      <trkpt lat="45.08608" lon="6.14818">
        <ele>1978.9</ele>
        <time>2024-07-09T08:30:20Z</time>
      </trkpt>
      <trkpt lat="45.0861" lon="6.14819">
        <ele>1979</ele>
        <time>2024-07-09T08:30:21Z</time>
      </trkpt>
      <trkpt lat="45.08611" lon="6.1482">
        <ele>1979.1</ele>
        <time>2024-07-09T08:30:22Z</time>
      </trkpt>
      <trkpt lat="45.08613" lon="6.14822">
        <ele>1979.3</ele>
        <time>2024-07-09T08:30:23Z</time>
      </trkpt>
      <trkpt lat="45.08613" lon="6.14823">
        <ele>1979.4</ele>
        <time>2024-07-09T08:30:24Z</time>
      </trkpt>
      <trkpt lat="45.08614" lon="6.14824">
        <ele>1979.4</ele>
        <time>2024-07-09T08:30:25Z</time>
      </trkpt>
      <trkpt lat="45.08615" lon="6.14825">
        <ele>1979.5</ele>
        <time>2024-07-09T08:30:26Z</time>
      </trkpt>
      <trkpt lat="45.08616" lon="6.14827">
        <ele>1979.7</ele>
        <time>2024-07-09T08:30:27Z</time>
      </trkpt>
      <trkpt lat="45.08617" lon="6.14829">
        <ele>1979.8</ele>
        <time>2024-07-09T08:30:29Z</time>
      </trkpt>
      <trkpt lat="45.08618" lon="6.1483">
        <ele>1979.9</ele>
        <time>2024-07-09T08:30:30Z</time>
      </trkpt>
      <trkpt lat="45.08618" lon="6.14831">
        <ele>1980</ele>
        <time>2024-07-09T08:30:31Z</time>
      </trkpt>
      <trkpt lat="45.08619" lon="6.14832">
        <ele>1980</ele>
        <time>2024-07-09T08:30:32Z</time>
      </trkpt>
      <trkpt lat="45.0862" lon="6.14834">
        <ele>1980.2</ele>
        <time>2024-07-09T08:30:33Z</time>
      </trkpt>
      <trkpt lat="45.08621" lon="6.14835">
        <ele>1980.3</ele>
        <time>2024-07-09T08:30:35Z</time>
      </trkpt>
      <trkpt lat="45.08621" lon="6.14836">
        <ele>1980.4</ele>
        <time>2024-07-09T08:30:36Z</time>
      </trkpt>
      <trkpt lat="45.08622" lon="6.14837">
        <ele>1980.5</ele>
        <time>2024-07-09T08:30:37Z</time>
      </trkpt>
      <trkpt lat="45.08623" lon="6.14838">
        <ele>1980.5</ele>
        <time>2024-07-09T08:30:38Z</time>
      </trkpt>
      <trkpt lat="45.08624" lon="6.14839">
        <ele>1980.6</ele>
        <time>2024-07-09T08:30:39Z</time>
      </trkpt>
      <trkpt lat="45.08624" lon="6.1484">
        <ele>1980.7</ele>
        <time>2024-07-09T08:30:40Z</time>
      </trkpt>
      <trkpt lat="45.08625" lon="6.14841">
        <ele>1980.8</ele>
        <time>2024-07-09T08:30:41Z</time>
      </trkpt>
      <trkpt lat="45.08626" lon="6.14842">
        <ele>1980.9</ele>
        <time>2024-07-09T08:30:42Z</time>
      </trkpt>
      <trkpt lat="45.08627" lon="6.14844">
        <ele>1981</ele>
        <time>2024-07-09T08:30:43Z</time>
      </trkpt>
      <trkpt lat="45.08628" lon="6.14844">
        <ele>1981.1</ele>
        <time>2024-07-09T08:30:45Z</time>
      </trkpt>
      <trkpt lat="45.08629" lon="6.14845">
        <ele>1981.2</ele>
        <time>2024-07-09T08:30:46Z</time>
      </trkpt>
      <trkpt lat="45.08631" lon="6.14846">
        <ele>1981.4</ele>
        <time>2024-07-09T08:30:47Z</time>
      </trkpt>
      <trkpt lat="45.08632" lon="6.14847">
        <ele>1981.5</ele>
        <time>2024-07-09T08:30:49Z</time>
      </trkpt>
      <trkpt lat="45.08634" lon="6.14848">
        <ele>1981.6</ele>
        <time>2024-07-09T08:30:50Z</time>
      </trkpt>
      <trkpt lat="45.08635" lon="6.14849">
        <ele>1981.7</ele>
        <time>2024-07-09T08:30:52Z</time>
      </trkpt>
      <trkpt lat="45.08636" lon="6.14849">
        <ele>1981.8</ele>
        <time>2024-07-09T08:30:53Z</time>
      </trkpt>
      <trkpt lat="45.08637" lon="6.14852">
        <ele>1981.9</ele>
        <time>2024-07-09T08:30:54Z</time>
      </trkpt>
      <trkpt lat="45.08638" lon="6.14852">
        <ele>1982</ele>
        <time>2024-07-09T08:30:56Z</time>
      </trkpt>
      <trkpt lat="45.08639" lon="6.14853">
        <ele>1982.1</ele>
        <time>2024-07-09T08:30:57Z</time>
      </trkpt>
      <trkpt lat="45.0864" lon="6.14854">
        <ele>1982.2</ele>
        <time>2024-07-09T08:30:58Z</time>
      </trkpt>
      <trkpt lat="45.08642" lon="6.14855">
        <ele>1982.4</ele>
        <time>2024-07-09T08:30:59Z</time>
      </trkpt>
      <trkpt lat="45.08642" lon="6.14855">
        <ele>1982.4</ele>
        <time>2024-07-09T08:31:00Z</time>
      </trkpt>
      <trkpt lat="45.08643" lon="6.14856">
        <ele>1982.5</ele>
        <time>2024-07-09T08:31:01Z</time>
      </trkpt>
      <trkpt lat="45.08644" lon="6.14859">
        <ele>1982.7</ele>
        <time>2024-07-09T08:31:02Z</time>
      </trkpt>
      <trkpt lat="45.08645" lon="6.1486">
        <ele>1982.8</ele>
        <time>2024-07-09T08:31:04Z</time>
      </trkpt>
      <trkpt lat="45.08646" lon="6.1486">
        <ele>1982.9</ele>
        <time>2024-07-09T08:31:05Z</time>
      </trkpt>
      <trkpt lat="45.08648" lon="6.14861">
        <ele>1983.1</ele>
        <time>2024-07-09T08:31:06Z</time>
      </trkpt>
      <trkpt lat="45.0865" lon="6.14862">
        <ele>1983.3</ele>
        <time>2024-07-09T08:31:08Z</time>
      </trkpt>
      <trkpt lat="45.08651" lon="6.14862">
        <ele>1983.3</ele>
        <time>2024-07-09T08:31:09Z</time>
      </trkpt>
      <trkpt lat="45.08653" lon="6.14864">
        <ele>1983.6</ele>
        <time>2024-07-09T08:31:10Z</time>
      </trkpt>
      <trkpt lat="45.08654" lon="6.14866">
        <ele>1983.7</ele>
        <time>2024-07-09T08:31:12Z</time>
      </trkpt>
      <trkpt lat="45.08656" lon="6.14868">
        <ele>1983.9</ele>
        <time>2024-07-09T08:31:13Z</time>
      </trkpt>
      <trkpt lat="45.08657" lon="6.14869">
        <ele>1984</ele>
        <time>2024-07-09T08:31:15Z</time>
      </trkpt>
      <trkpt lat="45.08658" lon="6.14869">
        <ele>1984</ele>
        <time>2024-07-09T08:31:16Z</time>
      </trkpt>
      <trkpt lat="45.0866" lon="6.1487">
        <ele>1984.2</ele>
        <time>2024-07-09T08:31:17Z</time>
      </trkpt>
      <trkpt lat="45.08661" lon="6.1487">
        <ele>1984.3</ele>
        <time>2024-07-09T08:31:19Z</time>
      </trkpt>
      <trkpt lat="45.08663" lon="6.14871">
        <ele>1984.5</ele>
        <time>2024-07-09T08:31:20Z</time>
      </trkpt>
      <trkpt lat="45.08664" lon="6.14871">
        <ele>1984.6</ele>
        <time>2024-07-09T08:31:22Z</time>
      </trkpt>
      <trkpt lat="45.08665" lon="6.14872">
        <ele>1984.7</ele>
        <time>2024-07-09T08:31:23Z</time>
      </trkpt>
      <trkpt lat="45.08667" lon="6.14873">
        <ele>1984.9</ele>
        <time>2024-07-09T08:31:24Z</time>
      </trkpt>
      <trkpt lat="45.08668" lon="6.14874">
        <ele>1985</ele>
        <time>2024-07-09T08:31:25Z</time>
      </trkpt>
      <trkpt lat="45.08669" lon="6.14875">
        <ele>1985.1</ele>
        <time>2024-07-09T08:31:27Z</time>
      </trkpt>
      <trkpt lat="45.0867" lon="6.14876">
        <ele>1985.2</ele>
        <time>2024-07-09T08:31:28Z</time>
      </trkpt>
      <trkpt lat="45.08671" lon="6.14877">
        <ele>1985.3</ele>
        <time>2024-07-09T08:31:29Z</time>
      </trkpt>
      <trkpt lat="45.08671" lon="6.14878">
        <ele>1985.4</ele>
        <time>2024-07-09T08:31:30Z</time>
      </trkpt>
      <trkpt lat="45.08672" lon="6.14879">
        <ele>1985.5</ele>
        <time>2024-07-09T08:31:31Z</time>
      </trkpt>
      <trkpt lat="45.08675" lon="6.1488">
        <ele>1985.7</ele>
        <time>2024-07-09T08:31:32Z</time>
      </trkpt>
      <trkpt lat="45.08675" lon="6.14881">
        <ele>1985.8</ele>
        <time>2024-07-09T08:31:34Z</time>
      </trkpt>
      <trkpt lat="45.08676" lon="6.14882">
        <ele>1985.9</ele>
        <time>2024-07-09T08:31:35Z</time>
      </trkpt>
      <trkpt lat="45.08677" lon="6.14882">
        <ele>1986</ele>
        <time>2024-07-09T08:31:36Z</time>
      </trkpt>
      <trkpt lat="45.08679" lon="6.14883">
        <ele>1986.2</ele>
        <time>2024-07-09T08:31:37Z</time>
      </trkpt>
      <trkpt lat="45.0868" lon="6.14883">
        <ele>1986.2</ele>
        <time>2024-07-09T08:31:38Z</time>
      </trkpt>
      <trkpt lat="45.08681" lon="6.14883">
        <ele>1986.3</ele>
        <time>2024-07-09T08:31:39Z</time>
      </trkpt>
      <trkpt lat="45.08683" lon="6.14885">
        <ele>1986.5</ele>
        <time>2024-07-09T08:31:40Z</time>
      </trkpt>
      <trkpt lat="45.08683" lon="6.14888">
        <ele>1986.7</ele>
        <time>2024-07-09T08:31:42Z</time>
      </trkpt>
      <trkpt lat="45.08684" lon="6.14889">
        <ele>1986.8</ele>
        <time>2024-07-09T08:31:43Z</time>
      </trkpt>
      <trkpt lat="45.08685" lon="6.1489">
        <ele>1986.9</ele>
        <time>2024-07-09T08:31:44Z</time>
      </trkpt>
      <trkpt lat="45.08685" lon="6.14891">
        <ele>1987</ele>
        <time>2024-07-09T08:31:45Z</time>
      </trkpt>
      <trkpt lat="45.08687" lon="6.14894">
        <ele>1987.2</ele>
        <time>2024-07-09T08:31:46Z</time>
      </trkpt>
      <trkpt lat="45.08688" lon="6.14895">
        <ele>1987.3</ele>
        <time>2024-07-09T08:31:47Z</time>
      </trkpt>
      <trkpt lat="45.08689" lon="6.14896">
        <ele>1987.4</ele>
        <time>2024-07-09T08:31:48Z</time>
      </trkpt>
      <trkpt lat="45.0869" lon="6.14897">
        <ele>1987.5</ele>
        <time>2024-07-09T08:31:50Z</time>
      </trkpt>
      <trkpt lat="45.08691" lon="6.14898">
        <ele>1987.6</ele>
        <time>2024-07-09T08:31:51Z</time>
      </trkpt>
      <trkpt lat="45.08692" lon="6.14899">
        <ele>1987.7</ele>
        <time>2024-07-09T08:31:52Z</time>
      </trkpt>
      <trkpt lat="45.08693" lon="6.149">
        <ele>1987.8</ele>
        <time>2024-07-09T08:31:53Z</time>
      </trkpt>
      <trkpt lat="45.08694" lon="6.149">
        <ele>1987.9</ele>
        <time>2024-07-09T08:31:54Z</time>
      </trkpt>
      <trkpt lat="45.08696" lon="6.149">
        <ele>1988.1</ele>
        <time>2024-07-09T08:31:55Z</time>
      </trkpt>
      <trkpt lat="45.08697" lon="6.149">
        <ele>1988.2</ele>
        <time>2024-07-09T08:31:56Z</time>
      </trkpt>
      <trkpt lat="45.08698" lon="6.14899">
        <ele>1988.3</ele>
        <time>2024-07-09T08:31:58Z</time>
      </trkpt>
      <trkpt lat="45.08699" lon="6.14899">
        <ele>1988.4</ele>
        <time>2024-07-09T08:31:59Z</time>
      </trkpt>
      <trkpt lat="45.087" lon="6.14898">
        <ele>1988.5</ele>
        <time>2024-07-09T08:32:00Z</time>
      </trkpt>
      <trkpt lat="45.08702" lon="6.14898">
        <ele>1988.7</ele>
        <time>2024-07-09T08:32:01Z</time>
      </trkpt>
      <trkpt lat="45.08704" lon="6.14898">
        <ele>1988.8</ele>
        <time>2024-07-09T08:32:02Z</time>
      </trkpt>
      <trkpt lat="45.08705" lon="6.14898">
        <ele>1989</ele>
        <time>2024-07-09T08:32:03Z</time>
      </trkpt>
      <trkpt lat="45.08707" lon="6.14898">
        <ele>1989.3</ele>
        <time>2024-07-09T08:32:05Z</time>
      </trkpt>
      <trkpt lat="45.08707" lon="6.14899">
        <ele>1989.3</ele>
        <time>2024-07-09T08:32:06Z</time>
      </trkpt>
      <trkpt lat="45.08709" lon="6.14899">
        <ele>1989.5</ele>
        <time>2024-07-09T08:32:07Z</time>
      </trkpt>
      <trkpt lat="45.0871" lon="6.149">
        <ele>1989.7</ele>
        <time>2024-07-09T08:32:08Z</time>
      </trkpt>
      <trkpt lat="45.08711" lon="6.149">
        <ele>1989.8</ele>
        <time>2024-07-09T08:32:09Z</time>
      </trkpt>
      <trkpt lat="45.08712" lon="6.14901">
        <ele>1990</ele>
        <time>2024-07-09T08:32:10Z</time>
      </trkpt>
      <trkpt lat="45.08714" lon="6.14902">
        <ele>1990.3</ele>
        <time>2024-07-09T08:32:11Z</time>
      </trkpt>
      <trkpt lat="45.08716" lon="6.14902">
        <ele>1990.4</ele>
        <time>2024-07-09T08:32:13Z</time>
      </trkpt>
      <trkpt lat="45.08717" lon="6.14902">
        <ele>1990.5</ele>
        <time>2024-07-09T08:32:14Z</time>
      </trkpt>
      <trkpt lat="45.08717" lon="6.14902">
        <ele>1990.6</ele>
        <time>2024-07-09T08:32:15Z</time>
      </trkpt>
      <trkpt lat="45.08718" lon="6.14902">
        <ele>1990.7</ele>
        <time>2024-07-09T08:32:16Z</time>
      </trkpt>
      <trkpt lat="45.08719" lon="6.14902">
        <ele>1990.9</ele>
        <time>2024-07-09T08:32:17Z</time>
      </trkpt>
      <trkpt lat="45.0872" lon="6.14903">
        <ele>1991</ele>
        <time>2024-07-09T08:32:18Z</time>
      </trkpt>
      <trkpt lat="45.08721" lon="6.14903">
        <ele>1991.1</ele>
        <time>2024-07-09T08:32:19Z</time>
      </trkpt>
      <trkpt lat="45.08722" lon="6.14904">
        <ele>1991.2</ele>
        <time>2024-07-09T08:32:20Z</time>
      </trkpt>
      <trkpt lat="45.08723" lon="6.14904">
        <ele>1991.3</ele>
        <time>2024-07-09T08:32:21Z</time>
      </trkpt>
      <trkpt lat="45.08724" lon="6.14905">
        <ele>1991.5</ele>
        <time>2024-07-09T08:32:22Z</time>
      </trkpt>
      <trkpt lat="45.08725" lon="6.14905">
        <ele>1991.6</ele>
        <time>2024-07-09T08:32:23Z</time>
      </trkpt>
      <trkpt lat="45.08726" lon="6.14905">
        <ele>1991.7</ele>
        <time>2024-07-09T08:32:24Z</time>
      </trkpt>
      <trkpt lat="45.08727" lon="6.14905">
        <ele>1991.9</ele>
        <time>2024-07-09T08:32:25Z</time>
      </trkpt>
      <trkpt lat="45.08728" lon="6.14905">
        <ele>1992</ele>
        <time>2024-07-09T08:32:26Z</time>
      </trkpt>
      <trkpt lat="45.08729" lon="6.14905">
        <ele>1992.1</ele>
        <time>2024-07-09T08:32:27Z</time>
      </trkpt>
      <trkpt lat="45.0873" lon="6.14905">
        <ele>1992.2</ele>
        <time>2024-07-09T08:32:28Z</time>
      </trkpt>
      <trkpt lat="45.08731" lon="6.14905">
        <ele>1992.4</ele>
        <time>2024-07-09T08:32:29Z</time>
      </trkpt>
      <trkpt lat="45.08732" lon="6.14905">
        <ele>1992.5</ele>
        <time>2024-07-09T08:32:30Z</time>
      </trkpt>
      <trkpt lat="45.08733" lon="6.14905">
        <ele>1992.7</ele>
        <time>2024-07-09T08:32:31Z</time>
      </trkpt>
      <trkpt lat="45.08734" lon="6.14905">
        <ele>1992.8</ele>
        <time>2024-07-09T08:32:32Z</time>
      </trkpt>
      <trkpt lat="45.08736" lon="6.14904">
        <ele>1993</ele>
        <time>2024-07-09T08:32:33Z</time>
      </trkpt>
      <trkpt lat="45.08737" lon="6.14904">
        <ele>1993.1</ele>
        <time>2024-07-09T08:32:35Z</time>
      </trkpt>
      <trkpt lat="45.08738" lon="6.14905">
        <ele>1993.1</ele>
        <time>2024-07-09T08:32:36Z</time>
      </trkpt>
      <trkpt lat="45.0874" lon="6.14905">
        <ele>1993.1</ele>
        <time>2024-07-09T08:32:37Z</time>
      </trkpt>
      <trkpt lat="45.08741" lon="6.14905">
        <ele>1993.1</ele>
        <time>2024-07-09T08:32:39Z</time>
      </trkpt>
      <trkpt lat="45.08741" lon="6.14906">
        <ele>1993.1</ele>
        <time>2024-07-09T08:32:40Z</time>
      </trkpt>
      <trkpt lat="45.08743" lon="6.14906">
        <ele>1993.1</ele>
        <time>2024-07-09T08:32:41Z</time>
      </trkpt>
      <trkpt lat="45.08743" lon="6.14907">
        <ele>1993.1</ele>
        <time>2024-07-09T08:32:42Z</time>
      </trkpt>
      <trkpt lat="45.08746" lon="6.14907">
        <ele>1993.1</ele>
        <time>2024-07-09T08:32:43Z</time>
      </trkpt>
      <trkpt lat="45.08746" lon="6.14907">
        <ele>1993.1</ele>
        <time>2024-07-09T08:32:45Z</time>
      </trkpt>
      <trkpt lat="45.08747" lon="6.14907">
        <ele>1993.1</ele>
        <time>2024-07-09T08:32:46Z</time>
      </trkpt>
      <trkpt lat="45.08748" lon="6.14907">
        <ele>1993.1</ele>
        <time>2024-07-09T08:32:47Z</time>
      </trkpt>
      <trkpt lat="45.08749" lon="6.14907">
        <ele>1993.1</ele>
        <time>2024-07-09T08:32:48Z</time>
      </trkpt>
      <trkpt lat="45.08751" lon="6.14907">
        <ele>1993.1</ele>
        <time>2024-07-09T08:32:49Z</time>
      </trkpt>
      <trkpt lat="45.08752" lon="6.14907">
        <ele>1993.1</ele>
        <time>2024-07-09T08:32:50Z</time>
      </trkpt>
      <trkpt lat="45.08751" lon="6.14908">
        <ele>1993.1</ele>
        <time>2024-07-09T08:32:52Z</time>
      </trkpt>
      <trkpt lat="45.08751" lon="6.14908">
        <ele>1993.1</ele>
        <time>2024-07-09T08:32:53Z</time>
      </trkpt>
      <trkpt lat="45.08751" lon="6.14908">
        <ele>1993.1</ele>
        <time>2024-07-09T08:32:54Z</time>
      </trkpt>
      <trkpt lat="45.08751" lon="6.14908">
        <ele>1993.1</ele>
        <time>2024-07-09T08:32:55Z</time>
      </trkpt>
      <trkpt lat="45.0875" lon="6.14908">
        <ele>1993.1</ele>
        <time>2024-07-09T08:32:56Z</time>
      </trkpt>
      <trkpt lat="45.0875" lon="6.14908">
        <ele>1993.1</ele>
        <time>2024-07-09T08:32:57Z</time>
      </trkpt>
      <trkpt lat="45.0875" lon="6.14908">
        <ele>1993.1</ele>
        <time>2024-07-09T08:32:58Z</time>
      </trkpt>
      <trkpt lat="45.08749" lon="6.14909">
        <ele>1993.1</ele>
        <time>2024-07-09T08:32:59Z</time>
      </trkpt>
      <trkpt lat="45.08749" lon="6.14909">
        <ele>1993.1</ele>
        <time>2024-07-09T08:33:00Z</time>
      </trkpt>
      <trkpt lat="45.08749" lon="6.14909">
        <ele>1993.1</ele>
        <time>2024-07-09T08:33:01Z</time>
      </trkpt>
      <trkpt lat="45.08749" lon="6.14909">
        <ele>1993.1</ele>
        <time>2024-07-09T08:33:02Z</time>
      </trkpt>
      <trkpt lat="45.08748" lon="6.14909">
        <ele>1993.1</ele>
        <time>2024-07-09T08:33:04Z</time>
      </trkpt>
      <trkpt lat="45.08748" lon="6.14909">
        <ele>1993.1</ele>
        <time>2024-07-09T08:33:05Z</time>
      </trkpt>
      <trkpt lat="45.08748" lon="6.1491">
        <ele>1993.1</ele>
        <time>2024-07-09T08:33:06Z</time>
      </trkpt>
      <trkpt lat="45.08746" lon="6.14909">
        <ele>1993.1</ele>
        <time>2024-07-09T08:33:07Z</time>
      </trkpt>
      <trkpt lat="45.08745" lon="6.14908">
        <ele>1993.1</ele>
        <time>2024-07-09T08:33:08Z</time>
      </trkpt>
      <trkpt lat="45.08744" lon="6.14906">
        <ele>1993.1</ele>
        <time>2024-07-09T08:33:09Z</time>
      </trkpt>
      <trkpt lat="45.08743" lon="6.14905">
        <ele>1993.1</ele>
        <time>2024-07-09T08:33:11Z</time>
      </trkpt>
      <trkpt lat="45.08742" lon="6.14906">
        <ele>1993.1</ele>
        <time>2024-07-09T08:33:12Z</time>
      </trkpt>
      <trkpt lat="45.08741" lon="6.14906">
        <ele>1993.1</ele>
        <time>2024-07-09T08:33:13Z</time>
      </trkpt>
      <trkpt lat="45.0874" lon="6.14907">
        <ele>1993.1</ele>
        <time>2024-07-09T08:33:14Z</time>
      </trkpt>
      <trkpt lat="45.0874" lon="6.14906">
        <ele>1993.1</ele>
        <time>2024-07-09T08:33:15Z</time>
      </trkpt>
      <trkpt lat="45.08739" lon="6.14906">
        <ele>1993.1</ele>
        <time>2024-07-09T08:33:16Z</time>
      </trkpt>
      <trkpt lat="45.0874" lon="6.14906">
        <ele>1993.1</ele>
        <time>2024-07-09T08:33:17Z</time>
      </trkpt>
      <trkpt lat="45.0874" lon="6.14906">
        <ele>1993.1</ele>
        <time>2024-07-09T08:33:18Z</time>
      </trkpt>
      <trkpt lat="45.0874" lon="6.14907">
        <ele>1993.1</ele>
        <time>2024-07-09T08:33:19Z</time>
      </trkpt>
      <trkpt lat="45.0874" lon="6.14907">
        <ele>1993.1</ele>
        <time>2024-07-09T08:33:20Z</time>
      </trkpt>
      <trkpt lat="45.0874" lon="6.14907">
        <ele>1993.1</ele>
        <time>2024-07-09T08:33:21Z</time>
      </trkpt>
      <trkpt lat="45.0874" lon="6.14907">
        <ele>1993.1</ele>
        <time>2024-07-09T08:33:22Z</time>
      </trkpt>
      <trkpt lat="45.0874" lon="6.14907">
        <ele>1993.1</ele>
        <time>2024-07-09T08:33:23Z</time>
      </trkpt>
      <trkpt lat="45.0874" lon="6.14907">
        <ele>1993.1</ele>
        <time>2024-07-09T08:33:24Z</time>
      </trkpt>
      <trkpt lat="45.0874" lon="6.14907">
        <ele>1993.1</ele>
        <time>2024-07-09T08:33:25Z</time>
      </trkpt>
      <trkpt lat="45.08739" lon="6.14907">
        <ele>1993.1</ele>
        <time>2024-07-09T08:33:26Z</time>
      </trkpt>
      <trkpt lat="45.08739" lon="6.14907">
        <ele>1993.1</ele>
        <time>2024-07-09T08:33:27Z</time>
      </trkpt>
      <trkpt lat="45.08738" lon="6.14908">
        <ele>1993.1</ele>
        <time>2024-07-09T08:33:28Z</time>
      </trkpt>
      <trkpt lat="45.08737" lon="6.14908">
        <ele>1993.1</ele>
        <time>2024-07-09T08:33:29Z</time>
      </trkpt>
      <trkpt lat="45.08737" lon="6.14908">
        <ele>1993.1</ele>
        <time>2024-07-09T08:33:30Z</time>
      </trkpt>
      <trkpt lat="45.08738" lon="6.14908">
        <ele>1993.1</ele>
        <time>2024-07-09T08:33:31Z</time>
      </trkpt>
      <trkpt lat="45.08738" lon="6.14908">
        <ele>1993.1</ele>
        <time>2024-07-09T08:33:32Z</time>
      </trkpt>
      <trkpt lat="45.08738" lon="6.14908">
        <ele>1993.1</ele>
        <time>2024-07-09T08:33:33Z</time>
      </trkpt>
      <trkpt lat="45.08738" lon="6.14908">
        <ele>1993.1</ele>
        <time>2024-07-09T08:33:34Z</time>
      </trkpt>
      <trkpt lat="45.08738" lon="6.14908">
        <ele>1993.1</ele>
        <time>2024-07-09T08:33:35Z</time>
      </trkpt>
      <trkpt lat="45.08738" lon="6.14908">
        <ele>1993.1</ele>
        <time>2024-07-09T08:33:36Z</time>
      </trkpt>
      <trkpt lat="45.08738" lon="6.14908">
        <ele>1993.1</ele>
        <time>2024-07-09T08:33:37Z</time>
      </trkpt>
      <trkpt lat="45.08738" lon="6.14908">
        <ele>1993.1</ele>
        <time>2024-07-09T08:33:38Z</time>
      </trkpt>
      <trkpt lat="45.08738" lon="6.14908">
        <ele>1993.1</ele>
        <time>2024-07-09T08:33:39Z</time>
      </trkpt>
      <trkpt lat="45.08738" lon="6.14908">
        <ele>1993.1</ele>
        <time>2024-07-09T08:33:40Z</time>
      </trkpt>
      <trkpt lat="45.08738" lon="6.14907">
        <ele>1993.1</ele>
        <time>2024-07-09T08:33:41Z</time>
      </trkpt>
      <trkpt lat="45.08737" lon="6.14907">
        <ele>1993.1</ele>
        <time>2024-07-09T08:33:42Z</time>
      </trkpt>
      <trkpt lat="45.08737" lon="6.14908">
        <ele>1993.1</ele>
        <time>2024-07-09T08:33:43Z</time>
      </trkpt>
      <trkpt lat="45.08737" lon="6.14908">
        <ele>1993.1</ele>
        <time>2024-07-09T08:33:45Z</time>
      </trkpt>
      <trkpt lat="45.08737" lon="6.14908">
        <ele>1993.1</ele>
        <time>2024-07-09T08:33:46Z</time>
      </trkpt>
      <trkpt lat="45.08737" lon="6.14908">
        <ele>1993.1</ele>
        <time>2024-07-09T08:33:47Z</time>
      </trkpt>
      <trkpt lat="45.08737" lon="6.14908">
        <ele>1993.1</ele>
        <time>2024-07-09T08:33:48Z</time>
      </trkpt>
      <trkpt lat="45.08737" lon="6.14908">
        <ele>1993.1</ele>
        <time>2024-07-09T08:33:49Z</time>
      </trkpt>
      <trkpt lat="45.08737" lon="6.14908">
        <ele>1993.1</ele>
        <time>2024-07-09T08:33:50Z</time>
      </trkpt>
      <trkpt lat="45.08737" lon="6.14908">
        <ele>1993.1</ele>
        <time>2024-07-09T08:33:51Z</time>
      </trkpt>
      <trkpt lat="45.08737" lon="6.14908">
        <ele>1993.1</ele>
        <time>2024-07-09T08:33:52Z</time>
      </trkpt>
      <trkpt lat="45.08737" lon="6.14908">
        <ele>1993.1</ele>
        <time>2024-07-09T08:33:53Z</time>
      </trkpt>
      <trkpt lat="45.08737" lon="6.14908">
        <ele>1993.1</ele>
        <time>2024-07-09T08:33:54Z</time>
      </trkpt>
      <trkpt lat="45.08737" lon="6.14908">
        <ele>1993.1</ele>
        <time>2024-07-09T08:33:55Z</time>
      </trkpt>
      <trkpt lat="45.08737" lon="6.14908">
        <ele>1993.1</ele>
        <time>2024-07-09T08:33:56Z</time>
      </trkpt>
      <trkpt lat="45.08737" lon="6.14908">
        <ele>1993.1</ele>
        <time>2024-07-09T08:33:57Z</time>
      </trkpt>
      <trkpt lat="45.08737" lon="6.14908">
        <ele>1993.1</ele>
        <time>2024-07-09T08:33:58Z</time>
      </trkpt>
      <trkpt lat="45.08737" lon="6.14908">
        <ele>1993.1</ele>
        <time>2024-07-09T08:33:59Z</time>
      </trkpt>
      <trkpt lat="45.08737" lon="6.14908">
        <ele>1993.1</ele>
        <time>2024-07-09T08:34:00Z</time>
      </trkpt>
      <trkpt lat="45.08737" lon="6.14908">
        <ele>1993.1</ele>
        <time>2024-07-09T08:34:01Z</time>
      </trkpt>
      <trkpt lat="45.08737" lon="6.14908">
        <ele>1993.1</ele>
        <time>2024-07-09T08:34:02Z</time>
      </trkpt>
      <trkpt lat="45.08737" lon="6.14908">
        <ele>1993</ele>
        <time>2024-07-09T08:34:03Z</time>
      </trkpt>
      <trkpt lat="45.08737" lon="6.14908">
        <ele>1993</ele>
        <time>2024-07-09T08:34:04Z</time>
      </trkpt>
      <trkpt lat="45.08737" lon="6.14909">
        <ele>1993</ele>
        <time>2024-07-09T08:34:05Z</time>
      </trkpt>
      <trkpt lat="45.08737" lon="6.14909">
        <ele>1993</ele>
        <time>2024-07-09T08:34:06Z</time>
      </trkpt>
      <trkpt lat="45.08737" lon="6.14909">
        <ele>1993</ele>
        <time>2024-07-09T08:34:07Z</time>
      </trkpt>
      <trkpt lat="45.08737" lon="6.14909">
        <ele>1993</ele>
        <time>2024-07-09T08:34:08Z</time>
      </trkpt>
      <trkpt lat="45.08737" lon="6.14909">
        <ele>1993</ele>
        <time>2024-07-09T08:34:09Z</time>
      </trkpt>
      <trkpt lat="45.08737" lon="6.14909">
        <ele>1993</ele>
        <time>2024-07-09T08:34:10Z</time>
      </trkpt>
      <trkpt lat="45.08737" lon="6.14909">
        <ele>1993</ele>
        <time>2024-07-09T08:34:11Z</time>
      </trkpt>
      <trkpt lat="45.08737" lon="6.14909">
        <ele>1993</ele>
        <time>2024-07-09T08:34:12Z</time>
      </trkpt>
      <trkpt lat="45.08737" lon="6.14909">
        <ele>1993</ele>
        <time>2024-07-09T08:34:13Z</time>
      </trkpt>
      <trkpt lat="45.08737" lon="6.14909">
        <ele>1993</ele>
        <time>2024-07-09T08:34:14Z</time>
      </trkpt>
      <trkpt lat="45.08737" lon="6.14909">
        <ele>1993</ele>
        <time>2024-07-09T08:34:15Z</time>
      </trkpt>
      <trkpt lat="45.08737" lon="6.14909">
        <ele>1993</ele>
        <time>2024-07-09T08:34:16Z</time>
      </trkpt>
      <trkpt lat="45.08737" lon="6.14909">
        <ele>1993</ele>
        <time>2024-07-09T08:34:17Z</time>
      </trkpt>
      <trkpt lat="45.08737" lon="6.14909">
        <ele>1993</ele>
        <time>2024-07-09T08:34:18Z</time>
      </trkpt>
      <trkpt lat="45.08737" lon="6.14909">
        <ele>1993</ele>
        <time>2024-07-09T08:34:19Z</time>
      </trkpt>
      <trkpt lat="45.08737" lon="6.14909">
        <ele>1993</ele>
        <time>2024-07-09T08:34:20Z</time>
      </trkpt>
      <trkpt lat="45.08737" lon="6.14909">
        <ele>1993</ele>
        <time>2024-07-09T08:34:21Z</time>
      </trkpt>
      <trkpt lat="45.08737" lon="6.14909">
        <ele>1993</ele>
        <time>2024-07-09T08:34:22Z</time>
      </trkpt>
      <trkpt lat="45.08737" lon="6.14909">
        <ele>1992.9</ele>
        <time>2024-07-09T08:34:23Z</time>
      </trkpt>
      <trkpt lat="45.08737" lon="6.14909">
        <ele>1992.9</ele>
        <time>2024-07-09T08:34:24Z</time>
      </trkpt>
      <trkpt lat="45.08737" lon="6.14909">
        <ele>1992.9</ele>
        <time>2024-07-09T08:34:25Z</time>
      </trkpt>
      <trkpt lat="45.08737" lon="6.14909">
        <ele>1992.9</ele>
        <time>2024-07-09T08:34:26Z</time>
      </trkpt>
      <trkpt lat="45.08737" lon="6.14909">
        <ele>1992.9</ele>
        <time>2024-07-09T08:34:27Z</time>
      </trkpt>
      <trkpt lat="45.08737" lon="6.14909">
        <ele>1992.9</ele>
        <time>2024-07-09T08:34:28Z</time>
      </trkpt>
      <trkpt lat="45.08737" lon="6.14909">
        <ele>1992.9</ele>
        <time>2024-07-09T08:34:29Z</time>
      </trkpt>
      <trkpt lat="45.08737" lon="6.14909">
        <ele>1992.9</ele>
        <time>2024-07-09T08:34:30Z</time>
      </trkpt>
      <trkpt lat="45.08737" lon="6.14909">
        <ele>1992.9</ele>
        <time>2024-07-09T08:34:31Z</time>
      </trkpt>
      <trkpt lat="45.08737" lon="6.14909">
        <ele>1992.9</ele>
        <time>2024-07-09T08:34:32Z</time>
      </trkpt>
      <trkpt lat="45.08737" lon="6.14909">
        <ele>1992.9</ele>
        <time>2024-07-09T08:34:33Z</time>
      </trkpt>
      <trkpt lat="45.08737" lon="6.14909">
        <ele>1992.9</ele>
        <time>2024-07-09T08:34:34Z</time>
      </trkpt>
      <trkpt lat="45.08737" lon="6.14909">
        <ele>1992.9</ele>
        <time>2024-07-09T08:34:35Z</time>
      </trkpt>
      <trkpt lat="45.08737" lon="6.14909">
        <ele>1992.9</ele>
        <time>2024-07-09T08:34:36Z</time>
      </trkpt>
      <trkpt lat="45.08737" lon="6.14909">
        <ele>1992.9</ele>
        <time>2024-07-09T08:34:37Z</time>
      </trkpt>
      <trkpt lat="45.08737" lon="6.14909">
        <ele>1992.9</ele>
        <time>2024-07-09T08:34:38Z</time>
      </trkpt>
      <trkpt lat="45.08737" lon="6.14909">
        <ele>1992.9</ele>
        <time>2024-07-09T08:34:39Z</time>
      </trkpt>
      <trkpt lat="45.08737" lon="6.14909">
        <ele>1992.9</ele>
        <time>2024-07-09T08:34:40Z</time>
      </trkpt>
      <trkpt lat="45.08737" lon="6.14909">
        <ele>1992.9</ele>
        <time>2024-07-09T08:34:41Z</time>
      </trkpt>
      <trkpt lat="45.08737" lon="6.14909">
        <ele>1992.9</ele>
        <time>2024-07-09T08:34:42Z</time>
      </trkpt>
      <trkpt lat="45.08737" lon="6.14909">
        <ele>1992.9</ele>
        <time>2024-07-09T08:34:43Z</time>
      </trkpt>
      <trkpt lat="45.08737" lon="6.14909">
        <ele>1992.9</ele>
        <time>2024-07-09T08:34:44Z</time>
      </trkpt>
      <trkpt lat="45.08737" lon="6.14909">
        <ele>1992.9</ele>
        <time>2024-07-09T08:34:45Z</time>
      </trkpt>
      <trkpt lat="45.08737" lon="6.14909">
        <ele>1992.9</ele>
        <time>2024-07-09T08:34:46Z</time>
      </trkpt>
      <trkpt lat="45.08737" lon="6.14909">
        <ele>1992.9</ele>
        <time>2024-07-09T08:34:47Z</time>
      </trkpt>
      <trkpt lat="45.08737" lon="6.14909">
        <ele>1992.9</ele>
        <time>2024-07-09T08:34:48Z</time>
      </trkpt>
      <trkpt lat="45.08737" lon="6.14909">
        <ele>1992.9</ele>
        <time>2024-07-09T08:34:49Z</time>
      </trkpt>
      <trkpt lat="45.08737" lon="6.14909">
        <ele>1992.9</ele>
        <time>2024-07-09T08:34:50Z</time>
      </trkpt>
      <trkpt lat="45.08737" lon="6.14909">
        <ele>1992.9</ele>
        <time>2024-07-09T08:34:51Z</time>
      </trkpt>
      <trkpt lat="45.08737" lon="6.14909">
        <ele>1992.9</ele>
        <time>2024-07-09T08:34:52Z</time>
      </trkpt>
      <trkpt lat="45.08737" lon="6.14909">
        <ele>1992.9</ele>
        <time>2024-07-09T08:34:53Z</time>
      </trkpt>
      <trkpt lat="45.08737" lon="6.14909">
        <ele>1992.9</ele>
        <time>2024-07-09T08:34:54Z</time>
      </trkpt>
      <trkpt lat="45.08737" lon="6.14909">
        <ele>1992.9</ele>
        <time>2024-07-09T08:34:55Z</time>
      </trkpt>
      <trkpt lat="45.08737" lon="6.14909">
        <ele>1992.9</ele>
        <time>2024-07-09T08:34:56Z</time>
      </trkpt>
      <trkpt lat="45.08737" lon="6.14909">
        <ele>1992.9</ele>
        <time>2024-07-09T08:34:57Z</time>
      </trkpt>
      <trkpt lat="45.08737" lon="6.14909">
        <ele>1992.9</ele>
        <time>2024-07-09T08:34:58Z</time>
      </trkpt>
      <trkpt lat="45.08737" lon="6.14909">
        <ele>1992.9</ele>
        <time>2024-07-09T08:34:59Z</time>
      </trkpt>
      <trkpt lat="45.08737" lon="6.14909">
        <ele>1992.8</ele>
        <time>2024-07-09T08:35:00Z</time>
      </trkpt>
      <trkpt lat="45.08737" lon="6.14909">
        <ele>1992.8</ele>
        <time>2024-07-09T08:35:01Z</time>
      </trkpt>
      <trkpt lat="45.08737" lon="6.14909">
        <ele>1992.8</ele>
        <time>2024-07-09T08:35:02Z</time>
      </trkpt>
      <trkpt lat="45.08737" lon="6.14909">
        <ele>1992.8</ele>
        <time>2024-07-09T08:35:03Z</time>
      </trkpt>
      <trkpt lat="45.08736" lon="6.14909">
        <ele>1992.7</ele>
        <time>2024-07-09T08:35:04Z</time>
      </trkpt>
      <trkpt lat="45.08735" lon="6.1491">
        <ele>1992.6</ele>
        <time>2024-07-09T08:35:05Z</time>
      </trkpt>
      <trkpt lat="45.08735" lon="6.1491">
        <ele>1992.6</ele>
        <time>2024-07-09T08:35:06Z</time>
      </trkpt>
      <trkpt lat="45.08734" lon="6.14911">
        <ele>1992.5</ele>
        <time>2024-07-09T08:35:07Z</time>
      </trkpt>
      <trkpt lat="45.08733" lon="6.14912">
        <ele>1992.5</ele>
        <time>2024-07-09T08:35:08Z</time>
      </trkpt>
      <trkpt lat="45.08732" lon="6.14912">
        <ele>1992.3</ele>
        <time>2024-07-09T08:35:09Z</time>
      </trkpt>
      <trkpt lat="45.08731" lon="6.14913">
        <ele>1992.2</ele>
        <time>2024-07-09T08:35:10Z</time>
      </trkpt>
      <trkpt lat="45.08729" lon="6.14913">
        <ele>1992.1</ele>
        <time>2024-07-09T08:35:11Z</time>
      </trkpt>
      <trkpt lat="45.08726" lon="6.14914">
        <ele>1991.8</ele>
        <time>2024-07-09T08:35:13Z</time>
      </trkpt>
      <trkpt lat="45.08726" lon="6.14914">
        <ele>1991.8</ele>
        <time>2024-07-09T08:35:15Z</time>
      </trkpt>
      <trkpt lat="45.08725" lon="6.14915">
        <ele>1991.7</ele>
        <time>2024-07-09T08:35:16Z</time>
      </trkpt>
      <trkpt lat="45.08724" lon="6.14915">
        <ele>1991.6</ele>
        <time>2024-07-09T08:35:17Z</time>
      </trkpt>
      <trkpt lat="45.08724" lon="6.14916">
        <ele>1991.6</ele>
        <time>2024-07-09T08:35:18Z</time>
      </trkpt>
      <trkpt lat="45.08723" lon="6.14917">
        <ele>1991.5</ele>
        <time>2024-07-09T08:35:19Z</time>
      </trkpt>
      <trkpt lat="45.08722" lon="6.14918">
        <ele>1991.4</ele>
        <time>2024-07-09T08:35:20Z</time>
      </trkpt>
      <trkpt lat="45.08721" lon="6.14919">
        <ele>1991.3</ele>
        <time>2024-07-09T08:35:21Z</time>
      </trkpt>
      <trkpt lat="45.08721" lon="6.1492">
        <ele>1991.2</ele>
        <time>2024-07-09T08:35:22Z</time>
      </trkpt>
      <trkpt lat="45.0872" lon="6.14921">
        <ele>1991.1</ele>
        <time>2024-07-09T08:35:23Z</time>
      </trkpt>
      <trkpt lat="45.08719" lon="6.14922">
        <ele>1991</ele>
        <time>2024-07-09T08:35:24Z</time>
      </trkpt>
      <trkpt lat="45.08718" lon="6.14922">
        <ele>1990.9</ele>
        <time>2024-07-09T08:35:25Z</time>
      </trkpt>
      <trkpt lat="45.08717" lon="6.14922">
        <ele>1990.8</ele>
        <time>2024-07-09T08:35:26Z</time>
      </trkpt>
      <trkpt lat="45.08717" lon="6.14923">
        <ele>1990.8</ele>
        <time>2024-07-09T08:35:27Z</time>
      </trkpt>
      <trkpt lat="45.08716" lon="6.14923">
        <ele>1990.7</ele>
        <time>2024-07-09T08:35:28Z</time>
      </trkpt>
      <trkpt lat="45.08715" lon="6.14923">
        <ele>1990.6</ele>
        <time>2024-07-09T08:35:29Z</time>
      </trkpt>
      <trkpt lat="45.08714" lon="6.14922">
        <ele>1990.5</ele>
        <time>2024-07-09T08:35:30Z</time>
      </trkpt>
      <trkpt lat="45.08713" lon="6.14922">
        <ele>1990.4</ele>
        <time>2024-07-09T08:35:31Z</time>
      </trkpt>
      <trkpt lat="45.08712" lon="6.14921">
        <ele>1990.3</ele>
        <time>2024-07-09T08:35:32Z</time>
      </trkpt>
      <trkpt lat="45.08711" lon="6.14923">
        <ele>1990.2</ele>
        <time>2024-07-09T08:35:33Z</time>
      </trkpt>
      <trkpt lat="45.08711" lon="6.14922">
        <ele>1990.1</ele>
        <time>2024-07-09T08:35:34Z</time>
      </trkpt>
      <trkpt lat="45.0871" lon="6.14921">
        <ele>1990.1</ele>
        <time>2024-07-09T08:35:36Z</time>
      </trkpt>
      <trkpt lat="45.08711" lon="6.1492">
        <ele>1990</ele>
        <time>2024-07-09T08:35:37Z</time>
      </trkpt>
      <trkpt lat="45.0871" lon="6.1492">
        <ele>1990</ele>
        <time>2024-07-09T08:35:38Z</time>
      </trkpt>
      <trkpt lat="45.0871" lon="6.14919">
        <ele>1989.9</ele>
        <time>2024-07-09T08:35:39Z</time>
      </trkpt>
      <trkpt lat="45.08709" lon="6.14919">
        <ele>1989.8</ele>
        <time>2024-07-09T08:35:40Z</time>
      </trkpt>
      <trkpt lat="45.08707" lon="6.1492">
        <ele>1989.6</ele>
        <time>2024-07-09T08:35:41Z</time>
      </trkpt>
      <trkpt lat="45.08706" lon="6.1492">
        <ele>1989.5</ele>
        <time>2024-07-09T08:35:42Z</time>
      </trkpt>
      <trkpt lat="45.08703" lon="6.14921">
        <ele>1989.3</ele>
        <time>2024-07-09T08:35:43Z</time>
      </trkpt>
      <trkpt lat="45.08703" lon="6.14921">
        <ele>1989.3</ele>
        <time>2024-07-09T08:35:44Z</time>
      </trkpt>
      <trkpt lat="45.08703" lon="6.1492">
        <ele>1989.2</ele>
        <time>2024-07-09T08:35:46Z</time>
      </trkpt>
      <trkpt lat="45.08703" lon="6.1492">
        <ele>1989.2</ele>
        <time>2024-07-09T08:35:47Z</time>
      </trkpt>
      <trkpt lat="45.08701" lon="6.14919">
        <ele>1989</ele>
        <time>2024-07-09T08:35:48Z</time>
      </trkpt>
      <trkpt lat="45.087" lon="6.14919">
        <ele>1988.9</ele>
        <time>2024-07-09T08:35:49Z</time>
      </trkpt>
      <trkpt lat="45.08699" lon="6.14919">
        <ele>1988.8</ele>
        <time>2024-07-09T08:35:50Z</time>
      </trkpt>
      <trkpt lat="45.08699" lon="6.1492">
        <ele>1988.9</ele>
        <time>2024-07-09T08:35:51Z</time>
      </trkpt>
      <trkpt lat="45.08699" lon="6.14921">
        <ele>1989</ele>
        <time>2024-07-09T08:35:52Z</time>
      </trkpt>
      <trkpt lat="45.08699" lon="6.14922">
        <ele>1989.1</ele>
        <time>2024-07-09T08:35:53Z</time>
      </trkpt>
      <trkpt lat="45.08699" lon="6.14923">
        <ele>1989.2</ele>
        <time>2024-07-09T08:35:54Z</time>
      </trkpt>
      <trkpt lat="45.08699" lon="6.14924">
        <ele>1989.2</ele>
        <time>2024-07-09T08:35:55Z</time>
      </trkpt>
      <trkpt lat="45.08699" lon="6.14923">
        <ele>1989.3</ele>
        <time>2024-07-09T08:35:56Z</time>
      </trkpt>
      <trkpt lat="45.08697" lon="6.14926">
        <ele>1989.6</ele>
        <time>2024-07-09T08:35:58Z</time>
      </trkpt>
      <trkpt lat="45.08698" lon="6.14927">
        <ele>1989.7</ele>
        <time>2024-07-09T08:36:00Z</time>
      </trkpt>
      <trkpt lat="45.08698" lon="6.14924">
        <ele>1990</ele>
        <time>2024-07-09T08:36:01Z</time>
      </trkpt>
      <trkpt lat="45.08698" lon="6.14923">
        <ele>1990</ele>
        <time>2024-07-09T08:36:03Z</time>
      </trkpt>
      <trkpt lat="45.08698" lon="6.14923">
        <ele>1990</ele>
        <time>2024-07-09T08:36:04Z</time>
      </trkpt>
      <trkpt lat="45.08697" lon="6.14924">
        <ele>1990.1</ele>
        <time>2024-07-09T08:36:06Z</time>
      </trkpt>
      <trkpt lat="45.08696" lon="6.14926">
        <ele>1990.3</ele>
        <time>2024-07-09T08:36:07Z</time>
      </trkpt>
      <trkpt lat="45.08695" lon="6.14927">
        <ele>1990.4</ele>
        <time>2024-07-09T08:36:09Z</time>
      </trkpt>
      <trkpt lat="45.08693" lon="6.14927">
        <ele>1990.6</ele>
        <time>2024-07-09T08:36:10Z</time>
      </trkpt>
      <trkpt lat="45.08693" lon="6.14925">
        <ele>1990.6</ele>
        <time>2024-07-09T08:36:11Z</time>
      </trkpt>
      <trkpt lat="45.08692" lon="6.14925">
        <ele>1990.7</ele>
        <time>2024-07-09T08:36:12Z</time>
      </trkpt>
      <trkpt lat="45.08691" lon="6.14924">
        <ele>1990.8</ele>
        <time>2024-07-09T08:36:13Z</time>
      </trkpt>
      <trkpt lat="45.08691" lon="6.14925">
        <ele>1990.8</ele>
        <time>2024-07-09T08:36:14Z</time>
      </trkpt>
      <trkpt lat="45.08689" lon="6.14925">
        <ele>1990.9</ele>
        <time>2024-07-09T08:36:15Z</time>
      </trkpt>
      <trkpt lat="45.08689" lon="6.14926">
        <ele>1991</ele>
        <time>2024-07-09T08:36:16Z</time>
      </trkpt>
      <trkpt lat="45.08689" lon="6.14927">
        <ele>1991</ele>
        <time>2024-07-09T08:36:17Z</time>
      </trkpt>
      <trkpt lat="45.08689" lon="6.14927">
        <ele>1991</ele>
        <time>2024-07-09T08:36:18Z</time>
      </trkpt>
      <trkpt lat="45.08688" lon="6.14928">
        <ele>1991.1</ele>
        <time>2024-07-09T08:36:19Z</time>
      </trkpt>
      <trkpt lat="45.08688" lon="6.14926">
        <ele>1991.1</ele>
        <time>2024-07-09T08:36:20Z</time>
      </trkpt>
      <trkpt lat="45.08687" lon="6.14925">
        <ele>1991.1</ele>
        <time>2024-07-09T08:36:21Z</time>
      </trkpt>
      <trkpt lat="45.08686" lon="6.14925">
        <ele>1991.2</ele>
        <time>2024-07-09T08:36:22Z</time>
      </trkpt>
      <trkpt lat="45.08685" lon="6.14927">
        <ele>1991.2</ele>
        <time>2024-07-09T08:36:24Z</time>
      </trkpt>
      <trkpt lat="45.08685" lon="6.14928">
        <ele>1991.2</ele>
        <time>2024-07-09T08:36:26Z</time>
      </trkpt>
      <trkpt lat="45.08685" lon="6.1493">
        <ele>1991.2</ele>
        <time>2024-07-09T08:36:27Z</time>
      </trkpt>
      <trkpt lat="45.08685" lon="6.14931">
        <ele>1991.1</ele>
        <time>2024-07-09T08:36:28Z</time>
      </trkpt>
      <trkpt lat="45.08685" lon="6.14931">
        <ele>1991.1</ele>
        <time>2024-07-09T08:36:29Z</time>
      </trkpt>
      <trkpt lat="45.08684" lon="6.14931">
        <ele>1991.1</ele>
        <time>2024-07-09T08:36:30Z</time>
      </trkpt>
      <trkpt lat="45.08683" lon="6.1493">
        <ele>1991.1</ele>
        <time>2024-07-09T08:36:31Z</time>
      </trkpt>
      <trkpt lat="45.08683" lon="6.14929">
        <ele>1991.1</ele>
        <time>2024-07-09T08:36:32Z</time>
      </trkpt>
      <trkpt lat="45.08682" lon="6.14928">
        <ele>1991</ele>
        <time>2024-07-09T08:36:33Z</time>
      </trkpt>
      <trkpt lat="45.08681" lon="6.14928">
        <ele>1991</ele>
        <time>2024-07-09T08:36:34Z</time>
      </trkpt>
      <trkpt lat="45.0868" lon="6.14927">
        <ele>1990.9</ele>
        <time>2024-07-09T08:36:36Z</time>
      </trkpt>
      <trkpt lat="45.0868" lon="6.14925">
        <ele>1990.8</ele>
        <time>2024-07-09T08:36:37Z</time>
      </trkpt>
      <trkpt lat="45.08679" lon="6.14925">
        <ele>1990.7</ele>
        <time>2024-07-09T08:36:38Z</time>
      </trkpt>
      <trkpt lat="45.08678" lon="6.14924">
        <ele>1990.6</ele>
        <time>2024-07-09T08:36:39Z</time>
      </trkpt>
      <trkpt lat="45.08677" lon="6.14924">
        <ele>1990.6</ele>
        <time>2024-07-09T08:36:40Z</time>
      </trkpt>
      <trkpt lat="45.08676" lon="6.14924">
        <ele>1990.5</ele>
        <time>2024-07-09T08:36:41Z</time>
      </trkpt>
      <trkpt lat="45.08676" lon="6.14924">
        <ele>1990.5</ele>
        <time>2024-07-09T08:36:42Z</time>
      </trkpt>
      <trkpt lat="45.08676" lon="6.14925">
        <ele>1990.4</ele>
        <time>2024-07-09T08:36:43Z</time>
      </trkpt>
      <trkpt lat="45.08675" lon="6.14927">
        <ele>1990.3</ele>
        <time>2024-07-09T08:36:44Z</time>
      </trkpt>
      <trkpt lat="45.08676" lon="6.14927">
        <ele>1990.3</ele>
        <time>2024-07-09T08:36:45Z</time>
      </trkpt>
      <trkpt lat="45.08675" lon="6.14927">
        <ele>1990.2</ele>
        <time>2024-07-09T08:36:46Z</time>
      </trkpt>
      <trkpt lat="45.08675" lon="6.14928">
        <ele>1990.2</ele>
        <time>2024-07-09T08:36:48Z</time>
      </trkpt>
      <trkpt lat="45.08674" lon="6.14928">
        <ele>1990.1</ele>
        <time>2024-07-09T08:36:49Z</time>
      </trkpt>
      <trkpt lat="45.08674" lon="6.14928">
        <ele>1990.1</ele>
        <time>2024-07-09T08:36:50Z</time>
      </trkpt>
      <trkpt lat="45.08674" lon="6.14927">
        <ele>1990.1</ele>
        <time>2024-07-09T08:36:51Z</time>
      </trkpt>
      <trkpt lat="45.08674" lon="6.14925">
        <ele>1990</ele>
        <time>2024-07-09T08:36:52Z</time>
      </trkpt>
      <trkpt lat="45.08673" lon="6.14925">
        <ele>1989.9</ele>
        <time>2024-07-09T08:36:54Z</time>
      </trkpt>
      <trkpt lat="45.08673" lon="6.14924">
        <ele>1989.9</ele>
        <time>2024-07-09T08:36:55Z</time>
      </trkpt>
      <trkpt lat="45.08673" lon="6.14924">
        <ele>1989.9</ele>
        <time>2024-07-09T08:36:56Z</time>
      </trkpt>
      <trkpt lat="45.08672" lon="6.14923">
        <ele>1989.9</ele>
        <time>2024-07-09T08:36:57Z</time>
      </trkpt>
      <trkpt lat="45.08671" lon="6.14923">
        <ele>1989.8</ele>
        <time>2024-07-09T08:36:58Z</time>
      </trkpt>
      <trkpt lat="45.08671" lon="6.14923">
        <ele>1989.8</ele>
        <time>2024-07-09T08:36:59Z</time>
      </trkpt>
      <trkpt lat="45.0867" lon="6.14923">
        <ele>1989.7</ele>
        <time>2024-07-09T08:37:00Z</time>
      </trkpt>
      <trkpt lat="45.08669" lon="6.14923">
        <ele>1989.7</ele>
        <time>2024-07-09T08:37:01Z</time>
      </trkpt>
      <trkpt lat="45.08668" lon="6.14923">
        <ele>1989.7</ele>
        <time>2024-07-09T08:37:02Z</time>
      </trkpt>
      <trkpt lat="45.08668" lon="6.14922">
        <ele>1989.7</ele>
        <time>2024-07-09T08:37:03Z</time>
      </trkpt>
      <trkpt lat="45.08667" lon="6.14921">
        <ele>1989.6</ele>
        <time>2024-07-09T08:37:04Z</time>
      </trkpt>
      <trkpt lat="45.08667" lon="6.14921">
        <ele>1989.6</ele>
        <time>2024-07-09T08:37:05Z</time>
      </trkpt>
      <trkpt lat="45.08666" lon="6.1492">
        <ele>1989.6</ele>
        <time>2024-07-09T08:37:06Z</time>
      </trkpt>
      <trkpt lat="45.08665" lon="6.14919">
        <ele>1989.6</ele>
        <time>2024-07-09T08:37:07Z</time>
      </trkpt>
      <trkpt lat="45.08665" lon="6.1492">
        <ele>1989.6</ele>
        <time>2024-07-09T08:37:08Z</time>
      </trkpt>
      <trkpt lat="45.08664" lon="6.1492">
        <ele>1989.6</ele>
        <time>2024-07-09T08:37:09Z</time>
      </trkpt>
      <trkpt lat="45.08663" lon="6.14919">
        <ele>1989.6</ele>
        <time>2024-07-09T08:37:10Z</time>
      </trkpt>
      <trkpt lat="45.08663" lon="6.1492">
        <ele>1989.6</ele>
        <time>2024-07-09T08:37:11Z</time>
      </trkpt>
      <trkpt lat="45.08662" lon="6.1492">
        <ele>1989.6</ele>
        <time>2024-07-09T08:37:12Z</time>
      </trkpt>
      <trkpt lat="45.08661" lon="6.1492">
        <ele>1989.5</ele>
        <time>2024-07-09T08:37:13Z</time>
      </trkpt>
      <trkpt lat="45.08661" lon="6.1492">
        <ele>1989.5</ele>
        <time>2024-07-09T08:37:14Z</time>
      </trkpt>
      <trkpt lat="45.0866" lon="6.1492">
        <ele>1989.5</ele>
        <time>2024-07-09T08:37:15Z</time>
      </trkpt>
      <trkpt lat="45.08659" lon="6.1492">
        <ele>1989.5</ele>
        <time>2024-07-09T08:37:16Z</time>
      </trkpt>
      <trkpt lat="45.08658" lon="6.14918">
        <ele>1989.5</ele>
        <time>2024-07-09T08:37:17Z</time>
      </trkpt>
      <trkpt lat="45.08657" lon="6.14917">
        <ele>1989.5</ele>
        <time>2024-07-09T08:37:19Z</time>
      </trkpt>
      <trkpt lat="45.08656" lon="6.14917">
        <ele>1989.4</ele>
        <time>2024-07-09T08:37:20Z</time>
      </trkpt>
      <trkpt lat="45.08655" lon="6.14917">
        <ele>1989.4</ele>
        <time>2024-07-09T08:37:21Z</time>
      </trkpt>
      <trkpt lat="45.08654" lon="6.14917">
        <ele>1989.4</ele>
        <time>2024-07-09T08:37:22Z</time>
      </trkpt>
      <trkpt lat="45.08654" lon="6.14917">
        <ele>1989.4</ele>
        <time>2024-07-09T08:37:24Z</time>
      </trkpt>
      <trkpt lat="45.08653" lon="6.14916">
        <ele>1989.3</ele>
        <time>2024-07-09T08:37:25Z</time>
      </trkpt>
      <trkpt lat="45.08651" lon="6.14916">
        <ele>1989.3</ele>
        <time>2024-07-09T08:37:26Z</time>
      </trkpt>
      <trkpt lat="45.08651" lon="6.14915">
        <ele>1989.2</ele>
        <time>2024-07-09T08:37:28Z</time>
      </trkpt>
      <trkpt lat="45.0865" lon="6.14914">
        <ele>1989.2</ele>
        <time>2024-07-09T08:37:29Z</time>
      </trkpt>
      <trkpt lat="45.0865" lon="6.14912">
        <ele>1989.1</ele>
        <time>2024-07-09T08:37:30Z</time>
      </trkpt>
      <trkpt lat="45.08649" lon="6.14911">
        <ele>1989.1</ele>
        <time>2024-07-09T08:37:31Z</time>
      </trkpt>
      <trkpt lat="45.08647" lon="6.1491">
        <ele>1989</ele>
        <time>2024-07-09T08:37:32Z</time>
      </trkpt>
      <trkpt lat="45.08646" lon="6.1491">
        <ele>1989</ele>
        <time>2024-07-09T08:37:33Z</time>
      </trkpt>
      <trkpt lat="45.08646" lon="6.1491">
        <ele>1988.9</ele>
        <time>2024-07-09T08:37:34Z</time>
      </trkpt>
      <trkpt lat="45.08643" lon="6.1491">
        <ele>1988.9</ele>
        <time>2024-07-09T08:37:35Z</time>
      </trkpt>
      <trkpt lat="45.08642" lon="6.1491">
        <ele>1989</ele>
        <time>2024-07-09T08:37:37Z</time>
      </trkpt>
      <trkpt lat="45.08641" lon="6.1491">
        <ele>1989.1</ele>
        <time>2024-07-09T08:37:38Z</time>
      </trkpt>
      <trkpt lat="45.0864" lon="6.1491">
        <ele>1989.2</ele>
        <time>2024-07-09T08:37:39Z</time>
      </trkpt>
      <trkpt lat="45.08639" lon="6.14909">
        <ele>1989.3</ele>
        <time>2024-07-09T08:37:40Z</time>
      </trkpt>
      <trkpt lat="45.08638" lon="6.14909">
        <ele>1989.3</ele>
        <time>2024-07-09T08:37:41Z</time>
      </trkpt>
      <trkpt lat="45.08637" lon="6.14908">
        <ele>1989.4</ele>
        <time>2024-07-09T08:37:42Z</time>
      </trkpt>
      <trkpt lat="45.08635" lon="6.14909">
        <ele>1989.6</ele>
        <time>2024-07-09T08:37:43Z</time>
      </trkpt>
      <trkpt lat="45.08634" lon="6.1491">
        <ele>1989.7</ele>
        <time>2024-07-09T08:37:45Z</time>
      </trkpt>
      <trkpt lat="45.08633" lon="6.14911">
        <ele>1989.9</ele>
        <time>2024-07-09T08:37:46Z</time>
      </trkpt>
      <trkpt lat="45.08631" lon="6.14911">
        <ele>1990.1</ele>
        <time>2024-07-09T08:37:48Z</time>
      </trkpt>
      <trkpt lat="45.08632" lon="6.14911">
        <ele>1990.2</ele>
        <time>2024-07-09T08:37:49Z</time>
      </trkpt>
      <trkpt lat="45.08632" lon="6.14911">
        <ele>1990.2</ele>
        <time>2024-07-09T08:37:50Z</time>
      </trkpt>
      <trkpt lat="45.08633" lon="6.14911">
        <ele>1990.2</ele>
        <time>2024-07-09T08:37:51Z</time>
      </trkpt>
      <trkpt lat="45.08633" lon="6.14911">
        <ele>1990.3</ele>
        <time>2024-07-09T08:37:52Z</time>
      </trkpt>
      <trkpt lat="45.08633" lon="6.14911">
        <ele>1990.4</ele>
        <time>2024-07-09T08:37:53Z</time>
      </trkpt>
      <trkpt lat="45.08633" lon="6.14911">
        <ele>1990.4</ele>
        <time>2024-07-09T08:37:55Z</time>
      </trkpt>
      <trkpt lat="45.08633" lon="6.14911">
        <ele>1990.5</ele>
        <time>2024-07-09T08:37:56Z</time>
      </trkpt>
      <trkpt lat="45.08632" lon="6.14911">
        <ele>1990.6</ele>
        <time>2024-07-09T08:37:57Z</time>
      </trkpt>
      <trkpt lat="45.08631" lon="6.14911">
        <ele>1990.7</ele>
        <time>2024-07-09T08:37:58Z</time>
      </trkpt>
      <trkpt lat="45.08629" lon="6.1491">
        <ele>1991</ele>
        <time>2024-07-09T08:37:59Z</time>
      </trkpt>
      <trkpt lat="45.08626" lon="6.1491">
        <ele>1991.4</ele>
        <time>2024-07-09T08:38:01Z</time>
      </trkpt>
      <trkpt lat="45.08625" lon="6.14909">
        <ele>1991.7</ele>
        <time>2024-07-09T08:38:02Z</time>
      </trkpt>
      <trkpt lat="45.08624" lon="6.1491">
        <ele>1991.8</ele>
        <time>2024-07-09T08:38:04Z</time>
      </trkpt>
      <trkpt lat="45.08623" lon="6.1491">
        <ele>1992</ele>
        <time>2024-07-09T08:38:05Z</time>
      </trkpt>
      <trkpt lat="45.08621" lon="6.14911">
        <ele>1992.4</ele>
        <time>2024-07-09T08:38:06Z</time>
      </trkpt>
      <trkpt lat="45.0862" lon="6.1491">
        <ele>1992.6</ele>
        <time>2024-07-09T08:38:07Z</time>
      </trkpt>
      <trkpt lat="45.08619" lon="6.1491">
        <ele>1992.8</ele>
        <time>2024-07-09T08:38:08Z</time>
      </trkpt>
      <trkpt lat="45.08618" lon="6.1491">
        <ele>1993</ele>
        <time>2024-07-09T08:38:09Z</time>
      </trkpt>
      <trkpt lat="45.08616" lon="6.14909">
        <ele>1993.5</ele>
        <time>2024-07-09T08:38:10Z</time>
      </trkpt>
      <trkpt lat="45.08615" lon="6.14908">
        <ele>1993.6</ele>
        <time>2024-07-09T08:38:12Z</time>
      </trkpt>
      <trkpt lat="45.08614" lon="6.14908">
        <ele>1993.9</ele>
        <time>2024-07-09T08:38:13Z</time>
      </trkpt>
      <trkpt lat="45.08613" lon="6.14907">
        <ele>1994.1</ele>
        <time>2024-07-09T08:38:14Z</time>
      </trkpt>
      <trkpt lat="45.08613" lon="6.14907">
        <ele>1994.2</ele>
        <time>2024-07-09T08:38:15Z</time>
      </trkpt>
      <trkpt lat="45.08611" lon="6.14907">
        <ele>1994.4</ele>
        <time>2024-07-09T08:38:16Z</time>
      </trkpt>
      <trkpt lat="45.08611" lon="6.14907">
        <ele>1994.5</ele>
        <time>2024-07-09T08:38:17Z</time>
      </trkpt>
      <trkpt lat="45.08609" lon="6.14906">
        <ele>1994.8</ele>
        <time>2024-07-09T08:38:18Z</time>
      </trkpt>
      <trkpt lat="45.08607" lon="6.14907">
        <ele>1995.3</ele>
        <time>2024-07-09T08:38:20Z</time>
      </trkpt>
      <trkpt lat="45.08607" lon="6.14907">
        <ele>1995.4</ele>
        <time>2024-07-09T08:38:22Z</time>
      </trkpt>
      <trkpt lat="45.08606" lon="6.14907">
        <ele>1995.6</ele>
        <time>2024-07-09T08:38:23Z</time>
      </trkpt>
      <trkpt lat="45.08606" lon="6.14907">
        <ele>1995.7</ele>
        <time>2024-07-09T08:38:24Z</time>
      </trkpt>
      <trkpt lat="45.08605" lon="6.14908">
        <ele>1995.9</ele>
        <time>2024-07-09T08:38:25Z</time>
      </trkpt>
      <trkpt lat="45.08605" lon="6.1491">
        <ele>1996</ele>
        <time>2024-07-09T08:38:26Z</time>
      </trkpt>
      <trkpt lat="45.08604" lon="6.1491">
        <ele>1996.2</ele>
        <time>2024-07-09T08:38:27Z</time>
      </trkpt>
      <trkpt lat="45.08604" lon="6.14912">
        <ele>1996.4</ele>
        <time>2024-07-09T08:38:28Z</time>
      </trkpt>
      <trkpt lat="45.08603" lon="6.14912">
        <ele>1996.5</ele>
        <time>2024-07-09T08:38:29Z</time>
      </trkpt>
      <trkpt lat="45.08602" lon="6.14913">
        <ele>1996.7</ele>
        <time>2024-07-09T08:38:30Z</time>
      </trkpt>
      <trkpt lat="45.08601" lon="6.14913">
        <ele>1996.9</ele>
        <time>2024-07-09T08:38:32Z</time>
      </trkpt>
      <trkpt lat="45.086" lon="6.14914">
        <ele>1997</ele>
        <time>2024-07-09T08:38:33Z</time>
      </trkpt>
      <trkpt lat="45.086" lon="6.14914">
        <ele>1997.1</ele>
        <time>2024-07-09T08:38:34Z</time>
      </trkpt>
      <trkpt lat="45.08599" lon="6.14914">
        <ele>1997.3</ele>
        <time>2024-07-09T08:38:35Z</time>
      </trkpt>
      <trkpt lat="45.08598" lon="6.14914">
        <ele>1997.4</ele>
        <time>2024-07-09T08:38:36Z</time>
      </trkpt>
      <trkpt lat="45.08597" lon="6.14913">
        <ele>1997.5</ele>
        <time>2024-07-09T08:38:37Z</time>
      </trkpt>
      <trkpt lat="45.08596" lon="6.14912">
        <ele>1997.8</ele>
        <time>2024-07-09T08:38:38Z</time>
      </trkpt>
      <trkpt lat="45.08595" lon="6.14912">
        <ele>1997.9</ele>
        <time>2024-07-09T08:38:40Z</time>
      </trkpt>
      <trkpt lat="45.08594" lon="6.14912">
        <ele>1998.1</ele>
        <time>2024-07-09T08:38:41Z</time>
      </trkpt>
      <trkpt lat="45.08593" lon="6.14912">
        <ele>1998.2</ele>
        <time>2024-07-09T08:38:42Z</time>
      </trkpt>
      <trkpt lat="45.08592" lon="6.14911">
        <ele>1998.4</ele>
        <time>2024-07-09T08:38:44Z</time>
      </trkpt>
      <trkpt lat="45.08592" lon="6.14911">
        <ele>1998.4</ele>
        <time>2024-07-09T08:38:46Z</time>
      </trkpt>
      <trkpt lat="45.0859" lon="6.14911">
        <ele>1998.6</ele>
        <time>2024-07-09T08:38:47Z</time>
      </trkpt>
      <trkpt lat="45.0859" lon="6.14911">
        <ele>1998.7</ele>
        <time>2024-07-09T08:38:49Z</time>
      </trkpt>
      <trkpt lat="45.08589" lon="6.1491">
        <ele>1998.8</ele>
        <time>2024-07-09T08:38:50Z</time>
      </trkpt>
      <trkpt lat="45.08588" lon="6.1491">
        <ele>1998.9</ele>
        <time>2024-07-09T08:38:51Z</time>
      </trkpt>
      <trkpt lat="45.08587" lon="6.14911">
        <ele>1999.1</ele>
        <time>2024-07-09T08:38:52Z</time>
      </trkpt>
      <trkpt lat="45.08586" lon="6.14911">
        <ele>1999.2</ele>
        <time>2024-07-09T08:38:54Z</time>
      </trkpt>
      <trkpt lat="45.08586" lon="6.1491">
        <ele>1999.3</ele>
        <time>2024-07-09T08:38:55Z</time>
      </trkpt>
      <trkpt lat="45.08584" lon="6.1491">
        <ele>1999.5</ele>
        <time>2024-07-09T08:38:56Z</time>
      </trkpt>
      <trkpt lat="45.08584" lon="6.14911">
        <ele>1999.6</ele>
        <time>2024-07-09T08:38:58Z</time>
      </trkpt>
      <trkpt lat="45.08584" lon="6.14911">
        <ele>1999.7</ele>
        <time>2024-07-09T08:38:59Z</time>
      </trkpt>
      <trkpt lat="45.08585" lon="6.14912">
        <ele>1999.8</ele>
        <time>2024-07-09T08:39:00Z</time>
      </trkpt>
      <trkpt lat="45.08585" lon="6.14911">
        <ele>1999.8</ele>
        <time>2024-07-09T08:39:01Z</time>
      </trkpt>
      <trkpt lat="45.08585" lon="6.14911">
        <ele>1999.9</ele>
        <time>2024-07-09T08:39:02Z</time>
      </trkpt>
      <trkpt lat="45.08585" lon="6.14911">
        <ele>1999.9</ele>
        <time>2024-07-09T08:39:03Z</time>
      </trkpt>
      <trkpt lat="45.08586" lon="6.1491">
        <ele>2000</ele>
        <time>2024-07-09T08:39:04Z</time>
      </trkpt>
      <trkpt lat="45.08586" lon="6.1491">
        <ele>2000</ele>
        <time>2024-07-09T08:39:05Z</time>
      </trkpt>
      <trkpt lat="45.08586" lon="6.1491">
        <ele>2000</ele>
        <time>2024-07-09T08:39:06Z</time>
      </trkpt>
      <trkpt lat="45.08586" lon="6.1491">
        <ele>2000</ele>
        <time>2024-07-09T08:39:07Z</time>
      </trkpt>
      <trkpt lat="45.08586" lon="6.1491">
        <ele>2000</ele>
        <time>2024-07-09T08:39:08Z</time>
      </trkpt>
      <trkpt lat="45.08586" lon="6.1491">
        <ele>2000</ele>
        <time>2024-07-09T08:39:09Z</time>
      </trkpt>
      <trkpt lat="45.08586" lon="6.1491">
        <ele>2000</ele>
        <time>2024-07-09T08:39:10Z</time>
      </trkpt>
      <trkpt lat="45.08586" lon="6.1491">
        <ele>2000</ele>
        <time>2024-07-09T08:39:11Z</time>
      </trkpt>
      <trkpt lat="45.08586" lon="6.1491">
        <ele>2000</ele>
        <time>2024-07-09T08:39:12Z</time>
      </trkpt>
      <trkpt lat="45.08586" lon="6.1491">
        <ele>2000</ele>
        <time>2024-07-09T08:39:13Z</time>
      </trkpt>
      <trkpt lat="45.08586" lon="6.1491">
        <ele>2000</ele>
        <time>2024-07-09T08:39:14Z</time>
      </trkpt>
      <trkpt lat="45.08586" lon="6.1491">
        <ele>2000</ele>
        <time>2024-07-09T08:39:15Z</time>
      </trkpt>
      <trkpt lat="45.08586" lon="6.1491">
        <ele>2000.1</ele>
        <time>2024-07-09T08:39:16Z</time>
      </trkpt>
      <trkpt lat="45.08586" lon="6.1491">
        <ele>2000.1</ele>
        <time>2024-07-09T08:39:17Z</time>
      </trkpt>
      <trkpt lat="45.08586" lon="6.1491">
        <ele>2000.1</ele>
        <time>2024-07-09T08:39:18Z</time>
      </trkpt>
      <trkpt lat="45.08586" lon="6.1491">
        <ele>2000.1</ele>
        <time>2024-07-09T08:39:19Z</time>
      </trkpt>
      <trkpt lat="45.08586" lon="6.1491">
        <ele>2000.1</ele>
        <time>2024-07-09T08:39:20Z</time>
      </trkpt>
      <trkpt lat="45.08586" lon="6.1491">
        <ele>2000.1</ele>
        <time>2024-07-09T08:39:21Z</time>
      </trkpt>
      <trkpt lat="45.08586" lon="6.1491">
        <ele>2000.1</ele>
        <time>2024-07-09T08:39:22Z</time>
      </trkpt>
      <trkpt lat="45.08586" lon="6.1491">
        <ele>2000.1</ele>
        <time>2024-07-09T08:39:23Z</time>
      </trkpt>
      <trkpt lat="45.08586" lon="6.1491">
        <ele>2000.1</ele>
        <time>2024-07-09T08:39:24Z</time>
      </trkpt>
      <trkpt lat="45.08586" lon="6.1491">
        <ele>2000.1</ele>
        <time>2024-07-09T08:39:25Z</time>
      </trkpt>
      <trkpt lat="45.08586" lon="6.1491">
        <ele>2000.1</ele>
        <time>2024-07-09T08:39:26Z</time>
      </trkpt>
      <trkpt lat="45.08586" lon="6.1491">
        <ele>2000.1</ele>
        <time>2024-07-09T08:39:27Z</time>
      </trkpt>
      <trkpt lat="45.08586" lon="6.1491">
        <ele>2000.1</ele>
        <time>2024-07-09T08:39:28Z</time>
      </trkpt>
      <trkpt lat="45.08586" lon="6.1491">
        <ele>2000.1</ele>
        <time>2024-07-09T08:39:29Z</time>
      </trkpt>
      <trkpt lat="45.08586" lon="6.1491">
        <ele>2000.1</ele>
        <time>2024-07-09T08:39:30Z</time>
      </trkpt>
      <trkpt lat="45.08586" lon="6.1491">
        <ele>2000.1</ele>
        <time>2024-07-09T08:39:31Z</time>
      </trkpt>
      <trkpt lat="45.08586" lon="6.1491">
        <ele>2000.1</ele>
        <time>2024-07-09T08:39:32Z</time>
      </trkpt>
      <trkpt lat="45.08586" lon="6.1491">
        <ele>2000.1</ele>
        <time>2024-07-09T08:39:33Z</time>
      </trkpt>
      <trkpt lat="45.08586" lon="6.1491">
        <ele>2000.1</ele>
        <time>2024-07-09T08:39:34Z</time>
      </trkpt>
      <trkpt lat="45.08586" lon="6.1491">
        <ele>2000.1</ele>
        <time>2024-07-09T08:39:35Z</time>
      </trkpt>
      <trkpt lat="45.08586" lon="6.1491">
        <ele>2000.1</ele>
        <time>2024-07-09T08:39:36Z</time>
      </trkpt>
      <trkpt lat="45.08586" lon="6.1491">
        <ele>2000.1</ele>
        <time>2024-07-09T08:39:37Z</time>
      </trkpt>
      <trkpt lat="45.08586" lon="6.1491">
        <ele>2000.1</ele>
        <time>2024-07-09T08:39:38Z</time>
      </trkpt>
      <trkpt lat="45.08586" lon="6.1491">
        <ele>2000.1</ele>
        <time>2024-07-09T08:39:39Z</time>
      </trkpt>
      <trkpt lat="45.08586" lon="6.1491">
        <ele>2000.1</ele>
        <time>2024-07-09T08:39:40Z</time>
      </trkpt>
      <trkpt lat="45.08586" lon="6.1491">
        <ele>2000.1</ele>
        <time>2024-07-09T08:39:41Z</time>
      </trkpt>
      <trkpt lat="45.08586" lon="6.1491">
        <ele>2000.1</ele>
        <time>2024-07-09T08:39:42Z</time>
      </trkpt>
      <trkpt lat="45.08586" lon="6.1491">
        <ele>2000.1</ele>
        <time>2024-07-09T08:39:43Z</time>
      </trkpt>
      <trkpt lat="45.08586" lon="6.1491">
        <ele>2000.2</ele>
        <time>2024-07-09T08:39:44Z</time>
      </trkpt>
      <trkpt lat="45.08587" lon="6.1491">
        <ele>2000.2</ele>
        <time>2024-07-09T08:39:45Z</time>
      </trkpt>
      <trkpt lat="45.08587" lon="6.14909">
        <ele>2000.3</ele>
        <time>2024-07-09T08:39:46Z</time>
      </trkpt>
      <trkpt lat="45.08587" lon="6.14908">
        <ele>2000.4</ele>
        <time>2024-07-09T08:39:47Z</time>
      </trkpt>
      <trkpt lat="45.08588" lon="6.14908">
        <ele>2000.5</ele>
        <time>2024-07-09T08:39:48Z</time>
      </trkpt>
      <trkpt lat="45.08588" lon="6.14908">
        <ele>2000.5</ele>
        <time>2024-07-09T08:39:49Z</time>
      </trkpt>
      <trkpt lat="45.08588" lon="6.14909">
        <ele>2000.6</ele>
        <time>2024-07-09T08:39:50Z</time>
      </trkpt>
      <trkpt lat="45.08588" lon="6.14909">
        <ele>2000.6</ele>
        <time>2024-07-09T08:39:51Z</time>
      </trkpt>
      <trkpt lat="45.08588" lon="6.14909">
        <ele>2000.6</ele>
        <time>2024-07-09T08:39:52Z</time>
      </trkpt>
      <trkpt lat="45.08588" lon="6.14908">
        <ele>2000.8</ele>
        <time>2024-07-09T08:39:53Z</time>
      </trkpt>
      <trkpt lat="45.0859" lon="6.14909">
        <ele>2001</ele>
        <time>2024-07-09T08:39:54Z</time>
      </trkpt>
      <trkpt lat="45.0859" lon="6.14909">
        <ele>2001</ele>
        <time>2024-07-09T08:39:55Z</time>
      </trkpt>
      <trkpt lat="45.08589" lon="6.14908">
        <ele>2001.2</ele>
        <time>2024-07-09T08:39:56Z</time>
      </trkpt>
      <trkpt lat="45.08589" lon="6.14908">
        <ele>2001.2</ele>
        <time>2024-07-09T08:39:57Z</time>
      </trkpt>
      <trkpt lat="45.08589" lon="6.14907">
        <ele>2001.3</ele>
        <time>2024-07-09T08:39:58Z</time>
      </trkpt>
      <trkpt lat="45.08589" lon="6.14907">
        <ele>2001.3</ele>
        <time>2024-07-09T08:39:59Z</time>
      </trkpt>
      <trkpt lat="45.08591" lon="6.14906">
        <ele>2001.7</ele>
        <time>2024-07-09T08:42:31Z</time>
      </trkpt>
      <trkpt lat="45.0859" lon="6.14906">
        <ele>2001.9</ele>
        <time>2024-07-09T08:42:32Z</time>
      </trkpt>
      <trkpt lat="45.0859" lon="6.14907">
        <ele>2002.1</ele>
        <time>2024-07-09T08:42:33Z</time>
      </trkpt>
      <trkpt lat="45.0859" lon="6.14907">
        <ele>2002.1</ele>
        <time>2024-07-09T08:42:34Z</time>
      </trkpt>
      <trkpt lat="45.0859" lon="6.14908">
        <ele>2002.3</ele>
        <time>2024-07-09T08:42:35Z</time>
      </trkpt>
      <trkpt lat="45.08588" lon="6.14908">
        <ele>2002.6</ele>
        <time>2024-07-09T08:42:36Z</time>
      </trkpt>
      <trkpt lat="45.08587" lon="6.14908">
        <ele>2002.8</ele>
        <time>2024-07-09T08:42:37Z</time>
      </trkpt>
      <trkpt lat="45.08587" lon="6.14907">
        <ele>2003</ele>
        <time>2024-07-09T08:42:38Z</time>
      </trkpt>
      <trkpt lat="45.08586" lon="6.14908">
        <ele>2003.3</ele>
        <time>2024-07-09T08:42:39Z</time>
      </trkpt>
      <trkpt lat="45.08585" lon="6.14908">
        <ele>2003.5</ele>
        <time>2024-07-09T08:42:40Z</time>
      </trkpt>
      <trkpt lat="45.08583" lon="6.14909">
        <ele>2003.9</ele>
        <time>2024-07-09T08:42:41Z</time>
      </trkpt>
      <trkpt lat="45.08582" lon="6.14909">
        <ele>2004.1</ele>
        <time>2024-07-09T08:42:42Z</time>
      </trkpt>
      <trkpt lat="45.08582" lon="6.14909">
        <ele>2004.3</ele>
        <time>2024-07-09T08:42:43Z</time>
      </trkpt>
      <trkpt lat="45.08581" lon="6.14909">
        <ele>2004.5</ele>
        <time>2024-07-09T08:42:44Z</time>
      </trkpt>
      <trkpt lat="45.0858" lon="6.14909">
        <ele>2004.7</ele>
        <time>2024-07-09T08:42:45Z</time>
      </trkpt>
      <trkpt lat="45.08577" lon="6.14908">
        <ele>2005.5</ele>
        <time>2024-07-09T08:42:46Z</time>
      </trkpt>
      <trkpt lat="45.08575" lon="6.14908">
        <ele>2006</ele>
        <time>2024-07-09T08:42:48Z</time>
      </trkpt>
      <trkpt lat="45.08574" lon="6.14907">
        <ele>2006.3</ele>
        <time>2024-07-09T08:42:49Z</time>
      </trkpt>
      <trkpt lat="45.08573" lon="6.14907">
        <ele>2006.5</ele>
        <time>2024-07-09T08:42:50Z</time>
      </trkpt>
      <trkpt lat="45.08572" lon="6.14907">
        <ele>2006.8</ele>
        <time>2024-07-09T08:42:51Z</time>
      </trkpt>
      <trkpt lat="45.08571" lon="6.14906">
        <ele>2007</ele>
        <time>2024-07-09T08:42:52Z</time>
      </trkpt>
      <trkpt lat="45.0857" lon="6.14906">
        <ele>2007.2</ele>
        <time>2024-07-09T08:42:53Z</time>
      </trkpt>
      <trkpt lat="45.0857" lon="6.14905">
        <ele>2007.5</ele>
        <time>2024-07-09T08:42:54Z</time>
      </trkpt>
      <trkpt lat="45.08569" lon="6.14905">
        <ele>2007.7</ele>
        <time>2024-07-09T08:42:56Z</time>
      </trkpt>
      <trkpt lat="45.08567" lon="6.14905">
        <ele>2008.2</ele>
        <time>2024-07-09T08:42:58Z</time>
      </trkpt>
      <trkpt lat="45.08566" lon="6.14904">
        <ele>2008.5</ele>
        <time>2024-07-09T08:43:00Z</time>
      </trkpt>
      <trkpt lat="45.08565" lon="6.14904">
        <ele>2008.7</ele>
        <time>2024-07-09T08:43:01Z</time>
      </trkpt>
      <trkpt lat="45.08565" lon="6.14904">
        <ele>2008.8</ele>
        <time>2024-07-09T08:43:03Z</time>
      </trkpt>
      <trkpt lat="45.08563" lon="6.14903">
        <ele>2009.3</ele>
        <time>2024-07-09T08:43:04Z</time>
      </trkpt>
      <trkpt lat="45.08563" lon="6.14903">
        <ele>2009.4</ele>
        <time>2024-07-09T08:43:06Z</time>
      </trkpt>
      <trkpt lat="45.08562" lon="6.14903">
        <ele>2009.6</ele>
        <time>2024-07-09T08:43:07Z</time>
      </trkpt>
      <trkpt lat="45.08562" lon="6.14903">
        <ele>2009.7</ele>
        <time>2024-07-09T08:43:08Z</time>
      </trkpt>
      <trkpt lat="45.08561" lon="6.14902">
        <ele>2009.9</ele>
        <time>2024-07-09T08:43:09Z</time>
      </trkpt>
      <trkpt lat="45.0856" lon="6.14902">
        <ele>2010.1</ele>
        <time>2024-07-09T08:43:10Z</time>
      </trkpt>
      <trkpt lat="45.08559" lon="6.14902">
        <ele>2010.4</ele>
        <time>2024-07-09T08:43:11Z</time>
      </trkpt>
      <trkpt lat="45.08558" lon="6.14902">
        <ele>2010.5</ele>
        <time>2024-07-09T08:43:13Z</time>
      </trkpt>
      <trkpt lat="45.08558" lon="6.14902">
        <ele>2010.7</ele>
        <time>2024-07-09T08:43:14Z</time>
      </trkpt>
      <trkpt lat="45.08556" lon="6.14903">
        <ele>2011.1</ele>
        <time>2024-07-09T08:43:15Z</time>
      </trkpt>
      <trkpt lat="45.08556" lon="6.14904">
        <ele>2011.3</ele>
        <time>2024-07-09T08:43:17Z</time>
      </trkpt>
      <trkpt lat="45.08555" lon="6.14906">
        <ele>2011.6</ele>
        <time>2024-07-09T08:43:18Z</time>
      </trkpt>
      <trkpt lat="45.08554" lon="6.14907">
        <ele>2011.9</ele>
        <time>2024-07-09T08:43:19Z</time>
      </trkpt>
      <trkpt lat="45.08554" lon="6.14907">
        <ele>2012</ele>
        <time>2024-07-09T08:43:21Z</time>
      </trkpt>
      <trkpt lat="45.08553" lon="6.14908">
        <ele>2012.1</ele>
        <time>2024-07-09T08:43:22Z</time>
      </trkpt>
      <trkpt lat="45.08552" lon="6.14908">
        <ele>2012.3</ele>
        <time>2024-07-09T08:43:23Z</time>
      </trkpt>
      <trkpt lat="45.08551" lon="6.14909">
        <ele>2012.5</ele>
        <time>2024-07-09T08:43:24Z</time>
      </trkpt>
      <trkpt lat="45.08551" lon="6.14909">
        <ele>2012.5</ele>
        <time>2024-07-09T08:43:26Z</time>
      </trkpt>
      <trkpt lat="45.08551" lon="6.14909">
        <ele>2012.6</ele>
        <time>2024-07-09T08:43:27Z</time>
      </trkpt>
      <trkpt lat="45.0855" lon="6.1491">
        <ele>2012.8</ele>
        <time>2024-07-09T08:43:28Z</time>
      </trkpt>
      <trkpt lat="45.0855" lon="6.1491">
        <ele>2012.8</ele>
        <time>2024-07-09T08:43:29Z</time>
      </trkpt>
      <trkpt lat="45.0855" lon="6.1491">
        <ele>2012.9</ele>
        <time>2024-07-09T08:43:30Z</time>
      </trkpt>
      <trkpt lat="45.08549" lon="6.1491">
        <ele>2012.9</ele>
        <time>2024-07-09T08:43:31Z</time>
      </trkpt>
      <trkpt lat="45.08549" lon="6.1491">
        <ele>2013</ele>
        <time>2024-07-09T08:43:32Z</time>
      </trkpt>
      <trkpt lat="45.08548" lon="6.14911">
        <ele>2013.2</ele>
        <time>2024-07-09T08:43:33Z</time>
      </trkpt>
      <trkpt lat="45.08547" lon="6.14912">
        <ele>2013.4</ele>
        <time>2024-07-09T08:43:34Z</time>
      </trkpt>
      <trkpt lat="45.08547" lon="6.14912">
        <ele>2013.5</ele>
        <time>2024-07-09T08:43:36Z</time>
      </trkpt>
      <trkpt lat="45.08546" lon="6.14912">
        <ele>2013.6</ele>
        <time>2024-07-09T08:43:37Z</time>
      </trkpt>
      <trkpt lat="45.08545" lon="6.14911">
        <ele>2013.8</ele>
        <time>2024-07-09T08:43:38Z</time>
      </trkpt>
      <trkpt lat="45.08545" lon="6.14911">
        <ele>2013.9</ele>
        <time>2024-07-09T08:43:40Z</time>
      </trkpt>
      <trkpt lat="45.08544" lon="6.14911">
        <ele>2014</ele>
        <time>2024-07-09T08:43:41Z</time>
      </trkpt>
      <trkpt lat="45.08544" lon="6.1491">
        <ele>2014</ele>
        <time>2024-07-09T08:43:42Z</time>
      </trkpt>
      <trkpt lat="45.08544" lon="6.1491">
        <ele>2014.1</ele>
        <time>2024-07-09T08:43:43Z</time>
      </trkpt>
      <trkpt lat="45.08543" lon="6.1491">
        <ele>2014.3</ele>
        <time>2024-07-09T08:43:44Z</time>
      </trkpt>
      <trkpt lat="45.08542" lon="6.1491">
        <ele>2014.4</ele>
        <time>2024-07-09T08:43:46Z</time>
      </trkpt>
      <trkpt lat="45.08541" lon="6.1491">
        <ele>2014.5</ele>
        <time>2024-07-09T08:43:48Z</time>
      </trkpt>
      <trkpt lat="45.0854" lon="6.14911">
        <ele>2014.8</ele>
        <time>2024-07-09T08:43:49Z</time>
      </trkpt>
      <trkpt lat="45.08539" lon="6.14911">
        <ele>2014.9</ele>
        <time>2024-07-09T08:43:51Z</time>
      </trkpt>
      <trkpt lat="45.08538" lon="6.14911">
        <ele>2015</ele>
        <time>2024-07-09T08:43:52Z</time>
      </trkpt>
      <trkpt lat="45.08537" lon="6.1491">
        <ele>2015.2</ele>
        <time>2024-07-09T08:43:53Z</time>
      </trkpt>
      <trkpt lat="45.08536" lon="6.1491">
        <ele>2015.3</ele>
        <time>2024-07-09T08:43:54Z</time>
      </trkpt>
      <trkpt lat="45.08536" lon="6.14909">
        <ele>2015.4</ele>
        <time>2024-07-09T08:43:56Z</time>
      </trkpt>
      <trkpt lat="45.08535" lon="6.14909">
        <ele>2015.4</ele>
        <time>2024-07-09T08:43:57Z</time>
      </trkpt>
      <trkpt lat="45.08535" lon="6.14909">
        <ele>2015.5</ele>
        <time>2024-07-09T08:43:58Z</time>
      </trkpt>
      <trkpt lat="45.08534" lon="6.14909">
        <ele>2015.6</ele>
        <time>2024-07-09T08:43:59Z</time>
      </trkpt>
      <trkpt lat="45.08534" lon="6.14909">
        <ele>2015.7</ele>
        <time>2024-07-09T08:44:00Z</time>
      </trkpt>
      <trkpt lat="45.08533" lon="6.14909">
        <ele>2015.8</ele>
        <time>2024-07-09T08:44:01Z</time>
      </trkpt>
      <trkpt lat="45.08532" lon="6.14908">
        <ele>2016</ele>
        <time>2024-07-09T08:44:02Z</time>
      </trkpt>
      <trkpt lat="45.08531" lon="6.14908">
        <ele>2016</ele>
        <time>2024-07-09T08:44:04Z</time>
      </trkpt>
      <trkpt lat="45.08531" lon="6.14908">
        <ele>2016.1</ele>
        <time>2024-07-09T08:44:05Z</time>
      </trkpt>
      <trkpt lat="45.0853" lon="6.14907">
        <ele>2016.2</ele>
        <time>2024-07-09T08:44:06Z</time>
      </trkpt>
      <trkpt lat="45.08529" lon="6.14907">
        <ele>2016.4</ele>
        <time>2024-07-09T08:44:07Z</time>
      </trkpt>
      <trkpt lat="45.08528" lon="6.14907">
        <ele>2016.5</ele>
        <time>2024-07-09T08:44:09Z</time>
      </trkpt>
      <trkpt lat="45.08526" lon="6.14907">
        <ele>2016.7</ele>
        <time>2024-07-09T08:44:10Z</time>
      </trkpt>
      <trkpt lat="45.08526" lon="6.14907">
        <ele>2016.8</ele>
        <time>2024-07-09T08:44:12Z</time>
      </trkpt>
      <trkpt lat="45.08525" lon="6.14907">
        <ele>2016.8</ele>
        <time>2024-07-09T08:44:13Z</time>
      </trkpt>
      <trkpt lat="45.08524" lon="6.14907">
        <ele>2017</ele>
        <time>2024-07-09T08:44:14Z</time>
      </trkpt>
      <trkpt lat="45.08524" lon="6.14908">
        <ele>2017</ele>
        <time>2024-07-09T08:44:15Z</time>
      </trkpt>
      <trkpt lat="45.08523" lon="6.14908">
        <ele>2017.1</ele>
        <time>2024-07-09T08:44:16Z</time>
      </trkpt>
      <trkpt lat="45.08521" lon="6.14908">
        <ele>2017.3</ele>
        <time>2024-07-09T08:44:17Z</time>
      </trkpt>
      <trkpt lat="45.08521" lon="6.14908">
        <ele>2017.4</ele>
        <time>2024-07-09T08:44:19Z</time>
      </trkpt>
      <trkpt lat="45.0852" lon="6.14908">
        <ele>2017.5</ele>
        <time>2024-07-09T08:44:20Z</time>
      </trkpt>
      <trkpt lat="45.08519" lon="6.14908">
        <ele>2017.6</ele>
        <time>2024-07-09T08:44:21Z</time>
      </trkpt>
      <trkpt lat="45.08518" lon="6.14908">
        <ele>2017.7</ele>
        <time>2024-07-09T08:44:22Z</time>
      </trkpt>
      <trkpt lat="45.08516" lon="6.14908">
        <ele>2017.9</ele>
        <time>2024-07-09T08:44:23Z</time>
      </trkpt>
      <trkpt lat="45.08515" lon="6.14908">
        <ele>2018.1</ele>
        <time>2024-07-09T08:44:25Z</time>
      </trkpt>
      <trkpt lat="45.08514" lon="6.14908">
        <ele>2018.2</ele>
        <time>2024-07-09T08:44:27Z</time>
      </trkpt>
      <trkpt lat="45.08513" lon="6.14908">
        <ele>2018.3</ele>
        <time>2024-07-09T08:44:28Z</time>
      </trkpt>
      <trkpt lat="45.08512" lon="6.14908">
        <ele>2018.4</ele>
        <time>2024-07-09T08:44:29Z</time>
      </trkpt>
      <trkpt lat="45.08511" lon="6.14908">
        <ele>2018.5</ele>
        <time>2024-07-09T08:44:30Z</time>
      </trkpt>
      <trkpt lat="45.08511" lon="6.14908">
        <ele>2018.6</ele>
        <time>2024-07-09T08:44:31Z</time>
      </trkpt>
      <trkpt lat="45.0851" lon="6.14908">
        <ele>2018.7</ele>
        <time>2024-07-09T08:44:32Z</time>
      </trkpt>
      <trkpt lat="45.08509" lon="6.14908">
        <ele>2018.8</ele>
        <time>2024-07-09T08:44:33Z</time>
      </trkpt>
      <trkpt lat="45.08507" lon="6.14907">
        <ele>2019</ele>
        <time>2024-07-09T08:44:34Z</time>
      </trkpt>
      <trkpt lat="45.08506" lon="6.14906">
        <ele>2019.1</ele>
        <time>2024-07-09T08:44:36Z</time>
      </trkpt>
      <trkpt lat="45.08505" lon="6.14906">
        <ele>2019.2</ele>
        <time>2024-07-09T08:44:37Z</time>
      </trkpt>
      <trkpt lat="45.08505" lon="6.14906">
        <ele>2019.3</ele>
        <time>2024-07-09T08:44:38Z</time>
      </trkpt>
      <trkpt lat="45.08504" lon="6.14906">
        <ele>2019.4</ele>
        <time>2024-07-09T08:44:39Z</time>
      </trkpt>
      <trkpt lat="45.08503" lon="6.14905">
        <ele>2019.5</ele>
        <time>2024-07-09T08:44:40Z</time>
      </trkpt>
      <trkpt lat="45.08501" lon="6.14906">
        <ele>2019.7</ele>
        <time>2024-07-09T08:44:41Z</time>
      </trkpt>
      <trkpt lat="45.085" lon="6.14906">
        <ele>2019.8</ele>
        <time>2024-07-09T08:44:43Z</time>
      </trkpt>
      <trkpt lat="45.085" lon="6.14905">
        <ele>2019.9</ele>
        <time>2024-07-09T08:44:44Z</time>
      </trkpt>
      <trkpt lat="45.08499" lon="6.14905">
        <ele>2020</ele>
        <time>2024-07-09T08:44:45Z</time>
      </trkpt>
      <trkpt lat="45.08498" lon="6.14905">
        <ele>2020.1</ele>
        <time>2024-07-09T08:44:46Z</time>
      </trkpt>
      <trkpt lat="45.08497" lon="6.14904">
        <ele>2020.2</ele>
        <time>2024-07-09T08:44:47Z</time>
      </trkpt>
      <trkpt lat="45.08496" lon="6.14904">
        <ele>2020.3</ele>
        <time>2024-07-09T08:44:48Z</time>
      </trkpt>
      <trkpt lat="45.08495" lon="6.14903">
        <ele>2020.4</ele>
        <time>2024-07-09T08:44:49Z</time>
      </trkpt>
      <trkpt lat="45.08494" lon="6.14903">
        <ele>2020.6</ele>
        <time>2024-07-09T08:44:50Z</time>
      </trkpt>
      <trkpt lat="45.08493" lon="6.14903">
        <ele>2020.7</ele>
        <time>2024-07-09T08:44:51Z</time>
      </trkpt>
      <trkpt lat="45.08492" lon="6.14902">
        <ele>2020.8</ele>
        <time>2024-07-09T08:44:52Z</time>
      </trkpt>
      <trkpt lat="45.08491" lon="6.14902">
        <ele>2020.9</ele>
        <time>2024-07-09T08:44:53Z</time>
      </trkpt>
      <trkpt lat="45.0849" lon="6.14901">
        <ele>2021</ele>
        <time>2024-07-09T08:44:54Z</time>
      </trkpt>
      <trkpt lat="45.0849" lon="6.14901">
        <ele>2021.1</ele>
        <time>2024-07-09T08:44:55Z</time>
      </trkpt>
      <trkpt lat="45.08489" lon="6.14901">
        <ele>2021.1</ele>
        <time>2024-07-09T08:44:56Z</time>
      </trkpt>
      <trkpt lat="45.08487" lon="6.149">
        <ele>2021.3</ele>
        <time>2024-07-09T08:44:57Z</time>
      </trkpt>
      <trkpt lat="45.08487" lon="6.149">
        <ele>2021.3</ele>
        <time>2024-07-09T08:44:59Z</time>
      </trkpt>
      <trkpt lat="45.08486" lon="6.14899">
        <ele>2021.4</ele>
        <time>2024-07-09T08:45:00Z</time>
      </trkpt>
      <trkpt lat="45.08485" lon="6.14898">
        <ele>2021.5</ele>
        <time>2024-07-09T08:45:01Z</time>
      </trkpt>
      <trkpt lat="45.08484" lon="6.14898">
        <ele>2021.6</ele>
        <time>2024-07-09T08:45:02Z</time>
      </trkpt>
      <trkpt lat="45.08483" lon="6.14897">
        <ele>2021.7</ele>
        <time>2024-07-09T08:45:03Z</time>
      </trkpt>
      <trkpt lat="45.08482" lon="6.14897">
        <ele>2021.8</ele>
        <time>2024-07-09T08:45:04Z</time>
      </trkpt>
      <trkpt lat="45.08481" lon="6.14896">
        <ele>2021.8</ele>
        <time>2024-07-09T08:45:05Z</time>
      </trkpt>
      <trkpt lat="45.0848" lon="6.14895">
        <ele>2021.9</ele>
        <time>2024-07-09T08:45:06Z</time>
      </trkpt>
      <trkpt lat="45.08479" lon="6.14895">
        <ele>2022</ele>
        <time>2024-07-09T08:45:07Z</time>
      </trkpt>
      <trkpt lat="45.08478" lon="6.14895">
        <ele>2022</ele>
        <time>2024-07-09T08:45:08Z</time>
      </trkpt>
      <trkpt lat="45.08478" lon="6.14894">
        <ele>2022.1</ele>
        <time>2024-07-09T08:45:09Z</time>
      </trkpt>
      <trkpt lat="45.08477" lon="6.14893">
        <ele>2022.1</ele>
        <time>2024-07-09T08:45:10Z</time>
      </trkpt>
      <trkpt lat="45.08476" lon="6.14892">
        <ele>2022.2</ele>
        <time>2024-07-09T08:45:11Z</time>
      </trkpt>
      <trkpt lat="45.08475" lon="6.14892">
        <ele>2022.2</ele>
        <time>2024-07-09T08:45:12Z</time>
      </trkpt>
      <trkpt lat="45.08474" lon="6.14892">
        <ele>2022.2</ele>
        <time>2024-07-09T08:45:13Z</time>
      </trkpt>
      <trkpt lat="45.08473" lon="6.14892">
        <ele>2022.2</ele>
        <time>2024-07-09T08:45:14Z</time>
      </trkpt>
      <trkpt lat="45.08471" lon="6.14892">
        <ele>2022.2</ele>
        <time>2024-07-09T08:45:15Z</time>
      </trkpt>
      <trkpt lat="45.08469" lon="6.1489">
        <ele>2022.2</ele>
        <time>2024-07-09T08:45:16Z</time>
      </trkpt>
      <trkpt lat="45.08468" lon="6.1489">
        <ele>2022.1</ele>
        <time>2024-07-09T08:45:18Z</time>
      </trkpt>
      <trkpt lat="45.08467" lon="6.14889">
        <ele>2022.1</ele>
        <time>2024-07-09T08:45:19Z</time>
      </trkpt>
      <trkpt lat="45.08464" lon="6.14888">
        <ele>2021.9</ele>
        <time>2024-07-09T08:45:20Z</time>
      </trkpt>
      <trkpt lat="45.08463" lon="6.14887">
        <ele>2021.7</ele>
        <time>2024-07-09T08:45:22Z</time>
      </trkpt>
      <trkpt lat="45.08462" lon="6.14887">
        <ele>2021.6</ele>
        <time>2024-07-09T08:45:24Z</time>
      </trkpt>
      <trkpt lat="45.08461" lon="6.14886">
        <ele>2021.5</ele>
        <time>2024-07-09T08:45:25Z</time>
      </trkpt>
      <trkpt lat="45.0846" lon="6.14886">
        <ele>2021.3</ele>
        <time>2024-07-09T08:45:26Z</time>
      </trkpt>
      <trkpt lat="45.08459" lon="6.14885">
        <ele>2021</ele>
        <time>2024-07-09T08:45:27Z</time>
      </trkpt>
      <trkpt lat="45.08457" lon="6.14884">
        <ele>2020.6</ele>
        <time>2024-07-09T08:45:29Z</time>
      </trkpt>
      <trkpt lat="45.08456" lon="6.14884">
        <ele>2020.5</ele>
        <time>2024-07-09T08:45:30Z</time>
      </trkpt>
      <trkpt lat="45.08455" lon="6.14883">
        <ele>2020.3</ele>
        <time>2024-07-09T08:45:31Z</time>
      </trkpt>
      <trkpt lat="45.08453" lon="6.14883">
        <ele>2020</ele>
        <time>2024-07-09T08:45:32Z</time>
      </trkpt>
      <trkpt lat="45.08452" lon="6.14882">
        <ele>2019.7</ele>
        <time>2024-07-09T08:45:34Z</time>
      </trkpt>
      <trkpt lat="45.08451" lon="6.14878">
        <ele>2019.2</ele>
        <time>2024-07-09T08:45:35Z</time>
      </trkpt>
      <trkpt lat="45.08451" lon="6.14877">
        <ele>2019</ele>
        <time>2024-07-09T08:45:37Z</time>
      </trkpt>
      <trkpt lat="45.0845" lon="6.14876">
        <ele>2018.8</ele>
        <time>2024-07-09T08:45:38Z</time>
      </trkpt>
      <trkpt lat="45.0845" lon="6.14874">
        <ele>2018.5</ele>
        <time>2024-07-09T08:45:39Z</time>
      </trkpt>
      <trkpt lat="45.08449" lon="6.14873">
        <ele>2018.4</ele>
        <time>2024-07-09T08:45:40Z</time>
      </trkpt>
      <trkpt lat="45.08448" lon="6.14871">
        <ele>2018.1</ele>
        <time>2024-07-09T08:45:41Z</time>
      </trkpt>
      <trkpt lat="45.08448" lon="6.1487">
        <ele>2017.9</ele>
        <time>2024-07-09T08:45:42Z</time>
      </trkpt>
      <trkpt lat="45.08448" lon="6.14869">
        <ele>2017.8</ele>
        <time>2024-07-09T08:45:43Z</time>
      </trkpt>
      <trkpt lat="45.08447" lon="6.14868">
        <ele>2017.7</ele>
        <time>2024-07-09T08:45:45Z</time>
      </trkpt>
      <trkpt lat="45.08447" lon="6.14867">
        <ele>2017.5</ele>
        <time>2024-07-09T08:45:46Z</time>
      </trkpt>
      <trkpt lat="45.08446" lon="6.14865">
        <ele>2017.2</ele>
        <time>2024-07-09T08:45:47Z</time>
      </trkpt>
      <trkpt lat="45.08446" lon="6.14864">
        <ele>2017.1</ele>
        <time>2024-07-09T08:45:49Z</time>
      </trkpt>
      <trkpt lat="45.08445" lon="6.14863">
        <ele>2017</ele>
        <time>2024-07-09T08:45:50Z</time>
      </trkpt>
      <trkpt lat="45.08444" lon="6.14862">
        <ele>2016.8</ele>
        <time>2024-07-09T08:45:51Z</time>
      </trkpt>
      <trkpt lat="45.08443" lon="6.14863">
        <ele>2016.7</ele>
        <time>2024-07-09T08:45:52Z</time>
      </trkpt>
      <trkpt lat="45.08442" lon="6.14861">
        <ele>2016.5</ele>
        <time>2024-07-09T08:45:53Z</time>
      </trkpt>
      <trkpt lat="45.08441" lon="6.1486">
        <ele>2016.4</ele>
        <time>2024-07-09T08:45:54Z</time>
      </trkpt>
      <trkpt lat="45.08441" lon="6.14858">
        <ele>2016.3</ele>
        <time>2024-07-09T08:45:55Z</time>
      </trkpt>
      <trkpt lat="45.08441" lon="6.14857">
        <ele>2016.2</ele>
        <time>2024-07-09T08:45:57Z</time>
      </trkpt>
      <trkpt lat="45.0844" lon="6.14857">
        <ele>2016.2</ele>
        <time>2024-07-09T08:45:58Z</time>
      </trkpt>
      <trkpt lat="45.08438" lon="6.14856">
        <ele>2016</ele>
        <time>2024-07-09T08:45:59Z</time>
      </trkpt>
      <trkpt lat="45.08437" lon="6.14856">
        <ele>2015.8</ele>
        <time>2024-07-09T08:46:00Z</time>
      </trkpt>
      <trkpt lat="45.08437" lon="6.14855">
        <ele>2015.8</ele>
        <time>2024-07-09T08:46:02Z</time>
      </trkpt>
      <trkpt lat="45.08436" lon="6.14855">
        <ele>2015.7</ele>
        <time>2024-07-09T08:46:03Z</time>
      </trkpt>
      <trkpt lat="45.08436" lon="6.14854">
        <ele>2015.7</ele>
        <time>2024-07-09T08:46:04Z</time>
      </trkpt>
      <trkpt lat="45.08436" lon="6.14852">
        <ele>2015.6</ele>
        <time>2024-07-09T08:46:05Z</time>
      </trkpt>
      <trkpt lat="45.08435" lon="6.1485">
        <ele>2015.5</ele>
        <time>2024-07-09T08:46:06Z</time>
      </trkpt>
      <trkpt lat="45.08433" lon="6.14849">
        <ele>2015.3</ele>
        <time>2024-07-09T08:46:08Z</time>
      </trkpt>
      <trkpt lat="45.08433" lon="6.14849">
        <ele>2015.3</ele>
        <time>2024-07-09T08:46:09Z</time>
      </trkpt>
      <trkpt lat="45.08432" lon="6.14848">
        <ele>2015.3</ele>
        <time>2024-07-09T08:46:10Z</time>
      </trkpt>
      <trkpt lat="45.08431" lon="6.14848">
        <ele>2015.2</ele>
        <time>2024-07-09T08:46:11Z</time>
      </trkpt>
      <trkpt lat="45.08431" lon="6.14848">
        <ele>2015.2</ele>
        <time>2024-07-09T08:46:12Z</time>
      </trkpt>
      <trkpt lat="45.08429" lon="6.14847">
        <ele>2015.1</ele>
        <time>2024-07-09T08:46:13Z</time>
      </trkpt>
      <trkpt lat="45.08428" lon="6.14846">
        <ele>2015</ele>
        <time>2024-07-09T08:46:15Z</time>
      </trkpt>
      <trkpt lat="45.08428" lon="6.14846">
        <ele>2015</ele>
        <time>2024-07-09T08:46:16Z</time>
      </trkpt>
      <trkpt lat="45.08427" lon="6.14845">
        <ele>2015</ele>
        <time>2024-07-09T08:46:17Z</time>
      </trkpt>
      <trkpt lat="45.08426" lon="6.14844">
        <ele>2014.9</ele>
        <time>2024-07-09T08:46:18Z</time>
      </trkpt>
      <trkpt lat="45.08425" lon="6.14843">
        <ele>2014.9</ele>
        <time>2024-07-09T08:46:19Z</time>
      </trkpt>
      <trkpt lat="45.08425" lon="6.14842">
        <ele>2014.9</ele>
        <time>2024-07-09T08:46:21Z</time>
      </trkpt>
      <trkpt lat="45.08424" lon="6.14842">
        <ele>2014.9</ele>
        <time>2024-07-09T08:46:22Z</time>
      </trkpt>
      <trkpt lat="45.08423" lon="6.1484">
        <ele>2014.8</ele>
        <time>2024-07-09T08:46:23Z</time>
      </trkpt>
      <trkpt lat="45.08422" lon="6.1484">
        <ele>2014.8</ele>
        <time>2024-07-09T08:46:25Z</time>
      </trkpt>
      <trkpt lat="45.0842" lon="6.14839">
        <ele>2014.8</ele>
        <time>2024-07-09T08:46:26Z</time>
      </trkpt>
      <trkpt lat="45.08419" lon="6.14838">
        <ele>2014.8</ele>
        <time>2024-07-09T08:46:28Z</time>
      </trkpt>
      <trkpt lat="45.08419" lon="6.14838">
        <ele>2014.8</ele>
        <time>2024-07-09T08:46:29Z</time>
      </trkpt>
      <trkpt lat="45.08417" lon="6.14835">
        <ele>2014.8</ele>
        <time>2024-07-09T08:46:30Z</time>
      </trkpt>
      <trkpt lat="45.08417" lon="6.14835">
        <ele>2014.8</ele>
        <time>2024-07-09T08:46:32Z</time>
      </trkpt>
      <trkpt lat="45.08415" lon="6.14833">
        <ele>2014.9</ele>
        <time>2024-07-09T08:46:33Z</time>
      </trkpt>
      <trkpt lat="45.08415" lon="6.14832">
        <ele>2014.9</ele>
        <time>2024-07-09T08:46:35Z</time>
      </trkpt>
      <trkpt lat="45.08414" lon="6.14831">
        <ele>2014.9</ele>
        <time>2024-07-09T08:46:36Z</time>
      </trkpt>
      <trkpt lat="45.08413" lon="6.14831">
        <ele>2014.9</ele>
        <time>2024-07-09T08:46:37Z</time>
      </trkpt>
      <trkpt lat="45.08412" lon="6.1483">
        <ele>2014.9</ele>
        <time>2024-07-09T08:46:38Z</time>
      </trkpt>
      <trkpt lat="45.08412" lon="6.14829">
        <ele>2015</ele>
        <time>2024-07-09T08:46:39Z</time>
      </trkpt>
      <trkpt lat="45.08411" lon="6.14829">
        <ele>2015</ele>
        <time>2024-07-09T08:46:40Z</time>
      </trkpt>
      <trkpt lat="45.0841" lon="6.14828">
        <ele>2015</ele>
        <time>2024-07-09T08:46:41Z</time>
      </trkpt>
      <trkpt lat="45.0841" lon="6.14827">
        <ele>2015</ele>
        <time>2024-07-09T08:46:42Z</time>
      </trkpt>
      <trkpt lat="45.08409" lon="6.14827">
        <ele>2015.1</ele>
        <time>2024-07-09T08:46:43Z</time>
      </trkpt>
      <trkpt lat="45.08408" lon="6.14826">
        <ele>2015.1</ele>
        <time>2024-07-09T08:46:44Z</time>
      </trkpt>
      <trkpt lat="45.08407" lon="6.14826">
        <ele>2015.1</ele>
        <time>2024-07-09T08:46:45Z</time>
      </trkpt>
      <trkpt lat="45.08406" lon="6.14825">
        <ele>2015.1</ele>
        <time>2024-07-09T08:46:46Z</time>
      </trkpt>
      <trkpt lat="45.08405" lon="6.14824">
        <ele>2015.2</ele>
        <time>2024-07-09T08:46:47Z</time>
      </trkpt>
      <trkpt lat="45.08405" lon="6.14823">
        <ele>2015.2</ele>
        <time>2024-07-09T08:46:48Z</time>
      </trkpt>
      <trkpt lat="45.08403" lon="6.14822">
        <ele>2015.2</ele>
        <time>2024-07-09T08:46:49Z</time>
      </trkpt>
      <trkpt lat="45.08402" lon="6.14821">
        <ele>2015.2</ele>
        <time>2024-07-09T08:46:50Z</time>
      </trkpt>
      <trkpt lat="45.08401" lon="6.1482">
        <ele>2015.2</ele>
        <time>2024-07-09T08:46:52Z</time>
      </trkpt>
      <trkpt lat="45.084" lon="6.14819">
        <ele>2015.2</ele>
        <time>2024-07-09T08:46:53Z</time>
      </trkpt>
      <trkpt lat="45.08398" lon="6.1482">
        <ele>2015.1</ele>
        <time>2024-07-09T08:46:55Z</time>
      </trkpt>
      <trkpt lat="45.08397" lon="6.1482">
        <ele>2015.1</ele>
        <time>2024-07-09T08:46:56Z</time>
      </trkpt>
      <trkpt lat="45.08396" lon="6.14819">
        <ele>2015.1</ele>
        <time>2024-07-09T08:46:58Z</time>
      </trkpt>
      <trkpt lat="45.08395" lon="6.14818">
        <ele>2015</ele>
        <time>2024-07-09T08:46:59Z</time>
      </trkpt>
      <trkpt lat="45.08395" lon="6.14816">
        <ele>2015</ele>
        <time>2024-07-09T08:47:00Z</time>
      </trkpt>
      <trkpt lat="45.08395" lon="6.14814">
        <ele>2014.9</ele>
        <time>2024-07-09T08:47:01Z</time>
      </trkpt>
      <trkpt lat="45.08394" lon="6.14813">
        <ele>2014.9</ele>
        <time>2024-07-09T08:47:02Z</time>
      </trkpt>
      <trkpt lat="45.08394" lon="6.14812">
        <ele>2014.8</ele>
        <time>2024-07-09T08:47:03Z</time>
      </trkpt>
      <trkpt lat="45.08393" lon="6.1481">
        <ele>2014.7</ele>
        <time>2024-07-09T08:47:04Z</time>
      </trkpt>
      <trkpt lat="45.08391" lon="6.14808">
        <ele>2014.6</ele>
        <time>2024-07-09T08:47:05Z</time>
      </trkpt>
      <trkpt lat="45.0839" lon="6.14808">
        <ele>2014.5</ele>
        <time>2024-07-09T08:47:07Z</time>
      </trkpt>
      <trkpt lat="45.08389" lon="6.14807">
        <ele>2014.5</ele>
        <time>2024-07-09T08:47:08Z</time>
      </trkpt>
      <trkpt lat="45.08387" lon="6.14805">
        <ele>2014.4</ele>
        <time>2024-07-09T08:47:09Z</time>
      </trkpt>
      <trkpt lat="45.08387" lon="6.14804">
        <ele>2014.3</ele>
        <time>2024-07-09T08:47:11Z</time>
      </trkpt>
      <trkpt lat="45.08385" lon="6.14803">
        <ele>2014.3</ele>
        <time>2024-07-09T08:47:12Z</time>
      </trkpt>
      <trkpt lat="45.08384" lon="6.14802">
        <ele>2014.2</ele>
        <time>2024-07-09T08:47:13Z</time>
      </trkpt>
      <trkpt lat="45.08383" lon="6.14801">
        <ele>2014.2</ele>
        <time>2024-07-09T08:47:14Z</time>
      </trkpt>
      <trkpt lat="45.08382" lon="6.14801">
        <ele>2014.1</ele>
        <time>2024-07-09T08:47:16Z</time>
      </trkpt>
      <trkpt lat="45.0838" lon="6.148">
        <ele>2014.1</ele>
        <time>2024-07-09T08:47:17Z</time>
      </trkpt>
      <trkpt lat="45.08379" lon="6.148">
        <ele>2014.1</ele>
        <time>2024-07-09T08:47:19Z</time>
      </trkpt>
      <trkpt lat="45.08378" lon="6.14799">
        <ele>2014.1</ele>
        <time>2024-07-09T08:47:20Z</time>
      </trkpt>
      <trkpt lat="45.08377" lon="6.14798">
        <ele>2014.1</ele>
        <time>2024-07-09T08:47:21Z</time>
      </trkpt>
      <trkpt lat="45.08376" lon="6.14797">
        <ele>2014.1</ele>
        <time>2024-07-09T08:47:22Z</time>
      </trkpt>
      <trkpt lat="45.08375" lon="6.14795">
        <ele>2014.1</ele>
        <time>2024-07-09T08:47:23Z</time>
      </trkpt>
      <trkpt lat="45.08374" lon="6.14795">
        <ele>2014.1</ele>
        <time>2024-07-09T08:47:25Z</time>
      </trkpt>
      <trkpt lat="45.08373" lon="6.14794">
        <ele>2014.1</ele>
        <time>2024-07-09T08:47:26Z</time>
      </trkpt>
      <trkpt lat="45.08372" lon="6.14793">
        <ele>2014.1</ele>
        <time>2024-07-09T08:47:27Z</time>
      </trkpt>
      <trkpt lat="45.08371" lon="6.14792">
        <ele>2014.2</ele>
        <time>2024-07-09T08:47:28Z</time>
      </trkpt>
      <trkpt lat="45.08369" lon="6.14791">
        <ele>2014.2</ele>
        <time>2024-07-09T08:47:29Z</time>
      </trkpt>
      <trkpt lat="45.08367" lon="6.14791">
        <ele>2014.3</ele>
        <time>2024-07-09T08:47:31Z</time>
      </trkpt>
      <trkpt lat="45.08366" lon="6.14791">
        <ele>2014.4</ele>
        <time>2024-07-09T08:47:33Z</time>
      </trkpt>
      <trkpt lat="45.08365" lon="6.14791">
        <ele>2014.4</ele>
        <time>2024-07-09T08:47:34Z</time>
      </trkpt>
      <trkpt lat="45.08364" lon="6.14791">
        <ele>2014.5</ele>
        <time>2024-07-09T08:47:35Z</time>
      </trkpt>
      <trkpt lat="45.08363" lon="6.1479">
        <ele>2014.5</ele>
        <time>2024-07-09T08:47:36Z</time>
      </trkpt>
      <trkpt lat="45.08362" lon="6.14789">
        <ele>2014.6</ele>
        <time>2024-07-09T08:47:37Z</time>
      </trkpt>
      <trkpt lat="45.0836" lon="6.14788">
        <ele>2014.7</ele>
        <time>2024-07-09T08:47:38Z</time>
      </trkpt>
      <trkpt lat="45.08359" lon="6.14787">
        <ele>2014.7</ele>
        <time>2024-07-09T08:47:40Z</time>
      </trkpt>
      <trkpt lat="45.08359" lon="6.14786">
        <ele>2014.8</ele>
        <time>2024-07-09T08:47:41Z</time>
      </trkpt>
      <trkpt lat="45.08357" lon="6.14785">
        <ele>2014.8</ele>
        <time>2024-07-09T08:47:42Z</time>
      </trkpt>
      <trkpt lat="45.08355" lon="6.14784">
        <ele>2014.9</ele>
        <time>2024-07-09T08:47:44Z</time>
      </trkpt>
      <trkpt lat="45.08355" lon="6.14783">
        <ele>2015</ele>
        <time>2024-07-09T08:47:46Z</time>
      </trkpt>
      <trkpt lat="45.08354" lon="6.14783">
        <ele>2015</ele>
        <time>2024-07-09T08:47:47Z</time>
      </trkpt>
      <trkpt lat="45.08353" lon="6.14782">
        <ele>2015.1</ele>
        <time>2024-07-09T08:47:48Z</time>
      </trkpt>
      <trkpt lat="45.08352" lon="6.14781">
        <ele>2015.4</ele>
        <time>2024-07-09T08:47:49Z</time>
      </trkpt>
      <trkpt lat="45.08351" lon="6.1478">
        <ele>2015.5</ele>
        <time>2024-07-09T08:47:51Z</time>
      </trkpt>
      <trkpt lat="45.0835" lon="6.14779">
        <ele>2015.7</ele>
        <time>2024-07-09T08:47:52Z</time>
      </trkpt>
      <trkpt lat="45.08349" lon="6.14778">
        <ele>2015.8</ele>
        <time>2024-07-09T08:47:53Z</time>
      </trkpt>
      <trkpt lat="45.08348" lon="6.14777">
        <ele>2015.9</ele>
        <time>2024-07-09T08:47:54Z</time>
      </trkpt>
      <trkpt lat="45.08347" lon="6.14776">
        <ele>2016.1</ele>
        <time>2024-07-09T08:47:55Z</time>
      </trkpt>
      <trkpt lat="45.08347" lon="6.14775">
        <ele>2016.2</ele>
        <time>2024-07-09T08:47:56Z</time>
      </trkpt>
      <trkpt lat="45.08346" lon="6.14774">
        <ele>2016.3</ele>
        <time>2024-07-09T08:47:57Z</time>
      </trkpt>
      <trkpt lat="45.08345" lon="6.14773">
        <ele>2016.5</ele>
        <time>2024-07-09T08:47:58Z</time>
      </trkpt>
      <trkpt lat="45.08344" lon="6.14772">
        <ele>2016.6</ele>
        <time>2024-07-09T08:47:59Z</time>
      </trkpt>
      <trkpt lat="45.08344" lon="6.14771">
        <ele>2016.8</ele>
        <time>2024-07-09T08:48:00Z</time>
      </trkpt>
      <trkpt lat="45.08343" lon="6.14769">
        <ele>2017</ele>
        <time>2024-07-09T08:48:01Z</time>
      </trkpt>
      <trkpt lat="45.08342" lon="6.14768">
        <ele>2017.1</ele>
        <time>2024-07-09T08:48:02Z</time>
      </trkpt>
      <trkpt lat="45.08342" lon="6.14767">
        <ele>2017.3</ele>
        <time>2024-07-09T08:48:03Z</time>
      </trkpt>
      <trkpt lat="45.08341" lon="6.14766">
        <ele>2017.4</ele>
        <time>2024-07-09T08:48:04Z</time>
      </trkpt>
      <trkpt lat="45.0834" lon="6.14765">
        <ele>2017.6</ele>
        <time>2024-07-09T08:48:05Z</time>
      </trkpt>
      <trkpt lat="45.08338" lon="6.14763">
        <ele>2017.9</ele>
        <time>2024-07-09T08:48:06Z</time>
      </trkpt>
      <trkpt lat="45.08338" lon="6.14762">
        <ele>2018</ele>
        <time>2024-07-09T08:48:07Z</time>
      </trkpt>
      <trkpt lat="45.08337" lon="6.14761">
        <ele>2018.1</ele>
        <time>2024-07-09T08:48:09Z</time>
      </trkpt>
      <trkpt lat="45.08337" lon="6.14761">
        <ele>2018.2</ele>
        <time>2024-07-09T08:48:10Z</time>
      </trkpt>
      <trkpt lat="45.08336" lon="6.14759">
        <ele>2018.4</ele>
        <time>2024-07-09T08:48:11Z</time>
      </trkpt>
      <trkpt lat="45.08335" lon="6.14758">
        <ele>2018.5</ele>
        <time>2024-07-09T08:48:12Z</time>
      </trkpt>
      <trkpt lat="45.08333" lon="6.14756">
        <ele>2019</ele>
        <time>2024-07-09T08:48:13Z</time>
      </trkpt>
      <trkpt lat="45.08332" lon="6.14755">
        <ele>2019.1</ele>
        <time>2024-07-09T08:48:15Z</time>
      </trkpt>
      <trkpt lat="45.08331" lon="6.14754">
        <ele>2019.3</ele>
        <time>2024-07-09T08:48:16Z</time>
      </trkpt>
      <trkpt lat="45.0833" lon="6.14754">
        <ele>2019.5</ele>
        <time>2024-07-09T08:48:18Z</time>
      </trkpt>
      <trkpt lat="45.0833" lon="6.14754">
        <ele>2019.6</ele>
        <time>2024-07-09T08:48:19Z</time>
      </trkpt>
      <trkpt lat="45.08329" lon="6.14753">
        <ele>2019.8</ele>
        <time>2024-07-09T08:48:20Z</time>
      </trkpt>
      <trkpt lat="45.08328" lon="6.14752">
        <ele>2020</ele>
        <time>2024-07-09T08:48:21Z</time>
      </trkpt>
      <trkpt lat="45.08328" lon="6.14751">
        <ele>2020.1</ele>
        <time>2024-07-09T08:48:22Z</time>
      </trkpt>
      <trkpt lat="45.08327" lon="6.1475">
        <ele>2020.3</ele>
        <time>2024-07-09T08:48:23Z</time>
      </trkpt>
      <trkpt lat="45.08326" lon="6.14749">
        <ele>2020.5</ele>
        <time>2024-07-09T08:48:24Z</time>
      </trkpt>
      <trkpt lat="45.08326" lon="6.14749">
        <ele>2020.7</ele>
        <time>2024-07-09T08:48:25Z</time>
      </trkpt>
      <trkpt lat="45.08325" lon="6.14748">
        <ele>2020.9</ele>
        <time>2024-07-09T08:48:26Z</time>
      </trkpt>
      <trkpt lat="45.08324" lon="6.14747">
        <ele>2021.1</ele>
        <time>2024-07-09T08:48:27Z</time>
      </trkpt>
      <trkpt lat="45.08323" lon="6.14746">
        <ele>2021.4</ele>
        <time>2024-07-09T08:48:28Z</time>
      </trkpt>
      <trkpt lat="45.08323" lon="6.14745">
        <ele>2021.7</ele>
        <time>2024-07-09T08:48:29Z</time>
      </trkpt>
      <trkpt lat="45.08322" lon="6.14745">
        <ele>2021.8</ele>
        <time>2024-07-09T08:48:30Z</time>
      </trkpt>
      <trkpt lat="45.08322" lon="6.14744">
        <ele>2022.1</ele>
        <time>2024-07-09T08:48:31Z</time>
      </trkpt>
      <trkpt lat="45.08321" lon="6.14743">
        <ele>2022.3</ele>
        <time>2024-07-09T08:48:32Z</time>
      </trkpt>
      <trkpt lat="45.0832" lon="6.14743">
        <ele>2022.4</ele>
        <time>2024-07-09T08:48:33Z</time>
      </trkpt>
      <trkpt lat="45.0832" lon="6.14742">
        <ele>2022.7</ele>
        <time>2024-07-09T08:48:34Z</time>
      </trkpt>
      <trkpt lat="45.08319" lon="6.14742">
        <ele>2022.8</ele>
        <time>2024-07-09T08:48:35Z</time>
      </trkpt>
      <trkpt lat="45.08319" lon="6.14741">
        <ele>2023</ele>
        <time>2024-07-09T08:48:36Z</time>
      </trkpt>
      <trkpt lat="45.08318" lon="6.1474">
        <ele>2023.2</ele>
        <time>2024-07-09T08:48:37Z</time>
      </trkpt>
      <trkpt lat="45.08317" lon="6.1474">
        <ele>2023.6</ele>
        <time>2024-07-09T08:48:38Z</time>
      </trkpt>
      <trkpt lat="45.08316" lon="6.14739">
        <ele>2023.8</ele>
        <time>2024-07-09T08:48:39Z</time>
      </trkpt>
      <trkpt lat="45.08316" lon="6.14739">
        <ele>2024.1</ele>
        <time>2024-07-09T08:48:40Z</time>
      </trkpt>
      <trkpt lat="45.08315" lon="6.14738">
        <ele>2024.4</ele>
        <time>2024-07-09T08:48:41Z</time>
      </trkpt>
      <trkpt lat="45.08313" lon="6.14738">
        <ele>2025</ele>
        <time>2024-07-09T08:48:43Z</time>
      </trkpt>
      <trkpt lat="45.08312" lon="6.14737">
        <ele>2025.1</ele>
        <time>2024-07-09T08:48:45Z</time>
      </trkpt>
      <trkpt lat="45.08312" lon="6.14737">
        <ele>2025.3</ele>
        <time>2024-07-09T08:48:46Z</time>
      </trkpt>
      <trkpt lat="45.08311" lon="6.14737">
        <ele>2025.5</ele>
        <time>2024-07-09T08:48:47Z</time>
      </trkpt>
      <trkpt lat="45.08311" lon="6.14737">
        <ele>2025.6</ele>
        <time>2024-07-09T08:48:48Z</time>
      </trkpt>
      <trkpt lat="45.0831" lon="6.14737">
        <ele>2025.8</ele>
        <time>2024-07-09T08:48:49Z</time>
      </trkpt>
      <trkpt lat="45.0831" lon="6.14737">
        <ele>2025.9</ele>
        <time>2024-07-09T08:48:50Z</time>
      </trkpt>
      <trkpt lat="45.0831" lon="6.14736">
        <ele>2026.1</ele>
        <time>2024-07-09T08:48:51Z</time>
      </trkpt>
      <trkpt lat="45.08309" lon="6.14734">
        <ele>2026.6</ele>
        <time>2024-07-09T08:48:52Z</time>
      </trkpt>
      <trkpt lat="45.08309" lon="6.14734">
        <ele>2026.7</ele>
        <time>2024-07-09T08:48:53Z</time>
      </trkpt>
      <trkpt lat="45.0831" lon="6.14733">
        <ele>2026.8</ele>
        <time>2024-07-09T08:48:54Z</time>
      </trkpt>
      <trkpt lat="45.08309" lon="6.14732">
        <ele>2027.3</ele>
        <time>2024-07-09T08:48:55Z</time>
      </trkpt>
      <trkpt lat="45.08309" lon="6.1473">
        <ele>2027.6</ele>
        <time>2024-07-09T08:48:57Z</time>
      </trkpt>
      <trkpt lat="45.08309" lon="6.14729">
        <ele>2027.9</ele>
        <time>2024-07-09T08:48:58Z</time>
      </trkpt>
      <trkpt lat="45.08309" lon="6.14728">
        <ele>2028.1</ele>
        <time>2024-07-09T08:49:00Z</time>
      </trkpt>
      <trkpt lat="45.08309" lon="6.14728">
        <ele>2028.3</ele>
        <time>2024-07-09T08:49:01Z</time>
      </trkpt>
      <trkpt lat="45.0831" lon="6.14726">
        <ele>2028.7</ele>
        <time>2024-07-09T08:49:02Z</time>
      </trkpt>
      <trkpt lat="45.08309" lon="6.14726">
        <ele>2028.8</ele>
        <time>2024-07-09T08:49:04Z</time>
      </trkpt>
      <trkpt lat="45.08309" lon="6.14725">
        <ele>2029</ele>
        <time>2024-07-09T08:49:05Z</time>
      </trkpt>
      <trkpt lat="45.08309" lon="6.14724">
        <ele>2029.1</ele>
        <time>2024-07-09T08:49:06Z</time>
      </trkpt>
      <trkpt lat="45.08309" lon="6.14723">
        <ele>2029.4</ele>
        <time>2024-07-09T08:49:07Z</time>
      </trkpt>
      <trkpt lat="45.08308" lon="6.14723">
        <ele>2029.5</ele>
        <time>2024-07-09T08:49:08Z</time>
      </trkpt>
      <trkpt lat="45.08308" lon="6.14723">
        <ele>2029.7</ele>
        <time>2024-07-09T08:49:09Z</time>
      </trkpt>
      <trkpt lat="45.08307" lon="6.14723">
        <ele>2029.9</ele>
        <time>2024-07-09T08:49:10Z</time>
      </trkpt>
      <trkpt lat="45.08306" lon="6.14723">
        <ele>2030.2</ele>
        <time>2024-07-09T08:49:11Z</time>
      </trkpt>
      <trkpt lat="45.08305" lon="6.14724">
        <ele>2030.5</ele>
        <time>2024-07-09T08:49:12Z</time>
      </trkpt>
      <trkpt lat="45.08305" lon="6.14725">
        <ele>2030.8</ele>
        <time>2024-07-09T08:49:13Z</time>
      </trkpt>
      <trkpt lat="45.08304" lon="6.14726">
        <ele>2031.2</ele>
        <time>2024-07-09T08:49:14Z</time>
      </trkpt>
      <trkpt lat="45.08303" lon="6.14725">
        <ele>2031.4</ele>
        <time>2024-07-09T08:49:15Z</time>
      </trkpt>
      <trkpt lat="45.08302" lon="6.14725">
        <ele>2031.7</ele>
        <time>2024-07-09T08:49:17Z</time>
      </trkpt>
      <trkpt lat="45.08302" lon="6.14725">
        <ele>2031.9</ele>
        <time>2024-07-09T08:49:19Z</time>
      </trkpt>
      <trkpt lat="45.083" lon="6.14726">
        <ele>2032.2</ele>
        <time>2024-07-09T08:49:20Z</time>
      </trkpt>
      <trkpt lat="45.08299" lon="6.14725">
        <ele>2032.4</ele>
        <time>2024-07-09T08:49:22Z</time>
      </trkpt>
      <trkpt lat="45.08299" lon="6.14725">
        <ele>2032.5</ele>
        <time>2024-07-09T08:49:24Z</time>
      </trkpt>
      <trkpt lat="45.08299" lon="6.14725">
        <ele>2032.6</ele>
        <time>2024-07-09T08:49:25Z</time>
      </trkpt>
      <trkpt lat="45.08298" lon="6.14726">
        <ele>2032.8</ele>
        <time>2024-07-09T08:49:26Z</time>
      </trkpt>
      <trkpt lat="45.08298" lon="6.14726">
        <ele>2032.9</ele>
        <time>2024-07-09T08:49:28Z</time>
      </trkpt>
      <trkpt lat="45.08297" lon="6.14726">
        <ele>2033.1</ele>
        <time>2024-07-09T08:49:29Z</time>
      </trkpt>
      <trkpt lat="45.08296" lon="6.14726">
        <ele>2033.3</ele>
        <time>2024-07-09T08:49:31Z</time>
      </trkpt>
      <trkpt lat="45.08296" lon="6.14726">
        <ele>2033.4</ele>
        <time>2024-07-09T08:49:32Z</time>
      </trkpt>
      <trkpt lat="45.08295" lon="6.14725">
        <ele>2033.6</ele>
        <time>2024-07-09T08:49:33Z</time>
      </trkpt>
      <trkpt lat="45.08295" lon="6.14726">
        <ele>2033.7</ele>
        <time>2024-07-09T08:49:34Z</time>
      </trkpt>
      <trkpt lat="45.08294" lon="6.14726">
        <ele>2033.9</ele>
        <time>2024-07-09T08:49:35Z</time>
      </trkpt>
      <trkpt lat="45.08293" lon="6.14726">
        <ele>2034.1</ele>
        <time>2024-07-09T08:49:36Z</time>
      </trkpt>
      <trkpt lat="45.08293" lon="6.14725">
        <ele>2034.4</ele>
        <time>2024-07-09T08:49:37Z</time>
      </trkpt>
      <trkpt lat="45.08292" lon="6.14724">
        <ele>2034.5</ele>
        <time>2024-07-09T08:49:39Z</time>
      </trkpt>
      <trkpt lat="45.08292" lon="6.14724">
        <ele>2034.6</ele>
        <time>2024-07-09T08:49:40Z</time>
      </trkpt>
      <trkpt lat="45.08291" lon="6.14724">
        <ele>2034.8</ele>
        <time>2024-07-09T08:49:41Z</time>
      </trkpt>
      <trkpt lat="45.0829" lon="6.14724">
        <ele>2035</ele>
        <time>2024-07-09T08:49:42Z</time>
      </trkpt>
      <trkpt lat="45.0829" lon="6.14723">
        <ele>2035</ele>
        <time>2024-07-09T08:49:43Z</time>
      </trkpt>
      <trkpt lat="45.0829" lon="6.14723">
        <ele>2035.1</ele>
        <time>2024-07-09T08:49:44Z</time>
      </trkpt>
      <trkpt lat="45.08289" lon="6.14723">
        <ele>2035.2</ele>
        <time>2024-07-09T08:49:45Z</time>
      </trkpt>
      <trkpt lat="45.08289" lon="6.14723">
        <ele>2035.2</ele>
        <time>2024-07-09T08:49:46Z</time>
      </trkpt>
      <trkpt lat="45.08288" lon="6.14722">
        <ele>2035.5</ele>
        <time>2024-07-09T08:49:47Z</time>
      </trkpt>
      <trkpt lat="45.08288" lon="6.14722">
        <ele>2035.6</ele>
        <time>2024-07-09T08:49:48Z</time>
      </trkpt>
      <trkpt lat="45.08288" lon="6.14721">
        <ele>2035.7</ele>
        <time>2024-07-09T08:49:49Z</time>
      </trkpt>
      <trkpt lat="45.08287" lon="6.14721">
        <ele>2035.8</ele>
        <time>2024-07-09T08:49:50Z</time>
      </trkpt>
      <trkpt lat="45.08287" lon="6.1472">
        <ele>2036</ele>
        <time>2024-07-09T08:49:51Z</time>
      </trkpt>
      <trkpt lat="45.08286" lon="6.1472">
        <ele>2036.2</ele>
        <time>2024-07-09T08:49:52Z</time>
      </trkpt>
      <trkpt lat="45.08286" lon="6.1472">
        <ele>2036.2</ele>
        <time>2024-07-09T08:49:53Z</time>
      </trkpt>
      <trkpt lat="45.08285" lon="6.14719">
        <ele>2036.4</ele>
        <time>2024-07-09T08:49:54Z</time>
      </trkpt>
      <trkpt lat="45.08284" lon="6.14719">
        <ele>2036.7</ele>
        <time>2024-07-09T08:49:55Z</time>
      </trkpt>
      <trkpt lat="45.08283" lon="6.14719">
        <ele>2036.8</ele>
        <time>2024-07-09T08:49:56Z</time>
      </trkpt>
      <trkpt lat="45.08282" lon="6.14718">
        <ele>2037</ele>
        <time>2024-07-09T08:49:58Z</time>
      </trkpt>
      <trkpt lat="45.08282" lon="6.14717">
        <ele>2037.2</ele>
        <time>2024-07-09T08:49:59Z</time>
      </trkpt>
      <trkpt lat="45.08282" lon="6.14717">
        <ele>2037.3</ele>
        <time>2024-07-09T08:50:00Z</time>
      </trkpt>
      <trkpt lat="45.08281" lon="6.14716">
        <ele>2037.5</ele>
        <time>2024-07-09T08:50:01Z</time>
      </trkpt>
      <trkpt lat="45.08281" lon="6.14715">
        <ele>2037.7</ele>
        <time>2024-07-09T08:50:02Z</time>
      </trkpt>
      <trkpt lat="45.0828" lon="6.14714">
        <ele>2038</ele>
        <time>2024-07-09T08:50:03Z</time>
      </trkpt>
      <trkpt lat="45.08279" lon="6.14713">
        <ele>2038.1</ele>
        <time>2024-07-09T08:50:05Z</time>
      </trkpt>
      <trkpt lat="45.08279" lon="6.14712">
        <ele>2038.3</ele>
        <time>2024-07-09T08:50:06Z</time>
      </trkpt>
      <trkpt lat="45.08278" lon="6.14713">
        <ele>2038.5</ele>
        <time>2024-07-09T08:50:07Z</time>
      </trkpt>
      <trkpt lat="45.08277" lon="6.14713">
        <ele>2038.6</ele>
        <time>2024-07-09T08:50:08Z</time>
      </trkpt>
      <trkpt lat="45.08277" lon="6.14712">
        <ele>2038.8</ele>
        <time>2024-07-09T08:50:09Z</time>
      </trkpt>
      <trkpt lat="45.08276" lon="6.14712">
        <ele>2038.9</ele>
        <time>2024-07-09T08:50:10Z</time>
      </trkpt>
      <trkpt lat="45.08276" lon="6.14711">
        <ele>2039</ele>
        <time>2024-07-09T08:50:11Z</time>
      </trkpt>
      <trkpt lat="45.08275" lon="6.14711">
        <ele>2039.3</ele>
        <time>2024-07-09T08:50:12Z</time>
      </trkpt>
      <trkpt lat="45.08275" lon="6.1471">
        <ele>2039.3</ele>
        <time>2024-07-09T08:50:13Z</time>
      </trkpt>
      <trkpt lat="45.08274" lon="6.1471">
        <ele>2039.5</ele>
        <time>2024-07-09T08:50:14Z</time>
      </trkpt>
      <trkpt lat="45.08274" lon="6.14709">
        <ele>2039.6</ele>
        <time>2024-07-09T08:50:15Z</time>
      </trkpt>
      <trkpt lat="45.08274" lon="6.14708">
        <ele>2039.7</ele>
        <time>2024-07-09T08:50:16Z</time>
      </trkpt>
      <trkpt lat="45.08274" lon="6.14707">
        <ele>2039.9</ele>
        <time>2024-07-09T08:50:17Z</time>
      </trkpt>
      <trkpt lat="45.08274" lon="6.14707">
        <ele>2040</ele>
        <time>2024-07-09T08:50:18Z</time>
      </trkpt>
      <trkpt lat="45.08273" lon="6.14706">
        <ele>2040.1</ele>
        <time>2024-07-09T08:50:19Z</time>
      </trkpt>
      <trkpt lat="45.08273" lon="6.14706">
        <ele>2040.2</ele>
        <time>2024-07-09T08:50:20Z</time>
      </trkpt>
      <trkpt lat="45.08272" lon="6.14705">
        <ele>2040.3</ele>
        <time>2024-07-09T08:50:21Z</time>
      </trkpt>
      <trkpt lat="45.08272" lon="6.14705">
        <ele>2040.4</ele>
        <time>2024-07-09T08:50:22Z</time>
      </trkpt>
      <trkpt lat="45.08271" lon="6.14704">
        <ele>2040.6</ele>
        <time>2024-07-09T08:50:23Z</time>
      </trkpt>
      <trkpt lat="45.08271" lon="6.14704">
        <ele>2040.7</ele>
        <time>2024-07-09T08:50:24Z</time>
      </trkpt>
      <trkpt lat="45.0827" lon="6.14704">
        <ele>2040.8</ele>
        <time>2024-07-09T08:50:25Z</time>
      </trkpt>
      <trkpt lat="45.08269" lon="6.14703">
        <ele>2041.1</ele>
        <time>2024-07-09T08:50:26Z</time>
      </trkpt>
      <trkpt lat="45.08269" lon="6.14702">
        <ele>2041.2</ele>
        <time>2024-07-09T08:50:28Z</time>
      </trkpt>
      <trkpt lat="45.08268" lon="6.14702">
        <ele>2041.3</ele>
        <time>2024-07-09T08:50:29Z</time>
      </trkpt>
      <trkpt lat="45.08268" lon="6.14702">
        <ele>2041.4</ele>
        <time>2024-07-09T08:50:31Z</time>
      </trkpt>
      <trkpt lat="45.08267" lon="6.14701">
        <ele>2041.6</ele>
        <time>2024-07-09T08:50:32Z</time>
      </trkpt>
      <trkpt lat="45.08267" lon="6.14701">
        <ele>2041.6</ele>
        <time>2024-07-09T08:50:33Z</time>
      </trkpt>
      <trkpt lat="45.08266" lon="6.147">
        <ele>2041.9</ele>
        <time>2024-07-09T08:50:34Z</time>
      </trkpt>
      <trkpt lat="45.08265" lon="6.147">
        <ele>2042</ele>
        <time>2024-07-09T08:50:36Z</time>
      </trkpt>
      <trkpt lat="45.08264" lon="6.14699">
        <ele>2042.2</ele>
        <time>2024-07-09T08:50:37Z</time>
      </trkpt>
      <trkpt lat="45.08264" lon="6.14699">
        <ele>2042.3</ele>
        <time>2024-07-09T08:50:38Z</time>
      </trkpt>
      <trkpt lat="45.08264" lon="6.14699">
        <ele>2042.4</ele>
        <time>2024-07-09T08:50:39Z</time>
      </trkpt>
      <trkpt lat="45.08262" lon="6.14697">
        <ele>2042.7</ele>
        <time>2024-07-09T08:50:40Z</time>
      </trkpt>
      <trkpt lat="45.08262" lon="6.14697">
        <ele>2042.8</ele>
        <time>2024-07-09T08:50:41Z</time>
      </trkpt>
      <trkpt lat="45.08262" lon="6.14696">
        <ele>2042.9</ele>
        <time>2024-07-09T08:50:43Z</time>
      </trkpt>
      <trkpt lat="45.08261" lon="6.14696">
        <ele>2043</ele>
        <time>2024-07-09T08:50:44Z</time>
      </trkpt>
      <trkpt lat="45.08261" lon="6.14695">
        <ele>2043.1</ele>
        <time>2024-07-09T08:50:45Z</time>
      </trkpt>
      <trkpt lat="45.0826" lon="6.14694">
        <ele>2043.3</ele>
        <time>2024-07-09T08:50:46Z</time>
      </trkpt>
      <trkpt lat="45.0826" lon="6.14694">
        <ele>2043.5</ele>
        <time>2024-07-09T08:50:48Z</time>
      </trkpt>
      <trkpt lat="45.08259" lon="6.14693">
        <ele>2043.6</ele>
        <time>2024-07-09T08:50:49Z</time>
      </trkpt>
      <trkpt lat="45.08259" lon="6.14692">
        <ele>2043.8</ele>
        <time>2024-07-09T08:50:50Z</time>
      </trkpt>
      <trkpt lat="45.08258" lon="6.14692">
        <ele>2043.9</ele>
        <time>2024-07-09T08:50:51Z</time>
      </trkpt>
      <trkpt lat="45.08258" lon="6.14691">
        <ele>2044</ele>
        <time>2024-07-09T08:50:52Z</time>
      </trkpt>
      <trkpt lat="45.08257" lon="6.1469">
        <ele>2044.2</ele>
        <time>2024-07-09T08:50:53Z</time>
      </trkpt>
      <trkpt lat="45.08257" lon="6.1469">
        <ele>2044.3</ele>
        <time>2024-07-09T08:50:54Z</time>
      </trkpt>
      <trkpt lat="45.08257" lon="6.14689">
        <ele>2044.5</ele>
        <time>2024-07-09T08:50:55Z</time>
      </trkpt>
      <trkpt lat="45.08256" lon="6.14688">
        <ele>2044.6</ele>
        <time>2024-07-09T08:50:56Z</time>
      </trkpt>
      <trkpt lat="45.08256" lon="6.14688">
        <ele>2044.7</ele>
        <time>2024-07-09T08:50:57Z</time>
      </trkpt>
      <trkpt lat="45.08255" lon="6.14687">
        <ele>2044.8</ele>
        <time>2024-07-09T08:50:58Z</time>
      </trkpt>
      <trkpt lat="45.08253" lon="6.14686">
        <ele>2045.2</ele>
        <time>2024-07-09T08:50:59Z</time>
      </trkpt>
      <trkpt lat="45.08253" lon="6.14686">
        <ele>2045.3</ele>
        <time>2024-07-09T08:51:01Z</time>
      </trkpt>
      <trkpt lat="45.08252" lon="6.14686">
        <ele>2045.4</ele>
        <time>2024-07-09T08:51:02Z</time>
      </trkpt>
      <trkpt lat="45.08252" lon="6.14685">
        <ele>2045.5</ele>
        <time>2024-07-09T08:51:03Z</time>
      </trkpt>
      <trkpt lat="45.08251" lon="6.14684">
        <ele>2045.7</ele>
        <time>2024-07-09T08:51:04Z</time>
      </trkpt>
      <trkpt lat="45.08251" lon="6.14683">
        <ele>2045.8</ele>
        <time>2024-07-09T08:51:05Z</time>
      </trkpt>
      <trkpt lat="45.08251" lon="6.14682">
        <ele>2045.9</ele>
        <time>2024-07-09T08:51:06Z</time>
      </trkpt>
      <trkpt lat="45.0825" lon="6.14682">
        <ele>2046</ele>
        <time>2024-07-09T08:51:07Z</time>
      </trkpt>
      <trkpt lat="45.0825" lon="6.14681">
        <ele>2046.1</ele>
        <time>2024-07-09T08:51:08Z</time>
      </trkpt>
      <trkpt lat="45.0825" lon="6.1468">
        <ele>2046.2</ele>
        <time>2024-07-09T08:51:09Z</time>
      </trkpt>
      <trkpt lat="45.0825" lon="6.14679">
        <ele>2046.4</ele>
        <time>2024-07-09T08:51:10Z</time>
      </trkpt>
      <trkpt lat="45.08249" lon="6.14677">
        <ele>2046.6</ele>
        <time>2024-07-09T08:51:11Z</time>
      </trkpt>
      <trkpt lat="45.08247" lon="6.14675">
        <ele>2046.9</ele>
        <time>2024-07-09T08:51:13Z</time>
      </trkpt>
      <trkpt lat="45.08246" lon="6.14674">
        <ele>2047</ele>
        <time>2024-07-09T08:51:15Z</time>
      </trkpt>
      <trkpt lat="45.08246" lon="6.14674">
        <ele>2047.1</ele>
        <time>2024-07-09T08:51:16Z</time>
      </trkpt>
      <trkpt lat="45.08245" lon="6.14673">
        <ele>2047.1</ele>
        <time>2024-07-09T08:51:17Z</time>
      </trkpt>
      <trkpt lat="45.08244" lon="6.14672">
        <ele>2047.2</ele>
        <time>2024-07-09T08:51:18Z</time>
      </trkpt>
      <trkpt lat="45.08244" lon="6.14671">
        <ele>2047.3</ele>
        <time>2024-07-09T08:51:19Z</time>
      </trkpt>
      <trkpt lat="45.08244" lon="6.1467">
        <ele>2047.4</ele>
        <time>2024-07-09T08:51:20Z</time>
      </trkpt>
      <trkpt lat="45.08243" lon="6.14669">
        <ele>2047.4</ele>
        <time>2024-07-09T08:51:21Z</time>
      </trkpt>
      <trkpt lat="45.08243" lon="6.14668">
        <ele>2047.4</ele>
        <time>2024-07-09T08:51:22Z</time>
      </trkpt>
      <trkpt lat="45.08243" lon="6.14667">
        <ele>2047.5</ele>
        <time>2024-07-09T08:51:23Z</time>
      </trkpt>
      <trkpt lat="45.08242" lon="6.14666">
        <ele>2047.5</ele>
        <time>2024-07-09T08:51:24Z</time>
      </trkpt>
      <trkpt lat="45.08242" lon="6.14665">
        <ele>2047.6</ele>
        <time>2024-07-09T08:51:25Z</time>
      </trkpt>
      <trkpt lat="45.08241" lon="6.14664">
        <ele>2047.6</ele>
        <time>2024-07-09T08:51:26Z</time>
      </trkpt>
      <trkpt lat="45.08241" lon="6.14664">
        <ele>2047.6</ele>
        <time>2024-07-09T08:51:27Z</time>
      </trkpt>
      <trkpt lat="45.0824" lon="6.14662">
        <ele>2047.6</ele>
        <time>2024-07-09T08:51:28Z</time>
      </trkpt>
      <trkpt lat="45.0824" lon="6.14661">
        <ele>2047.7</ele>
        <time>2024-07-09T08:51:30Z</time>
      </trkpt>
      <trkpt lat="45.08239" lon="6.1466">
        <ele>2047.7</ele>
        <time>2024-07-09T08:51:31Z</time>
      </trkpt>
      <trkpt lat="45.08238" lon="6.14659">
        <ele>2047.7</ele>
        <time>2024-07-09T08:51:32Z</time>
      </trkpt>
      <trkpt lat="45.08238" lon="6.14658">
        <ele>2047.7</ele>
        <time>2024-07-09T08:51:33Z</time>
      </trkpt>
      <trkpt lat="45.08237" lon="6.14657">
        <ele>2047.7</ele>
        <time>2024-07-09T08:51:34Z</time>
      </trkpt>
      <trkpt lat="45.08236" lon="6.14656">
        <ele>2047.7</ele>
        <time>2024-07-09T08:51:35Z</time>
      </trkpt>
      <trkpt lat="45.08235" lon="6.14654">
        <ele>2047.6</ele>
        <time>2024-07-09T08:51:36Z</time>
      </trkpt>
      <trkpt lat="45.08234" lon="6.14654">
        <ele>2047.6</ele>
        <time>2024-07-09T08:51:38Z</time>
      </trkpt>
      <trkpt lat="45.08233" lon="6.14653">
        <ele>2047.6</ele>
        <time>2024-07-09T08:51:39Z</time>
      </trkpt>
      <trkpt lat="45.08232" lon="6.14651">
        <ele>2047.6</ele>
        <time>2024-07-09T08:51:40Z</time>
      </trkpt>
      <trkpt lat="45.08231" lon="6.1465">
        <ele>2047.6</ele>
        <time>2024-07-09T08:51:42Z</time>
      </trkpt>
      <trkpt lat="45.0823" lon="6.14648">
        <ele>2047.5</ele>
        <time>2024-07-09T08:51:43Z</time>
      </trkpt>
      <trkpt lat="45.08228" lon="6.14646">
        <ele>2047.5</ele>
        <time>2024-07-09T08:51:45Z</time>
      </trkpt>
      <trkpt lat="45.08228" lon="6.14645">
        <ele>2047.5</ele>
        <time>2024-07-09T08:51:46Z</time>
      </trkpt>
      <trkpt lat="45.08227" lon="6.14644">
        <ele>2047.5</ele>
        <time>2024-07-09T08:51:47Z</time>
      </trkpt>
      <trkpt lat="45.08226" lon="6.14644">
        <ele>2047.5</ele>
        <time>2024-07-09T08:51:49Z</time>
      </trkpt>
      <trkpt lat="45.08225" lon="6.14643">
        <ele>2047.5</ele>
        <time>2024-07-09T08:51:50Z</time>
      </trkpt>
      <trkpt lat="45.08225" lon="6.14642">
        <ele>2047.6</ele>
        <time>2024-07-09T08:51:51Z</time>
      </trkpt>
      <trkpt lat="45.08224" lon="6.14641">
        <ele>2047.6</ele>
        <time>2024-07-09T08:51:52Z</time>
      </trkpt>
      <trkpt lat="45.08223" lon="6.1464">
        <ele>2047.6</ele>
        <time>2024-07-09T08:51:53Z</time>
      </trkpt>
      <trkpt lat="45.08223" lon="6.14639">
        <ele>2047.7</ele>
        <time>2024-07-09T08:51:54Z</time>
      </trkpt>
      <trkpt lat="45.08222" lon="6.14637">
        <ele>2047.7</ele>
        <time>2024-07-09T08:51:55Z</time>
      </trkpt>
      <trkpt lat="45.08221" lon="6.14636">
        <ele>2047.7</ele>
        <time>2024-07-09T08:51:56Z</time>
      </trkpt>
      <trkpt lat="45.08221" lon="6.14635">
        <ele>2047.8</ele>
        <time>2024-07-09T08:51:57Z</time>
      </trkpt>
      <trkpt lat="45.0822" lon="6.14634">
        <ele>2047.8</ele>
        <time>2024-07-09T08:51:58Z</time>
      </trkpt>
      <trkpt lat="45.0822" lon="6.14633">
        <ele>2047.9</ele>
        <time>2024-07-09T08:51:59Z</time>
      </trkpt>
      <trkpt lat="45.08219" lon="6.14632">
        <ele>2047.9</ele>
        <time>2024-07-09T08:52:00Z</time>
      </trkpt>
      <trkpt lat="45.08219" lon="6.14631">
        <ele>2048</ele>
        <time>2024-07-09T08:52:01Z</time>
      </trkpt>
      <trkpt lat="45.08218" lon="6.14629">
        <ele>2048.1</ele>
        <time>2024-07-09T08:52:02Z</time>
      </trkpt>
      <trkpt lat="45.08218" lon="6.14628">
        <ele>2048.1</ele>
        <time>2024-07-09T08:52:03Z</time>
      </trkpt>
      <trkpt lat="45.08217" lon="6.14627">
        <ele>2048.2</ele>
        <time>2024-07-09T08:52:04Z</time>
      </trkpt>
      <trkpt lat="45.08217" lon="6.14626">
        <ele>2048.3</ele>
        <time>2024-07-09T08:52:05Z</time>
      </trkpt>
      <trkpt lat="45.08216" lon="6.14626">
        <ele>2048.3</ele>
        <time>2024-07-09T08:52:06Z</time>
      </trkpt>
      <trkpt lat="45.08215" lon="6.14625">
        <ele>2048.4</ele>
        <time>2024-07-09T08:52:07Z</time>
      </trkpt>
      <trkpt lat="45.08214" lon="6.14624">
        <ele>2048.6</ele>
        <time>2024-07-09T08:52:08Z</time>
      </trkpt>
      <trkpt lat="45.08213" lon="6.14623">
        <ele>2048.7</ele>
        <time>2024-07-09T08:52:09Z</time>
      </trkpt>
      <trkpt lat="45.08212" lon="6.14622">
        <ele>2048.8</ele>
        <time>2024-07-09T08:52:10Z</time>
      </trkpt>
      <trkpt lat="45.08211" lon="6.14621">
        <ele>2048.9</ele>
        <time>2024-07-09T08:52:12Z</time>
      </trkpt>
      <trkpt lat="45.0821" lon="6.1462">
        <ele>2049</ele>
        <time>2024-07-09T08:52:13Z</time>
      </trkpt>
      <trkpt lat="45.0821" lon="6.1462">
        <ele>2049.1</ele>
        <time>2024-07-09T08:52:14Z</time>
      </trkpt>
      <trkpt lat="45.08209" lon="6.14619">
        <ele>2049.2</ele>
        <time>2024-07-09T08:52:15Z</time>
      </trkpt>
      <trkpt lat="45.08207" lon="6.14615">
        <ele>2049.5</ele>
        <time>2024-07-09T08:52:16Z</time>
      </trkpt>
      <trkpt lat="45.08206" lon="6.14614">
        <ele>2049.5</ele>
        <time>2024-07-09T08:52:18Z</time>
      </trkpt>
      <trkpt lat="45.08206" lon="6.14613">
        <ele>2049.6</ele>
        <time>2024-07-09T08:52:19Z</time>
      </trkpt>
      <trkpt lat="45.08205" lon="6.14612">
        <ele>2049.7</ele>
        <time>2024-07-09T08:52:20Z</time>
      </trkpt>
      <trkpt lat="45.08205" lon="6.14611">
        <ele>2049.8</ele>
        <time>2024-07-09T08:52:21Z</time>
      </trkpt>
      <trkpt lat="45.08204" lon="6.14609">
        <ele>2049.9</ele>
        <time>2024-07-09T08:52:23Z</time>
      </trkpt>
      <trkpt lat="45.08204" lon="6.14608">
        <ele>2050</ele>
        <time>2024-07-09T08:52:24Z</time>
      </trkpt>
      <trkpt lat="45.08203" lon="6.14606">
        <ele>2050.1</ele>
        <time>2024-07-09T08:52:25Z</time>
      </trkpt>
      <trkpt lat="45.08201" lon="6.14604">
        <ele>2050.3</ele>
        <time>2024-07-09T08:52:27Z</time>
      </trkpt>
      <trkpt lat="45.08201" lon="6.14603">
        <ele>2050.3</ele>
        <time>2024-07-09T08:52:28Z</time>
      </trkpt>
      <trkpt lat="45.082" lon="6.14602">
        <ele>2050.4</ele>
        <time>2024-07-09T08:52:30Z</time>
      </trkpt>
      <trkpt lat="45.08199" lon="6.14601">
        <ele>2050.5</ele>
        <time>2024-07-09T08:52:31Z</time>
      </trkpt>
      <trkpt lat="45.08198" lon="6.146">
        <ele>2050.6</ele>
        <time>2024-07-09T08:52:32Z</time>
      </trkpt>
      <trkpt lat="45.08197" lon="6.14598">
        <ele>2050.7</ele>
        <time>2024-07-09T08:52:33Z</time>
      </trkpt>
      <trkpt lat="45.08196" lon="6.14596">
        <ele>2050.8</ele>
        <time>2024-07-09T08:52:34Z</time>
      </trkpt>
      <trkpt lat="45.08195" lon="6.14594">
        <ele>2050.9</ele>
        <time>2024-07-09T08:52:36Z</time>
      </trkpt>
      <trkpt lat="45.08195" lon="6.14593">
        <ele>2050.9</ele>
        <time>2024-07-09T08:52:37Z</time>
      </trkpt>
      <trkpt lat="45.08194" lon="6.14592">
        <ele>2051</ele>
        <time>2024-07-09T08:52:38Z</time>
      </trkpt>
      <trkpt lat="45.08193" lon="6.14591">
        <ele>2051</ele>
        <time>2024-07-09T08:52:39Z</time>
      </trkpt>
      <trkpt lat="45.08192" lon="6.14589">
        <ele>2051.2</ele>
        <time>2024-07-09T08:52:40Z</time>
      </trkpt>
      <trkpt lat="45.0819" lon="6.14586">
        <ele>2051.3</ele>
        <time>2024-07-09T08:52:42Z</time>
      </trkpt>
      <trkpt lat="45.0819" lon="6.14586">
        <ele>2051.3</ele>
        <time>2024-07-09T08:52:44Z</time>
      </trkpt>
      <trkpt lat="45.08189" lon="6.14586">
        <ele>2051.4</ele>
        <time>2024-07-09T08:52:45Z</time>
      </trkpt>
      <trkpt lat="45.08187" lon="6.14585">
        <ele>2051.6</ele>
        <time>2024-07-09T08:52:46Z</time>
      </trkpt>
      <trkpt lat="45.08186" lon="6.14584">
        <ele>2051.7</ele>
        <time>2024-07-09T08:52:47Z</time>
      </trkpt>
      <trkpt lat="45.08185" lon="6.14583">
        <ele>2051.8</ele>
        <time>2024-07-09T08:52:48Z</time>
      </trkpt>
      <trkpt lat="45.08184" lon="6.14582">
        <ele>2051.9</ele>
        <time>2024-07-09T08:52:49Z</time>
      </trkpt>
      <trkpt lat="45.08183" lon="6.14581">
        <ele>2052</ele>
        <time>2024-07-09T08:52:51Z</time>
      </trkpt>
      <trkpt lat="45.08183" lon="6.14581">
        <ele>2052.1</ele>
        <time>2024-07-09T08:52:52Z</time>
      </trkpt>
      <trkpt lat="45.08182" lon="6.1458">
        <ele>2052.2</ele>
        <time>2024-07-09T08:52:53Z</time>
      </trkpt>
      <trkpt lat="45.0818" lon="6.14578">
        <ele>2052.4</ele>
        <time>2024-07-09T08:52:54Z</time>
      </trkpt>
      <trkpt lat="45.0818" lon="6.14577">
        <ele>2052.5</ele>
        <time>2024-07-09T08:52:56Z</time>
      </trkpt>
      <trkpt lat="45.08179" lon="6.14576">
        <ele>2052.7</ele>
        <time>2024-07-09T08:52:58Z</time>
      </trkpt>
      <trkpt lat="45.08178" lon="6.14575">
        <ele>2052.8</ele>
        <time>2024-07-09T08:52:59Z</time>
      </trkpt>
      <trkpt lat="45.08178" lon="6.14574">
        <ele>2052.9</ele>
        <time>2024-07-09T08:53:00Z</time>
      </trkpt>
      <trkpt lat="45.08177" lon="6.14573">
        <ele>2053</ele>
        <time>2024-07-09T08:53:01Z</time>
      </trkpt>
      <trkpt lat="45.08176" lon="6.14572">
        <ele>2053.1</ele>
        <time>2024-07-09T08:53:02Z</time>
      </trkpt>
      <trkpt lat="45.08175" lon="6.14571">
        <ele>2053.2</ele>
        <time>2024-07-09T08:53:03Z</time>
      </trkpt>
      <trkpt lat="45.08174" lon="6.14571">
        <ele>2053.4</ele>
        <time>2024-07-09T08:53:04Z</time>
      </trkpt>
      <trkpt lat="45.08174" lon="6.1457">
        <ele>2053.4</ele>
        <time>2024-07-09T08:53:05Z</time>
      </trkpt>
      <trkpt lat="45.08173" lon="6.14569">
        <ele>2053.6</ele>
        <time>2024-07-09T08:53:06Z</time>
      </trkpt>
      <trkpt lat="45.08171" lon="6.14567">
        <ele>2053.8</ele>
        <time>2024-07-09T08:53:07Z</time>
      </trkpt>
      <trkpt lat="45.08171" lon="6.14566">
        <ele>2053.9</ele>
        <time>2024-07-09T08:53:09Z</time>
      </trkpt>
      <trkpt lat="45.0817" lon="6.14564">
        <ele>2054</ele>
        <time>2024-07-09T08:53:10Z</time>
      </trkpt>
      <trkpt lat="45.08169" lon="6.14564">
        <ele>2054</ele>
        <time>2024-07-09T08:53:12Z</time>
      </trkpt>
      <trkpt lat="45.0817" lon="6.14564">
        <ele>2054.1</ele>
        <time>2024-07-09T08:53:13Z</time>
      </trkpt>
      <trkpt lat="45.0817" lon="6.14564">
        <ele>2054.1</ele>
        <time>2024-07-09T08:53:14Z</time>
      </trkpt>
      <trkpt lat="45.0817" lon="6.14565">
        <ele>2054.2</ele>
        <time>2024-07-09T08:53:15Z</time>
      </trkpt>
      <trkpt lat="45.08171" lon="6.14565">
        <ele>2054.2</ele>
        <time>2024-07-09T08:53:16Z</time>
      </trkpt>
      <trkpt lat="45.08171" lon="6.14565">
        <ele>2054.2</ele>
        <time>2024-07-09T08:53:17Z</time>
      </trkpt>
      <trkpt lat="45.08171" lon="6.14565">
        <ele>2054.2</ele>
        <time>2024-07-09T08:53:18Z</time>
      </trkpt>
      <trkpt lat="45.08171" lon="6.14565">
        <ele>2054.2</ele>
        <time>2024-07-09T08:53:19Z</time>
      </trkpt>
      <trkpt lat="45.08171" lon="6.14565">
        <ele>2054.3</ele>
        <time>2024-07-09T08:53:20Z</time>
      </trkpt>
      <trkpt lat="45.08171" lon="6.14566">
        <ele>2054.3</ele>
        <time>2024-07-09T08:53:21Z</time>
      </trkpt>
      <trkpt lat="45.08171" lon="6.14565">
        <ele>2054.3</ele>
        <time>2024-07-09T08:53:22Z</time>
      </trkpt>
      <trkpt lat="45.08171" lon="6.14566">
        <ele>2054.3</ele>
        <time>2024-07-09T08:53:23Z</time>
      </trkpt>
      <trkpt lat="45.08171" lon="6.14566">
        <ele>2054.3</ele>
        <time>2024-07-09T08:53:24Z</time>
      </trkpt>
      <trkpt lat="45.08171" lon="6.14566">
        <ele>2054.3</ele>
        <time>2024-07-09T08:53:25Z</time>
      </trkpt>
      <trkpt lat="45.08171" lon="6.14566">
        <ele>2054.3</ele>
        <time>2024-07-09T08:53:26Z</time>
      </trkpt>
      <trkpt lat="45.08171" lon="6.14566">
        <ele>2054.3</ele>
        <time>2024-07-09T08:53:27Z</time>
      </trkpt>
      <trkpt lat="45.08171" lon="6.14566">
        <ele>2054.3</ele>
        <time>2024-07-09T08:53:28Z</time>
      </trkpt>
      <trkpt lat="45.08171" lon="6.14566">
        <ele>2054.3</ele>
        <time>2024-07-09T08:53:29Z</time>
      </trkpt>
      <trkpt lat="45.08171" lon="6.14566">
        <ele>2054.3</ele>
        <time>2024-07-09T08:53:30Z</time>
      </trkpt>
      <trkpt lat="45.08171" lon="6.14566">
        <ele>2054.3</ele>
        <time>2024-07-09T08:53:31Z</time>
      </trkpt>
      <trkpt lat="45.08171" lon="6.14566">
        <ele>2054.3</ele>
        <time>2024-07-09T08:53:32Z</time>
      </trkpt>
      <trkpt lat="45.08171" lon="6.14565">
        <ele>2054.4</ele>
        <time>2024-07-09T08:53:33Z</time>
      </trkpt>
      <trkpt lat="45.0817" lon="6.14564">
        <ele>2054.4</ele>
        <time>2024-07-09T08:53:34Z</time>
      </trkpt>
      <trkpt lat="45.08169" lon="6.14563">
        <ele>2054.5</ele>
        <time>2024-07-09T08:53:35Z</time>
      </trkpt>
      <trkpt lat="45.08168" lon="6.14562">
        <ele>2054.6</ele>
        <time>2024-07-09T08:53:36Z</time>
      </trkpt>
      <trkpt lat="45.08168" lon="6.14562">
        <ele>2054.6</ele>
        <time>2024-07-09T08:53:37Z</time>
      </trkpt>
      <trkpt lat="45.08167" lon="6.14562">
        <ele>2054.6</ele>
        <time>2024-07-09T08:53:38Z</time>
      </trkpt>
      <trkpt lat="45.08168" lon="6.14562">
        <ele>2054.6</ele>
        <time>2024-07-09T08:53:39Z</time>
      </trkpt>
      <trkpt lat="45.08168" lon="6.14562">
        <ele>2054.6</ele>
        <time>2024-07-09T08:53:40Z</time>
      </trkpt>
      <trkpt lat="45.08167" lon="6.14562">
        <ele>2054.7</ele>
        <time>2024-07-09T08:53:41Z</time>
      </trkpt>
      <trkpt lat="45.08167" lon="6.14562">
        <ele>2054.7</ele>
        <time>2024-07-09T08:53:42Z</time>
      </trkpt>
      <trkpt lat="45.08166" lon="6.14561">
        <ele>2054.7</ele>
        <time>2024-07-09T08:53:43Z</time>
      </trkpt>
      <trkpt lat="45.08165" lon="6.1456">
        <ele>2054.8</ele>
        <time>2024-07-09T08:53:44Z</time>
      </trkpt>
      <trkpt lat="45.08164" lon="6.14559">
        <ele>2054.9</ele>
        <time>2024-07-09T08:53:45Z</time>
      </trkpt>
      <trkpt lat="45.08164" lon="6.14558">
        <ele>2054.9</ele>
        <time>2024-07-09T08:53:46Z</time>
      </trkpt>
      <trkpt lat="45.08163" lon="6.14557">
        <ele>2055</ele>
        <time>2024-07-09T08:53:47Z</time>
      </trkpt>
      <trkpt lat="45.08162" lon="6.14556">
        <ele>2055.1</ele>
        <time>2024-07-09T08:53:48Z</time>
      </trkpt>
      <trkpt lat="45.08162" lon="6.14555">
        <ele>2055.1</ele>
        <time>2024-07-09T08:53:49Z</time>
      </trkpt>
      <trkpt lat="45.08162" lon="6.14555">
        <ele>2055.1</ele>
        <time>2024-07-09T08:53:50Z</time>
      </trkpt>
      <trkpt lat="45.08162" lon="6.14555">
        <ele>2055.1</ele>
        <time>2024-07-09T08:53:51Z</time>
      </trkpt>
      <trkpt lat="45.08162" lon="6.14556">
        <ele>2055.2</ele>
        <time>2024-07-09T08:53:52Z</time>
      </trkpt>
      <trkpt lat="45.08163" lon="6.14556">
        <ele>2055.2</ele>
        <time>2024-07-09T08:53:53Z</time>
      </trkpt>
      <trkpt lat="45.08163" lon="6.14556">
        <ele>2055.2</ele>
        <time>2024-07-09T08:53:54Z</time>
      </trkpt>
      <trkpt lat="45.08163" lon="6.14556">
        <ele>2055.2</ele>
        <time>2024-07-09T08:53:55Z</time>
      </trkpt>
      <trkpt lat="45.08163" lon="6.14556">
        <ele>2055.2</ele>
        <time>2024-07-09T08:53:56Z</time>
      </trkpt>
      <trkpt lat="45.08163" lon="6.14556">
        <ele>2055.2</ele>
        <time>2024-07-09T08:53:57Z</time>
      </trkpt>
      <trkpt lat="45.08163" lon="6.14556">
        <ele>2055.2</ele>
        <time>2024-07-09T08:53:58Z</time>
      </trkpt>
      <trkpt lat="45.08163" lon="6.14556">
        <ele>2055.2</ele>
        <time>2024-07-09T08:53:59Z</time>
      </trkpt>
      <trkpt lat="45.08163" lon="6.14556">
        <ele>2055.2</ele>
        <time>2024-07-09T08:54:00Z</time>
      </trkpt>
      <trkpt lat="45.08163" lon="6.14556">
        <ele>2055.2</ele>
        <time>2024-07-09T08:54:01Z</time>
      </trkpt>
      <trkpt lat="45.08163" lon="6.14556">
        <ele>2055.2</ele>
        <time>2024-07-09T08:54:02Z</time>
      </trkpt>
      <trkpt lat="45.08163" lon="6.14555">
        <ele>2055.2</ele>
        <time>2024-07-09T08:54:03Z</time>
      </trkpt>
      <trkpt lat="45.08163" lon="6.14556">
        <ele>2055.2</ele>
        <time>2024-07-09T08:54:04Z</time>
      </trkpt>
      <trkpt lat="45.08163" lon="6.14555">
        <ele>2055.2</ele>
        <time>2024-07-09T08:54:05Z</time>
      </trkpt>
      <trkpt lat="45.08163" lon="6.14555">
        <ele>2055.3</ele>
        <time>2024-07-09T08:54:06Z</time>
      </trkpt>
      <trkpt lat="45.08163" lon="6.14555">
        <ele>2055.3</ele>
        <time>2024-07-09T08:54:07Z</time>
      </trkpt>
      <trkpt lat="45.08163" lon="6.14555">
        <ele>2055.3</ele>
        <time>2024-07-09T08:54:08Z</time>
      </trkpt>
      <trkpt lat="45.08163" lon="6.14555">
        <ele>2055.3</ele>
        <time>2024-07-09T08:54:09Z</time>
      </trkpt>
      <trkpt lat="45.08163" lon="6.14555">
        <ele>2055.3</ele>
        <time>2024-07-09T08:54:10Z</time>
      </trkpt>
      <trkpt lat="45.08163" lon="6.14555">
        <ele>2055.3</ele>
        <time>2024-07-09T08:54:11Z</time>
      </trkpt>
      <trkpt lat="45.08163" lon="6.14555">
        <ele>2055.3</ele>
        <time>2024-07-09T08:54:12Z</time>
      </trkpt>
      <trkpt lat="45.08163" lon="6.14555">
        <ele>2055.3</ele>
        <time>2024-07-09T08:54:13Z</time>
      </trkpt>
      <trkpt lat="45.08163" lon="6.14555">
        <ele>2055.3</ele>
        <time>2024-07-09T08:54:14Z</time>
      </trkpt>
      <trkpt lat="45.08163" lon="6.14555">
        <ele>2055.3</ele>
        <time>2024-07-09T08:54:15Z</time>
      </trkpt>
      <trkpt lat="45.08163" lon="6.14555">
        <ele>2055.3</ele>
        <time>2024-07-09T08:54:16Z</time>
      </trkpt>
      <trkpt lat="45.08163" lon="6.14555">
        <ele>2055.3</ele>
        <time>2024-07-09T08:54:17Z</time>
      </trkpt>
      <trkpt lat="45.08163" lon="6.14555">
        <ele>2055.3</ele>
        <time>2024-07-09T08:54:18Z</time>
      </trkpt>
      <trkpt lat="45.08163" lon="6.14555">
        <ele>2055.3</ele>
        <time>2024-07-09T08:54:19Z</time>
      </trkpt>
      <trkpt lat="45.08163" lon="6.14555">
        <ele>2055.3</ele>
        <time>2024-07-09T08:54:20Z</time>
      </trkpt>
      <trkpt lat="45.08163" lon="6.14555">
        <ele>2055.3</ele>
        <time>2024-07-09T08:54:21Z</time>
      </trkpt>
      <trkpt lat="45.08163" lon="6.14555">
        <ele>2055.3</ele>
        <time>2024-07-09T08:54:22Z</time>
      </trkpt>
      <trkpt lat="45.08163" lon="6.14555">
        <ele>2055.3</ele>
        <time>2024-07-09T08:54:23Z</time>
      </trkpt>
      <trkpt lat="45.08163" lon="6.14555">
        <ele>2055.3</ele>
        <time>2024-07-09T08:54:24Z</time>
      </trkpt>
      <trkpt lat="45.08163" lon="6.14555">
        <ele>2055.3</ele>
        <time>2024-07-09T08:54:25Z</time>
      </trkpt>
      <trkpt lat="45.08163" lon="6.14555">
        <ele>2055.3</ele>
        <time>2024-07-09T08:54:26Z</time>
      </trkpt>
      <trkpt lat="45.08163" lon="6.14555">
        <ele>2055.3</ele>
        <time>2024-07-09T08:54:27Z</time>
      </trkpt>
      <trkpt lat="45.08163" lon="6.14555">
        <ele>2055.3</ele>
        <time>2024-07-09T08:54:28Z</time>
      </trkpt>
      <trkpt lat="45.08163" lon="6.14555">
        <ele>2055.3</ele>
        <time>2024-07-09T08:54:29Z</time>
      </trkpt>
      <trkpt lat="45.08163" lon="6.14555">
        <ele>2055.3</ele>
        <time>2024-07-09T08:54:30Z</time>
      </trkpt>
      <trkpt lat="45.08163" lon="6.14555">
        <ele>2055.3</ele>
        <time>2024-07-09T08:54:31Z</time>
      </trkpt>
      <trkpt lat="45.08163" lon="6.14555">
        <ele>2055.3</ele>
        <time>2024-07-09T08:54:32Z</time>
      </trkpt>
      <trkpt lat="45.08163" lon="6.14555">
        <ele>2055.3</ele>
        <time>2024-07-09T08:54:33Z</time>
      </trkpt>
      <trkpt lat="45.08163" lon="6.14555">
        <ele>2055.3</ele>
        <time>2024-07-09T08:54:34Z</time>
      </trkpt>
      <trkpt lat="45.08163" lon="6.14555">
        <ele>2055.3</ele>
        <time>2024-07-09T08:54:35Z</time>
      </trkpt>
      <trkpt lat="45.08163" lon="6.14555">
        <ele>2055.3</ele>
        <time>2024-07-09T08:54:36Z</time>
      </trkpt>
      <trkpt lat="45.08163" lon="6.14555">
        <ele>2055.3</ele>
        <time>2024-07-09T08:54:37Z</time>
      </trkpt>
      <trkpt lat="45.08163" lon="6.14555">
        <ele>2055.3</ele>
        <time>2024-07-09T08:54:38Z</time>
      </trkpt>
      <trkpt lat="45.08163" lon="6.14555">
        <ele>2055.3</ele>
        <time>2024-07-09T08:54:39Z</time>
      </trkpt>
      <trkpt lat="45.08163" lon="6.14555">
        <ele>2055.3</ele>
        <time>2024-07-09T08:54:40Z</time>
      </trkpt>
      <trkpt lat="45.08163" lon="6.14555">
        <ele>2055.3</ele>
        <time>2024-07-09T08:54:41Z</time>
      </trkpt>
      <trkpt lat="45.08163" lon="6.14555">
        <ele>2055.3</ele>
        <time>2024-07-09T08:54:42Z</time>
      </trkpt>
      <trkpt lat="45.08163" lon="6.14555">
        <ele>2055.3</ele>
        <time>2024-07-09T08:54:43Z</time>
      </trkpt>
      <trkpt lat="45.08163" lon="6.14555">
        <ele>2055.3</ele>
        <time>2024-07-09T08:54:44Z</time>
      </trkpt>
      <trkpt lat="45.08163" lon="6.14555">
        <ele>2055.3</ele>
        <time>2024-07-09T08:54:45Z</time>
      </trkpt>
      <trkpt lat="45.08163" lon="6.14555">
        <ele>2055.3</ele>
        <time>2024-07-09T08:54:46Z</time>
      </trkpt>
      <trkpt lat="45.08163" lon="6.14555">
        <ele>2055.3</ele>
        <time>2024-07-09T08:54:47Z</time>
      </trkpt>
      <trkpt lat="45.08163" lon="6.14555">
        <ele>2055.3</ele>
        <time>2024-07-09T08:54:48Z</time>
      </trkpt>
      <trkpt lat="45.08163" lon="6.14555">
        <ele>2055.3</ele>
        <time>2024-07-09T08:54:49Z</time>
      </trkpt>
      <trkpt lat="45.08163" lon="6.14555">
        <ele>2055.3</ele>
        <time>2024-07-09T08:54:50Z</time>
      </trkpt>
      <trkpt lat="45.08163" lon="6.14555">
        <ele>2055.3</ele>
        <time>2024-07-09T08:54:51Z</time>
      </trkpt>
      <trkpt lat="45.08163" lon="6.14555">
        <ele>2055.4</ele>
        <time>2024-07-09T08:54:52Z</time>
      </trkpt>
      <trkpt lat="45.08163" lon="6.14555">
        <ele>2055.4</ele>
        <time>2024-07-09T08:54:53Z</time>
      </trkpt>
      <trkpt lat="45.08163" lon="6.14555">
        <ele>2055.4</ele>
        <time>2024-07-09T08:54:54Z</time>
      </trkpt>
      <trkpt lat="45.08163" lon="6.14555">
        <ele>2055.4</ele>
        <time>2024-07-09T08:54:55Z</time>
      </trkpt>
      <trkpt lat="45.08163" lon="6.14555">
        <ele>2055.4</ele>
        <time>2024-07-09T08:54:56Z</time>
      </trkpt>
      <trkpt lat="45.08163" lon="6.14555">
        <ele>2055.4</ele>
        <time>2024-07-09T08:54:57Z</time>
      </trkpt>
      <trkpt lat="45.08163" lon="6.14555">
        <ele>2055.4</ele>
        <time>2024-07-09T08:54:58Z</time>
      </trkpt>
      <trkpt lat="45.08163" lon="6.14555">
        <ele>2055.4</ele>
        <time>2024-07-09T08:54:59Z</time>
      </trkpt>
      <trkpt lat="45.08163" lon="6.14555">
        <ele>2055.4</ele>
        <time>2024-07-09T08:55:00Z</time>
      </trkpt>
      <trkpt lat="45.08163" lon="6.14555">
        <ele>2055.4</ele>
        <time>2024-07-09T08:55:01Z</time>
      </trkpt>
      <trkpt lat="45.08163" lon="6.14555">
        <ele>2055.4</ele>
        <time>2024-07-09T08:55:02Z</time>
      </trkpt>
      <trkpt lat="45.08163" lon="6.14555">
        <ele>2055.4</ele>
        <time>2024-07-09T08:55:03Z</time>
      </trkpt>
      <trkpt lat="45.08163" lon="6.14555">
        <ele>2055.4</ele>
        <time>2024-07-09T08:55:04Z</time>
      </trkpt>
      <trkpt lat="45.08163" lon="6.14555">
        <ele>2055.4</ele>
        <time>2024-07-09T08:55:05Z</time>
      </trkpt>
      <trkpt lat="45.08163" lon="6.14555">
        <ele>2055.4</ele>
        <time>2024-07-09T08:55:06Z</time>
      </trkpt>
      <trkpt lat="45.08163" lon="6.14555">
        <ele>2055.4</ele>
        <time>2024-07-09T08:55:07Z</time>
      </trkpt>
      <trkpt lat="45.08163" lon="6.14555">
        <ele>2055.4</ele>
        <time>2024-07-09T08:55:08Z</time>
      </trkpt>
      <trkpt lat="45.08163" lon="6.14555">
        <ele>2055.4</ele>
        <time>2024-07-09T08:55:09Z</time>
      </trkpt>
      <trkpt lat="45.08163" lon="6.14555">
        <ele>2055.4</ele>
        <time>2024-07-09T08:55:10Z</time>
      </trkpt>
      <trkpt lat="45.08163" lon="6.14555">
        <ele>2055.4</ele>
        <time>2024-07-09T08:55:11Z</time>
      </trkpt>
      <trkpt lat="45.08163" lon="6.14555">
        <ele>2055.4</ele>
        <time>2024-07-09T08:55:12Z</time>
      </trkpt>
      <trkpt lat="45.08163" lon="6.14555">
        <ele>2055.4</ele>
        <time>2024-07-09T08:55:13Z</time>
      </trkpt>
      <trkpt lat="45.08163" lon="6.14555">
        <ele>2055.4</ele>
        <time>2024-07-09T08:55:14Z</time>
      </trkpt>
      <trkpt lat="45.08163" lon="6.14555">
        <ele>2055.4</ele>
        <time>2024-07-09T08:55:15Z</time>
      </trkpt>
      <trkpt lat="45.08163" lon="6.14555">
        <ele>2055.4</ele>
        <time>2024-07-09T08:55:16Z</time>
      </trkpt>
      <trkpt lat="45.08163" lon="6.14555">
        <ele>2055.4</ele>
        <time>2024-07-09T08:55:17Z</time>
      </trkpt>
      <trkpt lat="45.08163" lon="6.14555">
        <ele>2055.4</ele>
        <time>2024-07-09T08:55:18Z</time>
      </trkpt>
      <trkpt lat="45.08163" lon="6.14555">
        <ele>2055.4</ele>
        <time>2024-07-09T08:55:19Z</time>
      </trkpt>
      <trkpt lat="45.08163" lon="6.14555">
        <ele>2055.4</ele>
        <time>2024-07-09T08:55:20Z</time>
      </trkpt>
      <trkpt lat="45.08163" lon="6.14555">
        <ele>2055.4</ele>
        <time>2024-07-09T08:55:21Z</time>
      </trkpt>
      <trkpt lat="45.08163" lon="6.14555">
        <ele>2055.4</ele>
        <time>2024-07-09T08:55:22Z</time>
      </trkpt>
      <trkpt lat="45.08163" lon="6.14555">
        <ele>2055.4</ele>
        <time>2024-07-09T08:55:23Z</time>
      </trkpt>
      <trkpt lat="45.08163" lon="6.14555">
        <ele>2055.4</ele>
        <time>2024-07-09T08:55:24Z</time>
      </trkpt>
      <trkpt lat="45.08163" lon="6.14555">
        <ele>2055.4</ele>
        <time>2024-07-09T08:55:25Z</time>
      </trkpt>
      <trkpt lat="45.08163" lon="6.14555">
        <ele>2055.4</ele>
        <time>2024-07-09T08:55:26Z</time>
      </trkpt>
      <trkpt lat="45.08163" lon="6.14555">
        <ele>2055.4</ele>
        <time>2024-07-09T08:55:27Z</time>
      </trkpt>
      <trkpt lat="45.08163" lon="6.14555">
        <ele>2055.4</ele>
        <time>2024-07-09T08:55:28Z</time>
      </trkpt>
      <trkpt lat="45.08163" lon="6.14555">
        <ele>2055.4</ele>
        <time>2024-07-09T08:55:29Z</time>
      </trkpt>
      <trkpt lat="45.08163" lon="6.14555">
        <ele>2055.4</ele>
        <time>2024-07-09T08:55:30Z</time>
      </trkpt>
      <trkpt lat="45.08163" lon="6.14555">
        <ele>2055.4</ele>
        <time>2024-07-09T08:55:31Z</time>
      </trkpt>
      <trkpt lat="45.08163" lon="6.14555">
        <ele>2055.4</ele>
        <time>2024-07-09T08:55:32Z</time>
      </trkpt>
      <trkpt lat="45.08163" lon="6.14555">
        <ele>2055.4</ele>
        <time>2024-07-09T08:55:33Z</time>
      </trkpt>
      <trkpt lat="45.08163" lon="6.14555">
        <ele>2055.4</ele>
        <time>2024-07-09T08:55:34Z</time>
      </trkpt>
      <trkpt lat="45.08163" lon="6.14555">
        <ele>2055.4</ele>
        <time>2024-07-09T08:55:35Z</time>
      </trkpt>
      <trkpt lat="45.08163" lon="6.14555">
        <ele>2055.4</ele>
        <time>2024-07-09T08:55:36Z</time>
      </trkpt>
      <trkpt lat="45.08163" lon="6.14555">
        <ele>2055.4</ele>
        <time>2024-07-09T08:55:37Z</time>
      </trkpt>
      <trkpt lat="45.08163" lon="6.14555">
        <ele>2055.4</ele>
        <time>2024-07-09T08:55:38Z</time>
      </trkpt>
      <trkpt lat="45.08163" lon="6.14555">
        <ele>2055.4</ele>
        <time>2024-07-09T08:55:39Z</time>
      </trkpt>
      <trkpt lat="45.08163" lon="6.14555">
        <ele>2055.4</ele>
        <time>2024-07-09T08:55:40Z</time>
      </trkpt>
      <trkpt lat="45.08163" lon="6.14555">
        <ele>2055.4</ele>
        <time>2024-07-09T08:55:41Z</time>
      </trkpt>
      <trkpt lat="45.08163" lon="6.14555">
        <ele>2055.4</ele>
        <time>2024-07-09T08:55:42Z</time>
      </trkpt>
      <trkpt lat="45.08163" lon="6.14555">
        <ele>2055.4</ele>
        <time>2024-07-09T08:55:43Z</time>
      </trkpt>
      <trkpt lat="45.08163" lon="6.14555">
        <ele>2055.4</ele>
        <time>2024-07-09T08:55:44Z</time>
      </trkpt>
      <trkpt lat="45.08163" lon="6.14555">
        <ele>2055.4</ele>
        <time>2024-07-09T08:55:45Z</time>
      </trkpt>
      <trkpt lat="45.08163" lon="6.14555">
        <ele>2055.4</ele>
        <time>2024-07-09T08:55:46Z</time>
      </trkpt>
      <trkpt lat="45.08163" lon="6.14555">
        <ele>2055.4</ele>
        <time>2024-07-09T08:55:47Z</time>
      </trkpt>
      <trkpt lat="45.08163" lon="6.14555">
        <ele>2055.4</ele>
        <time>2024-07-09T08:55:48Z</time>
      </trkpt>
      <trkpt lat="45.08163" lon="6.14555">
        <ele>2055.4</ele>
        <time>2024-07-09T08:55:49Z</time>
      </trkpt>
      <trkpt lat="45.08163" lon="6.14555">
        <ele>2055.4</ele>
        <time>2024-07-09T08:55:50Z</time>
      </trkpt>
      <trkpt lat="45.08163" lon="6.14555">
        <ele>2055.4</ele>
        <time>2024-07-09T08:55:51Z</time>
      </trkpt>
      <trkpt lat="45.08163" lon="6.14555">
        <ele>2055.4</ele>
        <time>2024-07-09T08:55:52Z</time>
      </trkpt>
      <trkpt lat="45.08163" lon="6.14555">
        <ele>2055.4</ele>
        <time>2024-07-09T08:55:53Z</time>
      </trkpt>
      <trkpt lat="45.08163" lon="6.14555">
        <ele>2055.4</ele>
        <time>2024-07-09T08:55:54Z</time>
      </trkpt>
      <trkpt lat="45.08163" lon="6.14555">
        <ele>2055.4</ele>
        <time>2024-07-09T08:55:55Z</time>
      </trkpt>
      <trkpt lat="45.08163" lon="6.14555">
        <ele>2055.4</ele>
        <time>2024-07-09T08:55:56Z</time>
      </trkpt>
      <trkpt lat="45.08163" lon="6.14555">
        <ele>2055.4</ele>
        <time>2024-07-09T08:55:57Z</time>
      </trkpt>
      <trkpt lat="45.08163" lon="6.14555">
        <ele>2055.4</ele>
        <time>2024-07-09T08:55:58Z</time>
      </trkpt>
      <trkpt lat="45.08163" lon="6.14555">
        <ele>2055.4</ele>
        <time>2024-07-09T08:55:59Z</time>
      </trkpt>
      <trkpt lat="45.08163" lon="6.14555">
        <ele>2055.4</ele>
        <time>2024-07-09T08:56:00Z</time>
      </trkpt>
      <trkpt lat="45.08163" lon="6.14555">
        <ele>2055.4</ele>
        <time>2024-07-09T08:56:01Z</time>
      </trkpt>
      <trkpt lat="45.08163" lon="6.14555">
        <ele>2055.4</ele>
        <time>2024-07-09T08:56:02Z</time>
      </trkpt>
      <trkpt lat="45.08163" lon="6.14555">
        <ele>2055.4</ele>
        <time>2024-07-09T08:56:03Z</time>
      </trkpt>
      <trkpt lat="45.08163" lon="6.14555">
        <ele>2055.4</ele>
        <time>2024-07-09T08:56:04Z</time>
      </trkpt>
      <trkpt lat="45.08163" lon="6.14555">
        <ele>2055.4</ele>
        <time>2024-07-09T08:56:05Z</time>
      </trkpt>
      <trkpt lat="45.08163" lon="6.14555">
        <ele>2055.4</ele>
        <time>2024-07-09T08:56:06Z</time>
      </trkpt>
      <trkpt lat="45.08163" lon="6.14555">
        <ele>2055.4</ele>
        <time>2024-07-09T08:56:07Z</time>
      </trkpt>
      <trkpt lat="45.08163" lon="6.14555">
        <ele>2055.4</ele>
        <time>2024-07-09T08:56:08Z</time>
      </trkpt>
      <trkpt lat="45.08163" lon="6.14555">
        <ele>2055.4</ele>
        <time>2024-07-09T08:56:09Z</time>
      </trkpt>
      <trkpt lat="45.08163" lon="6.14555">
        <ele>2055.4</ele>
        <time>2024-07-09T08:56:10Z</time>
      </trkpt>
      <trkpt lat="45.08163" lon="6.14555">
        <ele>2055.4</ele>
        <time>2024-07-09T08:56:11Z</time>
      </trkpt>
      <trkpt lat="45.08163" lon="6.14555">
        <ele>2055.4</ele>
        <time>2024-07-09T08:56:12Z</time>
      </trkpt>
      <trkpt lat="45.08163" lon="6.14555">
        <ele>2055.4</ele>
        <time>2024-07-09T08:56:13Z</time>
      </trkpt>
      <trkpt lat="45.08163" lon="6.14555">
        <ele>2055.4</ele>
        <time>2024-07-09T08:56:14Z</time>
      </trkpt>
      <trkpt lat="45.08163" lon="6.14555">
        <ele>2055.4</ele>
        <time>2024-07-09T08:56:15Z</time>
      </trkpt>
      <trkpt lat="45.08163" lon="6.14555">
        <ele>2055.4</ele>
        <time>2024-07-09T08:56:16Z</time>
      </trkpt>
      <trkpt lat="45.08163" lon="6.14555">
        <ele>2055.4</ele>
        <time>2024-07-09T08:56:17Z</time>
      </trkpt>
      <trkpt lat="45.08163" lon="6.14555">
        <ele>2055.4</ele>
        <time>2024-07-09T08:56:18Z</time>
      </trkpt>
      <trkpt lat="45.08163" lon="6.14555">
        <ele>2055.4</ele>
        <time>2024-07-09T08:56:19Z</time>
      </trkpt>
      <trkpt lat="45.08163" lon="6.14555">
        <ele>2055.4</ele>
        <time>2024-07-09T08:56:20Z</time>
      </trkpt>
      <trkpt lat="45.08163" lon="6.14555">
        <ele>2055.4</ele>
        <time>2024-07-09T08:56:21Z</time>
      </trkpt>
      <trkpt lat="45.08163" lon="6.14555">
        <ele>2055.4</ele>
        <time>2024-07-09T08:56:22Z</time>
      </trkpt>
      <trkpt lat="45.08163" lon="6.14555">
        <ele>2055.4</ele>
        <time>2024-07-09T08:56:23Z</time>
      </trkpt>
      <trkpt lat="45.08163" lon="6.14555">
        <ele>2055.4</ele>
        <time>2024-07-09T08:56:24Z</time>
      </trkpt>
      <trkpt lat="45.08163" lon="6.14555">
        <ele>2055.4</ele>
        <time>2024-07-09T08:56:25Z</time>
      </trkpt>
      <trkpt lat="45.08163" lon="6.14555">
        <ele>2055.4</ele>
        <time>2024-07-09T08:56:26Z</time>
      </trkpt>
      <trkpt lat="45.08163" lon="6.14555">
        <ele>2055.4</ele>
        <time>2024-07-09T08:56:27Z</time>
      </trkpt>
      <trkpt lat="45.08163" lon="6.14555">
        <ele>2055.4</ele>
        <time>2024-07-09T08:56:28Z</time>
      </trkpt>
      <trkpt lat="45.08163" lon="6.14555">
        <ele>2055.4</ele>
        <time>2024-07-09T08:56:29Z</time>
      </trkpt>
      <trkpt lat="45.08163" lon="6.14555">
        <ele>2055.4</ele>
        <time>2024-07-09T08:56:30Z</time>
      </trkpt>
      <trkpt lat="45.08163" lon="6.14555">
        <ele>2055.4</ele>
        <time>2024-07-09T08:56:31Z</time>
      </trkpt>
      <trkpt lat="45.08163" lon="6.14555">
        <ele>2055.4</ele>
        <time>2024-07-09T08:56:32Z</time>
      </trkpt>
      <trkpt lat="45.08163" lon="6.14555">
        <ele>2055.4</ele>
        <time>2024-07-09T08:56:33Z</time>
      </trkpt>
      <trkpt lat="45.08163" lon="6.14555">
        <ele>2055.5</ele>
        <time>2024-07-09T08:56:34Z</time>
      </trkpt>
      <trkpt lat="45.08163" lon="6.14555">
        <ele>2055.5</ele>
        <time>2024-07-09T08:56:35Z</time>
      </trkpt>
      <trkpt lat="45.08163" lon="6.14554">
        <ele>2055.5</ele>
        <time>2024-07-09T08:56:36Z</time>
      </trkpt>
      <trkpt lat="45.08163" lon="6.14554">
        <ele>2055.6</ele>
        <time>2024-07-09T08:56:37Z</time>
      </trkpt>
      <trkpt lat="45.08163" lon="6.14554">
        <ele>2055.6</ele>
        <time>2024-07-09T08:56:38Z</time>
      </trkpt>
      <trkpt lat="45.08163" lon="6.14554">
        <ele>2055.6</ele>
        <time>2024-07-09T08:56:39Z</time>
      </trkpt>
      <trkpt lat="45.08163" lon="6.14554">
        <ele>2055.6</ele>
        <time>2024-07-09T08:56:40Z</time>
      </trkpt>
      <trkpt lat="45.08163" lon="6.14554">
        <ele>2055.6</ele>
        <time>2024-07-09T08:56:41Z</time>
      </trkpt>
      <trkpt lat="45.08163" lon="6.14554">
        <ele>2055.6</ele>
        <time>2024-07-09T08:56:42Z</time>
      </trkpt>
      <trkpt lat="45.08163" lon="6.14554">
        <ele>2055.6</ele>
        <time>2024-07-09T08:56:43Z</time>
      </trkpt>
      <trkpt lat="45.08163" lon="6.14554">
        <ele>2055.6</ele>
        <time>2024-07-09T08:56:44Z</time>
      </trkpt>
      <trkpt lat="45.08163" lon="6.14554">
        <ele>2055.6</ele>
        <time>2024-07-09T08:56:45Z</time>
      </trkpt>
      <trkpt lat="45.08163" lon="6.14554">
        <ele>2055.6</ele>
        <time>2024-07-09T08:56:46Z</time>
      </trkpt>
      <trkpt lat="45.08163" lon="6.14554">
        <ele>2055.6</ele>
        <time>2024-07-09T08:56:47Z</time>
      </trkpt>
      <trkpt lat="45.08163" lon="6.14554">
        <ele>2055.6</ele>
        <time>2024-07-09T08:56:48Z</time>
      </trkpt>
      <trkpt lat="45.08163" lon="6.14554">
        <ele>2055.6</ele>
        <time>2024-07-09T08:56:49Z</time>
      </trkpt>
      <trkpt lat="45.08163" lon="6.14554">
        <ele>2055.6</ele>
        <time>2024-07-09T08:56:50Z</time>
      </trkpt>
      <trkpt lat="45.08163" lon="6.14554">
        <ele>2055.6</ele>
        <time>2024-07-09T08:56:51Z</time>
      </trkpt>
      <trkpt lat="45.08163" lon="6.14554">
        <ele>2055.6</ele>
        <time>2024-07-09T08:56:52Z</time>
      </trkpt>
      <trkpt lat="45.08163" lon="6.14554">
        <ele>2055.6</ele>
        <time>2024-07-09T08:56:53Z</time>
      </trkpt>
      <trkpt lat="45.08163" lon="6.14554">
        <ele>2055.6</ele>
        <time>2024-07-09T08:56:54Z</time>
      </trkpt>
      <trkpt lat="45.08164" lon="6.14554">
        <ele>2055.6</ele>
        <time>2024-07-09T08:56:55Z</time>
      </trkpt>
      <trkpt lat="45.08164" lon="6.14554">
        <ele>2055.6</ele>
        <time>2024-07-09T08:56:56Z</time>
      </trkpt>
      <trkpt lat="45.08164" lon="6.14554">
        <ele>2055.6</ele>
        <time>2024-07-09T08:56:57Z</time>
      </trkpt>
      <trkpt lat="45.08164" lon="6.14554">
        <ele>2055.6</ele>
        <time>2024-07-09T08:56:58Z</time>
      </trkpt>
      <trkpt lat="45.08164" lon="6.14554">
        <ele>2055.6</ele>
        <time>2024-07-09T08:56:59Z</time>
      </trkpt>
      <trkpt lat="45.08164" lon="6.14554">
        <ele>2055.7</ele>
        <time>2024-07-09T08:57:00Z</time>
      </trkpt>
      <trkpt lat="45.08164" lon="6.14554">
        <ele>2055.7</ele>
        <time>2024-07-09T08:57:01Z</time>
      </trkpt>
      <trkpt lat="45.08164" lon="6.14554">
        <ele>2055.7</ele>
        <time>2024-07-09T08:57:02Z</time>
      </trkpt>
      <trkpt lat="45.08164" lon="6.14554">
        <ele>2055.7</ele>
        <time>2024-07-09T08:57:03Z</time>
      </trkpt>
      <trkpt lat="45.08164" lon="6.14554">
        <ele>2055.7</ele>
        <time>2024-07-09T08:57:04Z</time>
      </trkpt>
      <trkpt lat="45.08164" lon="6.14554">
        <ele>2055.7</ele>
        <time>2024-07-09T08:57:05Z</time>
      </trkpt>
      <trkpt lat="45.08164" lon="6.14554">
        <ele>2055.7</ele>
        <time>2024-07-09T08:57:06Z</time>
      </trkpt>
      <trkpt lat="45.08163" lon="6.14554">
        <ele>2055.7</ele>
        <time>2024-07-09T08:57:07Z</time>
      </trkpt>
      <trkpt lat="45.08163" lon="6.14554">
        <ele>2055.7</ele>
        <time>2024-07-09T08:57:08Z</time>
      </trkpt>
      <trkpt lat="45.08163" lon="6.14554">
        <ele>2055.7</ele>
        <time>2024-07-09T08:57:09Z</time>
      </trkpt>
      <trkpt lat="45.08163" lon="6.14554">
        <ele>2055.7</ele>
        <time>2024-07-09T08:57:10Z</time>
      </trkpt>
      <trkpt lat="45.08163" lon="6.14554">
        <ele>2055.7</ele>
        <time>2024-07-09T08:57:11Z</time>
      </trkpt>
      <trkpt lat="45.08163" lon="6.14554">
        <ele>2055.7</ele>
        <time>2024-07-09T08:57:12Z</time>
      </trkpt>
      <trkpt lat="45.08163" lon="6.14554">
        <ele>2055.7</ele>
        <time>2024-07-09T08:57:13Z</time>
      </trkpt>
      <trkpt lat="45.08163" lon="6.14554">
        <ele>2055.7</ele>
        <time>2024-07-09T08:57:14Z</time>
      </trkpt>
      <trkpt lat="45.08163" lon="6.14554">
        <ele>2055.7</ele>
        <time>2024-07-09T08:57:15Z</time>
      </trkpt>
      <trkpt lat="45.08163" lon="6.14554">
        <ele>2055.7</ele>
        <time>2024-07-09T08:57:16Z</time>
      </trkpt>
      <trkpt lat="45.08163" lon="6.14554">
        <ele>2055.7</ele>
        <time>2024-07-09T08:57:17Z</time>
      </trkpt>
      <trkpt lat="45.08163" lon="6.14554">
        <ele>2055.7</ele>
        <time>2024-07-09T08:57:18Z</time>
      </trkpt>
      <trkpt lat="45.08163" lon="6.14554">
        <ele>2055.7</ele>
        <time>2024-07-09T08:57:19Z</time>
      </trkpt>
      <trkpt lat="45.08163" lon="6.14554">
        <ele>2055.7</ele>
        <time>2024-07-09T08:57:20Z</time>
      </trkpt>
      <trkpt lat="45.08163" lon="6.14554">
        <ele>2055.7</ele>
        <time>2024-07-09T08:57:21Z</time>
      </trkpt>
      <trkpt lat="45.08163" lon="6.14554">
        <ele>2055.7</ele>
        <time>2024-07-09T08:57:22Z</time>
      </trkpt>
      <trkpt lat="45.08163" lon="6.14554">
        <ele>2055.7</ele>
        <time>2024-07-09T08:57:23Z</time>
      </trkpt>
      <trkpt lat="45.08163" lon="6.14554">
        <ele>2055.7</ele>
        <time>2024-07-09T08:57:24Z</time>
      </trkpt>
      <trkpt lat="45.08163" lon="6.14554">
        <ele>2055.7</ele>
        <time>2024-07-09T08:57:25Z</time>
      </trkpt>
      <trkpt lat="45.08163" lon="6.14554">
        <ele>2055.7</ele>
        <time>2024-07-09T08:57:26Z</time>
      </trkpt>
      <trkpt lat="45.08163" lon="6.14554">
        <ele>2055.7</ele>
        <time>2024-07-09T08:57:27Z</time>
      </trkpt>
      <trkpt lat="45.08163" lon="6.14554">
        <ele>2055.7</ele>
        <time>2024-07-09T08:57:28Z</time>
      </trkpt>
      <trkpt lat="45.08163" lon="6.14554">
        <ele>2055.7</ele>
        <time>2024-07-09T08:57:29Z</time>
      </trkpt>
      <trkpt lat="45.08163" lon="6.14554">
        <ele>2055.7</ele>
        <time>2024-07-09T08:57:30Z</time>
      </trkpt>
      <trkpt lat="45.08163" lon="6.14554">
        <ele>2055.7</ele>
        <time>2024-07-09T08:57:31Z</time>
      </trkpt>
      <trkpt lat="45.08163" lon="6.14554">
        <ele>2055.7</ele>
        <time>2024-07-09T08:57:32Z</time>
      </trkpt>
      <trkpt lat="45.08163" lon="6.14554">
        <ele>2055.7</ele>
        <time>2024-07-09T08:57:33Z</time>
      </trkpt>
      <trkpt lat="45.08163" lon="6.14554">
        <ele>2055.7</ele>
        <time>2024-07-09T08:57:34Z</time>
      </trkpt>
      <trkpt lat="45.08163" lon="6.14554">
        <ele>2055.7</ele>
        <time>2024-07-09T08:57:35Z</time>
      </trkpt>
      <trkpt lat="45.08163" lon="6.14554">
        <ele>2055.7</ele>
        <time>2024-07-09T08:57:36Z</time>
      </trkpt>
      <trkpt lat="45.08163" lon="6.14554">
        <ele>2055.7</ele>
        <time>2024-07-09T08:57:37Z</time>
      </trkpt>
      <trkpt lat="45.08163" lon="6.14554">
        <ele>2055.7</ele>
        <time>2024-07-09T08:57:38Z</time>
      </trkpt>
      <trkpt lat="45.08163" lon="6.14554">
        <ele>2055.7</ele>
        <time>2024-07-09T08:57:39Z</time>
      </trkpt>
      <trkpt lat="45.08163" lon="6.14554">
        <ele>2055.7</ele>
        <time>2024-07-09T08:57:40Z</time>
      </trkpt>
      <trkpt lat="45.08163" lon="6.14554">
        <ele>2055.7</ele>
        <time>2024-07-09T08:57:41Z</time>
      </trkpt>
      <trkpt lat="45.08163" lon="6.14554">
        <ele>2055.7</ele>
        <time>2024-07-09T08:57:42Z</time>
      </trkpt>
      <trkpt lat="45.08163" lon="6.14554">
        <ele>2055.7</ele>
        <time>2024-07-09T08:57:44Z</time>
      </trkpt>
      <trkpt lat="45.08163" lon="6.14554">
        <ele>2055.7</ele>
        <time>2024-07-09T08:57:45Z</time>
      </trkpt>
      <trkpt lat="45.08163" lon="6.14554">
        <ele>2055.7</ele>
        <time>2024-07-09T08:57:46Z</time>
      </trkpt>
      <trkpt lat="45.08163" lon="6.14554">
        <ele>2055.7</ele>
        <time>2024-07-09T08:57:47Z</time>
      </trkpt>
      <trkpt lat="45.08163" lon="6.14554">
        <ele>2055.7</ele>
        <time>2024-07-09T08:57:48Z</time>
      </trkpt>
      <trkpt lat="45.08163" lon="6.14554">
        <ele>2055.7</ele>
        <time>2024-07-09T08:57:49Z</time>
      </trkpt>
      <trkpt lat="45.08163" lon="6.14554">
        <ele>2055.7</ele>
        <time>2024-07-09T08:57:50Z</time>
      </trkpt>
      <trkpt lat="45.08163" lon="6.14554">
        <ele>2055.7</ele>
        <time>2024-07-09T08:57:51Z</time>
      </trkpt>
      <trkpt lat="45.08163" lon="6.14554">
        <ele>2055.7</ele>
        <time>2024-07-09T08:57:52Z</time>
      </trkpt>
      <trkpt lat="45.08163" lon="6.14554">
        <ele>2055.7</ele>
        <time>2024-07-09T08:57:53Z</time>
      </trkpt>
      <trkpt lat="45.08163" lon="6.14554">
        <ele>2055.7</ele>
        <time>2024-07-09T08:57:54Z</time>
      </trkpt>
      <trkpt lat="45.08163" lon="6.14554">
        <ele>2055.7</ele>
        <time>2024-07-09T08:57:55Z</time>
      </trkpt>
      <trkpt lat="45.08163" lon="6.14553">
        <ele>2055.7</ele>
        <time>2024-07-09T08:57:56Z</time>
      </trkpt>
      <trkpt lat="45.08163" lon="6.14553">
        <ele>2055.7</ele>
        <time>2024-07-09T08:57:57Z</time>
      </trkpt>
      <trkpt lat="45.08163" lon="6.14554">
        <ele>2055.7</ele>
        <time>2024-07-09T08:57:58Z</time>
      </trkpt>
      <trkpt lat="45.08163" lon="6.14554">
        <ele>2055.7</ele>
        <time>2024-07-09T08:57:59Z</time>
      </trkpt>
      <trkpt lat="45.08163" lon="6.14553">
        <ele>2055.8</ele>
        <time>2024-07-09T08:58:00Z</time>
      </trkpt>
      <trkpt lat="45.08161" lon="6.14554">
        <ele>2056</ele>
        <time>2024-07-09T08:58:01Z</time>
      </trkpt>
      <trkpt lat="45.0816" lon="6.14554">
        <ele>2056.2</ele>
        <time>2024-07-09T08:58:02Z</time>
      </trkpt>
      <trkpt lat="45.08158" lon="6.14554">
        <ele>2056.4</ele>
        <time>2024-07-09T08:58:03Z</time>
      </trkpt>
      <trkpt lat="45.08158" lon="6.14553">
        <ele>2056.5</ele>
        <time>2024-07-09T08:58:04Z</time>
      </trkpt>
      <trkpt lat="45.08157" lon="6.14552">
        <ele>2056.6</ele>
        <time>2024-07-09T08:58:05Z</time>
      </trkpt>
      <trkpt lat="45.08156" lon="6.1455">
        <ele>2056.8</ele>
        <time>2024-07-09T08:58:06Z</time>
      </trkpt>
      <trkpt lat="45.08155" lon="6.14549">
        <ele>2057</ele>
        <time>2024-07-09T08:58:08Z</time>
      </trkpt>
      <trkpt lat="45.08155" lon="6.14548">
        <ele>2057.2</ele>
        <time>2024-07-09T08:58:09Z</time>
      </trkpt>
      <trkpt lat="45.08153" lon="6.14546">
        <ele>2057.5</ele>
        <time>2024-07-09T08:58:11Z</time>
      </trkpt>
      <trkpt lat="45.08153" lon="6.14544">
        <ele>2057.7</ele>
        <time>2024-07-09T08:58:12Z</time>
      </trkpt>
      <trkpt lat="45.08153" lon="6.14542">
        <ele>2058</ele>
        <time>2024-07-09T08:58:13Z</time>
      </trkpt>
      <trkpt lat="45.08152" lon="6.14541">
        <ele>2058.1</ele>
        <time>2024-07-09T08:58:14Z</time>
      </trkpt>
      <trkpt lat="45.08152" lon="6.1454">
        <ele>2058.2</ele>
        <time>2024-07-09T08:58:15Z</time>
      </trkpt>
      <trkpt lat="45.08151" lon="6.14539">
        <ele>2058.3</ele>
        <time>2024-07-09T08:58:16Z</time>
      </trkpt>
      <trkpt lat="45.08151" lon="6.14539">
        <ele>2058.4</ele>
        <time>2024-07-09T08:58:17Z</time>
      </trkpt>
      <trkpt lat="45.08151" lon="6.14538">
        <ele>2058.4</ele>
        <time>2024-07-09T08:58:18Z</time>
      </trkpt>
      <trkpt lat="45.0815" lon="6.14537">
        <ele>2058.6</ele>
        <time>2024-07-09T08:58:19Z</time>
      </trkpt>
      <trkpt lat="45.0815" lon="6.14536">
        <ele>2058.7</ele>
        <time>2024-07-09T08:58:20Z</time>
      </trkpt>
      <trkpt lat="45.0815" lon="6.14535">
        <ele>2058.8</ele>
        <time>2024-07-09T08:58:21Z</time>
      </trkpt>
      <trkpt lat="45.08149" lon="6.14534">
        <ele>2059</ele>
        <time>2024-07-09T08:58:22Z</time>
      </trkpt>
      <trkpt lat="45.08149" lon="6.14534">
        <ele>2059</ele>
        <time>2024-07-09T08:58:23Z</time>
      </trkpt>
      <trkpt lat="45.08148" lon="6.14531">
        <ele>2059.3</ele>
        <time>2024-07-09T08:58:24Z</time>
      </trkpt>
      <trkpt lat="45.08148" lon="6.14529">
        <ele>2059.5</ele>
        <time>2024-07-09T08:58:25Z</time>
      </trkpt>
      <trkpt lat="45.08147" lon="6.14528">
        <ele>2059.6</ele>
        <time>2024-07-09T08:58:27Z</time>
      </trkpt>
      <trkpt lat="45.08147" lon="6.14527">
        <ele>2059.7</ele>
        <time>2024-07-09T08:58:28Z</time>
      </trkpt>
      <trkpt lat="45.08148" lon="6.14526">
        <ele>2059.8</ele>
        <time>2024-07-09T08:58:30Z</time>
      </trkpt>
      <trkpt lat="45.08148" lon="6.14525">
        <ele>2059.9</ele>
        <time>2024-07-09T08:58:31Z</time>
      </trkpt>
      <trkpt lat="45.08149" lon="6.14522">
        <ele>2060.1</ele>
        <time>2024-07-09T08:58:32Z</time>
      </trkpt>
      <trkpt lat="45.08148" lon="6.14521">
        <ele>2060.2</ele>
        <time>2024-07-09T08:58:34Z</time>
      </trkpt>
      <trkpt lat="45.08148" lon="6.1452">
        <ele>2060.2</ele>
        <time>2024-07-09T08:58:35Z</time>
      </trkpt>
      <trkpt lat="45.08147" lon="6.1452">
        <ele>2060.3</ele>
        <time>2024-07-09T08:58:36Z</time>
      </trkpt>
      <trkpt lat="45.08147" lon="6.14519">
        <ele>2060.3</ele>
        <time>2024-07-09T08:58:37Z</time>
      </trkpt>
      <trkpt lat="45.08145" lon="6.14518">
        <ele>2060.4</ele>
        <time>2024-07-09T08:58:38Z</time>
      </trkpt>
      <trkpt lat="45.08144" lon="6.14518">
        <ele>2060.5</ele>
        <time>2024-07-09T08:58:40Z</time>
      </trkpt>
      <trkpt lat="45.08143" lon="6.14518">
        <ele>2060.4</ele>
        <time>2024-07-09T08:58:41Z</time>
      </trkpt>
      <trkpt lat="45.08142" lon="6.14517">
        <ele>2060.4</ele>
        <time>2024-07-09T08:58:42Z</time>
      </trkpt>
      <trkpt lat="45.08142" lon="6.14517">
        <ele>2060.4</ele>
        <time>2024-07-09T08:58:43Z</time>
      </trkpt>
      <trkpt lat="45.08141" lon="6.14514">
        <ele>2060.4</ele>
        <time>2024-07-09T08:58:44Z</time>
      </trkpt>
      <trkpt lat="45.0814" lon="6.14512">
        <ele>2060.2</ele>
        <time>2024-07-09T08:58:46Z</time>
      </trkpt>
      <trkpt lat="45.08139" lon="6.14509">
        <ele>2060</ele>
        <time>2024-07-09T08:58:48Z</time>
      </trkpt>
      <trkpt lat="45.08139" lon="6.14508">
        <ele>2060</ele>
        <time>2024-07-09T08:58:49Z</time>
      </trkpt>
      <trkpt lat="45.08138" lon="6.14507">
        <ele>2059.8</ele>
        <time>2024-07-09T08:58:51Z</time>
      </trkpt>
      <trkpt lat="45.08137" lon="6.14507">
        <ele>2059.7</ele>
        <time>2024-07-09T08:58:52Z</time>
      </trkpt>
      <trkpt lat="45.08136" lon="6.14506">
        <ele>2059.5</ele>
        <time>2024-07-09T08:58:53Z</time>
      </trkpt>
      <trkpt lat="45.08135" lon="6.14506">
        <ele>2059.5</ele>
        <time>2024-07-09T08:58:55Z</time>
      </trkpt>
      <trkpt lat="45.08135" lon="6.14506">
        <ele>2059.4</ele>
        <time>2024-07-09T08:58:56Z</time>
      </trkpt>
      <trkpt lat="45.08134" lon="6.14505">
        <ele>2059.3</ele>
        <time>2024-07-09T08:58:57Z</time>
      </trkpt>
      <trkpt lat="45.08133" lon="6.14505">
        <ele>2059.2</ele>
        <time>2024-07-09T08:58:58Z</time>
      </trkpt>
      <trkpt lat="45.08133" lon="6.14502">
        <ele>2058.9</ele>
        <time>2024-07-09T08:58:59Z</time>
      </trkpt>
      <trkpt lat="45.08135" lon="6.145">
        <ele>2058.5</ele>
        <time>2024-07-09T08:59:01Z</time>
      </trkpt>
      <trkpt lat="45.08135" lon="6.14498">
        <ele>2058.3</ele>
        <time>2024-07-09T08:59:03Z</time>
      </trkpt>
      <trkpt lat="45.08135" lon="6.14497">
        <ele>2058.2</ele>
        <time>2024-07-09T08:59:04Z</time>
      </trkpt>
      <trkpt lat="45.08135" lon="6.14496">
        <ele>2058.1</ele>
        <time>2024-07-09T08:59:05Z</time>
      </trkpt>
      <trkpt lat="45.08135" lon="6.14494">
        <ele>2057.9</ele>
        <time>2024-07-09T08:59:06Z</time>
      </trkpt>
      <trkpt lat="45.08134" lon="6.14491">
        <ele>2057.5</ele>
        <time>2024-07-09T08:59:08Z</time>
      </trkpt>
      <trkpt lat="45.08134" lon="6.1449">
        <ele>2057.4</ele>
        <time>2024-07-09T08:59:10Z</time>
      </trkpt>
      <trkpt lat="45.08134" lon="6.14487">
        <ele>2057.2</ele>
        <time>2024-07-09T08:59:11Z</time>
      </trkpt>
      <trkpt lat="45.08133" lon="6.14485">
        <ele>2057</ele>
        <time>2024-07-09T08:59:13Z</time>
      </trkpt>
      <trkpt lat="45.08133" lon="6.14484">
        <ele>2056.9</ele>
        <time>2024-07-09T08:59:14Z</time>
      </trkpt>
      <trkpt lat="45.08133" lon="6.14482">
        <ele>2056.8</ele>
        <time>2024-07-09T08:59:15Z</time>
      </trkpt>
      <trkpt lat="45.08132" lon="6.14481">
        <ele>2056.7</ele>
        <time>2024-07-09T08:59:16Z</time>
      </trkpt>
      <trkpt lat="45.08132" lon="6.1448">
        <ele>2056.6</ele>
        <time>2024-07-09T08:59:17Z</time>
      </trkpt>
      <trkpt lat="45.08132" lon="6.14479">
        <ele>2056.5</ele>
        <time>2024-07-09T08:59:18Z</time>
      </trkpt>
      <trkpt lat="45.08131" lon="6.14477">
        <ele>2056.5</ele>
        <time>2024-07-09T08:59:19Z</time>
      </trkpt>
      <trkpt lat="45.08131" lon="6.14475">
        <ele>2056.3</ele>
        <time>2024-07-09T08:59:20Z</time>
      </trkpt>
      <trkpt lat="45.0813" lon="6.14474">
        <ele>2056.3</ele>
        <time>2024-07-09T08:59:22Z</time>
      </trkpt>
      <trkpt lat="45.08129" lon="6.14473">
        <ele>2056.2</ele>
        <time>2024-07-09T08:59:23Z</time>
      </trkpt>
      <trkpt lat="45.08128" lon="6.14473">
        <ele>2056.1</ele>
        <time>2024-07-09T08:59:24Z</time>
      </trkpt>
      <trkpt lat="45.08128" lon="6.14472">
        <ele>2056.1</ele>
        <time>2024-07-09T08:59:25Z</time>
      </trkpt>
      <trkpt lat="45.08127" lon="6.14469">
        <ele>2056</ele>
        <time>2024-07-09T08:59:26Z</time>
      </trkpt>
      <trkpt lat="45.08127" lon="6.14468">
        <ele>2056</ele>
        <time>2024-07-09T08:59:28Z</time>
      </trkpt>
      <trkpt lat="45.08126" lon="6.14467">
        <ele>2055.9</ele>
        <time>2024-07-09T08:59:29Z</time>
      </trkpt>
      <trkpt lat="45.08126" lon="6.14467">
        <ele>2055.9</ele>
        <time>2024-07-09T08:59:30Z</time>
      </trkpt>
      <trkpt lat="45.08125" lon="6.14464">
        <ele>2055.8</ele>
        <time>2024-07-09T08:59:31Z</time>
      </trkpt>
      <trkpt lat="45.08125" lon="6.14464">
        <ele>2055.8</ele>
        <time>2024-07-09T08:59:33Z</time>
      </trkpt>
      <trkpt lat="45.08124" lon="6.14461">
        <ele>2055.8</ele>
        <time>2024-07-09T08:59:34Z</time>
      </trkpt>
      <trkpt lat="45.08124" lon="6.1446">
        <ele>2055.8</ele>
        <time>2024-07-09T08:59:36Z</time>
      </trkpt>
      <trkpt lat="45.08124" lon="6.14457">
        <ele>2055.7</ele>
        <time>2024-07-09T08:59:37Z</time>
      </trkpt>
      <trkpt lat="45.08124" lon="6.14457">
        <ele>2055.7</ele>
        <time>2024-07-09T08:59:38Z</time>
      </trkpt>
      <trkpt lat="45.08125" lon="6.14456">
        <ele>2055.7</ele>
        <time>2024-07-09T08:59:40Z</time>
      </trkpt>
      <trkpt lat="45.08125" lon="6.14457">
        <ele>2055.7</ele>
        <time>2024-07-09T08:59:41Z</time>
      </trkpt>
      <trkpt lat="45.08125" lon="6.14457">
        <ele>2055.7</ele>
        <time>2024-07-09T08:59:42Z</time>
      </trkpt>
      <trkpt lat="45.08125" lon="6.14457">
        <ele>2055.7</ele>
        <time>2024-07-09T08:59:43Z</time>
      </trkpt>
      <trkpt lat="45.08125" lon="6.14457">
        <ele>2055.7</ele>
        <time>2024-07-09T08:59:44Z</time>
      </trkpt>
      <trkpt lat="45.08124" lon="6.14457">
        <ele>2055.7</ele>
        <time>2024-07-09T08:59:45Z</time>
      </trkpt>
      <trkpt lat="45.08123" lon="6.14454">
        <ele>2055.7</ele>
        <time>2024-07-09T08:59:47Z</time>
      </trkpt>
      <trkpt lat="45.08123" lon="6.14453">
        <ele>2055.6</ele>
        <time>2024-07-09T08:59:49Z</time>
      </trkpt>
      <trkpt lat="45.08124" lon="6.14452">
        <ele>2055.6</ele>
        <time>2024-07-09T08:59:50Z</time>
      </trkpt>
      <trkpt lat="45.08123" lon="6.14452">
        <ele>2055.6</ele>
        <time>2024-07-09T08:59:51Z</time>
      </trkpt>
      <trkpt lat="45.08123" lon="6.14451">
        <ele>2055.6</ele>
        <time>2024-07-09T08:59:52Z</time>
      </trkpt>
      <trkpt lat="45.08122" lon="6.14451">
        <ele>2055.6</ele>
        <time>2024-07-09T08:59:53Z</time>
      </trkpt>
      <trkpt lat="45.08121" lon="6.14452">
        <ele>2055.6</ele>
        <time>2024-07-09T08:59:54Z</time>
      </trkpt>
      <trkpt lat="45.08121" lon="6.14453">
        <ele>2055.6</ele>
        <time>2024-07-09T08:59:55Z</time>
      </trkpt>
      <trkpt lat="45.0812" lon="6.14454">
        <ele>2055.6</ele>
        <time>2024-07-09T08:59:56Z</time>
      </trkpt>
      <trkpt lat="45.0812" lon="6.14455">
        <ele>2055.6</ele>
        <time>2024-07-09T08:59:57Z</time>
      </trkpt>
      <trkpt lat="45.08118" lon="6.14457">
        <ele>2055.6</ele>
        <time>2024-07-09T08:59:58Z</time>
      </trkpt>
      <trkpt lat="45.08116" lon="6.14456">
        <ele>2055.6</ele>
        <time>2024-07-09T09:00:00Z</time>
      </trkpt>
      <trkpt lat="45.08115" lon="6.14455">
        <ele>2055.6</ele>
        <time>2024-07-09T09:00:01Z</time>
      </trkpt>
      <trkpt lat="45.08113" lon="6.14454">
        <ele>2055.6</ele>
        <time>2024-07-09T09:00:02Z</time>
      </trkpt>
      <trkpt lat="45.08111" lon="6.14453">
        <ele>2055.7</ele>
        <time>2024-07-09T09:00:03Z</time>
      </trkpt>
      <trkpt lat="45.0811" lon="6.14452">
        <ele>2055.7</ele>
        <time>2024-07-09T09:00:05Z</time>
      </trkpt>
      <trkpt lat="45.08109" lon="6.14451">
        <ele>2055.7</ele>
        <time>2024-07-09T09:00:06Z</time>
      </trkpt>
      <trkpt lat="45.08108" lon="6.1445">
        <ele>2055.7</ele>
        <time>2024-07-09T09:00:07Z</time>
      </trkpt>
      <trkpt lat="45.08108" lon="6.14449">
        <ele>2055.8</ele>
        <time>2024-07-09T09:00:08Z</time>
      </trkpt>
      <trkpt lat="45.08106" lon="6.14447">
        <ele>2055.9</ele>
        <time>2024-07-09T09:00:09Z</time>
      </trkpt>
      <trkpt lat="45.08105" lon="6.14446">
        <ele>2055.9</ele>
        <time>2024-07-09T09:00:11Z</time>
      </trkpt>
      <trkpt lat="45.08105" lon="6.14445">
        <ele>2056</ele>
        <time>2024-07-09T09:00:12Z</time>
      </trkpt>
      <trkpt lat="45.08104" lon="6.14444">
        <ele>2056</ele>
        <time>2024-07-09T09:00:13Z</time>
      </trkpt>
      <trkpt lat="45.08103" lon="6.14444">
        <ele>2056.1</ele>
        <time>2024-07-09T09:00:14Z</time>
      </trkpt>
      <trkpt lat="45.08101" lon="6.14443">
        <ele>2056.3</ele>
        <time>2024-07-09T09:00:15Z</time>
      </trkpt>
      <trkpt lat="45.081" lon="6.14442">
        <ele>2056.4</ele>
        <time>2024-07-09T09:00:17Z</time>
      </trkpt>
      <trkpt lat="45.08098" lon="6.14442">
        <ele>2056.6</ele>
        <time>2024-07-09T09:00:18Z</time>
      </trkpt>
      <trkpt lat="45.08097" lon="6.14441">
        <ele>2056.7</ele>
        <time>2024-07-09T09:00:20Z</time>
      </trkpt>
      <trkpt lat="45.08097" lon="6.14441">
        <ele>2056.8</ele>
        <time>2024-07-09T09:00:21Z</time>
      </trkpt>
      <trkpt lat="45.08096" lon="6.14439">
        <ele>2056.9</ele>
        <time>2024-07-09T09:00:22Z</time>
      </trkpt>
      <trkpt lat="45.08095" lon="6.14438">
        <ele>2057</ele>
        <time>2024-07-09T09:00:23Z</time>
      </trkpt>
      <trkpt lat="45.08095" lon="6.14437">
        <ele>2057.1</ele>
        <time>2024-07-09T09:00:24Z</time>
      </trkpt>
      <trkpt lat="45.08094" lon="6.14437">
        <ele>2057.2</ele>
        <time>2024-07-09T09:00:25Z</time>
      </trkpt>
      <trkpt lat="45.08094" lon="6.14437">
        <ele>2057.3</ele>
        <time>2024-07-09T09:00:26Z</time>
      </trkpt>
      <trkpt lat="45.08093" lon="6.14436">
        <ele>2057.4</ele>
        <time>2024-07-09T09:00:27Z</time>
      </trkpt>
      <trkpt lat="45.08092" lon="6.14436">
        <ele>2057.4</ele>
        <time>2024-07-09T09:00:28Z</time>
      </trkpt>
      <trkpt lat="45.08092" lon="6.14435">
        <ele>2057.5</ele>
        <time>2024-07-09T09:00:29Z</time>
      </trkpt>
      <trkpt lat="45.08091" lon="6.14434">
        <ele>2057.6</ele>
        <time>2024-07-09T09:00:30Z</time>
      </trkpt>
      <trkpt lat="45.08091" lon="6.14433">
        <ele>2057.7</ele>
        <time>2024-07-09T09:00:31Z</time>
      </trkpt>
      <trkpt lat="45.08091" lon="6.14432">
        <ele>2057.8</ele>
        <time>2024-07-09T09:00:32Z</time>
      </trkpt>
      <trkpt lat="45.08091" lon="6.1443">
        <ele>2057.9</ele>
        <time>2024-07-09T09:00:33Z</time>
      </trkpt>
      <trkpt lat="45.08092" lon="6.14429">
        <ele>2058</ele>
        <time>2024-07-09T09:00:34Z</time>
      </trkpt>
      <trkpt lat="45.08092" lon="6.14427">
        <ele>2058.2</ele>
        <time>2024-07-09T09:00:35Z</time>
      </trkpt>
      <trkpt lat="45.08092" lon="6.14426">
        <ele>2058.3</ele>
        <time>2024-07-09T09:00:36Z</time>
      </trkpt>
      <trkpt lat="45.08091" lon="6.14425">
        <ele>2058.4</ele>
        <time>2024-07-09T09:00:37Z</time>
      </trkpt>
      <trkpt lat="45.0809" lon="6.14423">
        <ele>2058.5</ele>
        <time>2024-07-09T09:00:38Z</time>
      </trkpt>
      <trkpt lat="45.0809" lon="6.14421">
        <ele>2058.7</ele>
        <time>2024-07-09T09:00:40Z</time>
      </trkpt>
      <trkpt lat="45.0809" lon="6.14421">
        <ele>2058.7</ele>
        <time>2024-07-09T09:00:41Z</time>
      </trkpt>
      <trkpt lat="45.0809" lon="6.14418">
        <ele>2058.9</ele>
        <time>2024-07-09T09:00:42Z</time>
      </trkpt>
      <trkpt lat="45.08089" lon="6.14418">
        <ele>2059</ele>
        <time>2024-07-09T09:00:44Z</time>
      </trkpt>
      <trkpt lat="45.08088" lon="6.14417">
        <ele>2059.2</ele>
        <time>2024-07-09T09:00:45Z</time>
      </trkpt>
      <trkpt lat="45.08087" lon="6.14417">
        <ele>2059.2</ele>
        <time>2024-07-09T09:00:46Z</time>
      </trkpt>
      <trkpt lat="45.08086" lon="6.14418">
        <ele>2059.3</ele>
        <time>2024-07-09T09:00:47Z</time>
      </trkpt>
      <trkpt lat="45.08085" lon="6.14418">
        <ele>2059.4</ele>
        <time>2024-07-09T09:00:48Z</time>
      </trkpt>
      <trkpt lat="45.08083" lon="6.14419">
        <ele>2059.7</ele>
        <time>2024-07-09T09:00:49Z</time>
      </trkpt>
      <trkpt lat="45.08083" lon="6.14419">
        <ele>2059.8</ele>
        <time>2024-07-09T09:00:51Z</time>
      </trkpt>
      <trkpt lat="45.08082" lon="6.14419">
        <ele>2059.8</ele>
        <time>2024-07-09T09:00:52Z</time>
      </trkpt>
      <trkpt lat="45.0808" lon="6.14418">
        <ele>2060.1</ele>
        <time>2024-07-09T09:00:53Z</time>
      </trkpt>
      <trkpt lat="45.08079" lon="6.14417">
        <ele>2060.2</ele>
        <time>2024-07-09T09:00:55Z</time>
      </trkpt>
      <trkpt lat="45.08078" lon="6.14415">
        <ele>2060.4</ele>
        <time>2024-07-09T09:00:56Z</time>
      </trkpt>
      <trkpt lat="45.08077" lon="6.14414">
        <ele>2060.6</ele>
        <time>2024-07-09T09:00:58Z</time>
      </trkpt>
      <trkpt lat="45.08076" lon="6.14413">
        <ele>2060.7</ele>
        <time>2024-07-09T09:00:59Z</time>
      </trkpt>
      <trkpt lat="45.08075" lon="6.14412">
        <ele>2060.8</ele>
        <time>2024-07-09T09:01:00Z</time>
      </trkpt>
      <trkpt lat="45.08075" lon="6.14412">
        <ele>2060.8</ele>
        <time>2024-07-09T09:01:02Z</time>
      </trkpt>
      <trkpt lat="45.08074" lon="6.14411">
        <ele>2061</ele>
        <time>2024-07-09T09:01:03Z</time>
      </trkpt>
      <trkpt lat="45.08074" lon="6.1441">
        <ele>2061</ele>
        <time>2024-07-09T09:01:04Z</time>
      </trkpt>
      <trkpt lat="45.08073" lon="6.14409">
        <ele>2061.1</ele>
        <time>2024-07-09T09:01:05Z</time>
      </trkpt>
      <trkpt lat="45.08072" lon="6.14409">
        <ele>2061.2</ele>
        <time>2024-07-09T09:01:06Z</time>
      </trkpt>
      <trkpt lat="45.08072" lon="6.14408">
        <ele>2061.3</ele>
        <time>2024-07-09T09:01:07Z</time>
      </trkpt>
      <trkpt lat="45.08071" lon="6.14408">
        <ele>2061.3</ele>
        <time>2024-07-09T09:01:08Z</time>
      </trkpt>
      <trkpt lat="45.08071" lon="6.14408">
        <ele>2061.4</ele>
        <time>2024-07-09T09:01:09Z</time>
      </trkpt>
      <trkpt lat="45.08068" lon="6.14405">
        <ele>2061.7</ele>
        <time>2024-07-09T09:01:10Z</time>
      </trkpt>
      <trkpt lat="45.08067" lon="6.14404">
        <ele>2061.8</ele>
        <time>2024-07-09T09:01:12Z</time>
      </trkpt>
      <trkpt lat="45.08066" lon="6.14404">
        <ele>2061.9</ele>
        <time>2024-07-09T09:01:13Z</time>
      </trkpt>
      <trkpt lat="45.08065" lon="6.14403">
        <ele>2062</ele>
        <time>2024-07-09T09:01:14Z</time>
      </trkpt>
      <trkpt lat="45.08064" lon="6.14402">
        <ele>2062.1</ele>
        <time>2024-07-09T09:01:16Z</time>
      </trkpt>
      <trkpt lat="45.08062" lon="6.144">
        <ele>2062.3</ele>
        <time>2024-07-09T09:01:17Z</time>
      </trkpt>
      <trkpt lat="45.08061" lon="6.14399">
        <ele>2062.4</ele>
        <time>2024-07-09T09:01:19Z</time>
      </trkpt>
      <trkpt lat="45.08061" lon="6.14398">
        <ele>2062.5</ele>
        <time>2024-07-09T09:01:20Z</time>
      </trkpt>
      <trkpt lat="45.08059" lon="6.14397">
        <ele>2062.6</ele>
        <time>2024-07-09T09:01:21Z</time>
      </trkpt>
      <trkpt lat="45.08059" lon="6.14397">
        <ele>2062.7</ele>
        <time>2024-07-09T09:01:22Z</time>
      </trkpt>
      <trkpt lat="45.08058" lon="6.14396">
        <ele>2062.7</ele>
        <time>2024-07-09T09:01:23Z</time>
      </trkpt>
      <trkpt lat="45.08058" lon="6.14396">
        <ele>2062.8</ele>
        <time>2024-07-09T09:01:24Z</time>
      </trkpt>
      <trkpt lat="45.08058" lon="6.14397">
        <ele>2062.8</ele>
        <time>2024-07-09T09:01:25Z</time>
      </trkpt>
      <trkpt lat="45.08059" lon="6.14397">
        <ele>2062.9</ele>
        <time>2024-07-09T09:01:26Z</time>
      </trkpt>
      <trkpt lat="45.08058" lon="6.14397">
        <ele>2062.9</ele>
        <time>2024-07-09T09:01:27Z</time>
      </trkpt>
      <trkpt lat="45.08057" lon="6.14395">
        <ele>2063.1</ele>
        <time>2024-07-09T09:01:28Z</time>
      </trkpt>
      <trkpt lat="45.08056" lon="6.14394">
        <ele>2063.2</ele>
        <time>2024-07-09T09:01:29Z</time>
      </trkpt>
      <trkpt lat="45.08054" lon="6.14394">
        <ele>2063.4</ele>
        <time>2024-07-09T09:01:30Z</time>
      </trkpt>
      <trkpt lat="45.08052" lon="6.14394">
        <ele>2063.6</ele>
        <time>2024-07-09T09:01:31Z</time>
      </trkpt>
      <trkpt lat="45.08052" lon="6.14395">
        <ele>2063.7</ele>
        <time>2024-07-09T09:01:32Z</time>
      </trkpt>
      <trkpt lat="45.08051" lon="6.14395">
        <ele>2063.8</ele>
        <time>2024-07-09T09:01:33Z</time>
      </trkpt>
      <trkpt lat="45.08049" lon="6.14396">
        <ele>2064</ele>
        <time>2024-07-09T09:01:34Z</time>
      </trkpt>
      <trkpt lat="45.08048" lon="6.14396">
        <ele>2064.1</ele>
        <time>2024-07-09T09:01:36Z</time>
      </trkpt>
      <trkpt lat="45.08047" lon="6.14397">
        <ele>2064.4</ele>
        <time>2024-07-09T09:01:37Z</time>
      </trkpt>
      <trkpt lat="45.08046" lon="6.14396">
        <ele>2064.6</ele>
        <time>2024-07-09T09:01:38Z</time>
      </trkpt>
      <trkpt lat="45.08045" lon="6.14396">
        <ele>2064.7</ele>
        <time>2024-07-09T09:01:39Z</time>
      </trkpt>
      <trkpt lat="45.08044" lon="6.14396">
        <ele>2064.9</ele>
        <time>2024-07-09T09:01:40Z</time>
      </trkpt>
      <trkpt lat="45.08044" lon="6.14396">
        <ele>2065.1</ele>
        <time>2024-07-09T09:01:41Z</time>
      </trkpt>
      <trkpt lat="45.08043" lon="6.14395">
        <ele>2065.3</ele>
        <time>2024-07-09T09:01:42Z</time>
      </trkpt>
      <trkpt lat="45.08042" lon="6.14395">
        <ele>2065.4</ele>
        <time>2024-07-09T09:01:43Z</time>
      </trkpt>
      <trkpt lat="45.08041" lon="6.14395">
        <ele>2065.6</ele>
        <time>2024-07-09T09:01:44Z</time>
      </trkpt>
      <trkpt lat="45.08041" lon="6.14395">
        <ele>2065.7</ele>
        <time>2024-07-09T09:01:45Z</time>
      </trkpt>
      <trkpt lat="45.0804" lon="6.14395">
        <ele>2065.9</ele>
        <time>2024-07-09T09:01:46Z</time>
      </trkpt>
      <trkpt lat="45.0804" lon="6.14395">
        <ele>2066.1</ele>
        <time>2024-07-09T09:01:47Z</time>
      </trkpt>
      <trkpt lat="45.08039" lon="6.14397">
        <ele>2066.3</ele>
        <time>2024-07-09T09:01:48Z</time>
      </trkpt>
      <trkpt lat="45.08039" lon="6.14397">
        <ele>2066.4</ele>
        <time>2024-07-09T09:01:49Z</time>
      </trkpt>
      <trkpt lat="45.08038" lon="6.14398">
        <ele>2066.6</ele>
        <time>2024-07-09T09:01:50Z</time>
      </trkpt>
      <trkpt lat="45.08037" lon="6.14398">
        <ele>2066.9</ele>
        <time>2024-07-09T09:01:51Z</time>
      </trkpt>
      <trkpt lat="45.08036" lon="6.14399">
        <ele>2067.1</ele>
        <time>2024-07-09T09:01:52Z</time>
      </trkpt>
      <trkpt lat="45.08035" lon="6.144">
        <ele>2067.5</ele>
        <time>2024-07-09T09:01:53Z</time>
      </trkpt>
      <trkpt lat="45.08035" lon="6.144">
        <ele>2067.6</ele>
        <time>2024-07-09T09:01:54Z</time>
      </trkpt>
      <trkpt lat="45.08034" lon="6.14399">
        <ele>2067.8</ele>
        <time>2024-07-09T09:01:55Z</time>
      </trkpt>
      <trkpt lat="45.08034" lon="6.14399">
        <ele>2067.9</ele>
        <time>2024-07-09T09:01:57Z</time>
      </trkpt>
      <trkpt lat="45.08033" lon="6.14398">
        <ele>2068.1</ele>
        <time>2024-07-09T09:01:58Z</time>
      </trkpt>
      <trkpt lat="45.08031" lon="6.14398">
        <ele>2068.7</ele>
        <time>2024-07-09T09:02:00Z</time>
      </trkpt>
      <trkpt lat="45.0803" lon="6.14398">
        <ele>2069</ele>
        <time>2024-07-09T09:02:02Z</time>
      </trkpt>
      <trkpt lat="45.08029" lon="6.14396">
        <ele>2069.4</ele>
        <time>2024-07-09T09:02:03Z</time>
      </trkpt>
      <trkpt lat="45.08029" lon="6.14395">
        <ele>2069.6</ele>
        <time>2024-07-09T09:02:04Z</time>
      </trkpt>
      <trkpt lat="45.08029" lon="6.14395">
        <ele>2069.7</ele>
        <time>2024-07-09T09:02:05Z</time>
      </trkpt>
      <trkpt lat="45.08029" lon="6.14393">
        <ele>2070.2</ele>
        <time>2024-07-09T09:02:06Z</time>
      </trkpt>
      <trkpt lat="45.08029" lon="6.14392">
        <ele>2070.4</ele>
        <time>2024-07-09T09:02:08Z</time>
      </trkpt>
      <trkpt lat="45.08029" lon="6.14391">
        <ele>2070.6</ele>
        <time>2024-07-09T09:02:09Z</time>
      </trkpt>
      <trkpt lat="45.08029" lon="6.14391">
        <ele>2070.8</ele>
        <time>2024-07-09T09:02:10Z</time>
      </trkpt>
      <trkpt lat="45.08029" lon="6.14391">
        <ele>2070.9</ele>
        <time>2024-07-09T09:02:11Z</time>
      </trkpt>
      <trkpt lat="45.08029" lon="6.1439">
        <ele>2070.9</ele>
        <time>2024-07-09T09:02:12Z</time>
      </trkpt>
      <trkpt lat="45.08029" lon="6.1439">
        <ele>2071.1</ele>
        <time>2024-07-09T09:02:13Z</time>
      </trkpt>
      <trkpt lat="45.08029" lon="6.1439">
        <ele>2071.1</ele>
        <time>2024-07-09T09:02:14Z</time>
      </trkpt>
      <trkpt lat="45.08029" lon="6.14389">
        <ele>2071.2</ele>
        <time>2024-07-09T09:02:15Z</time>
      </trkpt>
      <trkpt lat="45.08029" lon="6.14388">
        <ele>2071.5</ele>
        <time>2024-07-09T09:02:16Z</time>
      </trkpt>
      <trkpt lat="45.08029" lon="6.14389">
        <ele>2071.6</ele>
        <time>2024-07-09T09:02:18Z</time>
      </trkpt>
      <trkpt lat="45.0803" lon="6.14389">
        <ele>2071.7</ele>
        <time>2024-07-09T09:02:19Z</time>
      </trkpt>
      <trkpt lat="45.0803" lon="6.14389">
        <ele>2071.8</ele>
        <time>2024-07-09T09:02:20Z</time>
      </trkpt>
      <trkpt lat="45.0803" lon="6.14389">
        <ele>2071.8</ele>
        <time>2024-07-09T09:02:21Z</time>
      </trkpt>
      <trkpt lat="45.0803" lon="6.14389">
        <ele>2071.9</ele>
        <time>2024-07-09T09:02:22Z</time>
      </trkpt>
      <trkpt lat="45.0803" lon="6.14389">
        <ele>2071.9</ele>
        <time>2024-07-09T09:02:23Z</time>
      </trkpt>
      <trkpt lat="45.0803" lon="6.14388">
        <ele>2072</ele>
        <time>2024-07-09T09:02:24Z</time>
      </trkpt>
      <trkpt lat="45.0803" lon="6.14388">
        <ele>2072.1</ele>
        <time>2024-07-09T09:02:25Z</time>
      </trkpt>
      <trkpt lat="45.0803" lon="6.14387">
        <ele>2072.2</ele>
        <time>2024-07-09T09:02:26Z</time>
      </trkpt>
      <trkpt lat="45.0803" lon="6.14387">
        <ele>2072.3</ele>
        <time>2024-07-09T09:02:27Z</time>
      </trkpt>
      <trkpt lat="45.0803" lon="6.14387">
        <ele>2072.5</ele>
        <time>2024-07-09T09:02:28Z</time>
      </trkpt>
      <trkpt lat="45.0803" lon="6.14388">
        <ele>2072.8</ele>
        <time>2024-07-09T09:02:29Z</time>
      </trkpt>
      <trkpt lat="45.08031" lon="6.14388">
        <ele>2072.9</ele>
        <time>2024-07-09T09:02:30Z</time>
      </trkpt>
      <trkpt lat="45.08031" lon="6.14388">
        <ele>2072.9</ele>
        <time>2024-07-09T09:02:31Z</time>
      </trkpt>
      <trkpt lat="45.08031" lon="6.14388">
        <ele>2073</ele>
        <time>2024-07-09T09:02:32Z</time>
      </trkpt>
      <trkpt lat="45.08031" lon="6.14388">
        <ele>2073</ele>
        <time>2024-07-09T09:02:33Z</time>
      </trkpt>
      <trkpt lat="45.08031" lon="6.14388">
        <ele>2073.1</ele>
        <time>2024-07-09T09:02:34Z</time>
      </trkpt>
      <trkpt lat="45.08031" lon="6.14387">
        <ele>2073.4</ele>
        <time>2024-07-09T09:02:35Z</time>
      </trkpt>
      <trkpt lat="45.08032" lon="6.14386">
        <ele>2073.7</ele>
        <time>2024-07-09T09:02:36Z</time>
      </trkpt>
      <trkpt lat="45.08032" lon="6.14385">
        <ele>2073.9</ele>
        <time>2024-07-09T09:02:37Z</time>
      </trkpt>
      <trkpt lat="45.08033" lon="6.14384">
        <ele>2074.1</ele>
        <time>2024-07-09T09:02:39Z</time>
      </trkpt>
      <trkpt lat="45.08033" lon="6.14383">
        <ele>2074.3</ele>
        <time>2024-07-09T09:02:40Z</time>
      </trkpt>
      <trkpt lat="45.08033" lon="6.14382">
        <ele>2074.5</ele>
        <time>2024-07-09T09:02:41Z</time>
      </trkpt>
      <trkpt lat="45.08034" lon="6.14381">
        <ele>2074.7</ele>
        <time>2024-07-09T09:02:42Z</time>
      </trkpt>
      <trkpt lat="45.08035" lon="6.14379">
        <ele>2075</ele>
        <time>2024-07-09T09:02:43Z</time>
      </trkpt>
      <trkpt lat="45.08034" lon="6.14377">
        <ele>2075.4</ele>
        <time>2024-07-09T09:02:44Z</time>
      </trkpt>
      <trkpt lat="45.08034" lon="6.14376">
        <ele>2075.5</ele>
        <time>2024-07-09T09:02:45Z</time>
      </trkpt>
      <trkpt lat="45.08034" lon="6.14375">
        <ele>2075.6</ele>
        <time>2024-07-09T09:02:47Z</time>
      </trkpt>
      <trkpt lat="45.08034" lon="6.14374">
        <ele>2075.7</ele>
        <time>2024-07-09T09:02:48Z</time>
      </trkpt>
      <trkpt lat="45.08033" lon="6.14374">
        <ele>2075.8</ele>
        <time>2024-07-09T09:02:49Z</time>
      </trkpt>
      <trkpt lat="45.08032" lon="6.14374">
        <ele>2076</ele>
        <time>2024-07-09T09:02:50Z</time>
      </trkpt>
      <trkpt lat="45.08032" lon="6.14374">
        <ele>2076.1</ele>
        <time>2024-07-09T09:02:52Z</time>
      </trkpt>
      <trkpt lat="45.08031" lon="6.14373">
        <ele>2076.2</ele>
        <time>2024-07-09T09:02:53Z</time>
      </trkpt>
      <trkpt lat="45.0803" lon="6.14373">
        <ele>2076.3</ele>
        <time>2024-07-09T09:02:54Z</time>
      </trkpt>
      <trkpt lat="45.0803" lon="6.14372">
        <ele>2076.4</ele>
        <time>2024-07-09T09:02:56Z</time>
      </trkpt>
      <trkpt lat="45.08029" lon="6.14372">
        <ele>2076.5</ele>
        <time>2024-07-09T09:02:57Z</time>
      </trkpt>
      <trkpt lat="45.08028" lon="6.1437">
        <ele>2076.7</ele>
        <time>2024-07-09T09:02:58Z</time>
      </trkpt>
      <trkpt lat="45.08027" lon="6.14369">
        <ele>2076.9</ele>
        <time>2024-07-09T09:02:59Z</time>
      </trkpt>
      <trkpt lat="45.08026" lon="6.14368">
        <ele>2076.9</ele>
        <time>2024-07-09T09:03:01Z</time>
      </trkpt>
      <trkpt lat="45.08026" lon="6.14368">
        <ele>2076.9</ele>
        <time>2024-07-09T09:03:02Z</time>
      </trkpt>
      <trkpt lat="45.08025" lon="6.14367">
        <ele>2077.1</ele>
        <time>2024-07-09T09:03:03Z</time>
      </trkpt>
      <trkpt lat="45.08024" lon="6.14366">
        <ele>2077.1</ele>
        <time>2024-07-09T09:03:05Z</time>
      </trkpt>
      <trkpt lat="45.08023" lon="6.14365">
        <ele>2077.2</ele>
        <time>2024-07-09T09:03:06Z</time>
      </trkpt>
      <trkpt lat="45.08022" lon="6.14365">
        <ele>2077.3</ele>
        <time>2024-07-09T09:03:07Z</time>
      </trkpt>
      <trkpt lat="45.08021" lon="6.14364">
        <ele>2077.4</ele>
        <time>2024-07-09T09:03:08Z</time>
      </trkpt>
      <trkpt lat="45.08021" lon="6.14363">
        <ele>2077.5</ele>
        <time>2024-07-09T09:03:09Z</time>
      </trkpt>
      <trkpt lat="45.08021" lon="6.14361">
        <ele>2077.5</ele>
        <time>2024-07-09T09:03:11Z</time>
      </trkpt>
      <trkpt lat="45.08021" lon="6.14358">
        <ele>2077.7</ele>
        <time>2024-07-09T09:03:12Z</time>
      </trkpt>
      <trkpt lat="45.0802" lon="6.14356">
        <ele>2077.8</ele>
        <time>2024-07-09T09:03:14Z</time>
      </trkpt>
      <trkpt lat="45.08019" lon="6.14355">
        <ele>2077.8</ele>
        <time>2024-07-09T09:03:15Z</time>
      </trkpt>
      <trkpt lat="45.08017" lon="6.14353">
        <ele>2078</ele>
        <time>2024-07-09T09:03:17Z</time>
      </trkpt>
      <trkpt lat="45.08016" lon="6.14352">
        <ele>2078.1</ele>
        <time>2024-07-09T09:03:19Z</time>
      </trkpt>
      <trkpt lat="45.08016" lon="6.14351">
        <ele>2078.1</ele>
        <time>2024-07-09T09:03:21Z</time>
      </trkpt>
      <trkpt lat="45.08015" lon="6.14349">
        <ele>2078.2</ele>
        <time>2024-07-09T09:03:22Z</time>
      </trkpt>
      <trkpt lat="45.08014" lon="6.14347">
        <ele>2078.3</ele>
        <time>2024-07-09T09:03:24Z</time>
      </trkpt>
      <trkpt lat="45.08013" lon="6.14346">
        <ele>2078.4</ele>
        <time>2024-07-09T09:03:25Z</time>
      </trkpt>
      <trkpt lat="45.08012" lon="6.14346">
        <ele>2078.5</ele>
        <time>2024-07-09T09:03:26Z</time>
      </trkpt>
      <trkpt lat="45.08012" lon="6.14345">
        <ele>2078.6</ele>
        <time>2024-07-09T09:03:27Z</time>
      </trkpt>
      <trkpt lat="45.0801" lon="6.14344">
        <ele>2078.7</ele>
        <time>2024-07-09T09:03:29Z</time>
      </trkpt>
      <trkpt lat="45.0801" lon="6.14343">
        <ele>2078.8</ele>
        <time>2024-07-09T09:03:31Z</time>
      </trkpt>
      <trkpt lat="45.08009" lon="6.14342">
        <ele>2078.9</ele>
        <time>2024-07-09T09:03:32Z</time>
      </trkpt>
      <trkpt lat="45.0801" lon="6.14341">
        <ele>2079</ele>
        <time>2024-07-09T09:03:33Z</time>
      </trkpt>
      <trkpt lat="45.08009" lon="6.14338">
        <ele>2079.2</ele>
        <time>2024-07-09T09:03:34Z</time>
      </trkpt>
      <trkpt lat="45.08009" lon="6.14338">
        <ele>2079.2</ele>
        <time>2024-07-09T09:03:35Z</time>
      </trkpt>
      <trkpt lat="45.08008" lon="6.14337">
        <ele>2079.3</ele>
        <time>2024-07-09T09:03:36Z</time>
      </trkpt>
      <trkpt lat="45.08008" lon="6.14336">
        <ele>2079.4</ele>
        <time>2024-07-09T09:03:38Z</time>
      </trkpt>
      <trkpt lat="45.08008" lon="6.14335">
        <ele>2079.5</ele>
        <time>2024-07-09T09:03:39Z</time>
      </trkpt>
      <trkpt lat="45.08009" lon="6.14334">
        <ele>2079.6</ele>
        <time>2024-07-09T09:03:40Z</time>
      </trkpt>
      <trkpt lat="45.08009" lon="6.14333">
        <ele>2079.6</ele>
        <time>2024-07-09T09:03:42Z</time>
      </trkpt>
      <trkpt lat="45.08008" lon="6.14333">
        <ele>2079.7</ele>
        <time>2024-07-09T09:03:43Z</time>
      </trkpt>
      <trkpt lat="45.08007" lon="6.14332">
        <ele>2079.8</ele>
        <time>2024-07-09T09:03:44Z</time>
      </trkpt>
      <trkpt lat="45.08007" lon="6.14332">
        <ele>2079.9</ele>
        <time>2024-07-09T09:03:45Z</time>
      </trkpt>
      <trkpt lat="45.08006" lon="6.14332">
        <ele>2079.9</ele>
        <time>2024-07-09T09:03:46Z</time>
      </trkpt>
      <trkpt lat="45.08005" lon="6.14332">
        <ele>2080</ele>
        <time>2024-07-09T09:03:47Z</time>
      </trkpt>
      <trkpt lat="45.08005" lon="6.14331">
        <ele>2080.1</ele>
        <time>2024-07-09T09:03:48Z</time>
      </trkpt>
      <trkpt lat="45.08004" lon="6.14331">
        <ele>2080.2</ele>
        <time>2024-07-09T09:03:49Z</time>
      </trkpt>
      <trkpt lat="45.08003" lon="6.14329">
        <ele>2080.3</ele>
        <time>2024-07-09T09:03:50Z</time>
      </trkpt>
      <trkpt lat="45.08003" lon="6.14329">
        <ele>2080.3</ele>
        <time>2024-07-09T09:03:52Z</time>
      </trkpt>
      <trkpt lat="45.08002" lon="6.14328">
        <ele>2080.4</ele>
        <time>2024-07-09T09:03:53Z</time>
      </trkpt>
      <trkpt lat="45.08002" lon="6.14326">
        <ele>2080.5</ele>
        <time>2024-07-09T09:03:54Z</time>
      </trkpt>
      <trkpt lat="45.08001" lon="6.14326">
        <ele>2080.5</ele>
        <time>2024-07-09T09:03:55Z</time>
      </trkpt>
      <trkpt lat="45.08001" lon="6.14326">
        <ele>2080.6</ele>
        <time>2024-07-09T09:03:56Z</time>
      </trkpt>
      <trkpt lat="45.08" lon="6.14325">
        <ele>2080.6</ele>
        <time>2024-07-09T09:03:57Z</time>
      </trkpt>
      <trkpt lat="45.07999" lon="6.14324">
        <ele>2080.7</ele>
        <time>2024-07-09T09:03:59Z</time>
      </trkpt>
      <trkpt lat="45.07998" lon="6.14324">
        <ele>2080.7</ele>
        <time>2024-07-09T09:04:01Z</time>
      </trkpt>
      <trkpt lat="45.07998" lon="6.14323">
        <ele>2080.7</ele>
        <time>2024-07-09T09:04:02Z</time>
      </trkpt>
      <trkpt lat="45.07997" lon="6.14322">
        <ele>2080.7</ele>
        <time>2024-07-09T09:04:03Z</time>
      </trkpt>
      <trkpt lat="45.07996" lon="6.1432">
        <ele>2080.7</ele>
        <time>2024-07-09T09:04:04Z</time>
      </trkpt>
      <trkpt lat="45.07995" lon="6.14318">
        <ele>2080.8</ele>
        <time>2024-07-09T09:04:06Z</time>
      </trkpt>
      <trkpt lat="45.07995" lon="6.14317">
        <ele>2080.8</ele>
        <time>2024-07-09T09:04:07Z</time>
      </trkpt>
      <trkpt lat="45.07995" lon="6.14316">
        <ele>2080.7</ele>
        <time>2024-07-09T09:04:08Z</time>
      </trkpt>
      <trkpt lat="45.07995" lon="6.14315">
        <ele>2080.7</ele>
        <time>2024-07-09T09:04:09Z</time>
      </trkpt>
      <trkpt lat="45.07996" lon="6.14314">
        <ele>2080.7</ele>
        <time>2024-07-09T09:04:10Z</time>
      </trkpt>
      <trkpt lat="45.07996" lon="6.14311">
        <ele>2080.6</ele>
        <time>2024-07-09T09:04:11Z</time>
      </trkpt>
      <trkpt lat="45.07995" lon="6.1431">
        <ele>2080.6</ele>
        <time>2024-07-09T09:04:13Z</time>
      </trkpt>
      <trkpt lat="45.07994" lon="6.14309">
        <ele>2080.5</ele>
        <time>2024-07-09T09:04:14Z</time>
      </trkpt>
      <trkpt lat="45.07994" lon="6.14308">
        <ele>2080.5</ele>
        <time>2024-07-09T09:04:15Z</time>
      </trkpt>
      <trkpt lat="45.07992" lon="6.14306">
        <ele>2080.4</ele>
        <time>2024-07-09T09:04:16Z</time>
      </trkpt>
      <trkpt lat="45.07991" lon="6.14304">
        <ele>2080.3</ele>
        <time>2024-07-09T09:04:18Z</time>
      </trkpt>
      <trkpt lat="45.07991" lon="6.14303">
        <ele>2080.3</ele>
        <time>2024-07-09T09:04:19Z</time>
      </trkpt>
      <trkpt lat="45.0799" lon="6.143">
        <ele>2080.2</ele>
        <time>2024-07-09T09:04:20Z</time>
      </trkpt>
      <trkpt lat="45.07989" lon="6.14299">
        <ele>2080.1</ele>
        <time>2024-07-09T09:04:21Z</time>
      </trkpt>
      <trkpt lat="45.07989" lon="6.14298">
        <ele>2080.1</ele>
        <time>2024-07-09T09:04:22Z</time>
      </trkpt>
      <trkpt lat="45.07988" lon="6.14297">
        <ele>2080.1</ele>
        <time>2024-07-09T09:04:24Z</time>
      </trkpt>
      <trkpt lat="45.07988" lon="6.14296">
        <ele>2080</ele>
        <time>2024-07-09T09:04:25Z</time>
      </trkpt>
      <trkpt lat="45.07987" lon="6.14294">
        <ele>2080</ele>
        <time>2024-07-09T09:04:26Z</time>
      </trkpt>
      <trkpt lat="45.07987" lon="6.14292">
        <ele>2080</ele>
        <time>2024-07-09T09:04:27Z</time>
      </trkpt>
      <trkpt lat="45.07986" lon="6.14289">
        <ele>2079.9</ele>
        <time>2024-07-09T09:04:28Z</time>
      </trkpt>
      <trkpt lat="45.07986" lon="6.14288">
        <ele>2079.9</ele>
        <time>2024-07-09T09:04:30Z</time>
      </trkpt>
      <trkpt lat="45.07986" lon="6.14286">
        <ele>2079.9</ele>
        <time>2024-07-09T09:04:31Z</time>
      </trkpt>
      <trkpt lat="45.07986" lon="6.14284">
        <ele>2079.9</ele>
        <time>2024-07-09T09:04:32Z</time>
      </trkpt>
      <trkpt lat="45.07985" lon="6.14281">
        <ele>2079.9</ele>
        <time>2024-07-09T09:04:34Z</time>
      </trkpt>
      <trkpt lat="45.07985" lon="6.1428">
        <ele>2080</ele>
        <time>2024-07-09T09:04:35Z</time>
      </trkpt>
      <trkpt lat="45.07984" lon="6.14279">
        <ele>2080</ele>
        <time>2024-07-09T09:04:37Z</time>
      </trkpt>
      <trkpt lat="45.07983" lon="6.14277">
        <ele>2080.1</ele>
        <time>2024-07-09T09:04:38Z</time>
      </trkpt>
      <trkpt lat="45.07983" lon="6.14276">
        <ele>2080.1</ele>
        <time>2024-07-09T09:04:39Z</time>
      </trkpt>
      <trkpt lat="45.07983" lon="6.14275">
        <ele>2080.2</ele>
        <time>2024-07-09T09:04:41Z</time>
      </trkpt>
      <trkpt lat="45.07982" lon="6.14274">
        <ele>2080.2</ele>
        <time>2024-07-09T09:04:42Z</time>
      </trkpt>
      <trkpt lat="45.07982" lon="6.14273">
        <ele>2080.3</ele>
        <time>2024-07-09T09:04:43Z</time>
      </trkpt>
      <trkpt lat="45.07981" lon="6.14271">
        <ele>2080.4</ele>
        <time>2024-07-09T09:04:44Z</time>
      </trkpt>
      <trkpt lat="45.07981" lon="6.1427">
        <ele>2080.4</ele>
        <time>2024-07-09T09:04:45Z</time>
      </trkpt>
      <trkpt lat="45.07981" lon="6.14269">
        <ele>2080.6</ele>
        <time>2024-07-09T09:04:46Z</time>
      </trkpt>
      <trkpt lat="45.0798" lon="6.14269">
        <ele>2080.6</ele>
        <time>2024-07-09T09:04:47Z</time>
      </trkpt>
      <trkpt lat="45.0798" lon="6.14268">
        <ele>2080.7</ele>
        <time>2024-07-09T09:04:48Z</time>
      </trkpt>
      <trkpt lat="45.07979" lon="6.14268">
        <ele>2080.8</ele>
        <time>2024-07-09T09:04:49Z</time>
      </trkpt>
      <trkpt lat="45.07977" lon="6.14266">
        <ele>2081.1</ele>
        <time>2024-07-09T09:04:51Z</time>
      </trkpt>
      <trkpt lat="45.07977" lon="6.14266">
        <ele>2081.2</ele>
        <time>2024-07-09T09:04:52Z</time>
      </trkpt>
      <trkpt lat="45.07976" lon="6.14265">
        <ele>2081.4</ele>
        <time>2024-07-09T09:04:54Z</time>
      </trkpt>
      <trkpt lat="45.07975" lon="6.14263">
        <ele>2081.6</ele>
        <time>2024-07-09T09:04:55Z</time>
      </trkpt>
      <trkpt lat="45.07974" lon="6.14262">
        <ele>2081.8</ele>
        <time>2024-07-09T09:04:57Z</time>
      </trkpt>
      <trkpt lat="45.07975" lon="6.14261">
        <ele>2081.9</ele>
        <time>2024-07-09T09:04:58Z</time>
      </trkpt>
      <trkpt lat="45.07974" lon="6.14261">
        <ele>2082</ele>
        <time>2024-07-09T09:04:59Z</time>
      </trkpt>
      <trkpt lat="45.07974" lon="6.1426">
        <ele>2082.2</ele>
        <time>2024-07-09T09:05:00Z</time>
      </trkpt>
      <trkpt lat="45.07973" lon="6.14258">
        <ele>2082.5</ele>
        <time>2024-07-09T09:05:01Z</time>
      </trkpt>
      <trkpt lat="45.07973" lon="6.14259">
        <ele>2082.7</ele>
        <time>2024-07-09T09:05:03Z</time>
      </trkpt>
      <trkpt lat="45.07973" lon="6.14259">
        <ele>2082.7</ele>
        <time>2024-07-09T09:05:04Z</time>
      </trkpt>
      <trkpt lat="45.07973" lon="6.14259">
        <ele>2082.8</ele>
        <time>2024-07-09T09:05:05Z</time>
      </trkpt>
      <trkpt lat="45.07974" lon="6.14259">
        <ele>2082.8</ele>
        <time>2024-07-09T09:05:06Z</time>
      </trkpt>
      <trkpt lat="45.07974" lon="6.14259">
        <ele>2082.9</ele>
        <time>2024-07-09T09:05:07Z</time>
      </trkpt>
      <trkpt lat="45.07974" lon="6.14259">
        <ele>2082.9</ele>
        <time>2024-07-09T09:05:08Z</time>
      </trkpt>
      <trkpt lat="45.07974" lon="6.14259">
        <ele>2082.9</ele>
        <time>2024-07-09T09:05:09Z</time>
      </trkpt>
      <trkpt lat="45.07974" lon="6.14259">
        <ele>2082.9</ele>
        <time>2024-07-09T09:05:10Z</time>
      </trkpt>
      <trkpt lat="45.07974" lon="6.14259">
        <ele>2082.9</ele>
        <time>2024-07-09T09:05:11Z</time>
      </trkpt>
      <trkpt lat="45.07973" lon="6.14259">
        <ele>2083.1</ele>
        <time>2024-07-09T09:05:13Z</time>
      </trkpt>
      <trkpt lat="45.07972" lon="6.14259">
        <ele>2083.2</ele>
        <time>2024-07-09T09:05:15Z</time>
      </trkpt>
      <trkpt lat="45.07972" lon="6.14258">
        <ele>2083.4</ele>
        <time>2024-07-09T09:05:16Z</time>
      </trkpt>
      <trkpt lat="45.07971" lon="6.14257">
        <ele>2083.6</ele>
        <time>2024-07-09T09:05:17Z</time>
      </trkpt>
      <trkpt lat="45.07971" lon="6.14256">
        <ele>2083.8</ele>
        <time>2024-07-09T09:05:18Z</time>
      </trkpt>
      <trkpt lat="45.0797" lon="6.14256">
        <ele>2084</ele>
        <time>2024-07-09T09:05:19Z</time>
      </trkpt>
      <trkpt lat="45.0797" lon="6.14255">
        <ele>2084.2</ele>
        <time>2024-07-09T09:05:20Z</time>
      </trkpt>
      <trkpt lat="45.07969" lon="6.14255">
        <ele>2084.3</ele>
        <time>2024-07-09T09:05:21Z</time>
      </trkpt>
      <trkpt lat="45.07968" lon="6.14255">
        <ele>2084.6</ele>
        <time>2024-07-09T09:05:22Z</time>
      </trkpt>
      <trkpt lat="45.07968" lon="6.14255">
        <ele>2084.7</ele>
        <time>2024-07-09T09:05:23Z</time>
      </trkpt>
      <trkpt lat="45.07968" lon="6.14255">
        <ele>2084.8</ele>
        <time>2024-07-09T09:05:24Z</time>
      </trkpt>
      <trkpt lat="45.07967" lon="6.14254">
        <ele>2085</ele>
        <time>2024-07-09T09:05:25Z</time>
      </trkpt>
      <trkpt lat="45.07967" lon="6.14254">
        <ele>2085.1</ele>
        <time>2024-07-09T09:05:26Z</time>
      </trkpt>
      <trkpt lat="45.07966" lon="6.14253">
        <ele>2085.3</ele>
        <time>2024-07-09T09:05:27Z</time>
      </trkpt>
      <trkpt lat="45.07966" lon="6.14254">
        <ele>2085.4</ele>
        <time>2024-07-09T09:05:28Z</time>
      </trkpt>
      <trkpt lat="45.07964" lon="6.14252">
        <ele>2085.8</ele>
        <time>2024-07-09T09:05:29Z</time>
      </trkpt>
      <trkpt lat="45.07964" lon="6.14252">
        <ele>2086</ele>
        <time>2024-07-09T09:05:31Z</time>
      </trkpt>
      <trkpt lat="45.07963" lon="6.1425">
        <ele>2086.3</ele>
        <time>2024-07-09T09:05:32Z</time>
      </trkpt>
      <trkpt lat="45.07964" lon="6.1425">
        <ele>2086.5</ele>
        <time>2024-07-09T09:05:34Z</time>
      </trkpt>
      <trkpt lat="45.07964" lon="6.1425">
        <ele>2086.6</ele>
        <time>2024-07-09T09:05:35Z</time>
      </trkpt>
      <trkpt lat="45.07965" lon="6.1425">
        <ele>2086.7</ele>
        <time>2024-07-09T09:05:36Z</time>
      </trkpt>
      <trkpt lat="45.07964" lon="6.1425">
        <ele>2086.8</ele>
        <time>2024-07-09T09:05:37Z</time>
      </trkpt>
      <trkpt lat="45.07964" lon="6.1425">
        <ele>2086.8</ele>
        <time>2024-07-09T09:05:38Z</time>
      </trkpt>
      <trkpt lat="45.07964" lon="6.1425">
        <ele>2086.8</ele>
        <time>2024-07-09T09:05:39Z</time>
      </trkpt>
      <trkpt lat="45.07964" lon="6.14249">
        <ele>2087</ele>
        <time>2024-07-09T09:05:40Z</time>
      </trkpt>
      <trkpt lat="45.07963" lon="6.14247">
        <ele>2087.5</ele>
        <time>2024-07-09T09:05:42Z</time>
      </trkpt>
      <trkpt lat="45.07962" lon="6.14246">
        <ele>2087.9</ele>
        <time>2024-07-09T09:05:44Z</time>
      </trkpt>
      <trkpt lat="45.07961" lon="6.14245">
        <ele>2088.2</ele>
        <time>2024-07-09T09:05:45Z</time>
      </trkpt>
      <trkpt lat="45.0796" lon="6.14244">
        <ele>2088.5</ele>
        <time>2024-07-09T09:05:46Z</time>
      </trkpt>
      <trkpt lat="45.07958" lon="6.14243">
        <ele>2089.1</ele>
        <time>2024-07-09T09:05:47Z</time>
      </trkpt>
      <trkpt lat="45.07958" lon="6.14243">
        <ele>2089.2</ele>
        <time>2024-07-09T09:05:49Z</time>
      </trkpt>
      <trkpt lat="45.07957" lon="6.14241">
        <ele>2089.7</ele>
        <time>2024-07-09T09:05:50Z</time>
      </trkpt>
      <trkpt lat="45.07956" lon="6.14241">
        <ele>2089.9</ele>
        <time>2024-07-09T09:05:52Z</time>
      </trkpt>
      <trkpt lat="45.07956" lon="6.1424">
        <ele>2090.1</ele>
        <time>2024-07-09T09:05:53Z</time>
      </trkpt>
      <trkpt lat="45.07955" lon="6.1424">
        <ele>2090.2</ele>
        <time>2024-07-09T09:05:54Z</time>
      </trkpt>
      <trkpt lat="45.07955" lon="6.1424">
        <ele>2090.4</ele>
        <time>2024-07-09T09:05:55Z</time>
      </trkpt>
      <trkpt lat="45.07954" lon="6.14239">
        <ele>2090.7</ele>
        <time>2024-07-09T09:05:56Z</time>
      </trkpt>
      <trkpt lat="45.07953" lon="6.14239">
        <ele>2090.9</ele>
        <time>2024-07-09T09:05:57Z</time>
      </trkpt>
      <trkpt lat="45.07953" lon="6.14238">
        <ele>2091.2</ele>
        <time>2024-07-09T09:05:58Z</time>
      </trkpt>
      <trkpt lat="45.07953" lon="6.14238">
        <ele>2091.3</ele>
        <time>2024-07-09T09:05:59Z</time>
      </trkpt>
      <trkpt lat="45.07952" lon="6.14237">
        <ele>2091.5</ele>
        <time>2024-07-09T09:06:00Z</time>
      </trkpt>
      <trkpt lat="45.07952" lon="6.14237">
        <ele>2091.8</ele>
        <time>2024-07-09T09:06:01Z</time>
      </trkpt>
      <trkpt lat="45.07952" lon="6.14235">
        <ele>2092.1</ele>
        <time>2024-07-09T09:06:02Z</time>
      </trkpt>
      <trkpt lat="45.07952" lon="6.14235">
        <ele>2092.3</ele>
        <time>2024-07-09T09:06:03Z</time>
      </trkpt>
      <trkpt lat="45.07952" lon="6.14234">
        <ele>2092.4</ele>
        <time>2024-07-09T09:06:04Z</time>
      </trkpt>
      <trkpt lat="45.07951" lon="6.14234">
        <ele>2092.6</ele>
        <time>2024-07-09T09:06:05Z</time>
      </trkpt>
      <trkpt lat="45.07951" lon="6.14233">
        <ele>2092.8</ele>
        <time>2024-07-09T09:06:06Z</time>
      </trkpt>
      <trkpt lat="45.0795" lon="6.14233">
        <ele>2093.1</ele>
        <time>2024-07-09T09:06:07Z</time>
      </trkpt>
      <trkpt lat="45.0795" lon="6.14233">
        <ele>2093.3</ele>
        <time>2024-07-09T09:06:08Z</time>
      </trkpt>
      <trkpt lat="45.0795" lon="6.14233">
        <ele>2093.3</ele>
        <time>2024-07-09T09:06:09Z</time>
      </trkpt>
      <trkpt lat="45.07949" lon="6.14233">
        <ele>2093.4</ele>
        <time>2024-07-09T09:06:10Z</time>
      </trkpt>
      <trkpt lat="45.07949" lon="6.14233">
        <ele>2093.6</ele>
        <time>2024-07-09T09:06:11Z</time>
      </trkpt>
      <trkpt lat="45.07949" lon="6.14233">
        <ele>2093.7</ele>
        <time>2024-07-09T09:06:12Z</time>
      </trkpt>
      <trkpt lat="45.07949" lon="6.14233">
        <ele>2093.7</ele>
        <time>2024-07-09T09:06:13Z</time>
      </trkpt>
      <trkpt lat="45.07948" lon="6.14233">
        <ele>2093.8</ele>
        <time>2024-07-09T09:06:14Z</time>
      </trkpt>
      <trkpt lat="45.07948" lon="6.14233">
        <ele>2093.9</ele>
        <time>2024-07-09T09:06:15Z</time>
      </trkpt>
      <trkpt lat="45.07948" lon="6.14232">
        <ele>2094</ele>
        <time>2024-07-09T09:06:16Z</time>
      </trkpt>
      <trkpt lat="45.07947" lon="6.14231">
        <ele>2094.7</ele>
        <time>2024-07-09T09:06:18Z</time>
      </trkpt>
      <trkpt lat="45.07946" lon="6.14231">
        <ele>2094.9</ele>
        <time>2024-07-09T09:06:19Z</time>
      </trkpt>
      <trkpt lat="45.07945" lon="6.14231">
        <ele>2095.2</ele>
        <time>2024-07-09T09:06:21Z</time>
      </trkpt>
      <trkpt lat="45.07945" lon="6.1423">
        <ele>2095.6</ele>
        <time>2024-07-09T09:06:22Z</time>
      </trkpt>
      <trkpt lat="45.07944" lon="6.1423">
        <ele>2095.8</ele>
        <time>2024-07-09T09:06:23Z</time>
      </trkpt>
      <trkpt lat="45.07943" lon="6.1423">
        <ele>2096.1</ele>
        <time>2024-07-09T09:06:24Z</time>
      </trkpt>
      <trkpt lat="45.07943" lon="6.1423">
        <ele>2096.3</ele>
        <time>2024-07-09T09:06:25Z</time>
      </trkpt>
      <trkpt lat="45.07942" lon="6.1423">
        <ele>2096.7</ele>
        <time>2024-07-09T09:06:26Z</time>
      </trkpt>
      <trkpt lat="45.07941" lon="6.1423">
        <ele>2097</ele>
        <time>2024-07-09T09:06:27Z</time>
      </trkpt>
      <trkpt lat="45.07941" lon="6.1423">
        <ele>2097.2</ele>
        <time>2024-07-09T09:06:28Z</time>
      </trkpt>
      <trkpt lat="45.07941" lon="6.1423">
        <ele>2097.3</ele>
        <time>2024-07-09T09:06:30Z</time>
      </trkpt>
      <trkpt lat="45.07941" lon="6.1423">
        <ele>2097.4</ele>
        <time>2024-07-09T09:06:31Z</time>
      </trkpt>
      <trkpt lat="45.07941" lon="6.14229">
        <ele>2097.5</ele>
        <time>2024-07-09T09:06:32Z</time>
      </trkpt>
      <trkpt lat="45.0794" lon="6.14229">
        <ele>2097.7</ele>
        <time>2024-07-09T09:06:33Z</time>
      </trkpt>
      <trkpt lat="45.0794" lon="6.14228">
        <ele>2098.1</ele>
        <time>2024-07-09T09:06:34Z</time>
      </trkpt>
      <trkpt lat="45.07939" lon="6.14227">
        <ele>2098.4</ele>
        <time>2024-07-09T09:06:35Z</time>
      </trkpt>
      <trkpt lat="45.07939" lon="6.14226">
        <ele>2098.7</ele>
        <time>2024-07-09T09:06:36Z</time>
      </trkpt>
      <trkpt lat="45.07939" lon="6.14225">
        <ele>2099</ele>
        <time>2024-07-09T09:06:37Z</time>
      </trkpt>
      <trkpt lat="45.07939" lon="6.14225">
        <ele>2099.1</ele>
        <time>2024-07-09T09:06:38Z</time>
      </trkpt>
      <trkpt lat="45.07938" lon="6.14225">
        <ele>2099.3</ele>
        <time>2024-07-09T09:06:39Z</time>
      </trkpt>
      <trkpt lat="45.07938" lon="6.14224">
        <ele>2099.8</ele>
        <time>2024-07-09T09:06:40Z</time>
      </trkpt>
      <trkpt lat="45.07937" lon="6.14223">
        <ele>2100</ele>
        <time>2024-07-09T09:06:41Z</time>
      </trkpt>
      <trkpt lat="45.07937" lon="6.14223">
        <ele>2100.1</ele>
        <time>2024-07-09T09:06:43Z</time>
      </trkpt>
      <trkpt lat="45.07936" lon="6.14222">
        <ele>2100.6</ele>
        <time>2024-07-09T09:06:44Z</time>
      </trkpt>
      <trkpt lat="45.07936" lon="6.14221">
        <ele>2100.8</ele>
        <time>2024-07-09T09:06:46Z</time>
      </trkpt>
      <trkpt lat="45.07935" lon="6.1422">
        <ele>2101.3</ele>
        <time>2024-07-09T09:06:47Z</time>
      </trkpt>
      <trkpt lat="45.07936" lon="6.1422">
        <ele>2101.3</ele>
        <time>2024-07-09T09:06:48Z</time>
      </trkpt>
      <trkpt lat="45.07936" lon="6.1422">
        <ele>2101.4</ele>
        <time>2024-07-09T09:06:49Z</time>
      </trkpt>
      <trkpt lat="45.07936" lon="6.1422">
        <ele>2101.6</ele>
        <time>2024-07-09T09:06:50Z</time>
      </trkpt>
      <trkpt lat="45.07936" lon="6.1422">
        <ele>2101.7</ele>
        <time>2024-07-09T09:06:51Z</time>
      </trkpt>
      <trkpt lat="45.07936" lon="6.14221">
        <ele>2101.7</ele>
        <time>2024-07-09T09:06:52Z</time>
      </trkpt>
      <trkpt lat="45.07936" lon="6.14221">
        <ele>2101.8</ele>
        <time>2024-07-09T09:06:53Z</time>
      </trkpt>
      <trkpt lat="45.07936" lon="6.14221">
        <ele>2101.8</ele>
        <time>2024-07-09T09:06:54Z</time>
      </trkpt>
      <trkpt lat="45.07936" lon="6.1422">
        <ele>2101.8</ele>
        <time>2024-07-09T09:06:55Z</time>
      </trkpt>
      <trkpt lat="45.07936" lon="6.1422">
        <ele>2102</ele>
        <time>2024-07-09T09:06:56Z</time>
      </trkpt>
      <trkpt lat="45.07936" lon="6.1422">
        <ele>2102.1</ele>
        <time>2024-07-09T09:06:57Z</time>
      </trkpt>
      <trkpt lat="45.07935" lon="6.1422">
        <ele>2102.3</ele>
        <time>2024-07-09T09:06:58Z</time>
      </trkpt>
      <trkpt lat="45.07935" lon="6.14219">
        <ele>2102.6</ele>
        <time>2024-07-09T09:06:59Z</time>
      </trkpt>
      <trkpt lat="45.07934" lon="6.14218">
        <ele>2102.9</ele>
        <time>2024-07-09T09:07:00Z</time>
      </trkpt>
      <trkpt lat="45.07933" lon="6.14217">
        <ele>2103.6</ele>
        <time>2024-07-09T09:07:01Z</time>
      </trkpt>
      <trkpt lat="45.07932" lon="6.14217">
        <ele>2103.9</ele>
        <time>2024-07-09T09:07:03Z</time>
      </trkpt>
      <trkpt lat="45.07932" lon="6.14217">
        <ele>2104.2</ele>
        <time>2024-07-09T09:07:04Z</time>
      </trkpt>
      <trkpt lat="45.07931" lon="6.14216">
        <ele>2104.3</ele>
        <time>2024-07-09T09:07:05Z</time>
      </trkpt>
      <trkpt lat="45.07931" lon="6.14217">
        <ele>2104.5</ele>
        <time>2024-07-09T09:07:06Z</time>
      </trkpt>
      <trkpt lat="45.0793" lon="6.14217">
        <ele>2104.7</ele>
        <time>2024-07-09T09:07:07Z</time>
      </trkpt>
      <trkpt lat="45.0793" lon="6.14217">
        <ele>2104.9</ele>
        <time>2024-07-09T09:07:08Z</time>
      </trkpt>
      <trkpt lat="45.07929" lon="6.14216">
        <ele>2105.6</ele>
        <time>2024-07-09T09:07:09Z</time>
      </trkpt>
      <trkpt lat="45.07928" lon="6.14216">
        <ele>2105.9</ele>
        <time>2024-07-09T09:07:10Z</time>
      </trkpt>
      <trkpt lat="45.07928" lon="6.14215">
        <ele>2106.1</ele>
        <time>2024-07-09T09:07:11Z</time>
      </trkpt>
      <trkpt lat="45.07927" lon="6.14215">
        <ele>2106.2</ele>
        <time>2024-07-09T09:07:13Z</time>
      </trkpt>
      <trkpt lat="45.07927" lon="6.14215">
        <ele>2106.2</ele>
        <time>2024-07-09T09:07:14Z</time>
      </trkpt>
      <trkpt lat="45.07927" lon="6.14215">
        <ele>2106.4</ele>
        <time>2024-07-09T09:07:15Z</time>
      </trkpt>
      <trkpt lat="45.07926" lon="6.14215">
        <ele>2106.6</ele>
        <time>2024-07-09T09:07:16Z</time>
      </trkpt>
      <trkpt lat="45.07926" lon="6.14216">
        <ele>2106.7</ele>
        <time>2024-07-09T09:07:17Z</time>
      </trkpt>
      <trkpt lat="45.07926" lon="6.14216">
        <ele>2106.8</ele>
        <time>2024-07-09T09:07:18Z</time>
      </trkpt>
      <trkpt lat="45.07926" lon="6.14216">
        <ele>2106.9</ele>
        <time>2024-07-09T09:07:19Z</time>
      </trkpt>
      <trkpt lat="45.07925" lon="6.14216">
        <ele>2107</ele>
        <time>2024-07-09T09:07:20Z</time>
      </trkpt>
      <trkpt lat="45.07925" lon="6.14216">
        <ele>2107.1</ele>
        <time>2024-07-09T09:07:21Z</time>
      </trkpt>
      <trkpt lat="45.07925" lon="6.14216">
        <ele>2107.2</ele>
        <time>2024-07-09T09:07:22Z</time>
      </trkpt>
      <trkpt lat="45.07924" lon="6.14215">
        <ele>2107.6</ele>
        <time>2024-07-09T09:07:23Z</time>
      </trkpt>
      <trkpt lat="45.07924" lon="6.14215">
        <ele>2107.7</ele>
        <time>2024-07-09T09:07:24Z</time>
      </trkpt>
      <trkpt lat="45.07924" lon="6.14215">
        <ele>2107.8</ele>
        <time>2024-07-09T09:07:25Z</time>
      </trkpt>
      <trkpt lat="45.07924" lon="6.14215">
        <ele>2107.9</ele>
        <time>2024-07-09T09:07:27Z</time>
      </trkpt>
      <trkpt lat="45.07924" lon="6.14214">
        <ele>2108.1</ele>
        <time>2024-07-09T09:07:28Z</time>
      </trkpt>
      <trkpt lat="45.07923" lon="6.14214">
        <ele>2108.3</ele>
        <time>2024-07-09T09:07:29Z</time>
      </trkpt>
      <trkpt lat="45.07923" lon="6.14213">
        <ele>2108.6</ele>
        <time>2024-07-09T09:07:30Z</time>
      </trkpt>
      <trkpt lat="45.07922" lon="6.14212">
        <ele>2108.8</ele>
        <time>2024-07-09T09:07:31Z</time>
      </trkpt>
      <trkpt lat="45.07922" lon="6.14213">
        <ele>2108.9</ele>
        <time>2024-07-09T09:07:32Z</time>
      </trkpt>
      <trkpt lat="45.07922" lon="6.14212">
        <ele>2109.1</ele>
        <time>2024-07-09T09:07:33Z</time>
      </trkpt>
      <trkpt lat="45.07922" lon="6.14212">
        <ele>2109.2</ele>
        <time>2024-07-09T09:07:34Z</time>
      </trkpt>
      <trkpt lat="45.07922" lon="6.14212">
        <ele>2109.3</ele>
        <time>2024-07-09T09:07:35Z</time>
      </trkpt>
      <trkpt lat="45.07921" lon="6.14212">
        <ele>2109.4</ele>
        <time>2024-07-09T09:07:36Z</time>
      </trkpt>
      <trkpt lat="45.07921" lon="6.14212">
        <ele>2109.5</ele>
        <time>2024-07-09T09:07:37Z</time>
      </trkpt>
      <trkpt lat="45.07921" lon="6.14211">
        <ele>2109.7</ele>
        <time>2024-07-09T09:07:38Z</time>
      </trkpt>
      <trkpt lat="45.07921" lon="6.14211">
        <ele>2109.9</ele>
        <time>2024-07-09T09:07:39Z</time>
      </trkpt>
      <trkpt lat="45.07921" lon="6.1421">
        <ele>2110.1</ele>
        <time>2024-07-09T09:07:40Z</time>
      </trkpt>
      <trkpt lat="45.0792" lon="6.14209">
        <ele>2110.5</ele>
        <time>2024-07-09T09:07:41Z</time>
      </trkpt>
      <trkpt lat="45.0792" lon="6.14209">
        <ele>2110.6</ele>
        <time>2024-07-09T09:07:42Z</time>
      </trkpt>
      <trkpt lat="45.0792" lon="6.14208">
        <ele>2110.9</ele>
        <time>2024-07-09T09:07:43Z</time>
      </trkpt>
      <trkpt lat="45.07919" lon="6.14208">
        <ele>2111.1</ele>
        <time>2024-07-09T09:07:44Z</time>
      </trkpt>
      <trkpt lat="45.07918" lon="6.14208">
        <ele>2111.3</ele>
        <time>2024-07-09T09:07:45Z</time>
      </trkpt>
      <trkpt lat="45.07918" lon="6.14207">
        <ele>2111.6</ele>
        <time>2024-07-09T09:07:46Z</time>
      </trkpt>
      <trkpt lat="45.07918" lon="6.14207">
        <ele>2111.8</ele>
        <time>2024-07-09T09:07:47Z</time>
      </trkpt>
      <trkpt lat="45.07917" lon="6.14207">
        <ele>2111.9</ele>
        <time>2024-07-09T09:07:48Z</time>
      </trkpt>
      <trkpt lat="45.07917" lon="6.14207">
        <ele>2112</ele>
        <time>2024-07-09T09:07:49Z</time>
      </trkpt>
      <trkpt lat="45.07917" lon="6.14207">
        <ele>2112</ele>
        <time>2024-07-09T09:07:50Z</time>
      </trkpt>
      <trkpt lat="45.07917" lon="6.14207">
        <ele>2112.1</ele>
        <time>2024-07-09T09:07:51Z</time>
      </trkpt>
      <trkpt lat="45.07917" lon="6.14206">
        <ele>2112.2</ele>
        <time>2024-07-09T09:07:52Z</time>
      </trkpt>
      <trkpt lat="45.07916" lon="6.14206">
        <ele>2112.4</ele>
        <time>2024-07-09T09:07:53Z</time>
      </trkpt>
      <trkpt lat="45.07916" lon="6.14207">
        <ele>2112.5</ele>
        <time>2024-07-09T09:07:54Z</time>
      </trkpt>
      <trkpt lat="45.07916" lon="6.14207">
        <ele>2112.6</ele>
        <time>2024-07-09T09:07:55Z</time>
      </trkpt>
      <trkpt lat="45.07916" lon="6.14206">
        <ele>2112.7</ele>
        <time>2024-07-09T09:07:56Z</time>
      </trkpt>
      <trkpt lat="45.07916" lon="6.14206">
        <ele>2112.8</ele>
        <time>2024-07-09T09:07:57Z</time>
      </trkpt>
      <trkpt lat="45.07915" lon="6.14206">
        <ele>2113</ele>
        <time>2024-07-09T09:07:58Z</time>
      </trkpt>
      <trkpt lat="45.07915" lon="6.14205">
        <ele>2113.1</ele>
        <time>2024-07-09T09:07:59Z</time>
      </trkpt>
      <trkpt lat="45.07915" lon="6.14205">
        <ele>2113.3</ele>
        <time>2024-07-09T09:08:00Z</time>
      </trkpt>
      <trkpt lat="45.07915" lon="6.14204">
        <ele>2113.6</ele>
        <time>2024-07-09T09:08:01Z</time>
      </trkpt>
      <trkpt lat="45.07914" lon="6.14203">
        <ele>2114</ele>
        <time>2024-07-09T09:08:02Z</time>
      </trkpt>
      <trkpt lat="45.07914" lon="6.14202">
        <ele>2114.2</ele>
        <time>2024-07-09T09:08:03Z</time>
      </trkpt>
      <trkpt lat="45.07913" lon="6.14202">
        <ele>2114.4</ele>
        <time>2024-07-09T09:08:04Z</time>
      </trkpt>
      <trkpt lat="45.07913" lon="6.14201">
        <ele>2114.7</ele>
        <time>2024-07-09T09:08:05Z</time>
      </trkpt>
      <trkpt lat="45.07913" lon="6.14201">
        <ele>2114.9</ele>
        <time>2024-07-09T09:08:06Z</time>
      </trkpt>
      <trkpt lat="45.07912" lon="6.142">
        <ele>2115.1</ele>
        <time>2024-07-09T09:08:07Z</time>
      </trkpt>
      <trkpt lat="45.07911" lon="6.14201">
        <ele>2115.6</ele>
        <time>2024-07-09T09:08:08Z</time>
      </trkpt>
      <trkpt lat="45.07911" lon="6.14202">
        <ele>2115.9</ele>
        <time>2024-07-09T09:08:09Z</time>
      </trkpt>
      <trkpt lat="45.07911" lon="6.14203">
        <ele>2116.3</ele>
        <time>2024-07-09T09:08:10Z</time>
      </trkpt>
      <trkpt lat="45.0791" lon="6.14205">
        <ele>2116.9</ele>
        <time>2024-07-09T09:08:11Z</time>
      </trkpt>
      <trkpt lat="45.0791" lon="6.14205">
        <ele>2117</ele>
        <time>2024-07-09T09:08:12Z</time>
      </trkpt>
      <trkpt lat="45.07909" lon="6.14205">
        <ele>2117.4</ele>
        <time>2024-07-09T09:08:13Z</time>
      </trkpt>
      <trkpt lat="45.07909" lon="6.14204">
        <ele>2117.5</ele>
        <time>2024-07-09T09:08:15Z</time>
      </trkpt>
      <trkpt lat="45.07908" lon="6.14204">
        <ele>2117.7</ele>
        <time>2024-07-09T09:08:16Z</time>
      </trkpt>
      <trkpt lat="45.07909" lon="6.14204">
        <ele>2118</ele>
        <time>2024-07-09T09:08:17Z</time>
      </trkpt>
      <trkpt lat="45.07909" lon="6.14203">
        <ele>2118.2</ele>
        <time>2024-07-09T09:08:18Z</time>
      </trkpt>
      <trkpt lat="45.07909" lon="6.14203">
        <ele>2118.2</ele>
        <time>2024-07-09T09:08:19Z</time>
      </trkpt>
      <trkpt lat="45.07909" lon="6.14203">
        <ele>2118.4</ele>
        <time>2024-07-09T09:08:20Z</time>
      </trkpt>
      <trkpt lat="45.07908" lon="6.14202">
        <ele>2118.6</ele>
        <time>2024-07-09T09:08:21Z</time>
      </trkpt>
      <trkpt lat="45.07908" lon="6.14202">
        <ele>2118.8</ele>
        <time>2024-07-09T09:08:22Z</time>
      </trkpt>
      <trkpt lat="45.07908" lon="6.14202">
        <ele>2119</ele>
        <time>2024-07-09T09:08:23Z</time>
      </trkpt>
      <trkpt lat="45.07907" lon="6.14201">
        <ele>2119.2</ele>
        <time>2024-07-09T09:08:24Z</time>
      </trkpt>
      <trkpt lat="45.07907" lon="6.14201">
        <ele>2119.2</ele>
        <time>2024-07-09T09:08:25Z</time>
      </trkpt>
      <trkpt lat="45.07907" lon="6.14201">
        <ele>2119.3</ele>
        <time>2024-07-09T09:08:26Z</time>
      </trkpt>
      <trkpt lat="45.07907" lon="6.14201">
        <ele>2119.4</ele>
        <time>2024-07-09T09:08:28Z</time>
      </trkpt>
      <trkpt lat="45.07906" lon="6.142">
        <ele>2119.6</ele>
        <time>2024-07-09T09:08:29Z</time>
      </trkpt>
      <trkpt lat="45.07905" lon="6.142">
        <ele>2119.9</ele>
        <time>2024-07-09T09:08:30Z</time>
      </trkpt>
      <trkpt lat="45.07904" lon="6.14199">
        <ele>2120.3</ele>
        <time>2024-07-09T09:08:31Z</time>
      </trkpt>
      <trkpt lat="45.07903" lon="6.14199">
        <ele>2120.6</ele>
        <time>2024-07-09T09:08:32Z</time>
      </trkpt>
      <trkpt lat="45.07903" lon="6.14198">
        <ele>2120.8</ele>
        <time>2024-07-09T09:08:33Z</time>
      </trkpt>
      <trkpt lat="45.07902" lon="6.14198">
        <ele>2121</ele>
        <time>2024-07-09T09:08:34Z</time>
      </trkpt>
      <trkpt lat="45.07901" lon="6.14198">
        <ele>2121.2</ele>
        <time>2024-07-09T09:08:35Z</time>
      </trkpt>
      <trkpt lat="45.07901" lon="6.14197">
        <ele>2121.4</ele>
        <time>2024-07-09T09:08:36Z</time>
      </trkpt>
      <trkpt lat="45.079" lon="6.14197">
        <ele>2121.6</ele>
        <time>2024-07-09T09:08:37Z</time>
      </trkpt>
      <trkpt lat="45.079" lon="6.14197">
        <ele>2121.7</ele>
        <time>2024-07-09T09:08:38Z</time>
      </trkpt>
      <trkpt lat="45.079" lon="6.14197">
        <ele>2121.7</ele>
        <time>2024-07-09T09:08:39Z</time>
      </trkpt>
      <trkpt lat="45.079" lon="6.14197">
        <ele>2121.7</ele>
        <time>2024-07-09T09:08:40Z</time>
      </trkpt>
      <trkpt lat="45.07901" lon="6.14196">
        <ele>2121.9</ele>
        <time>2024-07-09T09:08:41Z</time>
      </trkpt>
      <trkpt lat="45.07901" lon="6.14196">
        <ele>2122</ele>
        <time>2024-07-09T09:08:42Z</time>
      </trkpt>
      <trkpt lat="45.07901" lon="6.14196">
        <ele>2122.1</ele>
        <time>2024-07-09T09:08:43Z</time>
      </trkpt>
      <trkpt lat="45.079" lon="6.14196">
        <ele>2122.2</ele>
        <time>2024-07-09T09:08:44Z</time>
      </trkpt>
      <trkpt lat="45.079" lon="6.14195">
        <ele>2122.3</ele>
        <time>2024-07-09T09:08:45Z</time>
      </trkpt>
      <trkpt lat="45.079" lon="6.14195">
        <ele>2122.4</ele>
        <time>2024-07-09T09:08:46Z</time>
      </trkpt>
      <trkpt lat="45.07899" lon="6.14194">
        <ele>2122.6</ele>
        <time>2024-07-09T09:08:47Z</time>
      </trkpt>
      <trkpt lat="45.07899" lon="6.14194">
        <ele>2122.7</ele>
        <time>2024-07-09T09:08:49Z</time>
      </trkpt>
      <trkpt lat="45.07898" lon="6.14194">
        <ele>2122.9</ele>
        <time>2024-07-09T09:08:50Z</time>
      </trkpt>
      <trkpt lat="45.07898" lon="6.14193">
        <ele>2123.1</ele>
        <time>2024-07-09T09:08:51Z</time>
      </trkpt>
      <trkpt lat="45.07897" lon="6.14193">
        <ele>2123.3</ele>
        <time>2024-07-09T09:08:52Z</time>
      </trkpt>
      <trkpt lat="45.07897" lon="6.14193">
        <ele>2123.5</ele>
        <time>2024-07-09T09:08:53Z</time>
      </trkpt>
      <trkpt lat="45.07896" lon="6.14193">
        <ele>2123.6</ele>
        <time>2024-07-09T09:08:54Z</time>
      </trkpt>
      <trkpt lat="45.07896" lon="6.14192">
        <ele>2123.8</ele>
        <time>2024-07-09T09:08:55Z</time>
      </trkpt>
      <trkpt lat="45.07896" lon="6.14192">
        <ele>2123.9</ele>
        <time>2024-07-09T09:08:56Z</time>
      </trkpt>
      <trkpt lat="45.07896" lon="6.14192">
        <ele>2123.9</ele>
        <time>2024-07-09T09:08:57Z</time>
      </trkpt>
      <trkpt lat="45.07896" lon="6.14193">
        <ele>2124.1</ele>
        <time>2024-07-09T09:08:58Z</time>
      </trkpt>
      <trkpt lat="45.07896" lon="6.14193">
        <ele>2124.2</ele>
        <time>2024-07-09T09:08:59Z</time>
      </trkpt>
      <trkpt lat="45.07896" lon="6.14193">
        <ele>2124.2</ele>
        <time>2024-07-09T09:09:00Z</time>
      </trkpt>
      <trkpt lat="45.07896" lon="6.14193">
        <ele>2124.2</ele>
        <time>2024-07-09T09:09:01Z</time>
      </trkpt>
      <trkpt lat="45.07896" lon="6.14193">
        <ele>2124.3</ele>
        <time>2024-07-09T09:09:02Z</time>
      </trkpt>
      <trkpt lat="45.07895" lon="6.14192">
        <ele>2124.7</ele>
        <time>2024-07-09T09:09:04Z</time>
      </trkpt>
      <trkpt lat="45.07894" lon="6.14191">
        <ele>2125.2</ele>
        <time>2024-07-09T09:09:06Z</time>
      </trkpt>
      <trkpt lat="45.07893" lon="6.1419">
        <ele>2125.5</ele>
        <time>2024-07-09T09:09:07Z</time>
      </trkpt>
      <trkpt lat="45.07893" lon="6.14189">
        <ele>2125.7</ele>
        <time>2024-07-09T09:09:08Z</time>
      </trkpt>
      <trkpt lat="45.07892" lon="6.14189">
        <ele>2125.9</ele>
        <time>2024-07-09T09:09:10Z</time>
      </trkpt>
      <trkpt lat="45.07892" lon="6.14187">
        <ele>2126.1</ele>
        <time>2024-07-09T09:09:11Z</time>
      </trkpt>
      <trkpt lat="45.07892" lon="6.14187">
        <ele>2126.3</ele>
        <time>2024-07-09T09:09:12Z</time>
      </trkpt>
      <trkpt lat="45.07891" lon="6.14187">
        <ele>2126.7</ele>
        <time>2024-07-09T09:09:13Z</time>
      </trkpt>
      <trkpt lat="45.0789" lon="6.14188">
        <ele>2127.1</ele>
        <time>2024-07-09T09:09:15Z</time>
      </trkpt>
      <trkpt lat="45.07889" lon="6.14188">
        <ele>2127.3</ele>
        <time>2024-07-09T09:09:16Z</time>
      </trkpt>
      <trkpt lat="45.07889" lon="6.14188">
        <ele>2127.5</ele>
        <time>2024-07-09T09:09:18Z</time>
      </trkpt>
      <trkpt lat="45.07888" lon="6.14188">
        <ele>2127.8</ele>
        <time>2024-07-09T09:09:19Z</time>
      </trkpt>
      <trkpt lat="45.07887" lon="6.14188">
        <ele>2128</ele>
        <time>2024-07-09T09:09:21Z</time>
      </trkpt>
      <trkpt lat="45.07887" lon="6.14188">
        <ele>2128.1</ele>
        <time>2024-07-09T09:09:23Z</time>
      </trkpt>
      <trkpt lat="45.07887" lon="6.14188">
        <ele>2128.1</ele>
        <time>2024-07-09T09:09:24Z</time>
      </trkpt>
      <trkpt lat="45.07887" lon="6.14188">
        <ele>2128.2</ele>
        <time>2024-07-09T09:09:25Z</time>
      </trkpt>
      <trkpt lat="45.07887" lon="6.14188">
        <ele>2128.3</ele>
        <time>2024-07-09T09:09:26Z</time>
      </trkpt>
      <trkpt lat="45.07887" lon="6.14188">
        <ele>2128.3</ele>
        <time>2024-07-09T09:09:27Z</time>
      </trkpt>
      <trkpt lat="45.07886" lon="6.14189">
        <ele>2128.6</ele>
        <time>2024-07-09T09:09:29Z</time>
      </trkpt>
      <trkpt lat="45.07885" lon="6.14189">
        <ele>2128.9</ele>
        <time>2024-07-09T09:09:30Z</time>
      </trkpt>
      <trkpt lat="45.07885" lon="6.14189">
        <ele>2129.1</ele>
        <time>2024-07-09T09:09:32Z</time>
      </trkpt>
      <trkpt lat="45.07884" lon="6.14189">
        <ele>2129.3</ele>
        <time>2024-07-09T09:09:33Z</time>
      </trkpt>
      <trkpt lat="45.07884" lon="6.14188">
        <ele>2129.4</ele>
        <time>2024-07-09T09:09:34Z</time>
      </trkpt>
      <trkpt lat="45.07884" lon="6.14188">
        <ele>2129.6</ele>
        <time>2024-07-09T09:09:35Z</time>
      </trkpt>
      <trkpt lat="45.07883" lon="6.14188">
        <ele>2129.7</ele>
        <time>2024-07-09T09:09:36Z</time>
      </trkpt>
      <trkpt lat="45.07883" lon="6.14187">
        <ele>2129.9</ele>
        <time>2024-07-09T09:09:37Z</time>
      </trkpt>
      <trkpt lat="45.07882" lon="6.14187">
        <ele>2130.2</ele>
        <time>2024-07-09T09:09:38Z</time>
      </trkpt>
      <trkpt lat="45.07883" lon="6.14186">
        <ele>2130.3</ele>
        <time>2024-07-09T09:09:39Z</time>
      </trkpt>
      <trkpt lat="45.07882" lon="6.14186">
        <ele>2130.4</ele>
        <time>2024-07-09T09:09:40Z</time>
      </trkpt>
      <trkpt lat="45.07882" lon="6.14186">
        <ele>2130.6</ele>
        <time>2024-07-09T09:09:42Z</time>
      </trkpt>
      <trkpt lat="45.07882" lon="6.14185">
        <ele>2130.7</ele>
        <time>2024-07-09T09:09:43Z</time>
      </trkpt>
      <trkpt lat="45.07882" lon="6.14185">
        <ele>2130.7</ele>
        <time>2024-07-09T09:09:44Z</time>
      </trkpt>
      <trkpt lat="45.07881" lon="6.14185">
        <ele>2130.8</ele>
        <time>2024-07-09T09:09:46Z</time>
      </trkpt>
      <trkpt lat="45.07881" lon="6.14185">
        <ele>2130.9</ele>
        <time>2024-07-09T09:09:47Z</time>
      </trkpt>
      <trkpt lat="45.07881" lon="6.14185">
        <ele>2131</ele>
        <time>2024-07-09T09:09:48Z</time>
      </trkpt>
      <trkpt lat="45.07881" lon="6.14185">
        <ele>2131.1</ele>
        <time>2024-07-09T09:09:49Z</time>
      </trkpt>
      <trkpt lat="45.0788" lon="6.14185">
        <ele>2131.2</ele>
        <time>2024-07-09T09:09:50Z</time>
      </trkpt>
      <trkpt lat="45.0788" lon="6.14185">
        <ele>2131.3</ele>
        <time>2024-07-09T09:09:51Z</time>
      </trkpt>
      <trkpt lat="45.0788" lon="6.14185">
        <ele>2131.5</ele>
        <time>2024-07-09T09:09:52Z</time>
      </trkpt>
      <trkpt lat="45.07879" lon="6.14184">
        <ele>2131.7</ele>
        <time>2024-07-09T09:09:53Z</time>
      </trkpt>
      <trkpt lat="45.07879" lon="6.14184">
        <ele>2131.8</ele>
        <time>2024-07-09T09:09:54Z</time>
      </trkpt>
      <trkpt lat="45.07878" lon="6.14184">
        <ele>2132</ele>
        <time>2024-07-09T09:09:55Z</time>
      </trkpt>
      <trkpt lat="45.07878" lon="6.14184">
        <ele>2132.1</ele>
        <time>2024-07-09T09:09:56Z</time>
      </trkpt>
      <trkpt lat="45.07878" lon="6.14184">
        <ele>2132.1</ele>
        <time>2024-07-09T09:09:57Z</time>
      </trkpt>
      <trkpt lat="45.07878" lon="6.14183">
        <ele>2132.3</ele>
        <time>2024-07-09T09:09:58Z</time>
      </trkpt>
      <trkpt lat="45.07877" lon="6.14183">
        <ele>2132.4</ele>
        <time>2024-07-09T09:09:59Z</time>
      </trkpt>
      <trkpt lat="45.07877" lon="6.14183">
        <ele>2132.5</ele>
        <time>2024-07-09T09:10:00Z</time>
      </trkpt>
      <trkpt lat="45.07877" lon="6.14182">
        <ele>2132.6</ele>
        <time>2024-07-09T09:10:01Z</time>
      </trkpt>
      <trkpt lat="45.07876" lon="6.14181">
        <ele>2132.9</ele>
        <time>2024-07-09T09:10:02Z</time>
      </trkpt>
      <trkpt lat="45.07876" lon="6.14181">
        <ele>2133.1</ele>
        <time>2024-07-09T09:10:04Z</time>
      </trkpt>
      <trkpt lat="45.07875" lon="6.14181">
        <ele>2133.3</ele>
        <time>2024-07-09T09:10:05Z</time>
      </trkpt>
      <trkpt lat="45.07875" lon="6.1418">
        <ele>2133.5</ele>
        <time>2024-07-09T09:10:06Z</time>
      </trkpt>
      <trkpt lat="45.07875" lon="6.1418">
        <ele>2133.6</ele>
        <time>2024-07-09T09:10:07Z</time>
      </trkpt>
      <trkpt lat="45.07874" lon="6.14179">
        <ele>2133.8</ele>
        <time>2024-07-09T09:10:08Z</time>
      </trkpt>
      <trkpt lat="45.07874" lon="6.14179">
        <ele>2133.9</ele>
        <time>2024-07-09T09:10:09Z</time>
      </trkpt>
      <trkpt lat="45.07874" lon="6.14179">
        <ele>2134</ele>
        <time>2024-07-09T09:10:10Z</time>
      </trkpt>
      <trkpt lat="45.07874" lon="6.14178">
        <ele>2134.1</ele>
        <time>2024-07-09T09:10:11Z</time>
      </trkpt>
      <trkpt lat="45.07873" lon="6.14178">
        <ele>2134.2</ele>
        <time>2024-07-09T09:10:12Z</time>
      </trkpt>
      <trkpt lat="45.07873" lon="6.14178">
        <ele>2134.3</ele>
        <time>2024-07-09T09:10:13Z</time>
      </trkpt>
      <trkpt lat="45.07873" lon="6.14177">
        <ele>2134.5</ele>
        <time>2024-07-09T09:10:14Z</time>
      </trkpt>
      <trkpt lat="45.07872" lon="6.14177">
        <ele>2134.8</ele>
        <time>2024-07-09T09:10:15Z</time>
      </trkpt>
      <trkpt lat="45.07871" lon="6.14176">
        <ele>2134.9</ele>
        <time>2024-07-09T09:10:17Z</time>
      </trkpt>
      <trkpt lat="45.07871" lon="6.14175">
        <ele>2135.2</ele>
        <time>2024-07-09T09:10:18Z</time>
      </trkpt>
      <trkpt lat="45.0787" lon="6.14174">
        <ele>2135.5</ele>
        <time>2024-07-09T09:10:19Z</time>
      </trkpt>
      <trkpt lat="45.0787" lon="6.14173">
        <ele>2135.6</ele>
        <time>2024-07-09T09:10:20Z</time>
      </trkpt>
      <trkpt lat="45.0787" lon="6.14174">
        <ele>2135.7</ele>
        <time>2024-07-09T09:10:21Z</time>
      </trkpt>
      <trkpt lat="45.0787" lon="6.14174">
        <ele>2135.8</ele>
        <time>2024-07-09T09:10:23Z</time>
      </trkpt>
      <trkpt lat="45.0787" lon="6.14174">
        <ele>2135.8</ele>
        <time>2024-07-09T09:10:24Z</time>
      </trkpt>
      <trkpt lat="45.0787" lon="6.14174">
        <ele>2135.9</ele>
        <time>2024-07-09T09:10:25Z</time>
      </trkpt>
      <trkpt lat="45.07869" lon="6.14175">
        <ele>2136</ele>
        <time>2024-07-09T09:10:26Z</time>
      </trkpt>
      <trkpt lat="45.07869" lon="6.14175">
        <ele>2136.1</ele>
        <time>2024-07-09T09:10:27Z</time>
      </trkpt>
      <trkpt lat="45.07868" lon="6.14175">
        <ele>2136.4</ele>
        <time>2024-07-09T09:10:28Z</time>
      </trkpt>
      <trkpt lat="45.07867" lon="6.14176">
        <ele>2136.8</ele>
        <time>2024-07-09T09:10:29Z</time>
      </trkpt>
      <trkpt lat="45.07865" lon="6.14176">
        <ele>2137.2</ele>
        <time>2024-07-09T09:10:31Z</time>
      </trkpt>
      <trkpt lat="45.07864" lon="6.14176">
        <ele>2137.4</ele>
        <time>2024-07-09T09:10:33Z</time>
      </trkpt>
      <trkpt lat="45.07863" lon="6.14177">
        <ele>2137.7</ele>
        <time>2024-07-09T09:10:34Z</time>
      </trkpt>
      <trkpt lat="45.07863" lon="6.14177">
        <ele>2137.8</ele>
        <time>2024-07-09T09:10:35Z</time>
      </trkpt>
      <trkpt lat="45.07863" lon="6.14177">
        <ele>2137.8</ele>
        <time>2024-07-09T09:10:36Z</time>
      </trkpt>
      <trkpt lat="45.07863" lon="6.14178">
        <ele>2137.9</ele>
        <time>2024-07-09T09:10:38Z</time>
      </trkpt>
      <trkpt lat="45.07863" lon="6.14178">
        <ele>2138</ele>
        <time>2024-07-09T09:10:39Z</time>
      </trkpt>
      <trkpt lat="45.07863" lon="6.14178">
        <ele>2138.1</ele>
        <time>2024-07-09T09:10:40Z</time>
      </trkpt>
      <trkpt lat="45.07863" lon="6.14179">
        <ele>2138.1</ele>
        <time>2024-07-09T09:10:42Z</time>
      </trkpt>
      <trkpt lat="45.07863" lon="6.14179">
        <ele>2138.2</ele>
        <time>2024-07-09T09:10:43Z</time>
      </trkpt>
      <trkpt lat="45.07863" lon="6.14179">
        <ele>2138.2</ele>
        <time>2024-07-09T09:10:44Z</time>
      </trkpt>
      <trkpt lat="45.07862" lon="6.14179">
        <ele>2138.3</ele>
        <time>2024-07-09T09:10:46Z</time>
      </trkpt>
      <trkpt lat="45.07862" lon="6.14179">
        <ele>2138.4</ele>
        <time>2024-07-09T09:10:47Z</time>
      </trkpt>
      <trkpt lat="45.07862" lon="6.1418">
        <ele>2138.4</ele>
        <time>2024-07-09T09:10:48Z</time>
      </trkpt>
      <trkpt lat="45.07861" lon="6.1418">
        <ele>2138.6</ele>
        <time>2024-07-09T09:10:49Z</time>
      </trkpt>
      <trkpt lat="45.07861" lon="6.1418">
        <ele>2138.7</ele>
        <time>2024-07-09T09:10:50Z</time>
      </trkpt>
      <trkpt lat="45.07861" lon="6.1418">
        <ele>2138.8</ele>
        <time>2024-07-09T09:10:52Z</time>
      </trkpt>
      <trkpt lat="45.0786" lon="6.1418">
        <ele>2138.8</ele>
        <time>2024-07-09T09:10:53Z</time>
      </trkpt>
      <trkpt lat="45.0786" lon="6.1418">
        <ele>2138.9</ele>
        <time>2024-07-09T09:10:54Z</time>
      </trkpt>
      <trkpt lat="45.0786" lon="6.1418">
        <ele>2139</ele>
        <time>2024-07-09T09:10:55Z</time>
      </trkpt>
      <trkpt lat="45.07859" lon="6.1418">
        <ele>2139.2</ele>
        <time>2024-07-09T09:10:56Z</time>
      </trkpt>
      <trkpt lat="45.07859" lon="6.1418">
        <ele>2139.3</ele>
        <time>2024-07-09T09:10:57Z</time>
      </trkpt>
      <trkpt lat="45.07858" lon="6.1418">
        <ele>2139.5</ele>
        <time>2024-07-09T09:10:58Z</time>
      </trkpt>
      <trkpt lat="45.07857" lon="6.1418">
        <ele>2139.6</ele>
        <time>2024-07-09T09:10:59Z</time>
      </trkpt>
      <trkpt lat="45.07856" lon="6.1418">
        <ele>2139.9</ele>
        <time>2024-07-09T09:11:00Z</time>
      </trkpt>
      <trkpt lat="45.07856" lon="6.14179">
        <ele>2140</ele>
        <time>2024-07-09T09:11:02Z</time>
      </trkpt>
      <trkpt lat="45.07855" lon="6.14178">
        <ele>2140.2</ele>
        <time>2024-07-09T09:11:03Z</time>
      </trkpt>
      <trkpt lat="45.07855" lon="6.14179">
        <ele>2140.4</ele>
        <time>2024-07-09T09:11:04Z</time>
      </trkpt>
      <trkpt lat="45.07854" lon="6.14179">
        <ele>2140.5</ele>
        <time>2024-07-09T09:11:06Z</time>
      </trkpt>
      <trkpt lat="45.07854" lon="6.1418">
        <ele>2140.6</ele>
        <time>2024-07-09T09:11:07Z</time>
      </trkpt>
      <trkpt lat="45.07854" lon="6.14181">
        <ele>2140.8</ele>
        <time>2024-07-09T09:11:08Z</time>
      </trkpt>
      <trkpt lat="45.07854" lon="6.14181">
        <ele>2140.8</ele>
        <time>2024-07-09T09:11:09Z</time>
      </trkpt>
      <trkpt lat="45.07854" lon="6.14181">
        <ele>2140.9</ele>
        <time>2024-07-09T09:11:10Z</time>
      </trkpt>
      <trkpt lat="45.07854" lon="6.14182">
        <ele>2141</ele>
        <time>2024-07-09T09:11:11Z</time>
      </trkpt>
      <trkpt lat="45.07855" lon="6.14182">
        <ele>2141.1</ele>
        <time>2024-07-09T09:11:12Z</time>
      </trkpt>
      <trkpt lat="45.07855" lon="6.14182">
        <ele>2141.2</ele>
        <time>2024-07-09T09:11:13Z</time>
      </trkpt>
      <trkpt lat="45.07855" lon="6.14182">
        <ele>2141.3</ele>
        <time>2024-07-09T09:11:14Z</time>
      </trkpt>
      <trkpt lat="45.07855" lon="6.14182">
        <ele>2141.3</ele>
        <time>2024-07-09T09:11:15Z</time>
      </trkpt>
      <trkpt lat="45.07855" lon="6.14182">
        <ele>2141.3</ele>
        <time>2024-07-09T09:11:16Z</time>
      </trkpt>
      <trkpt lat="45.07856" lon="6.14182">
        <ele>2141.4</ele>
        <time>2024-07-09T09:11:17Z</time>
      </trkpt>
      <trkpt lat="45.07856" lon="6.14181">
        <ele>2141.5</ele>
        <time>2024-07-09T09:11:18Z</time>
      </trkpt>
      <trkpt lat="45.07856" lon="6.14181">
        <ele>2141.5</ele>
        <time>2024-07-09T09:11:19Z</time>
      </trkpt>
      <trkpt lat="45.07856" lon="6.14181">
        <ele>2141.6</ele>
        <time>2024-07-09T09:11:20Z</time>
      </trkpt>
      <trkpt lat="45.07856" lon="6.1418">
        <ele>2141.7</ele>
        <time>2024-07-09T09:11:21Z</time>
      </trkpt>
      <trkpt lat="45.07857" lon="6.14179">
        <ele>2141.9</ele>
        <time>2024-07-09T09:11:22Z</time>
      </trkpt>
      <trkpt lat="45.07857" lon="6.14179">
        <ele>2141.9</ele>
        <time>2024-07-09T09:11:23Z</time>
      </trkpt>
      <trkpt lat="45.07857" lon="6.14179">
        <ele>2142</ele>
        <time>2024-07-09T09:11:24Z</time>
      </trkpt>
      <trkpt lat="45.07857" lon="6.14178">
        <ele>2142.1</ele>
        <time>2024-07-09T09:11:25Z</time>
      </trkpt>
      <trkpt lat="45.07857" lon="6.14178">
        <ele>2142.1</ele>
        <time>2024-07-09T09:11:26Z</time>
      </trkpt>
      <trkpt lat="45.07857" lon="6.14178">
        <ele>2142.2</ele>
        <time>2024-07-09T09:11:27Z</time>
      </trkpt>
      <trkpt lat="45.07858" lon="6.14177">
        <ele>2142.3</ele>
        <time>2024-07-09T09:11:28Z</time>
      </trkpt>
      <trkpt lat="45.07858" lon="6.14176">
        <ele>2142.5</ele>
        <time>2024-07-09T09:11:29Z</time>
      </trkpt>
      <trkpt lat="45.07858" lon="6.14173">
        <ele>2142.9</ele>
        <time>2024-07-09T09:11:31Z</time>
      </trkpt>
      <trkpt lat="45.07858" lon="6.14172">
        <ele>2143.1</ele>
        <time>2024-07-09T09:11:32Z</time>
      </trkpt>
      <trkpt lat="45.07858" lon="6.14171">
        <ele>2143.3</ele>
        <time>2024-07-09T09:11:33Z</time>
      </trkpt>
      <trkpt lat="45.07858" lon="6.1417">
        <ele>2143.4</ele>
        <time>2024-07-09T09:11:34Z</time>
      </trkpt>
      <trkpt lat="45.07858" lon="6.1417">
        <ele>2143.5</ele>
        <time>2024-07-09T09:11:35Z</time>
      </trkpt>
      <trkpt lat="45.07858" lon="6.14169">
        <ele>2143.6</ele>
        <time>2024-07-09T09:11:36Z</time>
      </trkpt>
      <trkpt lat="45.07858" lon="6.14168">
        <ele>2143.7</ele>
        <time>2024-07-09T09:11:37Z</time>
      </trkpt>
      <trkpt lat="45.07858" lon="6.14168">
        <ele>2143.9</ele>
        <time>2024-07-09T09:11:38Z</time>
      </trkpt>
      <trkpt lat="45.07857" lon="6.14167">
        <ele>2144</ele>
        <time>2024-07-09T09:11:39Z</time>
      </trkpt>
      <trkpt lat="45.07857" lon="6.14167">
        <ele>2144.1</ele>
        <time>2024-07-09T09:11:40Z</time>
      </trkpt>
      <trkpt lat="45.07857" lon="6.14166">
        <ele>2144.2</ele>
        <time>2024-07-09T09:11:41Z</time>
      </trkpt>
      <trkpt lat="45.07857" lon="6.14165">
        <ele>2144.3</ele>
        <time>2024-07-09T09:11:42Z</time>
      </trkpt>
      <trkpt lat="45.07856" lon="6.14165">
        <ele>2144.4</ele>
        <time>2024-07-09T09:11:43Z</time>
      </trkpt>
      <trkpt lat="45.07856" lon="6.14164">
        <ele>2144.5</ele>
        <time>2024-07-09T09:11:44Z</time>
      </trkpt>
      <trkpt lat="45.07856" lon="6.14164">
        <ele>2144.6</ele>
        <time>2024-07-09T09:11:45Z</time>
      </trkpt>
      <trkpt lat="45.07855" lon="6.14163">
        <ele>2144.8</ele>
        <time>2024-07-09T09:11:46Z</time>
      </trkpt>
      <trkpt lat="45.07855" lon="6.14163">
        <ele>2144.9</ele>
        <time>2024-07-09T09:11:47Z</time>
      </trkpt>
      <trkpt lat="45.07854" lon="6.14162">
        <ele>2145.1</ele>
        <time>2024-07-09T09:11:48Z</time>
      </trkpt>
      <trkpt lat="45.07854" lon="6.14161">
        <ele>2145.3</ele>
        <time>2024-07-09T09:11:49Z</time>
      </trkpt>
      <trkpt lat="45.07853" lon="6.14161">
        <ele>2145.4</ele>
        <time>2024-07-09T09:11:50Z</time>
      </trkpt>
      <trkpt lat="45.07853" lon="6.14161">
        <ele>2145.5</ele>
        <time>2024-07-09T09:11:51Z</time>
      </trkpt>
      <trkpt lat="45.07852" lon="6.14161">
        <ele>2145.6</ele>
        <time>2024-07-09T09:11:52Z</time>
      </trkpt>
      <trkpt lat="45.07852" lon="6.1416">
        <ele>2145.8</ele>
        <time>2024-07-09T09:11:53Z</time>
      </trkpt>
      <trkpt lat="45.07851" lon="6.1416">
        <ele>2145.8</ele>
        <time>2024-07-09T09:11:54Z</time>
      </trkpt>
      <trkpt lat="45.07851" lon="6.1416">
        <ele>2146</ele>
        <time>2024-07-09T09:11:55Z</time>
      </trkpt>
      <trkpt lat="45.07849" lon="6.14159">
        <ele>2146.3</ele>
        <time>2024-07-09T09:11:56Z</time>
      </trkpt>
      <trkpt lat="45.07848" lon="6.14158">
        <ele>2146.7</ele>
        <time>2024-07-09T09:11:58Z</time>
      </trkpt>
      <trkpt lat="45.07848" lon="6.14157">
        <ele>2146.8</ele>
        <time>2024-07-09T09:11:59Z</time>
      </trkpt>
      <trkpt lat="45.07848" lon="6.14157">
        <ele>2146.9</ele>
        <time>2024-07-09T09:12:01Z</time>
      </trkpt>
      <trkpt lat="45.07847" lon="6.14157">
        <ele>2147.1</ele>
        <time>2024-07-09T09:12:02Z</time>
      </trkpt>
      <trkpt lat="45.07847" lon="6.14158">
        <ele>2147.2</ele>
        <time>2024-07-09T09:12:03Z</time>
      </trkpt>
      <trkpt lat="45.07847" lon="6.14159">
        <ele>2147.3</ele>
        <time>2024-07-09T09:12:04Z</time>
      </trkpt>
      <trkpt lat="45.07847" lon="6.14158">
        <ele>2147.3</ele>
        <time>2024-07-09T09:12:05Z</time>
      </trkpt>
      <trkpt lat="45.07847" lon="6.14158">
        <ele>2147.4</ele>
        <time>2024-07-09T09:12:06Z</time>
      </trkpt>
      <trkpt lat="45.07847" lon="6.14158">
        <ele>2147.5</ele>
        <time>2024-07-09T09:12:07Z</time>
      </trkpt>
      <trkpt lat="45.07846" lon="6.14157">
        <ele>2147.7</ele>
        <time>2024-07-09T09:12:08Z</time>
      </trkpt>
      <trkpt lat="45.07845" lon="6.14156">
        <ele>2148</ele>
        <time>2024-07-09T09:12:10Z</time>
      </trkpt>
      <trkpt lat="45.07845" lon="6.14155">
        <ele>2148.2</ele>
        <time>2024-07-09T09:12:11Z</time>
      </trkpt>
      <trkpt lat="45.07844" lon="6.14155">
        <ele>2148.4</ele>
        <time>2024-07-09T09:12:12Z</time>
      </trkpt>
      <trkpt lat="45.07844" lon="6.14154">
        <ele>2148.4</ele>
        <time>2024-07-09T09:12:13Z</time>
      </trkpt>
      <trkpt lat="45.07844" lon="6.14154">
        <ele>2148.7</ele>
        <time>2024-07-09T09:12:14Z</time>
      </trkpt>
      <trkpt lat="45.07843" lon="6.14153">
        <ele>2148.8</ele>
        <time>2024-07-09T09:12:16Z</time>
      </trkpt>
      <trkpt lat="45.07843" lon="6.14153">
        <ele>2148.9</ele>
        <time>2024-07-09T09:12:17Z</time>
      </trkpt>
      <trkpt lat="45.07842" lon="6.14152">
        <ele>2149.2</ele>
        <time>2024-07-09T09:12:18Z</time>
      </trkpt>
      <trkpt lat="45.07842" lon="6.14152">
        <ele>2149.4</ele>
        <time>2024-07-09T09:12:20Z</time>
      </trkpt>
      <trkpt lat="45.07841" lon="6.14151">
        <ele>2149.5</ele>
        <time>2024-07-09T09:12:21Z</time>
      </trkpt>
      <trkpt lat="45.07841" lon="6.14151">
        <ele>2149.7</ele>
        <time>2024-07-09T09:12:22Z</time>
      </trkpt>
      <trkpt lat="45.0784" lon="6.1415">
        <ele>2149.9</ele>
        <time>2024-07-09T09:12:23Z</time>
      </trkpt>
      <trkpt lat="45.0784" lon="6.1415">
        <ele>2149.9</ele>
        <time>2024-07-09T09:12:24Z</time>
      </trkpt>
      <trkpt lat="45.0784" lon="6.1415">
        <ele>2150</ele>
        <time>2024-07-09T09:12:25Z</time>
      </trkpt>
      <trkpt lat="45.0784" lon="6.1415">
        <ele>2150</ele>
        <time>2024-07-09T09:12:26Z</time>
      </trkpt>
      <trkpt lat="45.0784" lon="6.1415">
        <ele>2150</ele>
        <time>2024-07-09T09:12:27Z</time>
      </trkpt>
      <trkpt lat="45.07839" lon="6.14149">
        <ele>2150.3</ele>
        <time>2024-07-09T09:12:28Z</time>
      </trkpt>
      <trkpt lat="45.07839" lon="6.14149">
        <ele>2150.4</ele>
        <time>2024-07-09T09:12:29Z</time>
      </trkpt>
      <trkpt lat="45.07839" lon="6.14148">
        <ele>2150.6</ele>
        <time>2024-07-09T09:12:30Z</time>
      </trkpt>
      <trkpt lat="45.07838" lon="6.14147">
        <ele>2150.9</ele>
        <time>2024-07-09T09:12:31Z</time>
      </trkpt>
      <trkpt lat="45.07837" lon="6.14146">
        <ele>2151.4</ele>
        <time>2024-07-09T09:12:32Z</time>
      </trkpt>
      <trkpt lat="45.07837" lon="6.14145">
        <ele>2151.6</ele>
        <time>2024-07-09T09:12:34Z</time>
      </trkpt>
      <trkpt lat="45.07837" lon="6.14144">
        <ele>2151.8</ele>
        <time>2024-07-09T09:12:35Z</time>
      </trkpt>
      <trkpt lat="45.07837" lon="6.14143">
        <ele>2152</ele>
        <time>2024-07-09T09:12:36Z</time>
      </trkpt>
      <trkpt lat="45.07836" lon="6.14143">
        <ele>2152.1</ele>
        <time>2024-07-09T09:12:37Z</time>
      </trkpt>
      <trkpt lat="45.07835" lon="6.14142">
        <ele>2152.4</ele>
        <time>2024-07-09T09:12:38Z</time>
      </trkpt>
      <trkpt lat="45.07835" lon="6.14143">
        <ele>2152.5</ele>
        <time>2024-07-09T09:12:39Z</time>
      </trkpt>
      <trkpt lat="45.07835" lon="6.14142">
        <ele>2152.6</ele>
        <time>2024-07-09T09:12:40Z</time>
      </trkpt>
      <trkpt lat="45.07835" lon="6.14142">
        <ele>2152.8</ele>
        <time>2024-07-09T09:12:41Z</time>
      </trkpt>
      <trkpt lat="45.07834" lon="6.14142">
        <ele>2152.9</ele>
        <time>2024-07-09T09:12:42Z</time>
      </trkpt>
      <trkpt lat="45.07834" lon="6.14141">
        <ele>2153</ele>
        <time>2024-07-09T09:12:43Z</time>
      </trkpt>
      <trkpt lat="45.07834" lon="6.14141">
        <ele>2153.1</ele>
        <time>2024-07-09T09:12:44Z</time>
      </trkpt>
      <trkpt lat="45.07834" lon="6.14141">
        <ele>2153.1</ele>
        <time>2024-07-09T09:12:45Z</time>
      </trkpt>
      <trkpt lat="45.07834" lon="6.14141">
        <ele>2153.2</ele>
        <time>2024-07-09T09:12:46Z</time>
      </trkpt>
      <trkpt lat="45.07834" lon="6.14141">
        <ele>2153.3</ele>
        <time>2024-07-09T09:12:47Z</time>
      </trkpt>
      <trkpt lat="45.07833" lon="6.14141">
        <ele>2153.4</ele>
        <time>2024-07-09T09:12:48Z</time>
      </trkpt>
      <trkpt lat="45.07833" lon="6.14141">
        <ele>2153.5</ele>
        <time>2024-07-09T09:12:49Z</time>
      </trkpt>
      <trkpt lat="45.07833" lon="6.14141">
        <ele>2153.5</ele>
        <time>2024-07-09T09:12:50Z</time>
      </trkpt>
      <trkpt lat="45.07833" lon="6.14141">
        <ele>2153.6</ele>
        <time>2024-07-09T09:12:51Z</time>
      </trkpt>
      <trkpt lat="45.07833" lon="6.14141">
        <ele>2153.6</ele>
        <time>2024-07-09T09:12:52Z</time>
      </trkpt>
      <trkpt lat="45.07833" lon="6.1414">
        <ele>2153.7</ele>
        <time>2024-07-09T09:12:54Z</time>
      </trkpt>
      <trkpt lat="45.07832" lon="6.1414">
        <ele>2153.9</ele>
        <time>2024-07-09T09:12:55Z</time>
      </trkpt>
      <trkpt lat="45.07832" lon="6.1414">
        <ele>2154</ele>
        <time>2024-07-09T09:12:56Z</time>
      </trkpt>
      <trkpt lat="45.07832" lon="6.1414">
        <ele>2154.1</ele>
        <time>2024-07-09T09:12:57Z</time>
      </trkpt>
      <trkpt lat="45.07832" lon="6.14139">
        <ele>2154.2</ele>
        <time>2024-07-09T09:12:58Z</time>
      </trkpt>
      <trkpt lat="45.07832" lon="6.14139">
        <ele>2154.3</ele>
        <time>2024-07-09T09:12:59Z</time>
      </trkpt>
      <trkpt lat="45.07831" lon="6.14138">
        <ele>2154.6</ele>
        <time>2024-07-09T09:13:01Z</time>
      </trkpt>
      <trkpt lat="45.07831" lon="6.14137">
        <ele>2154.9</ele>
        <time>2024-07-09T09:13:02Z</time>
      </trkpt>
      <trkpt lat="45.0783" lon="6.14136">
        <ele>2155.1</ele>
        <time>2024-07-09T09:13:03Z</time>
      </trkpt>
      <trkpt lat="45.0783" lon="6.14135">
        <ele>2155.4</ele>
        <time>2024-07-09T09:13:05Z</time>
      </trkpt>
      <trkpt lat="45.0783" lon="6.14135">
        <ele>2155.5</ele>
        <time>2024-07-09T09:13:06Z</time>
      </trkpt>
      <trkpt lat="45.07829" lon="6.14134">
        <ele>2155.8</ele>
        <time>2024-07-09T09:13:08Z</time>
      </trkpt>
      <trkpt lat="45.07829" lon="6.14134">
        <ele>2155.8</ele>
        <time>2024-07-09T09:13:09Z</time>
      </trkpt>
      <trkpt lat="45.07829" lon="6.14134">
        <ele>2155.9</ele>
        <time>2024-07-09T09:13:11Z</time>
      </trkpt>
      <trkpt lat="45.07829" lon="6.14134">
        <ele>2156</ele>
        <time>2024-07-09T09:13:12Z</time>
      </trkpt>
      <trkpt lat="45.07829" lon="6.14133">
        <ele>2156.1</ele>
        <time>2024-07-09T09:13:13Z</time>
      </trkpt>
      <trkpt lat="45.07828" lon="6.14132">
        <ele>2156.4</ele>
        <time>2024-07-09T09:13:14Z</time>
      </trkpt>
      <trkpt lat="45.07828" lon="6.14132">
        <ele>2156.6</ele>
        <time>2024-07-09T09:13:15Z</time>
      </trkpt>
      <trkpt lat="45.07828" lon="6.14131">
        <ele>2156.7</ele>
        <time>2024-07-09T09:13:16Z</time>
      </trkpt>
      <trkpt lat="45.07828" lon="6.1413">
        <ele>2156.9</ele>
        <time>2024-07-09T09:13:17Z</time>
      </trkpt>
      <trkpt lat="45.07827" lon="6.1413">
        <ele>2157</ele>
        <time>2024-07-09T09:13:19Z</time>
      </trkpt>
      <trkpt lat="45.07827" lon="6.1413">
        <ele>2157.1</ele>
        <time>2024-07-09T09:13:20Z</time>
      </trkpt>
      <trkpt lat="45.07827" lon="6.1413">
        <ele>2157.1</ele>
        <time>2024-07-09T09:13:21Z</time>
      </trkpt>
      <trkpt lat="45.07827" lon="6.1413">
        <ele>2157.1</ele>
        <time>2024-07-09T09:13:22Z</time>
      </trkpt>
      <trkpt lat="45.07827" lon="6.1413">
        <ele>2157.2</ele>
        <time>2024-07-09T09:13:23Z</time>
      </trkpt>
      <trkpt lat="45.07826" lon="6.1413">
        <ele>2157.4</ele>
        <time>2024-07-09T09:13:25Z</time>
      </trkpt>
      <trkpt lat="45.07826" lon="6.14132">
        <ele>2157.7</ele>
        <time>2024-07-09T09:13:27Z</time>
      </trkpt>
      <trkpt lat="45.07826" lon="6.14133">
        <ele>2158</ele>
        <time>2024-07-09T09:13:28Z</time>
      </trkpt>
      <trkpt lat="45.07826" lon="6.14134">
        <ele>2158.2</ele>
        <time>2024-07-09T09:13:29Z</time>
      </trkpt>
      <trkpt lat="45.07826" lon="6.14136">
        <ele>2158.6</ele>
        <time>2024-07-09T09:13:30Z</time>
      </trkpt>
      <trkpt lat="45.07826" lon="6.14137">
        <ele>2158.8</ele>
        <time>2024-07-09T09:13:32Z</time>
      </trkpt>
      <trkpt lat="45.07824" lon="6.14138">
        <ele>2159.2</ele>
        <time>2024-07-09T09:13:33Z</time>
      </trkpt>
      <trkpt lat="45.07824" lon="6.14138">
        <ele>2159.3</ele>
        <time>2024-07-09T09:13:35Z</time>
      </trkpt>
      <trkpt lat="45.07823" lon="6.14139">
        <ele>2159.5</ele>
        <time>2024-07-09T09:13:36Z</time>
      </trkpt>
      <trkpt lat="45.07823" lon="6.14139">
        <ele>2159.6</ele>
        <time>2024-07-09T09:13:37Z</time>
      </trkpt>
      <trkpt lat="45.07822" lon="6.1414">
        <ele>2159.8</ele>
        <time>2024-07-09T09:13:38Z</time>
      </trkpt>
      <trkpt lat="45.07822" lon="6.14141">
        <ele>2160</ele>
        <time>2024-07-09T09:13:39Z</time>
      </trkpt>
      <trkpt lat="45.07822" lon="6.14142">
        <ele>2160.1</ele>
        <time>2024-07-09T09:13:40Z</time>
      </trkpt>
      <trkpt lat="45.07822" lon="6.14142">
        <ele>2160.2</ele>
        <time>2024-07-09T09:13:41Z</time>
      </trkpt>
      <trkpt lat="45.07822" lon="6.14143">
        <ele>2160.4</ele>
        <time>2024-07-09T09:13:42Z</time>
      </trkpt>
      <trkpt lat="45.07822" lon="6.14144">
        <ele>2160.5</ele>
        <time>2024-07-09T09:13:43Z</time>
      </trkpt>
      <trkpt lat="45.07821" lon="6.14146">
        <ele>2160.8</ele>
        <time>2024-07-09T09:13:44Z</time>
      </trkpt>
      <trkpt lat="45.07821" lon="6.14146">
        <ele>2160.9</ele>
        <time>2024-07-09T09:13:45Z</time>
      </trkpt>
      <trkpt lat="45.07821" lon="6.14148">
        <ele>2161.3</ele>
        <time>2024-07-09T09:13:46Z</time>
      </trkpt>
      <trkpt lat="45.07821" lon="6.1415">
        <ele>2161.5</ele>
        <time>2024-07-09T09:13:47Z</time>
      </trkpt>
      <trkpt lat="45.07822" lon="6.14151">
        <ele>2161.7</ele>
        <time>2024-07-09T09:13:49Z</time>
      </trkpt>
      <trkpt lat="45.07821" lon="6.14151">
        <ele>2161.8</ele>
        <time>2024-07-09T09:13:50Z</time>
      </trkpt>
      <trkpt lat="45.07821" lon="6.14152">
        <ele>2161.9</ele>
        <time>2024-07-09T09:13:51Z</time>
      </trkpt>
      <trkpt lat="45.0782" lon="6.14153">
        <ele>2162.3</ele>
        <time>2024-07-09T09:13:52Z</time>
      </trkpt>
      <trkpt lat="45.07819" lon="6.14154">
        <ele>2162.5</ele>
        <time>2024-07-09T09:13:54Z</time>
      </trkpt>
      <trkpt lat="45.07819" lon="6.14153">
        <ele>2162.6</ele>
        <time>2024-07-09T09:13:55Z</time>
      </trkpt>
      <trkpt lat="45.07819" lon="6.14154">
        <ele>2162.6</ele>
        <time>2024-07-09T09:13:56Z</time>
      </trkpt>
      <trkpt lat="45.07818" lon="6.14154">
        <ele>2162.8</ele>
        <time>2024-07-09T09:13:57Z</time>
      </trkpt>
      <trkpt lat="45.07818" lon="6.14154">
        <ele>2162.9</ele>
        <time>2024-07-09T09:13:58Z</time>
      </trkpt>
      <trkpt lat="45.07817" lon="6.14154">
        <ele>2163.2</ele>
        <time>2024-07-09T09:13:59Z</time>
      </trkpt>
      <trkpt lat="45.07817" lon="6.14154">
        <ele>2163.3</ele>
        <time>2024-07-09T09:14:00Z</time>
      </trkpt>
      <trkpt lat="45.07816" lon="6.14154">
        <ele>2163.5</ele>
        <time>2024-07-09T09:14:01Z</time>
      </trkpt>
      <trkpt lat="45.07815" lon="6.14154">
        <ele>2163.7</ele>
        <time>2024-07-09T09:14:02Z</time>
      </trkpt>
      <trkpt lat="45.07815" lon="6.14152">
        <ele>2164</ele>
        <time>2024-07-09T09:14:03Z</time>
      </trkpt>
      <trkpt lat="45.07814" lon="6.14152">
        <ele>2164.2</ele>
        <time>2024-07-09T09:14:05Z</time>
      </trkpt>
      <trkpt lat="45.07814" lon="6.14151">
        <ele>2164.3</ele>
        <time>2024-07-09T09:14:06Z</time>
      </trkpt>
      <trkpt lat="45.07814" lon="6.14151">
        <ele>2164.5</ele>
        <time>2024-07-09T09:14:07Z</time>
      </trkpt>
      <trkpt lat="45.07814" lon="6.1415">
        <ele>2164.6</ele>
        <time>2024-07-09T09:14:08Z</time>
      </trkpt>
      <trkpt lat="45.07813" lon="6.14149">
        <ele>2164.8</ele>
        <time>2024-07-09T09:14:09Z</time>
      </trkpt>
      <trkpt lat="45.07813" lon="6.14149">
        <ele>2164.9</ele>
        <time>2024-07-09T09:14:10Z</time>
      </trkpt>
      <trkpt lat="45.07813" lon="6.14148">
        <ele>2165</ele>
        <time>2024-07-09T09:14:11Z</time>
      </trkpt>
      <trkpt lat="45.07813" lon="6.14148">
        <ele>2165.2</ele>
        <time>2024-07-09T09:14:12Z</time>
      </trkpt>
      <trkpt lat="45.07813" lon="6.14146">
        <ele>2165.6</ele>
        <time>2024-07-09T09:14:13Z</time>
      </trkpt>
      <trkpt lat="45.07812" lon="6.14145">
        <ele>2165.8</ele>
        <time>2024-07-09T09:14:15Z</time>
      </trkpt>
      <trkpt lat="45.07812" lon="6.14145">
        <ele>2166</ele>
        <time>2024-07-09T09:14:16Z</time>
      </trkpt>
      <trkpt lat="45.07811" lon="6.14145">
        <ele>2166.2</ele>
        <time>2024-07-09T09:14:17Z</time>
      </trkpt>
      <trkpt lat="45.07811" lon="6.14146">
        <ele>2166.4</ele>
        <time>2024-07-09T09:14:18Z</time>
      </trkpt>
      <trkpt lat="45.0781" lon="6.14147">
        <ele>2166.6</ele>
        <time>2024-07-09T09:14:19Z</time>
      </trkpt>
      <trkpt lat="45.0781" lon="6.14147">
        <ele>2166.7</ele>
        <time>2024-07-09T09:14:20Z</time>
      </trkpt>
      <trkpt lat="45.0781" lon="6.14148">
        <ele>2166.9</ele>
        <time>2024-07-09T09:14:21Z</time>
      </trkpt>
      <trkpt lat="45.07809" lon="6.14148">
        <ele>2167.1</ele>
        <time>2024-07-09T09:14:22Z</time>
      </trkpt>
      <trkpt lat="45.07809" lon="6.14149">
        <ele>2167.3</ele>
        <time>2024-07-09T09:14:23Z</time>
      </trkpt>
      <trkpt lat="45.07809" lon="6.14149">
        <ele>2167.4</ele>
        <time>2024-07-09T09:14:24Z</time>
      </trkpt>
      <trkpt lat="45.07809" lon="6.1415">
        <ele>2167.5</ele>
        <time>2024-07-09T09:14:25Z</time>
      </trkpt>
      <trkpt lat="45.07809" lon="6.1415">
        <ele>2167.6</ele>
        <time>2024-07-09T09:14:26Z</time>
      </trkpt>
      <trkpt lat="45.07808" lon="6.1415">
        <ele>2167.7</ele>
        <time>2024-07-09T09:14:27Z</time>
      </trkpt>
      <trkpt lat="45.07808" lon="6.14151">
        <ele>2167.9</ele>
        <time>2024-07-09T09:14:28Z</time>
      </trkpt>
      <trkpt lat="45.07808" lon="6.14151">
        <ele>2168</ele>
        <time>2024-07-09T09:14:29Z</time>
      </trkpt>
      <trkpt lat="45.07807" lon="6.14152">
        <ele>2168.3</ele>
        <time>2024-07-09T09:14:30Z</time>
      </trkpt>
      <trkpt lat="45.07807" lon="6.14152">
        <ele>2168.6</ele>
        <time>2024-07-09T09:14:31Z</time>
      </trkpt>
      <trkpt lat="45.07806" lon="6.14153">
        <ele>2168.8</ele>
        <time>2024-07-09T09:14:32Z</time>
      </trkpt>
      <trkpt lat="45.07806" lon="6.14153">
        <ele>2169</ele>
        <time>2024-07-09T09:14:33Z</time>
      </trkpt>
      <trkpt lat="45.07806" lon="6.14153">
        <ele>2169</ele>
        <time>2024-07-09T09:14:34Z</time>
      </trkpt>
      <trkpt lat="45.07806" lon="6.14153">
        <ele>2169.1</ele>
        <time>2024-07-09T09:14:35Z</time>
      </trkpt>
      <trkpt lat="45.07805" lon="6.14153">
        <ele>2169.2</ele>
        <time>2024-07-09T09:14:36Z</time>
      </trkpt>
      <trkpt lat="45.07805" lon="6.14152">
        <ele>2169.4</ele>
        <time>2024-07-09T09:14:37Z</time>
      </trkpt>
      <trkpt lat="45.07804" lon="6.14152">
        <ele>2169.6</ele>
        <time>2024-07-09T09:14:38Z</time>
      </trkpt>
      <trkpt lat="45.07804" lon="6.14152">
        <ele>2169.8</ele>
        <time>2024-07-09T09:14:39Z</time>
      </trkpt>
      <trkpt lat="45.07803" lon="6.14152">
        <ele>2170</ele>
        <time>2024-07-09T09:14:40Z</time>
      </trkpt>
      <trkpt lat="45.07803" lon="6.14151">
        <ele>2170.3</ele>
        <time>2024-07-09T09:14:41Z</time>
      </trkpt>
      <trkpt lat="45.07802" lon="6.1415">
        <ele>2170.8</ele>
        <time>2024-07-09T09:14:42Z</time>
      </trkpt>
      <trkpt lat="45.07801" lon="6.1415">
        <ele>2171</ele>
        <time>2024-07-09T09:14:43Z</time>
      </trkpt>
      <trkpt lat="45.07801" lon="6.14149">
        <ele>2171.2</ele>
        <time>2024-07-09T09:14:45Z</time>
      </trkpt>
      <trkpt lat="45.07801" lon="6.14149">
        <ele>2171.5</ele>
        <time>2024-07-09T09:14:46Z</time>
      </trkpt>
      <trkpt lat="45.078" lon="6.14148">
        <ele>2171.9</ele>
        <time>2024-07-09T09:14:47Z</time>
      </trkpt>
      <trkpt lat="45.078" lon="6.14147">
        <ele>2172</ele>
        <time>2024-07-09T09:14:49Z</time>
      </trkpt>
      <trkpt lat="45.078" lon="6.14147">
        <ele>2172.2</ele>
        <time>2024-07-09T09:14:50Z</time>
      </trkpt>
      <trkpt lat="45.078" lon="6.14146">
        <ele>2172.4</ele>
        <time>2024-07-09T09:14:51Z</time>
      </trkpt>
      <trkpt lat="45.078" lon="6.14146">
        <ele>2172.6</ele>
        <time>2024-07-09T09:14:52Z</time>
      </trkpt>
      <trkpt lat="45.07799" lon="6.14145">
        <ele>2172.7</ele>
        <time>2024-07-09T09:14:53Z</time>
      </trkpt>
      <trkpt lat="45.07799" lon="6.14145">
        <ele>2172.9</ele>
        <time>2024-07-09T09:14:54Z</time>
      </trkpt>
      <trkpt lat="45.07799" lon="6.14145">
        <ele>2173</ele>
        <time>2024-07-09T09:14:55Z</time>
      </trkpt>
      <trkpt lat="45.07798" lon="6.14144">
        <ele>2173.2</ele>
        <time>2024-07-09T09:14:56Z</time>
      </trkpt>
      <trkpt lat="45.07798" lon="6.14142">
        <ele>2173.8</ele>
        <time>2024-07-09T09:14:57Z</time>
      </trkpt>
      <trkpt lat="45.07798" lon="6.14142">
        <ele>2174</ele>
        <time>2024-07-09T09:14:59Z</time>
      </trkpt>
      <trkpt lat="45.07798" lon="6.14141">
        <ele>2174.1</ele>
        <time>2024-07-09T09:15:00Z</time>
      </trkpt>
      <trkpt lat="45.07798" lon="6.14141">
        <ele>2174.2</ele>
        <time>2024-07-09T09:15:01Z</time>
      </trkpt>
      <trkpt lat="45.07798" lon="6.1414">
        <ele>2174.4</ele>
        <time>2024-07-09T09:15:02Z</time>
      </trkpt>
      <trkpt lat="45.07798" lon="6.1414">
        <ele>2174.5</ele>
        <time>2024-07-09T09:15:03Z</time>
      </trkpt>
      <trkpt lat="45.07797" lon="6.14139">
        <ele>2174.7</ele>
        <time>2024-07-09T09:15:04Z</time>
      </trkpt>
      <trkpt lat="45.07797" lon="6.14139">
        <ele>2174.8</ele>
        <time>2024-07-09T09:15:05Z</time>
      </trkpt>
      <trkpt lat="45.07797" lon="6.14139">
        <ele>2175</ele>
        <time>2024-07-09T09:15:06Z</time>
      </trkpt>
      <trkpt lat="45.07797" lon="6.14139">
        <ele>2175</ele>
        <time>2024-07-09T09:15:07Z</time>
      </trkpt>
      <trkpt lat="45.07797" lon="6.14139">
        <ele>2175.1</ele>
        <time>2024-07-09T09:15:08Z</time>
      </trkpt>
      <trkpt lat="45.07796" lon="6.14137">
        <ele>2175.5</ele>
        <time>2024-07-09T09:15:09Z</time>
      </trkpt>
      <trkpt lat="45.07796" lon="6.14136">
        <ele>2175.9</ele>
        <time>2024-07-09T09:15:11Z</time>
      </trkpt>
      <trkpt lat="45.07795" lon="6.14136">
        <ele>2176.1</ele>
        <time>2024-07-09T09:15:12Z</time>
      </trkpt>
      <trkpt lat="45.07795" lon="6.14136">
        <ele>2176.2</ele>
        <time>2024-07-09T09:15:13Z</time>
      </trkpt>
      <trkpt lat="45.07795" lon="6.14136">
        <ele>2176.4</ele>
        <time>2024-07-09T09:15:14Z</time>
      </trkpt>
      <trkpt lat="45.07794" lon="6.14135">
        <ele>2176.6</ele>
        <time>2024-07-09T09:15:15Z</time>
      </trkpt>
      <trkpt lat="45.07794" lon="6.14135">
        <ele>2176.8</ele>
        <time>2024-07-09T09:15:16Z</time>
      </trkpt>
      <trkpt lat="45.07794" lon="6.14136">
        <ele>2177</ele>
        <time>2024-07-09T09:15:17Z</time>
      </trkpt>
      <trkpt lat="45.07794" lon="6.14136">
        <ele>2177.1</ele>
        <time>2024-07-09T09:15:18Z</time>
      </trkpt>
      <trkpt lat="45.07793" lon="6.14136">
        <ele>2177.3</ele>
        <time>2024-07-09T09:15:19Z</time>
      </trkpt>
      <trkpt lat="45.07792" lon="6.14136">
        <ele>2177.6</ele>
        <time>2024-07-09T09:15:20Z</time>
      </trkpt>
      <trkpt lat="45.07792" lon="6.14136">
        <ele>2177.8</ele>
        <time>2024-07-09T09:15:21Z</time>
      </trkpt>
      <trkpt lat="45.07791" lon="6.14136">
        <ele>2178.2</ele>
        <time>2024-07-09T09:15:22Z</time>
      </trkpt>
      <trkpt lat="45.07791" lon="6.14136">
        <ele>2178.4</ele>
        <time>2024-07-09T09:15:23Z</time>
      </trkpt>
      <trkpt lat="45.0779" lon="6.14136">
        <ele>2178.6</ele>
        <time>2024-07-09T09:15:24Z</time>
      </trkpt>
      <trkpt lat="45.0779" lon="6.14135">
        <ele>2178.7</ele>
        <time>2024-07-09T09:15:25Z</time>
      </trkpt>
      <trkpt lat="45.07789" lon="6.14135">
        <ele>2178.9</ele>
        <time>2024-07-09T09:15:26Z</time>
      </trkpt>
      <trkpt lat="45.07788" lon="6.14135">
        <ele>2179.2</ele>
        <time>2024-07-09T09:15:27Z</time>
      </trkpt>
      <trkpt lat="45.07788" lon="6.14135">
        <ele>2179.3</ele>
        <time>2024-07-09T09:15:28Z</time>
      </trkpt>
      <trkpt lat="45.07788" lon="6.14135">
        <ele>2179.4</ele>
        <time>2024-07-09T09:15:30Z</time>
      </trkpt>
      <trkpt lat="45.07787" lon="6.14134">
        <ele>2179.8</ele>
        <time>2024-07-09T09:15:31Z</time>
      </trkpt>
      <trkpt lat="45.07787" lon="6.14134">
        <ele>2179.9</ele>
        <time>2024-07-09T09:15:32Z</time>
      </trkpt>
      <trkpt lat="45.07787" lon="6.14133">
        <ele>2180</ele>
        <time>2024-07-09T09:15:34Z</time>
      </trkpt>
      <trkpt lat="45.07787" lon="6.14133">
        <ele>2180.2</ele>
        <time>2024-07-09T09:15:35Z</time>
      </trkpt>
      <trkpt lat="45.07787" lon="6.14132">
        <ele>2180.4</ele>
        <time>2024-07-09T09:15:36Z</time>
      </trkpt>
      <trkpt lat="45.07787" lon="6.14131">
        <ele>2180.6</ele>
        <time>2024-07-09T09:15:37Z</time>
      </trkpt>
      <trkpt lat="45.07787" lon="6.14131">
        <ele>2180.7</ele>
        <time>2024-07-09T09:15:38Z</time>
      </trkpt>
      <trkpt lat="45.07787" lon="6.1413">
        <ele>2180.8</ele>
        <time>2024-07-09T09:15:39Z</time>
      </trkpt>
      <trkpt lat="45.07787" lon="6.14129">
        <ele>2181.1</ele>
        <time>2024-07-09T09:15:40Z</time>
      </trkpt>
      <trkpt lat="45.07787" lon="6.14129">
        <ele>2181.3</ele>
        <time>2024-07-09T09:15:41Z</time>
      </trkpt>
      <trkpt lat="45.07787" lon="6.14127">
        <ele>2181.6</ele>
        <time>2024-07-09T09:15:42Z</time>
      </trkpt>
      <trkpt lat="45.07787" lon="6.14127">
        <ele>2181.7</ele>
        <time>2024-07-09T09:15:43Z</time>
      </trkpt>
      <trkpt lat="45.07787" lon="6.14126">
        <ele>2182.1</ele>
        <time>2024-07-09T09:15:44Z</time>
      </trkpt>
      <trkpt lat="45.07787" lon="6.14126">
        <ele>2182.1</ele>
        <time>2024-07-09T09:15:46Z</time>
      </trkpt>
      <trkpt lat="45.07787" lon="6.14125">
        <ele>2182.3</ele>
        <time>2024-07-09T09:15:47Z</time>
      </trkpt>
      <trkpt lat="45.07787" lon="6.14125">
        <ele>2182.4</ele>
        <time>2024-07-09T09:15:48Z</time>
      </trkpt>
      <trkpt lat="45.07787" lon="6.14124">
        <ele>2182.4</ele>
        <time>2024-07-09T09:15:49Z</time>
      </trkpt>
      <trkpt lat="45.07787" lon="6.14124">
        <ele>2182.5</ele>
        <time>2024-07-09T09:15:50Z</time>
      </trkpt>
      <trkpt lat="45.07787" lon="6.14124">
        <ele>2182.6</ele>
        <time>2024-07-09T09:15:51Z</time>
      </trkpt>
      <trkpt lat="45.07787" lon="6.14123">
        <ele>2182.7</ele>
        <time>2024-07-09T09:15:52Z</time>
      </trkpt>
      <trkpt lat="45.07786" lon="6.14123">
        <ele>2182.9</ele>
        <time>2024-07-09T09:15:53Z</time>
      </trkpt>
      <trkpt lat="45.07786" lon="6.14122">
        <ele>2183.1</ele>
        <time>2024-07-09T09:15:54Z</time>
      </trkpt>
      <trkpt lat="45.07785" lon="6.14122">
        <ele>2183.3</ele>
        <time>2024-07-09T09:15:55Z</time>
      </trkpt>
      <trkpt lat="45.07784" lon="6.14122">
        <ele>2183.6</ele>
        <time>2024-07-09T09:15:56Z</time>
      </trkpt>
      <trkpt lat="45.07784" lon="6.14121">
        <ele>2183.8</ele>
        <time>2024-07-09T09:15:58Z</time>
      </trkpt>
      <trkpt lat="45.07783" lon="6.14121">
        <ele>2184</ele>
        <time>2024-07-09T09:15:59Z</time>
      </trkpt>
      <trkpt lat="45.07783" lon="6.14121">
        <ele>2184.2</ele>
        <time>2024-07-09T09:16:00Z</time>
      </trkpt>
      <trkpt lat="45.07781" lon="6.14121">
        <ele>2184.6</ele>
        <time>2024-07-09T09:16:01Z</time>
      </trkpt>
      <trkpt lat="45.07781" lon="6.14121">
        <ele>2184.6</ele>
        <time>2024-07-09T09:16:03Z</time>
      </trkpt>
      <trkpt lat="45.07781" lon="6.14121">
        <ele>2184.8</ele>
        <time>2024-07-09T09:16:04Z</time>
      </trkpt>
      <trkpt lat="45.0778" lon="6.14121">
        <ele>2184.9</ele>
        <time>2024-07-09T09:16:05Z</time>
      </trkpt>
      <trkpt lat="45.0778" lon="6.14121">
        <ele>2185</ele>
        <time>2024-07-09T09:16:06Z</time>
      </trkpt>
      <trkpt lat="45.07779" lon="6.1412">
        <ele>2185.3</ele>
        <time>2024-07-09T09:16:07Z</time>
      </trkpt>
      <trkpt lat="45.07779" lon="6.14119">
        <ele>2185.4</ele>
        <time>2024-07-09T09:16:08Z</time>
      </trkpt>
      <trkpt lat="45.07779" lon="6.14118">
        <ele>2185.6</ele>
        <time>2024-07-09T09:16:09Z</time>
      </trkpt>
      <trkpt lat="45.07779" lon="6.14117">
        <ele>2185.9</ele>
        <time>2024-07-09T09:16:10Z</time>
      </trkpt>
      <trkpt lat="45.07779" lon="6.14117">
        <ele>2186</ele>
        <time>2024-07-09T09:16:11Z</time>
      </trkpt>
      <trkpt lat="45.07778" lon="6.14116">
        <ele>2186.2</ele>
        <time>2024-07-09T09:16:12Z</time>
      </trkpt>
      <trkpt lat="45.07778" lon="6.14115">
        <ele>2186.4</ele>
        <time>2024-07-09T09:16:13Z</time>
      </trkpt>
      <trkpt lat="45.07778" lon="6.14115">
        <ele>2186.5</ele>
        <time>2024-07-09T09:16:14Z</time>
      </trkpt>
      <trkpt lat="45.07777" lon="6.14114">
        <ele>2186.7</ele>
        <time>2024-07-09T09:16:15Z</time>
      </trkpt>
      <trkpt lat="45.07777" lon="6.14114">
        <ele>2186.7</ele>
        <time>2024-07-09T09:16:16Z</time>
      </trkpt>
      <trkpt lat="45.07776" lon="6.14114">
        <ele>2186.8</ele>
        <time>2024-07-09T09:16:17Z</time>
      </trkpt>
      <trkpt lat="45.07776" lon="6.14114">
        <ele>2186.9</ele>
        <time>2024-07-09T09:16:18Z</time>
      </trkpt>
      <trkpt lat="45.07775" lon="6.14114">
        <ele>2187.1</ele>
        <time>2024-07-09T09:16:19Z</time>
      </trkpt>
      <trkpt lat="45.07775" lon="6.14113">
        <ele>2187.3</ele>
        <time>2024-07-09T09:16:20Z</time>
      </trkpt>
      <trkpt lat="45.07774" lon="6.14113">
        <ele>2187.4</ele>
        <time>2024-07-09T09:16:21Z</time>
      </trkpt>
      <trkpt lat="45.07774" lon="6.14112">
        <ele>2187.6</ele>
        <time>2024-07-09T09:16:22Z</time>
      </trkpt>
      <trkpt lat="45.07774" lon="6.14111">
        <ele>2187.7</ele>
        <time>2024-07-09T09:16:23Z</time>
      </trkpt>
      <trkpt lat="45.07773" lon="6.14111">
        <ele>2187.9</ele>
        <time>2024-07-09T09:16:24Z</time>
      </trkpt>
      <trkpt lat="45.07773" lon="6.14111">
        <ele>2188</ele>
        <time>2024-07-09T09:16:25Z</time>
      </trkpt>
      <trkpt lat="45.07773" lon="6.14112">
        <ele>2188.2</ele>
        <time>2024-07-09T09:16:26Z</time>
      </trkpt>
      <trkpt lat="45.07774" lon="6.14112">
        <ele>2188.2</ele>
        <time>2024-07-09T09:16:27Z</time>
      </trkpt>
      <trkpt lat="45.07773" lon="6.14111">
        <ele>2188.4</ele>
        <time>2024-07-09T09:16:29Z</time>
      </trkpt>
      <trkpt lat="45.07772" lon="6.14111">
        <ele>2188.5</ele>
        <time>2024-07-09T09:16:30Z</time>
      </trkpt>
      <trkpt lat="45.07772" lon="6.1411">
        <ele>2188.7</ele>
        <time>2024-07-09T09:16:31Z</time>
      </trkpt>
      <trkpt lat="45.07771" lon="6.1411">
        <ele>2188.9</ele>
        <time>2024-07-09T09:16:32Z</time>
      </trkpt>
      <trkpt lat="45.07771" lon="6.1411">
        <ele>2189</ele>
        <time>2024-07-09T09:16:33Z</time>
      </trkpt>
      <trkpt lat="45.0777" lon="6.1411">
        <ele>2189.1</ele>
        <time>2024-07-09T09:16:34Z</time>
      </trkpt>
      <trkpt lat="45.0777" lon="6.1411">
        <ele>2189.1</ele>
        <time>2024-07-09T09:16:35Z</time>
      </trkpt>
      <trkpt lat="45.07769" lon="6.1411">
        <ele>2189.3</ele>
        <time>2024-07-09T09:16:36Z</time>
      </trkpt>
      <trkpt lat="45.07769" lon="6.1411">
        <ele>2189.4</ele>
        <time>2024-07-09T09:16:37Z</time>
      </trkpt>
      <trkpt lat="45.07769" lon="6.14109">
        <ele>2189.4</ele>
        <time>2024-07-09T09:16:39Z</time>
      </trkpt>
      <trkpt lat="45.07769" lon="6.14109">
        <ele>2189.5</ele>
        <time>2024-07-09T09:16:40Z</time>
      </trkpt>
      <trkpt lat="45.07768" lon="6.14109">
        <ele>2189.6</ele>
        <time>2024-07-09T09:16:41Z</time>
      </trkpt>
      <trkpt lat="45.07768" lon="6.14108">
        <ele>2189.8</ele>
        <time>2024-07-09T09:16:43Z</time>
      </trkpt>
      <trkpt lat="45.07768" lon="6.14107">
        <ele>2189.9</ele>
        <time>2024-07-09T09:16:44Z</time>
      </trkpt>
      <trkpt lat="45.07767" lon="6.14106">
        <ele>2190.1</ele>
        <time>2024-07-09T09:16:45Z</time>
      </trkpt>
      <trkpt lat="45.07767" lon="6.14104">
        <ele>2190.4</ele>
        <time>2024-07-09T09:16:46Z</time>
      </trkpt>
      <trkpt lat="45.07766" lon="6.14103">
        <ele>2190.6</ele>
        <time>2024-07-09T09:16:47Z</time>
      </trkpt>
      <trkpt lat="45.07766" lon="6.14102">
        <ele>2190.7</ele>
        <time>2024-07-09T09:16:48Z</time>
      </trkpt>
      <trkpt lat="45.07765" lon="6.14102">
        <ele>2190.8</ele>
        <time>2024-07-09T09:16:50Z</time>
      </trkpt>
      <trkpt lat="45.07764" lon="6.141">
        <ele>2191.2</ele>
        <time>2024-07-09T09:16:51Z</time>
      </trkpt>
      <trkpt lat="45.07763" lon="6.141">
        <ele>2191.3</ele>
        <time>2024-07-09T09:16:52Z</time>
      </trkpt>
      <trkpt lat="45.07763" lon="6.14099">
        <ele>2191.5</ele>
        <time>2024-07-09T09:16:54Z</time>
      </trkpt>
      <trkpt lat="45.07762" lon="6.14099">
        <ele>2191.6</ele>
        <time>2024-07-09T09:16:55Z</time>
      </trkpt>
      <trkpt lat="45.07762" lon="6.14098">
        <ele>2191.7</ele>
        <time>2024-07-09T09:16:56Z</time>
      </trkpt>
      <trkpt lat="45.07762" lon="6.14098">
        <ele>2191.8</ele>
        <time>2024-07-09T09:16:57Z</time>
      </trkpt>
      <trkpt lat="45.07762" lon="6.14097">
        <ele>2191.9</ele>
        <time>2024-07-09T09:16:58Z</time>
      </trkpt>
      <trkpt lat="45.07762" lon="6.14096">
        <ele>2192</ele>
        <time>2024-07-09T09:16:59Z</time>
      </trkpt>
      <trkpt lat="45.07761" lon="6.14095">
        <ele>2192.3</ele>
        <time>2024-07-09T09:17:00Z</time>
      </trkpt>
      <trkpt lat="45.0776" lon="6.14093">
        <ele>2192.6</ele>
        <time>2024-07-09T09:17:02Z</time>
      </trkpt>
      <trkpt lat="45.07759" lon="6.14092">
        <ele>2192.8</ele>
        <time>2024-07-09T09:17:04Z</time>
      </trkpt>
      <trkpt lat="45.07759" lon="6.14091">
        <ele>2192.9</ele>
        <time>2024-07-09T09:17:06Z</time>
      </trkpt>
      <trkpt lat="45.07758" lon="6.1409">
        <ele>2193.1</ele>
        <time>2024-07-09T09:17:07Z</time>
      </trkpt>
      <trkpt lat="45.07758" lon="6.1409">
        <ele>2193.3</ele>
        <time>2024-07-09T09:17:09Z</time>
      </trkpt>
      <trkpt lat="45.07757" lon="6.14089">
        <ele>2193.4</ele>
        <time>2024-07-09T09:17:10Z</time>
      </trkpt>
      <trkpt lat="45.07757" lon="6.14089">
        <ele>2193.5</ele>
        <time>2024-07-09T09:17:11Z</time>
      </trkpt>
      <trkpt lat="45.07756" lon="6.14089">
        <ele>2193.6</ele>
        <time>2024-07-09T09:17:12Z</time>
      </trkpt>
      <trkpt lat="45.07756" lon="6.14088">
        <ele>2193.7</ele>
        <time>2024-07-09T09:17:13Z</time>
      </trkpt>
      <trkpt lat="45.07755" lon="6.14088">
        <ele>2193.8</ele>
        <time>2024-07-09T09:17:14Z</time>
      </trkpt>
      <trkpt lat="45.07755" lon="6.14088">
        <ele>2193.9</ele>
        <time>2024-07-09T09:17:15Z</time>
      </trkpt>
      <trkpt lat="45.07754" lon="6.14087">
        <ele>2194</ele>
        <time>2024-07-09T09:17:16Z</time>
      </trkpt>
      <trkpt lat="45.07754" lon="6.14087">
        <ele>2194.1</ele>
        <time>2024-07-09T09:17:17Z</time>
      </trkpt>
      <trkpt lat="45.07753" lon="6.14086">
        <ele>2194.3</ele>
        <time>2024-07-09T09:17:18Z</time>
      </trkpt>
      <trkpt lat="45.07753" lon="6.14085">
        <ele>2194.5</ele>
        <time>2024-07-09T09:17:19Z</time>
      </trkpt>
      <trkpt lat="45.07752" lon="6.14085">
        <ele>2194.6</ele>
        <time>2024-07-09T09:17:20Z</time>
      </trkpt>
      <trkpt lat="45.07752" lon="6.14084">
        <ele>2194.7</ele>
        <time>2024-07-09T09:17:21Z</time>
      </trkpt>
      <trkpt lat="45.07751" lon="6.14084">
        <ele>2194.9</ele>
        <time>2024-07-09T09:17:22Z</time>
      </trkpt>
      <trkpt lat="45.0775" lon="6.14083">
        <ele>2195.1</ele>
        <time>2024-07-09T09:17:23Z</time>
      </trkpt>
      <trkpt lat="45.0775" lon="6.14083">
        <ele>2195.2</ele>
        <time>2024-07-09T09:17:24Z</time>
      </trkpt>
      <trkpt lat="45.07749" lon="6.14082">
        <ele>2195.3</ele>
        <time>2024-07-09T09:17:25Z</time>
      </trkpt>
      <trkpt lat="45.07749" lon="6.14082">
        <ele>2195.4</ele>
        <time>2024-07-09T09:17:26Z</time>
      </trkpt>
      <trkpt lat="45.07748" lon="6.14081">
        <ele>2195.5</ele>
        <time>2024-07-09T09:17:27Z</time>
      </trkpt>
      <trkpt lat="45.07748" lon="6.14081">
        <ele>2195.6</ele>
        <time>2024-07-09T09:17:28Z</time>
      </trkpt>
      <trkpt lat="45.07748" lon="6.14081">
        <ele>2195.7</ele>
        <time>2024-07-09T09:17:29Z</time>
      </trkpt>
      <trkpt lat="45.07747" lon="6.1408">
        <ele>2195.9</ele>
        <time>2024-07-09T09:17:30Z</time>
      </trkpt>
      <trkpt lat="45.07746" lon="6.14079">
        <ele>2196</ele>
        <time>2024-07-09T09:17:32Z</time>
      </trkpt>
      <trkpt lat="45.07745" lon="6.14079">
        <ele>2196.3</ele>
        <time>2024-07-09T09:17:33Z</time>
      </trkpt>
      <trkpt lat="45.07745" lon="6.14078">
        <ele>2196.4</ele>
        <time>2024-07-09T09:17:35Z</time>
      </trkpt>
      <trkpt lat="45.07744" lon="6.14077">
        <ele>2196.6</ele>
        <time>2024-07-09T09:17:36Z</time>
      </trkpt>
      <trkpt lat="45.07744" lon="6.14076">
        <ele>2196.7</ele>
        <time>2024-07-09T09:17:37Z</time>
      </trkpt>
      <trkpt lat="45.07744" lon="6.14076">
        <ele>2196.9</ele>
        <time>2024-07-09T09:17:38Z</time>
      </trkpt>
      <trkpt lat="45.07743" lon="6.14075">
        <ele>2197</ele>
        <time>2024-07-09T09:17:39Z</time>
      </trkpt>
      <trkpt lat="45.07742" lon="6.14073">
        <ele>2197.3</ele>
        <time>2024-07-09T09:17:40Z</time>
      </trkpt>
      <trkpt lat="45.07741" lon="6.14072">
        <ele>2197.5</ele>
        <time>2024-07-09T09:17:42Z</time>
      </trkpt>
      <trkpt lat="45.07741" lon="6.14072">
        <ele>2197.6</ele>
        <time>2024-07-09T09:17:43Z</time>
      </trkpt>
      <trkpt lat="45.07741" lon="6.1407">
        <ele>2198</ele>
        <time>2024-07-09T09:17:44Z</time>
      </trkpt>
      <trkpt lat="45.0774" lon="6.14068">
        <ele>2198.3</ele>
        <time>2024-07-09T09:17:46Z</time>
      </trkpt>
      <trkpt lat="45.0774" lon="6.14067">
        <ele>2198.4</ele>
        <time>2024-07-09T09:17:48Z</time>
      </trkpt>
      <trkpt lat="45.07739" lon="6.14067">
        <ele>2198.5</ele>
        <time>2024-07-09T09:17:49Z</time>
      </trkpt>
      <trkpt lat="45.07739" lon="6.14066">
        <ele>2198.6</ele>
        <time>2024-07-09T09:17:50Z</time>
      </trkpt>
      <trkpt lat="45.07739" lon="6.14066">
        <ele>2198.7</ele>
        <time>2024-07-09T09:17:51Z</time>
      </trkpt>
      <trkpt lat="45.07738" lon="6.14065">
        <ele>2198.9</ele>
        <time>2024-07-09T09:17:52Z</time>
      </trkpt>
      <trkpt lat="45.07738" lon="6.14065">
        <ele>2198.9</ele>
        <time>2024-07-09T09:17:53Z</time>
      </trkpt>
      <trkpt lat="45.07738" lon="6.14065">
        <ele>2199</ele>
        <time>2024-07-09T09:17:54Z</time>
      </trkpt>
      <trkpt lat="45.07737" lon="6.14064">
        <ele>2199.1</ele>
        <time>2024-07-09T09:17:55Z</time>
      </trkpt>
      <trkpt lat="45.07737" lon="6.14064">
        <ele>2199.2</ele>
        <time>2024-07-09T09:17:56Z</time>
      </trkpt>
      <trkpt lat="45.07737" lon="6.14063">
        <ele>2199.3</ele>
        <time>2024-07-09T09:17:58Z</time>
      </trkpt>
      <trkpt lat="45.07737" lon="6.14062">
        <ele>2199.4</ele>
        <time>2024-07-09T09:17:59Z</time>
      </trkpt>
      <trkpt lat="45.07737" lon="6.14062">
        <ele>2199.5</ele>
        <time>2024-07-09T09:18:00Z</time>
      </trkpt>
      <trkpt lat="45.07736" lon="6.14061">
        <ele>2199.6</ele>
        <time>2024-07-09T09:18:01Z</time>
      </trkpt>
      <trkpt lat="45.07736" lon="6.14061">
        <ele>2199.7</ele>
        <time>2024-07-09T09:18:02Z</time>
      </trkpt>
      <trkpt lat="45.07736" lon="6.1406">
        <ele>2199.8</ele>
        <time>2024-07-09T09:18:03Z</time>
      </trkpt>
      <trkpt lat="45.07735" lon="6.14059">
        <ele>2200</ele>
        <time>2024-07-09T09:18:04Z</time>
      </trkpt>
      <trkpt lat="45.07735" lon="6.14058">
        <ele>2200.1</ele>
        <time>2024-07-09T09:18:06Z</time>
      </trkpt>
      <trkpt lat="45.07734" lon="6.14057">
        <ele>2200.4</ele>
        <time>2024-07-09T09:18:07Z</time>
      </trkpt>
      <trkpt lat="45.07734" lon="6.14056">
        <ele>2200.5</ele>
        <time>2024-07-09T09:18:09Z</time>
      </trkpt>
      <trkpt lat="45.07733" lon="6.14055">
        <ele>2200.7</ele>
        <time>2024-07-09T09:18:10Z</time>
      </trkpt>
      <trkpt lat="45.07732" lon="6.14054">
        <ele>2200.8</ele>
        <time>2024-07-09T09:18:12Z</time>
      </trkpt>
      <trkpt lat="45.07731" lon="6.14053">
        <ele>2201.1</ele>
        <time>2024-07-09T09:18:13Z</time>
      </trkpt>
      <trkpt lat="45.07731" lon="6.14053">
        <ele>2201.1</ele>
        <time>2024-07-09T09:18:15Z</time>
      </trkpt>
      <trkpt lat="45.07731" lon="6.14052">
        <ele>2201.2</ele>
        <time>2024-07-09T09:18:16Z</time>
      </trkpt>
      <trkpt lat="45.07731" lon="6.14051">
        <ele>2201.3</ele>
        <time>2024-07-09T09:18:17Z</time>
      </trkpt>
      <trkpt lat="45.0773" lon="6.14051">
        <ele>2201.4</ele>
        <time>2024-07-09T09:18:18Z</time>
      </trkpt>
      <trkpt lat="45.0773" lon="6.1405">
        <ele>2201.4</ele>
        <time>2024-07-09T09:18:19Z</time>
      </trkpt>
      <trkpt lat="45.0773" lon="6.1405">
        <ele>2201.5</ele>
        <time>2024-07-09T09:18:20Z</time>
      </trkpt>
      <trkpt lat="45.0773" lon="6.14049">
        <ele>2201.6</ele>
        <time>2024-07-09T09:18:21Z</time>
      </trkpt>
      <trkpt lat="45.07729" lon="6.14049">
        <ele>2201.7</ele>
        <time>2024-07-09T09:18:22Z</time>
      </trkpt>
      <trkpt lat="45.07729" lon="6.14048">
        <ele>2201.8</ele>
        <time>2024-07-09T09:18:23Z</time>
      </trkpt>
      <trkpt lat="45.07728" lon="6.14048">
        <ele>2201.9</ele>
        <time>2024-07-09T09:18:24Z</time>
      </trkpt>
      <trkpt lat="45.07728" lon="6.14047">
        <ele>2202</ele>
        <time>2024-07-09T09:18:25Z</time>
      </trkpt>
      <trkpt lat="45.07727" lon="6.14046">
        <ele>2202</ele>
        <time>2024-07-09T09:18:26Z</time>
      </trkpt>
      <trkpt lat="45.07727" lon="6.14046">
        <ele>2202.1</ele>
        <time>2024-07-09T09:18:27Z</time>
      </trkpt>
      <trkpt lat="45.07726" lon="6.14045">
        <ele>2202.2</ele>
        <time>2024-07-09T09:18:28Z</time>
      </trkpt>
      <trkpt lat="45.07726" lon="6.14045">
        <ele>2202.2</ele>
        <time>2024-07-09T09:18:29Z</time>
      </trkpt>
      <trkpt lat="45.07726" lon="6.14045">
        <ele>2202.3</ele>
        <time>2024-07-09T09:18:30Z</time>
      </trkpt>
      <trkpt lat="45.07725" lon="6.14044">
        <ele>2202.4</ele>
        <time>2024-07-09T09:18:31Z</time>
      </trkpt>
      <trkpt lat="45.07724" lon="6.14043">
        <ele>2202.5</ele>
        <time>2024-07-09T09:18:32Z</time>
      </trkpt>
      <trkpt lat="45.07724" lon="6.14042">
        <ele>2202.5</ele>
        <time>2024-07-09T09:18:34Z</time>
      </trkpt>
      <trkpt lat="45.07723" lon="6.14041">
        <ele>2202.6</ele>
        <time>2024-07-09T09:18:35Z</time>
      </trkpt>
      <trkpt lat="45.07722" lon="6.1404">
        <ele>2202.7</ele>
        <time>2024-07-09T09:18:36Z</time>
      </trkpt>
      <trkpt lat="45.07721" lon="6.14039">
        <ele>2202.7</ele>
        <time>2024-07-09T09:18:38Z</time>
      </trkpt>
      <trkpt lat="45.07721" lon="6.14038">
        <ele>2202.7</ele>
        <time>2024-07-09T09:18:39Z</time>
      </trkpt>
      <trkpt lat="45.07721" lon="6.14037">
        <ele>2202.7</ele>
        <time>2024-07-09T09:18:40Z</time>
      </trkpt>
      <trkpt lat="45.0772" lon="6.14035">
        <ele>2202.7</ele>
        <time>2024-07-09T09:18:41Z</time>
      </trkpt>
      <trkpt lat="45.07719" lon="6.14034">
        <ele>2202.7</ele>
        <time>2024-07-09T09:18:42Z</time>
      </trkpt>
      <trkpt lat="45.07719" lon="6.14033">
        <ele>2202.7</ele>
        <time>2024-07-09T09:18:43Z</time>
      </trkpt>
      <trkpt lat="45.07718" lon="6.14032">
        <ele>2202.7</ele>
        <time>2024-07-09T09:18:44Z</time>
      </trkpt>
      <trkpt lat="45.07718" lon="6.14032">
        <ele>2202.7</ele>
        <time>2024-07-09T09:18:45Z</time>
      </trkpt>
      <trkpt lat="45.07717" lon="6.1403">
        <ele>2202.6</ele>
        <time>2024-07-09T09:18:46Z</time>
      </trkpt>
      <trkpt lat="45.07716" lon="6.14029">
        <ele>2202.6</ele>
        <time>2024-07-09T09:18:48Z</time>
      </trkpt>
      <trkpt lat="45.07715" lon="6.14028">
        <ele>2202.5</ele>
        <time>2024-07-09T09:18:49Z</time>
      </trkpt>
      <trkpt lat="45.07715" lon="6.14025">
        <ele>2202.4</ele>
        <time>2024-07-09T09:18:50Z</time>
      </trkpt>
      <trkpt lat="45.07714" lon="6.14023">
        <ele>2202.4</ele>
        <time>2024-07-09T09:18:52Z</time>
      </trkpt>
      <trkpt lat="45.07714" lon="6.14022">
        <ele>2202.3</ele>
        <time>2024-07-09T09:18:53Z</time>
      </trkpt>
      <trkpt lat="45.07714" lon="6.14019">
        <ele>2202.2</ele>
        <time>2024-07-09T09:18:54Z</time>
      </trkpt>
      <trkpt lat="45.07713" lon="6.14016">
        <ele>2202.1</ele>
        <time>2024-07-09T09:18:56Z</time>
      </trkpt>
      <trkpt lat="45.07713" lon="6.14014">
        <ele>2202</ele>
        <time>2024-07-09T09:18:57Z</time>
      </trkpt>
      <trkpt lat="45.07713" lon="6.14012">
        <ele>2202</ele>
        <time>2024-07-09T09:18:58Z</time>
      </trkpt>
      <trkpt lat="45.07714" lon="6.1401">
        <ele>2202</ele>
        <time>2024-07-09T09:18:59Z</time>
      </trkpt>
      <trkpt lat="45.07714" lon="6.14009">
        <ele>2202</ele>
        <time>2024-07-09T09:19:00Z</time>
      </trkpt>
      <trkpt lat="45.07714" lon="6.14008">
        <ele>2201.9</ele>
        <time>2024-07-09T09:19:02Z</time>
      </trkpt>
      <trkpt lat="45.07713" lon="6.14005">
        <ele>2201.9</ele>
        <time>2024-07-09T09:19:03Z</time>
      </trkpt>
      <trkpt lat="45.07713" lon="6.14001">
        <ele>2201.9</ele>
        <time>2024-07-09T09:19:05Z</time>
      </trkpt>
      <trkpt lat="45.07713" lon="6.14">
        <ele>2201.9</ele>
        <time>2024-07-09T09:19:06Z</time>
      </trkpt>
      <trkpt lat="45.07713" lon="6.13998">
        <ele>2201.9</ele>
        <time>2024-07-09T09:19:07Z</time>
      </trkpt>
      <trkpt lat="45.07712" lon="6.13997">
        <ele>2201.9</ele>
        <time>2024-07-09T09:19:08Z</time>
      </trkpt>
      <trkpt lat="45.07711" lon="6.13998">
        <ele>2201.8</ele>
        <time>2024-07-09T09:19:10Z</time>
      </trkpt>
      <trkpt lat="45.07712" lon="6.14">
        <ele>2201.8</ele>
        <time>2024-07-09T09:19:11Z</time>
      </trkpt>
      <trkpt lat="45.07712" lon="6.13999">
        <ele>2201.8</ele>
        <time>2024-07-09T09:19:13Z</time>
      </trkpt>
      <trkpt lat="45.07712" lon="6.13998">
        <ele>2201.8</ele>
        <time>2024-07-09T09:19:14Z</time>
      </trkpt>
      <trkpt lat="45.07712" lon="6.13999">
        <ele>2201.8</ele>
        <time>2024-07-09T09:19:15Z</time>
      </trkpt>
      <trkpt lat="45.07712" lon="6.13998">
        <ele>2201.7</ele>
        <time>2024-07-09T09:19:16Z</time>
      </trkpt>
      <trkpt lat="45.07711" lon="6.13998">
        <ele>2201.7</ele>
        <time>2024-07-09T09:19:17Z</time>
      </trkpt>
      <trkpt lat="45.07711" lon="6.13999">
        <ele>2201.7</ele>
        <time>2024-07-09T09:19:18Z</time>
      </trkpt>
      <trkpt lat="45.07711" lon="6.13999">
        <ele>2201.7</ele>
        <time>2024-07-09T09:19:19Z</time>
      </trkpt>
      <trkpt lat="45.0771" lon="6.13998">
        <ele>2201.6</ele>
        <time>2024-07-09T09:19:20Z</time>
      </trkpt>
      <trkpt lat="45.0771" lon="6.13998">
        <ele>2201.6</ele>
        <time>2024-07-09T09:19:21Z</time>
      </trkpt>
      <trkpt lat="45.0771" lon="6.13997">
        <ele>2201.6</ele>
        <time>2024-07-09T09:19:22Z</time>
      </trkpt>
      <trkpt lat="45.0771" lon="6.13997">
        <ele>2201.5</ele>
        <time>2024-07-09T09:19:23Z</time>
      </trkpt>
      <trkpt lat="45.07709" lon="6.13998">
        <ele>2201.5</ele>
        <time>2024-07-09T09:19:24Z</time>
      </trkpt>
      <trkpt lat="45.07709" lon="6.13998">
        <ele>2201.5</ele>
        <time>2024-07-09T09:19:25Z</time>
      </trkpt>
      <trkpt lat="45.07709" lon="6.13998">
        <ele>2201.5</ele>
        <time>2024-07-09T09:19:26Z</time>
      </trkpt>
      <trkpt lat="45.07709" lon="6.13998">
        <ele>2201.5</ele>
        <time>2024-07-09T09:19:28Z</time>
      </trkpt>
      <trkpt lat="45.07708" lon="6.13998">
        <ele>2201.4</ele>
        <time>2024-07-09T09:19:29Z</time>
      </trkpt>
      <trkpt lat="45.07708" lon="6.13998">
        <ele>2201.4</ele>
        <time>2024-07-09T09:19:30Z</time>
      </trkpt>
      <trkpt lat="45.07708" lon="6.13998">
        <ele>2201.4</ele>
        <time>2024-07-09T09:19:31Z</time>
      </trkpt>
      <trkpt lat="45.07708" lon="6.13998">
        <ele>2201.4</ele>
        <time>2024-07-09T09:19:32Z</time>
      </trkpt>
      <trkpt lat="45.07708" lon="6.13998">
        <ele>2201.4</ele>
        <time>2024-07-09T09:19:33Z</time>
      </trkpt>
      <trkpt lat="45.07708" lon="6.13998">
        <ele>2201.4</ele>
        <time>2024-07-09T09:19:34Z</time>
      </trkpt>
      <trkpt lat="45.07708" lon="6.13998">
        <ele>2201.4</ele>
        <time>2024-07-09T09:19:35Z</time>
      </trkpt>
      <trkpt lat="45.07708" lon="6.13998">
        <ele>2201.4</ele>
        <time>2024-07-09T09:19:36Z</time>
      </trkpt>
      <trkpt lat="45.07708" lon="6.13997">
        <ele>2201.3</ele>
        <time>2024-07-09T09:19:37Z</time>
      </trkpt>
      <trkpt lat="45.07707" lon="6.13997">
        <ele>2201.3</ele>
        <time>2024-07-09T09:19:38Z</time>
      </trkpt>
      <trkpt lat="45.07707" lon="6.13997">
        <ele>2201.3</ele>
        <time>2024-07-09T09:19:39Z</time>
      </trkpt>
      <trkpt lat="45.07707" lon="6.13997">
        <ele>2201.3</ele>
        <time>2024-07-09T09:19:41Z</time>
      </trkpt>
      <trkpt lat="45.07706" lon="6.13997">
        <ele>2201.2</ele>
        <time>2024-07-09T09:19:42Z</time>
      </trkpt>
      <trkpt lat="45.07706" lon="6.13996">
        <ele>2201.1</ele>
        <time>2024-07-09T09:19:43Z</time>
      </trkpt>
      <trkpt lat="45.07705" lon="6.13995">
        <ele>2201.1</ele>
        <time>2024-07-09T09:19:45Z</time>
      </trkpt>
      <trkpt lat="45.07703" lon="6.13993">
        <ele>2200.9</ele>
        <time>2024-07-09T09:19:46Z</time>
      </trkpt>
      <trkpt lat="45.07702" lon="6.13993">
        <ele>2200.8</ele>
        <time>2024-07-09T09:19:48Z</time>
      </trkpt>
      <trkpt lat="45.07701" lon="6.13992">
        <ele>2200.7</ele>
        <time>2024-07-09T09:19:49Z</time>
      </trkpt>
      <trkpt lat="45.077" lon="6.13992">
        <ele>2200.6</ele>
        <time>2024-07-09T09:19:51Z</time>
      </trkpt>
      <trkpt lat="45.07699" lon="6.1399">
        <ele>2200.6</ele>
        <time>2024-07-09T09:19:52Z</time>
      </trkpt>
      <trkpt lat="45.07699" lon="6.1399">
        <ele>2200.5</ele>
        <time>2024-07-09T09:19:53Z</time>
      </trkpt>
      <trkpt lat="45.07698" lon="6.13989">
        <ele>2200.4</ele>
        <time>2024-07-09T09:19:54Z</time>
      </trkpt>
      <trkpt lat="45.07696" lon="6.13986">
        <ele>2200.3</ele>
        <time>2024-07-09T09:19:55Z</time>
      </trkpt>
      <trkpt lat="45.07695" lon="6.13984">
        <ele>2200.3</ele>
        <time>2024-07-09T09:19:57Z</time>
      </trkpt>
      <trkpt lat="45.07694" lon="6.13983">
        <ele>2200.2</ele>
        <time>2024-07-09T09:19:58Z</time>
      </trkpt>
      <trkpt lat="45.07694" lon="6.13982">
        <ele>2200.2</ele>
        <time>2024-07-09T09:19:59Z</time>
      </trkpt>
      <trkpt lat="45.07693" lon="6.1398">
        <ele>2200.1</ele>
        <time>2024-07-09T09:20:00Z</time>
      </trkpt>
      <trkpt lat="45.07694" lon="6.13979">
        <ele>2200.1</ele>
        <time>2024-07-09T09:20:01Z</time>
      </trkpt>
      <trkpt lat="45.07693" lon="6.13977">
        <ele>2200.1</ele>
        <time>2024-07-09T09:20:02Z</time>
      </trkpt>
      <trkpt lat="45.07692" lon="6.13977">
        <ele>2200</ele>
        <time>2024-07-09T09:20:03Z</time>
      </trkpt>
      <trkpt lat="45.07692" lon="6.13976">
        <ele>2200</ele>
        <time>2024-07-09T09:20:04Z</time>
      </trkpt>
      <trkpt lat="45.07691" lon="6.13976">
        <ele>2200</ele>
        <time>2024-07-09T09:20:05Z</time>
      </trkpt>
      <trkpt lat="45.0769" lon="6.13976">
        <ele>2199.9</ele>
        <time>2024-07-09T09:20:06Z</time>
      </trkpt>
      <trkpt lat="45.07689" lon="6.13975">
        <ele>2199.9</ele>
        <time>2024-07-09T09:20:07Z</time>
      </trkpt>
      <trkpt lat="45.07688" lon="6.13974">
        <ele>2199.8</ele>
        <time>2024-07-09T09:20:08Z</time>
      </trkpt>
      <trkpt lat="45.07687" lon="6.13972">
        <ele>2199.8</ele>
        <time>2024-07-09T09:20:09Z</time>
      </trkpt>
      <trkpt lat="45.07686" lon="6.13972">
        <ele>2199.7</ele>
        <time>2024-07-09T09:20:11Z</time>
      </trkpt>
      <trkpt lat="45.07685" lon="6.13971">
        <ele>2199.7</ele>
        <time>2024-07-09T09:20:12Z</time>
      </trkpt>
      <trkpt lat="45.07685" lon="6.13971">
        <ele>2199.7</ele>
        <time>2024-07-09T09:20:13Z</time>
      </trkpt>
      <trkpt lat="45.07684" lon="6.13971">
        <ele>2199.6</ele>
        <time>2024-07-09T09:20:14Z</time>
      </trkpt>
      <trkpt lat="45.07683" lon="6.1397">
        <ele>2199.6</ele>
        <time>2024-07-09T09:20:15Z</time>
      </trkpt>
      <trkpt lat="45.07682" lon="6.13969">
        <ele>2199.5</ele>
        <time>2024-07-09T09:20:17Z</time>
      </trkpt>
      <trkpt lat="45.07682" lon="6.13969">
        <ele>2199.5</ele>
        <time>2024-07-09T09:20:18Z</time>
      </trkpt>
      <trkpt lat="45.07681" lon="6.13969">
        <ele>2199.4</ele>
        <time>2024-07-09T09:20:19Z</time>
      </trkpt>
      <trkpt lat="45.0768" lon="6.13969">
        <ele>2199.3</ele>
        <time>2024-07-09T09:20:20Z</time>
      </trkpt>
      <trkpt lat="45.07679" lon="6.13969">
        <ele>2199.3</ele>
        <time>2024-07-09T09:20:22Z</time>
      </trkpt>
      <trkpt lat="45.07679" lon="6.1397">
        <ele>2199.2</ele>
        <time>2024-07-09T09:20:24Z</time>
      </trkpt>
      <trkpt lat="45.07678" lon="6.13971">
        <ele>2199.2</ele>
        <time>2024-07-09T09:20:25Z</time>
      </trkpt>
      <trkpt lat="45.07678" lon="6.13971">
        <ele>2199.2</ele>
        <time>2024-07-09T09:20:26Z</time>
      </trkpt>
      <trkpt lat="45.07678" lon="6.13971">
        <ele>2199.1</ele>
        <time>2024-07-09T09:20:27Z</time>
      </trkpt>
      <trkpt lat="45.07677" lon="6.1397">
        <ele>2199.1</ele>
        <time>2024-07-09T09:20:28Z</time>
      </trkpt>
      <trkpt lat="45.07677" lon="6.1397">
        <ele>2199.1</ele>
        <time>2024-07-09T09:20:29Z</time>
      </trkpt>
      <trkpt lat="45.07675" lon="6.13969">
        <ele>2199</ele>
        <time>2024-07-09T09:20:30Z</time>
      </trkpt>
      <trkpt lat="45.07675" lon="6.13966">
        <ele>2198.9</ele>
        <time>2024-07-09T09:20:32Z</time>
      </trkpt>
      <trkpt lat="45.07675" lon="6.13965">
        <ele>2198.8</ele>
        <time>2024-07-09T09:20:33Z</time>
      </trkpt>
      <trkpt lat="45.07675" lon="6.13963">
        <ele>2198.8</ele>
        <time>2024-07-09T09:20:35Z</time>
      </trkpt>
      <trkpt lat="45.07675" lon="6.13962">
        <ele>2198.8</ele>
        <time>2024-07-09T09:20:36Z</time>
      </trkpt>
      <trkpt lat="45.07674" lon="6.1396">
        <ele>2198.8</ele>
        <time>2024-07-09T09:20:37Z</time>
      </trkpt>
      <trkpt lat="45.07673" lon="6.13959">
        <ele>2198.8</ele>
        <time>2024-07-09T09:20:38Z</time>
      </trkpt>
      <trkpt lat="45.07672" lon="6.13959">
        <ele>2198.8</ele>
        <time>2024-07-09T09:20:40Z</time>
      </trkpt>
      <trkpt lat="45.07671" lon="6.13959">
        <ele>2198.8</ele>
        <time>2024-07-09T09:20:41Z</time>
      </trkpt>
      <trkpt lat="45.07671" lon="6.13958">
        <ele>2198.8</ele>
        <time>2024-07-09T09:20:42Z</time>
      </trkpt>
      <trkpt lat="45.0767" lon="6.13958">
        <ele>2198.8</ele>
        <time>2024-07-09T09:20:43Z</time>
      </trkpt>
      <trkpt lat="45.07669" lon="6.13957">
        <ele>2198.9</ele>
        <time>2024-07-09T09:20:44Z</time>
      </trkpt>
      <trkpt lat="45.07668" lon="6.13956">
        <ele>2198.9</ele>
        <time>2024-07-09T09:20:45Z</time>
      </trkpt>
      <trkpt lat="45.07668" lon="6.13955">
        <ele>2198.9</ele>
        <time>2024-07-09T09:20:46Z</time>
      </trkpt>
      <trkpt lat="45.07667" lon="6.13954">
        <ele>2199.1</ele>
        <time>2024-07-09T09:20:47Z</time>
      </trkpt>
      <trkpt lat="45.07666" lon="6.13953">
        <ele>2199.1</ele>
        <time>2024-07-09T09:20:48Z</time>
      </trkpt>
      <trkpt lat="45.07666" lon="6.13952">
        <ele>2199.2</ele>
        <time>2024-07-09T09:20:49Z</time>
      </trkpt>
      <trkpt lat="45.07665" lon="6.13951">
        <ele>2199.2</ele>
        <time>2024-07-09T09:20:50Z</time>
      </trkpt>
      <trkpt lat="45.07664" lon="6.1395">
        <ele>2199.3</ele>
        <time>2024-07-09T09:20:51Z</time>
      </trkpt>
      <trkpt lat="45.07664" lon="6.13949">
        <ele>2199.5</ele>
        <time>2024-07-09T09:20:52Z</time>
      </trkpt>
      <trkpt lat="45.07663" lon="6.13949">
        <ele>2199.5</ele>
        <time>2024-07-09T09:20:53Z</time>
      </trkpt>
      <trkpt lat="45.07663" lon="6.13948">
        <ele>2199.7</ele>
        <time>2024-07-09T09:20:54Z</time>
      </trkpt>
      <trkpt lat="45.07662" lon="6.13947">
        <ele>2199.7</ele>
        <time>2024-07-09T09:20:55Z</time>
      </trkpt>
      <trkpt lat="45.07662" lon="6.13946">
        <ele>2199.9</ele>
        <time>2024-07-09T09:20:56Z</time>
      </trkpt>
      <trkpt lat="45.07661" lon="6.13944">
        <ele>2200.1</ele>
        <time>2024-07-09T09:20:57Z</time>
      </trkpt>
      <trkpt lat="45.07661" lon="6.13943">
        <ele>2200.2</ele>
        <time>2024-07-09T09:20:58Z</time>
      </trkpt>
      <trkpt lat="45.07662" lon="6.13941">
        <ele>2200.5</ele>
        <time>2024-07-09T09:21:00Z</time>
      </trkpt>
      <trkpt lat="45.07663" lon="6.1394">
        <ele>2200.7</ele>
        <time>2024-07-09T09:21:02Z</time>
      </trkpt>
      <trkpt lat="45.07663" lon="6.13939">
        <ele>2200.8</ele>
        <time>2024-07-09T09:21:03Z</time>
      </trkpt>
      <trkpt lat="45.07664" lon="6.13938">
        <ele>2201</ele>
        <time>2024-07-09T09:21:04Z</time>
      </trkpt>
      <trkpt lat="45.07664" lon="6.13937">
        <ele>2201.3</ele>
        <time>2024-07-09T09:21:05Z</time>
      </trkpt>
      <trkpt lat="45.07665" lon="6.13936">
        <ele>2201.4</ele>
        <time>2024-07-09T09:21:06Z</time>
      </trkpt>
      <trkpt lat="45.07666" lon="6.13935">
        <ele>2201.7</ele>
        <time>2024-07-09T09:21:07Z</time>
      </trkpt>
      <trkpt lat="45.07666" lon="6.13935">
        <ele>2201.8</ele>
        <time>2024-07-09T09:21:08Z</time>
      </trkpt>
      <trkpt lat="45.07667" lon="6.13934">
        <ele>2202</ele>
        <time>2024-07-09T09:21:09Z</time>
      </trkpt>
      <trkpt lat="45.07667" lon="6.13934">
        <ele>2202.1</ele>
        <time>2024-07-09T09:21:10Z</time>
      </trkpt>
      <trkpt lat="45.07668" lon="6.13934">
        <ele>2202.2</ele>
        <time>2024-07-09T09:21:11Z</time>
      </trkpt>
      <trkpt lat="45.07668" lon="6.13933">
        <ele>2202.4</ele>
        <time>2024-07-09T09:21:12Z</time>
      </trkpt>
      <trkpt lat="45.07669" lon="6.13933">
        <ele>2202.5</ele>
        <time>2024-07-09T09:21:13Z</time>
      </trkpt>
      <trkpt lat="45.0767" lon="6.13932">
        <ele>2202.8</ele>
        <time>2024-07-09T09:21:14Z</time>
      </trkpt>
      <trkpt lat="45.0767" lon="6.13932">
        <ele>2203</ele>
        <time>2024-07-09T09:21:15Z</time>
      </trkpt>
      <trkpt lat="45.07671" lon="6.13931">
        <ele>2203.2</ele>
        <time>2024-07-09T09:21:16Z</time>
      </trkpt>
      <trkpt lat="45.07672" lon="6.13931">
        <ele>2203.4</ele>
        <time>2024-07-09T09:21:17Z</time>
      </trkpt>
      <trkpt lat="45.07673" lon="6.1393">
        <ele>2203.8</ele>
        <time>2024-07-09T09:21:18Z</time>
      </trkpt>
      <trkpt lat="45.07673" lon="6.13928">
        <ele>2204.1</ele>
        <time>2024-07-09T09:21:20Z</time>
      </trkpt>
      <trkpt lat="45.07673" lon="6.13927">
        <ele>2204.2</ele>
        <time>2024-07-09T09:21:21Z</time>
      </trkpt>
      <trkpt lat="45.07673" lon="6.13926">
        <ele>2204.5</ele>
        <time>2024-07-09T09:21:22Z</time>
      </trkpt>
      <trkpt lat="45.07673" lon="6.13926">
        <ele>2204.6</ele>
        <time>2024-07-09T09:21:23Z</time>
      </trkpt>
      <trkpt lat="45.07672" lon="6.13925">
        <ele>2204.8</ele>
        <time>2024-07-09T09:21:24Z</time>
      </trkpt>
      <trkpt lat="45.07672" lon="6.13924">
        <ele>2205</ele>
        <time>2024-07-09T09:21:25Z</time>
      </trkpt>
      <trkpt lat="45.07672" lon="6.13924">
        <ele>2205.2</ele>
        <time>2024-07-09T09:21:26Z</time>
      </trkpt>
      <trkpt lat="45.07671" lon="6.13922">
        <ele>2205.6</ele>
        <time>2024-07-09T09:21:27Z</time>
      </trkpt>
      <trkpt lat="45.07671" lon="6.13922">
        <ele>2205.7</ele>
        <time>2024-07-09T09:21:28Z</time>
      </trkpt>
      <trkpt lat="45.07671" lon="6.13922">
        <ele>2205.8</ele>
        <time>2024-07-09T09:21:29Z</time>
      </trkpt>
      <trkpt lat="45.0767" lon="6.13921">
        <ele>2206.1</ele>
        <time>2024-07-09T09:21:30Z</time>
      </trkpt>
      <trkpt lat="45.0767" lon="6.1392">
        <ele>2206.4</ele>
        <time>2024-07-09T09:21:32Z</time>
      </trkpt>
      <trkpt lat="45.0767" lon="6.1392">
        <ele>2206.4</ele>
        <time>2024-07-09T09:21:34Z</time>
      </trkpt>
      <trkpt lat="45.07669" lon="6.1392">
        <ele>2206.4</ele>
        <time>2024-07-09T09:21:35Z</time>
      </trkpt>
      <trkpt lat="45.07669" lon="6.1392">
        <ele>2206.5</ele>
        <time>2024-07-09T09:21:36Z</time>
      </trkpt>
      <trkpt lat="45.07669" lon="6.13921">
        <ele>2206.6</ele>
        <time>2024-07-09T09:21:37Z</time>
      </trkpt>
      <trkpt lat="45.07668" lon="6.1392">
        <ele>2206.8</ele>
        <time>2024-07-09T09:21:38Z</time>
      </trkpt>
      <trkpt lat="45.07668" lon="6.1392">
        <ele>2206.9</ele>
        <time>2024-07-09T09:21:39Z</time>
      </trkpt>
      <trkpt lat="45.07668" lon="6.1392">
        <ele>2207</ele>
        <time>2024-07-09T09:21:40Z</time>
      </trkpt>
      <trkpt lat="45.07667" lon="6.1392">
        <ele>2207.2</ele>
        <time>2024-07-09T09:21:41Z</time>
      </trkpt>
      <trkpt lat="45.07667" lon="6.1392">
        <ele>2207.3</ele>
        <time>2024-07-09T09:21:42Z</time>
      </trkpt>
      <trkpt lat="45.07667" lon="6.13919">
        <ele>2207.4</ele>
        <time>2024-07-09T09:21:43Z</time>
      </trkpt>
      <trkpt lat="45.07668" lon="6.13919">
        <ele>2207.5</ele>
        <time>2024-07-09T09:21:44Z</time>
      </trkpt>
      <trkpt lat="45.07668" lon="6.13919">
        <ele>2207.6</ele>
        <time>2024-07-09T09:21:45Z</time>
      </trkpt>
      <trkpt lat="45.07669" lon="6.13918">
        <ele>2207.9</ele>
        <time>2024-07-09T09:21:46Z</time>
      </trkpt>
      <trkpt lat="45.0767" lon="6.13918">
        <ele>2208.3</ele>
        <time>2024-07-09T09:21:47Z</time>
      </trkpt>
      <trkpt lat="45.07671" lon="6.13917">
        <ele>2208.4</ele>
        <time>2024-07-09T09:21:48Z</time>
      </trkpt>
      <trkpt lat="45.07671" lon="6.13916">
        <ele>2208.5</ele>
        <time>2024-07-09T09:21:49Z</time>
      </trkpt>
      <trkpt lat="45.07672" lon="6.13915">
        <ele>2208.6</ele>
        <time>2024-07-09T09:21:50Z</time>
      </trkpt>
      <trkpt lat="45.07672" lon="6.13915">
        <ele>2208.7</ele>
        <time>2024-07-09T09:21:51Z</time>
      </trkpt>
      <trkpt lat="45.07672" lon="6.13913">
        <ele>2208.9</ele>
        <time>2024-07-09T09:21:52Z</time>
      </trkpt>
      <trkpt lat="45.07672" lon="6.13912">
        <ele>2209</ele>
        <time>2024-07-09T09:21:53Z</time>
      </trkpt>
      <trkpt lat="45.07671" lon="6.13911">
        <ele>2209.2</ele>
        <time>2024-07-09T09:21:54Z</time>
      </trkpt>
      <trkpt lat="45.0767" lon="6.13911">
        <ele>2209.2</ele>
        <time>2024-07-09T09:21:56Z</time>
      </trkpt>
      <trkpt lat="45.0767" lon="6.1391">
        <ele>2209.3</ele>
        <time>2024-07-09T09:21:57Z</time>
      </trkpt>
      <trkpt lat="45.07669" lon="6.13909">
        <ele>2209.4</ele>
        <time>2024-07-09T09:21:58Z</time>
      </trkpt>
      <trkpt lat="45.07669" lon="6.13909">
        <ele>2209.4</ele>
        <time>2024-07-09T09:21:59Z</time>
      </trkpt>
      <trkpt lat="45.07669" lon="6.13909">
        <ele>2209.5</ele>
        <time>2024-07-09T09:22:00Z</time>
      </trkpt>
      <trkpt lat="45.07668" lon="6.13908">
        <ele>2209.6</ele>
        <time>2024-07-09T09:22:01Z</time>
      </trkpt>
      <trkpt lat="45.07667" lon="6.13908">
        <ele>2209.8</ele>
        <time>2024-07-09T09:22:02Z</time>
      </trkpt>
      <trkpt lat="45.07666" lon="6.13907">
        <ele>2209.8</ele>
        <time>2024-07-09T09:22:03Z</time>
      </trkpt>
      <trkpt lat="45.07666" lon="6.13907">
        <ele>2209.9</ele>
        <time>2024-07-09T09:22:04Z</time>
      </trkpt>
      <trkpt lat="45.07665" lon="6.13907">
        <ele>2210</ele>
        <time>2024-07-09T09:22:05Z</time>
      </trkpt>
      <trkpt lat="45.07664" lon="6.13906">
        <ele>2210.1</ele>
        <time>2024-07-09T09:22:06Z</time>
      </trkpt>
      <trkpt lat="45.07662" lon="6.13904">
        <ele>2210.3</ele>
        <time>2024-07-09T09:22:07Z</time>
      </trkpt>
      <trkpt lat="45.07662" lon="6.13904">
        <ele>2210.4</ele>
        <time>2024-07-09T09:22:09Z</time>
      </trkpt>
      <trkpt lat="45.07661" lon="6.13904">
        <ele>2210.4</ele>
        <time>2024-07-09T09:22:10Z</time>
      </trkpt>
      <trkpt lat="45.0766" lon="6.13903">
        <ele>2210.5</ele>
        <time>2024-07-09T09:22:11Z</time>
      </trkpt>
      <trkpt lat="45.07659" lon="6.13903">
        <ele>2210.6</ele>
        <time>2024-07-09T09:22:12Z</time>
      </trkpt>
      <trkpt lat="45.07659" lon="6.13902">
        <ele>2210.6</ele>
        <time>2024-07-09T09:22:13Z</time>
      </trkpt>
      <trkpt lat="45.07658" lon="6.13901">
        <ele>2210.7</ele>
        <time>2024-07-09T09:22:14Z</time>
      </trkpt>
      <trkpt lat="45.07658" lon="6.139">
        <ele>2210.7</ele>
        <time>2024-07-09T09:22:15Z</time>
      </trkpt>
      <trkpt lat="45.07657" lon="6.13899">
        <ele>2210.8</ele>
        <time>2024-07-09T09:22:16Z</time>
      </trkpt>
      <trkpt lat="45.07656" lon="6.13898">
        <ele>2210.9</ele>
        <time>2024-07-09T09:22:17Z</time>
      </trkpt>
      <trkpt lat="45.07656" lon="6.13897">
        <ele>2211</ele>
        <time>2024-07-09T09:22:18Z</time>
      </trkpt>
      <trkpt lat="45.07655" lon="6.13896">
        <ele>2211.1</ele>
        <time>2024-07-09T09:22:19Z</time>
      </trkpt>
      <trkpt lat="45.07655" lon="6.13895">
        <ele>2211.1</ele>
        <time>2024-07-09T09:22:20Z</time>
      </trkpt>
      <trkpt lat="45.07654" lon="6.13895">
        <ele>2211.2</ele>
        <time>2024-07-09T09:22:21Z</time>
      </trkpt>
      <trkpt lat="45.07653" lon="6.13894">
        <ele>2211.3</ele>
        <time>2024-07-09T09:22:22Z</time>
      </trkpt>
      <trkpt lat="45.07653" lon="6.13893">
        <ele>2211.4</ele>
        <time>2024-07-09T09:22:23Z</time>
      </trkpt>
      <trkpt lat="45.07652" lon="6.13891">
        <ele>2211.5</ele>
        <time>2024-07-09T09:22:24Z</time>
      </trkpt>
      <trkpt lat="45.07652" lon="6.1389">
        <ele>2211.6</ele>
        <time>2024-07-09T09:22:26Z</time>
      </trkpt>
      <trkpt lat="45.07651" lon="6.13889">
        <ele>2211.7</ele>
        <time>2024-07-09T09:22:27Z</time>
      </trkpt>
      <trkpt lat="45.07651" lon="6.13888">
        <ele>2211.7</ele>
        <time>2024-07-09T09:22:28Z</time>
      </trkpt>
      <trkpt lat="45.07651" lon="6.13888">
        <ele>2211.8</ele>
        <time>2024-07-09T09:22:29Z</time>
      </trkpt>
      <trkpt lat="45.0765" lon="6.13887">
        <ele>2211.9</ele>
        <time>2024-07-09T09:22:30Z</time>
      </trkpt>
      <trkpt lat="45.0765" lon="6.13886">
        <ele>2212</ele>
        <time>2024-07-09T09:22:31Z</time>
      </trkpt>
      <trkpt lat="45.0765" lon="6.13884">
        <ele>2212.2</ele>
        <time>2024-07-09T09:22:32Z</time>
      </trkpt>
      <trkpt lat="45.07649" lon="6.13883">
        <ele>2212.3</ele>
        <time>2024-07-09T09:22:33Z</time>
      </trkpt>
      <trkpt lat="45.07649" lon="6.13882">
        <ele>2212.3</ele>
        <time>2024-07-09T09:22:34Z</time>
      </trkpt>
      <trkpt lat="45.07648" lon="6.13881">
        <ele>2212.5</ele>
        <time>2024-07-09T09:22:36Z</time>
      </trkpt>
      <trkpt lat="45.07648" lon="6.13879">
        <ele>2212.7</ele>
        <time>2024-07-09T09:22:37Z</time>
      </trkpt>
      <trkpt lat="45.07647" lon="6.13878">
        <ele>2212.9</ele>
        <time>2024-07-09T09:22:39Z</time>
      </trkpt>
      <trkpt lat="45.07646" lon="6.13878">
        <ele>2212.9</ele>
        <time>2024-07-09T09:22:41Z</time>
      </trkpt>
      <trkpt lat="45.07645" lon="6.13876">
        <ele>2213.2</ele>
        <time>2024-07-09T09:22:42Z</time>
      </trkpt>
      <trkpt lat="45.07645" lon="6.13876">
        <ele>2213.3</ele>
        <time>2024-07-09T09:22:44Z</time>
      </trkpt>
      <trkpt lat="45.07644" lon="6.13875">
        <ele>2213.4</ele>
        <time>2024-07-09T09:22:45Z</time>
      </trkpt>
      <trkpt lat="45.07643" lon="6.13874">
        <ele>2213.5</ele>
        <time>2024-07-09T09:22:46Z</time>
      </trkpt>
      <trkpt lat="45.07642" lon="6.13873">
        <ele>2213.7</ele>
        <time>2024-07-09T09:22:47Z</time>
      </trkpt>
      <trkpt lat="45.07642" lon="6.13873">
        <ele>2213.8</ele>
        <time>2024-07-09T09:22:48Z</time>
      </trkpt>
      <trkpt lat="45.07641" lon="6.13873">
        <ele>2213.9</ele>
        <time>2024-07-09T09:22:49Z</time>
      </trkpt>
      <trkpt lat="45.07641" lon="6.13872">
        <ele>2214</ele>
        <time>2024-07-09T09:22:50Z</time>
      </trkpt>
      <trkpt lat="45.07641" lon="6.13871">
        <ele>2214.1</ele>
        <time>2024-07-09T09:22:51Z</time>
      </trkpt>
      <trkpt lat="45.0764" lon="6.1387">
        <ele>2214.3</ele>
        <time>2024-07-09T09:22:52Z</time>
      </trkpt>
      <trkpt lat="45.0764" lon="6.1387">
        <ele>2214.3</ele>
        <time>2024-07-09T09:22:53Z</time>
      </trkpt>
      <trkpt lat="45.07639" lon="6.1387">
        <ele>2214.5</ele>
        <time>2024-07-09T09:22:54Z</time>
      </trkpt>
      <trkpt lat="45.07638" lon="6.13869">
        <ele>2214.6</ele>
        <time>2024-07-09T09:22:55Z</time>
      </trkpt>
      <trkpt lat="45.07638" lon="6.13868">
        <ele>2214.7</ele>
        <time>2024-07-09T09:22:56Z</time>
      </trkpt>
      <trkpt lat="45.07638" lon="6.13868">
        <ele>2214.7</ele>
        <time>2024-07-09T09:22:58Z</time>
      </trkpt>
      <trkpt lat="45.07637" lon="6.13868">
        <ele>2214.8</ele>
        <time>2024-07-09T09:22:59Z</time>
      </trkpt>
      <trkpt lat="45.07637" lon="6.13868">
        <ele>2214.9</ele>
        <time>2024-07-09T09:23:00Z</time>
      </trkpt>
      <trkpt lat="45.07637" lon="6.13866">
        <ele>2215</ele>
        <time>2024-07-09T09:23:01Z</time>
      </trkpt>
      <trkpt lat="45.07637" lon="6.13865">
        <ele>2215.1</ele>
        <time>2024-07-09T09:23:03Z</time>
      </trkpt>
      <trkpt lat="45.07637" lon="6.13865">
        <ele>2215.2</ele>
        <time>2024-07-09T09:23:04Z</time>
      </trkpt>
      <trkpt lat="45.07636" lon="6.13864">
        <ele>2215.3</ele>
        <time>2024-07-09T09:23:05Z</time>
      </trkpt>
      <trkpt lat="45.07636" lon="6.13862">
        <ele>2215.5</ele>
        <time>2024-07-09T09:23:06Z</time>
      </trkpt>
      <trkpt lat="45.07635" lon="6.13861">
        <ele>2215.7</ele>
        <time>2024-07-09T09:23:08Z</time>
      </trkpt>
      <trkpt lat="45.07635" lon="6.1386">
        <ele>2215.7</ele>
        <time>2024-07-09T09:23:09Z</time>
      </trkpt>
      <trkpt lat="45.07634" lon="6.1386">
        <ele>2215.8</ele>
        <time>2024-07-09T09:23:10Z</time>
      </trkpt>
      <trkpt lat="45.07634" lon="6.13859">
        <ele>2215.9</ele>
        <time>2024-07-09T09:23:12Z</time>
      </trkpt>
      <trkpt lat="45.07634" lon="6.13858">
        <ele>2216</ele>
        <time>2024-07-09T09:23:13Z</time>
      </trkpt>
      <trkpt lat="45.07633" lon="6.13857">
        <ele>2216.2</ele>
        <time>2024-07-09T09:23:14Z</time>
      </trkpt>
      <trkpt lat="45.07632" lon="6.13855">
        <ele>2216.4</ele>
        <time>2024-07-09T09:23:16Z</time>
      </trkpt>
      <trkpt lat="45.07631" lon="6.13854">
        <ele>2216.5</ele>
        <time>2024-07-09T09:23:18Z</time>
      </trkpt>
      <trkpt lat="45.07631" lon="6.13853">
        <ele>2216.6</ele>
        <time>2024-07-09T09:23:19Z</time>
      </trkpt>
      <trkpt lat="45.0763" lon="6.13852">
        <ele>2216.7</ele>
        <time>2024-07-09T09:23:20Z</time>
      </trkpt>
      <trkpt lat="45.07629" lon="6.13851">
        <ele>2216.8</ele>
        <time>2024-07-09T09:23:21Z</time>
      </trkpt>
      <trkpt lat="45.07629" lon="6.1385">
        <ele>2217</ele>
        <time>2024-07-09T09:23:22Z</time>
      </trkpt>
      <trkpt lat="45.07627" lon="6.13848">
        <ele>2217.3</ele>
        <time>2024-07-09T09:23:23Z</time>
      </trkpt>
      <trkpt lat="45.07626" lon="6.13847">
        <ele>2217.5</ele>
        <time>2024-07-09T09:23:24Z</time>
      </trkpt>
      <trkpt lat="45.07625" lon="6.13847">
        <ele>2217.7</ele>
        <time>2024-07-09T09:23:25Z</time>
      </trkpt>
      <trkpt lat="45.07623" lon="6.13843">
        <ele>2218.4</ele>
        <time>2024-07-09T09:23:26Z</time>
      </trkpt>
      <trkpt lat="45.07622" lon="6.13842">
        <ele>2218.6</ele>
        <time>2024-07-09T09:23:27Z</time>
      </trkpt>
      <trkpt lat="45.07621" lon="6.13841">
        <ele>2218.9</ele>
        <time>2024-07-09T09:23:28Z</time>
      </trkpt>
      <trkpt lat="45.07621" lon="6.13842">
        <ele>2219.1</ele>
        <time>2024-07-09T09:23:29Z</time>
      </trkpt>
      <trkpt lat="45.0762" lon="6.13842">
        <ele>2219.3</ele>
        <time>2024-07-09T09:23:30Z</time>
      </trkpt>
      <trkpt lat="45.0762" lon="6.13842">
        <ele>2219.4</ele>
        <time>2024-07-09T09:23:31Z</time>
      </trkpt>
      <trkpt lat="45.0762" lon="6.13842">
        <ele>2219.4</ele>
        <time>2024-07-09T09:23:32Z</time>
      </trkpt>
      <trkpt lat="45.0762" lon="6.13841">
        <ele>2219.6</ele>
        <time>2024-07-09T09:23:33Z</time>
      </trkpt>
      <trkpt lat="45.0762" lon="6.13841">
        <ele>2219.7</ele>
        <time>2024-07-09T09:23:34Z</time>
      </trkpt>
      <trkpt lat="45.0762" lon="6.1384">
        <ele>2219.8</ele>
        <time>2024-07-09T09:23:35Z</time>
      </trkpt>
      <trkpt lat="45.0762" lon="6.13839">
        <ele>2220</ele>
        <time>2024-07-09T09:23:36Z</time>
      </trkpt>
      <trkpt lat="45.07621" lon="6.13838">
        <ele>2220.3</ele>
        <time>2024-07-09T09:23:37Z</time>
      </trkpt>
      <trkpt lat="45.07621" lon="6.13837">
        <ele>2220.4</ele>
        <time>2024-07-09T09:23:38Z</time>
      </trkpt>
      <trkpt lat="45.07621" lon="6.13837">
        <ele>2220.5</ele>
        <time>2024-07-09T09:23:40Z</time>
      </trkpt>
      <trkpt lat="45.07621" lon="6.13837">
        <ele>2220.6</ele>
        <time>2024-07-09T09:23:41Z</time>
      </trkpt>
      <trkpt lat="45.07621" lon="6.13836">
        <ele>2220.8</ele>
        <time>2024-07-09T09:23:42Z</time>
      </trkpt>
      <trkpt lat="45.0762" lon="6.13835">
        <ele>2221</ele>
        <time>2024-07-09T09:23:43Z</time>
      </trkpt>
      <trkpt lat="45.0762" lon="6.13835">
        <ele>2221.2</ele>
        <time>2024-07-09T09:23:44Z</time>
      </trkpt>
      <trkpt lat="45.07619" lon="6.13835">
        <ele>2221.3</ele>
        <time>2024-07-09T09:23:45Z</time>
      </trkpt>
      <trkpt lat="45.07619" lon="6.13835">
        <ele>2221.5</ele>
        <time>2024-07-09T09:23:46Z</time>
      </trkpt>
      <trkpt lat="45.07618" lon="6.13835">
        <ele>2221.6</ele>
        <time>2024-07-09T09:23:48Z</time>
      </trkpt>
      <trkpt lat="45.07619" lon="6.13835">
        <ele>2221.7</ele>
        <time>2024-07-09T09:23:50Z</time>
      </trkpt>
      <trkpt lat="45.07618" lon="6.13834">
        <ele>2222</ele>
        <time>2024-07-09T09:23:51Z</time>
      </trkpt>
      <trkpt lat="45.07618" lon="6.13833">
        <ele>2222.3</ele>
        <time>2024-07-09T09:23:53Z</time>
      </trkpt>
      <trkpt lat="45.07618" lon="6.13833">
        <ele>2222.4</ele>
        <time>2024-07-09T09:23:54Z</time>
      </trkpt>
      <trkpt lat="45.07618" lon="6.13833">
        <ele>2222.5</ele>
        <time>2024-07-09T09:23:55Z</time>
      </trkpt>
      <trkpt lat="45.07618" lon="6.13832">
        <ele>2222.7</ele>
        <time>2024-07-09T09:23:56Z</time>
      </trkpt>
      <trkpt lat="45.07618" lon="6.13831">
        <ele>2223</ele>
        <time>2024-07-09T09:23:57Z</time>
      </trkpt>
      <trkpt lat="45.07618" lon="6.13831">
        <ele>2223.1</ele>
        <time>2024-07-09T09:23:58Z</time>
      </trkpt>
      <trkpt lat="45.07618" lon="6.13831">
        <ele>2223.2</ele>
        <time>2024-07-09T09:23:59Z</time>
      </trkpt>
      <trkpt lat="45.07617" lon="6.13831">
        <ele>2223.2</ele>
        <time>2024-07-09T09:24:00Z</time>
      </trkpt>
      <trkpt lat="45.07617" lon="6.1383">
        <ele>2223.3</ele>
        <time>2024-07-09T09:24:01Z</time>
      </trkpt>
      <trkpt lat="45.07617" lon="6.1383">
        <ele>2223.4</ele>
        <time>2024-07-09T09:24:02Z</time>
      </trkpt>
      <trkpt lat="45.07616" lon="6.1383">
        <ele>2223.7</ele>
        <time>2024-07-09T09:24:04Z</time>
      </trkpt>
      <trkpt lat="45.07616" lon="6.13829">
        <ele>2223.9</ele>
        <time>2024-07-09T09:24:05Z</time>
      </trkpt>
      <trkpt lat="45.07616" lon="6.13829">
        <ele>2223.9</ele>
        <time>2024-07-09T09:24:06Z</time>
      </trkpt>
      <trkpt lat="45.07616" lon="6.13829">
        <ele>2224.1</ele>
        <time>2024-07-09T09:24:07Z</time>
      </trkpt>
      <trkpt lat="45.07615" lon="6.13828">
        <ele>2224.3</ele>
        <time>2024-07-09T09:24:08Z</time>
      </trkpt>
      <trkpt lat="45.07615" lon="6.13827">
        <ele>2224.5</ele>
        <time>2024-07-09T09:24:10Z</time>
      </trkpt>
      <trkpt lat="45.07614" lon="6.13826">
        <ele>2224.9</ele>
        <time>2024-07-09T09:24:11Z</time>
      </trkpt>
      <trkpt lat="45.07614" lon="6.13826">
        <ele>2225</ele>
        <time>2024-07-09T09:24:12Z</time>
      </trkpt>
      <trkpt lat="45.07613" lon="6.13825">
        <ele>2225.3</ele>
        <time>2024-07-09T09:24:13Z</time>
      </trkpt>
      <trkpt lat="45.07613" lon="6.13825">
        <ele>2225.5</ele>
        <time>2024-07-09T09:24:14Z</time>
      </trkpt>
      <trkpt lat="45.07612" lon="6.13825">
        <ele>2225.7</ele>
        <time>2024-07-09T09:24:16Z</time>
      </trkpt>
      <trkpt lat="45.07612" lon="6.13825">
        <ele>2225.9</ele>
        <time>2024-07-09T09:24:17Z</time>
      </trkpt>
      <trkpt lat="45.07611" lon="6.13824">
        <ele>2226.3</ele>
        <time>2024-07-09T09:24:18Z</time>
      </trkpt>
      <trkpt lat="45.07611" lon="6.13824">
        <ele>2226.3</ele>
        <time>2024-07-09T09:24:20Z</time>
      </trkpt>
      <trkpt lat="45.07611" lon="6.13823">
        <ele>2226.4</ele>
        <time>2024-07-09T09:24:21Z</time>
      </trkpt>
      <trkpt lat="45.0761" lon="6.13823">
        <ele>2226.6</ele>
        <time>2024-07-09T09:24:22Z</time>
      </trkpt>
      <trkpt lat="45.0761" lon="6.13823">
        <ele>2226.7</ele>
        <time>2024-07-09T09:24:23Z</time>
      </trkpt>
      <trkpt lat="45.0761" lon="6.13823">
        <ele>2226.8</ele>
        <time>2024-07-09T09:24:25Z</time>
      </trkpt>
      <trkpt lat="45.07611" lon="6.13823">
        <ele>2227</ele>
        <time>2024-07-09T09:24:26Z</time>
      </trkpt>
      <trkpt lat="45.07611" lon="6.13823">
        <ele>2227.1</ele>
        <time>2024-07-09T09:24:28Z</time>
      </trkpt>
      <trkpt lat="45.07611" lon="6.13823">
        <ele>2227.1</ele>
        <time>2024-07-09T09:24:30Z</time>
      </trkpt>
      <trkpt lat="45.07611" lon="6.13823">
        <ele>2227.2</ele>
        <time>2024-07-09T09:24:32Z</time>
      </trkpt>
      <trkpt lat="45.07611" lon="6.13822">
        <ele>2227.3</ele>
        <time>2024-07-09T09:24:33Z</time>
      </trkpt>
      <trkpt lat="45.07611" lon="6.13822">
        <ele>2227.5</ele>
        <time>2024-07-09T09:24:35Z</time>
      </trkpt>
      <trkpt lat="45.07611" lon="6.13821">
        <ele>2227.6</ele>
        <time>2024-07-09T09:24:36Z</time>
      </trkpt>
      <trkpt lat="45.07611" lon="6.13821">
        <ele>2227.8</ele>
        <time>2024-07-09T09:24:37Z</time>
      </trkpt>
      <trkpt lat="45.0761" lon="6.1382">
        <ele>2228</ele>
        <time>2024-07-09T09:24:39Z</time>
      </trkpt>
      <trkpt lat="45.0761" lon="6.1382">
        <ele>2228.1</ele>
        <time>2024-07-09T09:24:40Z</time>
      </trkpt>
      <trkpt lat="45.0761" lon="6.1382">
        <ele>2228.1</ele>
        <time>2024-07-09T09:24:41Z</time>
      </trkpt>
      <trkpt lat="45.0761" lon="6.13819">
        <ele>2228.2</ele>
        <time>2024-07-09T09:24:42Z</time>
      </trkpt>
      <trkpt lat="45.0761" lon="6.13819">
        <ele>2228.3</ele>
        <time>2024-07-09T09:24:43Z</time>
      </trkpt>
      <trkpt lat="45.07609" lon="6.13819">
        <ele>2228.6</ele>
        <time>2024-07-09T09:24:45Z</time>
      </trkpt>
      <trkpt lat="45.07609" lon="6.13818">
        <ele>2228.7</ele>
        <time>2024-07-09T09:24:46Z</time>
      </trkpt>
      <trkpt lat="45.07609" lon="6.13818">
        <ele>2228.7</ele>
        <time>2024-07-09T09:24:47Z</time>
      </trkpt>
      <trkpt lat="45.07608" lon="6.13818">
        <ele>2228.9</ele>
        <time>2024-07-09T09:24:49Z</time>
      </trkpt>
      <trkpt lat="45.07609" lon="6.13818">
        <ele>2228.9</ele>
        <time>2024-07-09T09:24:51Z</time>
      </trkpt>
      <trkpt lat="45.07608" lon="6.13818">
        <ele>2229</ele>
        <time>2024-07-09T09:24:53Z</time>
      </trkpt>
      <trkpt lat="45.07608" lon="6.13818">
        <ele>2229.1</ele>
        <time>2024-07-09T09:24:54Z</time>
      </trkpt>
      <trkpt lat="45.07608" lon="6.13818">
        <ele>2229.3</ele>
        <time>2024-07-09T09:24:55Z</time>
      </trkpt>
      <trkpt lat="45.07607" lon="6.13818">
        <ele>2229.3</ele>
        <time>2024-07-09T09:24:56Z</time>
      </trkpt>
      <trkpt lat="45.07607" lon="6.13818">
        <ele>2229.4</ele>
        <time>2024-07-09T09:24:57Z</time>
      </trkpt>
      <trkpt lat="45.07607" lon="6.13817">
        <ele>2229.5</ele>
        <time>2024-07-09T09:24:58Z</time>
      </trkpt>
      <trkpt lat="45.07607" lon="6.13817">
        <ele>2229.7</ele>
        <time>2024-07-09T09:24:59Z</time>
      </trkpt>
      <trkpt lat="45.07607" lon="6.13817">
        <ele>2229.8</ele>
        <time>2024-07-09T09:25:00Z</time>
      </trkpt>
      <trkpt lat="45.07606" lon="6.13816">
        <ele>2230.1</ele>
        <time>2024-07-09T09:25:01Z</time>
      </trkpt>
      <trkpt lat="45.07605" lon="6.13816">
        <ele>2230.3</ele>
        <time>2024-07-09T09:25:02Z</time>
      </trkpt>
      <trkpt lat="45.07603" lon="6.13815">
        <ele>2231</ele>
        <time>2024-07-09T09:25:03Z</time>
      </trkpt>
      <trkpt lat="45.07603" lon="6.13815">
        <ele>2231.2</ele>
        <time>2024-07-09T09:25:05Z</time>
      </trkpt>
      <trkpt lat="45.07603" lon="6.13815">
        <ele>2231.4</ele>
        <time>2024-07-09T09:25:06Z</time>
      </trkpt>
      <trkpt lat="45.07603" lon="6.13815">
        <ele>2231.4</ele>
        <time>2024-07-09T09:25:08Z</time>
      </trkpt>
      <trkpt lat="45.07604" lon="6.13815">
        <ele>2231.5</ele>
        <time>2024-07-09T09:25:09Z</time>
      </trkpt>
      <trkpt lat="45.07604" lon="6.13815">
        <ele>2231.7</ele>
        <time>2024-07-09T09:25:10Z</time>
      </trkpt>
      <trkpt lat="45.07604" lon="6.13815">
        <ele>2231.7</ele>
        <time>2024-07-09T09:25:11Z</time>
      </trkpt>
      <trkpt lat="45.07605" lon="6.13815">
        <ele>2231.9</ele>
        <time>2024-07-09T09:25:12Z</time>
      </trkpt>
      <trkpt lat="45.07605" lon="6.13814">
        <ele>2232</ele>
        <time>2024-07-09T09:25:13Z</time>
      </trkpt>
      <trkpt lat="45.07605" lon="6.13814">
        <ele>2232.2</ele>
        <time>2024-07-09T09:25:14Z</time>
      </trkpt>
      <trkpt lat="45.07606" lon="6.13813">
        <ele>2232.5</ele>
        <time>2024-07-09T09:25:15Z</time>
      </trkpt>
      <trkpt lat="45.07606" lon="6.13813">
        <ele>2232.6</ele>
        <time>2024-07-09T09:25:16Z</time>
      </trkpt>
      <trkpt lat="45.07606" lon="6.13812">
        <ele>2232.8</ele>
        <time>2024-07-09T09:25:17Z</time>
      </trkpt>
      <trkpt lat="45.07607" lon="6.1381">
        <ele>2233.2</ele>
        <time>2024-07-09T09:25:18Z</time>
      </trkpt>
      <trkpt lat="45.07607" lon="6.13809">
        <ele>2233.6</ele>
        <time>2024-07-09T09:25:20Z</time>
      </trkpt>
      <trkpt lat="45.07607" lon="6.13808">
        <ele>2233.9</ele>
        <time>2024-07-09T09:25:21Z</time>
      </trkpt>
      <trkpt lat="45.07606" lon="6.13807">
        <ele>2234.2</ele>
        <time>2024-07-09T09:25:23Z</time>
      </trkpt>
      <trkpt lat="45.07606" lon="6.13806">
        <ele>2234.5</ele>
        <time>2024-07-09T09:25:24Z</time>
      </trkpt>
      <trkpt lat="45.07605" lon="6.13806">
        <ele>2234.7</ele>
        <time>2024-07-09T09:25:26Z</time>
      </trkpt>
      <trkpt lat="45.07604" lon="6.13806">
        <ele>2235.2</ele>
        <time>2024-07-09T09:25:27Z</time>
      </trkpt>
      <trkpt lat="45.07603" lon="6.13806">
        <ele>2235.4</ele>
        <time>2024-07-09T09:25:29Z</time>
      </trkpt>
      <trkpt lat="45.07603" lon="6.13806">
        <ele>2235.6</ele>
        <time>2024-07-09T09:25:30Z</time>
      </trkpt>
      <trkpt lat="45.07602" lon="6.13806">
        <ele>2235.8</ele>
        <time>2024-07-09T09:25:31Z</time>
      </trkpt>
      <trkpt lat="45.07601" lon="6.13807">
        <ele>2236.2</ele>
        <time>2024-07-09T09:25:32Z</time>
      </trkpt>
      <trkpt lat="45.07601" lon="6.13807">
        <ele>2236.4</ele>
        <time>2024-07-09T09:25:33Z</time>
      </trkpt>
      <trkpt lat="45.07601" lon="6.13808">
        <ele>2236.6</ele>
        <time>2024-07-09T09:25:35Z</time>
      </trkpt>
      <trkpt lat="45.076" lon="6.13808">
        <ele>2236.7</ele>
        <time>2024-07-09T09:25:36Z</time>
      </trkpt>
      <trkpt lat="45.076" lon="6.13809">
        <ele>2236.9</ele>
        <time>2024-07-09T09:25:37Z</time>
      </trkpt>
      <trkpt lat="45.07599" lon="6.13809">
        <ele>2237.2</ele>
        <time>2024-07-09T09:25:38Z</time>
      </trkpt>
      <trkpt lat="45.07599" lon="6.13809">
        <ele>2237.4</ele>
        <time>2024-07-09T09:25:40Z</time>
      </trkpt>
      <trkpt lat="45.07598" lon="6.13808">
        <ele>2237.5</ele>
        <time>2024-07-09T09:25:41Z</time>
      </trkpt>
      <trkpt lat="45.07598" lon="6.13808">
        <ele>2237.8</ele>
        <time>2024-07-09T09:25:42Z</time>
      </trkpt>
      <trkpt lat="45.07598" lon="6.13808">
        <ele>2237.9</ele>
        <time>2024-07-09T09:25:43Z</time>
      </trkpt>
      <trkpt lat="45.07598" lon="6.13808">
        <ele>2237.9</ele>
        <time>2024-07-09T09:25:45Z</time>
      </trkpt>
      <trkpt lat="45.07598" lon="6.13808">
        <ele>2237.9</ele>
        <time>2024-07-09T09:25:46Z</time>
      </trkpt>
      <trkpt lat="45.07598" lon="6.13808">
        <ele>2237.9</ele>
        <time>2024-07-09T09:25:47Z</time>
      </trkpt>
      <trkpt lat="45.07598" lon="6.13808">
        <ele>2238</ele>
        <time>2024-07-09T09:25:48Z</time>
      </trkpt>
      <trkpt lat="45.07598" lon="6.13808">
        <ele>2238</ele>
        <time>2024-07-09T09:25:50Z</time>
      </trkpt>
      <trkpt lat="45.07598" lon="6.13808">
        <ele>2238.1</ele>
        <time>2024-07-09T09:25:51Z</time>
      </trkpt>
      <trkpt lat="45.07597" lon="6.13808">
        <ele>2238.2</ele>
        <time>2024-07-09T09:25:52Z</time>
      </trkpt>
      <trkpt lat="45.07597" lon="6.13808">
        <ele>2238.3</ele>
        <time>2024-07-09T09:25:53Z</time>
      </trkpt>
      <trkpt lat="45.07597" lon="6.13808">
        <ele>2238.5</ele>
        <time>2024-07-09T09:25:55Z</time>
      </trkpt>
      <trkpt lat="45.07596" lon="6.13808">
        <ele>2238.7</ele>
        <time>2024-07-09T09:25:56Z</time>
      </trkpt>
      <trkpt lat="45.07595" lon="6.13808">
        <ele>2238.9</ele>
        <time>2024-07-09T09:25:57Z</time>
      </trkpt>
      <trkpt lat="45.07595" lon="6.13807">
        <ele>2239.2</ele>
        <time>2024-07-09T09:25:58Z</time>
      </trkpt>
      <trkpt lat="45.07594" lon="6.13806">
        <ele>2239.6</ele>
        <time>2024-07-09T09:25:59Z</time>
      </trkpt>
      <trkpt lat="45.07594" lon="6.13805">
        <ele>2239.7</ele>
        <time>2024-07-09T09:26:01Z</time>
      </trkpt>
      <trkpt lat="45.07594" lon="6.13806">
        <ele>2239.8</ele>
        <time>2024-07-09T09:26:02Z</time>
      </trkpt>
      <trkpt lat="45.07594" lon="6.13805">
        <ele>2239.8</ele>
        <time>2024-07-09T09:26:03Z</time>
      </trkpt>
      <trkpt lat="45.07594" lon="6.13805">
        <ele>2239.9</ele>
        <time>2024-07-09T09:26:05Z</time>
      </trkpt>
      <trkpt lat="45.07594" lon="6.13805">
        <ele>2239.9</ele>
        <time>2024-07-09T09:26:06Z</time>
      </trkpt>
      <trkpt lat="45.07594" lon="6.13804">
        <ele>2240.1</ele>
        <time>2024-07-09T09:26:07Z</time>
      </trkpt>
      <trkpt lat="45.07593" lon="6.13803">
        <ele>2240.4</ele>
        <time>2024-07-09T09:26:08Z</time>
      </trkpt>
      <trkpt lat="45.07593" lon="6.13803">
        <ele>2240.6</ele>
        <time>2024-07-09T09:26:09Z</time>
      </trkpt>
      <trkpt lat="45.07592" lon="6.13804">
        <ele>2240.8</ele>
        <time>2024-07-09T09:26:11Z</time>
      </trkpt>
      <trkpt lat="45.07592" lon="6.13804">
        <ele>2240.9</ele>
        <time>2024-07-09T09:26:12Z</time>
      </trkpt>
      <trkpt lat="45.07592" lon="6.13804">
        <ele>2241</ele>
        <time>2024-07-09T09:26:13Z</time>
      </trkpt>
      <trkpt lat="45.07591" lon="6.13803">
        <ele>2241.3</ele>
        <time>2024-07-09T09:26:14Z</time>
      </trkpt>
      <trkpt lat="45.07591" lon="6.13803">
        <ele>2241.4</ele>
        <time>2024-07-09T09:26:16Z</time>
      </trkpt>
      <trkpt lat="45.0759" lon="6.13801">
        <ele>2241.8</ele>
        <time>2024-07-09T09:26:17Z</time>
      </trkpt>
      <trkpt lat="45.0759" lon="6.138">
        <ele>2242.1</ele>
        <time>2024-07-09T09:26:18Z</time>
      </trkpt>
      <trkpt lat="45.0759" lon="6.138">
        <ele>2242.4</ele>
        <time>2024-07-09T09:26:20Z</time>
      </trkpt>
      <trkpt lat="45.07589" lon="6.13799">
        <ele>2242.6</ele>
        <time>2024-07-09T09:26:21Z</time>
      </trkpt>
      <trkpt lat="45.07589" lon="6.13798">
        <ele>2242.7</ele>
        <time>2024-07-09T09:26:22Z</time>
      </trkpt>
      <trkpt lat="45.07589" lon="6.13798">
        <ele>2242.8</ele>
        <time>2024-07-09T09:26:23Z</time>
      </trkpt>
      <trkpt lat="45.07589" lon="6.13797">
        <ele>2243</ele>
        <time>2024-07-09T09:26:24Z</time>
      </trkpt>
      <trkpt lat="45.07588" lon="6.13796">
        <ele>2243.5</ele>
        <time>2024-07-09T09:26:25Z</time>
      </trkpt>
      <trkpt lat="45.07588" lon="6.13795">
        <ele>2243.6</ele>
        <time>2024-07-09T09:26:26Z</time>
      </trkpt>
      <trkpt lat="45.07587" lon="6.13795">
        <ele>2244</ele>
        <time>2024-07-09T09:26:28Z</time>
      </trkpt>
      <trkpt lat="45.07586" lon="6.13796">
        <ele>2244.3</ele>
        <time>2024-07-09T09:26:29Z</time>
      </trkpt>
      <trkpt lat="45.07586" lon="6.13796">
        <ele>2244.5</ele>
        <time>2024-07-09T09:26:31Z</time>
      </trkpt>
      <trkpt lat="45.07585" lon="6.13796">
        <ele>2244.7</ele>
        <time>2024-07-09T09:26:32Z</time>
      </trkpt>
      <trkpt lat="45.07585" lon="6.13797">
        <ele>2244.8</ele>
        <time>2024-07-09T09:26:33Z</time>
      </trkpt>
      <trkpt lat="45.07585" lon="6.13797">
        <ele>2245</ele>
        <time>2024-07-09T09:26:34Z</time>
      </trkpt>
      <trkpt lat="45.07584" lon="6.13797">
        <ele>2245.1</ele>
        <time>2024-07-09T09:26:35Z</time>
      </trkpt>
      <trkpt lat="45.07584" lon="6.13798">
        <ele>2245.2</ele>
        <time>2024-07-09T09:26:37Z</time>
      </trkpt>
      <trkpt lat="45.07584" lon="6.13798">
        <ele>2245.3</ele>
        <time>2024-07-09T09:26:38Z</time>
      </trkpt>
      <trkpt lat="45.07583" lon="6.13798">
        <ele>2245.6</ele>
        <time>2024-07-09T09:26:39Z</time>
      </trkpt>
      <trkpt lat="45.07583" lon="6.13798">
        <ele>2245.7</ele>
        <time>2024-07-09T09:26:41Z</time>
      </trkpt>
      <trkpt lat="45.07582" lon="6.13798">
        <ele>2246</ele>
        <time>2024-07-09T09:26:42Z</time>
      </trkpt>
      <trkpt lat="45.07582" lon="6.13798">
        <ele>2246.1</ele>
        <time>2024-07-09T09:26:43Z</time>
      </trkpt>
      <trkpt lat="45.07581" lon="6.13798">
        <ele>2246.5</ele>
        <time>2024-07-09T09:26:44Z</time>
      </trkpt>
      <trkpt lat="45.07581" lon="6.13798">
        <ele>2246.6</ele>
        <time>2024-07-09T09:26:46Z</time>
      </trkpt>
      <trkpt lat="45.07581" lon="6.13798">
        <ele>2246.8</ele>
        <time>2024-07-09T09:26:47Z</time>
      </trkpt>
      <trkpt lat="45.0758" lon="6.13798">
        <ele>2246.9</ele>
        <time>2024-07-09T09:26:48Z</time>
      </trkpt>
      <trkpt lat="45.0758" lon="6.13799">
        <ele>2247.2</ele>
        <time>2024-07-09T09:26:49Z</time>
      </trkpt>
      <trkpt lat="45.07579" lon="6.13799">
        <ele>2247.4</ele>
        <time>2024-07-09T09:26:50Z</time>
      </trkpt>
      <trkpt lat="45.07579" lon="6.13799">
        <ele>2247.5</ele>
        <time>2024-07-09T09:26:51Z</time>
      </trkpt>
      <trkpt lat="45.07578" lon="6.13799">
        <ele>2247.7</ele>
        <time>2024-07-09T09:26:52Z</time>
      </trkpt>
      <trkpt lat="45.07578" lon="6.138">
        <ele>2247.9</ele>
        <time>2024-07-09T09:26:53Z</time>
      </trkpt>
      <trkpt lat="45.07577" lon="6.138">
        <ele>2248.3</ele>
        <time>2024-07-09T09:26:54Z</time>
      </trkpt>
      <trkpt lat="45.07576" lon="6.138">
        <ele>2248.4</ele>
        <time>2024-07-09T09:26:55Z</time>
      </trkpt>
      <trkpt lat="45.07576" lon="6.138">
        <ele>2248.5</ele>
        <time>2024-07-09T09:26:57Z</time>
      </trkpt>
      <trkpt lat="45.07576" lon="6.13799">
        <ele>2248.7</ele>
        <time>2024-07-09T09:26:58Z</time>
      </trkpt>
      <trkpt lat="45.07575" lon="6.13799">
        <ele>2249.1</ele>
        <time>2024-07-09T09:26:59Z</time>
      </trkpt>
      <trkpt lat="45.07574" lon="6.13798">
        <ele>2249.2</ele>
        <time>2024-07-09T09:27:01Z</time>
      </trkpt>
      <trkpt lat="45.07574" lon="6.13798">
        <ele>2249.4</ele>
        <time>2024-07-09T09:27:02Z</time>
      </trkpt>
      <trkpt lat="45.07573" lon="6.13797">
        <ele>2249.7</ele>
        <time>2024-07-09T09:27:03Z</time>
      </trkpt>
      <trkpt lat="45.07573" lon="6.13796">
        <ele>2250</ele>
        <time>2024-07-09T09:27:05Z</time>
      </trkpt>
      <trkpt lat="45.07572" lon="6.13796">
        <ele>2250.3</ele>
        <time>2024-07-09T09:27:06Z</time>
      </trkpt>
      <trkpt lat="45.07571" lon="6.13795">
        <ele>2250.7</ele>
        <time>2024-07-09T09:27:07Z</time>
      </trkpt>
      <trkpt lat="45.07571" lon="6.13795">
        <ele>2250.9</ele>
        <time>2024-07-09T09:27:08Z</time>
      </trkpt>
      <trkpt lat="45.0757" lon="6.13795">
        <ele>2251.1</ele>
        <time>2024-07-09T09:27:10Z</time>
      </trkpt>
      <trkpt lat="45.07569" lon="6.13795">
        <ele>2251.4</ele>
        <time>2024-07-09T09:27:11Z</time>
      </trkpt>
      <trkpt lat="45.07569" lon="6.13794">
        <ele>2251.6</ele>
        <time>2024-07-09T09:27:12Z</time>
      </trkpt>
      <trkpt lat="45.07568" lon="6.13794">
        <ele>2251.8</ele>
        <time>2024-07-09T09:27:13Z</time>
      </trkpt>
      <trkpt lat="45.07568" lon="6.13794">
        <ele>2251.9</ele>
        <time>2024-07-09T09:27:14Z</time>
      </trkpt>
      <trkpt lat="45.07568" lon="6.13794">
        <ele>2252</ele>
        <time>2024-07-09T09:27:15Z</time>
      </trkpt>
      <trkpt lat="45.07567" lon="6.13793">
        <ele>2252.2</ele>
        <time>2024-07-09T09:27:16Z</time>
      </trkpt>
      <trkpt lat="45.07567" lon="6.13793">
        <ele>2252.4</ele>
        <time>2024-07-09T09:27:17Z</time>
      </trkpt>
      <trkpt lat="45.07567" lon="6.13793">
        <ele>2252.6</ele>
        <time>2024-07-09T09:27:19Z</time>
      </trkpt>
      <trkpt lat="45.07566" lon="6.13792">
        <ele>2252.8</ele>
        <time>2024-07-09T09:27:20Z</time>
      </trkpt>
      <trkpt lat="45.07566" lon="6.13792">
        <ele>2253</ele>
        <time>2024-07-09T09:27:21Z</time>
      </trkpt>
      <trkpt lat="45.07565" lon="6.13792">
        <ele>2253.2</ele>
        <time>2024-07-09T09:27:22Z</time>
      </trkpt>
      <trkpt lat="45.07565" lon="6.13791">
        <ele>2253.3</ele>
        <time>2024-07-09T09:27:24Z</time>
      </trkpt>
      <trkpt lat="45.07565" lon="6.13791">
        <ele>2253.4</ele>
        <time>2024-07-09T09:27:25Z</time>
      </trkpt>
      <trkpt lat="45.07564" lon="6.13791">
        <ele>2253.6</ele>
        <time>2024-07-09T09:27:26Z</time>
      </trkpt>
      <trkpt lat="45.07564" lon="6.13791">
        <ele>2253.8</ele>
        <time>2024-07-09T09:27:28Z</time>
      </trkpt>
      <trkpt lat="45.07563" lon="6.13793">
        <ele>2254.2</ele>
        <time>2024-07-09T09:27:29Z</time>
      </trkpt>
      <trkpt lat="45.07563" lon="6.13793">
        <ele>2254.3</ele>
        <time>2024-07-09T09:27:31Z</time>
      </trkpt>
      <trkpt lat="45.07563" lon="6.13793">
        <ele>2254.4</ele>
        <time>2024-07-09T09:27:32Z</time>
      </trkpt>
      <trkpt lat="45.07563" lon="6.13794">
        <ele>2254.6</ele>
        <time>2024-07-09T09:27:33Z</time>
      </trkpt>
      <trkpt lat="45.07563" lon="6.13794">
        <ele>2254.7</ele>
        <time>2024-07-09T09:27:34Z</time>
      </trkpt>
      <trkpt lat="45.07562" lon="6.13793">
        <ele>2255</ele>
        <time>2024-07-09T09:27:35Z</time>
      </trkpt>
      <trkpt lat="45.07562" lon="6.13792">
        <ele>2255.1</ele>
        <time>2024-07-09T09:27:37Z</time>
      </trkpt>
      <trkpt lat="45.07562" lon="6.13792">
        <ele>2255.3</ele>
        <time>2024-07-09T09:27:38Z</time>
      </trkpt>
      <trkpt lat="45.07562" lon="6.13791">
        <ele>2255.4</ele>
        <time>2024-07-09T09:27:39Z</time>
      </trkpt>
      <trkpt lat="45.07562" lon="6.13791">
        <ele>2255.5</ele>
        <time>2024-07-09T09:27:40Z</time>
      </trkpt>
      <trkpt lat="45.07562" lon="6.13791">
        <ele>2255.7</ele>
        <time>2024-07-09T09:27:41Z</time>
      </trkpt>
      <trkpt lat="45.07561" lon="6.13791">
        <ele>2255.8</ele>
        <time>2024-07-09T09:27:42Z</time>
      </trkpt>
      <trkpt lat="45.07561" lon="6.1379">
        <ele>2255.8</ele>
        <time>2024-07-09T09:27:43Z</time>
      </trkpt>
      <trkpt lat="45.07561" lon="6.1379">
        <ele>2256</ele>
        <time>2024-07-09T09:27:44Z</time>
      </trkpt>
      <trkpt lat="45.07561" lon="6.13789">
        <ele>2256.2</ele>
        <time>2024-07-09T09:27:45Z</time>
      </trkpt>
      <trkpt lat="45.07561" lon="6.13788">
        <ele>2256.4</ele>
        <time>2024-07-09T09:27:46Z</time>
      </trkpt>
      <trkpt lat="45.07561" lon="6.13787">
        <ele>2256.9</ele>
        <time>2024-07-09T09:27:47Z</time>
      </trkpt>
      <trkpt lat="45.07562" lon="6.13786">
        <ele>2257.2</ele>
        <time>2024-07-09T09:27:49Z</time>
      </trkpt>
      <trkpt lat="45.07562" lon="6.13786">
        <ele>2257.5</ele>
        <time>2024-07-09T09:27:50Z</time>
      </trkpt>
      <trkpt lat="45.07563" lon="6.13785">
        <ele>2257.7</ele>
        <time>2024-07-09T09:27:51Z</time>
      </trkpt>
      <trkpt lat="45.07563" lon="6.13784">
        <ele>2257.9</ele>
        <time>2024-07-09T09:27:52Z</time>
      </trkpt>
      <trkpt lat="45.07563" lon="6.13783">
        <ele>2258.1</ele>
        <time>2024-07-09T09:27:53Z</time>
      </trkpt>
      <trkpt lat="45.07562" lon="6.13783">
        <ele>2258.3</ele>
        <time>2024-07-09T09:27:54Z</time>
      </trkpt>
      <trkpt lat="45.07562" lon="6.13783">
        <ele>2258.6</ele>
        <time>2024-07-09T09:27:55Z</time>
      </trkpt>
      <trkpt lat="45.07561" lon="6.13783">
        <ele>2258.7</ele>
        <time>2024-07-09T09:27:57Z</time>
      </trkpt>
      <trkpt lat="45.07561" lon="6.13783">
        <ele>2258.9</ele>
        <time>2024-07-09T09:27:58Z</time>
      </trkpt>
      <trkpt lat="45.0756" lon="6.13783">
        <ele>2259.3</ele>
        <time>2024-07-09T09:27:59Z</time>
      </trkpt>
      <trkpt lat="45.07559" lon="6.13783">
        <ele>2259.6</ele>
        <time>2024-07-09T09:28:01Z</time>
      </trkpt>
      <trkpt lat="45.07559" lon="6.13784">
        <ele>2259.7</ele>
        <time>2024-07-09T09:28:02Z</time>
      </trkpt>
      <trkpt lat="45.07558" lon="6.13784">
        <ele>2259.9</ele>
        <time>2024-07-09T09:28:03Z</time>
      </trkpt>
      <trkpt lat="45.07557" lon="6.13784">
        <ele>2260.2</ele>
        <time>2024-07-09T09:28:04Z</time>
      </trkpt>
      <trkpt lat="45.07557" lon="6.13783">
        <ele>2260.4</ele>
        <time>2024-07-09T09:28:05Z</time>
      </trkpt>
      <trkpt lat="45.07556" lon="6.13783">
        <ele>2260.6</ele>
        <time>2024-07-09T09:28:07Z</time>
      </trkpt>
      <trkpt lat="45.07556" lon="6.13783">
        <ele>2260.7</ele>
        <time>2024-07-09T09:28:08Z</time>
      </trkpt>
      <trkpt lat="45.07556" lon="6.13783">
        <ele>2260.8</ele>
        <time>2024-07-09T09:28:10Z</time>
      </trkpt>
      <trkpt lat="45.07556" lon="6.13783">
        <ele>2260.8</ele>
        <time>2024-07-09T09:28:12Z</time>
      </trkpt>
      <trkpt lat="45.07555" lon="6.13783">
        <ele>2260.9</ele>
        <time>2024-07-09T09:28:13Z</time>
      </trkpt>
      <trkpt lat="45.07555" lon="6.13783">
        <ele>2261</ele>
        <time>2024-07-09T09:28:14Z</time>
      </trkpt>
      <trkpt lat="45.07555" lon="6.13783">
        <ele>2261.1</ele>
        <time>2024-07-09T09:28:15Z</time>
      </trkpt>
      <trkpt lat="45.07555" lon="6.13783">
        <ele>2261.2</ele>
        <time>2024-07-09T09:28:16Z</time>
      </trkpt>
      <trkpt lat="45.07554" lon="6.13783">
        <ele>2261.5</ele>
        <time>2024-07-09T09:28:17Z</time>
      </trkpt>
      <trkpt lat="45.07553" lon="6.13782">
        <ele>2261.7</ele>
        <time>2024-07-09T09:28:19Z</time>
      </trkpt>
      <trkpt lat="45.07553" lon="6.13782">
        <ele>2261.9</ele>
        <time>2024-07-09T09:28:20Z</time>
      </trkpt>
      <trkpt lat="45.07554" lon="6.13782">
        <ele>2262.1</ele>
        <time>2024-07-09T09:28:21Z</time>
      </trkpt>
      <trkpt lat="45.07554" lon="6.13782">
        <ele>2262.1</ele>
        <time>2024-07-09T09:28:22Z</time>
      </trkpt>
      <trkpt lat="45.07554" lon="6.13782">
        <ele>2262.2</ele>
        <time>2024-07-09T09:28:23Z</time>
      </trkpt>
      <trkpt lat="45.07554" lon="6.13782">
        <ele>2262.2</ele>
        <time>2024-07-09T09:28:24Z</time>
      </trkpt>
      <trkpt lat="45.07555" lon="6.13782">
        <ele>2262.4</ele>
        <time>2024-07-09T09:28:25Z</time>
      </trkpt>
      <trkpt lat="45.07555" lon="6.13782">
        <ele>2262.4</ele>
        <time>2024-07-09T09:28:27Z</time>
      </trkpt>
      <trkpt lat="45.07555" lon="6.13782">
        <ele>2262.5</ele>
        <time>2024-07-09T09:28:28Z</time>
      </trkpt>
      <trkpt lat="45.07555" lon="6.13782">
        <ele>2262.5</ele>
        <time>2024-07-09T09:28:29Z</time>
      </trkpt>
      <trkpt lat="45.07555" lon="6.13782">
        <ele>2262.6</ele>
        <time>2024-07-09T09:28:30Z</time>
      </trkpt>
      <trkpt lat="45.07555" lon="6.13782">
        <ele>2262.7</ele>
        <time>2024-07-09T09:28:31Z</time>
      </trkpt>
      <trkpt lat="45.07555" lon="6.13781">
        <ele>2262.8</ele>
        <time>2024-07-09T09:28:33Z</time>
      </trkpt>
      <trkpt lat="45.07555" lon="6.13781">
        <ele>2262.9</ele>
        <time>2024-07-09T09:28:34Z</time>
      </trkpt>
      <trkpt lat="45.07554" lon="6.1378">
        <ele>2263</ele>
        <time>2024-07-09T09:28:35Z</time>
      </trkpt>
      <trkpt lat="45.07554" lon="6.1378">
        <ele>2263.1</ele>
        <time>2024-07-09T09:28:36Z</time>
      </trkpt>
      <trkpt lat="45.07554" lon="6.13779">
        <ele>2263.2</ele>
        <time>2024-07-09T09:28:38Z</time>
      </trkpt>
      <trkpt lat="45.07554" lon="6.13779">
        <ele>2263.3</ele>
        <time>2024-07-09T09:28:39Z</time>
      </trkpt>
      <trkpt lat="45.07554" lon="6.13779">
        <ele>2263.3</ele>
        <time>2024-07-09T09:28:40Z</time>
      </trkpt>
      <trkpt lat="45.07554" lon="6.13778">
        <ele>2263.5</ele>
        <time>2024-07-09T09:28:41Z</time>
      </trkpt>
      <trkpt lat="45.07554" lon="6.13778">
        <ele>2263.6</ele>
        <time>2024-07-09T09:28:42Z</time>
      </trkpt>
      <trkpt lat="45.07554" lon="6.13777">
        <ele>2263.6</ele>
        <time>2024-07-09T09:28:43Z</time>
      </trkpt>
      <trkpt lat="45.07553" lon="6.13777">
        <ele>2263.6</ele>
        <time>2024-07-09T09:28:44Z</time>
      </trkpt>
      <trkpt lat="45.07553" lon="6.13777">
        <ele>2263.7</ele>
        <time>2024-07-09T09:28:45Z</time>
      </trkpt>
      <trkpt lat="45.07553" lon="6.13777">
        <ele>2263.7</ele>
        <time>2024-07-09T09:28:46Z</time>
      </trkpt>
      <trkpt lat="45.07553" lon="6.13777">
        <ele>2263.7</ele>
        <time>2024-07-09T09:28:47Z</time>
      </trkpt>
      <trkpt lat="45.07553" lon="6.13777">
        <ele>2263.7</ele>
        <time>2024-07-09T09:28:48Z</time>
      </trkpt>
      <trkpt lat="45.07553" lon="6.13777">
        <ele>2263.8</ele>
        <time>2024-07-09T09:28:49Z</time>
      </trkpt>
      <trkpt lat="45.07553" lon="6.13776">
        <ele>2263.8</ele>
        <time>2024-07-09T09:28:50Z</time>
      </trkpt>
      <trkpt lat="45.07553" lon="6.13776">
        <ele>2263.9</ele>
        <time>2024-07-09T09:28:52Z</time>
      </trkpt>
      <trkpt lat="45.07553" lon="6.13776">
        <ele>2263.9</ele>
        <time>2024-07-09T09:28:53Z</time>
      </trkpt>
      <trkpt lat="45.07553" lon="6.13776">
        <ele>2263.9</ele>
        <time>2024-07-09T09:28:54Z</time>
      </trkpt>
      <trkpt lat="45.07553" lon="6.13776">
        <ele>2264</ele>
        <time>2024-07-09T09:28:55Z</time>
      </trkpt>
      <trkpt lat="45.07553" lon="6.13776">
        <ele>2264</ele>
        <time>2024-07-09T09:28:56Z</time>
      </trkpt>
      <trkpt lat="45.07553" lon="6.13776">
        <ele>2264</ele>
        <time>2024-07-09T09:28:57Z</time>
      </trkpt>
      <trkpt lat="45.07553" lon="6.13775">
        <ele>2264.1</ele>
        <time>2024-07-09T09:28:59Z</time>
      </trkpt>
      <trkpt lat="45.07552" lon="6.13775">
        <ele>2264.1</ele>
        <time>2024-07-09T09:29:00Z</time>
      </trkpt>
      <trkpt lat="45.07552" lon="6.13775">
        <ele>2264.1</ele>
        <time>2024-07-09T09:29:01Z</time>
      </trkpt>
      <trkpt lat="45.07552" lon="6.13775">
        <ele>2264.2</ele>
        <time>2024-07-09T09:29:02Z</time>
      </trkpt>
      <trkpt lat="45.07552" lon="6.13775">
        <ele>2264.2</ele>
        <time>2024-07-09T09:29:03Z</time>
      </trkpt>
      <trkpt lat="45.07552" lon="6.13775">
        <ele>2264.2</ele>
        <time>2024-07-09T09:29:04Z</time>
      </trkpt>
      <trkpt lat="45.07552" lon="6.13775">
        <ele>2264.3</ele>
        <time>2024-07-09T09:29:05Z</time>
      </trkpt>
      <trkpt lat="45.07552" lon="6.13775">
        <ele>2264.3</ele>
        <time>2024-07-09T09:29:06Z</time>
      </trkpt>
      <trkpt lat="45.07552" lon="6.13774">
        <ele>2264.3</ele>
        <time>2024-07-09T09:29:07Z</time>
      </trkpt>
      <trkpt lat="45.07552" lon="6.13774">
        <ele>2264.4</ele>
        <time>2024-07-09T09:29:08Z</time>
      </trkpt>
      <trkpt lat="45.07552" lon="6.13774">
        <ele>2264.4</ele>
        <time>2024-07-09T09:29:09Z</time>
      </trkpt>
      <trkpt lat="45.07552" lon="6.13774">
        <ele>2264.4</ele>
        <time>2024-07-09T09:29:10Z</time>
      </trkpt>
      <trkpt lat="45.07551" lon="6.13773">
        <ele>2264.6</ele>
        <time>2024-07-09T09:29:12Z</time>
      </trkpt>
      <trkpt lat="45.07551" lon="6.13773">
        <ele>2264.7</ele>
        <time>2024-07-09T09:29:13Z</time>
      </trkpt>
      <trkpt lat="45.07551" lon="6.13772">
        <ele>2264.9</ele>
        <time>2024-07-09T09:29:14Z</time>
      </trkpt>
      <trkpt lat="45.0755" lon="6.13771">
        <ele>2265</ele>
        <time>2024-07-09T09:29:15Z</time>
      </trkpt>
      <trkpt lat="45.07549" lon="6.13769">
        <ele>2265.4</ele>
        <time>2024-07-09T09:29:16Z</time>
      </trkpt>
      <trkpt lat="45.07549" lon="6.13769">
        <ele>2265.5</ele>
        <time>2024-07-09T09:29:18Z</time>
      </trkpt>
      <trkpt lat="45.07549" lon="6.13769">
        <ele>2265.6</ele>
        <time>2024-07-09T09:29:19Z</time>
      </trkpt>
      <trkpt lat="45.07548" lon="6.13768">
        <ele>2265.6</ele>
        <time>2024-07-09T09:29:20Z</time>
      </trkpt>
      <trkpt lat="45.07548" lon="6.13768">
        <ele>2265.8</ele>
        <time>2024-07-09T09:29:21Z</time>
      </trkpt>
      <trkpt lat="45.07548" lon="6.13767">
        <ele>2265.8</ele>
        <time>2024-07-09T09:29:22Z</time>
      </trkpt>
      <trkpt lat="45.07548" lon="6.13767">
        <ele>2265.9</ele>
        <time>2024-07-09T09:29:23Z</time>
      </trkpt>
      <trkpt lat="45.07547" lon="6.13766">
        <ele>2266.1</ele>
        <time>2024-07-09T09:29:24Z</time>
      </trkpt>
      <trkpt lat="45.07547" lon="6.13766">
        <ele>2266.1</ele>
        <time>2024-07-09T09:29:26Z</time>
      </trkpt>
      <trkpt lat="45.07546" lon="6.13765">
        <ele>2266.2</ele>
        <time>2024-07-09T09:29:27Z</time>
      </trkpt>
      <trkpt lat="45.07546" lon="6.13765">
        <ele>2266.4</ele>
        <time>2024-07-09T09:29:28Z</time>
      </trkpt>
      <trkpt lat="45.07545" lon="6.13765">
        <ele>2266.6</ele>
        <time>2024-07-09T09:29:29Z</time>
      </trkpt>
      <trkpt lat="45.07544" lon="6.13765">
        <ele>2266.7</ele>
        <time>2024-07-09T09:29:30Z</time>
      </trkpt>
      <trkpt lat="45.07543" lon="6.13764">
        <ele>2267</ele>
        <time>2024-07-09T09:29:31Z</time>
      </trkpt>
      <trkpt lat="45.07542" lon="6.13764">
        <ele>2267.1</ele>
        <time>2024-07-09T09:29:33Z</time>
      </trkpt>
      <trkpt lat="45.07542" lon="6.13764">
        <ele>2267.1</ele>
        <time>2024-07-09T09:29:34Z</time>
      </trkpt>
      <trkpt lat="45.07541" lon="6.13764">
        <ele>2267.2</ele>
        <time>2024-07-09T09:29:35Z</time>
      </trkpt>
      <trkpt lat="45.07541" lon="6.13763">
        <ele>2267.3</ele>
        <time>2024-07-09T09:29:37Z</time>
      </trkpt>
      <trkpt lat="45.0754" lon="6.13762">
        <ele>2267.5</ele>
        <time>2024-07-09T09:29:38Z</time>
      </trkpt>
      <trkpt lat="45.07539" lon="6.13762">
        <ele>2267.8</ele>
        <time>2024-07-09T09:29:39Z</time>
      </trkpt>
      <trkpt lat="45.07537" lon="6.1376">
        <ele>2268.2</ele>
        <time>2024-07-09T09:29:41Z</time>
      </trkpt>
      <trkpt lat="45.07536" lon="6.13759">
        <ele>2268.3</ele>
        <time>2024-07-09T09:29:43Z</time>
      </trkpt>
      <trkpt lat="45.07535" lon="6.13759">
        <ele>2268.5</ele>
        <time>2024-07-09T09:29:44Z</time>
      </trkpt>
      <trkpt lat="45.07534" lon="6.13759">
        <ele>2268.7</ele>
        <time>2024-07-09T09:29:45Z</time>
      </trkpt>
      <trkpt lat="45.07533" lon="6.13757">
        <ele>2268.9</ele>
        <time>2024-07-09T09:29:46Z</time>
      </trkpt>
      <trkpt lat="45.07533" lon="6.13756">
        <ele>2269.2</ele>
        <time>2024-07-09T09:29:48Z</time>
      </trkpt>
      <trkpt lat="45.07533" lon="6.13755">
        <ele>2269.3</ele>
        <time>2024-07-09T09:29:49Z</time>
      </trkpt>
      <trkpt lat="45.07532" lon="6.13754">
        <ele>2269.4</ele>
        <time>2024-07-09T09:29:50Z</time>
      </trkpt>
      <trkpt lat="45.07532" lon="6.13753">
        <ele>2269.6</ele>
        <time>2024-07-09T09:29:51Z</time>
      </trkpt>
      <trkpt lat="45.07533" lon="6.13753">
        <ele>2269.7</ele>
        <time>2024-07-09T09:29:52Z</time>
      </trkpt>
      <trkpt lat="45.07533" lon="6.13752">
        <ele>2269.9</ele>
        <time>2024-07-09T09:29:53Z</time>
      </trkpt>
      <trkpt lat="45.07533" lon="6.13751">
        <ele>2270.1</ele>
        <time>2024-07-09T09:29:54Z</time>
      </trkpt>
      <trkpt lat="45.07533" lon="6.13751">
        <ele>2270.1</ele>
        <time>2024-07-09T09:29:55Z</time>
      </trkpt>
      <trkpt lat="45.07533" lon="6.1375">
        <ele>2270.3</ele>
        <time>2024-07-09T09:29:56Z</time>
      </trkpt>
      <trkpt lat="45.07533" lon="6.1375">
        <ele>2270.3</ele>
        <time>2024-07-09T09:29:57Z</time>
      </trkpt>
      <trkpt lat="45.07534" lon="6.1375">
        <ele>2270.4</ele>
        <time>2024-07-09T09:29:58Z</time>
      </trkpt>
      <trkpt lat="45.07533" lon="6.1375">
        <ele>2270.5</ele>
        <time>2024-07-09T09:29:59Z</time>
      </trkpt>
      <trkpt lat="45.07533" lon="6.1375">
        <ele>2270.6</ele>
        <time>2024-07-09T09:30:00Z</time>
      </trkpt>
      <trkpt lat="45.07533" lon="6.1375">
        <ele>2270.6</ele>
        <time>2024-07-09T09:30:01Z</time>
      </trkpt>
      <trkpt lat="45.07533" lon="6.1375">
        <ele>2270.7</ele>
        <time>2024-07-09T09:30:02Z</time>
      </trkpt>
      <trkpt lat="45.07532" lon="6.1375">
        <ele>2270.8</ele>
        <time>2024-07-09T09:30:03Z</time>
      </trkpt>
      <trkpt lat="45.07532" lon="6.13749">
        <ele>2271</ele>
        <time>2024-07-09T09:30:04Z</time>
      </trkpt>
      <trkpt lat="45.07531" lon="6.13749">
        <ele>2271.1</ele>
        <time>2024-07-09T09:30:05Z</time>
      </trkpt>
      <trkpt lat="45.0753" lon="6.13749">
        <ele>2271.4</ele>
        <time>2024-07-09T09:30:06Z</time>
      </trkpt>
      <trkpt lat="45.0753" lon="6.13749">
        <ele>2271.4</ele>
        <time>2024-07-09T09:30:07Z</time>
      </trkpt>
      <trkpt lat="45.0753" lon="6.13749">
        <ele>2271.5</ele>
        <time>2024-07-09T09:30:08Z</time>
      </trkpt>
      <trkpt lat="45.0753" lon="6.13749">
        <ele>2271.5</ele>
        <time>2024-07-09T09:30:09Z</time>
      </trkpt>
      <trkpt lat="45.0753" lon="6.13749">
        <ele>2271.6</ele>
        <time>2024-07-09T09:30:10Z</time>
      </trkpt>
      <trkpt lat="45.0753" lon="6.13749">
        <ele>2271.6</ele>
        <time>2024-07-09T09:30:11Z</time>
      </trkpt>
      <trkpt lat="45.0753" lon="6.13749">
        <ele>2271.6</ele>
        <time>2024-07-09T09:30:12Z</time>
      </trkpt>
      <trkpt lat="45.07529" lon="6.13748">
        <ele>2271.8</ele>
        <time>2024-07-09T09:30:13Z</time>
      </trkpt>
      <trkpt lat="45.07529" lon="6.13747">
        <ele>2272</ele>
        <time>2024-07-09T09:30:14Z</time>
      </trkpt>
      <trkpt lat="45.07528" lon="6.13746">
        <ele>2272.3</ele>
        <time>2024-07-09T09:30:16Z</time>
      </trkpt>
      <trkpt lat="45.07527" lon="6.13745">
        <ele>2272.6</ele>
        <time>2024-07-09T09:30:17Z</time>
      </trkpt>
      <trkpt lat="45.07526" lon="6.13745">
        <ele>2272.8</ele>
        <time>2024-07-09T09:30:18Z</time>
      </trkpt>
      <trkpt lat="45.07526" lon="6.13744">
        <ele>2272.9</ele>
        <time>2024-07-09T09:30:20Z</time>
      </trkpt>
      <trkpt lat="45.07525" lon="6.13744">
        <ele>2273</ele>
        <time>2024-07-09T09:30:21Z</time>
      </trkpt>
      <trkpt lat="45.07525" lon="6.13744">
        <ele>2273.1</ele>
        <time>2024-07-09T09:30:22Z</time>
      </trkpt>
      <trkpt lat="45.07525" lon="6.13743">
        <ele>2273.2</ele>
        <time>2024-07-09T09:30:23Z</time>
      </trkpt>
      <trkpt lat="45.07524" lon="6.13743">
        <ele>2273.4</ele>
        <time>2024-07-09T09:30:24Z</time>
      </trkpt>
      <trkpt lat="45.07524" lon="6.13743">
        <ele>2273.5</ele>
        <time>2024-07-09T09:30:25Z</time>
      </trkpt>
      <trkpt lat="45.07523" lon="6.13743">
        <ele>2273.6</ele>
        <time>2024-07-09T09:30:26Z</time>
      </trkpt>
      <trkpt lat="45.07523" lon="6.13743">
        <ele>2273.8</ele>
        <time>2024-07-09T09:30:27Z</time>
      </trkpt>
      <trkpt lat="45.07522" lon="6.13743">
        <ele>2273.9</ele>
        <time>2024-07-09T09:30:28Z</time>
      </trkpt>
      <trkpt lat="45.07522" lon="6.13742">
        <ele>2274.1</ele>
        <time>2024-07-09T09:30:29Z</time>
      </trkpt>
      <trkpt lat="45.07521" lon="6.13742">
        <ele>2274.2</ele>
        <time>2024-07-09T09:30:30Z</time>
      </trkpt>
      <trkpt lat="45.0752" lon="6.13741">
        <ele>2274.5</ele>
        <time>2024-07-09T09:30:31Z</time>
      </trkpt>
      <trkpt lat="45.0752" lon="6.13741">
        <ele>2274.5</ele>
        <time>2024-07-09T09:30:32Z</time>
      </trkpt>
      <trkpt lat="45.0752" lon="6.13741">
        <ele>2274.6</ele>
        <time>2024-07-09T09:30:33Z</time>
      </trkpt>
      <trkpt lat="45.0752" lon="6.13741">
        <ele>2274.6</ele>
        <time>2024-07-09T09:30:35Z</time>
      </trkpt>
      <trkpt lat="45.0752" lon="6.13741">
        <ele>2274.7</ele>
        <time>2024-07-09T09:30:36Z</time>
      </trkpt>
      <trkpt lat="45.07519" lon="6.13741">
        <ele>2274.8</ele>
        <time>2024-07-09T09:30:37Z</time>
      </trkpt>
      <trkpt lat="45.07519" lon="6.1374">
        <ele>2274.9</ele>
        <time>2024-07-09T09:30:38Z</time>
      </trkpt>
      <trkpt lat="45.07519" lon="6.1374">
        <ele>2275</ele>
        <time>2024-07-09T09:30:39Z</time>
      </trkpt>
      <trkpt lat="45.07518" lon="6.1374">
        <ele>2275.1</ele>
        <time>2024-07-09T09:30:40Z</time>
      </trkpt>
      <trkpt lat="45.07518" lon="6.1374">
        <ele>2275.3</ele>
        <time>2024-07-09T09:30:41Z</time>
      </trkpt>
      <trkpt lat="45.07517" lon="6.13739">
        <ele>2275.4</ele>
        <time>2024-07-09T09:30:42Z</time>
      </trkpt>
      <trkpt lat="45.07517" lon="6.13739">
        <ele>2275.5</ele>
        <time>2024-07-09T09:30:43Z</time>
      </trkpt>
      <trkpt lat="45.07516" lon="6.13739">
        <ele>2275.7</ele>
        <time>2024-07-09T09:30:44Z</time>
      </trkpt>
      <trkpt lat="45.07515" lon="6.13739">
        <ele>2276.1</ele>
        <time>2024-07-09T09:30:45Z</time>
      </trkpt>
      <trkpt lat="45.07515" lon="6.13739">
        <ele>2276.3</ele>
        <time>2024-07-09T09:30:46Z</time>
      </trkpt>
      <trkpt lat="45.07515" lon="6.13739">
        <ele>2276.3</ele>
        <time>2024-07-09T09:30:48Z</time>
      </trkpt>
      <trkpt lat="45.07515" lon="6.13738">
        <ele>2276.5</ele>
        <time>2024-07-09T09:30:49Z</time>
      </trkpt>
      <trkpt lat="45.07514" lon="6.13737">
        <ele>2276.8</ele>
        <time>2024-07-09T09:30:50Z</time>
      </trkpt>
      <trkpt lat="45.07513" lon="6.13737">
        <ele>2276.9</ele>
        <time>2024-07-09T09:30:52Z</time>
      </trkpt>
      <trkpt lat="45.07513" lon="6.13737">
        <ele>2277</ele>
        <time>2024-07-09T09:30:53Z</time>
      </trkpt>
      <trkpt lat="45.07513" lon="6.13737">
        <ele>2277.1</ele>
        <time>2024-07-09T09:30:54Z</time>
      </trkpt>
      <trkpt lat="45.07512" lon="6.13737">
        <ele>2277.2</ele>
        <time>2024-07-09T09:30:55Z</time>
      </trkpt>
      <trkpt lat="45.07512" lon="6.13737">
        <ele>2277.3</ele>
        <time>2024-07-09T09:30:56Z</time>
      </trkpt>
      <trkpt lat="45.07512" lon="6.13737">
        <ele>2277.4</ele>
        <time>2024-07-09T09:30:57Z</time>
      </trkpt>
      <trkpt lat="45.07512" lon="6.13736">
        <ele>2277.4</ele>
        <time>2024-07-09T09:30:58Z</time>
      </trkpt>
      <trkpt lat="45.07511" lon="6.13736">
        <ele>2277.6</ele>
        <time>2024-07-09T09:30:59Z</time>
      </trkpt>
      <trkpt lat="45.07511" lon="6.13734">
        <ele>2277.9</ele>
        <time>2024-07-09T09:31:00Z</time>
      </trkpt>
      <trkpt lat="45.0751" lon="6.13734">
        <ele>2278.1</ele>
        <time>2024-07-09T09:31:02Z</time>
      </trkpt>
      <trkpt lat="45.0751" lon="6.13733">
        <ele>2278.1</ele>
        <time>2024-07-09T09:31:03Z</time>
      </trkpt>
      <trkpt lat="45.07509" lon="6.13733">
        <ele>2278.4</ele>
        <time>2024-07-09T09:31:04Z</time>
      </trkpt>
      <trkpt lat="45.07509" lon="6.13732">
        <ele>2278.5</ele>
        <time>2024-07-09T09:31:05Z</time>
      </trkpt>
      <trkpt lat="45.07508" lon="6.13731">
        <ele>2278.7</ele>
        <time>2024-07-09T09:31:06Z</time>
      </trkpt>
      <trkpt lat="45.07508" lon="6.13731">
        <ele>2279</ele>
        <time>2024-07-09T09:31:07Z</time>
      </trkpt>
      <trkpt lat="45.07507" lon="6.1373">
        <ele>2279.2</ele>
        <time>2024-07-09T09:31:09Z</time>
      </trkpt>
      <trkpt lat="45.07505" lon="6.13728">
        <ele>2279.8</ele>
        <time>2024-07-09T09:31:10Z</time>
      </trkpt>
      <trkpt lat="45.07505" lon="6.13728">
        <ele>2279.9</ele>
        <time>2024-07-09T09:31:11Z</time>
      </trkpt>
      <trkpt lat="45.07505" lon="6.13728">
        <ele>2279.9</ele>
        <time>2024-07-09T09:31:13Z</time>
      </trkpt>
      <trkpt lat="45.07505" lon="6.13727">
        <ele>2280.1</ele>
        <time>2024-07-09T09:31:14Z</time>
      </trkpt>
      <trkpt lat="45.07505" lon="6.13726">
        <ele>2280.2</ele>
        <time>2024-07-09T09:31:16Z</time>
      </trkpt>
      <trkpt lat="45.07505" lon="6.13726">
        <ele>2280.3</ele>
        <time>2024-07-09T09:31:17Z</time>
      </trkpt>
      <trkpt lat="45.07504" lon="6.13726">
        <ele>2280.4</ele>
        <time>2024-07-09T09:31:18Z</time>
      </trkpt>
      <trkpt lat="45.07504" lon="6.13726">
        <ele>2280.5</ele>
        <time>2024-07-09T09:31:19Z</time>
      </trkpt>
      <trkpt lat="45.07503" lon="6.13726">
        <ele>2280.7</ele>
        <time>2024-07-09T09:31:20Z</time>
      </trkpt>
      <trkpt lat="45.07503" lon="6.13726">
        <ele>2280.7</ele>
        <time>2024-07-09T09:31:22Z</time>
      </trkpt>
      <trkpt lat="45.07503" lon="6.13726">
        <ele>2280.8</ele>
        <time>2024-07-09T09:31:23Z</time>
      </trkpt>
      <trkpt lat="45.07503" lon="6.13725">
        <ele>2280.9</ele>
        <time>2024-07-09T09:31:24Z</time>
      </trkpt>
      <trkpt lat="45.07503" lon="6.13725">
        <ele>2280.9</ele>
        <time>2024-07-09T09:31:25Z</time>
      </trkpt>
      <trkpt lat="45.07502" lon="6.13725">
        <ele>2281.1</ele>
        <time>2024-07-09T09:31:26Z</time>
      </trkpt>
      <trkpt lat="45.07501" lon="6.13726">
        <ele>2281.5</ele>
        <time>2024-07-09T09:31:27Z</time>
      </trkpt>
      <trkpt lat="45.07501" lon="6.13725">
        <ele>2281.6</ele>
        <time>2024-07-09T09:31:29Z</time>
      </trkpt>
      <trkpt lat="45.07501" lon="6.13724">
        <ele>2281.8</ele>
        <time>2024-07-09T09:31:30Z</time>
      </trkpt>
      <trkpt lat="45.07501" lon="6.13724">
        <ele>2281.9</ele>
        <time>2024-07-09T09:31:32Z</time>
      </trkpt>
      <trkpt lat="45.075" lon="6.13724">
        <ele>2281.9</ele>
        <time>2024-07-09T09:31:33Z</time>
      </trkpt>
      <trkpt lat="45.07501" lon="6.13724">
        <ele>2282.1</ele>
        <time>2024-07-09T09:31:34Z</time>
      </trkpt>
      <trkpt lat="45.07501" lon="6.13724">
        <ele>2282.2</ele>
        <time>2024-07-09T09:31:35Z</time>
      </trkpt>
      <trkpt lat="45.07501" lon="6.13723">
        <ele>2282.2</ele>
        <time>2024-07-09T09:31:36Z</time>
      </trkpt>
      <trkpt lat="45.07501" lon="6.13723">
        <ele>2282.4</ele>
        <time>2024-07-09T09:31:37Z</time>
      </trkpt>
      <trkpt lat="45.07501" lon="6.13722">
        <ele>2282.6</ele>
        <time>2024-07-09T09:31:38Z</time>
      </trkpt>
      <trkpt lat="45.07501" lon="6.13721">
        <ele>2282.7</ele>
        <time>2024-07-09T09:31:39Z</time>
      </trkpt>
      <trkpt lat="45.07501" lon="6.13721">
        <ele>2282.8</ele>
        <time>2024-07-09T09:31:40Z</time>
      </trkpt>
      <trkpt lat="45.075" lon="6.1372">
        <ele>2283.1</ele>
        <time>2024-07-09T09:31:41Z</time>
      </trkpt>
      <trkpt lat="45.075" lon="6.13719">
        <ele>2283.4</ele>
        <time>2024-07-09T09:31:42Z</time>
      </trkpt>
      <trkpt lat="45.07499" lon="6.13719">
        <ele>2283.6</ele>
        <time>2024-07-09T09:31:44Z</time>
      </trkpt>
      <trkpt lat="45.07498" lon="6.13719">
        <ele>2283.9</ele>
        <time>2024-07-09T09:31:45Z</time>
      </trkpt>
      <trkpt lat="45.07498" lon="6.13718">
        <ele>2284.1</ele>
        <time>2024-07-09T09:31:46Z</time>
      </trkpt>
      <trkpt lat="45.07497" lon="6.13718">
        <ele>2284.3</ele>
        <time>2024-07-09T09:31:48Z</time>
      </trkpt>
      <trkpt lat="45.07497" lon="6.13718">
        <ele>2284.4</ele>
        <time>2024-07-09T09:31:49Z</time>
      </trkpt>
      <trkpt lat="45.07497" lon="6.13718">
        <ele>2284.5</ele>
        <time>2024-07-09T09:31:50Z</time>
      </trkpt>
      <trkpt lat="45.07497" lon="6.13718">
        <ele>2284.5</ele>
        <time>2024-07-09T09:31:51Z</time>
      </trkpt>
      <trkpt lat="45.07497" lon="6.13718">
        <ele>2284.7</ele>
        <time>2024-07-09T09:31:53Z</time>
      </trkpt>
      <trkpt lat="45.07497" lon="6.13718">
        <ele>2284.7</ele>
        <time>2024-07-09T09:31:54Z</time>
      </trkpt>
      <trkpt lat="45.07496" lon="6.13718">
        <ele>2285</ele>
        <time>2024-07-09T09:31:55Z</time>
      </trkpt>
      <trkpt lat="45.07496" lon="6.13717">
        <ele>2285.3</ele>
        <time>2024-07-09T09:31:57Z</time>
      </trkpt>
      <trkpt lat="45.07495" lon="6.13717">
        <ele>2285.6</ele>
        <time>2024-07-09T09:31:58Z</time>
      </trkpt>
      <trkpt lat="45.07494" lon="6.13716">
        <ele>2286</ele>
        <time>2024-07-09T09:32:00Z</time>
      </trkpt>
      <trkpt lat="45.07493" lon="6.13715">
        <ele>2286.4</ele>
        <time>2024-07-09T09:32:02Z</time>
      </trkpt>
      <trkpt lat="45.07493" lon="6.13714">
        <ele>2286.6</ele>
        <time>2024-07-09T09:32:03Z</time>
      </trkpt>
      <trkpt lat="45.07493" lon="6.13713">
        <ele>2286.9</ele>
        <time>2024-07-09T09:32:04Z</time>
      </trkpt>
      <trkpt lat="45.07492" lon="6.13712">
        <ele>2287.4</ele>
        <time>2024-07-09T09:32:05Z</time>
      </trkpt>
      <trkpt lat="45.07492" lon="6.13711">
        <ele>2287.5</ele>
        <time>2024-07-09T09:32:07Z</time>
      </trkpt>
      <trkpt lat="45.07491" lon="6.13711">
        <ele>2287.7</ele>
        <time>2024-07-09T09:32:08Z</time>
      </trkpt>
      <trkpt lat="45.07491" lon="6.13711">
        <ele>2287.8</ele>
        <time>2024-07-09T09:32:09Z</time>
      </trkpt>
      <trkpt lat="45.07491" lon="6.13711">
        <ele>2287.9</ele>
        <time>2024-07-09T09:32:10Z</time>
      </trkpt>
      <trkpt lat="45.07491" lon="6.13712">
        <ele>2288</ele>
        <time>2024-07-09T09:32:11Z</time>
      </trkpt>
      <trkpt lat="45.07491" lon="6.13712">
        <ele>2288.1</ele>
        <time>2024-07-09T09:32:12Z</time>
      </trkpt>
      <trkpt lat="45.07491" lon="6.13712">
        <ele>2288.1</ele>
        <time>2024-07-09T09:32:13Z</time>
      </trkpt>
      <trkpt lat="45.0749" lon="6.13712">
        <ele>2288.2</ele>
        <time>2024-07-09T09:32:14Z</time>
      </trkpt>
      <trkpt lat="45.0749" lon="6.13711">
        <ele>2288.3</ele>
        <time>2024-07-09T09:32:15Z</time>
      </trkpt>
      <trkpt lat="45.0749" lon="6.13711">
        <ele>2288.4</ele>
        <time>2024-07-09T09:32:16Z</time>
      </trkpt>
      <trkpt lat="45.0749" lon="6.13711">
        <ele>2288.5</ele>
        <time>2024-07-09T09:32:18Z</time>
      </trkpt>
      <trkpt lat="45.0749" lon="6.13711">
        <ele>2288.6</ele>
        <time>2024-07-09T09:32:19Z</time>
      </trkpt>
      <trkpt lat="45.07489" lon="6.13711">
        <ele>2288.8</ele>
        <time>2024-07-09T09:32:20Z</time>
      </trkpt>
      <trkpt lat="45.07489" lon="6.1371">
        <ele>2289.1</ele>
        <time>2024-07-09T09:32:21Z</time>
      </trkpt>
      <trkpt lat="45.07488" lon="6.1371">
        <ele>2289.4</ele>
        <time>2024-07-09T09:32:22Z</time>
      </trkpt>
      <trkpt lat="45.07487" lon="6.1371">
        <ele>2289.7</ele>
        <time>2024-07-09T09:32:23Z</time>
      </trkpt>
      <trkpt lat="45.07486" lon="6.13711">
        <ele>2290</ele>
        <time>2024-07-09T09:32:24Z</time>
      </trkpt>
      <trkpt lat="45.07486" lon="6.13711">
        <ele>2290.1</ele>
        <time>2024-07-09T09:32:26Z</time>
      </trkpt>
      <trkpt lat="45.07486" lon="6.13711">
        <ele>2290.2</ele>
        <time>2024-07-09T09:32:27Z</time>
      </trkpt>
      <trkpt lat="45.07486" lon="6.13711">
        <ele>2290.3</ele>
        <time>2024-07-09T09:32:28Z</time>
      </trkpt>
      <trkpt lat="45.07485" lon="6.13711">
        <ele>2290.5</ele>
        <time>2024-07-09T09:32:29Z</time>
      </trkpt>
      <trkpt lat="45.07485" lon="6.1371">
        <ele>2290.6</ele>
        <time>2024-07-09T09:32:30Z</time>
      </trkpt>
      <trkpt lat="45.07485" lon="6.1371">
        <ele>2290.7</ele>
        <time>2024-07-09T09:32:31Z</time>
      </trkpt>
      <trkpt lat="45.07484" lon="6.1371">
        <ele>2290.9</ele>
        <time>2024-07-09T09:32:32Z</time>
      </trkpt>
      <trkpt lat="45.07484" lon="6.1371">
        <ele>2291.2</ele>
        <time>2024-07-09T09:32:33Z</time>
      </trkpt>
      <trkpt lat="45.07483" lon="6.1371">
        <ele>2291.3</ele>
        <time>2024-07-09T09:32:35Z</time>
      </trkpt>
      <trkpt lat="45.07483" lon="6.1371">
        <ele>2291.4</ele>
        <time>2024-07-09T09:32:36Z</time>
      </trkpt>
      <trkpt lat="45.07483" lon="6.1371">
        <ele>2291.7</ele>
        <time>2024-07-09T09:32:37Z</time>
      </trkpt>
      <trkpt lat="45.07483" lon="6.1371">
        <ele>2291.7</ele>
        <time>2024-07-09T09:32:38Z</time>
      </trkpt>
      <trkpt lat="45.07483" lon="6.1371">
        <ele>2291.8</ele>
        <time>2024-07-09T09:32:39Z</time>
      </trkpt>
      <trkpt lat="45.07482" lon="6.1371">
        <ele>2291.9</ele>
        <time>2024-07-09T09:32:40Z</time>
      </trkpt>
      <trkpt lat="45.07482" lon="6.1371">
        <ele>2292.1</ele>
        <time>2024-07-09T09:32:41Z</time>
      </trkpt>
      <trkpt lat="45.07482" lon="6.1371">
        <ele>2292.2</ele>
        <time>2024-07-09T09:32:42Z</time>
      </trkpt>
      <trkpt lat="45.07482" lon="6.13709">
        <ele>2292.3</ele>
        <time>2024-07-09T09:32:43Z</time>
      </trkpt>
      <trkpt lat="45.07482" lon="6.13709">
        <ele>2292.4</ele>
        <time>2024-07-09T09:32:45Z</time>
      </trkpt>
      <trkpt lat="45.07481" lon="6.1371">
        <ele>2292.8</ele>
        <time>2024-07-09T09:32:46Z</time>
      </trkpt>
      <trkpt lat="45.0748" lon="6.1371">
        <ele>2293.1</ele>
        <time>2024-07-09T09:32:48Z</time>
      </trkpt>
      <trkpt lat="45.0748" lon="6.1371">
        <ele>2293.2</ele>
        <time>2024-07-09T09:32:49Z</time>
      </trkpt>
      <trkpt lat="45.07479" lon="6.1371">
        <ele>2293.4</ele>
        <time>2024-07-09T09:32:50Z</time>
      </trkpt>
      <trkpt lat="45.07479" lon="6.1371">
        <ele>2293.5</ele>
        <time>2024-07-09T09:32:51Z</time>
      </trkpt>
      <trkpt lat="45.07479" lon="6.1371">
        <ele>2293.6</ele>
        <time>2024-07-09T09:32:52Z</time>
      </trkpt>
      <trkpt lat="45.07479" lon="6.13709">
        <ele>2293.6</ele>
        <time>2024-07-09T09:32:53Z</time>
      </trkpt>
      <trkpt lat="45.07479" lon="6.13709">
        <ele>2293.8</ele>
        <time>2024-07-09T09:32:54Z</time>
      </trkpt>
      <trkpt lat="45.07479" lon="6.13709">
        <ele>2293.8</ele>
        <time>2024-07-09T09:32:55Z</time>
      </trkpt>
      <trkpt lat="45.07479" lon="6.13709">
        <ele>2293.9</ele>
        <time>2024-07-09T09:32:56Z</time>
      </trkpt>
      <trkpt lat="45.07479" lon="6.13709">
        <ele>2294</ele>
        <time>2024-07-09T09:32:57Z</time>
      </trkpt>
      <trkpt lat="45.07479" lon="6.13708">
        <ele>2294.1</ele>
        <time>2024-07-09T09:32:58Z</time>
      </trkpt>
      <trkpt lat="45.07479" lon="6.13708">
        <ele>2294.1</ele>
        <time>2024-07-09T09:32:59Z</time>
      </trkpt>
      <trkpt lat="45.07479" lon="6.13708">
        <ele>2294.2</ele>
        <time>2024-07-09T09:33:00Z</time>
      </trkpt>
      <trkpt lat="45.07478" lon="6.13707">
        <ele>2294.4</ele>
        <time>2024-07-09T09:33:01Z</time>
      </trkpt>
      <trkpt lat="45.07478" lon="6.13707">
        <ele>2294.6</ele>
        <time>2024-07-09T09:33:02Z</time>
      </trkpt>
      <trkpt lat="45.07478" lon="6.13707">
        <ele>2294.6</ele>
        <time>2024-07-09T09:33:03Z</time>
      </trkpt>
      <trkpt lat="45.07478" lon="6.13707">
        <ele>2294.7</ele>
        <time>2024-07-09T09:33:04Z</time>
      </trkpt>
      <trkpt lat="45.07478" lon="6.13706">
        <ele>2294.8</ele>
        <time>2024-07-09T09:33:05Z</time>
      </trkpt>
      <trkpt lat="45.07478" lon="6.13706">
        <ele>2294.9</ele>
        <time>2024-07-09T09:33:06Z</time>
      </trkpt>
      <trkpt lat="45.07478" lon="6.13706">
        <ele>2295.1</ele>
        <time>2024-07-09T09:33:07Z</time>
      </trkpt>
      <trkpt lat="45.07477" lon="6.13705">
        <ele>2295.2</ele>
        <time>2024-07-09T09:33:09Z</time>
      </trkpt>
      <trkpt lat="45.07477" lon="6.13705">
        <ele>2295.3</ele>
        <time>2024-07-09T09:33:10Z</time>
      </trkpt>
      <trkpt lat="45.07477" lon="6.13705">
        <ele>2295.3</ele>
        <time>2024-07-09T09:33:11Z</time>
      </trkpt>
      <trkpt lat="45.07477" lon="6.13705">
        <ele>2295.4</ele>
        <time>2024-07-09T09:33:12Z</time>
      </trkpt>
      <trkpt lat="45.07477" lon="6.13705">
        <ele>2295.4</ele>
        <time>2024-07-09T09:33:13Z</time>
      </trkpt>
      <trkpt lat="45.07477" lon="6.13705">
        <ele>2295.4</ele>
        <time>2024-07-09T09:33:14Z</time>
      </trkpt>
      <trkpt lat="45.07477" lon="6.13705">
        <ele>2295.4</ele>
        <time>2024-07-09T09:33:15Z</time>
      </trkpt>
      <trkpt lat="45.07477" lon="6.13705">
        <ele>2295.5</ele>
        <time>2024-07-09T09:33:16Z</time>
      </trkpt>
      <trkpt lat="45.07477" lon="6.13705">
        <ele>2295.5</ele>
        <time>2024-07-09T09:33:17Z</time>
      </trkpt>
      <trkpt lat="45.07477" lon="6.13705">
        <ele>2295.6</ele>
        <time>2024-07-09T09:33:18Z</time>
      </trkpt>
      <trkpt lat="45.07477" lon="6.13705">
        <ele>2295.6</ele>
        <time>2024-07-09T09:33:19Z</time>
      </trkpt>
      <trkpt lat="45.07477" lon="6.13704">
        <ele>2295.6</ele>
        <time>2024-07-09T09:33:20Z</time>
      </trkpt>
      <trkpt lat="45.07477" lon="6.13704">
        <ele>2295.7</ele>
        <time>2024-07-09T09:33:22Z</time>
      </trkpt>
      <trkpt lat="45.07477" lon="6.13704">
        <ele>2295.8</ele>
        <time>2024-07-09T09:33:23Z</time>
      </trkpt>
      <trkpt lat="45.07477" lon="6.13704">
        <ele>2295.9</ele>
        <time>2024-07-09T09:33:24Z</time>
      </trkpt>
      <trkpt lat="45.07477" lon="6.13703">
        <ele>2296</ele>
        <time>2024-07-09T09:33:25Z</time>
      </trkpt>
      <trkpt lat="45.07477" lon="6.13703">
        <ele>2296.2</ele>
        <time>2024-07-09T09:33:26Z</time>
      </trkpt>
      <trkpt lat="45.07477" lon="6.13702">
        <ele>2296.5</ele>
        <time>2024-07-09T09:33:27Z</time>
      </trkpt>
      <trkpt lat="45.07476" lon="6.13701">
        <ele>2296.7</ele>
        <time>2024-07-09T09:33:28Z</time>
      </trkpt>
      <trkpt lat="45.07476" lon="6.137">
        <ele>2297</ele>
        <time>2024-07-09T09:33:29Z</time>
      </trkpt>
      <trkpt lat="45.07476" lon="6.13699">
        <ele>2297.1</ele>
        <time>2024-07-09T09:33:30Z</time>
      </trkpt>
      <trkpt lat="45.07476" lon="6.13699">
        <ele>2297.3</ele>
        <time>2024-07-09T09:33:31Z</time>
      </trkpt>
      <trkpt lat="45.07476" lon="6.13699">
        <ele>2297.3</ele>
        <time>2024-07-09T09:33:32Z</time>
      </trkpt>
      <trkpt lat="45.07476" lon="6.13698">
        <ele>2297.5</ele>
        <time>2024-07-09T09:33:33Z</time>
      </trkpt>
      <trkpt lat="45.07475" lon="6.13698">
        <ele>2297.6</ele>
        <time>2024-07-09T09:33:34Z</time>
      </trkpt>
      <trkpt lat="45.07475" lon="6.13698">
        <ele>2297.9</ele>
        <time>2024-07-09T09:33:35Z</time>
      </trkpt>
      <trkpt lat="45.07474" lon="6.13697">
        <ele>2298.1</ele>
        <time>2024-07-09T09:33:37Z</time>
      </trkpt>
      <trkpt lat="45.07474" lon="6.13696">
        <ele>2298.5</ele>
        <time>2024-07-09T09:33:38Z</time>
      </trkpt>
      <trkpt lat="45.07473" lon="6.13696">
        <ele>2298.7</ele>
        <time>2024-07-09T09:33:40Z</time>
      </trkpt>
      <trkpt lat="45.07473" lon="6.13695">
        <ele>2298.8</ele>
        <time>2024-07-09T09:33:41Z</time>
      </trkpt>
      <trkpt lat="45.07473" lon="6.13696">
        <ele>2299</ele>
        <time>2024-07-09T09:33:42Z</time>
      </trkpt>
      <trkpt lat="45.07473" lon="6.13695">
        <ele>2299.1</ele>
        <time>2024-07-09T09:33:43Z</time>
      </trkpt>
      <trkpt lat="45.07473" lon="6.13695">
        <ele>2299.2</ele>
        <time>2024-07-09T09:33:44Z</time>
      </trkpt>
      <trkpt lat="45.07473" lon="6.13694">
        <ele>2299.5</ele>
        <time>2024-07-09T09:33:45Z</time>
      </trkpt>
      <trkpt lat="45.07472" lon="6.13693">
        <ele>2299.7</ele>
        <time>2024-07-09T09:33:46Z</time>
      </trkpt>
      <trkpt lat="45.07472" lon="6.13693">
        <ele>2299.9</ele>
        <time>2024-07-09T09:33:47Z</time>
      </trkpt>
      <trkpt lat="45.07472" lon="6.13692">
        <ele>2300</ele>
        <time>2024-07-09T09:33:49Z</time>
      </trkpt>
      <trkpt lat="45.07472" lon="6.13692">
        <ele>2300.1</ele>
        <time>2024-07-09T09:33:50Z</time>
      </trkpt>
      <trkpt lat="45.07472" lon="6.13692">
        <ele>2300.1</ele>
        <time>2024-07-09T09:33:51Z</time>
      </trkpt>
      <trkpt lat="45.07472" lon="6.13692">
        <ele>2300.2</ele>
        <time>2024-07-09T09:33:52Z</time>
      </trkpt>
      <trkpt lat="45.07472" lon="6.13692">
        <ele>2300.3</ele>
        <time>2024-07-09T09:33:53Z</time>
      </trkpt>
      <trkpt lat="45.07471" lon="6.13692">
        <ele>2300.5</ele>
        <time>2024-07-09T09:33:55Z</time>
      </trkpt>
      <trkpt lat="45.07471" lon="6.13691">
        <ele>2300.7</ele>
        <time>2024-07-09T09:33:56Z</time>
      </trkpt>
      <trkpt lat="45.0747" lon="6.13691">
        <ele>2300.9</ele>
        <time>2024-07-09T09:33:58Z</time>
      </trkpt>
      <trkpt lat="45.0747" lon="6.1369">
        <ele>2301.1</ele>
        <time>2024-07-09T09:33:59Z</time>
      </trkpt>
      <trkpt lat="45.07469" lon="6.13688">
        <ele>2301.6</ele>
        <time>2024-07-09T09:34:00Z</time>
      </trkpt>
      <trkpt lat="45.07469" lon="6.13688">
        <ele>2301.8</ele>
        <time>2024-07-09T09:34:02Z</time>
      </trkpt>
      <trkpt lat="45.07469" lon="6.13687">
        <ele>2301.9</ele>
        <time>2024-07-09T09:34:03Z</time>
      </trkpt>
      <trkpt lat="45.07469" lon="6.13687">
        <ele>2302</ele>
        <time>2024-07-09T09:34:04Z</time>
      </trkpt>
      <trkpt lat="45.07469" lon="6.13687">
        <ele>2302.1</ele>
        <time>2024-07-09T09:34:05Z</time>
      </trkpt>
      <trkpt lat="45.07469" lon="6.13687">
        <ele>2302.1</ele>
        <time>2024-07-09T09:34:06Z</time>
      </trkpt>
      <trkpt lat="45.07469" lon="6.13687">
        <ele>2302.2</ele>
        <time>2024-07-09T09:34:07Z</time>
      </trkpt>
      <trkpt lat="45.07469" lon="6.13687">
        <ele>2302.3</ele>
        <time>2024-07-09T09:34:08Z</time>
      </trkpt>
      <trkpt lat="45.07469" lon="6.13687">
        <ele>2302.4</ele>
        <time>2024-07-09T09:34:09Z</time>
      </trkpt>
      <trkpt lat="45.07469" lon="6.13688">
        <ele>2302.5</ele>
        <time>2024-07-09T09:34:10Z</time>
      </trkpt>
      <trkpt lat="45.07469" lon="6.13688">
        <ele>2302.6</ele>
        <time>2024-07-09T09:34:12Z</time>
      </trkpt>
      <trkpt lat="45.07469" lon="6.13687">
        <ele>2302.7</ele>
        <time>2024-07-09T09:34:13Z</time>
      </trkpt>
      <trkpt lat="45.07469" lon="6.13687">
        <ele>2302.8</ele>
        <time>2024-07-09T09:34:14Z</time>
      </trkpt>
      <trkpt lat="45.07468" lon="6.13687">
        <ele>2303</ele>
        <time>2024-07-09T09:34:15Z</time>
      </trkpt>
      <trkpt lat="45.07468" lon="6.13686">
        <ele>2303.1</ele>
        <time>2024-07-09T09:34:17Z</time>
      </trkpt>
      <trkpt lat="45.07468" lon="6.13685">
        <ele>2303.3</ele>
        <time>2024-07-09T09:34:18Z</time>
      </trkpt>
      <trkpt lat="45.07468" lon="6.13684">
        <ele>2303.6</ele>
        <time>2024-07-09T09:34:19Z</time>
      </trkpt>
      <trkpt lat="45.07468" lon="6.13684">
        <ele>2303.6</ele>
        <time>2024-07-09T09:34:21Z</time>
      </trkpt>
      <trkpt lat="45.07468" lon="6.13684">
        <ele>2303.7</ele>
        <time>2024-07-09T09:34:22Z</time>
      </trkpt>
      <trkpt lat="45.07468" lon="6.13683">
        <ele>2303.9</ele>
        <time>2024-07-09T09:34:23Z</time>
      </trkpt>
      <trkpt lat="45.07468" lon="6.13683">
        <ele>2304</ele>
        <time>2024-07-09T09:34:24Z</time>
      </trkpt>
      <trkpt lat="45.07468" lon="6.13682">
        <ele>2304.1</ele>
        <time>2024-07-09T09:34:25Z</time>
      </trkpt>
      <trkpt lat="45.07468" lon="6.13681">
        <ele>2304.4</ele>
        <time>2024-07-09T09:34:26Z</time>
      </trkpt>
      <trkpt lat="45.07468" lon="6.1368">
        <ele>2304.6</ele>
        <time>2024-07-09T09:34:27Z</time>
      </trkpt>
      <trkpt lat="45.07469" lon="6.13679">
        <ele>2304.9</ele>
        <time>2024-07-09T09:34:28Z</time>
      </trkpt>
      <trkpt lat="45.07469" lon="6.13679">
        <ele>2305.1</ele>
        <time>2024-07-09T09:34:29Z</time>
      </trkpt>
      <trkpt lat="45.07469" lon="6.13678">
        <ele>2305.2</ele>
        <time>2024-07-09T09:34:30Z</time>
      </trkpt>
      <trkpt lat="45.07468" lon="6.13678">
        <ele>2305.3</ele>
        <time>2024-07-09T09:34:31Z</time>
      </trkpt>
      <trkpt lat="45.07468" lon="6.13678">
        <ele>2305.4</ele>
        <time>2024-07-09T09:34:32Z</time>
      </trkpt>
      <trkpt lat="45.07468" lon="6.13678">
        <ele>2305.5</ele>
        <time>2024-07-09T09:34:33Z</time>
      </trkpt>
      <trkpt lat="45.07468" lon="6.13678">
        <ele>2305.5</ele>
        <time>2024-07-09T09:34:34Z</time>
      </trkpt>
      <trkpt lat="45.07468" lon="6.13678">
        <ele>2305.6</ele>
        <time>2024-07-09T09:34:35Z</time>
      </trkpt>
      <trkpt lat="45.07467" lon="6.13678">
        <ele>2305.8</ele>
        <time>2024-07-09T09:34:36Z</time>
      </trkpt>
      <trkpt lat="45.07466" lon="6.13678">
        <ele>2306.1</ele>
        <time>2024-07-09T09:34:37Z</time>
      </trkpt>
      <trkpt lat="45.07466" lon="6.13678">
        <ele>2306.1</ele>
        <time>2024-07-09T09:34:38Z</time>
      </trkpt>
      <trkpt lat="45.07466" lon="6.13678">
        <ele>2306.1</ele>
        <time>2024-07-09T09:34:39Z</time>
      </trkpt>
      <trkpt lat="45.07467" lon="6.13677">
        <ele>2306.2</ele>
        <time>2024-07-09T09:34:40Z</time>
      </trkpt>
      <trkpt lat="45.07467" lon="6.13677">
        <ele>2306.3</ele>
        <time>2024-07-09T09:34:41Z</time>
      </trkpt>
      <trkpt lat="45.07467" lon="6.13677">
        <ele>2306.4</ele>
        <time>2024-07-09T09:34:43Z</time>
      </trkpt>
      <trkpt lat="45.07467" lon="6.13677">
        <ele>2306.4</ele>
        <time>2024-07-09T09:34:44Z</time>
      </trkpt>
      <trkpt lat="45.07467" lon="6.13677">
        <ele>2306.5</ele>
        <time>2024-07-09T09:34:45Z</time>
      </trkpt>
      <trkpt lat="45.07466" lon="6.13676">
        <ele>2306.6</ele>
        <time>2024-07-09T09:34:46Z</time>
      </trkpt>
      <trkpt lat="45.07466" lon="6.13676">
        <ele>2306.7</ele>
        <time>2024-07-09T09:34:47Z</time>
      </trkpt>
      <trkpt lat="45.07466" lon="6.13676">
        <ele>2306.8</ele>
        <time>2024-07-09T09:34:48Z</time>
      </trkpt>
      <trkpt lat="45.07466" lon="6.13675">
        <ele>2307</ele>
        <time>2024-07-09T09:34:49Z</time>
      </trkpt>
      <trkpt lat="45.07466" lon="6.13675">
        <ele>2307.1</ele>
        <time>2024-07-09T09:34:50Z</time>
      </trkpt>
      <trkpt lat="45.07465" lon="6.13675">
        <ele>2307.3</ele>
        <time>2024-07-09T09:34:51Z</time>
      </trkpt>
      <trkpt lat="45.07465" lon="6.13674">
        <ele>2307.5</ele>
        <time>2024-07-09T09:34:52Z</time>
      </trkpt>
      <trkpt lat="45.07464" lon="6.13674">
        <ele>2307.5</ele>
        <time>2024-07-09T09:34:53Z</time>
      </trkpt>
      <trkpt lat="45.07464" lon="6.13673">
        <ele>2307.7</ele>
        <time>2024-07-09T09:34:54Z</time>
      </trkpt>
      <trkpt lat="45.07464" lon="6.13673">
        <ele>2307.9</ele>
        <time>2024-07-09T09:34:55Z</time>
      </trkpt>
      <trkpt lat="45.07464" lon="6.13671">
        <ele>2308.2</ele>
        <time>2024-07-09T09:34:56Z</time>
      </trkpt>
      <trkpt lat="45.07464" lon="6.1367">
        <ele>2308.5</ele>
        <time>2024-07-09T09:34:57Z</time>
      </trkpt>
      <trkpt lat="45.07463" lon="6.1367">
        <ele>2308.7</ele>
        <time>2024-07-09T09:34:58Z</time>
      </trkpt>
      <trkpt lat="45.07463" lon="6.13669">
        <ele>2309</ele>
        <time>2024-07-09T09:35:00Z</time>
      </trkpt>
      <trkpt lat="45.07463" lon="6.13669">
        <ele>2309.2</ele>
        <time>2024-07-09T09:35:01Z</time>
      </trkpt>
      <trkpt lat="45.07463" lon="6.1367">
        <ele>2309.3</ele>
        <time>2024-07-09T09:35:02Z</time>
      </trkpt>
      <trkpt lat="45.07463" lon="6.1367">
        <ele>2309.4</ele>
        <time>2024-07-09T09:35:03Z</time>
      </trkpt>
      <trkpt lat="45.07463" lon="6.13669">
        <ele>2309.5</ele>
        <time>2024-07-09T09:35:05Z</time>
      </trkpt>
      <trkpt lat="45.07463" lon="6.13669">
        <ele>2309.6</ele>
        <time>2024-07-09T09:35:06Z</time>
      </trkpt>
      <trkpt lat="45.07463" lon="6.13668">
        <ele>2309.7</ele>
        <time>2024-07-09T09:35:07Z</time>
      </trkpt>
      <trkpt lat="45.07463" lon="6.13668">
        <ele>2309.8</ele>
        <time>2024-07-09T09:35:08Z</time>
      </trkpt>
      <trkpt lat="45.07462" lon="6.13668">
        <ele>2309.9</ele>
        <time>2024-07-09T09:35:09Z</time>
      </trkpt>
      <trkpt lat="45.07462" lon="6.13667">
        <ele>2310</ele>
        <time>2024-07-09T09:35:10Z</time>
      </trkpt>
      <trkpt lat="45.07462" lon="6.13667">
        <ele>2310.2</ele>
        <time>2024-07-09T09:35:11Z</time>
      </trkpt>
      <trkpt lat="45.07461" lon="6.13666">
        <ele>2310.4</ele>
        <time>2024-07-09T09:35:12Z</time>
      </trkpt>
      <trkpt lat="45.07461" lon="6.13666">
        <ele>2310.5</ele>
        <time>2024-07-09T09:35:13Z</time>
      </trkpt>
      <trkpt lat="45.0746" lon="6.13666">
        <ele>2310.7</ele>
        <time>2024-07-09T09:35:14Z</time>
      </trkpt>
      <trkpt lat="45.0746" lon="6.13665">
        <ele>2310.9</ele>
        <time>2024-07-09T09:35:15Z</time>
      </trkpt>
      <trkpt lat="45.07459" lon="6.13665">
        <ele>2311.1</ele>
        <time>2024-07-09T09:35:16Z</time>
      </trkpt>
      <trkpt lat="45.07459" lon="6.13666">
        <ele>2311.2</ele>
        <time>2024-07-09T09:35:18Z</time>
      </trkpt>
      <trkpt lat="45.07459" lon="6.13666">
        <ele>2311.3</ele>
        <time>2024-07-09T09:35:19Z</time>
      </trkpt>
      <trkpt lat="45.07458" lon="6.13666">
        <ele>2311.5</ele>
        <time>2024-07-09T09:35:20Z</time>
      </trkpt>
      <trkpt lat="45.07458" lon="6.13666">
        <ele>2311.6</ele>
        <time>2024-07-09T09:35:21Z</time>
      </trkpt>
      <trkpt lat="45.07458" lon="6.13666">
        <ele>2311.8</ele>
        <time>2024-07-09T09:35:23Z</time>
      </trkpt>
      <trkpt lat="45.07457" lon="6.13666">
        <ele>2311.9</ele>
        <time>2024-07-09T09:35:24Z</time>
      </trkpt>
      <trkpt lat="45.07457" lon="6.13666">
        <ele>2312.1</ele>
        <time>2024-07-09T09:35:25Z</time>
      </trkpt>
      <trkpt lat="45.07456" lon="6.13666">
        <ele>2312.2</ele>
        <time>2024-07-09T09:35:27Z</time>
      </trkpt>
      <trkpt lat="45.07456" lon="6.13666">
        <ele>2312.2</ele>
        <time>2024-07-09T09:35:28Z</time>
      </trkpt>
      <trkpt lat="45.07456" lon="6.13666">
        <ele>2312.3</ele>
        <time>2024-07-09T09:35:29Z</time>
      </trkpt>
      <trkpt lat="45.07456" lon="6.13666">
        <ele>2312.3</ele>
        <time>2024-07-09T09:35:31Z</time>
      </trkpt>
      <trkpt lat="45.07455" lon="6.13665">
        <ele>2312.6</ele>
        <time>2024-07-09T09:35:32Z</time>
      </trkpt>
      <trkpt lat="45.07455" lon="6.13665">
        <ele>2312.6</ele>
        <time>2024-07-09T09:35:34Z</time>
      </trkpt>
      <trkpt lat="45.07455" lon="6.13665">
        <ele>2312.8</ele>
        <time>2024-07-09T09:35:35Z</time>
      </trkpt>
      <trkpt lat="45.07454" lon="6.13664">
        <ele>2313.3</ele>
        <time>2024-07-09T09:35:37Z</time>
      </trkpt>
      <trkpt lat="45.07453" lon="6.13663">
        <ele>2313.5</ele>
        <time>2024-07-09T09:35:39Z</time>
      </trkpt>
      <trkpt lat="45.07452" lon="6.13663">
        <ele>2313.8</ele>
        <time>2024-07-09T09:35:40Z</time>
      </trkpt>
      <trkpt lat="45.07452" lon="6.13662">
        <ele>2314</ele>
        <time>2024-07-09T09:35:42Z</time>
      </trkpt>
      <trkpt lat="45.07452" lon="6.13662">
        <ele>2314</ele>
        <time>2024-07-09T09:35:43Z</time>
      </trkpt>
      <trkpt lat="45.07452" lon="6.13662">
        <ele>2314.1</ele>
        <time>2024-07-09T09:35:45Z</time>
      </trkpt>
      <trkpt lat="45.07452" lon="6.13662">
        <ele>2314.2</ele>
        <time>2024-07-09T09:35:46Z</time>
      </trkpt>
      <trkpt lat="45.07451" lon="6.13662">
        <ele>2314.3</ele>
        <time>2024-07-09T09:35:48Z</time>
      </trkpt>
      <trkpt lat="45.07451" lon="6.13661">
        <ele>2314.4</ele>
        <time>2024-07-09T09:35:49Z</time>
      </trkpt>
      <trkpt lat="45.07451" lon="6.13661">
        <ele>2314.5</ele>
        <time>2024-07-09T09:35:50Z</time>
      </trkpt>
      <trkpt lat="45.0745" lon="6.13661">
        <ele>2314.7</ele>
        <time>2024-07-09T09:35:52Z</time>
      </trkpt>
      <trkpt lat="45.0745" lon="6.13661">
        <ele>2314.8</ele>
        <time>2024-07-09T09:35:53Z</time>
      </trkpt>
      <trkpt lat="45.07449" lon="6.13661">
        <ele>2315</ele>
        <time>2024-07-09T09:35:55Z</time>
      </trkpt>
      <trkpt lat="45.07449" lon="6.1366">
        <ele>2315.1</ele>
        <time>2024-07-09T09:35:57Z</time>
      </trkpt>
      <trkpt lat="45.07449" lon="6.1366">
        <ele>2315.1</ele>
        <time>2024-07-09T09:35:58Z</time>
      </trkpt>
      <trkpt lat="45.07449" lon="6.1366">
        <ele>2315.1</ele>
        <time>2024-07-09T09:35:59Z</time>
      </trkpt>
      <trkpt lat="45.07449" lon="6.1366">
        <ele>2315.1</ele>
        <time>2024-07-09T09:36:00Z</time>
      </trkpt>
      <trkpt lat="45.07449" lon="6.1366">
        <ele>2315.2</ele>
        <time>2024-07-09T09:36:01Z</time>
      </trkpt>
      <trkpt lat="45.07449" lon="6.1366">
        <ele>2315.3</ele>
        <time>2024-07-09T09:36:02Z</time>
      </trkpt>
      <trkpt lat="45.07449" lon="6.1366">
        <ele>2315.3</ele>
        <time>2024-07-09T09:36:03Z</time>
      </trkpt>
      <trkpt lat="45.07448" lon="6.1366">
        <ele>2315.4</ele>
        <time>2024-07-09T09:36:04Z</time>
      </trkpt>
      <trkpt lat="45.07448" lon="6.1366">
        <ele>2315.4</ele>
        <time>2024-07-09T09:36:05Z</time>
      </trkpt>
      <trkpt lat="45.07448" lon="6.13659">
        <ele>2315.5</ele>
        <time>2024-07-09T09:36:07Z</time>
      </trkpt>
      <trkpt lat="45.07447" lon="6.13659">
        <ele>2315.7</ele>
        <time>2024-07-09T09:36:09Z</time>
      </trkpt>
      <trkpt lat="45.07447" lon="6.13659">
        <ele>2315.8</ele>
        <time>2024-07-09T09:36:11Z</time>
      </trkpt>
      <trkpt lat="45.07447" lon="6.13659">
        <ele>2315.9</ele>
        <time>2024-07-09T09:36:12Z</time>
      </trkpt>
      <trkpt lat="45.07447" lon="6.13659">
        <ele>2315.9</ele>
        <time>2024-07-09T09:36:13Z</time>
      </trkpt>
      <trkpt lat="45.07446" lon="6.13658">
        <ele>2316.2</ele>
        <time>2024-07-09T09:36:14Z</time>
      </trkpt>
      <trkpt lat="45.07446" lon="6.13658">
        <ele>2316.3</ele>
        <time>2024-07-09T09:36:16Z</time>
      </trkpt>
      <trkpt lat="45.07445" lon="6.13658">
        <ele>2316.6</ele>
        <time>2024-07-09T09:36:18Z</time>
      </trkpt>
      <trkpt lat="45.07445" lon="6.13658">
        <ele>2316.7</ele>
        <time>2024-07-09T09:36:19Z</time>
      </trkpt>
      <trkpt lat="45.07444" lon="6.13657">
        <ele>2316.8</ele>
        <time>2024-07-09T09:36:20Z</time>
      </trkpt>
      <trkpt lat="45.07444" lon="6.13657">
        <ele>2317</ele>
        <time>2024-07-09T09:36:22Z</time>
      </trkpt>
      <trkpt lat="45.07443" lon="6.13657">
        <ele>2317.1</ele>
        <time>2024-07-09T09:36:23Z</time>
      </trkpt>
      <trkpt lat="45.07443" lon="6.13657">
        <ele>2317.2</ele>
        <time>2024-07-09T09:36:24Z</time>
      </trkpt>
      <trkpt lat="45.07443" lon="6.13657">
        <ele>2317.3</ele>
        <time>2024-07-09T09:36:25Z</time>
      </trkpt>
      <trkpt lat="45.07443" lon="6.13657">
        <ele>2317.4</ele>
        <time>2024-07-09T09:36:26Z</time>
      </trkpt>
      <trkpt lat="45.07442" lon="6.13657">
        <ele>2317.5</ele>
        <time>2024-07-09T09:36:27Z</time>
      </trkpt>
      <trkpt lat="45.07442" lon="6.13657">
        <ele>2317.6</ele>
        <time>2024-07-09T09:36:28Z</time>
      </trkpt>
      <trkpt lat="45.07441" lon="6.13657">
        <ele>2317.8</ele>
        <time>2024-07-09T09:36:29Z</time>
      </trkpt>
      <trkpt lat="45.07439" lon="6.13657">
        <ele>2318.5</ele>
        <time>2024-07-09T09:36:31Z</time>
      </trkpt>
      <trkpt lat="45.07438" lon="6.13656">
        <ele>2318.8</ele>
        <time>2024-07-09T09:36:33Z</time>
      </trkpt>
      <trkpt lat="45.07438" lon="6.13656">
        <ele>2318.9</ele>
        <time>2024-07-09T09:36:34Z</time>
      </trkpt>
      <trkpt lat="45.07438" lon="6.13656">
        <ele>2319</ele>
        <time>2024-07-09T09:36:36Z</time>
      </trkpt>
      <trkpt lat="45.07438" lon="6.13655">
        <ele>2319.1</ele>
        <time>2024-07-09T09:36:38Z</time>
      </trkpt>
      <trkpt lat="45.07437" lon="6.13655">
        <ele>2319.4</ele>
        <time>2024-07-09T09:36:40Z</time>
      </trkpt>
      <trkpt lat="45.07436" lon="6.13654">
        <ele>2319.6</ele>
        <time>2024-07-09T09:36:42Z</time>
      </trkpt>
      <trkpt lat="45.07436" lon="6.13654">
        <ele>2319.6</ele>
        <time>2024-07-09T09:36:43Z</time>
      </trkpt>
      <trkpt lat="45.07436" lon="6.13653">
        <ele>2319.9</ele>
        <time>2024-07-09T09:36:44Z</time>
      </trkpt>
      <trkpt lat="45.07435" lon="6.13653">
        <ele>2320.2</ele>
        <time>2024-07-09T09:36:46Z</time>
      </trkpt>
      <trkpt lat="45.07434" lon="6.13652">
        <ele>2320.4</ele>
        <time>2024-07-09T09:36:47Z</time>
      </trkpt>
      <trkpt lat="45.07433" lon="6.13652">
        <ele>2320.7</ele>
        <time>2024-07-09T09:36:48Z</time>
      </trkpt>
      <trkpt lat="45.07433" lon="6.13651">
        <ele>2320.8</ele>
        <time>2024-07-09T09:36:50Z</time>
      </trkpt>
      <trkpt lat="45.07433" lon="6.13651">
        <ele>2320.9</ele>
        <time>2024-07-09T09:36:52Z</time>
      </trkpt>
      <trkpt lat="45.07433" lon="6.13651">
        <ele>2320.9</ele>
        <time>2024-07-09T09:36:53Z</time>
      </trkpt>
      <trkpt lat="45.07433" lon="6.13651">
        <ele>2321</ele>
        <time>2024-07-09T09:36:54Z</time>
      </trkpt>
      <trkpt lat="45.07433" lon="6.1365">
        <ele>2321.1</ele>
        <time>2024-07-09T09:36:55Z</time>
      </trkpt>
      <trkpt lat="45.07432" lon="6.1365">
        <ele>2321.2</ele>
        <time>2024-07-09T09:36:56Z</time>
      </trkpt>
      <trkpt lat="45.07432" lon="6.13649">
        <ele>2321.3</ele>
        <time>2024-07-09T09:36:57Z</time>
      </trkpt>
      <trkpt lat="45.07432" lon="6.13649">
        <ele>2321.4</ele>
        <time>2024-07-09T09:36:58Z</time>
      </trkpt>
      <trkpt lat="45.07432" lon="6.13648">
        <ele>2321.5</ele>
        <time>2024-07-09T09:36:59Z</time>
      </trkpt>
      <trkpt lat="45.07432" lon="6.13648">
        <ele>2321.7</ele>
        <time>2024-07-09T09:37:00Z</time>
      </trkpt>
      <trkpt lat="45.07432" lon="6.13647">
        <ele>2321.9</ele>
        <time>2024-07-09T09:37:01Z</time>
      </trkpt>
      <trkpt lat="45.07432" lon="6.13646">
        <ele>2322.1</ele>
        <time>2024-07-09T09:37:02Z</time>
      </trkpt>
      <trkpt lat="45.07432" lon="6.13645">
        <ele>2322.2</ele>
        <time>2024-07-09T09:37:04Z</time>
      </trkpt>
      <trkpt lat="45.07432" lon="6.13645">
        <ele>2322.4</ele>
        <time>2024-07-09T09:37:05Z</time>
      </trkpt>
      <trkpt lat="45.07431" lon="6.13644">
        <ele>2322.6</ele>
        <time>2024-07-09T09:37:06Z</time>
      </trkpt>
      <trkpt lat="45.07431" lon="6.13643">
        <ele>2322.8</ele>
        <time>2024-07-09T09:37:08Z</time>
      </trkpt>
      <trkpt lat="45.07431" lon="6.13642">
        <ele>2322.9</ele>
        <time>2024-07-09T09:37:09Z</time>
      </trkpt>
      <trkpt lat="45.07431" lon="6.13642">
        <ele>2323.1</ele>
        <time>2024-07-09T09:37:10Z</time>
      </trkpt>
      <trkpt lat="45.07431" lon="6.13641">
        <ele>2323.3</ele>
        <time>2024-07-09T09:37:11Z</time>
      </trkpt>
      <trkpt lat="45.07431" lon="6.1364">
        <ele>2323.4</ele>
        <time>2024-07-09T09:37:12Z</time>
      </trkpt>
      <trkpt lat="45.0743" lon="6.13639">
        <ele>2323.6</ele>
        <time>2024-07-09T09:37:13Z</time>
      </trkpt>
      <trkpt lat="45.0743" lon="6.13639">
        <ele>2323.7</ele>
        <time>2024-07-09T09:37:14Z</time>
      </trkpt>
      <trkpt lat="45.0743" lon="6.13637">
        <ele>2324</ele>
        <time>2024-07-09T09:37:15Z</time>
      </trkpt>
      <trkpt lat="45.0743" lon="6.13637">
        <ele>2324.2</ele>
        <time>2024-07-09T09:37:16Z</time>
      </trkpt>
      <trkpt lat="45.0743" lon="6.13636">
        <ele>2324.3</ele>
        <time>2024-07-09T09:37:18Z</time>
      </trkpt>
      <trkpt lat="45.0743" lon="6.13636">
        <ele>2324.4</ele>
        <time>2024-07-09T09:37:19Z</time>
      </trkpt>
      <trkpt lat="45.0743" lon="6.13635">
        <ele>2324.5</ele>
        <time>2024-07-09T09:37:20Z</time>
      </trkpt>
      <trkpt lat="45.07429" lon="6.13635">
        <ele>2324.7</ele>
        <time>2024-07-09T09:37:21Z</time>
      </trkpt>
      <trkpt lat="45.07429" lon="6.13635">
        <ele>2324.8</ele>
        <time>2024-07-09T09:37:22Z</time>
      </trkpt>
      <trkpt lat="45.07428" lon="6.13635">
        <ele>2325.2</ele>
        <time>2024-07-09T09:37:23Z</time>
      </trkpt>
      <trkpt lat="45.07427" lon="6.13635">
        <ele>2325.3</ele>
        <time>2024-07-09T09:37:24Z</time>
      </trkpt>
      <trkpt lat="45.07426" lon="6.13636">
        <ele>2325.6</ele>
        <time>2024-07-09T09:37:26Z</time>
      </trkpt>
      <trkpt lat="45.07425" lon="6.13637">
        <ele>2325.9</ele>
        <time>2024-07-09T09:37:28Z</time>
      </trkpt>
      <trkpt lat="45.07425" lon="6.13637">
        <ele>2326</ele>
        <time>2024-07-09T09:37:29Z</time>
      </trkpt>
      <trkpt lat="45.07424" lon="6.13638">
        <ele>2326.2</ele>
        <time>2024-07-09T09:37:30Z</time>
      </trkpt>
      <trkpt lat="45.07423" lon="6.13637">
        <ele>2326.5</ele>
        <time>2024-07-09T09:37:31Z</time>
      </trkpt>
      <trkpt lat="45.07422" lon="6.13637">
        <ele>2326.8</ele>
        <time>2024-07-09T09:37:33Z</time>
      </trkpt>
      <trkpt lat="45.07422" lon="6.13637">
        <ele>2326.9</ele>
        <time>2024-07-09T09:37:34Z</time>
      </trkpt>
      <trkpt lat="45.07421" lon="6.13636">
        <ele>2327.1</ele>
        <time>2024-07-09T09:37:35Z</time>
      </trkpt>
      <trkpt lat="45.07421" lon="6.13636">
        <ele>2327.3</ele>
        <time>2024-07-09T09:37:36Z</time>
      </trkpt>
      <trkpt lat="45.07421" lon="6.13636">
        <ele>2327.3</ele>
        <time>2024-07-09T09:37:37Z</time>
      </trkpt>
      <trkpt lat="45.0742" lon="6.13636">
        <ele>2327.4</ele>
        <time>2024-07-09T09:37:38Z</time>
      </trkpt>
      <trkpt lat="45.0742" lon="6.13636">
        <ele>2327.5</ele>
        <time>2024-07-09T09:37:39Z</time>
      </trkpt>
      <trkpt lat="45.0742" lon="6.13635">
        <ele>2327.6</ele>
        <time>2024-07-09T09:37:41Z</time>
      </trkpt>
      <trkpt lat="45.07419" lon="6.13635">
        <ele>2327.8</ele>
        <time>2024-07-09T09:37:42Z</time>
      </trkpt>
      <trkpt lat="45.07419" lon="6.13635">
        <ele>2328</ele>
        <time>2024-07-09T09:37:43Z</time>
      </trkpt>
      <trkpt lat="45.07418" lon="6.13635">
        <ele>2328.1</ele>
        <time>2024-07-09T09:37:44Z</time>
      </trkpt>
      <trkpt lat="45.07417" lon="6.13634">
        <ele>2328.4</ele>
        <time>2024-07-09T09:37:45Z</time>
      </trkpt>
      <trkpt lat="45.07417" lon="6.13634">
        <ele>2328.4</ele>
        <time>2024-07-09T09:37:46Z</time>
      </trkpt>
      <trkpt lat="45.07417" lon="6.13634">
        <ele>2328.5</ele>
        <time>2024-07-09T09:37:48Z</time>
      </trkpt>
      <trkpt lat="45.07417" lon="6.13633">
        <ele>2328.7</ele>
        <time>2024-07-09T09:37:49Z</time>
      </trkpt>
      <trkpt lat="45.07416" lon="6.13633">
        <ele>2328.7</ele>
        <time>2024-07-09T09:37:50Z</time>
      </trkpt>
      <trkpt lat="45.07416" lon="6.13633">
        <ele>2328.8</ele>
        <time>2024-07-09T09:37:52Z</time>
      </trkpt>
      <trkpt lat="45.07416" lon="6.13632">
        <ele>2329</ele>
        <time>2024-07-09T09:37:53Z</time>
      </trkpt>
      <trkpt lat="45.07415" lon="6.13632">
        <ele>2329.1</ele>
        <time>2024-07-09T09:37:54Z</time>
      </trkpt>
      <trkpt lat="45.07414" lon="6.13631">
        <ele>2329.4</ele>
        <time>2024-07-09T09:37:55Z</time>
      </trkpt>
      <trkpt lat="45.07414" lon="6.13631">
        <ele>2329.5</ele>
        <time>2024-07-09T09:37:57Z</time>
      </trkpt>
      <trkpt lat="45.07413" lon="6.13631">
        <ele>2329.7</ele>
        <time>2024-07-09T09:37:58Z</time>
      </trkpt>
      <trkpt lat="45.07413" lon="6.1363">
        <ele>2329.8</ele>
        <time>2024-07-09T09:37:59Z</time>
      </trkpt>
      <trkpt lat="45.07412" lon="6.1363">
        <ele>2330</ele>
        <time>2024-07-09T09:38:00Z</time>
      </trkpt>
      <trkpt lat="45.07412" lon="6.1363">
        <ele>2330.1</ele>
        <time>2024-07-09T09:38:01Z</time>
      </trkpt>
      <trkpt lat="45.07411" lon="6.1363">
        <ele>2330.2</ele>
        <time>2024-07-09T09:38:02Z</time>
      </trkpt>
      <trkpt lat="45.07411" lon="6.1363">
        <ele>2330.4</ele>
        <time>2024-07-09T09:38:03Z</time>
      </trkpt>
      <trkpt lat="45.07411" lon="6.1363">
        <ele>2330.4</ele>
        <time>2024-07-09T09:38:04Z</time>
      </trkpt>
      <trkpt lat="45.0741" lon="6.1363">
        <ele>2330.5</ele>
        <time>2024-07-09T09:38:05Z</time>
      </trkpt>
      <trkpt lat="45.0741" lon="6.1363">
        <ele>2330.6</ele>
        <time>2024-07-09T09:38:06Z</time>
      </trkpt>
      <trkpt lat="45.0741" lon="6.1363">
        <ele>2330.7</ele>
        <time>2024-07-09T09:38:07Z</time>
      </trkpt>
      <trkpt lat="45.07409" lon="6.1363">
        <ele>2330.8</ele>
        <time>2024-07-09T09:38:08Z</time>
      </trkpt>
      <trkpt lat="45.07409" lon="6.13629">
        <ele>2331.1</ele>
        <time>2024-07-09T09:38:10Z</time>
      </trkpt>
      <trkpt lat="45.07408" lon="6.13628">
        <ele>2331.2</ele>
        <time>2024-07-09T09:38:12Z</time>
      </trkpt>
      <trkpt lat="45.07408" lon="6.13628">
        <ele>2331.4</ele>
        <time>2024-07-09T09:38:13Z</time>
      </trkpt>
      <trkpt lat="45.07408" lon="6.13627">
        <ele>2331.5</ele>
        <time>2024-07-09T09:38:14Z</time>
      </trkpt>
      <trkpt lat="45.07408" lon="6.13627">
        <ele>2331.6</ele>
        <time>2024-07-09T09:38:15Z</time>
      </trkpt>
      <trkpt lat="45.07408" lon="6.13627">
        <ele>2331.6</ele>
        <time>2024-07-09T09:38:16Z</time>
      </trkpt>
      <trkpt lat="45.07408" lon="6.13626">
        <ele>2331.7</ele>
        <time>2024-07-09T09:38:17Z</time>
      </trkpt>
      <trkpt lat="45.07407" lon="6.13626">
        <ele>2331.9</ele>
        <time>2024-07-09T09:38:18Z</time>
      </trkpt>
      <trkpt lat="45.07407" lon="6.13625">
        <ele>2332.1</ele>
        <time>2024-07-09T09:38:19Z</time>
      </trkpt>
      <trkpt lat="45.07407" lon="6.13624">
        <ele>2332.2</ele>
        <time>2024-07-09T09:38:21Z</time>
      </trkpt>
      <trkpt lat="45.07407" lon="6.13624">
        <ele>2332.3</ele>
        <time>2024-07-09T09:38:22Z</time>
      </trkpt>
      <trkpt lat="45.07407" lon="6.13623">
        <ele>2332.5</ele>
        <time>2024-07-09T09:38:23Z</time>
      </trkpt>
      <trkpt lat="45.07407" lon="6.13622">
        <ele>2332.6</ele>
        <time>2024-07-09T09:38:24Z</time>
      </trkpt>
      <trkpt lat="45.07407" lon="6.13621">
        <ele>2332.8</ele>
        <time>2024-07-09T09:38:25Z</time>
      </trkpt>
      <trkpt lat="45.07407" lon="6.1362">
        <ele>2333</ele>
        <time>2024-07-09T09:38:26Z</time>
      </trkpt>
      <trkpt lat="45.07407" lon="6.13617">
        <ele>2333.6</ele>
        <time>2024-07-09T09:38:27Z</time>
      </trkpt>
      <trkpt lat="45.07407" lon="6.13616">
        <ele>2333.7</ele>
        <time>2024-07-09T09:38:29Z</time>
      </trkpt>
      <trkpt lat="45.07406" lon="6.13614">
        <ele>2334.1</ele>
        <time>2024-07-09T09:38:30Z</time>
      </trkpt>
      <trkpt lat="45.07406" lon="6.13614">
        <ele>2334.2</ele>
        <time>2024-07-09T09:38:32Z</time>
      </trkpt>
      <trkpt lat="45.07405" lon="6.13613">
        <ele>2334.4</ele>
        <time>2024-07-09T09:38:33Z</time>
      </trkpt>
      <trkpt lat="45.07405" lon="6.13612">
        <ele>2334.5</ele>
        <time>2024-07-09T09:38:34Z</time>
      </trkpt>
      <trkpt lat="45.07404" lon="6.13611">
        <ele>2334.8</ele>
        <time>2024-07-09T09:38:35Z</time>
      </trkpt>
      <trkpt lat="45.07404" lon="6.13611">
        <ele>2335</ele>
        <time>2024-07-09T09:38:36Z</time>
      </trkpt>
      <trkpt lat="45.07403" lon="6.1361">
        <ele>2335.1</ele>
        <time>2024-07-09T09:38:37Z</time>
      </trkpt>
      <trkpt lat="45.07402" lon="6.1361">
        <ele>2335.3</ele>
        <time>2024-07-09T09:38:38Z</time>
      </trkpt>
      <trkpt lat="45.07401" lon="6.13608">
        <ele>2335.7</ele>
        <time>2024-07-09T09:38:39Z</time>
      </trkpt>
      <trkpt lat="45.07401" lon="6.13607">
        <ele>2335.9</ele>
        <time>2024-07-09T09:38:40Z</time>
      </trkpt>
      <trkpt lat="45.07401" lon="6.13606">
        <ele>2336.1</ele>
        <time>2024-07-09T09:38:42Z</time>
      </trkpt>
      <trkpt lat="45.074" lon="6.13604">
        <ele>2336.3</ele>
        <time>2024-07-09T09:38:43Z</time>
      </trkpt>
      <trkpt lat="45.074" lon="6.13602">
        <ele>2336.5</ele>
        <time>2024-07-09T09:38:44Z</time>
      </trkpt>
      <trkpt lat="45.074" lon="6.13602">
        <ele>2336.6</ele>
        <time>2024-07-09T09:38:46Z</time>
      </trkpt>
      <trkpt lat="45.074" lon="6.13601">
        <ele>2336.8</ele>
        <time>2024-07-09T09:38:47Z</time>
      </trkpt>
      <trkpt lat="45.07399" lon="6.13599">
        <ele>2337</ele>
        <time>2024-07-09T09:38:48Z</time>
      </trkpt>
      <trkpt lat="45.07399" lon="6.13599">
        <ele>2337.1</ele>
        <time>2024-07-09T09:38:49Z</time>
      </trkpt>
      <trkpt lat="45.07398" lon="6.13597">
        <ele>2337.4</ele>
        <time>2024-07-09T09:38:50Z</time>
      </trkpt>
      <trkpt lat="45.07398" lon="6.13596">
        <ele>2337.5</ele>
        <time>2024-07-09T09:38:51Z</time>
      </trkpt>
      <trkpt lat="45.07397" lon="6.13595">
        <ele>2337.6</ele>
        <time>2024-07-09T09:38:52Z</time>
      </trkpt>
      <trkpt lat="45.07397" lon="6.13594">
        <ele>2337.8</ele>
        <time>2024-07-09T09:38:53Z</time>
      </trkpt>
      <trkpt lat="45.07396" lon="6.13592">
        <ele>2338</ele>
        <time>2024-07-09T09:38:54Z</time>
      </trkpt>
      <trkpt lat="45.07395" lon="6.13592">
        <ele>2338.2</ele>
        <time>2024-07-09T09:38:55Z</time>
      </trkpt>
      <trkpt lat="45.07393" lon="6.13591">
        <ele>2338.3</ele>
        <time>2024-07-09T09:38:57Z</time>
      </trkpt>
      <trkpt lat="45.07392" lon="6.1359">
        <ele>2338.5</ele>
        <time>2024-07-09T09:38:58Z</time>
      </trkpt>
      <trkpt lat="45.07392" lon="6.1359">
        <ele>2338.6</ele>
        <time>2024-07-09T09:38:59Z</time>
      </trkpt>
      <trkpt lat="45.07391" lon="6.1359">
        <ele>2338.7</ele>
        <time>2024-07-09T09:39:00Z</time>
      </trkpt>
      <trkpt lat="45.0739" lon="6.13588">
        <ele>2338.8</ele>
        <time>2024-07-09T09:39:01Z</time>
      </trkpt>
      <trkpt lat="45.07389" lon="6.13587">
        <ele>2338.9</ele>
        <time>2024-07-09T09:39:03Z</time>
      </trkpt>
      <trkpt lat="45.07389" lon="6.13586">
        <ele>2339</ele>
        <time>2024-07-09T09:39:04Z</time>
      </trkpt>
      <trkpt lat="45.07388" lon="6.13586">
        <ele>2339</ele>
        <time>2024-07-09T09:39:05Z</time>
      </trkpt>
      <trkpt lat="45.07388" lon="6.13585">
        <ele>2339.1</ele>
        <time>2024-07-09T09:39:06Z</time>
      </trkpt>
      <trkpt lat="45.07387" lon="6.13584">
        <ele>2339.2</ele>
        <time>2024-07-09T09:39:07Z</time>
      </trkpt>
      <trkpt lat="45.07387" lon="6.13583">
        <ele>2339.3</ele>
        <time>2024-07-09T09:39:08Z</time>
      </trkpt>
      <trkpt lat="45.07387" lon="6.13583">
        <ele>2339.3</ele>
        <time>2024-07-09T09:39:10Z</time>
      </trkpt>
      <trkpt lat="45.07387" lon="6.13582">
        <ele>2339.3</ele>
        <time>2024-07-09T09:39:11Z</time>
      </trkpt>
      <trkpt lat="45.07387" lon="6.13581">
        <ele>2339.4</ele>
        <time>2024-07-09T09:39:12Z</time>
      </trkpt>
      <trkpt lat="45.07387" lon="6.1358">
        <ele>2339.5</ele>
        <time>2024-07-09T09:39:13Z</time>
      </trkpt>
      <trkpt lat="45.07387" lon="6.1358">
        <ele>2339.5</ele>
        <time>2024-07-09T09:39:14Z</time>
      </trkpt>
      <trkpt lat="45.07386" lon="6.13579">
        <ele>2339.5</ele>
        <time>2024-07-09T09:39:15Z</time>
      </trkpt>
      <trkpt lat="45.07386" lon="6.13578">
        <ele>2339.6</ele>
        <time>2024-07-09T09:39:16Z</time>
      </trkpt>
      <trkpt lat="45.07386" lon="6.13577">
        <ele>2339.6</ele>
        <time>2024-07-09T09:39:17Z</time>
      </trkpt>
      <trkpt lat="45.07386" lon="6.13576">
        <ele>2339.7</ele>
        <time>2024-07-09T09:39:18Z</time>
      </trkpt>
      <trkpt lat="45.07385" lon="6.13576">
        <ele>2339.7</ele>
        <time>2024-07-09T09:39:19Z</time>
      </trkpt>
      <trkpt lat="45.07385" lon="6.13574">
        <ele>2339.8</ele>
        <time>2024-07-09T09:39:20Z</time>
      </trkpt>
      <trkpt lat="45.07384" lon="6.13573">
        <ele>2339.9</ele>
        <time>2024-07-09T09:39:22Z</time>
      </trkpt>
      <trkpt lat="45.07384" lon="6.13573">
        <ele>2340</ele>
        <time>2024-07-09T09:39:23Z</time>
      </trkpt>
      <trkpt lat="45.07384" lon="6.13573">
        <ele>2340</ele>
        <time>2024-07-09T09:39:25Z</time>
      </trkpt>
      <trkpt lat="45.07384" lon="6.13572">
        <ele>2340</ele>
        <time>2024-07-09T09:39:26Z</time>
      </trkpt>
      <trkpt lat="45.07384" lon="6.13571">
        <ele>2340.1</ele>
        <time>2024-07-09T09:39:27Z</time>
      </trkpt>
      <trkpt lat="45.07383" lon="6.13571">
        <ele>2340.1</ele>
        <time>2024-07-09T09:39:28Z</time>
      </trkpt>
      <trkpt lat="45.07383" lon="6.1357">
        <ele>2340.2</ele>
        <time>2024-07-09T09:39:29Z</time>
      </trkpt>
      <trkpt lat="45.07382" lon="6.13569">
        <ele>2340.2</ele>
        <time>2024-07-09T09:39:30Z</time>
      </trkpt>
      <trkpt lat="45.07382" lon="6.1357">
        <ele>2340.3</ele>
        <time>2024-07-09T09:39:31Z</time>
      </trkpt>
      <trkpt lat="45.07382" lon="6.1357">
        <ele>2340.3</ele>
        <time>2024-07-09T09:39:32Z</time>
      </trkpt>
      <trkpt lat="45.07382" lon="6.1357">
        <ele>2340.3</ele>
        <time>2024-07-09T09:39:33Z</time>
      </trkpt>
      <trkpt lat="45.07382" lon="6.1357">
        <ele>2340.3</ele>
        <time>2024-07-09T09:39:34Z</time>
      </trkpt>
      <trkpt lat="45.07382" lon="6.13569">
        <ele>2340.4</ele>
        <time>2024-07-09T09:39:36Z</time>
      </trkpt>
      <trkpt lat="45.07381" lon="6.13567">
        <ele>2340.5</ele>
        <time>2024-07-09T09:39:38Z</time>
      </trkpt>
      <trkpt lat="45.07381" lon="6.13566">
        <ele>2340.6</ele>
        <time>2024-07-09T09:39:39Z</time>
      </trkpt>
      <trkpt lat="45.07381" lon="6.13564">
        <ele>2340.7</ele>
        <time>2024-07-09T09:39:40Z</time>
      </trkpt>
      <trkpt lat="45.07381" lon="6.13561">
        <ele>2340.9</ele>
        <time>2024-07-09T09:39:42Z</time>
      </trkpt>
      <trkpt lat="45.07381" lon="6.1356">
        <ele>2341</ele>
        <time>2024-07-09T09:39:43Z</time>
      </trkpt>
      <trkpt lat="45.0738" lon="6.1356">
        <ele>2341</ele>
        <time>2024-07-09T09:39:45Z</time>
      </trkpt>
      <trkpt lat="45.07379" lon="6.13559">
        <ele>2341.1</ele>
        <time>2024-07-09T09:39:46Z</time>
      </trkpt>
      <trkpt lat="45.07379" lon="6.13558">
        <ele>2341.2</ele>
        <time>2024-07-09T09:39:48Z</time>
      </trkpt>
      <trkpt lat="45.07379" lon="6.13557">
        <ele>2341.3</ele>
        <time>2024-07-09T09:39:49Z</time>
      </trkpt>
      <trkpt lat="45.07378" lon="6.13557">
        <ele>2341.4</ele>
        <time>2024-07-09T09:39:50Z</time>
      </trkpt>
      <trkpt lat="45.07377" lon="6.13556">
        <ele>2341.5</ele>
        <time>2024-07-09T09:39:51Z</time>
      </trkpt>
      <trkpt lat="45.07376" lon="6.13555">
        <ele>2341.6</ele>
        <time>2024-07-09T09:39:53Z</time>
      </trkpt>
      <trkpt lat="45.07376" lon="6.13555">
        <ele>2341.7</ele>
        <time>2024-07-09T09:39:54Z</time>
      </trkpt>
      <trkpt lat="45.07375" lon="6.13554">
        <ele>2341.8</ele>
        <time>2024-07-09T09:39:55Z</time>
      </trkpt>
      <trkpt lat="45.07375" lon="6.13552">
        <ele>2341.9</ele>
        <time>2024-07-09T09:39:56Z</time>
      </trkpt>
      <trkpt lat="45.07374" lon="6.13551">
        <ele>2342.1</ele>
        <time>2024-07-09T09:39:58Z</time>
      </trkpt>
      <trkpt lat="45.07373" lon="6.13549">
        <ele>2342.3</ele>
        <time>2024-07-09T09:40:00Z</time>
      </trkpt>
      <trkpt lat="45.07373" lon="6.13545">
        <ele>2342.6</ele>
        <time>2024-07-09T09:40:02Z</time>
      </trkpt>
      <trkpt lat="45.07373" lon="6.13544">
        <ele>2342.7</ele>
        <time>2024-07-09T09:40:04Z</time>
      </trkpt>
      <trkpt lat="45.07373" lon="6.13543">
        <ele>2342.8</ele>
        <time>2024-07-09T09:40:05Z</time>
      </trkpt>
      <trkpt lat="45.07372" lon="6.13542">
        <ele>2343</ele>
        <time>2024-07-09T09:40:06Z</time>
      </trkpt>
      <trkpt lat="45.07372" lon="6.13541">
        <ele>2343.1</ele>
        <time>2024-07-09T09:40:07Z</time>
      </trkpt>
      <trkpt lat="45.0737" lon="6.13539">
        <ele>2343.3</ele>
        <time>2024-07-09T09:40:08Z</time>
      </trkpt>
      <trkpt lat="45.0737" lon="6.13538">
        <ele>2343.4</ele>
        <time>2024-07-09T09:40:10Z</time>
      </trkpt>
      <trkpt lat="45.0737" lon="6.13537">
        <ele>2343.5</ele>
        <time>2024-07-09T09:40:11Z</time>
      </trkpt>
      <trkpt lat="45.0737" lon="6.13535">
        <ele>2343.8</ele>
        <time>2024-07-09T09:40:12Z</time>
      </trkpt>
      <trkpt lat="45.0737" lon="6.13535">
        <ele>2343.8</ele>
        <time>2024-07-09T09:40:14Z</time>
      </trkpt>
      <trkpt lat="45.0737" lon="6.13534">
        <ele>2343.8</ele>
        <time>2024-07-09T09:40:15Z</time>
      </trkpt>
      <trkpt lat="45.07369" lon="6.13533">
        <ele>2344</ele>
        <time>2024-07-09T09:40:16Z</time>
      </trkpt>
      <trkpt lat="45.07368" lon="6.13532">
        <ele>2344.1</ele>
        <time>2024-07-09T09:40:17Z</time>
      </trkpt>
      <trkpt lat="45.07368" lon="6.13532">
        <ele>2344.1</ele>
        <time>2024-07-09T09:40:19Z</time>
      </trkpt>
      <trkpt lat="45.07368" lon="6.1353">
        <ele>2344.3</ele>
        <time>2024-07-09T09:40:20Z</time>
      </trkpt>
      <trkpt lat="45.07368" lon="6.13529">
        <ele>2344.3</ele>
        <time>2024-07-09T09:40:21Z</time>
      </trkpt>
      <trkpt lat="45.07367" lon="6.13528">
        <ele>2344.4</ele>
        <time>2024-07-09T09:40:23Z</time>
      </trkpt>
      <trkpt lat="45.07367" lon="6.13526">
        <ele>2344.6</ele>
        <time>2024-07-09T09:40:24Z</time>
      </trkpt>
      <trkpt lat="45.07366" lon="6.13526">
        <ele>2344.7</ele>
        <time>2024-07-09T09:40:26Z</time>
      </trkpt>
      <trkpt lat="45.07365" lon="6.13526">
        <ele>2344.8</ele>
        <time>2024-07-09T09:40:27Z</time>
      </trkpt>
      <trkpt lat="45.07365" lon="6.13524">
        <ele>2344.9</ele>
        <time>2024-07-09T09:40:28Z</time>
      </trkpt>
      <trkpt lat="45.07364" lon="6.13523">
        <ele>2345</ele>
        <time>2024-07-09T09:40:29Z</time>
      </trkpt>
      <trkpt lat="45.07364" lon="6.13523">
        <ele>2345.1</ele>
        <time>2024-07-09T09:40:30Z</time>
      </trkpt>
      <trkpt lat="45.07363" lon="6.13522">
        <ele>2345.2</ele>
        <time>2024-07-09T09:40:31Z</time>
      </trkpt>
      <trkpt lat="45.07362" lon="6.13522">
        <ele>2345.3</ele>
        <time>2024-07-09T09:40:32Z</time>
      </trkpt>
      <trkpt lat="45.07362" lon="6.13522">
        <ele>2345.4</ele>
        <time>2024-07-09T09:40:33Z</time>
      </trkpt>
      <trkpt lat="45.07361" lon="6.13521">
        <ele>2345.5</ele>
        <time>2024-07-09T09:40:35Z</time>
      </trkpt>
      <trkpt lat="45.0736" lon="6.13521">
        <ele>2345.6</ele>
        <time>2024-07-09T09:40:36Z</time>
      </trkpt>
      <trkpt lat="45.07359" lon="6.1352">
        <ele>2345.7</ele>
        <time>2024-07-09T09:40:38Z</time>
      </trkpt>
      <trkpt lat="45.0736" lon="6.1352">
        <ele>2345.7</ele>
        <time>2024-07-09T09:40:39Z</time>
      </trkpt>
      <trkpt lat="45.07359" lon="6.1352">
        <ele>2345.9</ele>
        <time>2024-07-09T09:40:40Z</time>
      </trkpt>
      <trkpt lat="45.07358" lon="6.13519">
        <ele>2346</ele>
        <time>2024-07-09T09:40:41Z</time>
      </trkpt>
      <trkpt lat="45.07357" lon="6.13517">
        <ele>2346.1</ele>
        <time>2024-07-09T09:40:43Z</time>
      </trkpt>
      <trkpt lat="45.07357" lon="6.13517">
        <ele>2346.2</ele>
        <time>2024-07-09T09:40:44Z</time>
      </trkpt>
      <trkpt lat="45.07356" lon="6.13516">
        <ele>2346.3</ele>
        <time>2024-07-09T09:40:45Z</time>
      </trkpt>
      <trkpt lat="45.07355" lon="6.13516">
        <ele>2346.4</ele>
        <time>2024-07-09T09:40:46Z</time>
      </trkpt>
      <trkpt lat="45.07354" lon="6.13515">
        <ele>2346.5</ele>
        <time>2024-07-09T09:40:47Z</time>
      </trkpt>
      <trkpt lat="45.07354" lon="6.13514">
        <ele>2346.6</ele>
        <time>2024-07-09T09:40:48Z</time>
      </trkpt>
      <trkpt lat="45.07353" lon="6.13514">
        <ele>2346.6</ele>
        <time>2024-07-09T09:40:49Z</time>
      </trkpt>
      <trkpt lat="45.07353" lon="6.13514">
        <ele>2346.7</ele>
        <time>2024-07-09T09:40:50Z</time>
      </trkpt>
      <trkpt lat="45.07352" lon="6.13513">
        <ele>2346.8</ele>
        <time>2024-07-09T09:40:51Z</time>
      </trkpt>
      <trkpt lat="45.07351" lon="6.13512">
        <ele>2346.9</ele>
        <time>2024-07-09T09:40:52Z</time>
      </trkpt>
      <trkpt lat="45.07351" lon="6.13512">
        <ele>2346.9</ele>
        <time>2024-07-09T09:40:53Z</time>
      </trkpt>
      <trkpt lat="45.07351" lon="6.13512">
        <ele>2346.9</ele>
        <time>2024-07-09T09:40:54Z</time>
      </trkpt>
      <trkpt lat="45.07351" lon="6.13511">
        <ele>2347</ele>
        <time>2024-07-09T09:40:55Z</time>
      </trkpt>
      <trkpt lat="45.07351" lon="6.1351">
        <ele>2347</ele>
        <time>2024-07-09T09:40:56Z</time>
      </trkpt>
      <trkpt lat="45.0735" lon="6.13509">
        <ele>2347.1</ele>
        <time>2024-07-09T09:40:57Z</time>
      </trkpt>
      <trkpt lat="45.07349" lon="6.13509">
        <ele>2347.2</ele>
        <time>2024-07-09T09:40:59Z</time>
      </trkpt>
      <trkpt lat="45.07349" lon="6.13508">
        <ele>2347.2</ele>
        <time>2024-07-09T09:41:00Z</time>
      </trkpt>
      <trkpt lat="45.07349" lon="6.13508">
        <ele>2347.3</ele>
        <time>2024-07-09T09:41:01Z</time>
      </trkpt>
      <trkpt lat="45.07348" lon="6.13507">
        <ele>2347.3</ele>
        <time>2024-07-09T09:41:02Z</time>
      </trkpt>
      <trkpt lat="45.07347" lon="6.13506">
        <ele>2347.5</ele>
        <time>2024-07-09T09:41:04Z</time>
      </trkpt>
      <trkpt lat="45.07347" lon="6.13505">
        <ele>2347.5</ele>
        <time>2024-07-09T09:41:05Z</time>
      </trkpt>
      <trkpt lat="45.07346" lon="6.13504">
        <ele>2347.6</ele>
        <time>2024-07-09T09:41:06Z</time>
      </trkpt>
      <trkpt lat="45.07346" lon="6.13503">
        <ele>2347.6</ele>
        <time>2024-07-09T09:41:07Z</time>
      </trkpt>
      <trkpt lat="45.07345" lon="6.13501">
        <ele>2347.7</ele>
        <time>2024-07-09T09:41:09Z</time>
      </trkpt>
      <trkpt lat="45.07345" lon="6.13499">
        <ele>2347.8</ele>
        <time>2024-07-09T09:41:10Z</time>
      </trkpt>
      <trkpt lat="45.07345" lon="6.13498">
        <ele>2347.8</ele>
        <time>2024-07-09T09:41:11Z</time>
      </trkpt>
      <trkpt lat="45.07345" lon="6.13495">
        <ele>2347.9</ele>
        <time>2024-07-09T09:41:12Z</time>
      </trkpt>
      <trkpt lat="45.07345" lon="6.13494">
        <ele>2347.9</ele>
        <time>2024-07-09T09:41:13Z</time>
      </trkpt>
      <trkpt lat="45.07345" lon="6.13493">
        <ele>2347.9</ele>
        <time>2024-07-09T09:41:14Z</time>
      </trkpt>
      <trkpt lat="45.07346" lon="6.13492">
        <ele>2347.9</ele>
        <time>2024-07-09T09:41:15Z</time>
      </trkpt>
      <trkpt lat="45.07346" lon="6.13492">
        <ele>2347.9</ele>
        <time>2024-07-09T09:41:16Z</time>
      </trkpt>
      <trkpt lat="45.07346" lon="6.13491">
        <ele>2347.9</ele>
        <time>2024-07-09T09:41:17Z</time>
      </trkpt>
      <trkpt lat="45.07346" lon="6.1349">
        <ele>2347.9</ele>
        <time>2024-07-09T09:41:18Z</time>
      </trkpt>
      <trkpt lat="45.07346" lon="6.13488">
        <ele>2348</ele>
        <time>2024-07-09T09:41:20Z</time>
      </trkpt>
      <trkpt lat="45.07346" lon="6.13486">
        <ele>2348</ele>
        <time>2024-07-09T09:41:21Z</time>
      </trkpt>
      <trkpt lat="45.07346" lon="6.13485">
        <ele>2348</ele>
        <time>2024-07-09T09:41:22Z</time>
      </trkpt>
      <trkpt lat="45.07346" lon="6.13483">
        <ele>2348</ele>
        <time>2024-07-09T09:41:24Z</time>
      </trkpt>
      <trkpt lat="45.07347" lon="6.13482">
        <ele>2348</ele>
        <time>2024-07-09T09:41:25Z</time>
      </trkpt>
      <trkpt lat="45.07347" lon="6.13481">
        <ele>2348</ele>
        <time>2024-07-09T09:41:26Z</time>
      </trkpt>
      <trkpt lat="45.07347" lon="6.1348">
        <ele>2348</ele>
        <time>2024-07-09T09:41:27Z</time>
      </trkpt>
      <trkpt lat="45.07347" lon="6.13479">
        <ele>2348</ele>
        <time>2024-07-09T09:41:28Z</time>
      </trkpt>
      <trkpt lat="45.07347" lon="6.13479">
        <ele>2348</ele>
        <time>2024-07-09T09:41:29Z</time>
      </trkpt>
      <trkpt lat="45.07347" lon="6.13477">
        <ele>2348</ele>
        <time>2024-07-09T09:41:31Z</time>
      </trkpt>
      <trkpt lat="45.07347" lon="6.13477">
        <ele>2348.1</ele>
        <time>2024-07-09T09:41:32Z</time>
      </trkpt>
      <trkpt lat="45.07346" lon="6.13476">
        <ele>2348.1</ele>
        <time>2024-07-09T09:41:34Z</time>
      </trkpt>
      <trkpt lat="45.07345" lon="6.13476">
        <ele>2348.1</ele>
        <time>2024-07-09T09:41:36Z</time>
      </trkpt>
      <trkpt lat="45.07344" lon="6.13476">
        <ele>2348.1</ele>
        <time>2024-07-09T09:41:38Z</time>
      </trkpt>
      <trkpt lat="45.07343" lon="6.13475">
        <ele>2348.1</ele>
        <time>2024-07-09T09:41:39Z</time>
      </trkpt>
      <trkpt lat="45.07343" lon="6.13475">
        <ele>2348.2</ele>
        <time>2024-07-09T09:41:40Z</time>
      </trkpt>
      <trkpt lat="45.07342" lon="6.13475">
        <ele>2348.2</ele>
        <time>2024-07-09T09:41:41Z</time>
      </trkpt>
      <trkpt lat="45.07342" lon="6.13475">
        <ele>2348.2</ele>
        <time>2024-07-09T09:41:42Z</time>
      </trkpt>
      <trkpt lat="45.07342" lon="6.13474">
        <ele>2348.2</ele>
        <time>2024-07-09T09:41:43Z</time>
      </trkpt>
      <trkpt lat="45.07341" lon="6.13474">
        <ele>2348.3</ele>
        <time>2024-07-09T09:41:44Z</time>
      </trkpt>
      <trkpt lat="45.07341" lon="6.13473">
        <ele>2348.3</ele>
        <time>2024-07-09T09:41:45Z</time>
      </trkpt>
      <trkpt lat="45.07341" lon="6.13473">
        <ele>2348.3</ele>
        <time>2024-07-09T09:41:46Z</time>
      </trkpt>
      <trkpt lat="45.07341" lon="6.13471">
        <ele>2348.3</ele>
        <time>2024-07-09T09:41:48Z</time>
      </trkpt>
      <trkpt lat="45.0734" lon="6.1347">
        <ele>2348.4</ele>
        <time>2024-07-09T09:41:49Z</time>
      </trkpt>
      <trkpt lat="45.0734" lon="6.13469">
        <ele>2348.4</ele>
        <time>2024-07-09T09:41:50Z</time>
      </trkpt>
      <trkpt lat="45.0734" lon="6.13469">
        <ele>2348.5</ele>
        <time>2024-07-09T09:41:51Z</time>
      </trkpt>
      <trkpt lat="45.0734" lon="6.13469">
        <ele>2348.5</ele>
        <time>2024-07-09T09:41:52Z</time>
      </trkpt>
      <trkpt lat="45.07339" lon="6.13468">
        <ele>2348.5</ele>
        <time>2024-07-09T09:41:54Z</time>
      </trkpt>
      <trkpt lat="45.07339" lon="6.13467">
        <ele>2348.6</ele>
        <time>2024-07-09T09:41:55Z</time>
      </trkpt>
      <trkpt lat="45.07339" lon="6.13467">
        <ele>2348.6</ele>
        <time>2024-07-09T09:41:56Z</time>
      </trkpt>
      <trkpt lat="45.07339" lon="6.13466">
        <ele>2348.7</ele>
        <time>2024-07-09T09:41:58Z</time>
      </trkpt>
      <trkpt lat="45.07338" lon="6.13465">
        <ele>2348.8</ele>
        <time>2024-07-09T09:41:59Z</time>
      </trkpt>
      <trkpt lat="45.07338" lon="6.13464">
        <ele>2348.8</ele>
        <time>2024-07-09T09:42:01Z</time>
      </trkpt>
      <trkpt lat="45.07338" lon="6.13463">
        <ele>2348.9</ele>
        <time>2024-07-09T09:42:02Z</time>
      </trkpt>
      <trkpt lat="45.07337" lon="6.13463">
        <ele>2348.9</ele>
        <time>2024-07-09T09:42:03Z</time>
      </trkpt>
      <trkpt lat="45.07337" lon="6.13462">
        <ele>2349</ele>
        <time>2024-07-09T09:42:04Z</time>
      </trkpt>
      <trkpt lat="45.07336" lon="6.13462">
        <ele>2349</ele>
        <time>2024-07-09T09:42:05Z</time>
      </trkpt>
      <trkpt lat="45.07336" lon="6.13461">
        <ele>2349.1</ele>
        <time>2024-07-09T09:42:06Z</time>
      </trkpt>
      <trkpt lat="45.07336" lon="6.1346">
        <ele>2349.2</ele>
        <time>2024-07-09T09:42:07Z</time>
      </trkpt>
      <trkpt lat="45.07335" lon="6.13459">
        <ele>2349.3</ele>
        <time>2024-07-09T09:42:09Z</time>
      </trkpt>
      <trkpt lat="45.07334" lon="6.13458">
        <ele>2349.4</ele>
        <time>2024-07-09T09:42:11Z</time>
      </trkpt>
      <trkpt lat="45.07334" lon="6.13457">
        <ele>2349.5</ele>
        <time>2024-07-09T09:42:12Z</time>
      </trkpt>
      <trkpt lat="45.07334" lon="6.13456">
        <ele>2349.5</ele>
        <time>2024-07-09T09:42:13Z</time>
      </trkpt>
      <trkpt lat="45.07333" lon="6.13455">
        <ele>2349.6</ele>
        <time>2024-07-09T09:42:14Z</time>
      </trkpt>
      <trkpt lat="45.07333" lon="6.13455">
        <ele>2349.6</ele>
        <time>2024-07-09T09:42:15Z</time>
      </trkpt>
      <trkpt lat="45.07333" lon="6.13454">
        <ele>2349.7</ele>
        <time>2024-07-09T09:42:16Z</time>
      </trkpt>
      <trkpt lat="45.07333" lon="6.13454">
        <ele>2349.7</ele>
        <time>2024-07-09T09:42:17Z</time>
      </trkpt>
      <trkpt lat="45.07332" lon="6.13453">
        <ele>2349.8</ele>
        <time>2024-07-09T09:42:18Z</time>
      </trkpt>
      <trkpt lat="45.07332" lon="6.13453">
        <ele>2349.8</ele>
        <time>2024-07-09T09:42:19Z</time>
      </trkpt>
      <trkpt lat="45.07332" lon="6.13453">
        <ele>2349.9</ele>
        <time>2024-07-09T09:42:20Z</time>
      </trkpt>
      <trkpt lat="45.07331" lon="6.13452">
        <ele>2349.9</ele>
        <time>2024-07-09T09:42:21Z</time>
      </trkpt>
      <trkpt lat="45.0733" lon="6.13452">
        <ele>2350</ele>
        <time>2024-07-09T09:42:22Z</time>
      </trkpt>
      <trkpt lat="45.0733" lon="6.13453">
        <ele>2350</ele>
        <time>2024-07-09T09:42:24Z</time>
      </trkpt>
      <trkpt lat="45.07329" lon="6.13453">
        <ele>2350.1</ele>
        <time>2024-07-09T09:42:25Z</time>
      </trkpt>
      <trkpt lat="45.07329" lon="6.13454">
        <ele>2350.1</ele>
        <time>2024-07-09T09:42:26Z</time>
      </trkpt>
      <trkpt lat="45.07328" lon="6.13454">
        <ele>2350.2</ele>
        <time>2024-07-09T09:42:27Z</time>
      </trkpt>
      <trkpt lat="45.07328" lon="6.13454">
        <ele>2350.2</ele>
        <time>2024-07-09T09:42:29Z</time>
      </trkpt>
      <trkpt lat="45.07328" lon="6.13453">
        <ele>2350.3</ele>
        <time>2024-07-09T09:42:30Z</time>
      </trkpt>
      <trkpt lat="45.07327" lon="6.13453">
        <ele>2350.3</ele>
        <time>2024-07-09T09:42:31Z</time>
      </trkpt>
      <trkpt lat="45.07327" lon="6.13452">
        <ele>2350.4</ele>
        <time>2024-07-09T09:42:33Z</time>
      </trkpt>
      <trkpt lat="45.07327" lon="6.13451">
        <ele>2350.5</ele>
        <time>2024-07-09T09:42:34Z</time>
      </trkpt>
      <trkpt lat="45.07326" lon="6.13449">
        <ele>2350.6</ele>
        <time>2024-07-09T09:42:35Z</time>
      </trkpt>
      <trkpt lat="45.07326" lon="6.13448">
        <ele>2350.6</ele>
        <time>2024-07-09T09:42:36Z</time>
      </trkpt>
      <trkpt lat="45.07326" lon="6.13447">
        <ele>2350.7</ele>
        <time>2024-07-09T09:42:37Z</time>
      </trkpt>
      <trkpt lat="45.07326" lon="6.13445">
        <ele>2350.8</ele>
        <time>2024-07-09T09:42:39Z</time>
      </trkpt>
      <trkpt lat="45.07326" lon="6.13445">
        <ele>2350.8</ele>
        <time>2024-07-09T09:42:40Z</time>
      </trkpt>
      <trkpt lat="45.07326" lon="6.13445">
        <ele>2350.8</ele>
        <time>2024-07-09T09:42:42Z</time>
      </trkpt>
      <trkpt lat="45.07326" lon="6.13444">
        <ele>2350.8</ele>
        <time>2024-07-09T09:42:43Z</time>
      </trkpt>
      <trkpt lat="45.07326" lon="6.13444">
        <ele>2350.8</ele>
        <time>2024-07-09T09:42:45Z</time>
      </trkpt>
      <trkpt lat="45.07325" lon="6.13443">
        <ele>2350.9</ele>
        <time>2024-07-09T09:42:46Z</time>
      </trkpt>
      <trkpt lat="45.07325" lon="6.13442">
        <ele>2350.9</ele>
        <time>2024-07-09T09:42:48Z</time>
      </trkpt>
      <trkpt lat="45.07325" lon="6.13442">
        <ele>2351</ele>
        <time>2024-07-09T09:42:49Z</time>
      </trkpt>
      <trkpt lat="45.07324" lon="6.13441">
        <ele>2351</ele>
        <time>2024-07-09T09:42:50Z</time>
      </trkpt>
      <trkpt lat="45.07324" lon="6.1344">
        <ele>2351.1</ele>
        <time>2024-07-09T09:42:51Z</time>
      </trkpt>
      <trkpt lat="45.07323" lon="6.13439">
        <ele>2351.1</ele>
        <time>2024-07-09T09:42:52Z</time>
      </trkpt>
      <trkpt lat="45.07323" lon="6.13439">
        <ele>2351.2</ele>
        <time>2024-07-09T09:42:53Z</time>
      </trkpt>
      <trkpt lat="45.07322" lon="6.13438">
        <ele>2351.2</ele>
        <time>2024-07-09T09:42:54Z</time>
      </trkpt>
      <trkpt lat="45.07322" lon="6.13438">
        <ele>2351.2</ele>
        <time>2024-07-09T09:42:55Z</time>
      </trkpt>
      <trkpt lat="45.07322" lon="6.13437">
        <ele>2351.3</ele>
        <time>2024-07-09T09:42:56Z</time>
      </trkpt>
      <trkpt lat="45.07321" lon="6.13436">
        <ele>2351.3</ele>
        <time>2024-07-09T09:42:58Z</time>
      </trkpt>
      <trkpt lat="45.07321" lon="6.13435">
        <ele>2351.3</ele>
        <time>2024-07-09T09:42:59Z</time>
      </trkpt>
      <trkpt lat="45.07321" lon="6.13434">
        <ele>2351.4</ele>
        <time>2024-07-09T09:43:00Z</time>
      </trkpt>
      <trkpt lat="45.0732" lon="6.13433">
        <ele>2351.4</ele>
        <time>2024-07-09T09:43:01Z</time>
      </trkpt>
      <trkpt lat="45.0732" lon="6.13432">
        <ele>2351.5</ele>
        <time>2024-07-09T09:43:02Z</time>
      </trkpt>
      <trkpt lat="45.0732" lon="6.13432">
        <ele>2351.5</ele>
        <time>2024-07-09T09:43:03Z</time>
      </trkpt>
      <trkpt lat="45.0732" lon="6.1343">
        <ele>2351.6</ele>
        <time>2024-07-09T09:43:04Z</time>
      </trkpt>
      <trkpt lat="45.0732" lon="6.1343">
        <ele>2351.6</ele>
        <time>2024-07-09T09:43:06Z</time>
      </trkpt>
      <trkpt lat="45.07319" lon="6.13429">
        <ele>2351.6</ele>
        <time>2024-07-09T09:43:07Z</time>
      </trkpt>
      <trkpt lat="45.07319" lon="6.13429">
        <ele>2351.6</ele>
        <time>2024-07-09T09:43:08Z</time>
      </trkpt>
      <trkpt lat="45.07318" lon="6.13427">
        <ele>2351.7</ele>
        <time>2024-07-09T09:43:09Z</time>
      </trkpt>
      <trkpt lat="45.07317" lon="6.13427">
        <ele>2351.8</ele>
        <time>2024-07-09T09:43:10Z</time>
      </trkpt>
      <trkpt lat="45.07317" lon="6.13426">
        <ele>2351.8</ele>
        <time>2024-07-09T09:43:12Z</time>
      </trkpt>
      <trkpt lat="45.07317" lon="6.13426">
        <ele>2351.8</ele>
        <time>2024-07-09T09:43:13Z</time>
      </trkpt>
      <trkpt lat="45.07316" lon="6.13425">
        <ele>2351.9</ele>
        <time>2024-07-09T09:43:14Z</time>
      </trkpt>
      <trkpt lat="45.07316" lon="6.13424">
        <ele>2351.9</ele>
        <time>2024-07-09T09:43:15Z</time>
      </trkpt>
      <trkpt lat="45.07316" lon="6.13424">
        <ele>2351.9</ele>
        <time>2024-07-09T09:43:16Z</time>
      </trkpt>
      <trkpt lat="45.07316" lon="6.13424">
        <ele>2351.9</ele>
        <time>2024-07-09T09:43:17Z</time>
      </trkpt>
      <trkpt lat="45.07316" lon="6.13425">
        <ele>2352</ele>
        <time>2024-07-09T09:43:18Z</time>
      </trkpt>
      <trkpt lat="45.07316" lon="6.13425">
        <ele>2352</ele>
        <time>2024-07-09T09:43:19Z</time>
      </trkpt>
      <trkpt lat="45.07316" lon="6.13425">
        <ele>2352</ele>
        <time>2024-07-09T09:43:20Z</time>
      </trkpt>
      <trkpt lat="45.07316" lon="6.13426">
        <ele>2352</ele>
        <time>2024-07-09T09:43:21Z</time>
      </trkpt>
      <trkpt lat="45.07317" lon="6.13427">
        <ele>2352.1</ele>
        <time>2024-07-09T09:43:22Z</time>
      </trkpt>
      <trkpt lat="45.07317" lon="6.13428">
        <ele>2352.1</ele>
        <time>2024-07-09T09:43:23Z</time>
      </trkpt>
      <trkpt lat="45.07317" lon="6.13428">
        <ele>2352.1</ele>
        <time>2024-07-09T09:43:24Z</time>
      </trkpt>
      <trkpt lat="45.07317" lon="6.13428">
        <ele>2352.1</ele>
        <time>2024-07-09T09:43:25Z</time>
      </trkpt>
      <trkpt lat="45.07317" lon="6.13428">
        <ele>2352.1</ele>
        <time>2024-07-09T09:43:26Z</time>
      </trkpt>
      <trkpt lat="45.07317" lon="6.13428">
        <ele>2352.2</ele>
        <time>2024-07-09T09:43:27Z</time>
      </trkpt>
      <trkpt lat="45.07317" lon="6.13428">
        <ele>2352.2</ele>
        <time>2024-07-09T09:43:28Z</time>
      </trkpt>
      <trkpt lat="45.07317" lon="6.13428">
        <ele>2352.2</ele>
        <time>2024-07-09T09:43:29Z</time>
      </trkpt>
      <trkpt lat="45.07317" lon="6.13428">
        <ele>2352.2</ele>
        <time>2024-07-09T09:43:30Z</time>
      </trkpt>
      <trkpt lat="45.07317" lon="6.13428">
        <ele>2352.2</ele>
        <time>2024-07-09T09:43:31Z</time>
      </trkpt>
      <trkpt lat="45.07317" lon="6.13428">
        <ele>2352.2</ele>
        <time>2024-07-09T09:43:32Z</time>
      </trkpt>
      <trkpt lat="45.07317" lon="6.13428">
        <ele>2352.2</ele>
        <time>2024-07-09T09:43:33Z</time>
      </trkpt>
      <trkpt lat="45.07317" lon="6.13428">
        <ele>2352.2</ele>
        <time>2024-07-09T09:43:34Z</time>
      </trkpt>
      <trkpt lat="45.07317" lon="6.13428">
        <ele>2352.2</ele>
        <time>2024-07-09T09:43:35Z</time>
      </trkpt>
      <trkpt lat="45.07317" lon="6.13428">
        <ele>2352.2</ele>
        <time>2024-07-09T09:43:36Z</time>
      </trkpt>
      <trkpt lat="45.07317" lon="6.13428">
        <ele>2352.2</ele>
        <time>2024-07-09T09:43:37Z</time>
      </trkpt>
      <trkpt lat="45.07317" lon="6.13428">
        <ele>2352.2</ele>
        <time>2024-07-09T09:43:38Z</time>
      </trkpt>
      <trkpt lat="45.07317" lon="6.13428">
        <ele>2352.2</ele>
        <time>2024-07-09T09:43:39Z</time>
      </trkpt>
      <trkpt lat="45.07317" lon="6.13428">
        <ele>2352.2</ele>
        <time>2024-07-09T09:43:40Z</time>
      </trkpt>
      <trkpt lat="45.07317" lon="6.13428">
        <ele>2352.2</ele>
        <time>2024-07-09T09:43:41Z</time>
      </trkpt>
      <trkpt lat="45.07317" lon="6.13428">
        <ele>2352.2</ele>
        <time>2024-07-09T09:43:42Z</time>
      </trkpt>
      <trkpt lat="45.07317" lon="6.13428">
        <ele>2352.2</ele>
        <time>2024-07-09T09:43:43Z</time>
      </trkpt>
      <trkpt lat="45.07317" lon="6.13428">
        <ele>2352.2</ele>
        <time>2024-07-09T09:43:44Z</time>
      </trkpt>
      <trkpt lat="45.07317" lon="6.13428">
        <ele>2352.2</ele>
        <time>2024-07-09T09:43:45Z</time>
      </trkpt>
      <trkpt lat="45.07317" lon="6.13428">
        <ele>2352.2</ele>
        <time>2024-07-09T09:43:46Z</time>
      </trkpt>
      <trkpt lat="45.07317" lon="6.13428">
        <ele>2352.2</ele>
        <time>2024-07-09T09:43:47Z</time>
      </trkpt>
      <trkpt lat="45.07317" lon="6.13429">
        <ele>2352.2</ele>
        <time>2024-07-09T09:43:48Z</time>
      </trkpt>
      <trkpt lat="45.07317" lon="6.13429">
        <ele>2352.2</ele>
        <time>2024-07-09T09:43:49Z</time>
      </trkpt>
      <trkpt lat="45.07317" lon="6.13429">
        <ele>2352.3</ele>
        <time>2024-07-09T09:43:50Z</time>
      </trkpt>
      <trkpt lat="45.07318" lon="6.13428">
        <ele>2352.3</ele>
        <time>2024-07-09T09:43:51Z</time>
      </trkpt>
      <trkpt lat="45.07318" lon="6.13428">
        <ele>2352.4</ele>
        <time>2024-07-09T09:43:52Z</time>
      </trkpt>
      <trkpt lat="45.07319" lon="6.13428">
        <ele>2352.4</ele>
        <time>2024-07-09T09:43:53Z</time>
      </trkpt>
      <trkpt lat="45.07309" lon="6.13422">
        <ele>2353.2</ele>
        <time>2024-07-09T10:20:45Z</time>
      </trkpt>
      <trkpt lat="45.07309" lon="6.13422">
        <ele>2353.2</ele>
        <time>2024-07-09T10:20:46Z</time>
      </trkpt>
      <trkpt lat="45.07309" lon="6.13422">
        <ele>2353.2</ele>
        <time>2024-07-09T10:20:47Z</time>
      </trkpt>
      <trkpt lat="45.07309" lon="6.13421">
        <ele>2353.2</ele>
        <time>2024-07-09T10:20:48Z</time>
      </trkpt>
      <trkpt lat="45.07308" lon="6.1342">
        <ele>2353.3</ele>
        <time>2024-07-09T10:20:49Z</time>
      </trkpt>
      <trkpt lat="45.07308" lon="6.13419">
        <ele>2353.3</ele>
        <time>2024-07-09T10:20:51Z</time>
      </trkpt>
      <trkpt lat="45.07308" lon="6.13419">
        <ele>2353.3</ele>
        <time>2024-07-09T10:20:52Z</time>
      </trkpt>
      <trkpt lat="45.07308" lon="6.13419">
        <ele>2353.3</ele>
        <time>2024-07-09T10:20:53Z</time>
      </trkpt>
      <trkpt lat="45.07309" lon="6.13419">
        <ele>2353.3</ele>
        <time>2024-07-09T10:20:54Z</time>
      </trkpt>
      <trkpt lat="45.07309" lon="6.13419">
        <ele>2353.3</ele>
        <time>2024-07-09T10:20:55Z</time>
      </trkpt>
      <trkpt lat="45.0731" lon="6.13418">
        <ele>2353.4</ele>
        <time>2024-07-09T10:20:56Z</time>
      </trkpt>
      <trkpt lat="45.0731" lon="6.13415">
        <ele>2353.5</ele>
        <time>2024-07-09T10:20:58Z</time>
      </trkpt>
      <trkpt lat="45.07309" lon="6.13414">
        <ele>2353.5</ele>
        <time>2024-07-09T10:21:00Z</time>
      </trkpt>
      <trkpt lat="45.07309" lon="6.13412">
        <ele>2353.5</ele>
        <time>2024-07-09T10:21:01Z</time>
      </trkpt>
      <trkpt lat="45.07309" lon="6.13411">
        <ele>2353.6</ele>
        <time>2024-07-09T10:21:02Z</time>
      </trkpt>
      <trkpt lat="45.07309" lon="6.13409">
        <ele>2353.6</ele>
        <time>2024-07-09T10:21:03Z</time>
      </trkpt>
      <trkpt lat="45.07306" lon="6.13406">
        <ele>2353.5</ele>
        <time>2024-07-09T10:21:05Z</time>
      </trkpt>
      <trkpt lat="45.07306" lon="6.13405">
        <ele>2353.5</ele>
        <time>2024-07-09T10:21:06Z</time>
      </trkpt>
      <trkpt lat="45.07308" lon="6.13406">
        <ele>2353.5</ele>
        <time>2024-07-09T10:21:08Z</time>
      </trkpt>
      <trkpt lat="45.07308" lon="6.13406">
        <ele>2353.4</ele>
        <time>2024-07-09T10:21:10Z</time>
      </trkpt>
      <trkpt lat="45.07308" lon="6.13403">
        <ele>2353.3</ele>
        <time>2024-07-09T10:21:12Z</time>
      </trkpt>
      <trkpt lat="45.07309" lon="6.13402">
        <ele>2353.2</ele>
        <time>2024-07-09T10:21:13Z</time>
      </trkpt>
      <trkpt lat="45.07309" lon="6.13402">
        <ele>2353.2</ele>
        <time>2024-07-09T10:21:14Z</time>
      </trkpt>
      <trkpt lat="45.07309" lon="6.13403">
        <ele>2353.1</ele>
        <time>2024-07-09T10:21:15Z</time>
      </trkpt>
      <trkpt lat="45.07308" lon="6.13401">
        <ele>2352.9</ele>
        <time>2024-07-09T10:21:17Z</time>
      </trkpt>
      <trkpt lat="45.07309" lon="6.13399">
        <ele>2352.8</ele>
        <time>2024-07-09T10:21:19Z</time>
      </trkpt>
      <trkpt lat="45.0731" lon="6.13399">
        <ele>2352.6</ele>
        <time>2024-07-09T10:21:20Z</time>
      </trkpt>
      <trkpt lat="45.07312" lon="6.13397">
        <ele>2352.3</ele>
        <time>2024-07-09T10:21:21Z</time>
      </trkpt>
      <trkpt lat="45.07313" lon="6.13396">
        <ele>2352.2</ele>
        <time>2024-07-09T10:21:23Z</time>
      </trkpt>
      <trkpt lat="45.07314" lon="6.13395">
        <ele>2352</ele>
        <time>2024-07-09T10:21:24Z</time>
      </trkpt>
      <trkpt lat="45.07305" lon="6.13391">
        <ele>2350.7</ele>
        <time>2024-07-09T10:21:26Z</time>
      </trkpt>
      <trkpt lat="45.07297" lon="6.13388">
        <ele>2349.1</ele>
        <time>2024-07-09T10:21:27Z</time>
      </trkpt>
      <trkpt lat="45.07296" lon="6.13387">
        <ele>2348.9</ele>
        <time>2024-07-09T10:21:28Z</time>
      </trkpt>
      <trkpt lat="45.07295" lon="6.13386">
        <ele>2348.7</ele>
        <time>2024-07-09T10:21:29Z</time>
      </trkpt>
      <trkpt lat="45.07292" lon="6.13384">
        <ele>2348.3</ele>
        <time>2024-07-09T10:21:31Z</time>
      </trkpt>
      <trkpt lat="45.07291" lon="6.13383">
        <ele>2348</ele>
        <time>2024-07-09T10:21:33Z</time>
      </trkpt>
      <trkpt lat="45.0729" lon="6.13382">
        <ele>2347.8</ele>
        <time>2024-07-09T10:21:34Z</time>
      </trkpt>
      <trkpt lat="45.07289" lon="6.13381">
        <ele>2347.5</ele>
        <time>2024-07-09T10:21:36Z</time>
      </trkpt>
      <trkpt lat="45.07289" lon="6.13379">
        <ele>2347.3</ele>
        <time>2024-07-09T10:21:38Z</time>
      </trkpt>
      <trkpt lat="45.07289" lon="6.13377">
        <ele>2346.9</ele>
        <time>2024-07-09T10:21:39Z</time>
      </trkpt>
      <trkpt lat="45.07289" lon="6.13375">
        <ele>2346.7</ele>
        <time>2024-07-09T10:21:40Z</time>
      </trkpt>
      <trkpt lat="45.0729" lon="6.13373">
        <ele>2346.4</ele>
        <time>2024-07-09T10:21:41Z</time>
      </trkpt>
      <trkpt lat="45.0729" lon="6.13373">
        <ele>2346.2</ele>
        <time>2024-07-09T10:21:43Z</time>
      </trkpt>
      <trkpt lat="45.07291" lon="6.13372">
        <ele>2346</ele>
        <time>2024-07-09T10:21:44Z</time>
      </trkpt>
      <trkpt lat="45.07292" lon="6.13371">
        <ele>2345.7</ele>
        <time>2024-07-09T10:21:45Z</time>
      </trkpt>
      <trkpt lat="45.07292" lon="6.13369">
        <ele>2345.5</ele>
        <time>2024-07-09T10:21:46Z</time>
      </trkpt>
      <trkpt lat="45.07292" lon="6.13367">
        <ele>2345.1</ele>
        <time>2024-07-09T10:21:47Z</time>
      </trkpt>
      <trkpt lat="45.07291" lon="6.13365">
        <ele>2344.6</ele>
        <time>2024-07-09T10:21:48Z</time>
      </trkpt>
      <trkpt lat="45.0729" lon="6.13364">
        <ele>2344.3</ele>
        <time>2024-07-09T10:21:49Z</time>
      </trkpt>
      <trkpt lat="45.07289" lon="6.13363">
        <ele>2344.1</ele>
        <time>2024-07-09T10:21:51Z</time>
      </trkpt>
      <trkpt lat="45.07288" lon="6.13362">
        <ele>2343.7</ele>
        <time>2024-07-09T10:21:52Z</time>
      </trkpt>
      <trkpt lat="45.07286" lon="6.13362">
        <ele>2343.2</ele>
        <time>2024-07-09T10:21:53Z</time>
      </trkpt>
      <trkpt lat="45.07285" lon="6.13361">
        <ele>2343</ele>
        <time>2024-07-09T10:21:54Z</time>
      </trkpt>
      <trkpt lat="45.07284" lon="6.13361">
        <ele>2342.7</ele>
        <time>2024-07-09T10:21:56Z</time>
      </trkpt>
      <trkpt lat="45.07283" lon="6.1336">
        <ele>2342.4</ele>
        <time>2024-07-09T10:21:57Z</time>
      </trkpt>
      <trkpt lat="45.07283" lon="6.13361">
        <ele>2342.2</ele>
        <time>2024-07-09T10:21:58Z</time>
      </trkpt>
      <trkpt lat="45.07281" lon="6.1336">
        <ele>2341.7</ele>
        <time>2024-07-09T10:21:59Z</time>
      </trkpt>
      <trkpt lat="45.07279" lon="6.13359">
        <ele>2341.2</ele>
        <time>2024-07-09T10:22:01Z</time>
      </trkpt>
      <trkpt lat="45.07279" lon="6.13358">
        <ele>2341.1</ele>
        <time>2024-07-09T10:22:02Z</time>
      </trkpt>
      <trkpt lat="45.07278" lon="6.13357">
        <ele>2340.6</ele>
        <time>2024-07-09T10:22:04Z</time>
      </trkpt>
      <trkpt lat="45.07277" lon="6.13357">
        <ele>2340.4</ele>
        <time>2024-07-09T10:22:06Z</time>
      </trkpt>
      <trkpt lat="45.07276" lon="6.13356">
        <ele>2340.2</ele>
        <time>2024-07-09T10:22:07Z</time>
      </trkpt>
      <trkpt lat="45.07276" lon="6.13355">
        <ele>2340</ele>
        <time>2024-07-09T10:22:08Z</time>
      </trkpt>
      <trkpt lat="45.07274" lon="6.13354">
        <ele>2339.5</ele>
        <time>2024-07-09T10:22:09Z</time>
      </trkpt>
      <trkpt lat="45.07274" lon="6.13353">
        <ele>2339.3</ele>
        <time>2024-07-09T10:22:10Z</time>
      </trkpt>
      <trkpt lat="45.07274" lon="6.13351">
        <ele>2339</ele>
        <time>2024-07-09T10:22:11Z</time>
      </trkpt>
      <trkpt lat="45.07274" lon="6.1335">
        <ele>2338.8</ele>
        <time>2024-07-09T10:22:12Z</time>
      </trkpt>
      <trkpt lat="45.07274" lon="6.13348">
        <ele>2338.5</ele>
        <time>2024-07-09T10:22:14Z</time>
      </trkpt>
      <trkpt lat="45.07274" lon="6.13348">
        <ele>2338.4</ele>
        <time>2024-07-09T10:22:15Z</time>
      </trkpt>
      <trkpt lat="45.07273" lon="6.13346">
        <ele>2338.1</ele>
        <time>2024-07-09T10:22:17Z</time>
      </trkpt>
      <trkpt lat="45.07273" lon="6.13345">
        <ele>2338</ele>
        <time>2024-07-09T10:22:18Z</time>
      </trkpt>
      <trkpt lat="45.07272" lon="6.13344">
        <ele>2337.7</ele>
        <time>2024-07-09T10:22:20Z</time>
      </trkpt>
      <trkpt lat="45.07272" lon="6.13342">
        <ele>2337.5</ele>
        <time>2024-07-09T10:22:22Z</time>
      </trkpt>
      <trkpt lat="45.07271" lon="6.1334">
        <ele>2337.2</ele>
        <time>2024-07-09T10:22:23Z</time>
      </trkpt>
      <trkpt lat="45.07271" lon="6.1334">
        <ele>2337</ele>
        <time>2024-07-09T10:22:25Z</time>
      </trkpt>
      <trkpt lat="45.0727" lon="6.1334">
        <ele>2336.9</ele>
        <time>2024-07-09T10:22:26Z</time>
      </trkpt>
      <trkpt lat="45.07269" lon="6.13337">
        <ele>2336.5</ele>
        <time>2024-07-09T10:22:27Z</time>
      </trkpt>
      <trkpt lat="45.07268" lon="6.13337">
        <ele>2336.4</ele>
        <time>2024-07-09T10:22:29Z</time>
      </trkpt>
      <trkpt lat="45.07268" lon="6.13336">
        <ele>2336.2</ele>
        <time>2024-07-09T10:22:30Z</time>
      </trkpt>
      <trkpt lat="45.07267" lon="6.13334">
        <ele>2336</ele>
        <time>2024-07-09T10:22:31Z</time>
      </trkpt>
      <trkpt lat="45.07266" lon="6.13332">
        <ele>2335.7</ele>
        <time>2024-07-09T10:22:32Z</time>
      </trkpt>
      <trkpt lat="45.07266" lon="6.13332">
        <ele>2335.6</ele>
        <time>2024-07-09T10:22:34Z</time>
      </trkpt>
      <trkpt lat="45.07265" lon="6.1333">
        <ele>2335.3</ele>
        <time>2024-07-09T10:22:35Z</time>
      </trkpt>
      <trkpt lat="45.07265" lon="6.13329">
        <ele>2335.2</ele>
        <time>2024-07-09T10:22:37Z</time>
      </trkpt>
      <trkpt lat="45.07265" lon="6.13328">
        <ele>2335</ele>
        <time>2024-07-09T10:22:38Z</time>
      </trkpt>
      <trkpt lat="45.07265" lon="6.13327">
        <ele>2334.9</ele>
        <time>2024-07-09T10:22:39Z</time>
      </trkpt>
      <trkpt lat="45.07264" lon="6.13324">
        <ele>2334.6</ele>
        <time>2024-07-09T10:22:40Z</time>
      </trkpt>
      <trkpt lat="45.07263" lon="6.13322">
        <ele>2334.3</ele>
        <time>2024-07-09T10:22:42Z</time>
      </trkpt>
      <trkpt lat="45.07262" lon="6.13322">
        <ele>2334.2</ele>
        <time>2024-07-09T10:22:44Z</time>
      </trkpt>
      <trkpt lat="45.07261" lon="6.13322">
        <ele>2334</ele>
        <time>2024-07-09T10:22:45Z</time>
      </trkpt>
      <trkpt lat="45.0726" lon="6.13321">
        <ele>2333.9</ele>
        <time>2024-07-09T10:22:46Z</time>
      </trkpt>
      <trkpt lat="45.0726" lon="6.13319">
        <ele>2333.7</ele>
        <time>2024-07-09T10:22:47Z</time>
      </trkpt>
      <trkpt lat="45.07261" lon="6.13318">
        <ele>2333.6</ele>
        <time>2024-07-09T10:22:48Z</time>
      </trkpt>
      <trkpt lat="45.07259" lon="6.13316">
        <ele>2333.2</ele>
        <time>2024-07-09T10:22:49Z</time>
      </trkpt>
      <trkpt lat="45.07258" lon="6.13313">
        <ele>2332.9</ele>
        <time>2024-07-09T10:22:50Z</time>
      </trkpt>
      <trkpt lat="45.07258" lon="6.13312">
        <ele>2332.8</ele>
        <time>2024-07-09T10:22:52Z</time>
      </trkpt>
      <trkpt lat="45.07257" lon="6.13312">
        <ele>2332.6</ele>
        <time>2024-07-09T10:22:53Z</time>
      </trkpt>
      <trkpt lat="45.07257" lon="6.13311">
        <ele>2332.5</ele>
        <time>2024-07-09T10:22:54Z</time>
      </trkpt>
      <trkpt lat="45.07256" lon="6.1331">
        <ele>2332.3</ele>
        <time>2024-07-09T10:22:55Z</time>
      </trkpt>
      <trkpt lat="45.07255" lon="6.13308">
        <ele>2332.1</ele>
        <time>2024-07-09T10:22:56Z</time>
      </trkpt>
      <trkpt lat="45.07255" lon="6.13306">
        <ele>2331.9</ele>
        <time>2024-07-09T10:22:58Z</time>
      </trkpt>
      <trkpt lat="45.07254" lon="6.13304">
        <ele>2331.6</ele>
        <time>2024-07-09T10:23:00Z</time>
      </trkpt>
      <trkpt lat="45.07253" lon="6.13302">
        <ele>2331.3</ele>
        <time>2024-07-09T10:23:02Z</time>
      </trkpt>
      <trkpt lat="45.07253" lon="6.13302">
        <ele>2331.3</ele>
        <time>2024-07-09T10:23:03Z</time>
      </trkpt>
      <trkpt lat="45.07252" lon="6.133">
        <ele>2331</ele>
        <time>2024-07-09T10:23:04Z</time>
      </trkpt>
      <trkpt lat="45.07251" lon="6.13297">
        <ele>2330.7</ele>
        <time>2024-07-09T10:23:06Z</time>
      </trkpt>
      <trkpt lat="45.0725" lon="6.13297">
        <ele>2330.6</ele>
        <time>2024-07-09T10:23:07Z</time>
      </trkpt>
      <trkpt lat="45.0725" lon="6.13295">
        <ele>2330.4</ele>
        <time>2024-07-09T10:23:08Z</time>
      </trkpt>
      <trkpt lat="45.07249" lon="6.13295">
        <ele>2330.3</ele>
        <time>2024-07-09T10:23:09Z</time>
      </trkpt>
      <trkpt lat="45.07249" lon="6.13294">
        <ele>2330.2</ele>
        <time>2024-07-09T10:23:11Z</time>
      </trkpt>
      <trkpt lat="45.07248" lon="6.13291">
        <ele>2329.9</ele>
        <time>2024-07-09T10:23:12Z</time>
      </trkpt>
      <trkpt lat="45.07247" lon="6.1329">
        <ele>2329.7</ele>
        <time>2024-07-09T10:23:14Z</time>
      </trkpt>
      <trkpt lat="45.07247" lon="6.13289">
        <ele>2329.6</ele>
        <time>2024-07-09T10:23:15Z</time>
      </trkpt>
      <trkpt lat="45.07246" lon="6.13288">
        <ele>2329.4</ele>
        <time>2024-07-09T10:23:16Z</time>
      </trkpt>
      <trkpt lat="45.07245" lon="6.13286">
        <ele>2329.2</ele>
        <time>2024-07-09T10:23:17Z</time>
      </trkpt>
      <trkpt lat="45.07244" lon="6.13284">
        <ele>2328.8</ele>
        <time>2024-07-09T10:23:18Z</time>
      </trkpt>
      <trkpt lat="45.07244" lon="6.13283">
        <ele>2328.7</ele>
        <time>2024-07-09T10:23:19Z</time>
      </trkpt>
      <trkpt lat="45.07243" lon="6.13279">
        <ele>2328.2</ele>
        <time>2024-07-09T10:23:21Z</time>
      </trkpt>
      <trkpt lat="45.07244" lon="6.13278">
        <ele>2328.1</ele>
        <time>2024-07-09T10:23:22Z</time>
      </trkpt>
      <trkpt lat="45.07243" lon="6.13277">
        <ele>2327.9</ele>
        <time>2024-07-09T10:23:23Z</time>
      </trkpt>
      <trkpt lat="45.07243" lon="6.13276">
        <ele>2327.7</ele>
        <time>2024-07-09T10:23:25Z</time>
      </trkpt>
      <trkpt lat="45.07242" lon="6.13274">
        <ele>2327.5</ele>
        <time>2024-07-09T10:23:26Z</time>
      </trkpt>
      <trkpt lat="45.07242" lon="6.13273">
        <ele>2327.2</ele>
        <time>2024-07-09T10:23:27Z</time>
      </trkpt>
      <trkpt lat="45.07241" lon="6.1327">
        <ele>2326.8</ele>
        <time>2024-07-09T10:23:28Z</time>
      </trkpt>
      <trkpt lat="45.07241" lon="6.13268">
        <ele>2326.6</ele>
        <time>2024-07-09T10:23:29Z</time>
      </trkpt>
      <trkpt lat="45.0724" lon="6.13267">
        <ele>2326.3</ele>
        <time>2024-07-09T10:23:30Z</time>
      </trkpt>
      <trkpt lat="45.0724" lon="6.13265">
        <ele>2326.1</ele>
        <time>2024-07-09T10:23:31Z</time>
      </trkpt>
      <trkpt lat="45.0724" lon="6.13264">
        <ele>2325.8</ele>
        <time>2024-07-09T10:23:33Z</time>
      </trkpt>
      <trkpt lat="45.07239" lon="6.13261">
        <ele>2325.3</ele>
        <time>2024-07-09T10:23:34Z</time>
      </trkpt>
      <trkpt lat="45.07238" lon="6.1326">
        <ele>2325</ele>
        <time>2024-07-09T10:23:35Z</time>
      </trkpt>
      <trkpt lat="45.07238" lon="6.13258">
        <ele>2324.8</ele>
        <time>2024-07-09T10:23:37Z</time>
      </trkpt>
      <trkpt lat="45.07238" lon="6.13257">
        <ele>2324.6</ele>
        <time>2024-07-09T10:23:38Z</time>
      </trkpt>
      <trkpt lat="45.07237" lon="6.13255">
        <ele>2324.1</ele>
        <time>2024-07-09T10:23:39Z</time>
      </trkpt>
      <trkpt lat="45.07235" lon="6.13253">
        <ele>2323.6</ele>
        <time>2024-07-09T10:23:41Z</time>
      </trkpt>
      <trkpt lat="45.07235" lon="6.13251">
        <ele>2323.3</ele>
        <time>2024-07-09T10:23:42Z</time>
      </trkpt>
      <trkpt lat="45.07235" lon="6.13251">
        <ele>2323.2</ele>
        <time>2024-07-09T10:23:43Z</time>
      </trkpt>
      <trkpt lat="45.07234" lon="6.13249">
        <ele>2322.9</ele>
        <time>2024-07-09T10:23:44Z</time>
      </trkpt>
      <trkpt lat="45.07234" lon="6.13248">
        <ele>2322.7</ele>
        <time>2024-07-09T10:23:46Z</time>
      </trkpt>
      <trkpt lat="45.07234" lon="6.13247">
        <ele>2322.4</ele>
        <time>2024-07-09T10:23:47Z</time>
      </trkpt>
      <trkpt lat="45.07233" lon="6.13245">
        <ele>2322</ele>
        <time>2024-07-09T10:23:48Z</time>
      </trkpt>
      <trkpt lat="45.07233" lon="6.13243">
        <ele>2321.7</ele>
        <time>2024-07-09T10:23:49Z</time>
      </trkpt>
      <trkpt lat="45.07233" lon="6.13242">
        <ele>2321.4</ele>
        <time>2024-07-09T10:23:50Z</time>
      </trkpt>
      <trkpt lat="45.07233" lon="6.13241">
        <ele>2321.1</ele>
        <time>2024-07-09T10:23:51Z</time>
      </trkpt>
      <trkpt lat="45.07232" lon="6.1324">
        <ele>2320.9</ele>
        <time>2024-07-09T10:23:52Z</time>
      </trkpt>
      <trkpt lat="45.07232" lon="6.13239">
        <ele>2320.7</ele>
        <time>2024-07-09T10:23:53Z</time>
      </trkpt>
      <trkpt lat="45.07232" lon="6.13238">
        <ele>2320.5</ele>
        <time>2024-07-09T10:23:54Z</time>
      </trkpt>
      <trkpt lat="45.07232" lon="6.13236">
        <ele>2320.1</ele>
        <time>2024-07-09T10:23:55Z</time>
      </trkpt>
      <trkpt lat="45.07232" lon="6.13233">
        <ele>2319.5</ele>
        <time>2024-07-09T10:23:57Z</time>
      </trkpt>
      <trkpt lat="45.07233" lon="6.13232">
        <ele>2319.2</ele>
        <time>2024-07-09T10:23:58Z</time>
      </trkpt>
      <trkpt lat="45.07233" lon="6.13231">
        <ele>2318.9</ele>
        <time>2024-07-09T10:23:59Z</time>
      </trkpt>
      <trkpt lat="45.07233" lon="6.13229">
        <ele>2318.6</ele>
        <time>2024-07-09T10:24:00Z</time>
      </trkpt>
      <trkpt lat="45.07233" lon="6.13229">
        <ele>2318.4</ele>
        <time>2024-07-09T10:24:02Z</time>
      </trkpt>
      <trkpt lat="45.07233" lon="6.13227">
        <ele>2318</ele>
        <time>2024-07-09T10:24:03Z</time>
      </trkpt>
      <trkpt lat="45.07233" lon="6.13225">
        <ele>2317.6</ele>
        <time>2024-07-09T10:24:04Z</time>
      </trkpt>
      <trkpt lat="45.07232" lon="6.13223">
        <ele>2316.9</ele>
        <time>2024-07-09T10:24:06Z</time>
      </trkpt>
      <trkpt lat="45.07231" lon="6.13222">
        <ele>2316.5</ele>
        <time>2024-07-09T10:24:07Z</time>
      </trkpt>
      <trkpt lat="45.07231" lon="6.13221">
        <ele>2316.4</ele>
        <time>2024-07-09T10:24:08Z</time>
      </trkpt>
      <trkpt lat="45.0723" lon="6.1322">
        <ele>2315.9</ele>
        <time>2024-07-09T10:24:10Z</time>
      </trkpt>
      <trkpt lat="45.07229" lon="6.13219">
        <ele>2315.7</ele>
        <time>2024-07-09T10:24:11Z</time>
      </trkpt>
      <trkpt lat="45.07229" lon="6.13218">
        <ele>2315.4</ele>
        <time>2024-07-09T10:24:12Z</time>
      </trkpt>
      <trkpt lat="45.07228" lon="6.13218">
        <ele>2315.1</ele>
        <time>2024-07-09T10:24:13Z</time>
      </trkpt>
      <trkpt lat="45.07227" lon="6.13216">
        <ele>2314.5</ele>
        <time>2024-07-09T10:24:15Z</time>
      </trkpt>
      <trkpt lat="45.07226" lon="6.13216">
        <ele>2314.3</ele>
        <time>2024-07-09T10:24:17Z</time>
      </trkpt>
      <trkpt lat="45.07225" lon="6.13215">
        <ele>2313.7</ele>
        <time>2024-07-09T10:24:18Z</time>
      </trkpt>
      <trkpt lat="45.07224" lon="6.13214">
        <ele>2313.4</ele>
        <time>2024-07-09T10:24:19Z</time>
      </trkpt>
      <trkpt lat="45.07223" lon="6.13214">
        <ele>2313.1</ele>
        <time>2024-07-09T10:24:21Z</time>
      </trkpt>
      <trkpt lat="45.07222" lon="6.13212">
        <ele>2312.6</ele>
        <time>2024-07-09T10:24:23Z</time>
      </trkpt>
      <trkpt lat="45.07222" lon="6.13211">
        <ele>2312.5</ele>
        <time>2024-07-09T10:24:24Z</time>
      </trkpt>
      <trkpt lat="45.07222" lon="6.13208">
        <ele>2311.7</ele>
        <time>2024-07-09T10:24:25Z</time>
      </trkpt>
      <trkpt lat="45.07222" lon="6.13207">
        <ele>2311.4</ele>
        <time>2024-07-09T10:24:26Z</time>
      </trkpt>
      <trkpt lat="45.07221" lon="6.13206">
        <ele>2311.1</ele>
        <time>2024-07-09T10:24:28Z</time>
      </trkpt>
      <trkpt lat="45.07221" lon="6.13205">
        <ele>2310.8</ele>
        <time>2024-07-09T10:24:29Z</time>
      </trkpt>
      <trkpt lat="45.0722" lon="6.13203">
        <ele>2310.4</ele>
        <time>2024-07-09T10:24:30Z</time>
      </trkpt>
      <trkpt lat="45.07219" lon="6.13203">
        <ele>2310.2</ele>
        <time>2024-07-09T10:24:31Z</time>
      </trkpt>
      <trkpt lat="45.07219" lon="6.13202">
        <ele>2309.9</ele>
        <time>2024-07-09T10:24:33Z</time>
      </trkpt>
      <trkpt lat="45.07219" lon="6.132">
        <ele>2309.6</ele>
        <time>2024-07-09T10:24:34Z</time>
      </trkpt>
      <trkpt lat="45.07219" lon="6.13198">
        <ele>2309.1</ele>
        <time>2024-07-09T10:24:35Z</time>
      </trkpt>
      <trkpt lat="45.07219" lon="6.13197">
        <ele>2308.9</ele>
        <time>2024-07-09T10:24:36Z</time>
      </trkpt>
      <trkpt lat="45.07218" lon="6.13196">
        <ele>2308.5</ele>
        <time>2024-07-09T10:24:38Z</time>
      </trkpt>
      <trkpt lat="45.07218" lon="6.13194">
        <ele>2308.2</ele>
        <time>2024-07-09T10:24:39Z</time>
      </trkpt>
      <trkpt lat="45.07218" lon="6.13192">
        <ele>2307.8</ele>
        <time>2024-07-09T10:24:40Z</time>
      </trkpt>
      <trkpt lat="45.07217" lon="6.13191">
        <ele>2307.6</ele>
        <time>2024-07-09T10:24:41Z</time>
      </trkpt>
      <trkpt lat="45.07217" lon="6.1319">
        <ele>2307.5</ele>
        <time>2024-07-09T10:24:43Z</time>
      </trkpt>
      <trkpt lat="45.07217" lon="6.13189">
        <ele>2307.2</ele>
        <time>2024-07-09T10:24:44Z</time>
      </trkpt>
      <trkpt lat="45.07216" lon="6.13188">
        <ele>2307.1</ele>
        <time>2024-07-09T10:24:45Z</time>
      </trkpt>
      <trkpt lat="45.07216" lon="6.13187">
        <ele>2306.9</ele>
        <time>2024-07-09T10:24:46Z</time>
      </trkpt>
      <trkpt lat="45.07216" lon="6.13185">
        <ele>2306.7</ele>
        <time>2024-07-09T10:24:47Z</time>
      </trkpt>
      <trkpt lat="45.07217" lon="6.13184">
        <ele>2306.4</ele>
        <time>2024-07-09T10:24:48Z</time>
      </trkpt>
      <trkpt lat="45.07218" lon="6.13181">
        <ele>2306</ele>
        <time>2024-07-09T10:24:49Z</time>
      </trkpt>
      <trkpt lat="45.07218" lon="6.1318">
        <ele>2305.9</ele>
        <time>2024-07-09T10:24:51Z</time>
      </trkpt>
      <trkpt lat="45.07218" lon="6.13178">
        <ele>2305.7</ele>
        <time>2024-07-09T10:24:52Z</time>
      </trkpt>
      <trkpt lat="45.07218" lon="6.13175">
        <ele>2305.3</ele>
        <time>2024-07-09T10:24:53Z</time>
      </trkpt>
      <trkpt lat="45.07218" lon="6.13173">
        <ele>2305.2</ele>
        <time>2024-07-09T10:24:54Z</time>
      </trkpt>
      <trkpt lat="45.07217" lon="6.13172">
        <ele>2305</ele>
        <time>2024-07-09T10:24:55Z</time>
      </trkpt>
      <trkpt lat="45.07216" lon="6.13171">
        <ele>2304.8</ele>
        <time>2024-07-09T10:24:57Z</time>
      </trkpt>
      <trkpt lat="45.07215" lon="6.1317">
        <ele>2304.7</ele>
        <time>2024-07-09T10:24:58Z</time>
      </trkpt>
      <trkpt lat="45.07214" lon="6.13169">
        <ele>2304.6</ele>
        <time>2024-07-09T10:24:59Z</time>
      </trkpt>
      <trkpt lat="45.07212" lon="6.13167">
        <ele>2304.4</ele>
        <time>2024-07-09T10:25:00Z</time>
      </trkpt>
      <trkpt lat="45.07211" lon="6.13167">
        <ele>2304.3</ele>
        <time>2024-07-09T10:25:01Z</time>
      </trkpt>
      <trkpt lat="45.0721" lon="6.13166">
        <ele>2304.1</ele>
        <time>2024-07-09T10:25:03Z</time>
      </trkpt>
      <trkpt lat="45.07208" lon="6.13165">
        <ele>2304</ele>
        <time>2024-07-09T10:25:05Z</time>
      </trkpt>
      <trkpt lat="45.07207" lon="6.13164">
        <ele>2303.9</ele>
        <time>2024-07-09T10:25:06Z</time>
      </trkpt>
      <trkpt lat="45.07206" lon="6.13163">
        <ele>2303.9</ele>
        <time>2024-07-09T10:25:07Z</time>
      </trkpt>
      <trkpt lat="45.07206" lon="6.13162">
        <ele>2303.8</ele>
        <time>2024-07-09T10:25:08Z</time>
      </trkpt>
      <trkpt lat="45.07205" lon="6.13161">
        <ele>2303.8</ele>
        <time>2024-07-09T10:25:09Z</time>
      </trkpt>
      <trkpt lat="45.07203" lon="6.13158">
        <ele>2303.7</ele>
        <time>2024-07-09T10:25:11Z</time>
      </trkpt>
      <trkpt lat="45.07202" lon="6.13155">
        <ele>2303.6</ele>
        <time>2024-07-09T10:25:13Z</time>
      </trkpt>
      <trkpt lat="45.07201" lon="6.13152">
        <ele>2303.5</ele>
        <time>2024-07-09T10:25:15Z</time>
      </trkpt>
      <trkpt lat="45.072" lon="6.13151">
        <ele>2303.4</ele>
        <time>2024-07-09T10:25:16Z</time>
      </trkpt>
      <trkpt lat="45.072" lon="6.1315">
        <ele>2303.4</ele>
        <time>2024-07-09T10:25:18Z</time>
      </trkpt>
      <trkpt lat="45.07199" lon="6.13147">
        <ele>2303.3</ele>
        <time>2024-07-09T10:25:19Z</time>
      </trkpt>
      <trkpt lat="45.07198" lon="6.13146">
        <ele>2303.3</ele>
        <time>2024-07-09T10:25:20Z</time>
      </trkpt>
      <trkpt lat="45.07197" lon="6.13144">
        <ele>2303.2</ele>
        <time>2024-07-09T10:25:21Z</time>
      </trkpt>
      <trkpt lat="45.07196" lon="6.13141">
        <ele>2303.1</ele>
        <time>2024-07-09T10:25:22Z</time>
      </trkpt>
      <trkpt lat="45.07195" lon="6.13141">
        <ele>2303</ele>
        <time>2024-07-09T10:25:23Z</time>
      </trkpt>
      <trkpt lat="45.07194" lon="6.1314">
        <ele>2303</ele>
        <time>2024-07-09T10:25:25Z</time>
      </trkpt>
      <trkpt lat="45.07194" lon="6.13139">
        <ele>2302.9</ele>
        <time>2024-07-09T10:25:26Z</time>
      </trkpt>
      <trkpt lat="45.07193" lon="6.13138">
        <ele>2302.9</ele>
        <time>2024-07-09T10:25:27Z</time>
      </trkpt>
      <trkpt lat="45.07193" lon="6.13137">
        <ele>2302.8</ele>
        <time>2024-07-09T10:25:28Z</time>
      </trkpt>
      <trkpt lat="45.07192" lon="6.13137">
        <ele>2302.7</ele>
        <time>2024-07-09T10:25:29Z</time>
      </trkpt>
      <trkpt lat="45.0719" lon="6.13135">
        <ele>2302.6</ele>
        <time>2024-07-09T10:25:30Z</time>
      </trkpt>
      <trkpt lat="45.07189" lon="6.13134">
        <ele>2302.4</ele>
        <time>2024-07-09T10:25:32Z</time>
      </trkpt>
      <trkpt lat="45.07188" lon="6.13133">
        <ele>2302.3</ele>
        <time>2024-07-09T10:25:33Z</time>
      </trkpt>
      <trkpt lat="45.07187" lon="6.13132">
        <ele>2302.3</ele>
        <time>2024-07-09T10:25:34Z</time>
      </trkpt>
      <trkpt lat="45.07186" lon="6.1313">
        <ele>2302.1</ele>
        <time>2024-07-09T10:25:35Z</time>
      </trkpt>
      <trkpt lat="45.07185" lon="6.13128">
        <ele>2301.9</ele>
        <time>2024-07-09T10:25:36Z</time>
      </trkpt>
      <trkpt lat="45.07184" lon="6.13127">
        <ele>2301.8</ele>
        <time>2024-07-09T10:25:38Z</time>
      </trkpt>
      <trkpt lat="45.07183" lon="6.13126">
        <ele>2301.7</ele>
        <time>2024-07-09T10:25:39Z</time>
      </trkpt>
      <trkpt lat="45.07182" lon="6.13124">
        <ele>2301.5</ele>
        <time>2024-07-09T10:25:40Z</time>
      </trkpt>
      <trkpt lat="45.07182" lon="6.13123">
        <ele>2301.4</ele>
        <time>2024-07-09T10:25:41Z</time>
      </trkpt>
      <trkpt lat="45.0718" lon="6.1312">
        <ele>2301.1</ele>
        <time>2024-07-09T10:25:43Z</time>
      </trkpt>
      <trkpt lat="45.07179" lon="6.13117">
        <ele>2300.9</ele>
        <time>2024-07-09T10:25:45Z</time>
      </trkpt>
      <trkpt lat="45.07178" lon="6.13114">
        <ele>2300.6</ele>
        <time>2024-07-09T10:25:47Z</time>
      </trkpt>
      <trkpt lat="45.07176" lon="6.13111">
        <ele>2300.4</ele>
        <time>2024-07-09T10:25:49Z</time>
      </trkpt>
      <trkpt lat="45.07176" lon="6.1311">
        <ele>2300.3</ele>
        <time>2024-07-09T10:25:50Z</time>
      </trkpt>
      <trkpt lat="45.07176" lon="6.13108">
        <ele>2300.2</ele>
        <time>2024-07-09T10:25:51Z</time>
      </trkpt>
      <trkpt lat="45.07176" lon="6.13106">
        <ele>2300</ele>
        <time>2024-07-09T10:25:53Z</time>
      </trkpt>
      <trkpt lat="45.07175" lon="6.13103">
        <ele>2299.8</ele>
        <time>2024-07-09T10:25:54Z</time>
      </trkpt>
      <trkpt lat="45.07174" lon="6.13102">
        <ele>2299.6</ele>
        <time>2024-07-09T10:25:55Z</time>
      </trkpt>
      <trkpt lat="45.07173" lon="6.13101">
        <ele>2299.5</ele>
        <time>2024-07-09T10:25:57Z</time>
      </trkpt>
      <trkpt lat="45.07172" lon="6.13099">
        <ele>2299.3</ele>
        <time>2024-07-09T10:25:58Z</time>
      </trkpt>
      <trkpt lat="45.07172" lon="6.13098">
        <ele>2299.2</ele>
        <time>2024-07-09T10:25:59Z</time>
      </trkpt>
      <trkpt lat="45.0717" lon="6.13095">
        <ele>2298.8</ele>
        <time>2024-07-09T10:26:00Z</time>
      </trkpt>
      <trkpt lat="45.07169" lon="6.13093">
        <ele>2298.5</ele>
        <time>2024-07-09T10:26:02Z</time>
      </trkpt>
      <trkpt lat="45.07168" lon="6.1309">
        <ele>2298.2</ele>
        <time>2024-07-09T10:26:04Z</time>
      </trkpt>
      <trkpt lat="45.07166" lon="6.13088">
        <ele>2297.8</ele>
        <time>2024-07-09T10:26:06Z</time>
      </trkpt>
      <trkpt lat="45.07165" lon="6.13086">
        <ele>2297.5</ele>
        <time>2024-07-09T10:26:07Z</time>
      </trkpt>
      <trkpt lat="45.07164" lon="6.13085">
        <ele>2297.3</ele>
        <time>2024-07-09T10:26:09Z</time>
      </trkpt>
      <trkpt lat="45.07162" lon="6.13083">
        <ele>2296.8</ele>
        <time>2024-07-09T10:26:11Z</time>
      </trkpt>
      <trkpt lat="45.07161" lon="6.13082">
        <ele>2296.5</ele>
        <time>2024-07-09T10:26:13Z</time>
      </trkpt>
      <trkpt lat="45.0716" lon="6.13082">
        <ele>2296.3</ele>
        <time>2024-07-09T10:26:14Z</time>
      </trkpt>
      <trkpt lat="45.07158" lon="6.1308">
        <ele>2295.7</ele>
        <time>2024-07-09T10:26:15Z</time>
      </trkpt>
      <trkpt lat="45.07157" lon="6.13079">
        <ele>2295.4</ele>
        <time>2024-07-09T10:26:16Z</time>
      </trkpt>
      <trkpt lat="45.07155" lon="6.13078">
        <ele>2295</ele>
        <time>2024-07-09T10:26:17Z</time>
      </trkpt>
      <trkpt lat="45.07155" lon="6.13078">
        <ele>2294.9</ele>
        <time>2024-07-09T10:26:18Z</time>
      </trkpt>
      <trkpt lat="45.07154" lon="6.13077">
        <ele>2294.6</ele>
        <time>2024-07-09T10:26:19Z</time>
      </trkpt>
      <trkpt lat="45.07153" lon="6.13075">
        <ele>2294.3</ele>
        <time>2024-07-09T10:26:20Z</time>
      </trkpt>
      <trkpt lat="45.07153" lon="6.13074">
        <ele>2293.9</ele>
        <time>2024-07-09T10:26:21Z</time>
      </trkpt>
      <trkpt lat="45.07152" lon="6.13072">
        <ele>2293.4</ele>
        <time>2024-07-09T10:26:22Z</time>
      </trkpt>
      <trkpt lat="45.07151" lon="6.13071">
        <ele>2293.2</ele>
        <time>2024-07-09T10:26:23Z</time>
      </trkpt>
      <trkpt lat="45.0715" lon="6.13069">
        <ele>2292.6</ele>
        <time>2024-07-09T10:26:25Z</time>
      </trkpt>
      <trkpt lat="45.07149" lon="6.13068">
        <ele>2292.3</ele>
        <time>2024-07-09T10:26:26Z</time>
      </trkpt>
      <trkpt lat="45.07148" lon="6.13067">
        <ele>2291.9</ele>
        <time>2024-07-09T10:26:28Z</time>
      </trkpt>
      <trkpt lat="45.07147" lon="6.13065">
        <ele>2291.5</ele>
        <time>2024-07-09T10:26:29Z</time>
      </trkpt>
      <trkpt lat="45.07146" lon="6.13063">
        <ele>2290.9</ele>
        <time>2024-07-09T10:26:30Z</time>
      </trkpt>
      <trkpt lat="45.07145" lon="6.13062">
        <ele>2290.6</ele>
        <time>2024-07-09T10:26:31Z</time>
      </trkpt>
      <trkpt lat="45.07145" lon="6.13061">
        <ele>2290.3</ele>
        <time>2024-07-09T10:26:32Z</time>
      </trkpt>
      <trkpt lat="45.07145" lon="6.1306">
        <ele>2290.1</ele>
        <time>2024-07-09T10:26:33Z</time>
      </trkpt>
      <trkpt lat="45.07145" lon="6.13059">
        <ele>2290</ele>
        <time>2024-07-09T10:26:35Z</time>
      </trkpt>
      <trkpt lat="45.07144" lon="6.13057">
        <ele>2289.4</ele>
        <time>2024-07-09T10:26:36Z</time>
      </trkpt>
      <trkpt lat="45.07143" lon="6.13056">
        <ele>2289</ele>
        <time>2024-07-09T10:26:37Z</time>
      </trkpt>
      <trkpt lat="45.07143" lon="6.13055">
        <ele>2288.8</ele>
        <time>2024-07-09T10:26:38Z</time>
      </trkpt>
      <trkpt lat="45.07141" lon="6.13054">
        <ele>2288.2</ele>
        <time>2024-07-09T10:26:40Z</time>
      </trkpt>
      <trkpt lat="45.0714" lon="6.13051">
        <ele>2287.6</ele>
        <time>2024-07-09T10:26:42Z</time>
      </trkpt>
      <trkpt lat="45.07139" lon="6.13049">
        <ele>2287</ele>
        <time>2024-07-09T10:26:44Z</time>
      </trkpt>
      <trkpt lat="45.07138" lon="6.13048">
        <ele>2286.6</ele>
        <time>2024-07-09T10:26:45Z</time>
      </trkpt>
      <trkpt lat="45.07137" lon="6.13047">
        <ele>2286.3</ele>
        <time>2024-07-09T10:26:46Z</time>
      </trkpt>
      <trkpt lat="45.07136" lon="6.13046">
        <ele>2286</ele>
        <time>2024-07-09T10:26:48Z</time>
      </trkpt>
      <trkpt lat="45.07136" lon="6.13044">
        <ele>2285.6</ele>
        <time>2024-07-09T10:26:49Z</time>
      </trkpt>
      <trkpt lat="45.07135" lon="6.13043">
        <ele>2285.3</ele>
        <time>2024-07-09T10:26:50Z</time>
      </trkpt>
      <trkpt lat="45.07135" lon="6.13042">
        <ele>2284.9</ele>
        <time>2024-07-09T10:26:51Z</time>
      </trkpt>
      <trkpt lat="45.07134" lon="6.13041">
        <ele>2284.6</ele>
        <time>2024-07-09T10:26:52Z</time>
      </trkpt>
      <trkpt lat="45.07134" lon="6.1304">
        <ele>2284.5</ele>
        <time>2024-07-09T10:26:53Z</time>
      </trkpt>
      <trkpt lat="45.07133" lon="6.1304">
        <ele>2284.2</ele>
        <time>2024-07-09T10:26:54Z</time>
      </trkpt>
      <trkpt lat="45.07133" lon="6.13039">
        <ele>2283.9</ele>
        <time>2024-07-09T10:26:55Z</time>
      </trkpt>
      <trkpt lat="45.07132" lon="6.13037">
        <ele>2283.5</ele>
        <time>2024-07-09T10:26:56Z</time>
      </trkpt>
      <trkpt lat="45.07132" lon="6.13035">
        <ele>2283</ele>
        <time>2024-07-09T10:26:57Z</time>
      </trkpt>
      <trkpt lat="45.07132" lon="6.13035">
        <ele>2283</ele>
        <time>2024-07-09T10:26:58Z</time>
      </trkpt>
      <trkpt lat="45.07132" lon="6.13034">
        <ele>2282.8</ele>
        <time>2024-07-09T10:26:59Z</time>
      </trkpt>
      <trkpt lat="45.07131" lon="6.13033">
        <ele>2282.2</ele>
        <time>2024-07-09T10:27:01Z</time>
      </trkpt>
      <trkpt lat="45.0713" lon="6.13032">
        <ele>2281.9</ele>
        <time>2024-07-09T10:27:02Z</time>
      </trkpt>
      <trkpt lat="45.0713" lon="6.13032">
        <ele>2281.8</ele>
        <time>2024-07-09T10:27:03Z</time>
      </trkpt>
      <trkpt lat="45.0713" lon="6.13031">
        <ele>2281.4</ele>
        <time>2024-07-09T10:27:05Z</time>
      </trkpt>
      <trkpt lat="45.07129" lon="6.1303">
        <ele>2281.1</ele>
        <time>2024-07-09T10:27:07Z</time>
      </trkpt>
      <trkpt lat="45.07129" lon="6.1303">
        <ele>2281</ele>
        <time>2024-07-09T10:27:08Z</time>
      </trkpt>
      <trkpt lat="45.07128" lon="6.1303">
        <ele>2280.7</ele>
        <time>2024-07-09T10:27:09Z</time>
      </trkpt>
      <trkpt lat="45.07126" lon="6.1303">
        <ele>2280.2</ele>
        <time>2024-07-09T10:27:11Z</time>
      </trkpt>
      <trkpt lat="45.07126" lon="6.13029">
        <ele>2279.9</ele>
        <time>2024-07-09T10:27:12Z</time>
      </trkpt>
      <trkpt lat="45.07124" lon="6.13027">
        <ele>2279.1</ele>
        <time>2024-07-09T10:27:14Z</time>
      </trkpt>
      <trkpt lat="45.07123" lon="6.13027">
        <ele>2278.9</ele>
        <time>2024-07-09T10:27:16Z</time>
      </trkpt>
      <trkpt lat="45.07123" lon="6.13027">
        <ele>2278.7</ele>
        <time>2024-07-09T10:27:17Z</time>
      </trkpt>
      <trkpt lat="45.07122" lon="6.13026">
        <ele>2278.3</ele>
        <time>2024-07-09T10:27:18Z</time>
      </trkpt>
      <trkpt lat="45.0712" lon="6.13025">
        <ele>2277.7</ele>
        <time>2024-07-09T10:27:19Z</time>
      </trkpt>
      <trkpt lat="45.07119" lon="6.13024">
        <ele>2277.4</ele>
        <time>2024-07-09T10:27:21Z</time>
      </trkpt>
      <trkpt lat="45.07119" lon="6.13023">
        <ele>2277.1</ele>
        <time>2024-07-09T10:27:22Z</time>
      </trkpt>
      <trkpt lat="45.07118" lon="6.13022">
        <ele>2276.8</ele>
        <time>2024-07-09T10:27:23Z</time>
      </trkpt>
      <trkpt lat="45.07118" lon="6.13021">
        <ele>2276.5</ele>
        <time>2024-07-09T10:27:24Z</time>
      </trkpt>
      <trkpt lat="45.07117" lon="6.1302">
        <ele>2276.1</ele>
        <time>2024-07-09T10:27:25Z</time>
      </trkpt>
      <trkpt lat="45.07117" lon="6.13018">
        <ele>2275.8</ele>
        <time>2024-07-09T10:27:26Z</time>
      </trkpt>
      <trkpt lat="45.07116" lon="6.13017">
        <ele>2275.5</ele>
        <time>2024-07-09T10:27:27Z</time>
      </trkpt>
      <trkpt lat="45.07116" lon="6.13015">
        <ele>2275.1</ele>
        <time>2024-07-09T10:27:28Z</time>
      </trkpt>
      <trkpt lat="45.07116" lon="6.13012">
        <ele>2274.4</ele>
        <time>2024-07-09T10:27:29Z</time>
      </trkpt>
      <trkpt lat="45.07117" lon="6.1301">
        <ele>2274.1</ele>
        <time>2024-07-09T10:27:30Z</time>
      </trkpt>
      <trkpt lat="45.07117" lon="6.13008">
        <ele>2273.8</ele>
        <time>2024-07-09T10:27:32Z</time>
      </trkpt>
      <trkpt lat="45.07117" lon="6.13006">
        <ele>2273.4</ele>
        <time>2024-07-09T10:27:33Z</time>
      </trkpt>
      <trkpt lat="45.07117" lon="6.13005">
        <ele>2273.2</ele>
        <time>2024-07-09T10:27:34Z</time>
      </trkpt>
      <trkpt lat="45.07117" lon="6.13003">
        <ele>2272.9</ele>
        <time>2024-07-09T10:27:35Z</time>
      </trkpt>
      <trkpt lat="45.07117" lon="6.13002">
        <ele>2272.7</ele>
        <time>2024-07-09T10:27:36Z</time>
      </trkpt>
      <trkpt lat="45.07117" lon="6.13001">
        <ele>2272.6</ele>
        <time>2024-07-09T10:27:37Z</time>
      </trkpt>
      <trkpt lat="45.07117" lon="6.13">
        <ele>2272.3</ele>
        <time>2024-07-09T10:27:38Z</time>
      </trkpt>
      <trkpt lat="45.07117" lon="6.13">
        <ele>2272.3</ele>
        <time>2024-07-09T10:27:39Z</time>
      </trkpt>
      <trkpt lat="45.07117" lon="6.12998">
        <ele>2272.1</ele>
        <time>2024-07-09T10:27:40Z</time>
      </trkpt>
      <trkpt lat="45.07116" lon="6.12995">
        <ele>2271.7</ele>
        <time>2024-07-09T10:27:41Z</time>
      </trkpt>
      <trkpt lat="45.07115" lon="6.12993">
        <ele>2271.5</ele>
        <time>2024-07-09T10:27:42Z</time>
      </trkpt>
      <trkpt lat="45.07114" lon="6.1299">
        <ele>2271</ele>
        <time>2024-07-09T10:27:44Z</time>
      </trkpt>
      <trkpt lat="45.07113" lon="6.12989">
        <ele>2270.8</ele>
        <time>2024-07-09T10:27:45Z</time>
      </trkpt>
      <trkpt lat="45.07113" lon="6.12987">
        <ele>2270.7</ele>
        <time>2024-07-09T10:27:46Z</time>
      </trkpt>
      <trkpt lat="45.07112" lon="6.12985">
        <ele>2270.5</ele>
        <time>2024-07-09T10:27:47Z</time>
      </trkpt>
      <trkpt lat="45.07112" lon="6.12983">
        <ele>2270.3</ele>
        <time>2024-07-09T10:27:49Z</time>
      </trkpt>
      <trkpt lat="45.07112" lon="6.12979">
        <ele>2269.9</ele>
        <time>2024-07-09T10:27:50Z</time>
      </trkpt>
      <trkpt lat="45.07113" lon="6.12977">
        <ele>2269.7</ele>
        <time>2024-07-09T10:27:52Z</time>
      </trkpt>
      <trkpt lat="45.07113" lon="6.12974">
        <ele>2269.4</ele>
        <time>2024-07-09T10:27:53Z</time>
      </trkpt>
      <trkpt lat="45.07112" lon="6.12972">
        <ele>2269.2</ele>
        <time>2024-07-09T10:27:54Z</time>
      </trkpt>
      <trkpt lat="45.07112" lon="6.1297">
        <ele>2269.1</ele>
        <time>2024-07-09T10:27:55Z</time>
      </trkpt>
      <trkpt lat="45.0711" lon="6.12968">
        <ele>2268.7</ele>
        <time>2024-07-09T10:27:57Z</time>
      </trkpt>
      <trkpt lat="45.07109" lon="6.12966">
        <ele>2268.5</ele>
        <time>2024-07-09T10:27:58Z</time>
      </trkpt>
      <trkpt lat="45.07108" lon="6.12964">
        <ele>2268.2</ele>
        <time>2024-07-09T10:27:59Z</time>
      </trkpt>
      <trkpt lat="45.07108" lon="6.12963">
        <ele>2268.1</ele>
        <time>2024-07-09T10:28:01Z</time>
      </trkpt>
      <trkpt lat="45.07107" lon="6.12962">
        <ele>2267.9</ele>
        <time>2024-07-09T10:28:02Z</time>
      </trkpt>
      <trkpt lat="45.07107" lon="6.1296">
        <ele>2267.7</ele>
        <time>2024-07-09T10:28:03Z</time>
      </trkpt>
      <trkpt lat="45.07107" lon="6.12957">
        <ele>2267.2</ele>
        <time>2024-07-09T10:28:04Z</time>
      </trkpt>
      <trkpt lat="45.07107" lon="6.12955">
        <ele>2267</ele>
        <time>2024-07-09T10:28:05Z</time>
      </trkpt>
      <trkpt lat="45.07107" lon="6.12952">
        <ele>2266.5</ele>
        <time>2024-07-09T10:28:07Z</time>
      </trkpt>
      <trkpt lat="45.07107" lon="6.12951">
        <ele>2266.3</ele>
        <time>2024-07-09T10:28:08Z</time>
      </trkpt>
      <trkpt lat="45.07107" lon="6.12948">
        <ele>2265.8</ele>
        <time>2024-07-09T10:28:10Z</time>
      </trkpt>
      <trkpt lat="45.07107" lon="6.12947">
        <ele>2265.6</ele>
        <time>2024-07-09T10:28:12Z</time>
      </trkpt>
      <trkpt lat="45.07106" lon="6.12944">
        <ele>2265.1</ele>
        <time>2024-07-09T10:28:13Z</time>
      </trkpt>
      <trkpt lat="45.07105" lon="6.12945">
        <ele>2264.9</ele>
        <time>2024-07-09T10:28:15Z</time>
      </trkpt>
      <trkpt lat="45.07103" lon="6.12944">
        <ele>2264.3</ele>
        <time>2024-07-09T10:28:16Z</time>
      </trkpt>
      <trkpt lat="45.07104" lon="6.12943">
        <ele>2264.2</ele>
        <time>2024-07-09T10:28:17Z</time>
      </trkpt>
      <trkpt lat="45.07105" lon="6.12941">
        <ele>2263.8</ele>
        <time>2024-07-09T10:28:18Z</time>
      </trkpt>
      <trkpt lat="45.07106" lon="6.12941">
        <ele>2263.4</ele>
        <time>2024-07-09T10:28:20Z</time>
      </trkpt>
      <trkpt lat="45.07109" lon="6.12938">
        <ele>2262.5</ele>
        <time>2024-07-09T10:28:21Z</time>
      </trkpt>
      <trkpt lat="45.0711" lon="6.12938">
        <ele>2262.3</ele>
        <time>2024-07-09T10:28:22Z</time>
      </trkpt>
      <trkpt lat="45.07112" lon="6.12938">
        <ele>2262</ele>
        <time>2024-07-09T10:28:23Z</time>
      </trkpt>
      <trkpt lat="45.07114" lon="6.12937">
        <ele>2261.4</ele>
        <time>2024-07-09T10:28:25Z</time>
      </trkpt>
      <trkpt lat="45.07115" lon="6.12936">
        <ele>2261.1</ele>
        <time>2024-07-09T10:28:27Z</time>
      </trkpt>
      <trkpt lat="45.07117" lon="6.12936">
        <ele>2260.7</ele>
        <time>2024-07-09T10:28:28Z</time>
      </trkpt>
      <trkpt lat="45.07118" lon="6.12935">
        <ele>2260.5</ele>
        <time>2024-07-09T10:28:29Z</time>
      </trkpt>
      <trkpt lat="45.07119" lon="6.12935">
        <ele>2260.4</ele>
        <time>2024-07-09T10:28:30Z</time>
      </trkpt>
      <trkpt lat="45.0712" lon="6.12934">
        <ele>2260.1</ele>
        <time>2024-07-09T10:28:32Z</time>
      </trkpt>
      <trkpt lat="45.0712" lon="6.12933">
        <ele>2260.1</ele>
        <time>2024-07-09T10:28:33Z</time>
      </trkpt>
      <trkpt lat="45.07121" lon="6.12932">
        <ele>2259.9</ele>
        <time>2024-07-09T10:28:34Z</time>
      </trkpt>
      <trkpt lat="45.07121" lon="6.12931">
        <ele>2259.7</ele>
        <time>2024-07-09T10:28:35Z</time>
      </trkpt>
      <trkpt lat="45.07123" lon="6.1293">
        <ele>2259.3</ele>
        <time>2024-07-09T10:28:36Z</time>
      </trkpt>
      <trkpt lat="45.07123" lon="6.12929">
        <ele>2259.3</ele>
        <time>2024-07-09T10:28:38Z</time>
      </trkpt>
      <trkpt lat="45.07124" lon="6.12928">
        <ele>2259.2</ele>
        <time>2024-07-09T10:28:39Z</time>
      </trkpt>
      <trkpt lat="45.07125" lon="6.12927">
        <ele>2258.9</ele>
        <time>2024-07-09T10:28:40Z</time>
      </trkpt>
      <trkpt lat="45.07126" lon="6.12926">
        <ele>2258.8</ele>
        <time>2024-07-09T10:28:42Z</time>
      </trkpt>
      <trkpt lat="45.07126" lon="6.12925">
        <ele>2258.6</ele>
        <time>2024-07-09T10:28:43Z</time>
      </trkpt>
      <trkpt lat="45.07127" lon="6.12924">
        <ele>2258.5</ele>
        <time>2024-07-09T10:28:44Z</time>
      </trkpt>
      <trkpt lat="45.07127" lon="6.12923">
        <ele>2258.4</ele>
        <time>2024-07-09T10:28:46Z</time>
      </trkpt>
      <trkpt lat="45.07128" lon="6.1292">
        <ele>2258.1</ele>
        <time>2024-07-09T10:28:47Z</time>
      </trkpt>
      <trkpt lat="45.07129" lon="6.1292">
        <ele>2258</ele>
        <time>2024-07-09T10:28:48Z</time>
      </trkpt>
      <trkpt lat="45.0713" lon="6.12919">
        <ele>2257.9</ele>
        <time>2024-07-09T10:28:49Z</time>
      </trkpt>
      <trkpt lat="45.07131" lon="6.12918">
        <ele>2257.7</ele>
        <time>2024-07-09T10:28:50Z</time>
      </trkpt>
      <trkpt lat="45.07131" lon="6.12916">
        <ele>2257.5</ele>
        <time>2024-07-09T10:28:51Z</time>
      </trkpt>
      <trkpt lat="45.07131" lon="6.12915">
        <ele>2257.4</ele>
        <time>2024-07-09T10:28:52Z</time>
      </trkpt>
      <trkpt lat="45.07132" lon="6.12914">
        <ele>2257.3</ele>
        <time>2024-07-09T10:28:53Z</time>
      </trkpt>
      <trkpt lat="45.07133" lon="6.12914">
        <ele>2257.1</ele>
        <time>2024-07-09T10:28:55Z</time>
      </trkpt>
      <trkpt lat="45.07134" lon="6.12915">
        <ele>2257</ele>
        <time>2024-07-09T10:28:56Z</time>
      </trkpt>
      <trkpt lat="45.07136" lon="6.12914">
        <ele>2256.7</ele>
        <time>2024-07-09T10:28:57Z</time>
      </trkpt>
      <trkpt lat="45.07136" lon="6.12913">
        <ele>2256.6</ele>
        <time>2024-07-09T10:28:58Z</time>
      </trkpt>
      <trkpt lat="45.07137" lon="6.12912">
        <ele>2256.5</ele>
        <time>2024-07-09T10:28:59Z</time>
      </trkpt>
      <trkpt lat="45.07139" lon="6.1291">
        <ele>2256.1</ele>
        <time>2024-07-09T10:29:01Z</time>
      </trkpt>
      <trkpt lat="45.07141" lon="6.1291">
        <ele>2256</ele>
        <time>2024-07-09T10:29:02Z</time>
      </trkpt>
      <trkpt lat="45.07143" lon="6.1291">
        <ele>2255.6</ele>
        <time>2024-07-09T10:29:04Z</time>
      </trkpt>
      <trkpt lat="45.07145" lon="6.12911">
        <ele>2255.4</ele>
        <time>2024-07-09T10:29:06Z</time>
      </trkpt>
      <trkpt lat="45.07146" lon="6.12912">
        <ele>2255.2</ele>
        <time>2024-07-09T10:29:07Z</time>
      </trkpt>
      <trkpt lat="45.07148" lon="6.12912">
        <ele>2255</ele>
        <time>2024-07-09T10:29:08Z</time>
      </trkpt>
      <trkpt lat="45.0715" lon="6.12913">
        <ele>2254.7</ele>
        <time>2024-07-09T10:29:09Z</time>
      </trkpt>
      <trkpt lat="45.07152" lon="6.12913">
        <ele>2254.5</ele>
        <time>2024-07-09T10:29:11Z</time>
      </trkpt>
      <trkpt lat="45.07154" lon="6.12913">
        <ele>2254.2</ele>
        <time>2024-07-09T10:29:12Z</time>
      </trkpt>
      <trkpt lat="45.07155" lon="6.12912">
        <ele>2254.1</ele>
        <time>2024-07-09T10:29:13Z</time>
      </trkpt>
      <trkpt lat="45.07156" lon="6.12912">
        <ele>2253.9</ele>
        <time>2024-07-09T10:29:15Z</time>
      </trkpt>
      <trkpt lat="45.07159" lon="6.12912">
        <ele>2253.6</ele>
        <time>2024-07-09T10:29:16Z</time>
      </trkpt>
      <trkpt lat="45.07161" lon="6.12912">
        <ele>2253.4</ele>
        <time>2024-07-09T10:29:18Z</time>
      </trkpt>
      <trkpt lat="45.07162" lon="6.12911">
        <ele>2253.2</ele>
        <time>2024-07-09T10:29:19Z</time>
      </trkpt>
      <trkpt lat="45.07163" lon="6.12911">
        <ele>2253.1</ele>
        <time>2024-07-09T10:29:20Z</time>
      </trkpt>
      <trkpt lat="45.07164" lon="6.12911">
        <ele>2253</ele>
        <time>2024-07-09T10:29:21Z</time>
      </trkpt>
      <trkpt lat="45.07165" lon="6.12911">
        <ele>2252.7</ele>
        <time>2024-07-09T10:29:22Z</time>
      </trkpt>
      <trkpt lat="45.07166" lon="6.12911">
        <ele>2252.6</ele>
        <time>2024-07-09T10:29:23Z</time>
      </trkpt>
      <trkpt lat="45.07169" lon="6.12911">
        <ele>2252.3</ele>
        <time>2024-07-09T10:29:24Z</time>
      </trkpt>
      <trkpt lat="45.0717" lon="6.12911">
        <ele>2252.2</ele>
        <time>2024-07-09T10:29:25Z</time>
      </trkpt>
      <trkpt lat="45.07171" lon="6.12912">
        <ele>2252</ele>
        <time>2024-07-09T10:29:27Z</time>
      </trkpt>
      <trkpt lat="45.07172" lon="6.12912">
        <ele>2251.8</ele>
        <time>2024-07-09T10:29:28Z</time>
      </trkpt>
      <trkpt lat="45.07173" lon="6.12913">
        <ele>2251.7</ele>
        <time>2024-07-09T10:29:30Z</time>
      </trkpt>
      <trkpt lat="45.07174" lon="6.12913">
        <ele>2251.5</ele>
        <time>2024-07-09T10:29:31Z</time>
      </trkpt>
      <trkpt lat="45.07176" lon="6.12914">
        <ele>2251.3</ele>
        <time>2024-07-09T10:29:32Z</time>
      </trkpt>
      <trkpt lat="45.07177" lon="6.12914">
        <ele>2251.1</ele>
        <time>2024-07-09T10:29:33Z</time>
      </trkpt>
      <trkpt lat="45.07178" lon="6.12915">
        <ele>2251</ele>
        <time>2024-07-09T10:29:35Z</time>
      </trkpt>
      <trkpt lat="45.07179" lon="6.12915">
        <ele>2250.8</ele>
        <time>2024-07-09T10:29:36Z</time>
      </trkpt>
      <trkpt lat="45.0718" lon="6.12915">
        <ele>2250.6</ele>
        <time>2024-07-09T10:29:37Z</time>
      </trkpt>
      <trkpt lat="45.07182" lon="6.12915">
        <ele>2250.2</ele>
        <time>2024-07-09T10:29:38Z</time>
      </trkpt>
      <trkpt lat="45.07185" lon="6.12915">
        <ele>2249.8</ele>
        <time>2024-07-09T10:29:40Z</time>
      </trkpt>
      <trkpt lat="45.07186" lon="6.12916">
        <ele>2249.7</ele>
        <time>2024-07-09T10:29:42Z</time>
      </trkpt>
      <trkpt lat="45.07187" lon="6.12917">
        <ele>2249.4</ele>
        <time>2024-07-09T10:29:43Z</time>
      </trkpt>
      <trkpt lat="45.07188" lon="6.12918">
        <ele>2249.2</ele>
        <time>2024-07-09T10:29:44Z</time>
      </trkpt>
      <trkpt lat="45.07189" lon="6.12918">
        <ele>2249</ele>
        <time>2024-07-09T10:29:45Z</time>
      </trkpt>
      <trkpt lat="45.0719" lon="6.12918">
        <ele>2248.8</ele>
        <time>2024-07-09T10:29:47Z</time>
      </trkpt>
      <trkpt lat="45.07192" lon="6.12919">
        <ele>2248.5</ele>
        <time>2024-07-09T10:29:48Z</time>
      </trkpt>
      <trkpt lat="45.07193" lon="6.12919">
        <ele>2248.3</ele>
        <time>2024-07-09T10:29:49Z</time>
      </trkpt>
      <trkpt lat="45.07194" lon="6.1292">
        <ele>2248.1</ele>
        <time>2024-07-09T10:29:50Z</time>
      </trkpt>
      <trkpt lat="45.07196" lon="6.1292">
        <ele>2247.8</ele>
        <time>2024-07-09T10:29:51Z</time>
      </trkpt>
      <trkpt lat="45.07197" lon="6.1292">
        <ele>2247.6</ele>
        <time>2024-07-09T10:29:53Z</time>
      </trkpt>
      <trkpt lat="45.07198" lon="6.1292">
        <ele>2247.4</ele>
        <time>2024-07-09T10:29:54Z</time>
      </trkpt>
      <trkpt lat="45.07199" lon="6.12921">
        <ele>2247.2</ele>
        <time>2024-07-09T10:29:56Z</time>
      </trkpt>
      <trkpt lat="45.072" lon="6.12922">
        <ele>2247</ele>
        <time>2024-07-09T10:29:57Z</time>
      </trkpt>
      <trkpt lat="45.07202" lon="6.12923">
        <ele>2246.6</ele>
        <time>2024-07-09T10:29:58Z</time>
      </trkpt>
      <trkpt lat="45.07203" lon="6.12924">
        <ele>2246.5</ele>
        <time>2024-07-09T10:30:00Z</time>
      </trkpt>
      <trkpt lat="45.07204" lon="6.12924">
        <ele>2246.3</ele>
        <time>2024-07-09T10:30:01Z</time>
      </trkpt>
      <trkpt lat="45.07206" lon="6.12925">
        <ele>2245.9</ele>
        <time>2024-07-09T10:30:02Z</time>
      </trkpt>
      <trkpt lat="45.07207" lon="6.12925">
        <ele>2245.7</ele>
        <time>2024-07-09T10:30:03Z</time>
      </trkpt>
      <trkpt lat="45.07209" lon="6.12925">
        <ele>2245.3</ele>
        <time>2024-07-09T10:30:05Z</time>
      </trkpt>
      <trkpt lat="45.07211" lon="6.12924">
        <ele>2244.9</ele>
        <time>2024-07-09T10:30:07Z</time>
      </trkpt>
      <trkpt lat="45.07212" lon="6.12924">
        <ele>2244.8</ele>
        <time>2024-07-09T10:30:08Z</time>
      </trkpt>
      <trkpt lat="45.07214" lon="6.12924">
        <ele>2244.4</ele>
        <time>2024-07-09T10:30:09Z</time>
      </trkpt>
      <trkpt lat="45.07215" lon="6.12923">
        <ele>2244.1</ele>
        <time>2024-07-09T10:30:11Z</time>
      </trkpt>
      <trkpt lat="45.07216" lon="6.12922">
        <ele>2243.9</ele>
        <time>2024-07-09T10:30:13Z</time>
      </trkpt>
      <trkpt lat="45.07217" lon="6.12921">
        <ele>2243.6</ele>
        <time>2024-07-09T10:30:15Z</time>
      </trkpt>
      <trkpt lat="45.07218" lon="6.1292">
        <ele>2243.3</ele>
        <time>2024-07-09T10:30:16Z</time>
      </trkpt>
      <trkpt lat="45.07219" lon="6.1292">
        <ele>2243.2</ele>
        <time>2024-07-09T10:30:17Z</time>
      </trkpt>
      <trkpt lat="45.07219" lon="6.12921">
        <ele>2243</ele>
        <time>2024-07-09T10:30:19Z</time>
      </trkpt>
      <trkpt lat="45.07219" lon="6.12922">
        <ele>2242.9</ele>
        <time>2024-07-09T10:30:20Z</time>
      </trkpt>
      <trkpt lat="45.07221" lon="6.12922">
        <ele>2242.6</ele>
        <time>2024-07-09T10:30:22Z</time>
      </trkpt>
      <trkpt lat="45.07222" lon="6.12922">
        <ele>2242.3</ele>
        <time>2024-07-09T10:30:23Z</time>
      </trkpt>
      <trkpt lat="45.07223" lon="6.12921">
        <ele>2241.9</ele>
        <time>2024-07-09T10:30:25Z</time>
      </trkpt>
      <trkpt lat="45.07223" lon="6.1292">
        <ele>2241.6</ele>
        <time>2024-07-09T10:30:26Z</time>
      </trkpt>
      <trkpt lat="45.07221" lon="6.12917">
        <ele>2240.9</ele>
        <time>2024-07-09T10:30:28Z</time>
      </trkpt>
      <trkpt lat="45.0722" lon="6.12916">
        <ele>2240.7</ele>
        <time>2024-07-09T10:30:29Z</time>
      </trkpt>
      <trkpt lat="45.07218" lon="6.12913">
        <ele>2239.9</ele>
        <time>2024-07-09T10:30:31Z</time>
      </trkpt>
      <trkpt lat="45.07217" lon="6.12913">
        <ele>2239.6</ele>
        <time>2024-07-09T10:30:33Z</time>
      </trkpt>
      <trkpt lat="45.07216" lon="6.12911">
        <ele>2238.9</ele>
        <time>2024-07-09T10:30:34Z</time>
      </trkpt>
      <trkpt lat="45.07215" lon="6.12909">
        <ele>2238.5</ele>
        <time>2024-07-09T10:30:35Z</time>
      </trkpt>
      <trkpt lat="45.07214" lon="6.12909">
        <ele>2238.3</ele>
        <time>2024-07-09T10:30:36Z</time>
      </trkpt>
      <trkpt lat="45.07214" lon="6.12908">
        <ele>2238.2</ele>
        <time>2024-07-09T10:30:37Z</time>
      </trkpt>
      <trkpt lat="45.07213" lon="6.12909">
        <ele>2237.8</ele>
        <time>2024-07-09T10:30:39Z</time>
      </trkpt>
      <trkpt lat="45.07212" lon="6.12908">
        <ele>2237.6</ele>
        <time>2024-07-09T10:30:40Z</time>
      </trkpt>
      <trkpt lat="45.07211" lon="6.12907">
        <ele>2237.2</ele>
        <time>2024-07-09T10:30:42Z</time>
      </trkpt>
      <trkpt lat="45.07211" lon="6.12907">
        <ele>2237</ele>
        <time>2024-07-09T10:30:43Z</time>
      </trkpt>
      <trkpt lat="45.07209" lon="6.12904">
        <ele>2236.4</ele>
        <time>2024-07-09T10:30:44Z</time>
      </trkpt>
      <trkpt lat="45.07209" lon="6.12901">
        <ele>2235.7</ele>
        <time>2024-07-09T10:30:46Z</time>
      </trkpt>
      <trkpt lat="45.07209" lon="6.129">
        <ele>2235.4</ele>
        <time>2024-07-09T10:30:47Z</time>
      </trkpt>
      <trkpt lat="45.07208" lon="6.12899">
        <ele>2235.1</ele>
        <time>2024-07-09T10:30:48Z</time>
      </trkpt>
      <trkpt lat="45.07208" lon="6.12898">
        <ele>2234.8</ele>
        <time>2024-07-09T10:30:49Z</time>
      </trkpt>
      <trkpt lat="45.07207" lon="6.12898">
        <ele>2234.6</ele>
        <time>2024-07-09T10:30:50Z</time>
      </trkpt>
      <trkpt lat="45.07206" lon="6.12897">
        <ele>2234.2</ele>
        <time>2024-07-09T10:30:51Z</time>
      </trkpt>
      <trkpt lat="45.07205" lon="6.12897">
        <ele>2234.1</ele>
        <time>2024-07-09T10:30:52Z</time>
      </trkpt>
      <trkpt lat="45.07205" lon="6.12895">
        <ele>2233.7</ele>
        <time>2024-07-09T10:30:53Z</time>
      </trkpt>
      <trkpt lat="45.07205" lon="6.12894">
        <ele>2233.4</ele>
        <time>2024-07-09T10:30:54Z</time>
      </trkpt>
      <trkpt lat="45.07205" lon="6.12892">
        <ele>2233</ele>
        <time>2024-07-09T10:30:55Z</time>
      </trkpt>
      <trkpt lat="45.07206" lon="6.12891">
        <ele>2232.7</ele>
        <time>2024-07-09T10:30:57Z</time>
      </trkpt>
      <trkpt lat="45.07205" lon="6.12891">
        <ele>2232.4</ele>
        <time>2024-07-09T10:30:58Z</time>
      </trkpt>
      <trkpt lat="45.07205" lon="6.12888">
        <ele>2231.9</ele>
        <time>2024-07-09T10:30:59Z</time>
      </trkpt>
      <trkpt lat="45.07204" lon="6.12886">
        <ele>2231.4</ele>
        <time>2024-07-09T10:31:01Z</time>
      </trkpt>
      <trkpt lat="45.07204" lon="6.12886">
        <ele>2231.3</ele>
        <time>2024-07-09T10:31:02Z</time>
      </trkpt>
      <trkpt lat="45.07204" lon="6.12885">
        <ele>2231.1</ele>
        <time>2024-07-09T10:31:03Z</time>
      </trkpt>
      <trkpt lat="45.07204" lon="6.12884">
        <ele>2230.8</ele>
        <time>2024-07-09T10:31:04Z</time>
      </trkpt>
      <trkpt lat="45.07203" lon="6.12884">
        <ele>2230.5</ele>
        <time>2024-07-09T10:31:05Z</time>
      </trkpt>
      <trkpt lat="45.07202" lon="6.12883">
        <ele>2230.2</ele>
        <time>2024-07-09T10:31:07Z</time>
      </trkpt>
      <trkpt lat="45.07201" lon="6.12882">
        <ele>2229.9</ele>
        <time>2024-07-09T10:31:08Z</time>
      </trkpt>
      <trkpt lat="45.07201" lon="6.1288">
        <ele>2229.5</ele>
        <time>2024-07-09T10:31:10Z</time>
      </trkpt>
      <trkpt lat="45.07201" lon="6.12879">
        <ele>2229.2</ele>
        <time>2024-07-09T10:31:12Z</time>
      </trkpt>
      <trkpt lat="45.07202" lon="6.12878">
        <ele>2228.9</ele>
        <time>2024-07-09T10:31:13Z</time>
      </trkpt>
      <trkpt lat="45.07204" lon="6.12877">
        <ele>2228</ele>
        <time>2024-07-09T10:31:14Z</time>
      </trkpt>
      <trkpt lat="45.07206" lon="6.12875">
        <ele>2227.3</ele>
        <time>2024-07-09T10:31:16Z</time>
      </trkpt>
      <trkpt lat="45.07205" lon="6.12873">
        <ele>2226.9</ele>
        <time>2024-07-09T10:31:17Z</time>
      </trkpt>
      <trkpt lat="45.07205" lon="6.12871">
        <ele>2226.5</ele>
        <time>2024-07-09T10:31:18Z</time>
      </trkpt>
      <trkpt lat="45.07209" lon="6.12873">
        <ele>2225.2</ele>
        <time>2024-07-09T10:31:20Z</time>
      </trkpt>
      <trkpt lat="45.0721" lon="6.12874">
        <ele>2224.6</ele>
        <time>2024-07-09T10:31:22Z</time>
      </trkpt>
      <trkpt lat="45.07212" lon="6.12877">
        <ele>2223.9</ele>
        <time>2024-07-09T10:31:23Z</time>
      </trkpt>
      <trkpt lat="45.07213" lon="6.12877">
        <ele>2223.5</ele>
        <time>2024-07-09T10:31:24Z</time>
      </trkpt>
      <trkpt lat="45.07214" lon="6.12878">
        <ele>2222.9</ele>
        <time>2024-07-09T10:31:26Z</time>
      </trkpt>
      <trkpt lat="45.07215" lon="6.12879">
        <ele>2222.6</ele>
        <time>2024-07-09T10:31:27Z</time>
      </trkpt>
      <trkpt lat="45.07216" lon="6.1288">
        <ele>2222</ele>
        <time>2024-07-09T10:31:28Z</time>
      </trkpt>
      <trkpt lat="45.07217" lon="6.1288">
        <ele>2221.7</ele>
        <time>2024-07-09T10:31:29Z</time>
      </trkpt>
      <trkpt lat="45.07218" lon="6.1288">
        <ele>2221.5</ele>
        <time>2024-07-09T10:31:30Z</time>
      </trkpt>
      <trkpt lat="45.07218" lon="6.12879">
        <ele>2221.1</ele>
        <time>2024-07-09T10:31:32Z</time>
      </trkpt>
      <trkpt lat="45.07219" lon="6.12878">
        <ele>2220.5</ele>
        <time>2024-07-09T10:31:33Z</time>
      </trkpt>
      <trkpt lat="45.0722" lon="6.12878">
        <ele>2220.2</ele>
        <time>2024-07-09T10:31:34Z</time>
      </trkpt>
      <trkpt lat="45.07221" lon="6.12877">
        <ele>2219.9</ele>
        <time>2024-07-09T10:31:35Z</time>
      </trkpt>
      <trkpt lat="45.07222" lon="6.12877">
        <ele>2219.4</ele>
        <time>2024-07-09T10:31:37Z</time>
      </trkpt>
      <trkpt lat="45.07223" lon="6.12877">
        <ele>2219.1</ele>
        <time>2024-07-09T10:31:38Z</time>
      </trkpt>
      <trkpt lat="45.07224" lon="6.12877">
        <ele>2218.6</ele>
        <time>2024-07-09T10:31:40Z</time>
      </trkpt>
      <trkpt lat="45.07225" lon="6.12876">
        <ele>2218.2</ele>
        <time>2024-07-09T10:31:42Z</time>
      </trkpt>
      <trkpt lat="45.07226" lon="6.12874">
        <ele>2217.5</ele>
        <time>2024-07-09T10:31:43Z</time>
      </trkpt>
      <trkpt lat="45.07227" lon="6.12874">
        <ele>2217.1</ele>
        <time>2024-07-09T10:31:44Z</time>
      </trkpt>
      <trkpt lat="45.07227" lon="6.1287">
        <ele>2215.9</ele>
        <time>2024-07-09T10:31:46Z</time>
      </trkpt>
      <trkpt lat="45.07227" lon="6.12869">
        <ele>2215.7</ele>
        <time>2024-07-09T10:31:48Z</time>
      </trkpt>
      <trkpt lat="45.07228" lon="6.12869">
        <ele>2215.3</ele>
        <time>2024-07-09T10:31:49Z</time>
      </trkpt>
      <trkpt lat="45.07229" lon="6.12868">
        <ele>2214.7</ele>
        <time>2024-07-09T10:31:50Z</time>
      </trkpt>
      <trkpt lat="45.0723" lon="6.12867">
        <ele>2214.3</ele>
        <time>2024-07-09T10:31:51Z</time>
      </trkpt>
      <trkpt lat="45.07231" lon="6.12866">
        <ele>2213.9</ele>
        <time>2024-07-09T10:31:52Z</time>
      </trkpt>
      <trkpt lat="45.07232" lon="6.12866">
        <ele>2213.5</ele>
        <time>2024-07-09T10:31:53Z</time>
      </trkpt>
      <trkpt lat="45.07233" lon="6.12865">
        <ele>2213.2</ele>
        <time>2024-07-09T10:31:54Z</time>
      </trkpt>
      <trkpt lat="45.07233" lon="6.12865">
        <ele>2213</ele>
        <time>2024-07-09T10:31:55Z</time>
      </trkpt>
      <trkpt lat="45.07234" lon="6.12864">
        <ele>2212.6</ele>
        <time>2024-07-09T10:31:57Z</time>
      </trkpt>
      <trkpt lat="45.07235" lon="6.12864">
        <ele>2212.4</ele>
        <time>2024-07-09T10:31:58Z</time>
      </trkpt>
      <trkpt lat="45.07235" lon="6.12861">
        <ele>2211.7</ele>
        <time>2024-07-09T10:31:59Z</time>
      </trkpt>
      <trkpt lat="45.07235" lon="6.1286">
        <ele>2211.4</ele>
        <time>2024-07-09T10:32:00Z</time>
      </trkpt>
      <trkpt lat="45.07235" lon="6.12858">
        <ele>2211.1</ele>
        <time>2024-07-09T10:32:01Z</time>
      </trkpt>
      <trkpt lat="45.07235" lon="6.12857">
        <ele>2210.8</ele>
        <time>2024-07-09T10:32:02Z</time>
      </trkpt>
      <trkpt lat="45.07235" lon="6.12856">
        <ele>2210.4</ele>
        <time>2024-07-09T10:32:04Z</time>
      </trkpt>
      <trkpt lat="45.07236" lon="6.12855">
        <ele>2210.3</ele>
        <time>2024-07-09T10:32:05Z</time>
      </trkpt>
      <trkpt lat="45.07236" lon="6.12853">
        <ele>2209.8</ele>
        <time>2024-07-09T10:32:06Z</time>
      </trkpt>
      <trkpt lat="45.07236" lon="6.12853">
        <ele>2209.6</ele>
        <time>2024-07-09T10:32:07Z</time>
      </trkpt>
      <trkpt lat="45.07237" lon="6.12853">
        <ele>2209.2</ele>
        <time>2024-07-09T10:32:09Z</time>
      </trkpt>
      <trkpt lat="45.07238" lon="6.12852">
        <ele>2209</ele>
        <time>2024-07-09T10:32:10Z</time>
      </trkpt>
      <trkpt lat="45.07238" lon="6.12851">
        <ele>2208.6</ele>
        <time>2024-07-09T10:32:12Z</time>
      </trkpt>
      <trkpt lat="45.07239" lon="6.1285">
        <ele>2208.3</ele>
        <time>2024-07-09T10:32:13Z</time>
      </trkpt>
      <trkpt lat="45.0724" lon="6.12849">
        <ele>2208</ele>
        <time>2024-07-09T10:32:14Z</time>
      </trkpt>
      <trkpt lat="45.07241" lon="6.12849">
        <ele>2207.7</ele>
        <time>2024-07-09T10:32:15Z</time>
      </trkpt>
      <trkpt lat="45.07243" lon="6.12847">
        <ele>2206.9</ele>
        <time>2024-07-09T10:32:17Z</time>
      </trkpt>
      <trkpt lat="45.07243" lon="6.12846">
        <ele>2206.6</ele>
        <time>2024-07-09T10:32:19Z</time>
      </trkpt>
      <trkpt lat="45.07244" lon="6.12845">
        <ele>2206.3</ele>
        <time>2024-07-09T10:32:20Z</time>
      </trkpt>
      <trkpt lat="45.07244" lon="6.12844">
        <ele>2206.1</ele>
        <time>2024-07-09T10:32:21Z</time>
      </trkpt>
      <trkpt lat="45.07245" lon="6.12843">
        <ele>2205.8</ele>
        <time>2024-07-09T10:32:22Z</time>
      </trkpt>
      <trkpt lat="45.07245" lon="6.12842">
        <ele>2205.6</ele>
        <time>2024-07-09T10:32:23Z</time>
      </trkpt>
      <trkpt lat="45.07246" lon="6.12842">
        <ele>2205.3</ele>
        <time>2024-07-09T10:32:25Z</time>
      </trkpt>
      <trkpt lat="45.07246" lon="6.12841">
        <ele>2205.1</ele>
        <time>2024-07-09T10:32:26Z</time>
      </trkpt>
      <trkpt lat="45.07246" lon="6.12841">
        <ele>2205</ele>
        <time>2024-07-09T10:32:28Z</time>
      </trkpt>
      <trkpt lat="45.07246" lon="6.12838">
        <ele>2204.5</ele>
        <time>2024-07-09T10:32:29Z</time>
      </trkpt>
      <trkpt lat="45.07245" lon="6.12838">
        <ele>2204.1</ele>
        <time>2024-07-09T10:32:31Z</time>
      </trkpt>
      <trkpt lat="45.07245" lon="6.12836">
        <ele>2203.8</ele>
        <time>2024-07-09T10:32:32Z</time>
      </trkpt>
      <trkpt lat="45.07245" lon="6.12835">
        <ele>2203.4</ele>
        <time>2024-07-09T10:32:33Z</time>
      </trkpt>
      <trkpt lat="45.07244" lon="6.12833">
        <ele>2203</ele>
        <time>2024-07-09T10:32:34Z</time>
      </trkpt>
      <trkpt lat="45.07243" lon="6.12832">
        <ele>2202.7</ele>
        <time>2024-07-09T10:32:35Z</time>
      </trkpt>
      <trkpt lat="45.07243" lon="6.12832">
        <ele>2202.5</ele>
        <time>2024-07-09T10:32:36Z</time>
      </trkpt>
      <trkpt lat="45.07242" lon="6.12831">
        <ele>2202.2</ele>
        <time>2024-07-09T10:32:37Z</time>
      </trkpt>
      <trkpt lat="45.07241" lon="6.12829">
        <ele>2201.7</ele>
        <time>2024-07-09T10:32:38Z</time>
      </trkpt>
      <trkpt lat="45.07241" lon="6.12828">
        <ele>2201.5</ele>
        <time>2024-07-09T10:32:39Z</time>
      </trkpt>
      <trkpt lat="45.0724" lon="6.12827">
        <ele>2201.3</ele>
        <time>2024-07-09T10:32:41Z</time>
      </trkpt>
      <trkpt lat="45.07239" lon="6.12824">
        <ele>2200.6</ele>
        <time>2024-07-09T10:32:42Z</time>
      </trkpt>
      <trkpt lat="45.07239" lon="6.12822">
        <ele>2199.9</ele>
        <time>2024-07-09T10:32:44Z</time>
      </trkpt>
      <trkpt lat="45.07239" lon="6.1282">
        <ele>2199.6</ele>
        <time>2024-07-09T10:32:46Z</time>
      </trkpt>
      <trkpt lat="45.07239" lon="6.12817">
        <ele>2198.9</ele>
        <time>2024-07-09T10:32:47Z</time>
      </trkpt>
      <trkpt lat="45.07239" lon="6.12815">
        <ele>2198.5</ele>
        <time>2024-07-09T10:32:49Z</time>
      </trkpt>
      <trkpt lat="45.07239" lon="6.12813">
        <ele>2198</ele>
        <time>2024-07-09T10:32:50Z</time>
      </trkpt>
      <trkpt lat="45.0724" lon="6.12809">
        <ele>2197.3</ele>
        <time>2024-07-09T10:32:52Z</time>
      </trkpt>
      <trkpt lat="45.0724" lon="6.12808">
        <ele>2197</ele>
        <time>2024-07-09T10:32:54Z</time>
      </trkpt>
      <trkpt lat="45.0724" lon="6.12806">
        <ele>2196.8</ele>
        <time>2024-07-09T10:32:55Z</time>
      </trkpt>
      <trkpt lat="45.0724" lon="6.12805">
        <ele>2196.4</ele>
        <time>2024-07-09T10:32:56Z</time>
      </trkpt>
      <trkpt lat="45.0724" lon="6.12802">
        <ele>2196</ele>
        <time>2024-07-09T10:32:57Z</time>
      </trkpt>
      <trkpt lat="45.0724" lon="6.12801">
        <ele>2195.7</ele>
        <time>2024-07-09T10:32:59Z</time>
      </trkpt>
      <trkpt lat="45.0724" lon="6.128">
        <ele>2195.5</ele>
        <time>2024-07-09T10:33:00Z</time>
      </trkpt>
      <trkpt lat="45.0724" lon="6.12796">
        <ele>2195</ele>
        <time>2024-07-09T10:33:01Z</time>
      </trkpt>
      <trkpt lat="45.0724" lon="6.12794">
        <ele>2194.7</ele>
        <time>2024-07-09T10:33:03Z</time>
      </trkpt>
      <trkpt lat="45.0724" lon="6.12794">
        <ele>2194.5</ele>
        <time>2024-07-09T10:33:04Z</time>
      </trkpt>
      <trkpt lat="45.07239" lon="6.12793">
        <ele>2194.4</ele>
        <time>2024-07-09T10:33:05Z</time>
      </trkpt>
      <trkpt lat="45.0724" lon="6.12789">
        <ele>2193.8</ele>
        <time>2024-07-09T10:33:06Z</time>
      </trkpt>
      <trkpt lat="45.0724" lon="6.12788">
        <ele>2193.6</ele>
        <time>2024-07-09T10:33:07Z</time>
      </trkpt>
      <trkpt lat="45.07241" lon="6.12787">
        <ele>2193.4</ele>
        <time>2024-07-09T10:33:08Z</time>
      </trkpt>
      <trkpt lat="45.07241" lon="6.12786">
        <ele>2193.1</ele>
        <time>2024-07-09T10:33:10Z</time>
      </trkpt>
      <trkpt lat="45.07243" lon="6.12783">
        <ele>2192.7</ele>
        <time>2024-07-09T10:33:12Z</time>
      </trkpt>
      <trkpt lat="45.07244" lon="6.12783">
        <ele>2192.4</ele>
        <time>2024-07-09T10:33:14Z</time>
      </trkpt>
      <trkpt lat="45.07244" lon="6.12783">
        <ele>2192.2</ele>
        <time>2024-07-09T10:33:15Z</time>
      </trkpt>
      <trkpt lat="45.07244" lon="6.1278">
        <ele>2191.8</ele>
        <time>2024-07-09T10:33:16Z</time>
      </trkpt>
      <trkpt lat="45.07244" lon="6.12777">
        <ele>2191.3</ele>
        <time>2024-07-09T10:33:17Z</time>
      </trkpt>
      <trkpt lat="45.07244" lon="6.12776">
        <ele>2191.1</ele>
        <time>2024-07-09T10:33:19Z</time>
      </trkpt>
      <trkpt lat="45.07244" lon="6.12775">
        <ele>2190.9</ele>
        <time>2024-07-09T10:33:20Z</time>
      </trkpt>
      <trkpt lat="45.07244" lon="6.12773">
        <ele>2190.7</ele>
        <time>2024-07-09T10:33:21Z</time>
      </trkpt>
      <trkpt lat="45.07244" lon="6.12772">
        <ele>2190.5</ele>
        <time>2024-07-09T10:33:22Z</time>
      </trkpt>
      <trkpt lat="45.07244" lon="6.1277">
        <ele>2190.1</ele>
        <time>2024-07-09T10:33:23Z</time>
      </trkpt>
      <trkpt lat="45.07244" lon="6.12769">
        <ele>2189.9</ele>
        <time>2024-07-09T10:33:24Z</time>
      </trkpt>
      <trkpt lat="45.07244" lon="6.12768">
        <ele>2189.7</ele>
        <time>2024-07-09T10:33:25Z</time>
      </trkpt>
      <trkpt lat="45.07244" lon="6.12766">
        <ele>2189.5</ele>
        <time>2024-07-09T10:33:27Z</time>
      </trkpt>
      <trkpt lat="45.07244" lon="6.12763">
        <ele>2188.8</ele>
        <time>2024-07-09T10:33:28Z</time>
      </trkpt>
      <trkpt lat="45.07244" lon="6.12762">
        <ele>2188.6</ele>
        <time>2024-07-09T10:33:30Z</time>
      </trkpt>
      <trkpt lat="45.07245" lon="6.12759">
        <ele>2188</ele>
        <time>2024-07-09T10:33:31Z</time>
      </trkpt>
      <trkpt lat="45.07247" lon="6.12756">
        <ele>2187.2</ele>
        <time>2024-07-09T10:33:33Z</time>
      </trkpt>
      <trkpt lat="45.07248" lon="6.12754">
        <ele>2186.8</ele>
        <time>2024-07-09T10:33:34Z</time>
      </trkpt>
      <trkpt lat="45.07248" lon="6.12753">
        <ele>2186.6</ele>
        <time>2024-07-09T10:33:35Z</time>
      </trkpt>
      <trkpt lat="45.07249" lon="6.12753">
        <ele>2186.3</ele>
        <time>2024-07-09T10:33:36Z</time>
      </trkpt>
      <trkpt lat="45.07249" lon="6.12752">
        <ele>2186.1</ele>
        <time>2024-07-09T10:33:38Z</time>
      </trkpt>
      <trkpt lat="45.0725" lon="6.12751">
        <ele>2185.8</ele>
        <time>2024-07-09T10:33:39Z</time>
      </trkpt>
      <trkpt lat="45.07251" lon="6.1275">
        <ele>2185.6</ele>
        <time>2024-07-09T10:33:40Z</time>
      </trkpt>
      <trkpt lat="45.07251" lon="6.12749">
        <ele>2185.4</ele>
        <time>2024-07-09T10:33:41Z</time>
      </trkpt>
      <trkpt lat="45.07252" lon="6.12749">
        <ele>2185.2</ele>
        <time>2024-07-09T10:33:42Z</time>
      </trkpt>
      <trkpt lat="45.07253" lon="6.12747">
        <ele>2184.8</ele>
        <time>2024-07-09T10:33:44Z</time>
      </trkpt>
      <trkpt lat="45.07253" lon="6.12745">
        <ele>2184.3</ele>
        <time>2024-07-09T10:33:45Z</time>
      </trkpt>
      <trkpt lat="45.07252" lon="6.12742">
        <ele>2183.8</ele>
        <time>2024-07-09T10:33:47Z</time>
      </trkpt>
      <trkpt lat="45.07253" lon="6.1274">
        <ele>2183.3</ele>
        <time>2024-07-09T10:33:48Z</time>
      </trkpt>
      <trkpt lat="45.07253" lon="6.1274">
        <ele>2183.2</ele>
        <time>2024-07-09T10:33:49Z</time>
      </trkpt>
      <trkpt lat="45.07253" lon="6.12737">
        <ele>2182.6</ele>
        <time>2024-07-09T10:33:51Z</time>
      </trkpt>
      <trkpt lat="45.07252" lon="6.12736">
        <ele>2182.4</ele>
        <time>2024-07-09T10:33:52Z</time>
      </trkpt>
      <trkpt lat="45.07252" lon="6.12734">
        <ele>2181.9</ele>
        <time>2024-07-09T10:33:54Z</time>
      </trkpt>
      <trkpt lat="45.07251" lon="6.12732">
        <ele>2181.4</ele>
        <time>2024-07-09T10:33:55Z</time>
      </trkpt>
      <trkpt lat="45.07251" lon="6.12731">
        <ele>2181.1</ele>
        <time>2024-07-09T10:33:56Z</time>
      </trkpt>
      <trkpt lat="45.07251" lon="6.12729">
        <ele>2180.8</ele>
        <time>2024-07-09T10:33:58Z</time>
      </trkpt>
      <trkpt lat="45.07251" lon="6.12728">
        <ele>2180.6</ele>
        <time>2024-07-09T10:33:59Z</time>
      </trkpt>
      <trkpt lat="45.07251" lon="6.12727">
        <ele>2180.4</ele>
        <time>2024-07-09T10:34:00Z</time>
      </trkpt>
      <trkpt lat="45.0725" lon="6.12726">
        <ele>2180.1</ele>
        <time>2024-07-09T10:34:01Z</time>
      </trkpt>
      <trkpt lat="45.0725" lon="6.12725">
        <ele>2179.8</ele>
        <time>2024-07-09T10:34:02Z</time>
      </trkpt>
      <trkpt lat="45.07249" lon="6.12723">
        <ele>2179.3</ele>
        <time>2024-07-09T10:34:04Z</time>
      </trkpt>
      <trkpt lat="45.0725" lon="6.12722">
        <ele>2179.1</ele>
        <time>2024-07-09T10:34:05Z</time>
      </trkpt>
      <trkpt lat="45.0725" lon="6.12721">
        <ele>2178.8</ele>
        <time>2024-07-09T10:34:07Z</time>
      </trkpt>
      <trkpt lat="45.07251" lon="6.1272">
        <ele>2178.6</ele>
        <time>2024-07-09T10:34:08Z</time>
      </trkpt>
      <trkpt lat="45.0725" lon="6.12719">
        <ele>2178.3</ele>
        <time>2024-07-09T10:34:09Z</time>
      </trkpt>
      <trkpt lat="45.0725" lon="6.12717">
        <ele>2177.9</ele>
        <time>2024-07-09T10:34:10Z</time>
      </trkpt>
      <trkpt lat="45.07251" lon="6.12716">
        <ele>2177.4</ele>
        <time>2024-07-09T10:34:11Z</time>
      </trkpt>
      <trkpt lat="45.07252" lon="6.12716">
        <ele>2177.2</ele>
        <time>2024-07-09T10:34:12Z</time>
      </trkpt>
      <trkpt lat="45.07253" lon="6.12716">
        <ele>2176.8</ele>
        <time>2024-07-09T10:34:14Z</time>
      </trkpt>
      <trkpt lat="45.07254" lon="6.12717">
        <ele>2176.5</ele>
        <time>2024-07-09T10:34:15Z</time>
      </trkpt>
      <trkpt lat="45.07255" lon="6.12717">
        <ele>2176.2</ele>
        <time>2024-07-09T10:34:16Z</time>
      </trkpt>
      <trkpt lat="45.07256" lon="6.12717">
        <ele>2175.9</ele>
        <time>2024-07-09T10:34:17Z</time>
      </trkpt>
      <trkpt lat="45.07258" lon="6.12716">
        <ele>2175.1</ele>
        <time>2024-07-09T10:34:18Z</time>
      </trkpt>
      <trkpt lat="45.07259" lon="6.12715">
        <ele>2174.9</ele>
        <time>2024-07-09T10:34:19Z</time>
      </trkpt>
      <trkpt lat="45.0726" lon="6.12714">
        <ele>2174.5</ele>
        <time>2024-07-09T10:34:20Z</time>
      </trkpt>
      <trkpt lat="45.0726" lon="6.12714">
        <ele>2174.2</ele>
        <time>2024-07-09T10:34:21Z</time>
      </trkpt>
      <trkpt lat="45.07261" lon="6.12713">
        <ele>2173.9</ele>
        <time>2024-07-09T10:34:22Z</time>
      </trkpt>
      <trkpt lat="45.07262" lon="6.12712">
        <ele>2173.6</ele>
        <time>2024-07-09T10:34:24Z</time>
      </trkpt>
      <trkpt lat="45.07264" lon="6.12712">
        <ele>2173</ele>
        <time>2024-07-09T10:34:25Z</time>
      </trkpt>
      <trkpt lat="45.07265" lon="6.12711">
        <ele>2172.5</ele>
        <time>2024-07-09T10:34:27Z</time>
      </trkpt>
      <trkpt lat="45.07266" lon="6.1271">
        <ele>2172</ele>
        <time>2024-07-09T10:34:28Z</time>
      </trkpt>
      <trkpt lat="45.07266" lon="6.12709">
        <ele>2171.7</ele>
        <time>2024-07-09T10:34:30Z</time>
      </trkpt>
      <trkpt lat="45.07267" lon="6.12708">
        <ele>2171.5</ele>
        <time>2024-07-09T10:34:31Z</time>
      </trkpt>
      <trkpt lat="45.07267" lon="6.12707">
        <ele>2171.2</ele>
        <time>2024-07-09T10:34:32Z</time>
      </trkpt>
      <trkpt lat="45.07267" lon="6.12706">
        <ele>2171</ele>
        <time>2024-07-09T10:34:33Z</time>
      </trkpt>
      <trkpt lat="45.07267" lon="6.12706">
        <ele>2170.8</ele>
        <time>2024-07-09T10:34:34Z</time>
      </trkpt>
      <trkpt lat="45.07268" lon="6.12706">
        <ele>2170.5</ele>
        <time>2024-07-09T10:34:35Z</time>
      </trkpt>
      <trkpt lat="45.07269" lon="6.12707">
        <ele>2170.2</ele>
        <time>2024-07-09T10:34:36Z</time>
      </trkpt>
      <trkpt lat="45.0727" lon="6.12707">
        <ele>2169.8</ele>
        <time>2024-07-09T10:34:37Z</time>
      </trkpt>
      <trkpt lat="45.07271" lon="6.12707">
        <ele>2169.4</ele>
        <time>2024-07-09T10:34:39Z</time>
      </trkpt>
      <trkpt lat="45.07272" lon="6.12707">
        <ele>2169</ele>
        <time>2024-07-09T10:34:40Z</time>
      </trkpt>
      <trkpt lat="45.07273" lon="6.12706">
        <ele>2168.7</ele>
        <time>2024-07-09T10:34:41Z</time>
      </trkpt>
      <trkpt lat="45.07274" lon="6.12705">
        <ele>2168.2</ele>
        <time>2024-07-09T10:34:42Z</time>
      </trkpt>
      <trkpt lat="45.07273" lon="6.12702">
        <ele>2167.5</ele>
        <time>2024-07-09T10:34:44Z</time>
      </trkpt>
      <trkpt lat="45.07272" lon="6.12702">
        <ele>2167.2</ele>
        <time>2024-07-09T10:34:45Z</time>
      </trkpt>
      <trkpt lat="45.07273" lon="6.127">
        <ele>2166.6</ele>
        <time>2024-07-09T10:34:46Z</time>
      </trkpt>
      <trkpt lat="45.07272" lon="6.12698">
        <ele>2166.3</ele>
        <time>2024-07-09T10:34:47Z</time>
      </trkpt>
      <trkpt lat="45.07272" lon="6.12697">
        <ele>2166</ele>
        <time>2024-07-09T10:34:48Z</time>
      </trkpt>
      <trkpt lat="45.07272" lon="6.12698">
        <ele>2165.7</ele>
        <time>2024-07-09T10:34:50Z</time>
      </trkpt>
      <trkpt lat="45.07272" lon="6.12697">
        <ele>2165.4</ele>
        <time>2024-07-09T10:34:51Z</time>
      </trkpt>
      <trkpt lat="45.07272" lon="6.12697">
        <ele>2165.3</ele>
        <time>2024-07-09T10:34:52Z</time>
      </trkpt>
      <trkpt lat="45.07272" lon="6.12698">
        <ele>2165.1</ele>
        <time>2024-07-09T10:34:53Z</time>
      </trkpt>
      <trkpt lat="45.07272" lon="6.12699">
        <ele>2164.9</ele>
        <time>2024-07-09T10:34:54Z</time>
      </trkpt>
      <trkpt lat="45.07272" lon="6.12699">
        <ele>2164.8</ele>
        <time>2024-07-09T10:34:55Z</time>
      </trkpt>
      <trkpt lat="45.07273" lon="6.12699">
        <ele>2164.4</ele>
        <time>2024-07-09T10:34:56Z</time>
      </trkpt>
      <trkpt lat="45.07275" lon="6.12699">
        <ele>2163.9</ele>
        <time>2024-07-09T10:34:57Z</time>
      </trkpt>
      <trkpt lat="45.07277" lon="6.127">
        <ele>2163.1</ele>
        <time>2024-07-09T10:34:59Z</time>
      </trkpt>
      <trkpt lat="45.07279" lon="6.12702">
        <ele>2162</ele>
        <time>2024-07-09T10:35:00Z</time>
      </trkpt>
      <trkpt lat="45.0728" lon="6.12703">
        <ele>2161.7</ele>
        <time>2024-07-09T10:35:01Z</time>
      </trkpt>
      <trkpt lat="45.0728" lon="6.12704">
        <ele>2161.3</ele>
        <time>2024-07-09T10:35:02Z</time>
      </trkpt>
      <trkpt lat="45.07282" lon="6.12705">
        <ele>2160.7</ele>
        <time>2024-07-09T10:35:03Z</time>
      </trkpt>
      <trkpt lat="45.07282" lon="6.12706">
        <ele>2160.4</ele>
        <time>2024-07-09T10:35:04Z</time>
      </trkpt>
      <trkpt lat="45.07283" lon="6.12708">
        <ele>2159.9</ele>
        <time>2024-07-09T10:35:05Z</time>
      </trkpt>
      <trkpt lat="45.07283" lon="6.12709">
        <ele>2159.5</ele>
        <time>2024-07-09T10:35:06Z</time>
      </trkpt>
      <trkpt lat="45.07284" lon="6.12711">
        <ele>2159.1</ele>
        <time>2024-07-09T10:35:07Z</time>
      </trkpt>
      <trkpt lat="45.07285" lon="6.12712">
        <ele>2158.7</ele>
        <time>2024-07-09T10:35:08Z</time>
      </trkpt>
      <trkpt lat="45.07285" lon="6.12712">
        <ele>2158.6</ele>
        <time>2024-07-09T10:35:09Z</time>
      </trkpt>
      <trkpt lat="45.07285" lon="6.12712">
        <ele>2158.5</ele>
        <time>2024-07-09T10:35:10Z</time>
      </trkpt>
      <trkpt lat="45.07285" lon="6.12713">
        <ele>2158.2</ele>
        <time>2024-07-09T10:35:11Z</time>
      </trkpt>
      <trkpt lat="45.0729" lon="6.12716">
        <ele>2156.3</ele>
        <time>2024-07-09T10:35:12Z</time>
      </trkpt>
      <trkpt lat="45.07293" lon="6.12717">
        <ele>2155.2</ele>
        <time>2024-07-09T10:35:13Z</time>
      </trkpt>
      <trkpt lat="45.07296" lon="6.12717">
        <ele>2154.2</ele>
        <time>2024-07-09T10:35:14Z</time>
      </trkpt>
      <trkpt lat="45.07296" lon="6.12716">
        <ele>2153.8</ele>
        <time>2024-07-09T10:35:15Z</time>
      </trkpt>
      <trkpt lat="45.07295" lon="6.12714">
        <ele>2153.5</ele>
        <time>2024-07-09T10:35:17Z</time>
      </trkpt>
      <trkpt lat="45.07295" lon="6.12713">
        <ele>2153</ele>
        <time>2024-07-09T10:35:18Z</time>
      </trkpt>
      <trkpt lat="45.07295" lon="6.1271">
        <ele>2152.3</ele>
        <time>2024-07-09T10:35:19Z</time>
      </trkpt>
      <trkpt lat="45.07296" lon="6.12709">
        <ele>2151.9</ele>
        <time>2024-07-09T10:35:20Z</time>
      </trkpt>
      <trkpt lat="45.07297" lon="6.12709">
        <ele>2151.6</ele>
        <time>2024-07-09T10:35:21Z</time>
      </trkpt>
      <trkpt lat="45.07298" lon="6.12708">
        <ele>2151.3</ele>
        <time>2024-07-09T10:35:22Z</time>
      </trkpt>
      <trkpt lat="45.07298" lon="6.12708">
        <ele>2150.9</ele>
        <time>2024-07-09T10:35:24Z</time>
      </trkpt>
      <trkpt lat="45.07299" lon="6.12707">
        <ele>2150.6</ele>
        <time>2024-07-09T10:35:26Z</time>
      </trkpt>
      <trkpt lat="45.073" lon="6.12706">
        <ele>2150.2</ele>
        <time>2024-07-09T10:35:27Z</time>
      </trkpt>
      <trkpt lat="45.07301" lon="6.12707">
        <ele>2149.8</ele>
        <time>2024-07-09T10:35:29Z</time>
      </trkpt>
      <trkpt lat="45.07302" lon="6.12706">
        <ele>2149.5</ele>
        <time>2024-07-09T10:35:30Z</time>
      </trkpt>
      <trkpt lat="45.07303" lon="6.12706">
        <ele>2149.1</ele>
        <time>2024-07-09T10:35:31Z</time>
      </trkpt>
      <trkpt lat="45.07304" lon="6.12705">
        <ele>2148.7</ele>
        <time>2024-07-09T10:35:32Z</time>
      </trkpt>
      <trkpt lat="45.07305" lon="6.12706">
        <ele>2148.3</ele>
        <time>2024-07-09T10:35:33Z</time>
      </trkpt>
      <trkpt lat="45.07306" lon="6.12707">
        <ele>2147.5</ele>
        <time>2024-07-09T10:35:35Z</time>
      </trkpt>
      <trkpt lat="45.07308" lon="6.12706">
        <ele>2146.9</ele>
        <time>2024-07-09T10:35:37Z</time>
      </trkpt>
      <trkpt lat="45.07308" lon="6.12704">
        <ele>2146.4</ele>
        <time>2024-07-09T10:35:38Z</time>
      </trkpt>
      <trkpt lat="45.07307" lon="6.12705">
        <ele>2145.8</ele>
        <time>2024-07-09T10:35:40Z</time>
      </trkpt>
      <trkpt lat="45.07307" lon="6.12705">
        <ele>2145.6</ele>
        <time>2024-07-09T10:35:41Z</time>
      </trkpt>
      <trkpt lat="45.07307" lon="6.12703">
        <ele>2145.3</ele>
        <time>2024-07-09T10:35:43Z</time>
      </trkpt>
      <trkpt lat="45.07308" lon="6.12703">
        <ele>2145</ele>
        <time>2024-07-09T10:35:44Z</time>
      </trkpt>
      <trkpt lat="45.07308" lon="6.12703">
        <ele>2144.8</ele>
        <time>2024-07-09T10:35:45Z</time>
      </trkpt>
      <trkpt lat="45.07309" lon="6.12703">
        <ele>2144.5</ele>
        <time>2024-07-09T10:35:46Z</time>
      </trkpt>
      <trkpt lat="45.07311" lon="6.12703">
        <ele>2143.7</ele>
        <time>2024-07-09T10:35:47Z</time>
      </trkpt>
      <trkpt lat="45.07311" lon="6.12703">
        <ele>2143.5</ele>
        <time>2024-07-09T10:35:49Z</time>
      </trkpt>
      <trkpt lat="45.07312" lon="6.12702">
        <ele>2143.4</ele>
        <time>2024-07-09T10:35:50Z</time>
      </trkpt>
      <trkpt lat="45.07312" lon="6.12701">
        <ele>2143.2</ele>
        <time>2024-07-09T10:35:51Z</time>
      </trkpt>
      <trkpt lat="45.07312" lon="6.12701">
        <ele>2143</ele>
        <time>2024-07-09T10:35:53Z</time>
      </trkpt>
      <trkpt lat="45.07312" lon="6.127">
        <ele>2142.8</ele>
        <time>2024-07-09T10:35:54Z</time>
      </trkpt>
      <trkpt lat="45.07311" lon="6.12699">
        <ele>2142.5</ele>
        <time>2024-07-09T10:35:55Z</time>
      </trkpt>
      <trkpt lat="45.07312" lon="6.12699">
        <ele>2142.3</ele>
        <time>2024-07-09T10:35:56Z</time>
      </trkpt>
      <trkpt lat="45.07312" lon="6.12698">
        <ele>2142.1</ele>
        <time>2024-07-09T10:35:57Z</time>
      </trkpt>
      <trkpt lat="45.07313" lon="6.12698">
        <ele>2141.9</ele>
        <time>2024-07-09T10:35:58Z</time>
      </trkpt>
      <trkpt lat="45.07313" lon="6.12697">
        <ele>2141.7</ele>
        <time>2024-07-09T10:35:59Z</time>
      </trkpt>
      <trkpt lat="45.07313" lon="6.12697">
        <ele>2141.6</ele>
        <time>2024-07-09T10:36:01Z</time>
      </trkpt>
      <trkpt lat="45.07314" lon="6.12696">
        <ele>2141.4</ele>
        <time>2024-07-09T10:36:02Z</time>
      </trkpt>
      <trkpt lat="45.07314" lon="6.12696">
        <ele>2141.2</ele>
        <time>2024-07-09T10:36:04Z</time>
      </trkpt>
      <trkpt lat="45.07315" lon="6.12695">
        <ele>2141</ele>
        <time>2024-07-09T10:36:05Z</time>
      </trkpt>
      <trkpt lat="45.07315" lon="6.12695">
        <ele>2140.9</ele>
        <time>2024-07-09T10:36:07Z</time>
      </trkpt>
      <trkpt lat="45.07315" lon="6.12694">
        <ele>2140.7</ele>
        <time>2024-07-09T10:36:09Z</time>
      </trkpt>
      <trkpt lat="45.07316" lon="6.12694">
        <ele>2140.5</ele>
        <time>2024-07-09T10:36:10Z</time>
      </trkpt>
      <trkpt lat="45.07315" lon="6.12693">
        <ele>2140.4</ele>
        <time>2024-07-09T10:36:11Z</time>
      </trkpt>
      <trkpt lat="45.07315" lon="6.12691">
        <ele>2140</ele>
        <time>2024-07-09T10:36:13Z</time>
      </trkpt>
      <trkpt lat="45.07315" lon="6.12691">
        <ele>2139.8</ele>
        <time>2024-07-09T10:36:14Z</time>
      </trkpt>
      <trkpt lat="45.07316" lon="6.12689">
        <ele>2139.5</ele>
        <time>2024-07-09T10:36:15Z</time>
      </trkpt>
      <trkpt lat="45.07316" lon="6.12689">
        <ele>2139.3</ele>
        <time>2024-07-09T10:36:16Z</time>
      </trkpt>
      <trkpt lat="45.07316" lon="6.12689">
        <ele>2139.3</ele>
        <time>2024-07-09T10:36:17Z</time>
      </trkpt>
      <trkpt lat="45.07316" lon="6.12687">
        <ele>2138.9</ele>
        <time>2024-07-09T10:36:19Z</time>
      </trkpt>
      <trkpt lat="45.07317" lon="6.12686">
        <ele>2138.5</ele>
        <time>2024-07-09T10:36:20Z</time>
      </trkpt>
      <trkpt lat="45.07317" lon="6.12685">
        <ele>2138.2</ele>
        <time>2024-07-09T10:36:21Z</time>
      </trkpt>
      <trkpt lat="45.07318" lon="6.12683">
        <ele>2137.8</ele>
        <time>2024-07-09T10:36:22Z</time>
      </trkpt>
      <trkpt lat="45.07318" lon="6.12683">
        <ele>2137.7</ele>
        <time>2024-07-09T10:36:24Z</time>
      </trkpt>
      <trkpt lat="45.07319" lon="6.12683">
        <ele>2137.5</ele>
        <time>2024-07-09T10:36:25Z</time>
      </trkpt>
      <trkpt lat="45.07319" lon="6.12682">
        <ele>2137</ele>
        <time>2024-07-09T10:36:26Z</time>
      </trkpt>
      <trkpt lat="45.0732" lon="6.12679">
        <ele>2136.4</ele>
        <time>2024-07-09T10:36:28Z</time>
      </trkpt>
      <trkpt lat="45.0732" lon="6.12678">
        <ele>2136.1</ele>
        <time>2024-07-09T10:36:29Z</time>
      </trkpt>
      <trkpt lat="45.07321" lon="6.12677">
        <ele>2135.8</ele>
        <time>2024-07-09T10:36:31Z</time>
      </trkpt>
      <trkpt lat="45.0732" lon="6.12675">
        <ele>2135.3</ele>
        <time>2024-07-09T10:36:32Z</time>
      </trkpt>
      <trkpt lat="45.0732" lon="6.12674">
        <ele>2135.1</ele>
        <time>2024-07-09T10:36:33Z</time>
      </trkpt>
      <trkpt lat="45.0732" lon="6.12673">
        <ele>2134.9</ele>
        <time>2024-07-09T10:36:34Z</time>
      </trkpt>
      <trkpt lat="45.0732" lon="6.12673">
        <ele>2134.8</ele>
        <time>2024-07-09T10:36:35Z</time>
      </trkpt>
      <trkpt lat="45.07321" lon="6.12671">
        <ele>2134.3</ele>
        <time>2024-07-09T10:36:37Z</time>
      </trkpt>
      <trkpt lat="45.07321" lon="6.1267">
        <ele>2133.9</ele>
        <time>2024-07-09T10:36:38Z</time>
      </trkpt>
      <trkpt lat="45.07321" lon="6.12668">
        <ele>2133.6</ele>
        <time>2024-07-09T10:36:39Z</time>
      </trkpt>
      <trkpt lat="45.07321" lon="6.12669">
        <ele>2133.4</ele>
        <time>2024-07-09T10:36:41Z</time>
      </trkpt>
      <trkpt lat="45.07321" lon="6.1267">
        <ele>2133</ele>
        <time>2024-07-09T10:36:43Z</time>
      </trkpt>
      <trkpt lat="45.07321" lon="6.1267">
        <ele>2132.8</ele>
        <time>2024-07-09T10:36:44Z</time>
      </trkpt>
      <trkpt lat="45.07321" lon="6.12668">
        <ele>2132.5</ele>
        <time>2024-07-09T10:36:45Z</time>
      </trkpt>
      <trkpt lat="45.07321" lon="6.12668">
        <ele>2132.3</ele>
        <time>2024-07-09T10:36:46Z</time>
      </trkpt>
      <trkpt lat="45.0732" lon="6.12666">
        <ele>2132</ele>
        <time>2024-07-09T10:36:47Z</time>
      </trkpt>
      <trkpt lat="45.0732" lon="6.12665">
        <ele>2131.6</ele>
        <time>2024-07-09T10:36:48Z</time>
      </trkpt>
      <trkpt lat="45.07318" lon="6.12663">
        <ele>2130.9</ele>
        <time>2024-07-09T10:36:49Z</time>
      </trkpt>
      <trkpt lat="45.07317" lon="6.12662">
        <ele>2130.6</ele>
        <time>2024-07-09T10:36:51Z</time>
      </trkpt>
      <trkpt lat="45.07317" lon="6.12661">
        <ele>2130.2</ele>
        <time>2024-07-09T10:36:52Z</time>
      </trkpt>
      <trkpt lat="45.07315" lon="6.12661">
        <ele>2129.8</ele>
        <time>2024-07-09T10:36:53Z</time>
      </trkpt>
      <trkpt lat="45.07315" lon="6.12659">
        <ele>2129.5</ele>
        <time>2024-07-09T10:36:54Z</time>
      </trkpt>
      <trkpt lat="45.07315" lon="6.12658">
        <ele>2129.1</ele>
        <time>2024-07-09T10:36:55Z</time>
      </trkpt>
      <trkpt lat="45.07315" lon="6.12657">
        <ele>2128.9</ele>
        <time>2024-07-09T10:36:56Z</time>
      </trkpt>
      <trkpt lat="45.07315" lon="6.12656">
        <ele>2128.7</ele>
        <time>2024-07-09T10:36:57Z</time>
      </trkpt>
      <trkpt lat="45.07315" lon="6.12655">
        <ele>2128.4</ele>
        <time>2024-07-09T10:36:58Z</time>
      </trkpt>
      <trkpt lat="45.07315" lon="6.12654">
        <ele>2128.2</ele>
        <time>2024-07-09T10:36:59Z</time>
      </trkpt>
      <trkpt lat="45.07316" lon="6.12653">
        <ele>2127.9</ele>
        <time>2024-07-09T10:37:00Z</time>
      </trkpt>
      <trkpt lat="45.07316" lon="6.12652">
        <ele>2127.6</ele>
        <time>2024-07-09T10:37:01Z</time>
      </trkpt>
      <trkpt lat="45.07316" lon="6.1265">
        <ele>2127.2</ele>
        <time>2024-07-09T10:37:02Z</time>
      </trkpt>
      <trkpt lat="45.07316" lon="6.1265">
        <ele>2127.1</ele>
        <time>2024-07-09T10:37:03Z</time>
      </trkpt>
      <trkpt lat="45.07316" lon="6.12648">
        <ele>2126.7</ele>
        <time>2024-07-09T10:37:04Z</time>
      </trkpt>
      <trkpt lat="45.07316" lon="6.12648">
        <ele>2126.5</ele>
        <time>2024-07-09T10:37:05Z</time>
      </trkpt>
      <trkpt lat="45.07316" lon="6.12647">
        <ele>2126.3</ele>
        <time>2024-07-09T10:37:06Z</time>
      </trkpt>
      <trkpt lat="45.07316" lon="6.12646">
        <ele>2126.1</ele>
        <time>2024-07-09T10:37:07Z</time>
      </trkpt>
      <trkpt lat="45.07316" lon="6.12645">
        <ele>2125.8</ele>
        <time>2024-07-09T10:37:08Z</time>
      </trkpt>
      <trkpt lat="45.07316" lon="6.12644">
        <ele>2125.6</ele>
        <time>2024-07-09T10:37:09Z</time>
      </trkpt>
      <trkpt lat="45.07316" lon="6.12643">
        <ele>2125.3</ele>
        <time>2024-07-09T10:37:10Z</time>
      </trkpt>
      <trkpt lat="45.07316" lon="6.12643">
        <ele>2125.2</ele>
        <time>2024-07-09T10:37:11Z</time>
      </trkpt>
      <trkpt lat="45.07316" lon="6.12642">
        <ele>2124.9</ele>
        <time>2024-07-09T10:37:12Z</time>
      </trkpt>
      <trkpt lat="45.07315" lon="6.12642">
        <ele>2124.6</ele>
        <time>2024-07-09T10:37:13Z</time>
      </trkpt>
      <trkpt lat="45.07314" lon="6.12642">
        <ele>2124.3</ele>
        <time>2024-07-09T10:37:14Z</time>
      </trkpt>
      <trkpt lat="45.07313" lon="6.12641">
        <ele>2124</ele>
        <time>2024-07-09T10:37:15Z</time>
      </trkpt>
      <trkpt lat="45.07312" lon="6.12641">
        <ele>2123.7</ele>
        <time>2024-07-09T10:37:16Z</time>
      </trkpt>
      <trkpt lat="45.07311" lon="6.1264">
        <ele>2123.2</ele>
        <time>2024-07-09T10:37:17Z</time>
      </trkpt>
      <trkpt lat="45.07311" lon="6.1264">
        <ele>2123</ele>
        <time>2024-07-09T10:37:18Z</time>
      </trkpt>
      <trkpt lat="45.07313" lon="6.12638">
        <ele>2122.6</ele>
        <time>2024-07-09T10:37:19Z</time>
      </trkpt>
      <trkpt lat="45.07312" lon="6.12638">
        <ele>2122.4</ele>
        <time>2024-07-09T10:37:20Z</time>
      </trkpt>
      <trkpt lat="45.07313" lon="6.12637">
        <ele>2122.1</ele>
        <time>2024-07-09T10:37:21Z</time>
      </trkpt>
      <trkpt lat="45.07314" lon="6.12635">
        <ele>2121.7</ele>
        <time>2024-07-09T10:37:22Z</time>
      </trkpt>
      <trkpt lat="45.07314" lon="6.12634">
        <ele>2121.3</ele>
        <time>2024-07-09T10:37:23Z</time>
      </trkpt>
      <trkpt lat="45.07315" lon="6.12632">
        <ele>2120.9</ele>
        <time>2024-07-09T10:37:24Z</time>
      </trkpt>
      <trkpt lat="45.07314" lon="6.12631">
        <ele>2120.5</ele>
        <time>2024-07-09T10:37:25Z</time>
      </trkpt>
      <trkpt lat="45.07315" lon="6.12629">
        <ele>2120.2</ele>
        <time>2024-07-09T10:37:26Z</time>
      </trkpt>
      <trkpt lat="45.07315" lon="6.12627">
        <ele>2119.9</ele>
        <time>2024-07-09T10:37:27Z</time>
      </trkpt>
      <trkpt lat="45.07314" lon="6.12626">
        <ele>2119.6</ele>
        <time>2024-07-09T10:37:28Z</time>
      </trkpt>
      <trkpt lat="45.07314" lon="6.12625">
        <ele>2119.4</ele>
        <time>2024-07-09T10:37:29Z</time>
      </trkpt>
      <trkpt lat="45.07314" lon="6.12624">
        <ele>2119.2</ele>
        <time>2024-07-09T10:37:31Z</time>
      </trkpt>
      <trkpt lat="45.07314" lon="6.12621">
        <ele>2118.5</ele>
        <time>2024-07-09T10:37:32Z</time>
      </trkpt>
      <trkpt lat="45.07314" lon="6.1262">
        <ele>2118.3</ele>
        <time>2024-07-09T10:37:33Z</time>
      </trkpt>
      <trkpt lat="45.07314" lon="6.12619">
        <ele>2118.1</ele>
        <time>2024-07-09T10:37:34Z</time>
      </trkpt>
      <trkpt lat="45.07314" lon="6.12617">
        <ele>2117.7</ele>
        <time>2024-07-09T10:37:35Z</time>
      </trkpt>
      <trkpt lat="45.07315" lon="6.12617">
        <ele>2117.5</ele>
        <time>2024-07-09T10:37:36Z</time>
      </trkpt>
      <trkpt lat="45.07315" lon="6.12615">
        <ele>2117.2</ele>
        <time>2024-07-09T10:37:37Z</time>
      </trkpt>
      <trkpt lat="45.07315" lon="6.12614">
        <ele>2117</ele>
        <time>2024-07-09T10:37:38Z</time>
      </trkpt>
      <trkpt lat="45.07315" lon="6.12613">
        <ele>2116.6</ele>
        <time>2024-07-09T10:37:39Z</time>
      </trkpt>
      <trkpt lat="45.07316" lon="6.12611">
        <ele>2116.2</ele>
        <time>2024-07-09T10:37:40Z</time>
      </trkpt>
      <trkpt lat="45.07315" lon="6.12609">
        <ele>2116</ele>
        <time>2024-07-09T10:37:41Z</time>
      </trkpt>
      <trkpt lat="45.07314" lon="6.12608">
        <ele>2115.3</ele>
        <time>2024-07-09T10:37:43Z</time>
      </trkpt>
      <trkpt lat="45.07313" lon="6.12606">
        <ele>2114.9</ele>
        <time>2024-07-09T10:37:44Z</time>
      </trkpt>
      <trkpt lat="45.07313" lon="6.12604">
        <ele>2114.6</ele>
        <time>2024-07-09T10:37:45Z</time>
      </trkpt>
      <trkpt lat="45.07315" lon="6.12603">
        <ele>2114</ele>
        <time>2024-07-09T10:37:47Z</time>
      </trkpt>
      <trkpt lat="45.07315" lon="6.12602">
        <ele>2113.8</ele>
        <time>2024-07-09T10:37:48Z</time>
      </trkpt>
      <trkpt lat="45.07316" lon="6.12601">
        <ele>2113.5</ele>
        <time>2024-07-09T10:37:49Z</time>
      </trkpt>
      <trkpt lat="45.07316" lon="6.12598">
        <ele>2113</ele>
        <time>2024-07-09T10:37:51Z</time>
      </trkpt>
      <trkpt lat="45.07315" lon="6.12599">
        <ele>2112.8</ele>
        <time>2024-07-09T10:37:52Z</time>
      </trkpt>
      <trkpt lat="45.07315" lon="6.12598">
        <ele>2112.6</ele>
        <time>2024-07-09T10:37:53Z</time>
      </trkpt>
      <trkpt lat="45.07314" lon="6.12595">
        <ele>2111.9</ele>
        <time>2024-07-09T10:37:54Z</time>
      </trkpt>
      <trkpt lat="45.07314" lon="6.12593">
        <ele>2111.5</ele>
        <time>2024-07-09T10:37:55Z</time>
      </trkpt>
      <trkpt lat="45.07315" lon="6.1259">
        <ele>2110.8</ele>
        <time>2024-07-09T10:37:56Z</time>
      </trkpt>
      <trkpt lat="45.07315" lon="6.12589">
        <ele>2110.6</ele>
        <time>2024-07-09T10:37:57Z</time>
      </trkpt>
      <trkpt lat="45.07316" lon="6.12588">
        <ele>2110.3</ele>
        <time>2024-07-09T10:37:58Z</time>
      </trkpt>
      <trkpt lat="45.07316" lon="6.12588">
        <ele>2110.1</ele>
        <time>2024-07-09T10:37:59Z</time>
      </trkpt>
      <trkpt lat="45.07317" lon="6.12586">
        <ele>2109.7</ele>
        <time>2024-07-09T10:38:00Z</time>
      </trkpt>
      <trkpt lat="45.07316" lon="6.12585">
        <ele>2109.3</ele>
        <time>2024-07-09T10:38:01Z</time>
      </trkpt>
      <trkpt lat="45.07315" lon="6.12583">
        <ele>2108.8</ele>
        <time>2024-07-09T10:38:03Z</time>
      </trkpt>
      <trkpt lat="45.07314" lon="6.12581">
        <ele>2108.1</ele>
        <time>2024-07-09T10:38:05Z</time>
      </trkpt>
      <trkpt lat="45.07313" lon="6.1258">
        <ele>2107.8</ele>
        <time>2024-07-09T10:38:06Z</time>
      </trkpt>
      <trkpt lat="45.07313" lon="6.12577">
        <ele>2107</ele>
        <time>2024-07-09T10:38:08Z</time>
      </trkpt>
      <trkpt lat="45.07312" lon="6.12576">
        <ele>2106.8</ele>
        <time>2024-07-09T10:38:09Z</time>
      </trkpt>
      <trkpt lat="45.07312" lon="6.12575">
        <ele>2106.5</ele>
        <time>2024-07-09T10:38:10Z</time>
      </trkpt>
      <trkpt lat="45.07312" lon="6.12573">
        <ele>2106.1</ele>
        <time>2024-07-09T10:38:11Z</time>
      </trkpt>
      <trkpt lat="45.07313" lon="6.1257">
        <ele>2105.4</ele>
        <time>2024-07-09T10:38:13Z</time>
      </trkpt>
      <trkpt lat="45.07313" lon="6.1257">
        <ele>2105.2</ele>
        <time>2024-07-09T10:38:14Z</time>
      </trkpt>
      <trkpt lat="45.07313" lon="6.12569">
        <ele>2104.9</ele>
        <time>2024-07-09T10:38:15Z</time>
      </trkpt>
      <trkpt lat="45.07313" lon="6.12567">
        <ele>2104.5</ele>
        <time>2024-07-09T10:38:16Z</time>
      </trkpt>
      <trkpt lat="45.07313" lon="6.12565">
        <ele>2103.9</ele>
        <time>2024-07-09T10:38:17Z</time>
      </trkpt>
      <trkpt lat="45.07313" lon="6.12565">
        <ele>2103.8</ele>
        <time>2024-07-09T10:38:18Z</time>
      </trkpt>
      <trkpt lat="45.07313" lon="6.12564">
        <ele>2103.6</ele>
        <time>2024-07-09T10:38:19Z</time>
      </trkpt>
      <trkpt lat="45.07314" lon="6.12563">
        <ele>2103.3</ele>
        <time>2024-07-09T10:38:20Z</time>
      </trkpt>
      <trkpt lat="45.07314" lon="6.12563">
        <ele>2103</ele>
        <time>2024-07-09T10:38:21Z</time>
      </trkpt>
      <trkpt lat="45.07315" lon="6.12563">
        <ele>2102.9</ele>
        <time>2024-07-09T10:38:22Z</time>
      </trkpt>
      <trkpt lat="45.07315" lon="6.12561">
        <ele>2102.4</ele>
        <time>2024-07-09T10:38:24Z</time>
      </trkpt>
      <trkpt lat="45.07315" lon="6.12559">
        <ele>2102.1</ele>
        <time>2024-07-09T10:38:25Z</time>
      </trkpt>
      <trkpt lat="45.07315" lon="6.12558">
        <ele>2101.7</ele>
        <time>2024-07-09T10:38:26Z</time>
      </trkpt>
      <trkpt lat="45.07315" lon="6.12556">
        <ele>2101.1</ele>
        <time>2024-07-09T10:38:27Z</time>
      </trkpt>
      <trkpt lat="45.07315" lon="6.12555">
        <ele>2100.9</ele>
        <time>2024-07-09T10:38:28Z</time>
      </trkpt>
      <trkpt lat="45.07315" lon="6.12553">
        <ele>2100.5</ele>
        <time>2024-07-09T10:38:29Z</time>
      </trkpt>
      <trkpt lat="45.07316" lon="6.12551">
        <ele>2100</ele>
        <time>2024-07-09T10:38:30Z</time>
      </trkpt>
      <trkpt lat="45.07316" lon="6.1255">
        <ele>2099.7</ele>
        <time>2024-07-09T10:38:31Z</time>
      </trkpt>
      <trkpt lat="45.07316" lon="6.1255">
        <ele>2099.5</ele>
        <time>2024-07-09T10:38:33Z</time>
      </trkpt>
      <trkpt lat="45.07317" lon="6.12549">
        <ele>2099.2</ele>
        <time>2024-07-09T10:38:34Z</time>
      </trkpt>
      <trkpt lat="45.07317" lon="6.12547">
        <ele>2098.8</ele>
        <time>2024-07-09T10:38:35Z</time>
      </trkpt>
      <trkpt lat="45.07317" lon="6.12546">
        <ele>2098.6</ele>
        <time>2024-07-09T10:38:36Z</time>
      </trkpt>
      <trkpt lat="45.07318" lon="6.12545">
        <ele>2098.4</ele>
        <time>2024-07-09T10:38:37Z</time>
      </trkpt>
      <trkpt lat="45.07318" lon="6.12545">
        <ele>2098.1</ele>
        <time>2024-07-09T10:38:38Z</time>
      </trkpt>
      <trkpt lat="45.07318" lon="6.12544">
        <ele>2097.9</ele>
        <time>2024-07-09T10:38:39Z</time>
      </trkpt>
      <trkpt lat="45.0732" lon="6.12542">
        <ele>2097.3</ele>
        <time>2024-07-09T10:38:41Z</time>
      </trkpt>
      <trkpt lat="45.07321" lon="6.12542">
        <ele>2097</ele>
        <time>2024-07-09T10:38:42Z</time>
      </trkpt>
      <trkpt lat="45.07321" lon="6.12542">
        <ele>2096.8</ele>
        <time>2024-07-09T10:38:43Z</time>
      </trkpt>
      <trkpt lat="45.07321" lon="6.12541">
        <ele>2096.6</ele>
        <time>2024-07-09T10:38:44Z</time>
      </trkpt>
      <trkpt lat="45.07322" lon="6.1254">
        <ele>2096.3</ele>
        <time>2024-07-09T10:38:45Z</time>
      </trkpt>
      <trkpt lat="45.07323" lon="6.12539">
        <ele>2095.9</ele>
        <time>2024-07-09T10:38:46Z</time>
      </trkpt>
      <trkpt lat="45.07321" lon="6.12538">
        <ele>2095.4</ele>
        <time>2024-07-09T10:38:48Z</time>
      </trkpt>
      <trkpt lat="45.07321" lon="6.12537">
        <ele>2095.2</ele>
        <time>2024-07-09T10:38:49Z</time>
      </trkpt>
      <trkpt lat="45.07322" lon="6.12536">
        <ele>2095</ele>
        <time>2024-07-09T10:38:51Z</time>
      </trkpt>
      <trkpt lat="45.07322" lon="6.12535">
        <ele>2094.6</ele>
        <time>2024-07-09T10:38:52Z</time>
      </trkpt>
      <trkpt lat="45.07322" lon="6.12534">
        <ele>2094.4</ele>
        <time>2024-07-09T10:38:53Z</time>
      </trkpt>
      <trkpt lat="45.07323" lon="6.12533">
        <ele>2094.2</ele>
        <time>2024-07-09T10:38:54Z</time>
      </trkpt>
      <trkpt lat="45.07323" lon="6.12532">
        <ele>2093.9</ele>
        <time>2024-07-09T10:38:55Z</time>
      </trkpt>
      <trkpt lat="45.07323" lon="6.1253">
        <ele>2093.6</ele>
        <time>2024-07-09T10:38:56Z</time>
      </trkpt>
      <trkpt lat="45.07322" lon="6.12529">
        <ele>2093.4</ele>
        <time>2024-07-09T10:38:57Z</time>
      </trkpt>
      <trkpt lat="45.07322" lon="6.12528">
        <ele>2093.2</ele>
        <time>2024-07-09T10:38:58Z</time>
      </trkpt>
      <trkpt lat="45.07323" lon="6.12527">
        <ele>2092.9</ele>
        <time>2024-07-09T10:38:59Z</time>
      </trkpt>
      <trkpt lat="45.07324" lon="6.12527">
        <ele>2092.6</ele>
        <time>2024-07-09T10:39:01Z</time>
      </trkpt>
      <trkpt lat="45.07325" lon="6.12527">
        <ele>2092.3</ele>
        <time>2024-07-09T10:39:02Z</time>
      </trkpt>
      <trkpt lat="45.07325" lon="6.12526">
        <ele>2092.2</ele>
        <time>2024-07-09T10:39:03Z</time>
      </trkpt>
      <trkpt lat="45.07326" lon="6.12525">
        <ele>2091.8</ele>
        <time>2024-07-09T10:39:04Z</time>
      </trkpt>
      <trkpt lat="45.07327" lon="6.12524">
        <ele>2091.7</ele>
        <time>2024-07-09T10:39:05Z</time>
      </trkpt>
      <trkpt lat="45.07327" lon="6.12523">
        <ele>2091.4</ele>
        <time>2024-07-09T10:39:06Z</time>
      </trkpt>
      <trkpt lat="45.07328" lon="6.12522">
        <ele>2091.1</ele>
        <time>2024-07-09T10:39:07Z</time>
      </trkpt>
      <trkpt lat="45.07328" lon="6.12521">
        <ele>2090.8</ele>
        <time>2024-07-09T10:39:08Z</time>
      </trkpt>
      <trkpt lat="45.07329" lon="6.12519">
        <ele>2090.3</ele>
        <time>2024-07-09T10:39:10Z</time>
      </trkpt>
      <trkpt lat="45.0733" lon="6.12517">
        <ele>2089.8</ele>
        <time>2024-07-09T10:39:11Z</time>
      </trkpt>
      <trkpt lat="45.07331" lon="6.12516">
        <ele>2089.4</ele>
        <time>2024-07-09T10:39:12Z</time>
      </trkpt>
      <trkpt lat="45.07332" lon="6.12514">
        <ele>2088.7</ele>
        <time>2024-07-09T10:39:14Z</time>
      </trkpt>
      <trkpt lat="45.07333" lon="6.12513">
        <ele>2088.4</ele>
        <time>2024-07-09T10:39:15Z</time>
      </trkpt>
      <trkpt lat="45.07334" lon="6.12512">
        <ele>2088.1</ele>
        <time>2024-07-09T10:39:16Z</time>
      </trkpt>
      <trkpt lat="45.07335" lon="6.12511">
        <ele>2087.8</ele>
        <time>2024-07-09T10:39:17Z</time>
      </trkpt>
      <trkpt lat="45.07336" lon="6.1251">
        <ele>2087.5</ele>
        <time>2024-07-09T10:39:18Z</time>
      </trkpt>
      <trkpt lat="45.07336" lon="6.1251">
        <ele>2087.2</ele>
        <time>2024-07-09T10:39:19Z</time>
      </trkpt>
      <trkpt lat="45.07337" lon="6.12509">
        <ele>2086.9</ele>
        <time>2024-07-09T10:39:20Z</time>
      </trkpt>
      <trkpt lat="45.07338" lon="6.12508">
        <ele>2086.5</ele>
        <time>2024-07-09T10:39:21Z</time>
      </trkpt>
      <trkpt lat="45.07341" lon="6.12506">
        <ele>2085.5</ele>
        <time>2024-07-09T10:39:23Z</time>
      </trkpt>
      <trkpt lat="45.07342" lon="6.12506">
        <ele>2085.1</ele>
        <time>2024-07-09T10:39:25Z</time>
      </trkpt>
      <trkpt lat="45.07343" lon="6.12506">
        <ele>2084.8</ele>
        <time>2024-07-09T10:39:26Z</time>
      </trkpt>
      <trkpt lat="45.07344" lon="6.12505">
        <ele>2084.4</ele>
        <time>2024-07-09T10:39:27Z</time>
      </trkpt>
      <trkpt lat="45.07345" lon="6.12505">
        <ele>2084</ele>
        <time>2024-07-09T10:39:28Z</time>
      </trkpt>
      <trkpt lat="45.07346" lon="6.12503">
        <ele>2083.5</ele>
        <time>2024-07-09T10:39:30Z</time>
      </trkpt>
      <trkpt lat="45.07347" lon="6.12502">
        <ele>2083.2</ele>
        <time>2024-07-09T10:39:31Z</time>
      </trkpt>
      <trkpt lat="45.07348" lon="6.12501">
        <ele>2082.7</ele>
        <time>2024-07-09T10:39:32Z</time>
      </trkpt>
      <trkpt lat="45.07349" lon="6.12501">
        <ele>2082.4</ele>
        <time>2024-07-09T10:39:33Z</time>
      </trkpt>
      <trkpt lat="45.0735" lon="6.12501">
        <ele>2082.1</ele>
        <time>2024-07-09T10:39:34Z</time>
      </trkpt>
      <trkpt lat="45.07351" lon="6.12501">
        <ele>2081.8</ele>
        <time>2024-07-09T10:39:35Z</time>
      </trkpt>
      <trkpt lat="45.07352" lon="6.12501">
        <ele>2081.3</ele>
        <time>2024-07-09T10:39:36Z</time>
      </trkpt>
      <trkpt lat="45.07353" lon="6.12501">
        <ele>2080.9</ele>
        <time>2024-07-09T10:39:38Z</time>
      </trkpt>
      <trkpt lat="45.07354" lon="6.12501">
        <ele>2080.7</ele>
        <time>2024-07-09T10:39:39Z</time>
      </trkpt>
      <trkpt lat="45.07355" lon="6.125">
        <ele>2080.2</ele>
        <time>2024-07-09T10:39:40Z</time>
      </trkpt>
      <trkpt lat="45.07356" lon="6.125">
        <ele>2080</ele>
        <time>2024-07-09T10:39:41Z</time>
      </trkpt>
      <trkpt lat="45.07356" lon="6.125">
        <ele>2079.8</ele>
        <time>2024-07-09T10:39:42Z</time>
      </trkpt>
      <trkpt lat="45.07357" lon="6.125">
        <ele>2079.5</ele>
        <time>2024-07-09T10:39:43Z</time>
      </trkpt>
      <trkpt lat="45.07358" lon="6.12499">
        <ele>2079.2</ele>
        <time>2024-07-09T10:39:44Z</time>
      </trkpt>
      <trkpt lat="45.07359" lon="6.12498">
        <ele>2078.8</ele>
        <time>2024-07-09T10:39:45Z</time>
      </trkpt>
      <trkpt lat="45.0736" lon="6.12498">
        <ele>2078.4</ele>
        <time>2024-07-09T10:39:46Z</time>
      </trkpt>
      <trkpt lat="45.0736" lon="6.12497">
        <ele>2078.2</ele>
        <time>2024-07-09T10:39:47Z</time>
      </trkpt>
      <trkpt lat="45.07363" lon="6.12496">
        <ele>2077.5</ele>
        <time>2024-07-09T10:39:48Z</time>
      </trkpt>
      <trkpt lat="45.07364" lon="6.12496">
        <ele>2077.2</ele>
        <time>2024-07-09T10:39:50Z</time>
      </trkpt>
      <trkpt lat="45.07364" lon="6.12496">
        <ele>2076.8</ele>
        <time>2024-07-09T10:39:51Z</time>
      </trkpt>
      <trkpt lat="45.07365" lon="6.12496">
        <ele>2076.6</ele>
        <time>2024-07-09T10:39:52Z</time>
      </trkpt>
      <trkpt lat="45.07367" lon="6.12496">
        <ele>2076</ele>
        <time>2024-07-09T10:39:53Z</time>
      </trkpt>
      <trkpt lat="45.07368" lon="6.12496">
        <ele>2075.8</ele>
        <time>2024-07-09T10:39:55Z</time>
      </trkpt>
      <trkpt lat="45.0737" lon="6.12496">
        <ele>2075.1</ele>
        <time>2024-07-09T10:39:56Z</time>
      </trkpt>
      <trkpt lat="45.07372" lon="6.12497">
        <ele>2074.6</ele>
        <time>2024-07-09T10:39:57Z</time>
      </trkpt>
      <trkpt lat="45.07372" lon="6.12497">
        <ele>2074.4</ele>
        <time>2024-07-09T10:39:58Z</time>
      </trkpt>
      <trkpt lat="45.07373" lon="6.12497">
        <ele>2074.1</ele>
        <time>2024-07-09T10:39:59Z</time>
      </trkpt>
      <trkpt lat="45.07374" lon="6.12497">
        <ele>2074</ele>
        <time>2024-07-09T10:40:00Z</time>
      </trkpt>
      <trkpt lat="45.07375" lon="6.12497">
        <ele>2073.6</ele>
        <time>2024-07-09T10:40:01Z</time>
      </trkpt>
      <trkpt lat="45.07376" lon="6.12498">
        <ele>2073.3</ele>
        <time>2024-07-09T10:40:02Z</time>
      </trkpt>
      <trkpt lat="45.07377" lon="6.12499">
        <ele>2073</ele>
        <time>2024-07-09T10:40:03Z</time>
      </trkpt>
      <trkpt lat="45.07378" lon="6.12499">
        <ele>2072.6</ele>
        <time>2024-07-09T10:40:05Z</time>
      </trkpt>
      <trkpt lat="45.0738" lon="6.12497">
        <ele>2072</ele>
        <time>2024-07-09T10:40:06Z</time>
      </trkpt>
      <trkpt lat="45.07381" lon="6.12497">
        <ele>2071.6</ele>
        <time>2024-07-09T10:40:07Z</time>
      </trkpt>
      <trkpt lat="45.07383" lon="6.12497">
        <ele>2071.1</ele>
        <time>2024-07-09T10:40:08Z</time>
      </trkpt>
      <trkpt lat="45.07384" lon="6.12497">
        <ele>2070.8</ele>
        <time>2024-07-09T10:40:10Z</time>
      </trkpt>
      <trkpt lat="45.07386" lon="6.12497">
        <ele>2070.3</ele>
        <time>2024-07-09T10:40:11Z</time>
      </trkpt>
      <trkpt lat="45.07387" lon="6.12497">
        <ele>2070</ele>
        <time>2024-07-09T10:40:12Z</time>
      </trkpt>
      <trkpt lat="45.07388" lon="6.12496">
        <ele>2069.7</ele>
        <time>2024-07-09T10:40:14Z</time>
      </trkpt>
      <trkpt lat="45.07388" lon="6.12494">
        <ele>2069.3</ele>
        <time>2024-07-09T10:40:15Z</time>
      </trkpt>
      <trkpt lat="45.07389" lon="6.12494">
        <ele>2069.1</ele>
        <time>2024-07-09T10:40:16Z</time>
      </trkpt>
      <trkpt lat="45.0739" lon="6.12493">
        <ele>2068.8</ele>
        <time>2024-07-09T10:40:17Z</time>
      </trkpt>
      <trkpt lat="45.07392" lon="6.12493">
        <ele>2068.1</ele>
        <time>2024-07-09T10:40:18Z</time>
      </trkpt>
      <trkpt lat="45.07393" lon="6.12494">
        <ele>2067.8</ele>
        <time>2024-07-09T10:40:19Z</time>
      </trkpt>
      <trkpt lat="45.07394" lon="6.12495">
        <ele>2067.5</ele>
        <time>2024-07-09T10:40:21Z</time>
      </trkpt>
      <trkpt lat="45.07396" lon="6.12495">
        <ele>2066.9</ele>
        <time>2024-07-09T10:40:22Z</time>
      </trkpt>
      <trkpt lat="45.07397" lon="6.12494">
        <ele>2066.6</ele>
        <time>2024-07-09T10:40:23Z</time>
      </trkpt>
      <trkpt lat="45.07399" lon="6.12495">
        <ele>2065.9</ele>
        <time>2024-07-09T10:40:24Z</time>
      </trkpt>
      <trkpt lat="45.074" lon="6.12495">
        <ele>2065.5</ele>
        <time>2024-07-09T10:40:26Z</time>
      </trkpt>
      <trkpt lat="45.07401" lon="6.12496">
        <ele>2065.1</ele>
        <time>2024-07-09T10:40:27Z</time>
      </trkpt>
      <trkpt lat="45.07402" lon="6.12496">
        <ele>2064.8</ele>
        <time>2024-07-09T10:40:28Z</time>
      </trkpt>
      <trkpt lat="45.07403" lon="6.12496">
        <ele>2064.5</ele>
        <time>2024-07-09T10:40:29Z</time>
      </trkpt>
      <trkpt lat="45.07404" lon="6.12496">
        <ele>2064.2</ele>
        <time>2024-07-09T10:40:31Z</time>
      </trkpt>
      <trkpt lat="45.07406" lon="6.12496">
        <ele>2063.6</ele>
        <time>2024-07-09T10:40:32Z</time>
      </trkpt>
      <trkpt lat="45.07407" lon="6.12495">
        <ele>2063.3</ele>
        <time>2024-07-09T10:40:33Z</time>
      </trkpt>
      <trkpt lat="45.07408" lon="6.12495">
        <ele>2062.9</ele>
        <time>2024-07-09T10:40:34Z</time>
      </trkpt>
      <trkpt lat="45.0741" lon="6.12495">
        <ele>2062.3</ele>
        <time>2024-07-09T10:40:36Z</time>
      </trkpt>
      <trkpt lat="45.07411" lon="6.12495">
        <ele>2062.1</ele>
        <time>2024-07-09T10:40:38Z</time>
      </trkpt>
      <trkpt lat="45.07413" lon="6.12495">
        <ele>2061.5</ele>
        <time>2024-07-09T10:40:39Z</time>
      </trkpt>
      <trkpt lat="45.07414" lon="6.12496">
        <ele>2061.1</ele>
        <time>2024-07-09T10:40:41Z</time>
      </trkpt>
      <trkpt lat="45.07414" lon="6.12498">
        <ele>2060.7</ele>
        <time>2024-07-09T10:40:42Z</time>
      </trkpt>
      <trkpt lat="45.07415" lon="6.125">
        <ele>2060.3</ele>
        <time>2024-07-09T10:40:43Z</time>
      </trkpt>
      <trkpt lat="45.07416" lon="6.125">
        <ele>2060</ele>
        <time>2024-07-09T10:40:44Z</time>
      </trkpt>
      <trkpt lat="45.07416" lon="6.12501">
        <ele>2059.8</ele>
        <time>2024-07-09T10:40:45Z</time>
      </trkpt>
      <trkpt lat="45.07417" lon="6.12501">
        <ele>2059.6</ele>
        <time>2024-07-09T10:40:46Z</time>
      </trkpt>
      <trkpt lat="45.07418" lon="6.12501">
        <ele>2059.3</ele>
        <time>2024-07-09T10:40:47Z</time>
      </trkpt>
      <trkpt lat="45.07419" lon="6.12502">
        <ele>2059</ele>
        <time>2024-07-09T10:40:48Z</time>
      </trkpt>
      <trkpt lat="45.07422" lon="6.12503">
        <ele>2058.3</ele>
        <time>2024-07-09T10:40:49Z</time>
      </trkpt>
      <trkpt lat="45.07422" lon="6.12504">
        <ele>2058.1</ele>
        <time>2024-07-09T10:40:51Z</time>
      </trkpt>
      <trkpt lat="45.07423" lon="6.12504">
        <ele>2057.9</ele>
        <time>2024-07-09T10:40:52Z</time>
      </trkpt>
      <trkpt lat="45.07424" lon="6.12505">
        <ele>2057.7</ele>
        <time>2024-07-09T10:40:53Z</time>
      </trkpt>
      <trkpt lat="45.07424" lon="6.12507">
        <ele>2057.3</ele>
        <time>2024-07-09T10:40:54Z</time>
      </trkpt>
      <trkpt lat="45.07425" lon="6.12508">
        <ele>2057.1</ele>
        <time>2024-07-09T10:40:56Z</time>
      </trkpt>
      <trkpt lat="45.07427" lon="6.1251">
        <ele>2056.4</ele>
        <time>2024-07-09T10:40:57Z</time>
      </trkpt>
      <trkpt lat="45.07428" lon="6.12511">
        <ele>2056.1</ele>
        <time>2024-07-09T10:40:58Z</time>
      </trkpt>
      <trkpt lat="45.07428" lon="6.12512">
        <ele>2055.9</ele>
        <time>2024-07-09T10:40:59Z</time>
      </trkpt>
      <trkpt lat="45.07429" lon="6.12513">
        <ele>2055.5</ele>
        <time>2024-07-09T10:41:00Z</time>
      </trkpt>
      <trkpt lat="45.0743" lon="6.12514">
        <ele>2055.3</ele>
        <time>2024-07-09T10:41:01Z</time>
      </trkpt>
      <trkpt lat="45.07431" lon="6.12514">
        <ele>2055</ele>
        <time>2024-07-09T10:41:02Z</time>
      </trkpt>
      <trkpt lat="45.07431" lon="6.12514">
        <ele>2054.8</ele>
        <time>2024-07-09T10:41:03Z</time>
      </trkpt>
      <trkpt lat="45.07433" lon="6.12514">
        <ele>2054.4</ele>
        <time>2024-07-09T10:41:05Z</time>
      </trkpt>
      <trkpt lat="45.07434" lon="6.12513">
        <ele>2054</ele>
        <time>2024-07-09T10:41:06Z</time>
      </trkpt>
      <trkpt lat="45.07434" lon="6.12512">
        <ele>2053.8</ele>
        <time>2024-07-09T10:41:07Z</time>
      </trkpt>
      <trkpt lat="45.07435" lon="6.12511">
        <ele>2053.4</ele>
        <time>2024-07-09T10:41:08Z</time>
      </trkpt>
      <trkpt lat="45.07436" lon="6.12512">
        <ele>2053.2</ele>
        <time>2024-07-09T10:41:09Z</time>
      </trkpt>
      <trkpt lat="45.07437" lon="6.12512">
        <ele>2052.9</ele>
        <time>2024-07-09T10:41:11Z</time>
      </trkpt>
      <trkpt lat="45.07438" lon="6.12514">
        <ele>2052.4</ele>
        <time>2024-07-09T10:41:12Z</time>
      </trkpt>
      <trkpt lat="45.07438" lon="6.12515">
        <ele>2052</ele>
        <time>2024-07-09T10:41:13Z</time>
      </trkpt>
      <trkpt lat="45.07439" lon="6.12516">
        <ele>2051.7</ele>
        <time>2024-07-09T10:41:15Z</time>
      </trkpt>
      <trkpt lat="45.0744" lon="6.12517">
        <ele>2051.3</ele>
        <time>2024-07-09T10:41:16Z</time>
      </trkpt>
      <trkpt lat="45.07441" lon="6.12518">
        <ele>2050.8</ele>
        <time>2024-07-09T10:41:17Z</time>
      </trkpt>
      <trkpt lat="45.07442" lon="6.12517">
        <ele>2050.5</ele>
        <time>2024-07-09T10:41:18Z</time>
      </trkpt>
      <trkpt lat="45.07443" lon="6.12517">
        <ele>2050.2</ele>
        <time>2024-07-09T10:41:19Z</time>
      </trkpt>
      <trkpt lat="45.07445" lon="6.12517">
        <ele>2049.7</ele>
        <time>2024-07-09T10:41:21Z</time>
      </trkpt>
      <trkpt lat="45.07446" lon="6.12519">
        <ele>2049.2</ele>
        <time>2024-07-09T10:41:22Z</time>
      </trkpt>
      <trkpt lat="45.07447" lon="6.1252">
        <ele>2048.8</ele>
        <time>2024-07-09T10:41:24Z</time>
      </trkpt>
      <trkpt lat="45.07449" lon="6.12521">
        <ele>2048.3</ele>
        <time>2024-07-09T10:41:26Z</time>
      </trkpt>
      <trkpt lat="45.07449" lon="6.12522">
        <ele>2048.2</ele>
        <time>2024-07-09T10:41:27Z</time>
      </trkpt>
      <trkpt lat="45.0745" lon="6.12523">
        <ele>2047.8</ele>
        <time>2024-07-09T10:41:28Z</time>
      </trkpt>
      <trkpt lat="45.07451" lon="6.12524">
        <ele>2047.4</ele>
        <time>2024-07-09T10:41:29Z</time>
      </trkpt>
      <trkpt lat="45.07453" lon="6.12524">
        <ele>2046.9</ele>
        <time>2024-07-09T10:41:30Z</time>
      </trkpt>
      <trkpt lat="45.07453" lon="6.12524">
        <ele>2046.7</ele>
        <time>2024-07-09T10:41:31Z</time>
      </trkpt>
      <trkpt lat="45.07455" lon="6.12525">
        <ele>2046.2</ele>
        <time>2024-07-09T10:41:33Z</time>
      </trkpt>
      <trkpt lat="45.07455" lon="6.12525">
        <ele>2046.1</ele>
        <time>2024-07-09T10:41:34Z</time>
      </trkpt>
      <trkpt lat="45.07456" lon="6.12526">
        <ele>2045.7</ele>
        <time>2024-07-09T10:41:36Z</time>
      </trkpt>
      <trkpt lat="45.07457" lon="6.12526">
        <ele>2045.3</ele>
        <time>2024-07-09T10:41:37Z</time>
      </trkpt>
      <trkpt lat="45.07457" lon="6.12527">
        <ele>2045.2</ele>
        <time>2024-07-09T10:41:38Z</time>
      </trkpt>
      <trkpt lat="45.07459" lon="6.12529">
        <ele>2044.5</ele>
        <time>2024-07-09T10:41:40Z</time>
      </trkpt>
      <trkpt lat="45.0746" lon="6.1253">
        <ele>2044</ele>
        <time>2024-07-09T10:41:42Z</time>
      </trkpt>
      <trkpt lat="45.07461" lon="6.12531">
        <ele>2043.5</ele>
        <time>2024-07-09T10:41:43Z</time>
      </trkpt>
      <trkpt lat="45.07462" lon="6.12531">
        <ele>2043.2</ele>
        <time>2024-07-09T10:41:44Z</time>
      </trkpt>
      <trkpt lat="45.07463" lon="6.12532">
        <ele>2042.8</ele>
        <time>2024-07-09T10:41:46Z</time>
      </trkpt>
      <trkpt lat="45.07464" lon="6.12532">
        <ele>2042.6</ele>
        <time>2024-07-09T10:41:47Z</time>
      </trkpt>
      <trkpt lat="45.07464" lon="6.12533">
        <ele>2042.2</ele>
        <time>2024-07-09T10:41:48Z</time>
      </trkpt>
      <trkpt lat="45.07465" lon="6.12534">
        <ele>2041.8</ele>
        <time>2024-07-09T10:41:49Z</time>
      </trkpt>
      <trkpt lat="45.07466" lon="6.12536">
        <ele>2041.2</ele>
        <time>2024-07-09T10:41:51Z</time>
      </trkpt>
      <trkpt lat="45.07468" lon="6.12537">
        <ele>2040.4</ele>
        <time>2024-07-09T10:41:52Z</time>
      </trkpt>
      <trkpt lat="45.0747" lon="6.12538">
        <ele>2039.7</ele>
        <time>2024-07-09T10:41:53Z</time>
      </trkpt>
      <trkpt lat="45.0747" lon="6.12539">
        <ele>2039.6</ele>
        <time>2024-07-09T10:41:54Z</time>
      </trkpt>
      <trkpt lat="45.07472" lon="6.1254">
        <ele>2038.9</ele>
        <time>2024-07-09T10:41:56Z</time>
      </trkpt>
      <trkpt lat="45.07472" lon="6.12541">
        <ele>2038.7</ele>
        <time>2024-07-09T10:41:57Z</time>
      </trkpt>
      <trkpt lat="45.07474" lon="6.12543">
        <ele>2037.9</ele>
        <time>2024-07-09T10:41:58Z</time>
      </trkpt>
      <trkpt lat="45.07474" lon="6.12543">
        <ele>2037.6</ele>
        <time>2024-07-09T10:41:59Z</time>
      </trkpt>
      <trkpt lat="45.07475" lon="6.12545">
        <ele>2037</ele>
        <time>2024-07-09T10:42:01Z</time>
      </trkpt>
      <trkpt lat="45.07476" lon="6.12546">
        <ele>2036.8</ele>
        <time>2024-07-09T10:42:02Z</time>
      </trkpt>
      <trkpt lat="45.07477" lon="6.12547">
        <ele>2036.5</ele>
        <time>2024-07-09T10:42:03Z</time>
      </trkpt>
      <trkpt lat="45.07477" lon="6.12547">
        <ele>2036.3</ele>
        <time>2024-07-09T10:42:04Z</time>
      </trkpt>
      <trkpt lat="45.07478" lon="6.12547">
        <ele>2036</ele>
        <time>2024-07-09T10:42:06Z</time>
      </trkpt>
      <trkpt lat="45.07478" lon="6.12548">
        <ele>2035.7</ele>
        <time>2024-07-09T10:42:07Z</time>
      </trkpt>
      <trkpt lat="45.0748" lon="6.1255">
        <ele>2035</ele>
        <time>2024-07-09T10:42:08Z</time>
      </trkpt>
      <trkpt lat="45.07481" lon="6.12551">
        <ele>2034.7</ele>
        <time>2024-07-09T10:42:09Z</time>
      </trkpt>
      <trkpt lat="45.07482" lon="6.12553">
        <ele>2034.1</ele>
        <time>2024-07-09T10:42:11Z</time>
      </trkpt>
      <trkpt lat="45.07482" lon="6.12553">
        <ele>2033.9</ele>
        <time>2024-07-09T10:42:12Z</time>
      </trkpt>
      <trkpt lat="45.07483" lon="6.12554">
        <ele>2033.5</ele>
        <time>2024-07-09T10:42:13Z</time>
      </trkpt>
      <trkpt lat="45.07483" lon="6.12555">
        <ele>2033.2</ele>
        <time>2024-07-09T10:42:14Z</time>
      </trkpt>
      <trkpt lat="45.07484" lon="6.12557">
        <ele>2032.8</ele>
        <time>2024-07-09T10:42:16Z</time>
      </trkpt>
      <trkpt lat="45.07485" lon="6.12559">
        <ele>2032.1</ele>
        <time>2024-07-09T10:42:17Z</time>
      </trkpt>
      <trkpt lat="45.07485" lon="6.1256">
        <ele>2031.9</ele>
        <time>2024-07-09T10:42:18Z</time>
      </trkpt>
      <trkpt lat="45.07485" lon="6.12561">
        <ele>2031.6</ele>
        <time>2024-07-09T10:42:19Z</time>
      </trkpt>
      <trkpt lat="45.07486" lon="6.12562">
        <ele>2031.2</ele>
        <time>2024-07-09T10:42:20Z</time>
      </trkpt>
      <trkpt lat="45.07487" lon="6.12563">
        <ele>2030.8</ele>
        <time>2024-07-09T10:42:22Z</time>
      </trkpt>
      <trkpt lat="45.07488" lon="6.12565">
        <ele>2030.3</ele>
        <time>2024-07-09T10:42:24Z</time>
      </trkpt>
      <trkpt lat="45.07489" lon="6.12566">
        <ele>2030</ele>
        <time>2024-07-09T10:42:26Z</time>
      </trkpt>
      <trkpt lat="45.0749" lon="6.12567">
        <ele>2029.5</ele>
        <time>2024-07-09T10:42:27Z</time>
      </trkpt>
      <trkpt lat="45.07491" lon="6.12568">
        <ele>2029.2</ele>
        <time>2024-07-09T10:42:28Z</time>
      </trkpt>
      <trkpt lat="45.07492" lon="6.12569">
        <ele>2028.7</ele>
        <time>2024-07-09T10:42:29Z</time>
      </trkpt>
      <trkpt lat="45.07493" lon="6.1257">
        <ele>2028.4</ele>
        <time>2024-07-09T10:42:31Z</time>
      </trkpt>
      <trkpt lat="45.07494" lon="6.12571">
        <ele>2027.8</ele>
        <time>2024-07-09T10:42:32Z</time>
      </trkpt>
      <trkpt lat="45.07495" lon="6.12571">
        <ele>2027.6</ele>
        <time>2024-07-09T10:42:33Z</time>
      </trkpt>
      <trkpt lat="45.07496" lon="6.12571">
        <ele>2027.2</ele>
        <time>2024-07-09T10:42:34Z</time>
      </trkpt>
      <trkpt lat="45.07497" lon="6.12571">
        <ele>2026.9</ele>
        <time>2024-07-09T10:42:36Z</time>
      </trkpt>
      <trkpt lat="45.07498" lon="6.12572">
        <ele>2026.4</ele>
        <time>2024-07-09T10:42:37Z</time>
      </trkpt>
      <trkpt lat="45.075" lon="6.12574">
        <ele>2025.7</ele>
        <time>2024-07-09T10:42:39Z</time>
      </trkpt>
      <trkpt lat="45.07502" lon="6.12576">
        <ele>2025</ele>
        <time>2024-07-09T10:42:41Z</time>
      </trkpt>
      <trkpt lat="45.07502" lon="6.12576">
        <ele>2024.8</ele>
        <time>2024-07-09T10:42:42Z</time>
      </trkpt>
      <trkpt lat="45.07502" lon="6.12577">
        <ele>2024.5</ele>
        <time>2024-07-09T10:42:43Z</time>
      </trkpt>
      <trkpt lat="45.07504" lon="6.12579">
        <ele>2023.8</ele>
        <time>2024-07-09T10:42:44Z</time>
      </trkpt>
      <trkpt lat="45.07505" lon="6.12581">
        <ele>2023.4</ele>
        <time>2024-07-09T10:42:46Z</time>
      </trkpt>
      <trkpt lat="45.07505" lon="6.12582">
        <ele>2023</ele>
        <time>2024-07-09T10:42:48Z</time>
      </trkpt>
      <trkpt lat="45.07506" lon="6.12583">
        <ele>2022.6</ele>
        <time>2024-07-09T10:42:49Z</time>
      </trkpt>
      <trkpt lat="45.07506" lon="6.12584">
        <ele>2022.2</ele>
        <time>2024-07-09T10:42:50Z</time>
      </trkpt>
      <trkpt lat="45.07507" lon="6.12585">
        <ele>2022.1</ele>
        <time>2024-07-09T10:42:51Z</time>
      </trkpt>
      <trkpt lat="45.07507" lon="6.12586">
        <ele>2021.6</ele>
        <time>2024-07-09T10:42:52Z</time>
      </trkpt>
      <trkpt lat="45.07508" lon="6.1259">
        <ele>2020.7</ele>
        <time>2024-07-09T10:42:54Z</time>
      </trkpt>
      <trkpt lat="45.07507" lon="6.12591">
        <ele>2020.3</ele>
        <time>2024-07-09T10:42:56Z</time>
      </trkpt>
      <trkpt lat="45.07509" lon="6.12594">
        <ele>2019.4</ele>
        <time>2024-07-09T10:42:57Z</time>
      </trkpt>
      <trkpt lat="45.07509" lon="6.12594">
        <ele>2019.2</ele>
        <time>2024-07-09T10:42:58Z</time>
      </trkpt>
      <trkpt lat="45.0751" lon="6.12596">
        <ele>2018.7</ele>
        <time>2024-07-09T10:42:59Z</time>
      </trkpt>
      <trkpt lat="45.0751" lon="6.12596">
        <ele>2018.5</ele>
        <time>2024-07-09T10:43:01Z</time>
      </trkpt>
      <trkpt lat="45.07511" lon="6.12598">
        <ele>2017.8</ele>
        <time>2024-07-09T10:43:02Z</time>
      </trkpt>
      <trkpt lat="45.07511" lon="6.12599">
        <ele>2017.6</ele>
        <time>2024-07-09T10:43:03Z</time>
      </trkpt>
      <trkpt lat="45.07512" lon="6.126">
        <ele>2017</ele>
        <time>2024-07-09T10:43:04Z</time>
      </trkpt>
      <trkpt lat="45.07513" lon="6.12601">
        <ele>2016.6</ele>
        <time>2024-07-09T10:43:06Z</time>
      </trkpt>
      <trkpt lat="45.07514" lon="6.12603">
        <ele>2015.8</ele>
        <time>2024-07-09T10:43:07Z</time>
      </trkpt>
      <trkpt lat="45.07516" lon="6.12603">
        <ele>2015.3</ele>
        <time>2024-07-09T10:43:08Z</time>
      </trkpt>
      <trkpt lat="45.07517" lon="6.12603">
        <ele>2014.9</ele>
        <time>2024-07-09T10:43:09Z</time>
      </trkpt>
      <trkpt lat="45.07518" lon="6.12605">
        <ele>2013.9</ele>
        <time>2024-07-09T10:43:11Z</time>
      </trkpt>
      <trkpt lat="45.07518" lon="6.12608">
        <ele>2013.2</ele>
        <time>2024-07-09T10:43:13Z</time>
      </trkpt>
      <trkpt lat="45.07518" lon="6.12609">
        <ele>2012.9</ele>
        <time>2024-07-09T10:43:14Z</time>
      </trkpt>
      <trkpt lat="45.07519" lon="6.12611">
        <ele>2012.2</ele>
        <time>2024-07-09T10:43:16Z</time>
      </trkpt>
      <trkpt lat="45.0752" lon="6.12612">
        <ele>2011.8</ele>
        <time>2024-07-09T10:43:17Z</time>
      </trkpt>
      <trkpt lat="45.07521" lon="6.12612">
        <ele>2011.4</ele>
        <time>2024-07-09T10:43:19Z</time>
      </trkpt>
      <trkpt lat="45.07522" lon="6.12613">
        <ele>2010.8</ele>
        <time>2024-07-09T10:43:21Z</time>
      </trkpt>
      <trkpt lat="45.07523" lon="6.12614">
        <ele>2010.5</ele>
        <time>2024-07-09T10:43:22Z</time>
      </trkpt>
      <trkpt lat="45.07524" lon="6.12614">
        <ele>2010</ele>
        <time>2024-07-09T10:43:24Z</time>
      </trkpt>
      <trkpt lat="45.07524" lon="6.12614">
        <ele>2009.8</ele>
        <time>2024-07-09T10:43:25Z</time>
      </trkpt>
      <trkpt lat="45.07525" lon="6.12616">
        <ele>2009.3</ele>
        <time>2024-07-09T10:43:27Z</time>
      </trkpt>
      <trkpt lat="45.07525" lon="6.12617">
        <ele>2009</ele>
        <time>2024-07-09T10:43:28Z</time>
      </trkpt>
      <trkpt lat="45.07527" lon="6.12617">
        <ele>2008.3</ele>
        <time>2024-07-09T10:43:30Z</time>
      </trkpt>
      <trkpt lat="45.07527" lon="6.12616">
        <ele>2007.9</ele>
        <time>2024-07-09T10:43:32Z</time>
      </trkpt>
      <trkpt lat="45.07528" lon="6.12616">
        <ele>2007.7</ele>
        <time>2024-07-09T10:43:34Z</time>
      </trkpt>
      <trkpt lat="45.07529" lon="6.12617">
        <ele>2007.3</ele>
        <time>2024-07-09T10:43:35Z</time>
      </trkpt>
      <trkpt lat="45.07529" lon="6.12617">
        <ele>2007.1</ele>
        <time>2024-07-09T10:43:37Z</time>
      </trkpt>
      <trkpt lat="45.07531" lon="6.12617">
        <ele>2006.4</ele>
        <time>2024-07-09T10:43:38Z</time>
      </trkpt>
      <trkpt lat="45.07532" lon="6.12617">
        <ele>2005.9</ele>
        <time>2024-07-09T10:43:39Z</time>
      </trkpt>
      <trkpt lat="45.07533" lon="6.12617">
        <ele>2005.6</ele>
        <time>2024-07-09T10:43:40Z</time>
      </trkpt>
      <trkpt lat="45.07534" lon="6.12617">
        <ele>2005.3</ele>
        <time>2024-07-09T10:43:42Z</time>
      </trkpt>
      <trkpt lat="45.07534" lon="6.12617">
        <ele>2005</ele>
        <time>2024-07-09T10:43:43Z</time>
      </trkpt>
      <trkpt lat="45.07535" lon="6.12617">
        <ele>2004.8</ele>
        <time>2024-07-09T10:43:44Z</time>
      </trkpt>
      <trkpt lat="45.07536" lon="6.12617">
        <ele>2004.4</ele>
        <time>2024-07-09T10:43:45Z</time>
      </trkpt>
      <trkpt lat="45.07537" lon="6.12617">
        <ele>2004.1</ele>
        <time>2024-07-09T10:43:46Z</time>
      </trkpt>
      <trkpt lat="45.07538" lon="6.12618">
        <ele>2003.7</ele>
        <time>2024-07-09T10:43:47Z</time>
      </trkpt>
      <trkpt lat="45.07538" lon="6.12619">
        <ele>2003.1</ele>
        <time>2024-07-09T10:43:49Z</time>
      </trkpt>
      <trkpt lat="45.07539" lon="6.1262">
        <ele>2002.7</ele>
        <time>2024-07-09T10:43:50Z</time>
      </trkpt>
      <trkpt lat="45.07541" lon="6.12621">
        <ele>2002.2</ele>
        <time>2024-07-09T10:43:52Z</time>
      </trkpt>
      <trkpt lat="45.07541" lon="6.12622">
        <ele>2001.7</ele>
        <time>2024-07-09T10:43:53Z</time>
      </trkpt>
      <trkpt lat="45.07541" lon="6.12624">
        <ele>2001.3</ele>
        <time>2024-07-09T10:43:54Z</time>
      </trkpt>
      <trkpt lat="45.07541" lon="6.12625">
        <ele>2001</ele>
        <time>2024-07-09T10:43:55Z</time>
      </trkpt>
      <trkpt lat="45.07542" lon="6.12626">
        <ele>2000.7</ele>
        <time>2024-07-09T10:43:56Z</time>
      </trkpt>
      <trkpt lat="45.07541" lon="6.12626">
        <ele>2000.6</ele>
        <time>2024-07-09T10:43:57Z</time>
      </trkpt>
      <trkpt lat="45.07542" lon="6.12626">
        <ele>2000.1</ele>
        <time>2024-07-09T10:43:58Z</time>
      </trkpt>
      <trkpt lat="45.07543" lon="6.12626">
        <ele>2000</ele>
        <time>2024-07-09T10:43:59Z</time>
      </trkpt>
      <trkpt lat="45.07543" lon="6.12627">
        <ele>1999.6</ele>
        <time>2024-07-09T10:44:00Z</time>
      </trkpt>
      <trkpt lat="45.07544" lon="6.12627">
        <ele>1999.4</ele>
        <time>2024-07-09T10:44:02Z</time>
      </trkpt>
      <trkpt lat="45.07544" lon="6.12626">
        <ele>1999.2</ele>
        <time>2024-07-09T10:44:03Z</time>
      </trkpt>
      <trkpt lat="45.07545" lon="6.12627">
        <ele>1998.6</ele>
        <time>2024-07-09T10:44:04Z</time>
      </trkpt>
      <trkpt lat="45.07545" lon="6.12628">
        <ele>1998.3</ele>
        <time>2024-07-09T10:44:05Z</time>
      </trkpt>
      <trkpt lat="45.07547" lon="6.12629">
        <ele>1997.7</ele>
        <time>2024-07-09T10:44:07Z</time>
      </trkpt>
      <trkpt lat="45.07547" lon="6.1263">
        <ele>1997.3</ele>
        <time>2024-07-09T10:44:08Z</time>
      </trkpt>
      <trkpt lat="45.07547" lon="6.12627">
        <ele>1996.5</ele>
        <time>2024-07-09T10:44:10Z</time>
      </trkpt>
      <trkpt lat="45.07548" lon="6.12627">
        <ele>1996.3</ele>
        <time>2024-07-09T10:44:12Z</time>
      </trkpt>
      <trkpt lat="45.07548" lon="6.12627">
        <ele>1996.1</ele>
        <time>2024-07-09T10:44:13Z</time>
      </trkpt>
      <trkpt lat="45.07549" lon="6.12628">
        <ele>1996</ele>
        <time>2024-07-09T10:44:14Z</time>
      </trkpt>
      <trkpt lat="45.07549" lon="6.12628">
        <ele>1995.8</ele>
        <time>2024-07-09T10:44:15Z</time>
      </trkpt>
      <trkpt lat="45.07549" lon="6.12628">
        <ele>1995.6</ele>
        <time>2024-07-09T10:44:17Z</time>
      </trkpt>
      <trkpt lat="45.0755" lon="6.12628">
        <ele>1995.4</ele>
        <time>2024-07-09T10:44:18Z</time>
      </trkpt>
      <trkpt lat="45.07551" lon="6.12628">
        <ele>1994.8</ele>
        <time>2024-07-09T10:44:19Z</time>
      </trkpt>
      <trkpt lat="45.07554" lon="6.12629">
        <ele>1993.7</ele>
        <time>2024-07-09T10:44:21Z</time>
      </trkpt>
      <trkpt lat="45.07554" lon="6.12629">
        <ele>1993.4</ele>
        <time>2024-07-09T10:44:23Z</time>
      </trkpt>
      <trkpt lat="45.07555" lon="6.1263">
        <ele>1993.1</ele>
        <time>2024-07-09T10:44:24Z</time>
      </trkpt>
      <trkpt lat="45.07557" lon="6.12632">
        <ele>1992.3</ele>
        <time>2024-07-09T10:44:25Z</time>
      </trkpt>
      <trkpt lat="45.07558" lon="6.12633">
        <ele>1991.7</ele>
        <time>2024-07-09T10:44:26Z</time>
      </trkpt>
      <trkpt lat="45.07559" lon="6.12634">
        <ele>1991.2</ele>
        <time>2024-07-09T10:44:27Z</time>
      </trkpt>
      <trkpt lat="45.0756" lon="6.12634">
        <ele>1990.9</ele>
        <time>2024-07-09T10:44:28Z</time>
      </trkpt>
      <trkpt lat="45.0756" lon="6.12634">
        <ele>1990.7</ele>
        <time>2024-07-09T10:44:29Z</time>
      </trkpt>
      <trkpt lat="45.07561" lon="6.12635">
        <ele>1990.5</ele>
        <time>2024-07-09T10:44:30Z</time>
      </trkpt>
      <trkpt lat="45.07562" lon="6.12635">
        <ele>1990.3</ele>
        <time>2024-07-09T10:44:32Z</time>
      </trkpt>
      <trkpt lat="45.07562" lon="6.12636">
        <ele>1990.2</ele>
        <time>2024-07-09T10:44:33Z</time>
      </trkpt>
      <trkpt lat="45.07564" lon="6.12637">
        <ele>1989.8</ele>
        <time>2024-07-09T10:44:34Z</time>
      </trkpt>
      <trkpt lat="45.07565" lon="6.12638">
        <ele>1989.6</ele>
        <time>2024-07-09T10:44:35Z</time>
      </trkpt>
      <trkpt lat="45.07565" lon="6.12639">
        <ele>1989.4</ele>
        <time>2024-07-09T10:44:36Z</time>
      </trkpt>
      <trkpt lat="45.07566" lon="6.12639">
        <ele>1989.4</ele>
        <time>2024-07-09T10:44:37Z</time>
      </trkpt>
      <trkpt lat="45.07567" lon="6.1264">
        <ele>1989.1</ele>
        <time>2024-07-09T10:44:39Z</time>
      </trkpt>
      <trkpt lat="45.07567" lon="6.12641">
        <ele>1989</ele>
        <time>2024-07-09T10:44:41Z</time>
      </trkpt>
      <trkpt lat="45.07568" lon="6.12641">
        <ele>1988.8</ele>
        <time>2024-07-09T10:44:42Z</time>
      </trkpt>
      <trkpt lat="45.0757" lon="6.12641">
        <ele>1988.4</ele>
        <time>2024-07-09T10:44:44Z</time>
      </trkpt>
      <trkpt lat="45.0757" lon="6.12641">
        <ele>1988.3</ele>
        <time>2024-07-09T10:44:45Z</time>
      </trkpt>
      <trkpt lat="45.07571" lon="6.12642">
        <ele>1988.2</ele>
        <time>2024-07-09T10:44:46Z</time>
      </trkpt>
      <trkpt lat="45.07572" lon="6.12643">
        <ele>1988</ele>
        <time>2024-07-09T10:44:47Z</time>
      </trkpt>
      <trkpt lat="45.07572" lon="6.12643">
        <ele>1987.9</ele>
        <time>2024-07-09T10:44:49Z</time>
      </trkpt>
      <trkpt lat="45.07573" lon="6.12641">
        <ele>1987.6</ele>
        <time>2024-07-09T10:44:50Z</time>
      </trkpt>
      <trkpt lat="45.07571" lon="6.12637">
        <ele>1986.9</ele>
        <time>2024-07-09T10:44:52Z</time>
      </trkpt>
      <trkpt lat="45.07571" lon="6.12636">
        <ele>1986.8</ele>
        <time>2024-07-09T10:44:54Z</time>
      </trkpt>
      <trkpt lat="45.0757" lon="6.12634">
        <ele>1986.5</ele>
        <time>2024-07-09T10:44:55Z</time>
      </trkpt>
      <trkpt lat="45.07569" lon="6.12634">
        <ele>1986.2</ele>
        <time>2024-07-09T10:44:56Z</time>
      </trkpt>
      <trkpt lat="45.0757" lon="6.12628">
        <ele>1985.3</ele>
        <time>2024-07-09T10:44:57Z</time>
      </trkpt>
      <trkpt lat="45.07568" lon="6.12624">
        <ele>1984.7</ele>
        <time>2024-07-09T10:44:58Z</time>
      </trkpt>
      <trkpt lat="45.07567" lon="6.12623">
        <ele>1984.4</ele>
        <time>2024-07-09T10:44:59Z</time>
      </trkpt>
      <trkpt lat="45.07567" lon="6.12624">
        <ele>1984.3</ele>
        <time>2024-07-09T10:45:00Z</time>
      </trkpt>
      <trkpt lat="45.07569" lon="6.12622">
        <ele>1983.8</ele>
        <time>2024-07-09T10:45:01Z</time>
      </trkpt>
      <trkpt lat="45.07572" lon="6.12627">
        <ele>1982.8</ele>
        <time>2024-07-09T10:45:03Z</time>
      </trkpt>
      <trkpt lat="45.07575" lon="6.1263">
        <ele>1982</ele>
        <time>2024-07-09T10:45:04Z</time>
      </trkpt>
      <trkpt lat="45.07577" lon="6.12631">
        <ele>1981.6</ele>
        <time>2024-07-09T10:45:06Z</time>
      </trkpt>
      <trkpt lat="45.07577" lon="6.12632">
        <ele>1981.4</ele>
        <time>2024-07-09T10:45:07Z</time>
      </trkpt>
      <trkpt lat="45.07579" lon="6.12633">
        <ele>1980.9</ele>
        <time>2024-07-09T10:45:08Z</time>
      </trkpt>
      <trkpt lat="45.07581" lon="6.12635">
        <ele>1980.4</ele>
        <time>2024-07-09T10:45:10Z</time>
      </trkpt>
      <trkpt lat="45.07583" lon="6.12636">
        <ele>1980.1</ele>
        <time>2024-07-09T10:45:11Z</time>
      </trkpt>
      <trkpt lat="45.07583" lon="6.12637">
        <ele>1979.9</ele>
        <time>2024-07-09T10:45:13Z</time>
      </trkpt>
      <trkpt lat="45.07585" lon="6.12639">
        <ele>1979.4</ele>
        <time>2024-07-09T10:45:14Z</time>
      </trkpt>
      <trkpt lat="45.07586" lon="6.12641">
        <ele>1979.1</ele>
        <time>2024-07-09T10:45:15Z</time>
      </trkpt>
      <trkpt lat="45.07587" lon="6.12642">
        <ele>1978.9</ele>
        <time>2024-07-09T10:45:16Z</time>
      </trkpt>
      <trkpt lat="45.07588" lon="6.12643">
        <ele>1978.5</ele>
        <time>2024-07-09T10:45:18Z</time>
      </trkpt>
      <trkpt lat="45.07589" lon="6.12644">
        <ele>1978.2</ele>
        <time>2024-07-09T10:45:19Z</time>
      </trkpt>
      <trkpt lat="45.07589" lon="6.12647">
        <ele>1977.8</ele>
        <time>2024-07-09T10:45:20Z</time>
      </trkpt>
      <trkpt lat="45.0759" lon="6.12648">
        <ele>1977.6</ele>
        <time>2024-07-09T10:45:22Z</time>
      </trkpt>
      <trkpt lat="45.0759" lon="6.12649">
        <ele>1977.4</ele>
        <time>2024-07-09T10:45:23Z</time>
      </trkpt>
      <trkpt lat="45.07591" lon="6.1265">
        <ele>1977.2</ele>
        <time>2024-07-09T10:45:24Z</time>
      </trkpt>
      <trkpt lat="45.07592" lon="6.1265">
        <ele>1976.8</ele>
        <time>2024-07-09T10:45:25Z</time>
      </trkpt>
      <trkpt lat="45.07593" lon="6.1265">
        <ele>1976.6</ele>
        <time>2024-07-09T10:45:26Z</time>
      </trkpt>
      <trkpt lat="45.07596" lon="6.12651">
        <ele>1976.1</ele>
        <time>2024-07-09T10:45:28Z</time>
      </trkpt>
      <trkpt lat="45.07596" lon="6.12652">
        <ele>1975.9</ele>
        <time>2024-07-09T10:45:29Z</time>
      </trkpt>
      <trkpt lat="45.07597" lon="6.12653">
        <ele>1975.7</ele>
        <time>2024-07-09T10:45:30Z</time>
      </trkpt>
      <trkpt lat="45.07598" lon="6.12654">
        <ele>1975.4</ele>
        <time>2024-07-09T10:45:31Z</time>
      </trkpt>
      <trkpt lat="45.07598" lon="6.12655">
        <ele>1975.2</ele>
        <time>2024-07-09T10:45:33Z</time>
      </trkpt>
      <trkpt lat="45.07599" lon="6.12656">
        <ele>1974.9</ele>
        <time>2024-07-09T10:45:34Z</time>
      </trkpt>
      <trkpt lat="45.076" lon="6.12658">
        <ele>1974.5</ele>
        <time>2024-07-09T10:45:35Z</time>
      </trkpt>
      <trkpt lat="45.07601" lon="6.12659">
        <ele>1974.2</ele>
        <time>2024-07-09T10:45:36Z</time>
      </trkpt>
      <trkpt lat="45.07602" lon="6.1266">
        <ele>1974.1</ele>
        <time>2024-07-09T10:45:37Z</time>
      </trkpt>
      <trkpt lat="45.07603" lon="6.12661">
        <ele>1973.7</ele>
        <time>2024-07-09T10:45:39Z</time>
      </trkpt>
      <trkpt lat="45.07604" lon="6.12663">
        <ele>1973.4</ele>
        <time>2024-07-09T10:45:40Z</time>
      </trkpt>
      <trkpt lat="45.07605" lon="6.12664">
        <ele>1973.1</ele>
        <time>2024-07-09T10:45:41Z</time>
      </trkpt>
      <trkpt lat="45.07606" lon="6.12664">
        <ele>1972.7</ele>
        <time>2024-07-09T10:45:42Z</time>
      </trkpt>
      <trkpt lat="45.07607" lon="6.12664">
        <ele>1972.6</ele>
        <time>2024-07-09T10:45:43Z</time>
      </trkpt>
      <trkpt lat="45.07607" lon="6.12665">
        <ele>1972.4</ele>
        <time>2024-07-09T10:45:45Z</time>
      </trkpt>
      <trkpt lat="45.07609" lon="6.12666">
        <ele>1972</ele>
        <time>2024-07-09T10:45:46Z</time>
      </trkpt>
      <trkpt lat="45.07609" lon="6.12667">
        <ele>1971.8</ele>
        <time>2024-07-09T10:45:48Z</time>
      </trkpt>
      <trkpt lat="45.0761" lon="6.1267">
        <ele>1971.4</ele>
        <time>2024-07-09T10:45:49Z</time>
      </trkpt>
      <trkpt lat="45.07611" lon="6.12671">
        <ele>1971.2</ele>
        <time>2024-07-09T10:45:50Z</time>
      </trkpt>
      <trkpt lat="45.07611" lon="6.12672">
        <ele>1970.9</ele>
        <time>2024-07-09T10:45:51Z</time>
      </trkpt>
      <trkpt lat="45.07613" lon="6.12674">
        <ele>1970.5</ele>
        <time>2024-07-09T10:45:53Z</time>
      </trkpt>
      <trkpt lat="45.07613" lon="6.12674">
        <ele>1970.2</ele>
        <time>2024-07-09T10:45:55Z</time>
      </trkpt>
      <trkpt lat="45.07614" lon="6.12676">
        <ele>1969.9</ele>
        <time>2024-07-09T10:45:56Z</time>
      </trkpt>
      <trkpt lat="45.07616" lon="6.12678">
        <ele>1969.5</ele>
        <time>2024-07-09T10:45:58Z</time>
      </trkpt>
      <trkpt lat="45.07616" lon="6.12679">
        <ele>1969.2</ele>
        <time>2024-07-09T10:45:59Z</time>
      </trkpt>
      <trkpt lat="45.07618" lon="6.1268">
        <ele>1968.8</ele>
        <time>2024-07-09T10:46:01Z</time>
      </trkpt>
      <trkpt lat="45.07619" lon="6.1268">
        <ele>1968.6</ele>
        <time>2024-07-09T10:46:03Z</time>
      </trkpt>
      <trkpt lat="45.0762" lon="6.1268">
        <ele>1968.2</ele>
        <time>2024-07-09T10:46:04Z</time>
      </trkpt>
      <trkpt lat="45.07621" lon="6.12679">
        <ele>1968</ele>
        <time>2024-07-09T10:46:05Z</time>
      </trkpt>
      <trkpt lat="45.07622" lon="6.1268">
        <ele>1967.7</ele>
        <time>2024-07-09T10:46:06Z</time>
      </trkpt>
      <trkpt lat="45.07623" lon="6.1268">
        <ele>1967.5</ele>
        <time>2024-07-09T10:46:08Z</time>
      </trkpt>
      <trkpt lat="45.07624" lon="6.1268">
        <ele>1967.4</ele>
        <time>2024-07-09T10:46:09Z</time>
      </trkpt>
      <trkpt lat="45.07625" lon="6.12681">
        <ele>1967.1</ele>
        <time>2024-07-09T10:46:10Z</time>
      </trkpt>
      <trkpt lat="45.07626" lon="6.12682">
        <ele>1966.7</ele>
        <time>2024-07-09T10:46:11Z</time>
      </trkpt>
      <trkpt lat="45.07627" lon="6.12683">
        <ele>1966.4</ele>
        <time>2024-07-09T10:46:13Z</time>
      </trkpt>
      <trkpt lat="45.07628" lon="6.12683">
        <ele>1966.2</ele>
        <time>2024-07-09T10:46:14Z</time>
      </trkpt>
      <trkpt lat="45.07629" lon="6.12685">
        <ele>1965.7</ele>
        <time>2024-07-09T10:46:15Z</time>
      </trkpt>
      <trkpt lat="45.0763" lon="6.12686">
        <ele>1965.4</ele>
        <time>2024-07-09T10:46:16Z</time>
      </trkpt>
      <trkpt lat="45.07633" lon="6.12688">
        <ele>1964.8</ele>
        <time>2024-07-09T10:46:18Z</time>
      </trkpt>
      <trkpt lat="45.07633" lon="6.12689">
        <ele>1964.6</ele>
        <time>2024-07-09T10:46:19Z</time>
      </trkpt>
      <trkpt lat="45.07634" lon="6.1269">
        <ele>1964.4</ele>
        <time>2024-07-09T10:46:20Z</time>
      </trkpt>
      <trkpt lat="45.07635" lon="6.12691">
        <ele>1964.1</ele>
        <time>2024-07-09T10:46:21Z</time>
      </trkpt>
      <trkpt lat="45.07636" lon="6.12691">
        <ele>1963.9</ele>
        <time>2024-07-09T10:46:23Z</time>
      </trkpt>
      <trkpt lat="45.07636" lon="6.12692">
        <ele>1963.6</ele>
        <time>2024-07-09T10:46:24Z</time>
      </trkpt>
      <trkpt lat="45.07637" lon="6.12693">
        <ele>1963.4</ele>
        <time>2024-07-09T10:46:25Z</time>
      </trkpt>
      <trkpt lat="45.07638" lon="6.12694">
        <ele>1963.2</ele>
        <time>2024-07-09T10:46:26Z</time>
      </trkpt>
      <trkpt lat="45.07639" lon="6.12695">
        <ele>1963</ele>
        <time>2024-07-09T10:46:27Z</time>
      </trkpt>
      <trkpt lat="45.07639" lon="6.12695">
        <ele>1962.9</ele>
        <time>2024-07-09T10:46:28Z</time>
      </trkpt>
      <trkpt lat="45.0764" lon="6.12695">
        <ele>1962.8</ele>
        <time>2024-07-09T10:46:29Z</time>
      </trkpt>
      <trkpt lat="45.0764" lon="6.12696">
        <ele>1962.6</ele>
        <time>2024-07-09T10:46:30Z</time>
      </trkpt>
      <trkpt lat="45.07641" lon="6.12697">
        <ele>1962.4</ele>
        <time>2024-07-09T10:46:31Z</time>
      </trkpt>
      <trkpt lat="45.07643" lon="6.12697">
        <ele>1962.1</ele>
        <time>2024-07-09T10:46:32Z</time>
      </trkpt>
      <trkpt lat="45.07643" lon="6.12698">
        <ele>1962</ele>
        <time>2024-07-09T10:46:33Z</time>
      </trkpt>
      <trkpt lat="45.07643" lon="6.12698">
        <ele>1961.9</ele>
        <time>2024-07-09T10:46:34Z</time>
      </trkpt>
      <trkpt lat="45.07644" lon="6.12699">
        <ele>1961.7</ele>
        <time>2024-07-09T10:46:35Z</time>
      </trkpt>
      <trkpt lat="45.07645" lon="6.12699">
        <ele>1961.5</ele>
        <time>2024-07-09T10:46:36Z</time>
      </trkpt>
      <trkpt lat="45.07645" lon="6.127">
        <ele>1961.3</ele>
        <time>2024-07-09T10:46:37Z</time>
      </trkpt>
      <trkpt lat="45.07646" lon="6.127">
        <ele>1961.1</ele>
        <time>2024-07-09T10:46:38Z</time>
      </trkpt>
      <trkpt lat="45.07647" lon="6.12701">
        <ele>1960.9</ele>
        <time>2024-07-09T10:46:39Z</time>
      </trkpt>
      <trkpt lat="45.07648" lon="6.12702">
        <ele>1960.8</ele>
        <time>2024-07-09T10:46:40Z</time>
      </trkpt>
      <trkpt lat="45.07648" lon="6.12703">
        <ele>1960.6</ele>
        <time>2024-07-09T10:46:41Z</time>
      </trkpt>
      <trkpt lat="45.07649" lon="6.12704">
        <ele>1960.4</ele>
        <time>2024-07-09T10:46:42Z</time>
      </trkpt>
      <trkpt lat="45.0765" lon="6.12705">
        <ele>1960.1</ele>
        <time>2024-07-09T10:46:43Z</time>
      </trkpt>
      <trkpt lat="45.0765" lon="6.12706">
        <ele>1960</ele>
        <time>2024-07-09T10:46:44Z</time>
      </trkpt>
      <trkpt lat="45.07651" lon="6.12706">
        <ele>1959.8</ele>
        <time>2024-07-09T10:46:45Z</time>
      </trkpt>
      <trkpt lat="45.07652" lon="6.12707">
        <ele>1959.7</ele>
        <time>2024-07-09T10:46:46Z</time>
      </trkpt>
      <trkpt lat="45.07653" lon="6.12707">
        <ele>1959.5</ele>
        <time>2024-07-09T10:46:47Z</time>
      </trkpt>
      <trkpt lat="45.07654" lon="6.12708">
        <ele>1959.3</ele>
        <time>2024-07-09T10:46:48Z</time>
      </trkpt>
      <trkpt lat="45.07655" lon="6.12709">
        <ele>1959</ele>
        <time>2024-07-09T10:46:49Z</time>
      </trkpt>
      <trkpt lat="45.07655" lon="6.12711">
        <ele>1958.8</ele>
        <time>2024-07-09T10:46:50Z</time>
      </trkpt>
      <trkpt lat="45.07656" lon="6.12711">
        <ele>1958.6</ele>
        <time>2024-07-09T10:46:51Z</time>
      </trkpt>
      <trkpt lat="45.07658" lon="6.12713">
        <ele>1958.1</ele>
        <time>2024-07-09T10:46:52Z</time>
      </trkpt>
      <trkpt lat="45.07659" lon="6.12714">
        <ele>1957.9</ele>
        <time>2024-07-09T10:46:54Z</time>
      </trkpt>
      <trkpt lat="45.0766" lon="6.12715">
        <ele>1957.7</ele>
        <time>2024-07-09T10:46:55Z</time>
      </trkpt>
      <trkpt lat="45.07661" lon="6.12715">
        <ele>1957.5</ele>
        <time>2024-07-09T10:46:56Z</time>
      </trkpt>
      <trkpt lat="45.07662" lon="6.12716">
        <ele>1957.3</ele>
        <time>2024-07-09T10:46:57Z</time>
      </trkpt>
      <trkpt lat="45.07662" lon="6.12717">
        <ele>1957.1</ele>
        <time>2024-07-09T10:46:59Z</time>
      </trkpt>
      <trkpt lat="45.07663" lon="6.12719">
        <ele>1956.9</ele>
        <time>2024-07-09T10:47:00Z</time>
      </trkpt>
      <trkpt lat="45.07664" lon="6.12719">
        <ele>1956.7</ele>
        <time>2024-07-09T10:47:01Z</time>
      </trkpt>
      <trkpt lat="45.07665" lon="6.12721">
        <ele>1956.3</ele>
        <time>2024-07-09T10:47:03Z</time>
      </trkpt>
      <trkpt lat="45.07666" lon="6.12723">
        <ele>1956.1</ele>
        <time>2024-07-09T10:47:04Z</time>
      </trkpt>
      <trkpt lat="45.07668" lon="6.12723">
        <ele>1955.7</ele>
        <time>2024-07-09T10:47:05Z</time>
      </trkpt>
      <trkpt lat="45.07669" lon="6.12724">
        <ele>1955.5</ele>
        <time>2024-07-09T10:47:06Z</time>
      </trkpt>
      <trkpt lat="45.0767" lon="6.12724">
        <ele>1955.3</ele>
        <time>2024-07-09T10:47:07Z</time>
      </trkpt>
      <trkpt lat="45.07671" lon="6.12724">
        <ele>1955.1</ele>
        <time>2024-07-09T10:47:09Z</time>
      </trkpt>
      <trkpt lat="45.07672" lon="6.12725">
        <ele>1954.8</ele>
        <time>2024-07-09T10:47:10Z</time>
      </trkpt>
      <trkpt lat="45.07672" lon="6.12725">
        <ele>1954.8</ele>
        <time>2024-07-09T10:47:11Z</time>
      </trkpt>
      <trkpt lat="45.07674" lon="6.12727">
        <ele>1954.4</ele>
        <time>2024-07-09T10:47:13Z</time>
      </trkpt>
      <trkpt lat="45.07675" lon="6.12727">
        <ele>1954.2</ele>
        <time>2024-07-09T10:47:14Z</time>
      </trkpt>
      <trkpt lat="45.07676" lon="6.12729">
        <ele>1953.8</ele>
        <time>2024-07-09T10:47:16Z</time>
      </trkpt>
      <trkpt lat="45.07677" lon="6.12731">
        <ele>1953.5</ele>
        <time>2024-07-09T10:47:17Z</time>
      </trkpt>
      <trkpt lat="45.07677" lon="6.12731">
        <ele>1953.4</ele>
        <time>2024-07-09T10:47:18Z</time>
      </trkpt>
      <trkpt lat="45.07678" lon="6.12733">
        <ele>1953.2</ele>
        <time>2024-07-09T10:47:19Z</time>
      </trkpt>
      <trkpt lat="45.07679" lon="6.12734">
        <ele>1952.8</ele>
        <time>2024-07-09T10:47:21Z</time>
      </trkpt>
      <trkpt lat="45.07681" lon="6.12737">
        <ele>1952.3</ele>
        <time>2024-07-09T10:47:23Z</time>
      </trkpt>
      <trkpt lat="45.07682" lon="6.12737">
        <ele>1952.1</ele>
        <time>2024-07-09T10:47:24Z</time>
      </trkpt>
      <trkpt lat="45.07683" lon="6.12739">
        <ele>1951.7</ele>
        <time>2024-07-09T10:47:25Z</time>
      </trkpt>
      <trkpt lat="45.07684" lon="6.1274">
        <ele>1951.5</ele>
        <time>2024-07-09T10:47:26Z</time>
      </trkpt>
      <trkpt lat="45.07685" lon="6.12741">
        <ele>1951.3</ele>
        <time>2024-07-09T10:47:27Z</time>
      </trkpt>
      <trkpt lat="45.07686" lon="6.12742">
        <ele>1951.1</ele>
        <time>2024-07-09T10:47:29Z</time>
      </trkpt>
      <trkpt lat="45.07688" lon="6.12743">
        <ele>1950.6</ele>
        <time>2024-07-09T10:47:31Z</time>
      </trkpt>
      <trkpt lat="45.07689" lon="6.12743">
        <ele>1950.4</ele>
        <time>2024-07-09T10:47:33Z</time>
      </trkpt>
      <trkpt lat="45.07691" lon="6.12744">
        <ele>1950</ele>
        <time>2024-07-09T10:47:34Z</time>
      </trkpt>
      <trkpt lat="45.07692" lon="6.12745">
        <ele>1949.7</ele>
        <time>2024-07-09T10:47:35Z</time>
      </trkpt>
      <trkpt lat="45.07693" lon="6.12746">
        <ele>1949.6</ele>
        <time>2024-07-09T10:47:36Z</time>
      </trkpt>
      <trkpt lat="45.07693" lon="6.12746">
        <ele>1949.5</ele>
        <time>2024-07-09T10:47:37Z</time>
      </trkpt>
      <trkpt lat="45.07694" lon="6.12747">
        <ele>1949.4</ele>
        <time>2024-07-09T10:47:38Z</time>
      </trkpt>
      <trkpt lat="45.07696" lon="6.12748">
        <ele>1949</ele>
        <time>2024-07-09T10:47:40Z</time>
      </trkpt>
      <trkpt lat="45.07697" lon="6.12748">
        <ele>1948.9</ele>
        <time>2024-07-09T10:47:41Z</time>
      </trkpt>
      <trkpt lat="45.07697" lon="6.12748">
        <ele>1948.8</ele>
        <time>2024-07-09T10:47:43Z</time>
      </trkpt>
      <trkpt lat="45.07698" lon="6.12749">
        <ele>1948.6</ele>
        <time>2024-07-09T10:47:44Z</time>
      </trkpt>
      <trkpt lat="45.07699" lon="6.12751">
        <ele>1948.3</ele>
        <time>2024-07-09T10:47:45Z</time>
      </trkpt>
      <trkpt lat="45.07701" lon="6.12752">
        <ele>1948</ele>
        <time>2024-07-09T10:47:47Z</time>
      </trkpt>
      <trkpt lat="45.07702" lon="6.12754">
        <ele>1947.6</ele>
        <time>2024-07-09T10:47:48Z</time>
      </trkpt>
      <trkpt lat="45.07703" lon="6.12756">
        <ele>1947.4</ele>
        <time>2024-07-09T10:47:49Z</time>
      </trkpt>
      <trkpt lat="45.07704" lon="6.12756">
        <ele>1947.2</ele>
        <time>2024-07-09T10:47:50Z</time>
      </trkpt>
      <trkpt lat="45.07706" lon="6.12758">
        <ele>1946.9</ele>
        <time>2024-07-09T10:47:51Z</time>
      </trkpt>
      <trkpt lat="45.07707" lon="6.12759">
        <ele>1946.8</ele>
        <time>2024-07-09T10:47:53Z</time>
      </trkpt>
      <trkpt lat="45.07707" lon="6.12759">
        <ele>1946.6</ele>
        <time>2024-07-09T10:47:54Z</time>
      </trkpt>
      <trkpt lat="45.07708" lon="6.1276">
        <ele>1946.5</ele>
        <time>2024-07-09T10:47:55Z</time>
      </trkpt>
      <trkpt lat="45.07709" lon="6.12761">
        <ele>1946.2</ele>
        <time>2024-07-09T10:47:56Z</time>
      </trkpt>
      <trkpt lat="45.07711" lon="6.12762">
        <ele>1946</ele>
        <time>2024-07-09T10:47:58Z</time>
      </trkpt>
      <trkpt lat="45.07712" lon="6.12763">
        <ele>1945.7</ele>
        <time>2024-07-09T10:47:59Z</time>
      </trkpt>
      <trkpt lat="45.07713" lon="6.12764">
        <ele>1945.5</ele>
        <time>2024-07-09T10:48:00Z</time>
      </trkpt>
      <trkpt lat="45.07714" lon="6.12765">
        <ele>1945.3</ele>
        <time>2024-07-09T10:48:01Z</time>
      </trkpt>
      <trkpt lat="45.07715" lon="6.12766">
        <ele>1945</ele>
        <time>2024-07-09T10:48:03Z</time>
      </trkpt>
      <trkpt lat="45.07716" lon="6.12767">
        <ele>1944.8</ele>
        <time>2024-07-09T10:48:04Z</time>
      </trkpt>
      <trkpt lat="45.07717" lon="6.12767">
        <ele>1944.7</ele>
        <time>2024-07-09T10:48:05Z</time>
      </trkpt>
      <trkpt lat="45.07718" lon="6.12768">
        <ele>1944.5</ele>
        <time>2024-07-09T10:48:06Z</time>
      </trkpt>
      <trkpt lat="45.0772" lon="6.12768">
        <ele>1944.1</ele>
        <time>2024-07-09T10:48:07Z</time>
      </trkpt>
      <trkpt lat="45.07721" lon="6.12769">
        <ele>1944</ele>
        <time>2024-07-09T10:48:08Z</time>
      </trkpt>
      <trkpt lat="45.07722" lon="6.12769">
        <ele>1943.9</ele>
        <time>2024-07-09T10:48:09Z</time>
      </trkpt>
      <trkpt lat="45.07722" lon="6.1277">
        <ele>1943.8</ele>
        <time>2024-07-09T10:48:10Z</time>
      </trkpt>
      <trkpt lat="45.07723" lon="6.1277">
        <ele>1943.6</ele>
        <time>2024-07-09T10:48:11Z</time>
      </trkpt>
      <trkpt lat="45.07724" lon="6.12771">
        <ele>1943.4</ele>
        <time>2024-07-09T10:48:12Z</time>
      </trkpt>
      <trkpt lat="45.07725" lon="6.12773">
        <ele>1943.2</ele>
        <time>2024-07-09T10:48:13Z</time>
      </trkpt>
      <trkpt lat="45.07726" lon="6.12774">
        <ele>1943</ele>
        <time>2024-07-09T10:48:14Z</time>
      </trkpt>
      <trkpt lat="45.07726" lon="6.12774">
        <ele>1942.9</ele>
        <time>2024-07-09T10:48:15Z</time>
      </trkpt>
      <trkpt lat="45.07727" lon="6.12775">
        <ele>1942.7</ele>
        <time>2024-07-09T10:48:16Z</time>
      </trkpt>
      <trkpt lat="45.07728" lon="6.12776">
        <ele>1942.5</ele>
        <time>2024-07-09T10:48:17Z</time>
      </trkpt>
      <trkpt lat="45.07728" lon="6.12777">
        <ele>1942.3</ele>
        <time>2024-07-09T10:48:18Z</time>
      </trkpt>
      <trkpt lat="45.07729" lon="6.12778">
        <ele>1942.1</ele>
        <time>2024-07-09T10:48:19Z</time>
      </trkpt>
      <trkpt lat="45.07729" lon="6.12779">
        <ele>1941.9</ele>
        <time>2024-07-09T10:48:20Z</time>
      </trkpt>
      <trkpt lat="45.0773" lon="6.1278">
        <ele>1941.7</ele>
        <time>2024-07-09T10:48:21Z</time>
      </trkpt>
      <trkpt lat="45.07731" lon="6.12781">
        <ele>1941.5</ele>
        <time>2024-07-09T10:48:22Z</time>
      </trkpt>
      <trkpt lat="45.07732" lon="6.12782">
        <ele>1941.2</ele>
        <time>2024-07-09T10:48:23Z</time>
      </trkpt>
      <trkpt lat="45.07733" lon="6.12782">
        <ele>1941.1</ele>
        <time>2024-07-09T10:48:24Z</time>
      </trkpt>
      <trkpt lat="45.07734" lon="6.12783">
        <ele>1940.9</ele>
        <time>2024-07-09T10:48:25Z</time>
      </trkpt>
      <trkpt lat="45.07734" lon="6.12784">
        <ele>1940.7</ele>
        <time>2024-07-09T10:48:26Z</time>
      </trkpt>
      <trkpt lat="45.07735" lon="6.12785">
        <ele>1940.4</ele>
        <time>2024-07-09T10:48:27Z</time>
      </trkpt>
      <trkpt lat="45.07736" lon="6.12786">
        <ele>1940.2</ele>
        <time>2024-07-09T10:48:28Z</time>
      </trkpt>
      <trkpt lat="45.07737" lon="6.12787">
        <ele>1940</ele>
        <time>2024-07-09T10:48:29Z</time>
      </trkpt>
      <trkpt lat="45.07738" lon="6.12788">
        <ele>1939.8</ele>
        <time>2024-07-09T10:48:30Z</time>
      </trkpt>
      <trkpt lat="45.07738" lon="6.12789">
        <ele>1939.5</ele>
        <time>2024-07-09T10:48:31Z</time>
      </trkpt>
      <trkpt lat="45.07739" lon="6.1279">
        <ele>1939.3</ele>
        <time>2024-07-09T10:48:32Z</time>
      </trkpt>
      <trkpt lat="45.0774" lon="6.12791">
        <ele>1939</ele>
        <time>2024-07-09T10:48:33Z</time>
      </trkpt>
      <trkpt lat="45.0774" lon="6.12792">
        <ele>1938.9</ele>
        <time>2024-07-09T10:48:34Z</time>
      </trkpt>
      <trkpt lat="45.07741" lon="6.12793">
        <ele>1938.6</ele>
        <time>2024-07-09T10:48:35Z</time>
      </trkpt>
      <trkpt lat="45.07742" lon="6.12794">
        <ele>1938.4</ele>
        <time>2024-07-09T10:48:36Z</time>
      </trkpt>
      <trkpt lat="45.07743" lon="6.12796">
        <ele>1937.9</ele>
        <time>2024-07-09T10:48:38Z</time>
      </trkpt>
      <trkpt lat="45.07744" lon="6.12796">
        <ele>1937.7</ele>
        <time>2024-07-09T10:48:39Z</time>
      </trkpt>
      <trkpt lat="45.07745" lon="6.12796">
        <ele>1937.5</ele>
        <time>2024-07-09T10:48:40Z</time>
      </trkpt>
      <trkpt lat="45.07745" lon="6.12797">
        <ele>1937.3</ele>
        <time>2024-07-09T10:48:41Z</time>
      </trkpt>
      <trkpt lat="45.07746" lon="6.12798">
        <ele>1937.1</ele>
        <time>2024-07-09T10:48:42Z</time>
      </trkpt>
      <trkpt lat="45.07746" lon="6.12799">
        <ele>1936.8</ele>
        <time>2024-07-09T10:48:43Z</time>
      </trkpt>
      <trkpt lat="45.07747" lon="6.128">
        <ele>1936.6</ele>
        <time>2024-07-09T10:48:44Z</time>
      </trkpt>
      <trkpt lat="45.07747" lon="6.12802">
        <ele>1936.4</ele>
        <time>2024-07-09T10:48:45Z</time>
      </trkpt>
      <trkpt lat="45.07747" lon="6.12802">
        <ele>1936.2</ele>
        <time>2024-07-09T10:48:46Z</time>
      </trkpt>
      <trkpt lat="45.07747" lon="6.12804">
        <ele>1936</ele>
        <time>2024-07-09T10:48:47Z</time>
      </trkpt>
      <trkpt lat="45.07747" lon="6.12806">
        <ele>1935.5</ele>
        <time>2024-07-09T10:48:49Z</time>
      </trkpt>
      <trkpt lat="45.07748" lon="6.12808">
        <ele>1935.3</ele>
        <time>2024-07-09T10:48:50Z</time>
      </trkpt>
      <trkpt lat="45.07748" lon="6.12809">
        <ele>1935.1</ele>
        <time>2024-07-09T10:48:51Z</time>
      </trkpt>
      <trkpt lat="45.07748" lon="6.1281">
        <ele>1934.9</ele>
        <time>2024-07-09T10:48:52Z</time>
      </trkpt>
      <trkpt lat="45.07749" lon="6.12811">
        <ele>1934.7</ele>
        <time>2024-07-09T10:48:53Z</time>
      </trkpt>
      <trkpt lat="45.07749" lon="6.12812">
        <ele>1934.5</ele>
        <time>2024-07-09T10:48:54Z</time>
      </trkpt>
      <trkpt lat="45.0775" lon="6.12814">
        <ele>1934.2</ele>
        <time>2024-07-09T10:48:55Z</time>
      </trkpt>
      <trkpt lat="45.07751" lon="6.12814">
        <ele>1934</ele>
        <time>2024-07-09T10:48:56Z</time>
      </trkpt>
      <trkpt lat="45.07751" lon="6.12815">
        <ele>1933.8</ele>
        <time>2024-07-09T10:48:57Z</time>
      </trkpt>
      <trkpt lat="45.07753" lon="6.12817">
        <ele>1933.3</ele>
        <time>2024-07-09T10:48:59Z</time>
      </trkpt>
      <trkpt lat="45.07754" lon="6.12818">
        <ele>1933.1</ele>
        <time>2024-07-09T10:49:00Z</time>
      </trkpt>
      <trkpt lat="45.07755" lon="6.12819">
        <ele>1932.9</ele>
        <time>2024-07-09T10:49:01Z</time>
      </trkpt>
      <trkpt lat="45.07755" lon="6.12819">
        <ele>1932.8</ele>
        <time>2024-07-09T10:49:02Z</time>
      </trkpt>
      <trkpt lat="45.07756" lon="6.12821">
        <ele>1932.4</ele>
        <time>2024-07-09T10:49:04Z</time>
      </trkpt>
      <trkpt lat="45.07757" lon="6.12822">
        <ele>1932.2</ele>
        <time>2024-07-09T10:49:05Z</time>
      </trkpt>
      <trkpt lat="45.07757" lon="6.12823">
        <ele>1932.1</ele>
        <time>2024-07-09T10:49:06Z</time>
      </trkpt>
      <trkpt lat="45.07758" lon="6.12823">
        <ele>1931.9</ele>
        <time>2024-07-09T10:49:07Z</time>
      </trkpt>
      <trkpt lat="45.07759" lon="6.12825">
        <ele>1931.6</ele>
        <time>2024-07-09T10:49:09Z</time>
      </trkpt>
      <trkpt lat="45.0776" lon="6.12826">
        <ele>1931.3</ele>
        <time>2024-07-09T10:49:10Z</time>
      </trkpt>
      <trkpt lat="45.0776" lon="6.12827">
        <ele>1931.2</ele>
        <time>2024-07-09T10:49:11Z</time>
      </trkpt>
      <trkpt lat="45.07761" lon="6.12827">
        <ele>1931</ele>
        <time>2024-07-09T10:49:12Z</time>
      </trkpt>
      <trkpt lat="45.07763" lon="6.12829">
        <ele>1930.5</ele>
        <time>2024-07-09T10:49:14Z</time>
      </trkpt>
      <trkpt lat="45.07764" lon="6.12829">
        <ele>1930.4</ele>
        <time>2024-07-09T10:49:15Z</time>
      </trkpt>
      <trkpt lat="45.07764" lon="6.1283">
        <ele>1930.2</ele>
        <time>2024-07-09T10:49:16Z</time>
      </trkpt>
      <trkpt lat="45.07765" lon="6.12831">
        <ele>1930</ele>
        <time>2024-07-09T10:49:17Z</time>
      </trkpt>
      <trkpt lat="45.07766" lon="6.12831">
        <ele>1929.7</ele>
        <time>2024-07-09T10:49:18Z</time>
      </trkpt>
      <trkpt lat="45.07767" lon="6.12831">
        <ele>1929.6</ele>
        <time>2024-07-09T10:49:19Z</time>
      </trkpt>
      <trkpt lat="45.07767" lon="6.12832">
        <ele>1929.6</ele>
        <time>2024-07-09T10:49:20Z</time>
      </trkpt>
      <trkpt lat="45.07767" lon="6.12832">
        <ele>1929.5</ele>
        <time>2024-07-09T10:49:21Z</time>
      </trkpt>
      <trkpt lat="45.07768" lon="6.12832">
        <ele>1929.4</ele>
        <time>2024-07-09T10:49:22Z</time>
      </trkpt>
      <trkpt lat="45.07769" lon="6.12832">
        <ele>1929</ele>
        <time>2024-07-09T10:49:24Z</time>
      </trkpt>
      <trkpt lat="45.0777" lon="6.12832">
        <ele>1928.9</ele>
        <time>2024-07-09T10:49:25Z</time>
      </trkpt>
      <trkpt lat="45.07771" lon="6.12832">
        <ele>1928.6</ele>
        <time>2024-07-09T10:49:26Z</time>
      </trkpt>
      <trkpt lat="45.07771" lon="6.12832">
        <ele>1928.4</ele>
        <time>2024-07-09T10:49:27Z</time>
      </trkpt>
      <trkpt lat="45.07773" lon="6.12831">
        <ele>1928.1</ele>
        <time>2024-07-09T10:49:28Z</time>
      </trkpt>
      <trkpt lat="45.07773" lon="6.12831">
        <ele>1927.9</ele>
        <time>2024-07-09T10:49:30Z</time>
      </trkpt>
      <trkpt lat="45.07775" lon="6.1283">
        <ele>1927.4</ele>
        <time>2024-07-09T10:49:31Z</time>
      </trkpt>
      <trkpt lat="45.07776" lon="6.1283">
        <ele>1927.2</ele>
        <time>2024-07-09T10:49:32Z</time>
      </trkpt>
      <trkpt lat="45.07778" lon="6.12831">
        <ele>1926.6</ele>
        <time>2024-07-09T10:49:34Z</time>
      </trkpt>
      <trkpt lat="45.07779" lon="6.12831">
        <ele>1926.3</ele>
        <time>2024-07-09T10:49:35Z</time>
      </trkpt>
      <trkpt lat="45.0778" lon="6.12831">
        <ele>1926</ele>
        <time>2024-07-09T10:49:36Z</time>
      </trkpt>
      <trkpt lat="45.07781" lon="6.12832">
        <ele>1925.8</ele>
        <time>2024-07-09T10:49:37Z</time>
      </trkpt>
      <trkpt lat="45.07781" lon="6.12833">
        <ele>1925.6</ele>
        <time>2024-07-09T10:49:39Z</time>
      </trkpt>
      <trkpt lat="45.07781" lon="6.12834">
        <ele>1925.3</ele>
        <time>2024-07-09T10:49:40Z</time>
      </trkpt>
      <trkpt lat="45.07782" lon="6.12837">
        <ele>1924.7</ele>
        <time>2024-07-09T10:49:41Z</time>
      </trkpt>
      <trkpt lat="45.07782" lon="6.12838">
        <ele>1924.6</ele>
        <time>2024-07-09T10:49:42Z</time>
      </trkpt>
      <trkpt lat="45.07783" lon="6.12839">
        <ele>1924.3</ele>
        <time>2024-07-09T10:49:44Z</time>
      </trkpt>
      <trkpt lat="45.07784" lon="6.12842">
        <ele>1923.8</ele>
        <time>2024-07-09T10:49:45Z</time>
      </trkpt>
      <trkpt lat="45.07786" lon="6.12842">
        <ele>1923.3</ele>
        <time>2024-07-09T10:49:46Z</time>
      </trkpt>
      <trkpt lat="45.07787" lon="6.12842">
        <ele>1923.1</ele>
        <time>2024-07-09T10:49:48Z</time>
      </trkpt>
      <trkpt lat="45.07788" lon="6.12841">
        <ele>1922.9</ele>
        <time>2024-07-09T10:49:49Z</time>
      </trkpt>
      <trkpt lat="45.07788" lon="6.12841">
        <ele>1922.6</ele>
        <time>2024-07-09T10:49:50Z</time>
      </trkpt>
      <trkpt lat="45.0779" lon="6.12842">
        <ele>1922.2</ele>
        <time>2024-07-09T10:49:52Z</time>
      </trkpt>
      <trkpt lat="45.07791" lon="6.12843">
        <ele>1922</ele>
        <time>2024-07-09T10:49:54Z</time>
      </trkpt>
      <trkpt lat="45.07792" lon="6.12843">
        <ele>1921.8</ele>
        <time>2024-07-09T10:49:55Z</time>
      </trkpt>
      <trkpt lat="45.07792" lon="6.12844">
        <ele>1921.6</ele>
        <time>2024-07-09T10:49:56Z</time>
      </trkpt>
      <trkpt lat="45.07794" lon="6.12847">
        <ele>1921</ele>
        <time>2024-07-09T10:49:57Z</time>
      </trkpt>
      <trkpt lat="45.07795" lon="6.12848">
        <ele>1920.8</ele>
        <time>2024-07-09T10:49:58Z</time>
      </trkpt>
      <trkpt lat="45.07796" lon="6.12849">
        <ele>1920.6</ele>
        <time>2024-07-09T10:49:59Z</time>
      </trkpt>
      <trkpt lat="45.07797" lon="6.1285">
        <ele>1920.4</ele>
        <time>2024-07-09T10:50:00Z</time>
      </trkpt>
      <trkpt lat="45.07797" lon="6.1285">
        <ele>1920.3</ele>
        <time>2024-07-09T10:50:02Z</time>
      </trkpt>
      <trkpt lat="45.07798" lon="6.12851">
        <ele>1920.1</ele>
        <time>2024-07-09T10:50:03Z</time>
      </trkpt>
      <trkpt lat="45.07799" lon="6.12852">
        <ele>1920</ele>
        <time>2024-07-09T10:50:04Z</time>
      </trkpt>
      <trkpt lat="45.078" lon="6.12854">
        <ele>1919.6</ele>
        <time>2024-07-09T10:50:05Z</time>
      </trkpt>
      <trkpt lat="45.07801" lon="6.12854">
        <ele>1919.5</ele>
        <time>2024-07-09T10:50:06Z</time>
      </trkpt>
      <trkpt lat="45.07802" lon="6.12855">
        <ele>1919.3</ele>
        <time>2024-07-09T10:50:07Z</time>
      </trkpt>
      <trkpt lat="45.07803" lon="6.12856">
        <ele>1919.1</ele>
        <time>2024-07-09T10:50:08Z</time>
      </trkpt>
      <trkpt lat="45.07804" lon="6.12856">
        <ele>1919</ele>
        <time>2024-07-09T10:50:09Z</time>
      </trkpt>
      <trkpt lat="45.07804" lon="6.12857">
        <ele>1918.9</ele>
        <time>2024-07-09T10:50:10Z</time>
      </trkpt>
      <trkpt lat="45.07805" lon="6.12858">
        <ele>1918.7</ele>
        <time>2024-07-09T10:50:11Z</time>
      </trkpt>
      <trkpt lat="45.07806" lon="6.12859">
        <ele>1918.6</ele>
        <time>2024-07-09T10:50:12Z</time>
      </trkpt>
      <trkpt lat="45.07807" lon="6.1286">
        <ele>1918.4</ele>
        <time>2024-07-09T10:50:13Z</time>
      </trkpt>
      <trkpt lat="45.07807" lon="6.12861">
        <ele>1918.3</ele>
        <time>2024-07-09T10:50:14Z</time>
      </trkpt>
      <trkpt lat="45.07807" lon="6.12862">
        <ele>1918.2</ele>
        <time>2024-07-09T10:50:15Z</time>
      </trkpt>
      <trkpt lat="45.07808" lon="6.12863">
        <ele>1918.1</ele>
        <time>2024-07-09T10:50:16Z</time>
      </trkpt>
      <trkpt lat="45.07808" lon="6.12864">
        <ele>1918</ele>
        <time>2024-07-09T10:50:17Z</time>
      </trkpt>
      <trkpt lat="45.07809" lon="6.12865">
        <ele>1917.9</ele>
        <time>2024-07-09T10:50:19Z</time>
      </trkpt>
      <trkpt lat="45.07811" lon="6.12866">
        <ele>1917.7</ele>
        <time>2024-07-09T10:50:20Z</time>
      </trkpt>
      <trkpt lat="45.07812" lon="6.12867">
        <ele>1917.5</ele>
        <time>2024-07-09T10:50:21Z</time>
      </trkpt>
      <trkpt lat="45.07813" lon="6.12868">
        <ele>1917.4</ele>
        <time>2024-07-09T10:50:23Z</time>
      </trkpt>
      <trkpt lat="45.07813" lon="6.12869">
        <ele>1917.3</ele>
        <time>2024-07-09T10:50:24Z</time>
      </trkpt>
      <trkpt lat="45.07814" lon="6.12871">
        <ele>1917</ele>
        <time>2024-07-09T10:50:25Z</time>
      </trkpt>
      <trkpt lat="45.07815" lon="6.12872">
        <ele>1916.9</ele>
        <time>2024-07-09T10:50:26Z</time>
      </trkpt>
      <trkpt lat="45.07815" lon="6.12874">
        <ele>1916.7</ele>
        <time>2024-07-09T10:50:27Z</time>
      </trkpt>
      <trkpt lat="45.07816" lon="6.12875">
        <ele>1916.6</ele>
        <time>2024-07-09T10:50:28Z</time>
      </trkpt>
      <trkpt lat="45.07817" lon="6.12878">
        <ele>1916.4</ele>
        <time>2024-07-09T10:50:30Z</time>
      </trkpt>
      <trkpt lat="45.07817" lon="6.12879">
        <ele>1916.3</ele>
        <time>2024-07-09T10:50:31Z</time>
      </trkpt>
      <trkpt lat="45.07818" lon="6.1288">
        <ele>1916.2</ele>
        <time>2024-07-09T10:50:32Z</time>
      </trkpt>
      <trkpt lat="45.07819" lon="6.12883">
        <ele>1915.9</ele>
        <time>2024-07-09T10:50:34Z</time>
      </trkpt>
      <trkpt lat="45.07819" lon="6.12884">
        <ele>1915.8</ele>
        <time>2024-07-09T10:50:35Z</time>
      </trkpt>
      <trkpt lat="45.0782" lon="6.12887">
        <ele>1915.5</ele>
        <time>2024-07-09T10:50:37Z</time>
      </trkpt>
      <trkpt lat="45.0782" lon="6.12889">
        <ele>1915.3</ele>
        <time>2024-07-09T10:50:39Z</time>
      </trkpt>
      <trkpt lat="45.07821" lon="6.12892">
        <ele>1915</ele>
        <time>2024-07-09T10:50:40Z</time>
      </trkpt>
      <trkpt lat="45.07822" lon="6.12893">
        <ele>1914.8</ele>
        <time>2024-07-09T10:50:41Z</time>
      </trkpt>
      <trkpt lat="45.07822" lon="6.12895">
        <ele>1914.7</ele>
        <time>2024-07-09T10:50:42Z</time>
      </trkpt>
      <trkpt lat="45.07823" lon="6.12896">
        <ele>1914.5</ele>
        <time>2024-07-09T10:50:44Z</time>
      </trkpt>
      <trkpt lat="45.07823" lon="6.129">
        <ele>1914.1</ele>
        <time>2024-07-09T10:50:45Z</time>
      </trkpt>
      <trkpt lat="45.07823" lon="6.12901">
        <ele>1913.9</ele>
        <time>2024-07-09T10:50:46Z</time>
      </trkpt>
      <trkpt lat="45.07824" lon="6.12903">
        <ele>1913.8</ele>
        <time>2024-07-09T10:50:48Z</time>
      </trkpt>
      <trkpt lat="45.07825" lon="6.12906">
        <ele>1913.3</ele>
        <time>2024-07-09T10:50:49Z</time>
      </trkpt>
      <trkpt lat="45.07825" lon="6.12908">
        <ele>1913.1</ele>
        <time>2024-07-09T10:50:50Z</time>
      </trkpt>
      <trkpt lat="45.07825" lon="6.12909">
        <ele>1912.9</ele>
        <time>2024-07-09T10:50:51Z</time>
      </trkpt>
      <trkpt lat="45.07825" lon="6.12911">
        <ele>1912.7</ele>
        <time>2024-07-09T10:50:52Z</time>
      </trkpt>
      <trkpt lat="45.07826" lon="6.12913">
        <ele>1912.5</ele>
        <time>2024-07-09T10:50:54Z</time>
      </trkpt>
      <trkpt lat="45.07826" lon="6.12915">
        <ele>1912.1</ele>
        <time>2024-07-09T10:50:55Z</time>
      </trkpt>
      <trkpt lat="45.07827" lon="6.12916">
        <ele>1911.9</ele>
        <time>2024-07-09T10:50:56Z</time>
      </trkpt>
      <trkpt lat="45.07827" lon="6.12917">
        <ele>1911.7</ele>
        <time>2024-07-09T10:50:58Z</time>
      </trkpt>
      <trkpt lat="45.07828" lon="6.12919">
        <ele>1911.5</ele>
        <time>2024-07-09T10:50:59Z</time>
      </trkpt>
      <trkpt lat="45.07828" lon="6.12922">
        <ele>1911.1</ele>
        <time>2024-07-09T10:51:00Z</time>
      </trkpt>
      <trkpt lat="45.07828" lon="6.12923">
        <ele>1910.9</ele>
        <time>2024-07-09T10:51:01Z</time>
      </trkpt>
      <trkpt lat="45.07829" lon="6.12924">
        <ele>1910.7</ele>
        <time>2024-07-09T10:51:02Z</time>
      </trkpt>
      <trkpt lat="45.0783" lon="6.12926">
        <ele>1910.2</ele>
        <time>2024-07-09T10:51:04Z</time>
      </trkpt>
      <trkpt lat="45.07831" lon="6.12927">
        <ele>1910</ele>
        <time>2024-07-09T10:51:05Z</time>
      </trkpt>
      <trkpt lat="45.07832" lon="6.12928">
        <ele>1909.8</ele>
        <time>2024-07-09T10:51:06Z</time>
      </trkpt>
      <trkpt lat="45.07832" lon="6.12929">
        <ele>1909.6</ele>
        <time>2024-07-09T10:51:07Z</time>
      </trkpt>
      <trkpt lat="45.07834" lon="6.12932">
        <ele>1908.9</ele>
        <time>2024-07-09T10:51:09Z</time>
      </trkpt>
      <trkpt lat="45.07834" lon="6.12933">
        <ele>1908.8</ele>
        <time>2024-07-09T10:51:10Z</time>
      </trkpt>
      <trkpt lat="45.07835" lon="6.12935">
        <ele>1908.5</ele>
        <time>2024-07-09T10:51:11Z</time>
      </trkpt>
      <trkpt lat="45.07836" lon="6.12936">
        <ele>1908.2</ele>
        <time>2024-07-09T10:51:12Z</time>
      </trkpt>
      <trkpt lat="45.07837" lon="6.12937">
        <ele>1908</ele>
        <time>2024-07-09T10:51:14Z</time>
      </trkpt>
      <trkpt lat="45.07838" lon="6.12939">
        <ele>1907.6</ele>
        <time>2024-07-09T10:51:15Z</time>
      </trkpt>
      <trkpt lat="45.07839" lon="6.1294">
        <ele>1907.3</ele>
        <time>2024-07-09T10:51:16Z</time>
      </trkpt>
      <trkpt lat="45.0784" lon="6.1294">
        <ele>1907.2</ele>
        <time>2024-07-09T10:51:17Z</time>
      </trkpt>
      <trkpt lat="45.07841" lon="6.12941">
        <ele>1906.8</ele>
        <time>2024-07-09T10:51:18Z</time>
      </trkpt>
      <trkpt lat="45.07842" lon="6.12943">
        <ele>1906.4</ele>
        <time>2024-07-09T10:51:20Z</time>
      </trkpt>
      <trkpt lat="45.07843" lon="6.12944">
        <ele>1906.1</ele>
        <time>2024-07-09T10:51:21Z</time>
      </trkpt>
      <trkpt lat="45.07844" lon="6.12945">
        <ele>1905.9</ele>
        <time>2024-07-09T10:51:22Z</time>
      </trkpt>
      <trkpt lat="45.07845" lon="6.12946">
        <ele>1905.5</ele>
        <time>2024-07-09T10:51:24Z</time>
      </trkpt>
      <trkpt lat="45.07846" lon="6.12946">
        <ele>1905.3</ele>
        <time>2024-07-09T10:51:25Z</time>
      </trkpt>
      <trkpt lat="45.07847" lon="6.12947">
        <ele>1905</ele>
        <time>2024-07-09T10:51:26Z</time>
      </trkpt>
      <trkpt lat="45.07847" lon="6.12948">
        <ele>1904.9</ele>
        <time>2024-07-09T10:51:27Z</time>
      </trkpt>
      <trkpt lat="45.07848" lon="6.12949">
        <ele>1904.5</ele>
        <time>2024-07-09T10:51:28Z</time>
      </trkpt>
      <trkpt lat="45.07849" lon="6.1295">
        <ele>1904.4</ele>
        <time>2024-07-09T10:51:29Z</time>
      </trkpt>
      <trkpt lat="45.07849" lon="6.12951">
        <ele>1904.2</ele>
        <time>2024-07-09T10:51:30Z</time>
      </trkpt>
      <trkpt lat="45.07849" lon="6.12951">
        <ele>1904</ele>
        <time>2024-07-09T10:51:31Z</time>
      </trkpt>
      <trkpt lat="45.0785" lon="6.12952">
        <ele>1903.9</ele>
        <time>2024-07-09T10:51:32Z</time>
      </trkpt>
      <trkpt lat="45.07851" lon="6.12952">
        <ele>1903.6</ele>
        <time>2024-07-09T10:51:34Z</time>
      </trkpt>
      <trkpt lat="45.07852" lon="6.12953">
        <ele>1903.3</ele>
        <time>2024-07-09T10:51:35Z</time>
      </trkpt>
      <trkpt lat="45.07853" lon="6.12957">
        <ele>1902.6</ele>
        <time>2024-07-09T10:51:37Z</time>
      </trkpt>
      <trkpt lat="45.07853" lon="6.12958">
        <ele>1902.4</ele>
        <time>2024-07-09T10:51:39Z</time>
      </trkpt>
      <trkpt lat="45.07853" lon="6.12959">
        <ele>1902.2</ele>
        <time>2024-07-09T10:51:40Z</time>
      </trkpt>
      <trkpt lat="45.07853" lon="6.12961">
        <ele>1901.9</ele>
        <time>2024-07-09T10:51:41Z</time>
      </trkpt>
      <trkpt lat="45.07853" lon="6.12962">
        <ele>1901.7</ele>
        <time>2024-07-09T10:51:42Z</time>
      </trkpt>
      <trkpt lat="45.07854" lon="6.12963">
        <ele>1901.5</ele>
        <time>2024-07-09T10:51:44Z</time>
      </trkpt>
      <trkpt lat="45.07855" lon="6.12965">
        <ele>1901.1</ele>
        <time>2024-07-09T10:51:45Z</time>
      </trkpt>
      <trkpt lat="45.07855" lon="6.12966">
        <ele>1900.8</ele>
        <time>2024-07-09T10:51:46Z</time>
      </trkpt>
      <trkpt lat="45.07856" lon="6.12968">
        <ele>1900.6</ele>
        <time>2024-07-09T10:51:47Z</time>
      </trkpt>
      <trkpt lat="45.07856" lon="6.12969">
        <ele>1900.4</ele>
        <time>2024-07-09T10:51:49Z</time>
      </trkpt>
      <trkpt lat="45.07856" lon="6.12971">
        <ele>1900.1</ele>
        <time>2024-07-09T10:51:50Z</time>
      </trkpt>
      <trkpt lat="45.07857" lon="6.12973">
        <ele>1899.7</ele>
        <time>2024-07-09T10:51:51Z</time>
      </trkpt>
      <trkpt lat="45.07857" lon="6.12974">
        <ele>1899.6</ele>
        <time>2024-07-09T10:51:53Z</time>
      </trkpt>
      <trkpt lat="45.07857" lon="6.12975">
        <ele>1899.4</ele>
        <time>2024-07-09T10:51:54Z</time>
      </trkpt>
      <trkpt lat="45.07857" lon="6.12976">
        <ele>1899.3</ele>
        <time>2024-07-09T10:51:55Z</time>
      </trkpt>
      <trkpt lat="45.07858" lon="6.12978">
        <ele>1899</ele>
        <time>2024-07-09T10:51:56Z</time>
      </trkpt>
      <trkpt lat="45.07858" lon="6.12979">
        <ele>1898.8</ele>
        <time>2024-07-09T10:51:57Z</time>
      </trkpt>
      <trkpt lat="45.0786" lon="6.12981">
        <ele>1898.3</ele>
        <time>2024-07-09T10:51:59Z</time>
      </trkpt>
      <trkpt lat="45.0786" lon="6.12982">
        <ele>1898.2</ele>
        <time>2024-07-09T10:52:00Z</time>
      </trkpt>
      <trkpt lat="45.07861" lon="6.12983">
        <ele>1898</ele>
        <time>2024-07-09T10:52:01Z</time>
      </trkpt>
      <trkpt lat="45.07862" lon="6.12984">
        <ele>1897.8</ele>
        <time>2024-07-09T10:52:02Z</time>
      </trkpt>
      <trkpt lat="45.07863" lon="6.12985">
        <ele>1897.5</ele>
        <time>2024-07-09T10:52:04Z</time>
      </trkpt>
      <trkpt lat="45.07864" lon="6.12986">
        <ele>1897.1</ele>
        <time>2024-07-09T10:52:05Z</time>
      </trkpt>
      <trkpt lat="45.07865" lon="6.12987">
        <ele>1897</ele>
        <time>2024-07-09T10:52:06Z</time>
      </trkpt>
      <trkpt lat="45.07865" lon="6.12988">
        <ele>1896.8</ele>
        <time>2024-07-09T10:52:08Z</time>
      </trkpt>
      <trkpt lat="45.07866" lon="6.12988">
        <ele>1896.6</ele>
        <time>2024-07-09T10:52:09Z</time>
      </trkpt>
      <trkpt lat="45.07867" lon="6.12989">
        <ele>1896.4</ele>
        <time>2024-07-09T10:52:10Z</time>
      </trkpt>
      <trkpt lat="45.07868" lon="6.12991">
        <ele>1896.1</ele>
        <time>2024-07-09T10:52:11Z</time>
      </trkpt>
      <trkpt lat="45.07869" lon="6.12992">
        <ele>1895.9</ele>
        <time>2024-07-09T10:52:12Z</time>
      </trkpt>
      <trkpt lat="45.07869" lon="6.12993">
        <ele>1895.7</ele>
        <time>2024-07-09T10:52:14Z</time>
      </trkpt>
      <trkpt lat="45.0787" lon="6.12995">
        <ele>1895.4</ele>
        <time>2024-07-09T10:52:15Z</time>
      </trkpt>
      <trkpt lat="45.0787" lon="6.12996">
        <ele>1895.2</ele>
        <time>2024-07-09T10:52:16Z</time>
      </trkpt>
      <trkpt lat="45.07871" lon="6.12997">
        <ele>1895</ele>
        <time>2024-07-09T10:52:17Z</time>
      </trkpt>
      <trkpt lat="45.07872" lon="6.12998">
        <ele>1894.8</ele>
        <time>2024-07-09T10:52:18Z</time>
      </trkpt>
      <trkpt lat="45.07873" lon="6.12998">
        <ele>1894.6</ele>
        <time>2024-07-09T10:52:19Z</time>
      </trkpt>
      <trkpt lat="45.07873" lon="6.12999">
        <ele>1894.5</ele>
        <time>2024-07-09T10:52:20Z</time>
      </trkpt>
      <trkpt lat="45.07874" lon="6.13">
        <ele>1894.3</ele>
        <time>2024-07-09T10:52:21Z</time>
      </trkpt>
      <trkpt lat="45.07875" lon="6.13001">
        <ele>1894.1</ele>
        <time>2024-07-09T10:52:22Z</time>
      </trkpt>
      <trkpt lat="45.07875" lon="6.13002">
        <ele>1894</ele>
        <time>2024-07-09T10:52:23Z</time>
      </trkpt>
      <trkpt lat="45.07876" lon="6.13002">
        <ele>1893.8</ele>
        <time>2024-07-09T10:52:25Z</time>
      </trkpt>
      <trkpt lat="45.07877" lon="6.13004">
        <ele>1893.5</ele>
        <time>2024-07-09T10:52:26Z</time>
      </trkpt>
      <trkpt lat="45.07877" lon="6.13005">
        <ele>1893.3</ele>
        <time>2024-07-09T10:52:27Z</time>
      </trkpt>
      <trkpt lat="45.07878" lon="6.13007">
        <ele>1893.1</ele>
        <time>2024-07-09T10:52:28Z</time>
      </trkpt>
      <trkpt lat="45.0788" lon="6.13008">
        <ele>1892.9</ele>
        <time>2024-07-09T10:52:30Z</time>
      </trkpt>
      <trkpt lat="45.0788" lon="6.13009">
        <ele>1892.7</ele>
        <time>2024-07-09T10:52:31Z</time>
      </trkpt>
      <trkpt lat="45.0788" lon="6.1301">
        <ele>1892.6</ele>
        <time>2024-07-09T10:52:32Z</time>
      </trkpt>
      <trkpt lat="45.07881" lon="6.13012">
        <ele>1892.4</ele>
        <time>2024-07-09T10:52:33Z</time>
      </trkpt>
      <trkpt lat="45.07882" lon="6.13014">
        <ele>1892.1</ele>
        <time>2024-07-09T10:52:35Z</time>
      </trkpt>
      <trkpt lat="45.07882" lon="6.13015">
        <ele>1892</ele>
        <time>2024-07-09T10:52:36Z</time>
      </trkpt>
      <trkpt lat="45.07882" lon="6.13016">
        <ele>1891.8</ele>
        <time>2024-07-09T10:52:37Z</time>
      </trkpt>
      <trkpt lat="45.07883" lon="6.13017">
        <ele>1891.6</ele>
        <time>2024-07-09T10:52:38Z</time>
      </trkpt>
      <trkpt lat="45.07883" lon="6.13019">
        <ele>1891.5</ele>
        <time>2024-07-09T10:52:39Z</time>
      </trkpt>
      <trkpt lat="45.07882" lon="6.1302">
        <ele>1891.3</ele>
        <time>2024-07-09T10:52:40Z</time>
      </trkpt>
      <trkpt lat="45.07883" lon="6.13021">
        <ele>1891.2</ele>
        <time>2024-07-09T10:52:41Z</time>
      </trkpt>
      <trkpt lat="45.07883" lon="6.13022">
        <ele>1891</ele>
        <time>2024-07-09T10:52:42Z</time>
      </trkpt>
      <trkpt lat="45.07883" lon="6.13024">
        <ele>1890.9</ele>
        <time>2024-07-09T10:52:43Z</time>
      </trkpt>
      <trkpt lat="45.07884" lon="6.13027">
        <ele>1890.6</ele>
        <time>2024-07-09T10:52:45Z</time>
      </trkpt>
      <trkpt lat="45.07884" lon="6.13028">
        <ele>1890.4</ele>
        <time>2024-07-09T10:52:46Z</time>
      </trkpt>
      <trkpt lat="45.07885" lon="6.13029">
        <ele>1890.2</ele>
        <time>2024-07-09T10:52:47Z</time>
      </trkpt>
      <trkpt lat="45.07885" lon="6.1303">
        <ele>1890.1</ele>
        <time>2024-07-09T10:52:48Z</time>
      </trkpt>
      <trkpt lat="45.07886" lon="6.13032">
        <ele>1889.9</ele>
        <time>2024-07-09T10:52:50Z</time>
      </trkpt>
      <trkpt lat="45.07887" lon="6.13034">
        <ele>1889.5</ele>
        <time>2024-07-09T10:52:51Z</time>
      </trkpt>
      <trkpt lat="45.07888" lon="6.13037">
        <ele>1889.2</ele>
        <time>2024-07-09T10:52:53Z</time>
      </trkpt>
      <trkpt lat="45.07888" lon="6.13038">
        <ele>1889</ele>
        <time>2024-07-09T10:52:54Z</time>
      </trkpt>
      <trkpt lat="45.07888" lon="6.13039">
        <ele>1888.9</ele>
        <time>2024-07-09T10:52:55Z</time>
      </trkpt>
      <trkpt lat="45.07889" lon="6.13039">
        <ele>1888.7</ele>
        <time>2024-07-09T10:52:56Z</time>
      </trkpt>
      <trkpt lat="45.0789" lon="6.1304">
        <ele>1888.5</ele>
        <time>2024-07-09T10:52:57Z</time>
      </trkpt>
      <trkpt lat="45.07891" lon="6.13041">
        <ele>1888.2</ele>
        <time>2024-07-09T10:52:59Z</time>
      </trkpt>
      <trkpt lat="45.07892" lon="6.13042">
        <ele>1888.1</ele>
        <time>2024-07-09T10:53:00Z</time>
      </trkpt>
      <trkpt lat="45.07892" lon="6.13043">
        <ele>1887.9</ele>
        <time>2024-07-09T10:53:01Z</time>
      </trkpt>
      <trkpt lat="45.07893" lon="6.13044">
        <ele>1887.8</ele>
        <time>2024-07-09T10:53:02Z</time>
      </trkpt>
      <trkpt lat="45.07893" lon="6.13045">
        <ele>1887.6</ele>
        <time>2024-07-09T10:53:03Z</time>
      </trkpt>
      <trkpt lat="45.07894" lon="6.13047">
        <ele>1887.3</ele>
        <time>2024-07-09T10:53:05Z</time>
      </trkpt>
      <trkpt lat="45.07894" lon="6.13048">
        <ele>1887.1</ele>
        <time>2024-07-09T10:53:06Z</time>
      </trkpt>
      <trkpt lat="45.07895" lon="6.13049">
        <ele>1886.9</ele>
        <time>2024-07-09T10:53:07Z</time>
      </trkpt>
      <trkpt lat="45.07895" lon="6.13051">
        <ele>1886.7</ele>
        <time>2024-07-09T10:53:08Z</time>
      </trkpt>
      <trkpt lat="45.07896" lon="6.13052">
        <ele>1886.5</ele>
        <time>2024-07-09T10:53:10Z</time>
      </trkpt>
      <trkpt lat="45.07897" lon="6.13053">
        <ele>1886.2</ele>
        <time>2024-07-09T10:53:11Z</time>
      </trkpt>
      <trkpt lat="45.07897" lon="6.13054">
        <ele>1886.1</ele>
        <time>2024-07-09T10:53:12Z</time>
      </trkpt>
      <trkpt lat="45.07898" lon="6.13054">
        <ele>1885.9</ele>
        <time>2024-07-09T10:53:13Z</time>
      </trkpt>
      <trkpt lat="45.07899" lon="6.13055">
        <ele>1885.8</ele>
        <time>2024-07-09T10:53:14Z</time>
      </trkpt>
      <trkpt lat="45.07899" lon="6.13056">
        <ele>1885.6</ele>
        <time>2024-07-09T10:53:15Z</time>
      </trkpt>
      <trkpt lat="45.079" lon="6.13057">
        <ele>1885.4</ele>
        <time>2024-07-09T10:53:16Z</time>
      </trkpt>
      <trkpt lat="45.079" lon="6.13058">
        <ele>1885.3</ele>
        <time>2024-07-09T10:53:17Z</time>
      </trkpt>
      <trkpt lat="45.079" lon="6.13058">
        <ele>1885.1</ele>
        <time>2024-07-09T10:53:18Z</time>
      </trkpt>
      <trkpt lat="45.07901" lon="6.13059">
        <ele>1885</ele>
        <time>2024-07-09T10:53:19Z</time>
      </trkpt>
      <trkpt lat="45.07901" lon="6.1306">
        <ele>1884.8</ele>
        <time>2024-07-09T10:53:20Z</time>
      </trkpt>
      <trkpt lat="45.07901" lon="6.13062">
        <ele>1884.6</ele>
        <time>2024-07-09T10:53:21Z</time>
      </trkpt>
      <trkpt lat="45.07902" lon="6.13063">
        <ele>1884.4</ele>
        <time>2024-07-09T10:53:22Z</time>
      </trkpt>
      <trkpt lat="45.07902" lon="6.13064">
        <ele>1884.2</ele>
        <time>2024-07-09T10:53:23Z</time>
      </trkpt>
      <trkpt lat="45.07903" lon="6.13066">
        <ele>1883.9</ele>
        <time>2024-07-09T10:53:24Z</time>
      </trkpt>
      <trkpt lat="45.07903" lon="6.13066">
        <ele>1883.8</ele>
        <time>2024-07-09T10:53:25Z</time>
      </trkpt>
      <trkpt lat="45.07904" lon="6.13066">
        <ele>1883.7</ele>
        <time>2024-07-09T10:53:26Z</time>
      </trkpt>
      <trkpt lat="45.07905" lon="6.13067">
        <ele>1883.5</ele>
        <time>2024-07-09T10:53:27Z</time>
      </trkpt>
      <trkpt lat="45.07905" lon="6.13068">
        <ele>1883.4</ele>
        <time>2024-07-09T10:53:28Z</time>
      </trkpt>
      <trkpt lat="45.07906" lon="6.13069">
        <ele>1883.2</ele>
        <time>2024-07-09T10:53:29Z</time>
      </trkpt>
      <trkpt lat="45.07906" lon="6.1307">
        <ele>1883</ele>
        <time>2024-07-09T10:53:30Z</time>
      </trkpt>
      <trkpt lat="45.07907" lon="6.13071">
        <ele>1882.8</ele>
        <time>2024-07-09T10:53:31Z</time>
      </trkpt>
      <trkpt lat="45.07907" lon="6.13072">
        <ele>1882.7</ele>
        <time>2024-07-09T10:53:32Z</time>
      </trkpt>
      <trkpt lat="45.07907" lon="6.13073">
        <ele>1882.5</ele>
        <time>2024-07-09T10:53:33Z</time>
      </trkpt>
      <trkpt lat="45.07908" lon="6.13075">
        <ele>1882.2</ele>
        <time>2024-07-09T10:53:34Z</time>
      </trkpt>
      <trkpt lat="45.07908" lon="6.13076">
        <ele>1882.1</ele>
        <time>2024-07-09T10:53:35Z</time>
      </trkpt>
      <trkpt lat="45.07909" lon="6.13078">
        <ele>1881.8</ele>
        <time>2024-07-09T10:53:37Z</time>
      </trkpt>
      <trkpt lat="45.07909" lon="6.13079">
        <ele>1881.6</ele>
        <time>2024-07-09T10:53:38Z</time>
      </trkpt>
      <trkpt lat="45.07909" lon="6.1308">
        <ele>1881.3</ele>
        <time>2024-07-09T10:53:39Z</time>
      </trkpt>
      <trkpt lat="45.07909" lon="6.13081">
        <ele>1881.2</ele>
        <time>2024-07-09T10:53:40Z</time>
      </trkpt>
      <trkpt lat="45.0791" lon="6.13083">
        <ele>1881</ele>
        <time>2024-07-09T10:53:41Z</time>
      </trkpt>
      <trkpt lat="45.0791" lon="6.13083">
        <ele>1880.9</ele>
        <time>2024-07-09T10:53:42Z</time>
      </trkpt>
      <trkpt lat="45.0791" lon="6.13085">
        <ele>1880.7</ele>
        <time>2024-07-09T10:53:43Z</time>
      </trkpt>
      <trkpt lat="45.07911" lon="6.13087">
        <ele>1880.3</ele>
        <time>2024-07-09T10:53:45Z</time>
      </trkpt>
      <trkpt lat="45.07911" lon="6.13089">
        <ele>1880.1</ele>
        <time>2024-07-09T10:53:46Z</time>
      </trkpt>
      <trkpt lat="45.07912" lon="6.1309">
        <ele>1879.9</ele>
        <time>2024-07-09T10:53:47Z</time>
      </trkpt>
      <trkpt lat="45.07913" lon="6.13091">
        <ele>1879.6</ele>
        <time>2024-07-09T10:53:48Z</time>
      </trkpt>
      <trkpt lat="45.07914" lon="6.13092">
        <ele>1879.4</ele>
        <time>2024-07-09T10:53:49Z</time>
      </trkpt>
      <trkpt lat="45.07915" lon="6.13094">
        <ele>1879</ele>
        <time>2024-07-09T10:53:51Z</time>
      </trkpt>
      <trkpt lat="45.07915" lon="6.13095">
        <ele>1878.8</ele>
        <time>2024-07-09T10:53:52Z</time>
      </trkpt>
      <trkpt lat="45.07915" lon="6.13097">
        <ele>1878.6</ele>
        <time>2024-07-09T10:53:53Z</time>
      </trkpt>
      <trkpt lat="45.07916" lon="6.13099">
        <ele>1878.3</ele>
        <time>2024-07-09T10:53:54Z</time>
      </trkpt>
      <trkpt lat="45.07917" lon="6.13101">
        <ele>1877.9</ele>
        <time>2024-07-09T10:53:56Z</time>
      </trkpt>
      <trkpt lat="45.07917" lon="6.13103">
        <ele>1877.6</ele>
        <time>2024-07-09T10:53:57Z</time>
      </trkpt>
      <trkpt lat="45.07916" lon="6.13105">
        <ele>1877.3</ele>
        <time>2024-07-09T10:53:58Z</time>
      </trkpt>
      <trkpt lat="45.07916" lon="6.13107">
        <ele>1877</ele>
        <time>2024-07-09T10:53:59Z</time>
      </trkpt>
      <trkpt lat="45.07917" lon="6.13108">
        <ele>1876.8</ele>
        <time>2024-07-09T10:54:00Z</time>
      </trkpt>
      <trkpt lat="45.07916" lon="6.1311">
        <ele>1876.6</ele>
        <time>2024-07-09T10:54:01Z</time>
      </trkpt>
      <trkpt lat="45.07917" lon="6.13111">
        <ele>1876.3</ele>
        <time>2024-07-09T10:54:02Z</time>
      </trkpt>
      <trkpt lat="45.07917" lon="6.13113">
        <ele>1876.1</ele>
        <time>2024-07-09T10:54:03Z</time>
      </trkpt>
      <trkpt lat="45.07917" lon="6.13115">
        <ele>1875.8</ele>
        <time>2024-07-09T10:54:04Z</time>
      </trkpt>
      <trkpt lat="45.07917" lon="6.13115">
        <ele>1875.7</ele>
        <time>2024-07-09T10:54:05Z</time>
      </trkpt>
      <trkpt lat="45.07917" lon="6.13116">
        <ele>1875.6</ele>
        <time>2024-07-09T10:54:06Z</time>
      </trkpt>
      <trkpt lat="45.07917" lon="6.13117">
        <ele>1875.4</ele>
        <time>2024-07-09T10:54:08Z</time>
      </trkpt>
      <trkpt lat="45.07917" lon="6.13118">
        <ele>1875.1</ele>
        <time>2024-07-09T10:54:10Z</time>
      </trkpt>
      <trkpt lat="45.07917" lon="6.13119">
        <ele>1875</ele>
        <time>2024-07-09T10:54:11Z</time>
      </trkpt>
      <trkpt lat="45.07917" lon="6.1312">
        <ele>1874.8</ele>
        <time>2024-07-09T10:54:12Z</time>
      </trkpt>
      <trkpt lat="45.07917" lon="6.13121">
        <ele>1874.7</ele>
        <time>2024-07-09T10:54:13Z</time>
      </trkpt>
      <trkpt lat="45.07918" lon="6.13124">
        <ele>1874.2</ele>
        <time>2024-07-09T10:54:15Z</time>
      </trkpt>
      <trkpt lat="45.07919" lon="6.13125">
        <ele>1873.9</ele>
        <time>2024-07-09T10:54:16Z</time>
      </trkpt>
      <trkpt lat="45.07919" lon="6.13127">
        <ele>1873.7</ele>
        <time>2024-07-09T10:54:17Z</time>
      </trkpt>
      <trkpt lat="45.07919" lon="6.13128">
        <ele>1873.5</ele>
        <time>2024-07-09T10:54:18Z</time>
      </trkpt>
      <trkpt lat="45.07919" lon="6.13129">
        <ele>1873.3</ele>
        <time>2024-07-09T10:54:19Z</time>
      </trkpt>
      <trkpt lat="45.0792" lon="6.1313">
        <ele>1873.1</ele>
        <time>2024-07-09T10:54:20Z</time>
      </trkpt>
      <trkpt lat="45.07921" lon="6.13131">
        <ele>1872.9</ele>
        <time>2024-07-09T10:54:21Z</time>
      </trkpt>
      <trkpt lat="45.07921" lon="6.13132">
        <ele>1872.6</ele>
        <time>2024-07-09T10:54:22Z</time>
      </trkpt>
      <trkpt lat="45.07921" lon="6.13134">
        <ele>1872.4</ele>
        <time>2024-07-09T10:54:23Z</time>
      </trkpt>
      <trkpt lat="45.07922" lon="6.13135">
        <ele>1872.2</ele>
        <time>2024-07-09T10:54:24Z</time>
      </trkpt>
      <trkpt lat="45.07923" lon="6.13137">
        <ele>1871.7</ele>
        <time>2024-07-09T10:54:26Z</time>
      </trkpt>
      <trkpt lat="45.07923" lon="6.13138">
        <ele>1871.5</ele>
        <time>2024-07-09T10:54:27Z</time>
      </trkpt>
      <trkpt lat="45.07923" lon="6.13139">
        <ele>1871.3</ele>
        <time>2024-07-09T10:54:28Z</time>
      </trkpt>
      <trkpt lat="45.07923" lon="6.13141">
        <ele>1871</ele>
        <time>2024-07-09T10:54:29Z</time>
      </trkpt>
      <trkpt lat="45.07923" lon="6.13143">
        <ele>1870.6</ele>
        <time>2024-07-09T10:54:31Z</time>
      </trkpt>
      <trkpt lat="45.07923" lon="6.13145">
        <ele>1870.4</ele>
        <time>2024-07-09T10:54:32Z</time>
      </trkpt>
      <trkpt lat="45.07923" lon="6.13146">
        <ele>1870.2</ele>
        <time>2024-07-09T10:54:33Z</time>
      </trkpt>
      <trkpt lat="45.07923" lon="6.13148">
        <ele>1869.9</ele>
        <time>2024-07-09T10:54:35Z</time>
      </trkpt>
      <trkpt lat="45.07923" lon="6.1315">
        <ele>1869.5</ele>
        <time>2024-07-09T10:54:36Z</time>
      </trkpt>
      <trkpt lat="45.07923" lon="6.13151">
        <ele>1869.3</ele>
        <time>2024-07-09T10:54:37Z</time>
      </trkpt>
      <trkpt lat="45.07923" lon="6.13152">
        <ele>1869.1</ele>
        <time>2024-07-09T10:54:38Z</time>
      </trkpt>
      <trkpt lat="45.07924" lon="6.13155">
        <ele>1868.7</ele>
        <time>2024-07-09T10:54:40Z</time>
      </trkpt>
      <trkpt lat="45.07924" lon="6.13156">
        <ele>1868.5</ele>
        <time>2024-07-09T10:54:41Z</time>
      </trkpt>
      <trkpt lat="45.07925" lon="6.13157">
        <ele>1868.3</ele>
        <time>2024-07-09T10:54:42Z</time>
      </trkpt>
      <trkpt lat="45.07926" lon="6.13158">
        <ele>1868.1</ele>
        <time>2024-07-09T10:54:43Z</time>
      </trkpt>
      <trkpt lat="45.07927" lon="6.1316">
        <ele>1867.7</ele>
        <time>2024-07-09T10:54:45Z</time>
      </trkpt>
      <trkpt lat="45.07927" lon="6.1316">
        <ele>1867.6</ele>
        <time>2024-07-09T10:54:46Z</time>
      </trkpt>
      <trkpt lat="45.07927" lon="6.13161">
        <ele>1867.5</ele>
        <time>2024-07-09T10:54:47Z</time>
      </trkpt>
      <trkpt lat="45.07927" lon="6.13163">
        <ele>1867.3</ele>
        <time>2024-07-09T10:54:48Z</time>
      </trkpt>
      <trkpt lat="45.07927" lon="6.13164">
        <ele>1867.1</ele>
        <time>2024-07-09T10:54:49Z</time>
      </trkpt>
      <trkpt lat="45.07927" lon="6.13165">
        <ele>1866.9</ele>
        <time>2024-07-09T10:54:50Z</time>
      </trkpt>
      <trkpt lat="45.07927" lon="6.13167">
        <ele>1866.7</ele>
        <time>2024-07-09T10:54:51Z</time>
      </trkpt>
      <trkpt lat="45.07927" lon="6.13167">
        <ele>1866.6</ele>
        <time>2024-07-09T10:54:52Z</time>
      </trkpt>
      <trkpt lat="45.07927" lon="6.13169">
        <ele>1866.4</ele>
        <time>2024-07-09T10:54:53Z</time>
      </trkpt>
      <trkpt lat="45.07927" lon="6.1317">
        <ele>1866.2</ele>
        <time>2024-07-09T10:54:54Z</time>
      </trkpt>
      <trkpt lat="45.07927" lon="6.13171">
        <ele>1866.1</ele>
        <time>2024-07-09T10:54:55Z</time>
      </trkpt>
      <trkpt lat="45.07927" lon="6.13172">
        <ele>1866</ele>
        <time>2024-07-09T10:54:56Z</time>
      </trkpt>
      <trkpt lat="45.07927" lon="6.13174">
        <ele>1865.8</ele>
        <time>2024-07-09T10:54:57Z</time>
      </trkpt>
      <trkpt lat="45.07927" lon="6.13175">
        <ele>1865.6</ele>
        <time>2024-07-09T10:54:58Z</time>
      </trkpt>
      <trkpt lat="45.07927" lon="6.13177">
        <ele>1865.4</ele>
        <time>2024-07-09T10:54:59Z</time>
      </trkpt>
      <trkpt lat="45.07927" lon="6.13179">
        <ele>1865.2</ele>
        <time>2024-07-09T10:55:01Z</time>
      </trkpt>
      <trkpt lat="45.07927" lon="6.1318">
        <ele>1865</ele>
        <time>2024-07-09T10:55:02Z</time>
      </trkpt>
      <trkpt lat="45.07927" lon="6.13182">
        <ele>1864.9</ele>
        <time>2024-07-09T10:55:03Z</time>
      </trkpt>
      <trkpt lat="45.07927" lon="6.13183">
        <ele>1864.8</ele>
        <time>2024-07-09T10:55:04Z</time>
      </trkpt>
      <trkpt lat="45.07927" lon="6.13184">
        <ele>1864.6</ele>
        <time>2024-07-09T10:55:05Z</time>
      </trkpt>
      <trkpt lat="45.07927" lon="6.13185">
        <ele>1864.5</ele>
        <time>2024-07-09T10:55:06Z</time>
      </trkpt>
      <trkpt lat="45.07927" lon="6.13187">
        <ele>1864.3</ele>
        <time>2024-07-09T10:55:07Z</time>
      </trkpt>
      <trkpt lat="45.07926" lon="6.13188">
        <ele>1864.2</ele>
        <time>2024-07-09T10:55:08Z</time>
      </trkpt>
      <trkpt lat="45.07926" lon="6.1319">
        <ele>1864</ele>
        <time>2024-07-09T10:55:09Z</time>
      </trkpt>
      <trkpt lat="45.07926" lon="6.13191">
        <ele>1863.9</ele>
        <time>2024-07-09T10:55:10Z</time>
      </trkpt>
      <trkpt lat="45.07926" lon="6.13192">
        <ele>1863.8</ele>
        <time>2024-07-09T10:55:11Z</time>
      </trkpt>
      <trkpt lat="45.07926" lon="6.13193">
        <ele>1863.6</ele>
        <time>2024-07-09T10:55:12Z</time>
      </trkpt>
      <trkpt lat="45.07926" lon="6.13195">
        <ele>1863.5</ele>
        <time>2024-07-09T10:55:13Z</time>
      </trkpt>
      <trkpt lat="45.07927" lon="6.13197">
        <ele>1863.2</ele>
        <time>2024-07-09T10:55:14Z</time>
      </trkpt>
      <trkpt lat="45.07926" lon="6.13198">
        <ele>1863.2</ele>
        <time>2024-07-09T10:55:15Z</time>
      </trkpt>
      <trkpt lat="45.07926" lon="6.13199">
        <ele>1863</ele>
        <time>2024-07-09T10:55:16Z</time>
      </trkpt>
      <trkpt lat="45.07926" lon="6.132">
        <ele>1862.9</ele>
        <time>2024-07-09T10:55:17Z</time>
      </trkpt>
      <trkpt lat="45.07926" lon="6.13202">
        <ele>1862.7</ele>
        <time>2024-07-09T10:55:18Z</time>
      </trkpt>
      <trkpt lat="45.07928" lon="6.13204">
        <ele>1862.4</ele>
        <time>2024-07-09T10:55:20Z</time>
      </trkpt>
      <trkpt lat="45.07929" lon="6.13205">
        <ele>1862.2</ele>
        <time>2024-07-09T10:55:21Z</time>
      </trkpt>
      <trkpt lat="45.0793" lon="6.13205">
        <ele>1862.1</ele>
        <time>2024-07-09T10:55:23Z</time>
      </trkpt>
      <trkpt lat="45.0793" lon="6.13206">
        <ele>1862</ele>
        <time>2024-07-09T10:55:24Z</time>
      </trkpt>
      <trkpt lat="45.07932" lon="6.13208">
        <ele>1861.7</ele>
        <time>2024-07-09T10:55:25Z</time>
      </trkpt>
      <trkpt lat="45.07933" lon="6.1321">
        <ele>1861.5</ele>
        <time>2024-07-09T10:55:27Z</time>
      </trkpt>
      <trkpt lat="45.07935" lon="6.13211">
        <ele>1861.1</ele>
        <time>2024-07-09T10:55:29Z</time>
      </trkpt>
      <trkpt lat="45.07935" lon="6.13212">
        <ele>1861</ele>
        <time>2024-07-09T10:55:31Z</time>
      </trkpt>
      <trkpt lat="45.07936" lon="6.13213">
        <ele>1860.9</ele>
        <time>2024-07-09T10:55:32Z</time>
      </trkpt>
      <trkpt lat="45.07936" lon="6.13214">
        <ele>1860.7</ele>
        <time>2024-07-09T10:55:33Z</time>
      </trkpt>
      <trkpt lat="45.07937" lon="6.13215">
        <ele>1860.6</ele>
        <time>2024-07-09T10:55:34Z</time>
      </trkpt>
      <trkpt lat="45.07938" lon="6.13217">
        <ele>1860.3</ele>
        <time>2024-07-09T10:55:35Z</time>
      </trkpt>
      <trkpt lat="45.07939" lon="6.13217">
        <ele>1860.2</ele>
        <time>2024-07-09T10:55:36Z</time>
      </trkpt>
      <trkpt lat="45.07939" lon="6.13218">
        <ele>1860.1</ele>
        <time>2024-07-09T10:55:37Z</time>
      </trkpt>
      <trkpt lat="45.0794" lon="6.13219">
        <ele>1859.9</ele>
        <time>2024-07-09T10:55:38Z</time>
      </trkpt>
      <trkpt lat="45.0794" lon="6.13221">
        <ele>1859.6</ele>
        <time>2024-07-09T10:55:40Z</time>
      </trkpt>
      <trkpt lat="45.07941" lon="6.13222">
        <ele>1859.4</ele>
        <time>2024-07-09T10:55:41Z</time>
      </trkpt>
      <trkpt lat="45.07942" lon="6.13223">
        <ele>1859.3</ele>
        <time>2024-07-09T10:55:42Z</time>
      </trkpt>
      <trkpt lat="45.07942" lon="6.13224">
        <ele>1859.2</ele>
        <time>2024-07-09T10:55:43Z</time>
      </trkpt>
      <trkpt lat="45.07943" lon="6.13225">
        <ele>1859</ele>
        <time>2024-07-09T10:55:44Z</time>
      </trkpt>
      <trkpt lat="45.07943" lon="6.13225">
        <ele>1858.9</ele>
        <time>2024-07-09T10:55:45Z</time>
      </trkpt>
      <trkpt lat="45.07943" lon="6.13226">
        <ele>1858.8</ele>
        <time>2024-07-09T10:55:47Z</time>
      </trkpt>
      <trkpt lat="45.07943" lon="6.13229">
        <ele>1858.5</ele>
        <time>2024-07-09T10:55:48Z</time>
      </trkpt>
      <trkpt lat="45.07943" lon="6.13232">
        <ele>1858.1</ele>
        <time>2024-07-09T10:55:50Z</time>
      </trkpt>
      <trkpt lat="45.07944" lon="6.13233">
        <ele>1858</ele>
        <time>2024-07-09T10:55:51Z</time>
      </trkpt>
      <trkpt lat="45.07944" lon="6.13234">
        <ele>1857.8</ele>
        <time>2024-07-09T10:55:52Z</time>
      </trkpt>
      <trkpt lat="45.07946" lon="6.13236">
        <ele>1857.3</ele>
        <time>2024-07-09T10:55:53Z</time>
      </trkpt>
      <trkpt lat="45.07947" lon="6.13237">
        <ele>1857.1</ele>
        <time>2024-07-09T10:55:55Z</time>
      </trkpt>
      <trkpt lat="45.07948" lon="6.13237">
        <ele>1856.9</ele>
        <time>2024-07-09T10:55:56Z</time>
      </trkpt>
      <trkpt lat="45.07951" lon="6.13235">
        <ele>1856.3</ele>
        <time>2024-07-09T10:55:58Z</time>
      </trkpt>
      <trkpt lat="45.07951" lon="6.13233">
        <ele>1855.9</ele>
        <time>2024-07-09T10:56:00Z</time>
      </trkpt>
      <trkpt lat="45.07952" lon="6.13231">
        <ele>1855.7</ele>
        <time>2024-07-09T10:56:01Z</time>
      </trkpt>
      <trkpt lat="45.07952" lon="6.13229">
        <ele>1855.4</ele>
        <time>2024-07-09T10:56:02Z</time>
      </trkpt>
      <trkpt lat="45.07952" lon="6.13227">
        <ele>1855.1</ele>
        <time>2024-07-09T10:56:04Z</time>
      </trkpt>
      <trkpt lat="45.07953" lon="6.13223">
        <ele>1854.6</ele>
        <time>2024-07-09T10:56:05Z</time>
      </trkpt>
      <trkpt lat="45.07954" lon="6.13223">
        <ele>1854.3</ele>
        <time>2024-07-09T10:56:06Z</time>
      </trkpt>
      <trkpt lat="45.07956" lon="6.13221">
        <ele>1853.8</ele>
        <time>2024-07-09T10:56:08Z</time>
      </trkpt>
      <trkpt lat="45.07958" lon="6.13222">
        <ele>1853.3</ele>
        <time>2024-07-09T10:56:10Z</time>
      </trkpt>
      <trkpt lat="45.07959" lon="6.13223">
        <ele>1853.1</ele>
        <time>2024-07-09T10:56:11Z</time>
      </trkpt>
      <trkpt lat="45.0796" lon="6.13222">
        <ele>1852.9</ele>
        <time>2024-07-09T10:56:12Z</time>
      </trkpt>
      <trkpt lat="45.07961" lon="6.13221">
        <ele>1852.7</ele>
        <time>2024-07-09T10:56:13Z</time>
      </trkpt>
      <trkpt lat="45.07962" lon="6.13221">
        <ele>1852.4</ele>
        <time>2024-07-09T10:56:14Z</time>
      </trkpt>
      <trkpt lat="45.07963" lon="6.1322">
        <ele>1852.1</ele>
        <time>2024-07-09T10:56:15Z</time>
      </trkpt>
      <trkpt lat="45.07964" lon="6.1322">
        <ele>1851.9</ele>
        <time>2024-07-09T10:56:16Z</time>
      </trkpt>
      <trkpt lat="45.07965" lon="6.13219">
        <ele>1851.6</ele>
        <time>2024-07-09T10:56:17Z</time>
      </trkpt>
      <trkpt lat="45.07966" lon="6.13219">
        <ele>1851.5</ele>
        <time>2024-07-09T10:56:18Z</time>
      </trkpt>
      <trkpt lat="45.07968" lon="6.1322">
        <ele>1850.9</ele>
        <time>2024-07-09T10:56:20Z</time>
      </trkpt>
      <trkpt lat="45.07969" lon="6.1322">
        <ele>1850.8</ele>
        <time>2024-07-09T10:56:21Z</time>
      </trkpt>
      <trkpt lat="45.07969" lon="6.13221">
        <ele>1850.6</ele>
        <time>2024-07-09T10:56:22Z</time>
      </trkpt>
      <trkpt lat="45.07972" lon="6.13222">
        <ele>1850</ele>
        <time>2024-07-09T10:56:24Z</time>
      </trkpt>
      <trkpt lat="45.07973" lon="6.13224">
        <ele>1849.7</ele>
        <time>2024-07-09T10:56:26Z</time>
      </trkpt>
      <trkpt lat="45.07974" lon="6.13224">
        <ele>1849.5</ele>
        <time>2024-07-09T10:56:27Z</time>
      </trkpt>
      <trkpt lat="45.07974" lon="6.13225">
        <ele>1849.4</ele>
        <time>2024-07-09T10:56:29Z</time>
      </trkpt>
      <trkpt lat="45.07975" lon="6.13225">
        <ele>1849.1</ele>
        <time>2024-07-09T10:56:30Z</time>
      </trkpt>
      <trkpt lat="45.07976" lon="6.13223">
        <ele>1849</ele>
        <time>2024-07-09T10:56:31Z</time>
      </trkpt>
      <trkpt lat="45.07976" lon="6.13223">
        <ele>1849</ele>
        <time>2024-07-09T10:56:32Z</time>
      </trkpt>
      <trkpt lat="45.07975" lon="6.13223">
        <ele>1848.9</ele>
        <time>2024-07-09T10:56:34Z</time>
      </trkpt>
      <trkpt lat="45.07974" lon="6.13224">
        <ele>1848.9</ele>
        <time>2024-07-09T10:56:35Z</time>
      </trkpt>
      <trkpt lat="45.07974" lon="6.13224">
        <ele>1848.8</ele>
        <time>2024-07-09T10:56:36Z</time>
      </trkpt>
      <trkpt lat="45.07974" lon="6.13224">
        <ele>1848.8</ele>
        <time>2024-07-09T10:56:37Z</time>
      </trkpt>
      <trkpt lat="45.07974" lon="6.13224">
        <ele>1848.8</ele>
        <time>2024-07-09T10:56:38Z</time>
      </trkpt>
      <trkpt lat="45.07974" lon="6.13224">
        <ele>1848.8</ele>
        <time>2024-07-09T10:56:40Z</time>
      </trkpt>
      <trkpt lat="45.07974" lon="6.13224">
        <ele>1848.8</ele>
        <time>2024-07-09T10:56:41Z</time>
      </trkpt>
      <trkpt lat="45.07974" lon="6.13223">
        <ele>1848.8</ele>
        <time>2024-07-09T10:56:43Z</time>
      </trkpt>
      <trkpt lat="45.07975" lon="6.13223">
        <ele>1848.7</ele>
        <time>2024-07-09T10:56:44Z</time>
      </trkpt>
      <trkpt lat="45.07975" lon="6.13222">
        <ele>1848.6</ele>
        <time>2024-07-09T10:56:45Z</time>
      </trkpt>
      <trkpt lat="45.07976" lon="6.13217">
        <ele>1848.4</ele>
        <time>2024-07-09T10:56:46Z</time>
      </trkpt>
      <trkpt lat="45.07977" lon="6.13215">
        <ele>1848.2</ele>
        <time>2024-07-09T10:56:47Z</time>
      </trkpt>
      <trkpt lat="45.07977" lon="6.13213">
        <ele>1848.1</ele>
        <time>2024-07-09T10:56:48Z</time>
      </trkpt>
      <trkpt lat="45.07977" lon="6.13209">
        <ele>1847.8</ele>
        <time>2024-07-09T10:56:50Z</time>
      </trkpt>
      <trkpt lat="45.07977" lon="6.13207">
        <ele>1847.7</ele>
        <time>2024-07-09T10:56:51Z</time>
      </trkpt>
      <trkpt lat="45.07977" lon="6.13205">
        <ele>1847.6</ele>
        <time>2024-07-09T10:56:52Z</time>
      </trkpt>
      <trkpt lat="45.07977" lon="6.13203">
        <ele>1847.5</ele>
        <time>2024-07-09T10:56:54Z</time>
      </trkpt>
      <trkpt lat="45.07979" lon="6.13201">
        <ele>1847.3</ele>
        <time>2024-07-09T10:56:55Z</time>
      </trkpt>
      <trkpt lat="45.07977" lon="6.13198">
        <ele>1847.1</ele>
        <time>2024-07-09T10:56:57Z</time>
      </trkpt>
      <trkpt lat="45.07976" lon="6.13197">
        <ele>1847</ele>
        <time>2024-07-09T10:56:59Z</time>
      </trkpt>
      <trkpt lat="45.07974" lon="6.13196">
        <ele>1846.9</ele>
        <time>2024-07-09T10:57:00Z</time>
      </trkpt>
      <trkpt lat="45.07973" lon="6.13195">
        <ele>1846.8</ele>
        <time>2024-07-09T10:57:01Z</time>
      </trkpt>
      <trkpt lat="45.07973" lon="6.13193">
        <ele>1846.7</ele>
        <time>2024-07-09T10:57:02Z</time>
      </trkpt>
      <trkpt lat="45.07973" lon="6.13191">
        <ele>1846.5</ele>
        <time>2024-07-09T10:57:03Z</time>
      </trkpt>
      <trkpt lat="45.07973" lon="6.1319">
        <ele>1846.5</ele>
        <time>2024-07-09T10:57:04Z</time>
      </trkpt>
      <trkpt lat="45.07973" lon="6.13189">
        <ele>1846.4</ele>
        <time>2024-07-09T10:57:05Z</time>
      </trkpt>
      <trkpt lat="45.07973" lon="6.13187">
        <ele>1846.3</ele>
        <time>2024-07-09T10:57:06Z</time>
      </trkpt>
      <trkpt lat="45.07973" lon="6.13185">
        <ele>1846.2</ele>
        <time>2024-07-09T10:57:07Z</time>
      </trkpt>
      <trkpt lat="45.07973" lon="6.13183">
        <ele>1846.1</ele>
        <time>2024-07-09T10:57:09Z</time>
      </trkpt>
      <trkpt lat="45.07974" lon="6.13181">
        <ele>1846</ele>
        <time>2024-07-09T10:57:10Z</time>
      </trkpt>
      <trkpt lat="45.07972" lon="6.1318">
        <ele>1845.8</ele>
        <time>2024-07-09T10:57:11Z</time>
      </trkpt>
      <trkpt lat="45.07972" lon="6.13178">
        <ele>1845.7</ele>
        <time>2024-07-09T10:57:13Z</time>
      </trkpt>
      <trkpt lat="45.07975" lon="6.13178">
        <ele>1845.6</ele>
        <time>2024-07-09T10:57:14Z</time>
      </trkpt>
      <trkpt lat="45.07975" lon="6.13175">
        <ele>1845.4</ele>
        <time>2024-07-09T10:57:15Z</time>
      </trkpt>
      <trkpt lat="45.07975" lon="6.13172">
        <ele>1845.3</ele>
        <time>2024-07-09T10:57:16Z</time>
      </trkpt>
      <trkpt lat="45.07976" lon="6.1317">
        <ele>1845.2</ele>
        <time>2024-07-09T10:57:17Z</time>
      </trkpt>
      <trkpt lat="45.07976" lon="6.13168">
        <ele>1845</ele>
        <time>2024-07-09T10:57:18Z</time>
      </trkpt>
      <trkpt lat="45.07976" lon="6.13166">
        <ele>1845</ele>
        <time>2024-07-09T10:57:19Z</time>
      </trkpt>
      <trkpt lat="45.07976" lon="6.13165">
        <ele>1844.9</ele>
        <time>2024-07-09T10:57:20Z</time>
      </trkpt>
      <trkpt lat="45.07977" lon="6.13164">
        <ele>1844.8</ele>
        <time>2024-07-09T10:57:21Z</time>
      </trkpt>
      <trkpt lat="45.07977" lon="6.13162">
        <ele>1844.7</ele>
        <time>2024-07-09T10:57:22Z</time>
      </trkpt>
      <trkpt lat="45.07978" lon="6.13159">
        <ele>1844.5</ele>
        <time>2024-07-09T10:57:24Z</time>
      </trkpt>
      <trkpt lat="45.07979" lon="6.13157">
        <ele>1844.5</ele>
        <time>2024-07-09T10:57:25Z</time>
      </trkpt>
      <trkpt lat="45.07979" lon="6.13156">
        <ele>1844.4</ele>
        <time>2024-07-09T10:57:26Z</time>
      </trkpt>
      <trkpt lat="45.07979" lon="6.13153">
        <ele>1844.2</ele>
        <time>2024-07-09T10:57:27Z</time>
      </trkpt>
      <trkpt lat="45.07979" lon="6.13152">
        <ele>1844.2</ele>
        <time>2024-07-09T10:57:28Z</time>
      </trkpt>
      <trkpt lat="45.07979" lon="6.13151">
        <ele>1844.1</ele>
        <time>2024-07-09T10:57:29Z</time>
      </trkpt>
      <trkpt lat="45.07979" lon="6.13148">
        <ele>1844</ele>
        <time>2024-07-09T10:57:31Z</time>
      </trkpt>
      <trkpt lat="45.07979" lon="6.13146">
        <ele>1843.9</ele>
        <time>2024-07-09T10:57:32Z</time>
      </trkpt>
      <trkpt lat="45.0798" lon="6.13143">
        <ele>1843.7</ele>
        <time>2024-07-09T10:57:34Z</time>
      </trkpt>
      <trkpt lat="45.0798" lon="6.13142">
        <ele>1843.7</ele>
        <time>2024-07-09T10:57:35Z</time>
      </trkpt>
      <trkpt lat="45.07981" lon="6.13141">
        <ele>1843.6</ele>
        <time>2024-07-09T10:57:36Z</time>
      </trkpt>
      <trkpt lat="45.07981" lon="6.13139">
        <ele>1843.5</ele>
        <time>2024-07-09T10:57:37Z</time>
      </trkpt>
      <trkpt lat="45.07982" lon="6.13137">
        <ele>1843.4</ele>
        <time>2024-07-09T10:57:38Z</time>
      </trkpt>
      <trkpt lat="45.07982" lon="6.13136">
        <ele>1843.4</ele>
        <time>2024-07-09T10:57:39Z</time>
      </trkpt>
      <trkpt lat="45.07982" lon="6.13135">
        <ele>1843.3</ele>
        <time>2024-07-09T10:57:40Z</time>
      </trkpt>
      <trkpt lat="45.07983" lon="6.13134">
        <ele>1843.2</ele>
        <time>2024-07-09T10:57:41Z</time>
      </trkpt>
      <trkpt lat="45.07983" lon="6.13131">
        <ele>1843.1</ele>
        <time>2024-07-09T10:57:43Z</time>
      </trkpt>
      <trkpt lat="45.07984" lon="6.13129">
        <ele>1843</ele>
        <time>2024-07-09T10:57:44Z</time>
      </trkpt>
      <trkpt lat="45.07984" lon="6.13128">
        <ele>1842.9</ele>
        <time>2024-07-09T10:57:45Z</time>
      </trkpt>
      <trkpt lat="45.07985" lon="6.13127">
        <ele>1842.8</ele>
        <time>2024-07-09T10:57:46Z</time>
      </trkpt>
      <trkpt lat="45.07985" lon="6.13125">
        <ele>1842.8</ele>
        <time>2024-07-09T10:57:47Z</time>
      </trkpt>
      <trkpt lat="45.07985" lon="6.13124">
        <ele>1842.7</ele>
        <time>2024-07-09T10:57:48Z</time>
      </trkpt>
      <trkpt lat="45.07986" lon="6.1312">
        <ele>1842.5</ele>
        <time>2024-07-09T10:57:50Z</time>
      </trkpt>
      <trkpt lat="45.07987" lon="6.13118">
        <ele>1842.4</ele>
        <time>2024-07-09T10:57:52Z</time>
      </trkpt>
      <trkpt lat="45.07988" lon="6.13116">
        <ele>1842.3</ele>
        <time>2024-07-09T10:57:53Z</time>
      </trkpt>
      <trkpt lat="45.07988" lon="6.13113">
        <ele>1842.1</ele>
        <time>2024-07-09T10:57:55Z</time>
      </trkpt>
      <trkpt lat="45.07989" lon="6.13112">
        <ele>1842.1</ele>
        <time>2024-07-09T10:57:56Z</time>
      </trkpt>
      <trkpt lat="45.07989" lon="6.13111">
        <ele>1842</ele>
        <time>2024-07-09T10:57:57Z</time>
      </trkpt>
      <trkpt lat="45.07989" lon="6.13109">
        <ele>1841.9</ele>
        <time>2024-07-09T10:57:58Z</time>
      </trkpt>
      <trkpt lat="45.07989" lon="6.13108">
        <ele>1841.9</ele>
        <time>2024-07-09T10:57:59Z</time>
      </trkpt>
      <trkpt lat="45.0799" lon="6.13106">
        <ele>1841.8</ele>
        <time>2024-07-09T10:58:00Z</time>
      </trkpt>
      <trkpt lat="45.0799" lon="6.13105">
        <ele>1841.7</ele>
        <time>2024-07-09T10:58:01Z</time>
      </trkpt>
      <trkpt lat="45.0799" lon="6.13104">
        <ele>1841.6</ele>
        <time>2024-07-09T10:58:02Z</time>
      </trkpt>
      <trkpt lat="45.07991" lon="6.13102">
        <ele>1841.6</ele>
        <time>2024-07-09T10:58:03Z</time>
      </trkpt>
      <trkpt lat="45.0799" lon="6.13101">
        <ele>1841.5</ele>
        <time>2024-07-09T10:58:04Z</time>
      </trkpt>
      <trkpt lat="45.0799" lon="6.13099">
        <ele>1841.4</ele>
        <time>2024-07-09T10:58:05Z</time>
      </trkpt>
      <trkpt lat="45.0799" lon="6.13098">
        <ele>1841.4</ele>
        <time>2024-07-09T10:58:06Z</time>
      </trkpt>
      <trkpt lat="45.07991" lon="6.13097">
        <ele>1841.3</ele>
        <time>2024-07-09T10:58:07Z</time>
      </trkpt>
      <trkpt lat="45.07991" lon="6.13095">
        <ele>1841.2</ele>
        <time>2024-07-09T10:58:08Z</time>
      </trkpt>
      <trkpt lat="45.07993" lon="6.13092">
        <ele>1841</ele>
        <time>2024-07-09T10:58:10Z</time>
      </trkpt>
      <trkpt lat="45.07995" lon="6.13091">
        <ele>1840.9</ele>
        <time>2024-07-09T10:58:11Z</time>
      </trkpt>
      <trkpt lat="45.07998" lon="6.1309">
        <ele>1840.6</ele>
        <time>2024-07-09T10:58:13Z</time>
      </trkpt>
      <trkpt lat="45.07999" lon="6.1309">
        <ele>1840.6</ele>
        <time>2024-07-09T10:58:14Z</time>
      </trkpt>
      <trkpt lat="45.08" lon="6.1309">
        <ele>1840.5</ele>
        <time>2024-07-09T10:58:15Z</time>
      </trkpt>
      <trkpt lat="45.08001" lon="6.1309">
        <ele>1840.4</ele>
        <time>2024-07-09T10:58:16Z</time>
      </trkpt>
      <trkpt lat="45.08003" lon="6.13092">
        <ele>1840.3</ele>
        <time>2024-07-09T10:58:17Z</time>
      </trkpt>
      <trkpt lat="45.08004" lon="6.13093">
        <ele>1840.2</ele>
        <time>2024-07-09T10:58:19Z</time>
      </trkpt>
      <trkpt lat="45.08006" lon="6.13094">
        <ele>1840.1</ele>
        <time>2024-07-09T10:58:20Z</time>
      </trkpt>
      <trkpt lat="45.08005" lon="6.13096">
        <ele>1840</ele>
        <time>2024-07-09T10:58:21Z</time>
      </trkpt>
      <trkpt lat="45.08004" lon="6.13097">
        <ele>1839.9</ele>
        <time>2024-07-09T10:58:22Z</time>
      </trkpt>
      <trkpt lat="45.08003" lon="6.13098">
        <ele>1839.8</ele>
        <time>2024-07-09T10:58:23Z</time>
      </trkpt>
      <trkpt lat="45.08007" lon="6.131">
        <ele>1839.6</ele>
        <time>2024-07-09T10:58:25Z</time>
      </trkpt>
      <trkpt lat="45.08008" lon="6.131">
        <ele>1839.5</ele>
        <time>2024-07-09T10:58:26Z</time>
      </trkpt>
    </trkseg>
  </trk>
</gpx>